<?xml version='1.0' encoding='UTF-8'?><gpx version="1.1" creator="JPX - https://github.com/jenetics/jpx" xmlns="http://www.topografix.com/GPX/1/1"><trk><trkseg><trkpt lat="43.5439317" lon="10.5268683"><ele>42.0</ele><time>2026-04-25T08:45:07.138Z</time></trkpt><trkpt lat="43.543975" lon="10.5267617"><ele>42.0</ele><time>2026-04-25T08:54:23.128Z</time></trkpt><trkpt lat="43.54398" lon="10.5266083"><ele>42.0</ele><time>2026-04-25T08:54:25.11Z</time></trkpt><trkpt lat="43.5439567" lon="10.5264583"><ele>42.0</ele><time>2026-04-25T08:54:27.112Z</time></trkpt><trkpt lat="43.5438683" lon="10.5264367"><ele>42.0</ele><time>2026-04-25T08:54:29.121Z</time></trkpt><trkpt lat="43.54381" lon="10.52648"><ele>42.0</ele><time>2026-04-25T08:54:30.136Z</time></trkpt><trkpt lat="43.543735" lon="10.5265267"><ele>42.0</ele><time>2026-04-25T08:54:31.124Z</time></trkpt><trkpt lat="43.54363" lon="10.5265833"><ele>42.0</ele><time>2026-04-25T08:54:32.112Z</time></trkpt><trkpt lat="43.54351" lon="10.5266333"><ele>42.0</ele><time>2026-04-25T08:54:33.123Z</time></trkpt><trkpt lat="43.5433817" lon="10.5266833"><ele>41.75</ele><time>2026-04-25T08:54:34.132Z</time></trkpt><trkpt lat="43.543265" lon="10.526735"><ele>41.5</ele><time>2026-04-25T08:54:35.122Z</time></trkpt><trkpt lat="43.5431483" lon="10.5267883"><ele>41.25</ele><time>2026-04-25T08:54:36.127Z</time></trkpt><trkpt lat="43.5430283" lon="10.526845"><ele>41.0</ele><time>2026-04-25T08:54:37.128Z</time></trkpt><trkpt lat="43.5429133" lon="10.5269"><ele>41.199999999999996</ele><time>2026-04-25T08:54:38.126Z</time></trkpt><trkpt lat="43.5428017" lon="10.526955"><ele>41.4</ele><time>2026-04-25T08:54:39.119Z</time></trkpt><trkpt lat="43.54269" lon="10.5270067"><ele>41.6</ele><time>2026-04-25T08:54:40.121Z</time></trkpt><trkpt lat="43.5425867" lon="10.527045"><ele>41.8</ele><time>2026-04-25T08:54:41.126Z</time></trkpt><trkpt lat="43.542485" lon="10.5270733"><ele>42.0</ele><time>2026-04-25T08:54:42.128Z</time></trkpt><trkpt lat="43.5423833" lon="10.5270867"><ele>42.0</ele><time>2026-04-25T08:54:43.132Z</time></trkpt><trkpt lat="43.5422783" lon="10.527095"><ele>42.0</ele><time>2026-04-25T08:54:44.117Z</time></trkpt><trkpt lat="43.5421667" lon="10.5271033"><ele>42.0</ele><time>2026-04-25T08:54:45.122Z</time></trkpt><trkpt lat="43.5420483" lon="10.52711"><ele>42.0</ele><time>2026-04-25T08:54:46.123Z</time></trkpt><trkpt lat="43.5419233" lon="10.527115"><ele>42.5</ele><time>2026-04-25T08:54:47.114Z</time></trkpt><trkpt lat="43.5417933" lon="10.5271117"><ele>43.0</ele><time>2026-04-25T08:54:48.12Z</time></trkpt><trkpt lat="43.5416583" lon="10.5271033"><ele>43.5</ele><time>2026-04-25T08:54:49.122Z</time></trkpt><trkpt lat="43.5415217" lon="10.5270867"><ele>44.0</ele><time>2026-04-25T08:54:50.12Z</time></trkpt><trkpt lat="43.5413833" lon="10.527065"><ele>43.0</ele><time>2026-04-25T08:54:51.122Z</time></trkpt><trkpt lat="43.5412533" lon="10.5270333"><ele>42.0</ele><time>2026-04-25T08:54:52.12Z</time></trkpt><trkpt lat="43.5411233" lon="10.5269967"><ele>41.0</ele><time>2026-04-25T08:54:53.126Z</time></trkpt><trkpt lat="43.540995" lon="10.5269617"><ele>40.0</ele><time>2026-04-25T08:54:54.138Z</time></trkpt><trkpt lat="43.5408717" lon="10.526925"><ele>40.0</ele><time>2026-04-25T08:54:55.13Z</time></trkpt><trkpt lat="43.5407583" lon="10.52689"><ele>40.0</ele><time>2026-04-25T08:54:56.121Z</time></trkpt><trkpt lat="43.5406417" lon="10.5268483"><ele>40.0</ele><time>2026-04-25T08:54:57.123Z</time></trkpt><trkpt lat="43.540525" lon="10.5268083"><ele>40.0</ele><time>2026-04-25T08:54:58.125Z</time></trkpt><trkpt lat="43.5404083" lon="10.52676"><ele>40.75</ele><time>2026-04-25T08:54:59.13Z</time></trkpt><trkpt lat="43.54029" lon="10.5267117"><ele>41.5</ele><time>2026-04-25T08:55:00.13Z</time></trkpt><trkpt lat="43.5401683" lon="10.5266617"><ele>42.25</ele><time>2026-04-25T08:55:01.118Z</time></trkpt><trkpt lat="43.5400483" lon="10.52661"><ele>43.0</ele><time>2026-04-25T08:55:02.123Z</time></trkpt><trkpt lat="43.5399267" lon="10.5265533"><ele>43.0</ele><time>2026-04-25T08:55:03.125Z</time></trkpt><trkpt lat="43.53981" lon="10.5265"><ele>43.0</ele><time>2026-04-25T08:55:04.135Z</time></trkpt><trkpt lat="43.5396933" lon="10.52645"><ele>43.0</ele><time>2026-04-25T08:55:05.119Z</time></trkpt><trkpt lat="43.5395783" lon="10.5264117"><ele>43.0</ele><time>2026-04-25T08:55:06.129Z</time></trkpt><trkpt lat="43.539465" lon="10.5263883"><ele>42.75</ele><time>2026-04-25T08:55:07.113Z</time></trkpt><trkpt lat="43.5393517" lon="10.5263683"><ele>42.5</ele><time>2026-04-25T08:55:08.114Z</time></trkpt><trkpt lat="43.5392383" lon="10.5263533"><ele>42.25</ele><time>2026-04-25T08:55:09.106Z</time></trkpt><trkpt lat="43.5391133" lon="10.5263517"><ele>42.0</ele><time>2026-04-25T08:55:10.125Z</time></trkpt><trkpt lat="43.5389867" lon="10.526365"><ele>42.0</ele><time>2026-04-25T08:55:11.124Z</time></trkpt><trkpt lat="43.5388583" lon="10.5263833"><ele>42.0</ele><time>2026-04-25T08:55:12.12Z</time></trkpt><trkpt lat="43.5387283" lon="10.5264033"><ele>42.0</ele><time>2026-04-25T08:55:13.127Z</time></trkpt><trkpt lat="43.538595" lon="10.5264267"><ele>42.0</ele><time>2026-04-25T08:55:14.119Z</time></trkpt><trkpt lat="43.53846" lon="10.5264517"><ele>42.25</ele><time>2026-04-25T08:55:15.118Z</time></trkpt><trkpt lat="43.538325" lon="10.5264767"><ele>42.5</ele><time>2026-04-25T08:55:16.126Z</time></trkpt><trkpt lat="43.53819" lon="10.5264967"><ele>42.75</ele><time>2026-04-25T08:55:17.124Z</time></trkpt><trkpt lat="43.5380567" lon="10.5265117"><ele>43.0</ele><time>2026-04-25T08:55:18.12Z</time></trkpt><trkpt lat="43.53792" lon="10.52652"><ele>42.25</ele><time>2026-04-25T08:55:19.121Z</time></trkpt><trkpt lat="43.5377817" lon="10.526525"><ele>41.5</ele><time>2026-04-25T08:55:20.128Z</time></trkpt><trkpt lat="43.5376417" lon="10.5265283"><ele>40.75</ele><time>2026-04-25T08:55:21.127Z</time></trkpt><trkpt lat="43.5375" lon="10.5265267"><ele>40.0</ele><time>2026-04-25T08:55:22.135Z</time></trkpt><trkpt lat="43.5373567" lon="10.5265233"><ele>40.0</ele><time>2026-04-25T08:55:23.132Z</time></trkpt><trkpt lat="43.5372133" lon="10.5265333"><ele>40.0</ele><time>2026-04-25T08:55:24.126Z</time></trkpt><trkpt lat="43.5370717" lon="10.526565"><ele>40.0</ele><time>2026-04-25T08:55:25.121Z</time></trkpt><trkpt lat="43.5369317" lon="10.5266183"><ele>40.0</ele><time>2026-04-25T08:55:26.119Z</time></trkpt><trkpt lat="43.5368" lon="10.5266933"><ele>40.25</ele><time>2026-04-25T08:55:27.12Z</time></trkpt><trkpt lat="43.5366683" lon="10.5267833"><ele>40.5</ele><time>2026-04-25T08:55:28.118Z</time></trkpt><trkpt lat="43.53654" lon="10.5268783"><ele>40.75</ele><time>2026-04-25T08:55:29.116Z</time></trkpt><trkpt lat="43.536415" lon="10.5269683"><ele>41.0</ele><time>2026-04-25T08:55:30.127Z</time></trkpt><trkpt lat="43.5362883" lon="10.52705"><ele>41.5</ele><time>2026-04-25T08:55:31.124Z</time></trkpt><trkpt lat="43.53615" lon="10.5271117"><ele>42.0</ele><time>2026-04-25T08:55:32.125Z</time></trkpt><trkpt lat="43.5360033" lon="10.5271567"><ele>42.5</ele><time>2026-04-25T08:55:33.119Z</time></trkpt><trkpt lat="43.5358533" lon="10.5271783"><ele>43.0</ele><time>2026-04-25T08:55:34.117Z</time></trkpt><trkpt lat="43.5357017" lon="10.5271883"><ele>43.0</ele><time>2026-04-25T08:55:35.112Z</time></trkpt><trkpt lat="43.5355433" lon="10.5271967"><ele>43.0</ele><time>2026-04-25T08:55:36.114Z</time></trkpt><trkpt lat="43.5353767" lon="10.5272083"><ele>43.0</ele><time>2026-04-25T08:55:37.122Z</time></trkpt><trkpt lat="43.5352033" lon="10.52722"><ele>42.66666666666667</ele><time>2026-04-25T08:55:38.127Z</time></trkpt><trkpt lat="43.535025" lon="10.5272333"><ele>42.333333333333336</ele><time>2026-04-25T08:55:39.126Z</time></trkpt><trkpt lat="43.53484" lon="10.5272533"><ele>42.0</ele><time>2026-04-25T08:55:40.127Z</time></trkpt><trkpt lat="43.53464" lon="10.5272917"><ele>42.666666666666664</ele><time>2026-04-25T08:55:41.123Z</time></trkpt><trkpt lat="43.534425" lon="10.527345"><ele>43.33333333333333</ele><time>2026-04-25T08:55:42.134Z</time></trkpt><trkpt lat="43.5342033" lon="10.5274083"><ele>44.0</ele><time>2026-04-25T08:55:43.13Z</time></trkpt><trkpt lat="43.5339767" lon="10.5274767"><ele>44.0</ele><time>2026-04-25T08:55:44.123Z</time></trkpt><trkpt lat="43.5337483" lon="10.5275433"><ele>44.0</ele><time>2026-04-25T08:55:45.128Z</time></trkpt><trkpt lat="43.5335133" lon="10.527605"><ele>43.5</ele><time>2026-04-25T08:55:46.115Z</time></trkpt><trkpt lat="43.53327" lon="10.5276467"><ele>43.0</ele><time>2026-04-25T08:55:47.13Z</time></trkpt><trkpt lat="43.533015" lon="10.527665"><ele>43.0</ele><time>2026-04-25T08:55:48.123Z</time></trkpt><trkpt lat="43.5327567" lon="10.527675"><ele>43.0</ele><time>2026-04-25T08:55:49.134Z</time></trkpt><trkpt lat="43.5324933" lon="10.5276867"><ele>43.0</ele><time>2026-04-25T08:55:50.116Z</time></trkpt><trkpt lat="43.5322267" lon="10.5277067"><ele>43.0</ele><time>2026-04-25T08:55:51.128Z</time></trkpt><trkpt lat="43.53196" lon="10.527735"><ele>43.5</ele><time>2026-04-25T08:55:52.122Z</time></trkpt><trkpt lat="43.5316933" lon="10.5277683"><ele>44.0</ele><time>2026-04-25T08:55:53.121Z</time></trkpt><trkpt lat="43.5314383" lon="10.5278"><ele>44.0</ele><time>2026-04-25T08:55:54.119Z</time></trkpt><trkpt lat="43.5311933" lon="10.5278317"><ele>44.0</ele><time>2026-04-25T08:55:55.124Z</time></trkpt><trkpt lat="43.53096" lon="10.5278567"><ele>44.0</ele><time>2026-04-25T08:55:56.123Z</time></trkpt><trkpt lat="43.5307333" lon="10.52786"><ele>44.0</ele><time>2026-04-25T08:55:57.131Z</time></trkpt><trkpt lat="43.5305067" lon="10.527835"><ele>45.0</ele><time>2026-04-25T08:55:58.124Z</time></trkpt><trkpt lat="43.5302733" lon="10.52778"><ele>46.0</ele><time>2026-04-25T08:55:59.132Z</time></trkpt><trkpt lat="43.5300233" lon="10.5277017"><ele>46.0</ele><time>2026-04-25T08:56:00.129Z</time></trkpt><trkpt lat="43.52976" lon="10.527615"><ele>46.0</ele><time>2026-04-25T08:56:01.128Z</time></trkpt><trkpt lat="43.52948" lon="10.527535"><ele>46.0</ele><time>2026-04-25T08:56:02.125Z</time></trkpt><trkpt lat="43.5291867" lon="10.5274767"><ele>46.0</ele><time>2026-04-25T08:56:03.13Z</time></trkpt><trkpt lat="43.5288983" lon="10.52744"><ele>46.0</ele><time>2026-04-25T08:56:04.118Z</time></trkpt><trkpt lat="43.52863" lon="10.5274217"><ele>46.0</ele><time>2026-04-25T08:56:05.12Z</time></trkpt><trkpt lat="43.5283733" lon="10.52741"><ele>46.0</ele><time>2026-04-25T08:56:06.126Z</time></trkpt><trkpt lat="43.528135" lon="10.5273967"><ele>46.0</ele><time>2026-04-25T08:56:07.119Z</time></trkpt><trkpt lat="43.52791" lon="10.5273867"><ele>45.66666666666667</ele><time>2026-04-25T08:56:08.132Z</time></trkpt><trkpt lat="43.5277067" lon="10.5273733"><ele>45.333333333333336</ele><time>2026-04-25T08:56:09.124Z</time></trkpt><trkpt lat="43.5275233" lon="10.5273567"><ele>45.0</ele><time>2026-04-25T08:56:10.123Z</time></trkpt><trkpt lat="43.5273717" lon="10.5273367"><ele>45.0</ele><time>2026-04-25T08:56:11.132Z</time></trkpt><trkpt lat="43.5272633" lon="10.527315"><ele>45.0</ele><time>2026-04-25T08:56:12.12Z</time></trkpt><trkpt lat="43.5271783" lon="10.527305"><ele>45.0</ele><time>2026-04-25T08:56:13.133Z</time></trkpt><trkpt lat="43.5271067" lon="10.52732"><ele>45.0</ele><time>2026-04-25T08:56:14.117Z</time></trkpt><trkpt lat="43.5270533" lon="10.527375"><ele>45.0</ele><time>2026-04-25T08:56:15.118Z</time></trkpt><trkpt lat="43.5270167" lon="10.5274683"><ele>45.0</ele><time>2026-04-25T08:56:16.115Z</time></trkpt><trkpt lat="43.5269817" lon="10.5275917"><ele>46.0</ele><time>2026-04-25T08:56:17.121Z</time></trkpt><trkpt lat="43.5269383" lon="10.5277767"><ele>47.0</ele><time>2026-04-25T08:56:18.124Z</time></trkpt><trkpt lat="43.5268533" lon="10.5280033"><ele>48.0</ele><time>2026-04-25T08:56:19.126Z</time></trkpt><trkpt lat="43.5267333" lon="10.5282433"><ele>48.0</ele><time>2026-04-25T08:56:20.112Z</time></trkpt><trkpt lat="43.5266" lon="10.5284983"><ele>48.0</ele><time>2026-04-25T08:56:21.117Z</time></trkpt><trkpt lat="43.5264567" lon="10.5287667"><ele>48.5</ele><time>2026-04-25T08:56:22.122Z</time></trkpt><trkpt lat="43.5263133" lon="10.5290417"><ele>49.0</ele><time>2026-04-25T08:56:23.126Z</time></trkpt><trkpt lat="43.5261683" lon="10.5293167"><ele>50.0</ele><time>2026-04-25T08:56:24.126Z</time></trkpt><trkpt lat="43.5260217" lon="10.5295983"><ele>51.0</ele><time>2026-04-25T08:56:25.12Z</time></trkpt><trkpt lat="43.5258717" lon="10.5298817"><ele>51.0</ele><time>2026-04-25T08:56:26.124Z</time></trkpt><trkpt lat="43.52572" lon="10.5301667"><ele>51.0</ele><time>2026-04-25T08:56:27.136Z</time></trkpt><trkpt lat="43.5255683" lon="10.5304517"><ele>51.5</ele><time>2026-04-25T08:56:28.124Z</time></trkpt><trkpt lat="43.5254183" lon="10.5307333"><ele>52.0</ele><time>2026-04-25T08:56:29.122Z</time></trkpt><trkpt lat="43.525275" lon="10.531"><ele>53.0</ele><time>2026-04-25T08:56:30.125Z</time></trkpt><trkpt lat="43.5251417" lon="10.5312583"><ele>54.0</ele><time>2026-04-25T08:56:31.129Z</time></trkpt><trkpt lat="43.5250117" lon="10.5315067"><ele>54.0</ele><time>2026-04-25T08:56:32.129Z</time></trkpt><trkpt lat="43.524895" lon="10.5317483"><ele>54.0</ele><time>2026-04-25T08:56:33.12Z</time></trkpt><trkpt lat="43.524795" lon="10.5319933"><ele>54.0</ele><time>2026-04-25T08:56:34.121Z</time></trkpt><trkpt lat="43.52472" lon="10.53224"><ele>54.33333333333333</ele><time>2026-04-25T08:56:35.119Z</time></trkpt><trkpt lat="43.5246667" lon="10.5324967"><ele>54.666666666666664</ele><time>2026-04-25T08:56:36.118Z</time></trkpt><trkpt lat="43.5246417" lon="10.532785"><ele>55.0</ele><time>2026-04-25T08:56:37.122Z</time></trkpt><trkpt lat="43.5246467" lon="10.5331083"><ele>55.33333333333333</ele><time>2026-04-25T08:56:38.122Z</time></trkpt><trkpt lat="43.52467" lon="10.5334317"><ele>55.66666666666667</ele><time>2026-04-25T08:56:39.13Z</time></trkpt><trkpt lat="43.5247" lon="10.53372"><ele>56.0</ele><time>2026-04-25T08:56:40.124Z</time></trkpt><trkpt lat="43.5247283" lon="10.5339367"><ele>56.16666666666667</ele><time>2026-04-25T08:56:41.118Z</time></trkpt><trkpt lat="43.5247517" lon="10.5340883"><ele>56.333333333333336</ele><time>2026-04-25T08:56:42.123Z</time></trkpt><trkpt lat="43.524755" lon="10.5341967"><ele>56.5</ele><time>2026-04-25T08:56:43.125Z</time></trkpt><trkpt lat="43.5247467" lon="10.5342867"><ele>56.66666666666667</ele><time>2026-04-25T08:56:44.126Z</time></trkpt><trkpt lat="43.52473" lon="10.534375"><ele>56.833333333333336</ele><time>2026-04-25T08:56:45.125Z</time></trkpt><trkpt lat="43.524715" lon="10.5344783"><ele>57.0</ele><time>2026-04-25T08:56:46.131Z</time></trkpt><trkpt lat="43.5247017" lon="10.5345833"><ele>57.0</ele><time>2026-04-25T08:56:47.124Z</time></trkpt><trkpt lat="43.5246783" lon="10.534705"><ele>57.0</ele><time>2026-04-25T08:56:49.123Z</time></trkpt><trkpt lat="43.5246467" lon="10.534825"><ele>57.0</ele><time>2026-04-25T08:56:52.129Z</time></trkpt><trkpt lat="43.5246333" lon="10.53499"><ele>57.0</ele><time>2026-04-25T08:56:54.135Z</time></trkpt><trkpt lat="43.52462" lon="10.5350867"><ele>57.0</ele><time>2026-04-25T08:56:55.127Z</time></trkpt><trkpt lat="43.5246067" lon="10.5351767"><ele>57.0</ele><time>2026-04-25T08:56:56.129Z</time></trkpt><trkpt lat="43.5245733" lon="10.5353183"><ele>56.833333333333336</ele><time>2026-04-25T08:56:58.131Z</time></trkpt><trkpt lat="43.52453" lon="10.5354233"><ele>56.66666666666667</ele><time>2026-04-25T08:57:00.135Z</time></trkpt><trkpt lat="43.5244583" lon="10.535465"><ele>56.5</ele><time>2026-04-25T08:57:02.132Z</time></trkpt><trkpt lat="43.52437" lon="10.5354283"><ele>56.333333333333336</ele><time>2026-04-25T08:57:04.112Z</time></trkpt><trkpt lat="43.5242967" lon="10.5353767"><ele>56.16666666666667</ele><time>2026-04-25T08:57:06.117Z</time></trkpt><trkpt lat="43.5242333" lon="10.5353417"><ele>56.0</ele><time>2026-04-25T08:57:08.135Z</time></trkpt><trkpt lat="43.52417" lon="10.5353"><ele>56.00000000000001</ele><time>2026-04-25T08:57:10.126Z</time></trkpt><trkpt lat="43.5241033" lon="10.535255"><ele>56.0</ele><time>2026-04-25T08:57:12.124Z</time></trkpt><trkpt lat="43.5240317" lon="10.535205"><ele>56.0</ele><time>2026-04-25T08:57:14.123Z</time></trkpt><trkpt lat="43.5239483" lon="10.5351733"><ele>56.0</ele><time>2026-04-25T08:57:16.121Z</time></trkpt><trkpt lat="43.5238667" lon="10.5352017"><ele>56.00000000000001</ele><time>2026-04-25T08:57:18.132Z</time></trkpt><trkpt lat="43.5238033" lon="10.5352983"><ele>56.0</ele><time>2026-04-25T08:57:20.125Z</time></trkpt><trkpt lat="43.5237517" lon="10.5354133"><ele>56.0</ele><time>2026-04-25T08:57:22.121Z</time></trkpt><trkpt lat="43.5237033" lon="10.535515"><ele>55.99999999999999</ele><time>2026-04-25T08:57:24.124Z</time></trkpt><trkpt lat="43.5236533" lon="10.5356033"><ele>55.99999999999999</ele><time>2026-04-25T08:57:26.122Z</time></trkpt><trkpt lat="43.523595" lon="10.5356767"><ele>56.0</ele><time>2026-04-25T08:57:28.127Z</time></trkpt><trkpt lat="43.523515" lon="10.535725"><ele>56.0</ele><time>2026-04-25T08:57:30.133Z</time></trkpt><trkpt lat="43.5234" lon="10.53574"><ele>56.00000000000001</ele><time>2026-04-25T08:57:32.122Z</time></trkpt><trkpt lat="43.5233317" lon="10.5357333"><ele>56.0</ele><time>2026-04-25T08:57:33.12Z</time></trkpt><trkpt lat="43.5232567" lon="10.535725"><ele>56.0</ele><time>2026-04-25T08:57:34.12Z</time></trkpt><trkpt lat="43.52318" lon="10.5357183"><ele>56.0</ele><time>2026-04-25T08:57:35.132Z</time></trkpt><trkpt lat="43.5231" lon="10.5357183"><ele>56.00000000000001</ele><time>2026-04-25T08:57:36.134Z</time></trkpt><trkpt lat="43.5230133" lon="10.53573"><ele>56.0</ele><time>2026-04-25T08:57:37.118Z</time></trkpt><trkpt lat="43.522925" lon="10.5357467"><ele>55.833333333333336</ele><time>2026-04-25T08:57:38.123Z</time></trkpt><trkpt lat="43.5228383" lon="10.535775"><ele>55.66666666666667</ele><time>2026-04-25T08:57:39.117Z</time></trkpt><trkpt lat="43.52276" lon="10.5358033"><ele>55.5</ele><time>2026-04-25T08:57:40.136Z</time></trkpt><trkpt lat="43.522695" lon="10.5358317"><ele>55.33333333333333</ele><time>2026-04-25T08:57:41.127Z</time></trkpt><trkpt lat="43.5225783" lon="10.5358983"><ele>55.166666666666664</ele><time>2026-04-25T08:57:43.142Z</time></trkpt><trkpt lat="43.5225133" lon="10.53594"><ele>55.0</ele><time>2026-04-25T08:57:44.13Z</time></trkpt><trkpt lat="43.522445" lon="10.53599"><ele>54.99999999999999</ele><time>2026-04-25T08:57:45.133Z</time></trkpt><trkpt lat="43.5223783" lon="10.5360383"><ele>55.0</ele><time>2026-04-25T08:57:46.132Z</time></trkpt><trkpt lat="43.52231" lon="10.53609"><ele>55.0</ele><time>2026-04-25T08:57:47.122Z</time></trkpt><trkpt lat="43.5222433" lon="10.536135"><ele>55.0</ele><time>2026-04-25T08:57:48.134Z</time></trkpt><trkpt lat="43.5221817" lon="10.5361717"><ele>54.99999999999999</ele><time>2026-04-25T08:57:49.13Z</time></trkpt><trkpt lat="43.52207" lon="10.53624"><ele>55.0</ele><time>2026-04-25T08:57:51.131Z</time></trkpt><trkpt lat="43.5220083" lon="10.5362867"><ele>55.0</ele><time>2026-04-25T08:57:52.126Z</time></trkpt><trkpt lat="43.5219517" lon="10.5363383"><ele>55.0</ele><time>2026-04-25T08:57:53.118Z</time></trkpt><trkpt lat="43.5218683" lon="10.53644"><ele>55.0</ele><time>2026-04-25T08:57:55.13Z</time></trkpt><trkpt lat="43.5218217" lon="10.536535"><ele>55.0</ele><time>2026-04-25T08:57:57.124Z</time></trkpt><trkpt lat="43.5217867" lon="10.5366533"><ele>55.0</ele><time>2026-04-25T08:58:00.123Z</time></trkpt><trkpt lat="43.521755" lon="10.53681"><ele>55.0</ele><time>2026-04-25T08:58:02.121Z</time></trkpt><trkpt lat="43.5217333" lon="10.5369167"><ele>55.0</ele><time>2026-04-25T08:58:03.131Z</time></trkpt><trkpt lat="43.521705" lon="10.5370417"><ele>55.0</ele><time>2026-04-25T08:58:04.126Z</time></trkpt><trkpt lat="43.5216633" lon="10.5371633"><ele>55.0</ele><time>2026-04-25T08:58:05.133Z</time></trkpt><trkpt lat="43.5216033" lon="10.5372933"><ele>55.0</ele><time>2026-04-25T08:58:06.134Z</time></trkpt><trkpt lat="43.5215217" lon="10.5374333"><ele>55.33333333333333</ele><time>2026-04-25T08:58:07.12Z</time></trkpt><trkpt lat="43.52142" lon="10.5375833"><ele>55.66666666666667</ele><time>2026-04-25T08:58:08.127Z</time></trkpt><trkpt lat="43.5213067" lon="10.537735"><ele>56.0</ele><time>2026-04-25T08:58:09.114Z</time></trkpt><trkpt lat="43.521185" lon="10.5378833"><ele>55.75</ele><time>2026-04-25T08:58:10.14Z</time></trkpt><trkpt lat="43.521065" lon="10.5380083"><ele>55.5</ele><time>2026-04-25T08:58:11.133Z</time></trkpt><trkpt lat="43.520965" lon="10.5381067"><ele>55.25</ele><time>2026-04-25T08:58:12.131Z</time></trkpt><trkpt lat="43.5208817" lon="10.538195"><ele>55.0</ele><time>2026-04-25T08:58:13.138Z</time></trkpt><trkpt lat="43.5208183" lon="10.5383017"><ele>55.0</ele><time>2026-04-25T08:58:14.126Z</time></trkpt><trkpt lat="43.52077" lon="10.538435"><ele>55.0</ele><time>2026-04-25T08:58:15.136Z</time></trkpt><trkpt lat="43.520735" lon="10.5385833"><ele>55.0</ele><time>2026-04-25T08:58:16.137Z</time></trkpt><trkpt lat="43.5207133" lon="10.5387267"><ele>55.0</ele><time>2026-04-25T08:58:17.122Z</time></trkpt><trkpt lat="43.5207" lon="10.5388567"><ele>55.0</ele><time>2026-04-25T08:58:18.132Z</time></trkpt><trkpt lat="43.5206883" lon="10.5389683"><ele>54.83333333333333</ele><time>2026-04-25T08:58:19.132Z</time></trkpt><trkpt lat="43.5206783" lon="10.53906"><ele>54.666666666666664</ele><time>2026-04-25T08:58:20.125Z</time></trkpt><trkpt lat="43.520625" lon="10.5391483"><ele>54.5</ele><time>2026-04-25T08:58:22.125Z</time></trkpt><trkpt lat="43.5205133" lon="10.539165"><ele>54.33333333333333</ele><time>2026-04-25T08:58:24.115Z</time></trkpt><trkpt lat="43.520435" lon="10.5391633"><ele>54.166666666666664</ele><time>2026-04-25T08:58:25.122Z</time></trkpt><trkpt lat="43.52035" lon="10.5391633"><ele>54.0</ele><time>2026-04-25T08:58:26.124Z</time></trkpt><trkpt lat="43.5202683" lon="10.5391467"><ele>54.666666666666664</ele><time>2026-04-25T08:58:27.116Z</time></trkpt><trkpt lat="43.52019" lon="10.5391333"><ele>55.33333333333333</ele><time>2026-04-25T08:58:28.109Z</time></trkpt><trkpt lat="43.520115" lon="10.5391233"><ele>56.0</ele><time>2026-04-25T08:58:29.115Z</time></trkpt><trkpt lat="43.51999" lon="10.5391217"><ele>56.666666666666664</ele><time>2026-04-25T08:58:31.114Z</time></trkpt><trkpt lat="43.5199167" lon="10.5391383"><ele>57.33333333333333</ele><time>2026-04-25T08:58:32.127Z</time></trkpt><trkpt lat="43.5198417" lon="10.53917"><ele>58.0</ele><time>2026-04-25T08:58:33.122Z</time></trkpt><trkpt lat="43.5197733" lon="10.5392133"><ele>58.00000000000001</ele><time>2026-04-25T08:58:34.124Z</time></trkpt><trkpt lat="43.51971" lon="10.5392717"><ele>58.0</ele><time>2026-04-25T08:58:35.137Z</time></trkpt><trkpt lat="43.5196567" lon="10.5393367"><ele>58.00000000000001</ele><time>2026-04-25T08:58:36.121Z</time></trkpt><trkpt lat="43.5196067" lon="10.5394067"><ele>58.00000000000001</ele><time>2026-04-25T08:58:37.136Z</time></trkpt><trkpt lat="43.519555" lon="10.5394733"><ele>58.0</ele><time>2026-04-25T08:58:38.119Z</time></trkpt><trkpt lat="43.5195033" lon="10.5395367"><ele>58.00000000000001</ele><time>2026-04-25T08:58:39.118Z</time></trkpt><trkpt lat="43.5194483" lon="10.53959"><ele>58.00000000000001</ele><time>2026-04-25T08:58:40.125Z</time></trkpt><trkpt lat="43.5193833" lon="10.5396317"><ele>59.00000000000001</ele><time>2026-04-25T08:58:41.124Z</time></trkpt><trkpt lat="43.5193117" lon="10.5396667"><ele>60.0</ele><time>2026-04-25T08:58:42.124Z</time></trkpt><trkpt lat="43.5192367" lon="10.5396883"><ele>61.00000000000001</ele><time>2026-04-25T08:58:43.124Z</time></trkpt><trkpt lat="43.51917" lon="10.5397283"><ele>62.00000000000001</ele><time>2026-04-25T08:58:44.124Z</time></trkpt><trkpt lat="43.5191083" lon="10.5397817"><ele>63.0</ele><time>2026-04-25T08:58:45.118Z</time></trkpt><trkpt lat="43.51905" lon="10.53983"><ele>64.00000000000001</ele><time>2026-04-25T08:58:46.129Z</time></trkpt><trkpt lat="43.5189917" lon="10.53987"><ele>65.0</ele><time>2026-04-25T08:58:47.127Z</time></trkpt><trkpt lat="43.51888" lon="10.5398967"><ele>65.0</ele><time>2026-04-25T08:58:49.116Z</time></trkpt><trkpt lat="43.518775" lon="10.5398683"><ele>65.0</ele><time>2026-04-25T08:58:51.128Z</time></trkpt><trkpt lat="43.5186617" lon="10.53989"><ele>65.0</ele><time>2026-04-25T08:58:53.125Z</time></trkpt><trkpt lat="43.5186" lon="10.5399233"><ele>65.0</ele><time>2026-04-25T08:58:54.124Z</time></trkpt><trkpt lat="43.518535" lon="10.53997"><ele>65.0</ele><time>2026-04-25T08:58:55.124Z</time></trkpt><trkpt lat="43.5184667" lon="10.5400267"><ele>65.0</ele><time>2026-04-25T08:58:56.126Z</time></trkpt><trkpt lat="43.5183933" lon="10.540085"><ele>64.8</ele><time>2026-04-25T08:58:57.13Z</time></trkpt><trkpt lat="43.5183183" lon="10.5401517"><ele>64.6</ele><time>2026-04-25T08:58:58.121Z</time></trkpt><trkpt lat="43.5182383" lon="10.5402267"><ele>64.4</ele><time>2026-04-25T08:58:59.119Z</time></trkpt><trkpt lat="43.518155" lon="10.5403083"><ele>64.2</ele><time>2026-04-25T08:59:00.125Z</time></trkpt><trkpt lat="43.5180717" lon="10.5403933"><ele>64.0</ele><time>2026-04-25T08:59:01.126Z</time></trkpt><trkpt lat="43.517985" lon="10.5404783"><ele>64.16666666666666</ele><time>2026-04-25T08:59:02.128Z</time></trkpt><trkpt lat="43.5179017" lon="10.54056"><ele>64.33333333333333</ele><time>2026-04-25T08:59:03.12Z</time></trkpt><trkpt lat="43.5178283" lon="10.5406283"><ele>64.5</ele><time>2026-04-25T08:59:04.121Z</time></trkpt><trkpt lat="43.517765" lon="10.54069"><ele>64.66666666666667</ele><time>2026-04-25T08:59:05.122Z</time></trkpt><trkpt lat="43.51771" lon="10.5407533"><ele>64.83333333333334</ele><time>2026-04-25T08:59:06.128Z</time></trkpt><trkpt lat="43.517655" lon="10.5408333"><ele>65.0</ele><time>2026-04-25T08:59:07.13Z</time></trkpt><trkpt lat="43.5176067" lon="10.5409267"><ele>65.0</ele><time>2026-04-25T08:59:08.129Z</time></trkpt><trkpt lat="43.5175567" lon="10.5410317"><ele>65.0</ele><time>2026-04-25T08:59:09.116Z</time></trkpt><trkpt lat="43.5175067" lon="10.5411433"><ele>65.0</ele><time>2026-04-25T08:59:10.126Z</time></trkpt><trkpt lat="43.5174583" lon="10.5412583"><ele>65.0</ele><time>2026-04-25T08:59:11.123Z</time></trkpt><trkpt lat="43.51741" lon="10.5413717"><ele>65.0</ele><time>2026-04-25T08:59:12.122Z</time></trkpt><trkpt lat="43.5173583" lon="10.541485"><ele>65.16666666666667</ele><time>2026-04-25T08:59:13.125Z</time></trkpt><trkpt lat="43.5173067" lon="10.54159"><ele>65.33333333333334</ele><time>2026-04-25T08:59:14.118Z</time></trkpt><trkpt lat="43.5172533" lon="10.5416867"><ele>65.5</ele><time>2026-04-25T08:59:15.124Z</time></trkpt><trkpt lat="43.517195" lon="10.5417783"><ele>65.66666666666667</ele><time>2026-04-25T08:59:16.125Z</time></trkpt><trkpt lat="43.517135" lon="10.541865"><ele>65.83333333333333</ele><time>2026-04-25T08:59:17.117Z</time></trkpt><trkpt lat="43.51708" lon="10.5419467"><ele>66.0</ele><time>2026-04-25T08:59:18.117Z</time></trkpt><trkpt lat="43.51702" lon="10.54204"><ele>67.0</ele><time>2026-04-25T08:59:19.132Z</time></trkpt><trkpt lat="43.5169567" lon="10.5421483"><ele>68.0</ele><time>2026-04-25T08:59:20.123Z</time></trkpt><trkpt lat="43.51689" lon="10.5422717"><ele>69.0</ele><time>2026-04-25T08:59:21.125Z</time></trkpt><trkpt lat="43.5168267" lon="10.542405"><ele>70.0</ele><time>2026-04-25T08:59:22.121Z</time></trkpt><trkpt lat="43.516765" lon="10.5425367"><ele>71.0</ele><time>2026-04-25T08:59:23.121Z</time></trkpt><trkpt lat="43.5167067" lon="10.54267"><ele>71.0</ele><time>2026-04-25T08:59:24.121Z</time></trkpt><trkpt lat="43.5166583" lon="10.5427917"><ele>71.0</ele><time>2026-04-25T08:59:25.11Z</time></trkpt><trkpt lat="43.5166117" lon="10.5429017"><ele>71.0</ele><time>2026-04-25T08:59:26.12Z</time></trkpt><trkpt lat="43.5165667" lon="10.5430017"><ele>71.0</ele><time>2026-04-25T08:59:27.117Z</time></trkpt><trkpt lat="43.5165167" lon="10.5430917"><ele>71.0</ele><time>2026-04-25T08:59:28.13Z</time></trkpt><trkpt lat="43.5164567" lon="10.5431667"><ele>71.0</ele><time>2026-04-25T08:59:29.127Z</time></trkpt><trkpt lat="43.5163783" lon="10.5432283"><ele>71.2</ele><time>2026-04-25T08:59:30.123Z</time></trkpt><trkpt lat="43.5162867" lon="10.5432817"><ele>71.39999999999999</ele><time>2026-04-25T08:59:31.12Z</time></trkpt><trkpt lat="43.5161883" lon="10.54333"><ele>71.6</ele><time>2026-04-25T08:59:32.122Z</time></trkpt><trkpt lat="43.5160933" lon="10.5433817"><ele>71.8</ele><time>2026-04-25T08:59:33.122Z</time></trkpt><trkpt lat="43.515995" lon="10.5434367"><ele>72.0</ele><time>2026-04-25T08:59:34.121Z</time></trkpt><trkpt lat="43.5158933" lon="10.5434983"><ele>73.2</ele><time>2026-04-25T08:59:35.119Z</time></trkpt><trkpt lat="43.5157883" lon="10.543565"><ele>74.4</ele><time>2026-04-25T08:59:36.125Z</time></trkpt><trkpt lat="43.515685" lon="10.5436283"><ele>75.6</ele><time>2026-04-25T08:59:37.126Z</time></trkpt><trkpt lat="43.515585" lon="10.54368"><ele>76.8</ele><time>2026-04-25T08:59:38.118Z</time></trkpt><trkpt lat="43.5154867" lon="10.5437233"><ele>78.0</ele><time>2026-04-25T08:59:39.119Z</time></trkpt><trkpt lat="43.5153917" lon="10.5437667"><ele>79.6</ele><time>2026-04-25T08:59:40.124Z</time></trkpt><trkpt lat="43.5153083" lon="10.5438083"><ele>81.19999999999999</ele><time>2026-04-25T08:59:41.117Z</time></trkpt><trkpt lat="43.515225" lon="10.5438517"><ele>82.8</ele><time>2026-04-25T08:59:42.129Z</time></trkpt><trkpt lat="43.51514" lon="10.54389"><ele>84.39999999999999</ele><time>2026-04-25T08:59:43.131Z</time></trkpt><trkpt lat="43.5150483" lon="10.5439183"><ele>86.0</ele><time>2026-04-25T08:59:44.121Z</time></trkpt><trkpt lat="43.514955" lon="10.543935"><ele>86.0</ele><time>2026-04-25T08:59:45.125Z</time></trkpt><trkpt lat="43.5148633" lon="10.54394"><ele>86.0</ele><time>2026-04-25T08:59:46.131Z</time></trkpt><trkpt lat="43.5147683" lon="10.5439433"><ele>86.0</ele><time>2026-04-25T08:59:47.128Z</time></trkpt><trkpt lat="43.51467" lon="10.5439567"><ele>86.0</ele><time>2026-04-25T08:59:48.13Z</time></trkpt><trkpt lat="43.5145683" lon="10.5439833"><ele>86.0</ele><time>2026-04-25T08:59:49.142Z</time></trkpt><trkpt lat="43.51447" lon="10.5440133"><ele>86.6</ele><time>2026-04-25T08:59:50.125Z</time></trkpt><trkpt lat="43.51438" lon="10.5440467"><ele>87.19999999999999</ele><time>2026-04-25T08:59:51.121Z</time></trkpt><trkpt lat="43.5143117" lon="10.5440883"><ele>87.80000000000001</ele><time>2026-04-25T08:59:52.125Z</time></trkpt><trkpt lat="43.51426" lon="10.5441417"><ele>88.4</ele><time>2026-04-25T08:59:53.122Z</time></trkpt><trkpt lat="43.5142" lon="10.5442783"><ele>89.0</ele><time>2026-04-25T08:59:55.122Z</time></trkpt><trkpt lat="43.514135" lon="10.544415"><ele>89.0</ele><time>2026-04-25T08:59:57.121Z</time></trkpt><trkpt lat="43.514085" lon="10.5444783"><ele>89.0</ele><time>2026-04-25T08:59:58.124Z</time></trkpt><trkpt lat="43.514025" lon="10.5445383"><ele>89.0</ele><time>2026-04-25T08:59:59.126Z</time></trkpt><trkpt lat="43.51396" lon="10.5446"><ele>89.0</ele><time>2026-04-25T09:00:00.125Z</time></trkpt><trkpt lat="43.5138933" lon="10.5446683"><ele>89.0</ele><time>2026-04-25T09:00:01.14Z</time></trkpt><trkpt lat="43.5138233" lon="10.5447433"><ele>89.0</ele><time>2026-04-25T09:00:02.122Z</time></trkpt><trkpt lat="43.5137517" lon="10.5448167"><ele>88.80000000000001</ele><time>2026-04-25T09:00:03.128Z</time></trkpt><trkpt lat="43.5136733" lon="10.5448867"><ele>88.60000000000001</ele><time>2026-04-25T09:00:04.132Z</time></trkpt><trkpt lat="43.513585" lon="10.5449567"><ele>88.4</ele><time>2026-04-25T09:00:05.124Z</time></trkpt><trkpt lat="43.51349" lon="10.5450233"><ele>88.2</ele><time>2026-04-25T09:00:06.133Z</time></trkpt><trkpt lat="43.5133883" lon="10.54509"><ele>88.0</ele><time>2026-04-25T09:00:07.131Z</time></trkpt><trkpt lat="43.5132883" lon="10.5451567"><ele>88.0</ele><time>2026-04-25T09:00:08.128Z</time></trkpt><trkpt lat="43.51319" lon="10.5452167"><ele>88.0</ele><time>2026-04-25T09:00:09.133Z</time></trkpt><trkpt lat="43.5130867" lon="10.54527"><ele>88.0</ele><time>2026-04-25T09:00:10.12Z</time></trkpt><trkpt lat="43.5129817" lon="10.5453167"><ele>88.0</ele><time>2026-04-25T09:00:11.127Z</time></trkpt><trkpt lat="43.512875" lon="10.5453533"><ele>88.0</ele><time>2026-04-25T09:00:12.12Z</time></trkpt><trkpt lat="43.5127717" lon="10.5453917"><ele>88.4</ele><time>2026-04-25T09:00:13.123Z</time></trkpt><trkpt lat="43.5126683" lon="10.5454333"><ele>88.80000000000001</ele><time>2026-04-25T09:00:14.12Z</time></trkpt><trkpt lat="43.512565" lon="10.5454817"><ele>89.2</ele><time>2026-04-25T09:00:15.127Z</time></trkpt><trkpt lat="43.5124583" lon="10.5455367"><ele>89.6</ele><time>2026-04-25T09:00:16.124Z</time></trkpt><trkpt lat="43.51235" lon="10.5455917"><ele>90.0</ele><time>2026-04-25T09:00:17.129Z</time></trkpt><trkpt lat="43.5122433" lon="10.5456483"><ele>90.0</ele><time>2026-04-25T09:00:18.131Z</time></trkpt><trkpt lat="43.5121367" lon="10.5457067"><ele>90.0</ele><time>2026-04-25T09:00:19.12Z</time></trkpt><trkpt lat="43.5120317" lon="10.545775"><ele>90.0</ele><time>2026-04-25T09:00:20.125Z</time></trkpt><trkpt lat="43.5119317" lon="10.5458533"><ele>90.0</ele><time>2026-04-25T09:00:21.125Z</time></trkpt><trkpt lat="43.5118367" lon="10.5459367"><ele>90.5</ele><time>2026-04-25T09:00:22.121Z</time></trkpt><trkpt lat="43.5117383" lon="10.546015"><ele>91.0</ele><time>2026-04-25T09:00:23.122Z</time></trkpt><trkpt lat="43.5116367" lon="10.5460817"><ele>91.5</ele><time>2026-04-25T09:00:24.124Z</time></trkpt><trkpt lat="43.5115267" lon="10.54613"><ele>92.0</ele><time>2026-04-25T09:00:25.125Z</time></trkpt><trkpt lat="43.51141" lon="10.5461633"><ele>92.0</ele><time>2026-04-25T09:00:26.124Z</time></trkpt><trkpt lat="43.511285" lon="10.546185"><ele>92.0</ele><time>2026-04-25T09:00:27.135Z</time></trkpt><trkpt lat="43.5111517" lon="10.546195"><ele>92.0</ele><time>2026-04-25T09:00:28.123Z</time></trkpt><trkpt lat="43.51101" lon="10.5461983"><ele>92.0</ele><time>2026-04-25T09:00:29.131Z</time></trkpt><trkpt lat="43.5108667" lon="10.5461883"><ele>93.0</ele><time>2026-04-25T09:00:30.124Z</time></trkpt><trkpt lat="43.5107283" lon="10.5461683"><ele>94.0</ele><time>2026-04-25T09:00:31.125Z</time></trkpt><trkpt lat="43.5105933" lon="10.5461483"><ele>95.0</ele><time>2026-04-25T09:00:32.126Z</time></trkpt><trkpt lat="43.5104633" lon="10.5461367"><ele>96.0</ele><time>2026-04-25T09:00:33.127Z</time></trkpt><trkpt lat="43.51034" lon="10.546135"><ele>97.6</ele><time>2026-04-25T09:00:34.12Z</time></trkpt><trkpt lat="43.5102167" lon="10.54613"><ele>99.19999999999999</ele><time>2026-04-25T09:00:35.118Z</time></trkpt><trkpt lat="43.5101033" lon="10.5461133"><ele>100.80000000000001</ele><time>2026-04-25T09:00:36.126Z</time></trkpt><trkpt lat="43.510005" lon="10.546085"><ele>102.4</ele><time>2026-04-25T09:00:37.124Z</time></trkpt><trkpt lat="43.5099117" lon="10.5460417"><ele>104.0</ele><time>2026-04-25T09:00:38.127Z</time></trkpt><trkpt lat="43.509815" lon="10.54599"><ele>104.0</ele><time>2026-04-25T09:00:39.125Z</time></trkpt><trkpt lat="43.5097133" lon="10.5459267"><ele>104.0</ele><time>2026-04-25T09:00:40.122Z</time></trkpt><trkpt lat="43.5096067" lon="10.5458533"><ele>104.0</ele><time>2026-04-25T09:00:41.139Z</time></trkpt><trkpt lat="43.5094967" lon="10.5457683"><ele>104.0</ele><time>2026-04-25T09:00:42.12Z</time></trkpt><trkpt lat="43.5093817" lon="10.545675"><ele>105.0</ele><time>2026-04-25T09:00:43.119Z</time></trkpt><trkpt lat="43.509275" lon="10.5455817"><ele>106.0</ele><time>2026-04-25T09:00:44.128Z</time></trkpt><trkpt lat="43.5091767" lon="10.5454933"><ele>107.0</ele><time>2026-04-25T09:00:45.125Z</time></trkpt><trkpt lat="43.5090817" lon="10.5454133"><ele>108.0</ele><time>2026-04-25T09:00:46.126Z</time></trkpt><trkpt lat="43.508985" lon="10.5453417"><ele>109.0</ele><time>2026-04-25T09:00:47.12Z</time></trkpt><trkpt lat="43.5088833" lon="10.5452717"><ele>110.00000000000001</ele><time>2026-04-25T09:00:48.128Z</time></trkpt><trkpt lat="43.508785" lon="10.545205"><ele>111.00000000000001</ele><time>2026-04-25T09:00:49.129Z</time></trkpt><trkpt lat="43.50869" lon="10.5451283"><ele>112.0</ele><time>2026-04-25T09:00:50.125Z</time></trkpt><trkpt lat="43.5085967" lon="10.545035"><ele>113.0</ele><time>2026-04-25T09:00:51.128Z</time></trkpt><trkpt lat="43.508505" lon="10.54493"><ele>113.0</ele><time>2026-04-25T09:00:52.129Z</time></trkpt><trkpt lat="43.5084183" lon="10.5448333"><ele>113.00000000000001</ele><time>2026-04-25T09:00:53.128Z</time></trkpt><trkpt lat="43.508335" lon="10.5447467"><ele>113.00000000000001</ele><time>2026-04-25T09:00:54.124Z</time></trkpt><trkpt lat="43.5082583" lon="10.5446517"><ele>113.0</ele><time>2026-04-25T09:00:55.138Z</time></trkpt><trkpt lat="43.5081867" lon="10.5445417"><ele>113.0</ele><time>2026-04-25T09:00:56.122Z</time></trkpt><trkpt lat="43.5081133" lon="10.5444167"><ele>114.0</ele><time>2026-04-25T09:00:57.128Z</time></trkpt><trkpt lat="43.5080367" lon="10.5442867"><ele>115.0</ele><time>2026-04-25T09:00:58.126Z</time></trkpt><trkpt lat="43.50796" lon="10.5441533"><ele>116.0</ele><time>2026-04-25T09:00:59.123Z</time></trkpt><trkpt lat="43.507885" lon="10.5440217"><ele>117.0</ele><time>2026-04-25T09:01:00.137Z</time></trkpt><trkpt lat="43.507815" lon="10.5439"><ele>117.0</ele><time>2026-04-25T09:01:01.138Z</time></trkpt><trkpt lat="43.5077467" lon="10.5437817"><ele>117.0</ele><time>2026-04-25T09:01:02.125Z</time></trkpt><trkpt lat="43.5076917" lon="10.543665"><ele>117.0</ele><time>2026-04-25T09:01:03.128Z</time></trkpt><trkpt lat="43.5076483" lon="10.5435567"><ele>117.0</ele><time>2026-04-25T09:01:04.133Z</time></trkpt><trkpt lat="43.5076117" lon="10.543465"><ele>117.0</ele><time>2026-04-25T09:01:05.128Z</time></trkpt><trkpt lat="43.5075717" lon="10.5433933"><ele>117.0</ele><time>2026-04-25T09:01:06.124Z</time></trkpt><trkpt lat="43.5074683" lon="10.543315"><ele>118.0</ele><time>2026-04-25T09:01:08.115Z</time></trkpt><trkpt lat="43.5074033" lon="10.5432917"><ele>119.0</ele><time>2026-04-25T09:01:09.115Z</time></trkpt><trkpt lat="43.5073317" lon="10.5432817"><ele>120.0</ele><time>2026-04-25T09:01:10.118Z</time></trkpt><trkpt lat="43.5072467" lon="10.5432783"><ele>121.0</ele><time>2026-04-25T09:01:11.118Z</time></trkpt><trkpt lat="43.5071483" lon="10.54328"><ele>122.0</ele><time>2026-04-25T09:01:12.124Z</time></trkpt><trkpt lat="43.5070433" lon="10.5432767"><ele>123.0</ele><time>2026-04-25T09:01:13.124Z</time></trkpt><trkpt lat="43.506935" lon="10.5432633"><ele>123.80000000000001</ele><time>2026-04-25T09:01:14.12Z</time></trkpt><trkpt lat="43.506825" lon="10.5432333"><ele>124.60000000000001</ele><time>2026-04-25T09:01:15.121Z</time></trkpt><trkpt lat="43.506715" lon="10.5431983"><ele>125.39999999999999</ele><time>2026-04-25T09:01:16.127Z</time></trkpt><trkpt lat="43.5066083" lon="10.5431667"><ele>126.19999999999999</ele><time>2026-04-25T09:01:17.129Z</time></trkpt><trkpt lat="43.5065017" lon="10.54314"><ele>127.0</ele><time>2026-04-25T09:01:18.127Z</time></trkpt><trkpt lat="43.50639" lon="10.543125"><ele>127.0</ele><time>2026-04-25T09:01:19.133Z</time></trkpt><trkpt lat="43.5062733" lon="10.543125"><ele>127.0</ele><time>2026-04-25T09:01:20.121Z</time></trkpt><trkpt lat="43.50615" lon="10.543135"><ele>127.0</ele><time>2026-04-25T09:01:21.126Z</time></trkpt><trkpt lat="43.5060233" lon="10.543145"><ele>127.0</ele><time>2026-04-25T09:01:22.132Z</time></trkpt><trkpt lat="43.5059" lon="10.543155"><ele>127.75</ele><time>2026-04-25T09:01:23.136Z</time></trkpt><trkpt lat="43.505785" lon="10.5431667"><ele>128.5</ele><time>2026-04-25T09:01:24.132Z</time></trkpt><trkpt lat="43.5056717" lon="10.54318"><ele>129.25</ele><time>2026-04-25T09:01:25.127Z</time></trkpt><trkpt lat="43.5055567" lon="10.543195"><ele>130.0</ele><time>2026-04-25T09:01:26.135Z</time></trkpt><trkpt lat="43.505445" lon="10.54321"><ele>130.4</ele><time>2026-04-25T09:01:27.121Z</time></trkpt><trkpt lat="43.50534" lon="10.5432283"><ele>130.8</ele><time>2026-04-25T09:01:28.126Z</time></trkpt><trkpt lat="43.50524" lon="10.543245"><ele>131.2</ele><time>2026-04-25T09:01:29.128Z</time></trkpt><trkpt lat="43.5051433" lon="10.54326"><ele>131.6</ele><time>2026-04-25T09:01:30.12Z</time></trkpt><trkpt lat="43.5050433" lon="10.54327"><ele>132.0</ele><time>2026-04-25T09:01:31.128Z</time></trkpt><trkpt lat="43.5049367" lon="10.5432683"><ele>132.0</ele><time>2026-04-25T09:01:32.121Z</time></trkpt><trkpt lat="43.5048317" lon="10.5432567"><ele>132.0</ele><time>2026-04-25T09:01:33.128Z</time></trkpt><trkpt lat="43.504735" lon="10.543235"><ele>132.0</ele><time>2026-04-25T09:01:34.124Z</time></trkpt><trkpt lat="43.504635" lon="10.5432133"><ele>132.0</ele><time>2026-04-25T09:01:35.136Z</time></trkpt><trkpt lat="43.50453" lon="10.543195"><ele>132.0</ele><time>2026-04-25T09:01:36.139Z</time></trkpt><trkpt lat="43.5044233" lon="10.5431817"><ele>132.4</ele><time>2026-04-25T09:01:37.125Z</time></trkpt><trkpt lat="43.5043317" lon="10.5431683"><ele>132.79999999999998</ele><time>2026-04-25T09:01:38.117Z</time></trkpt><trkpt lat="43.5042483" lon="10.5431517"><ele>133.2</ele><time>2026-04-25T09:01:39.128Z</time></trkpt><trkpt lat="43.50418" lon="10.543135"><ele>133.6</ele><time>2026-04-25T09:01:40.125Z</time></trkpt><trkpt lat="43.5040683" lon="10.5431067"><ele>134.0</ele><time>2026-04-25T09:01:42.13Z</time></trkpt><trkpt lat="43.5039733" lon="10.543015"><ele>134.0</ele><time>2026-04-25T09:01:44.116Z</time></trkpt><trkpt lat="43.5039167" lon="10.542945"><ele>134.0</ele><time>2026-04-25T09:01:45.122Z</time></trkpt><trkpt lat="43.5038583" lon="10.542865"><ele>134.0</ele><time>2026-04-25T09:01:46.126Z</time></trkpt><trkpt lat="43.5038033" lon="10.542785"><ele>134.0</ele><time>2026-04-25T09:01:47.122Z</time></trkpt><trkpt lat="43.50375" lon="10.5427017"><ele>134.0</ele><time>2026-04-25T09:01:48.133Z</time></trkpt><trkpt lat="43.5036933" lon="10.5426067"><ele>134.0</ele><time>2026-04-25T09:01:49.123Z</time></trkpt><trkpt lat="43.5036367" lon="10.5424967"><ele>132.4</ele><time>2026-04-25T09:01:50.123Z</time></trkpt><trkpt lat="43.5035817" lon="10.5423783"><ele>130.8</ele><time>2026-04-25T09:01:51.117Z</time></trkpt><trkpt lat="43.5035233" lon="10.5422617"><ele>129.2</ele><time>2026-04-25T09:01:52.122Z</time></trkpt><trkpt lat="43.5034667" lon="10.5421383"><ele>127.6</ele><time>2026-04-25T09:01:53.125Z</time></trkpt><trkpt lat="43.5034117" lon="10.542015"><ele>126.0</ele><time>2026-04-25T09:01:54.118Z</time></trkpt><trkpt lat="43.5033583" lon="10.5418967"><ele>126.0</ele><time>2026-04-25T09:01:55.119Z</time></trkpt><trkpt lat="43.503305" lon="10.5417783"><ele>126.0</ele><time>2026-04-25T09:01:56.123Z</time></trkpt><trkpt lat="43.50325" lon="10.54166"><ele>126.0</ele><time>2026-04-25T09:01:57.12Z</time></trkpt><trkpt lat="43.5031983" lon="10.5415433"><ele>126.0</ele><time>2026-04-25T09:01:58.129Z</time></trkpt><trkpt lat="43.5031483" lon="10.5414217"><ele>126.0</ele><time>2026-04-25T09:01:59.122Z</time></trkpt><trkpt lat="43.503095" lon="10.5412983"><ele>125.8</ele><time>2026-04-25T09:02:00.128Z</time></trkpt><trkpt lat="43.5030383" lon="10.5411783"><ele>125.6</ele><time>2026-04-25T09:02:01.125Z</time></trkpt><trkpt lat="43.5029767" lon="10.541065"><ele>125.4</ele><time>2026-04-25T09:02:02.122Z</time></trkpt><trkpt lat="43.502915" lon="10.540955"><ele>125.2</ele><time>2026-04-25T09:02:03.125Z</time></trkpt><trkpt lat="43.502845" lon="10.5408467"><ele>125.0</ele><time>2026-04-25T09:02:04.129Z</time></trkpt><trkpt lat="43.502765" lon="10.540745"><ele>125.5</ele><time>2026-04-25T09:02:05.123Z</time></trkpt><trkpt lat="43.502675" lon="10.5406433"><ele>126.0</ele><time>2026-04-25T09:02:06.134Z</time></trkpt><trkpt lat="43.5025767" lon="10.5405367"><ele>126.5</ele><time>2026-04-25T09:02:07.123Z</time></trkpt><trkpt lat="43.50248" lon="10.54043"><ele>127.0</ele><time>2026-04-25T09:02:08.126Z</time></trkpt><trkpt lat="43.50239" lon="10.5403233"><ele>127.0</ele><time>2026-04-25T09:02:09.113Z</time></trkpt><trkpt lat="43.5023133" lon="10.5402117"><ele>127.0</ele><time>2026-04-25T09:02:10.12Z</time></trkpt><trkpt lat="43.50225" lon="10.540085"><ele>127.0</ele><time>2026-04-25T09:02:11.127Z</time></trkpt><trkpt lat="43.5021933" lon="10.5399483"><ele>127.0</ele><time>2026-04-25T09:02:12.116Z</time></trkpt><trkpt lat="43.502145" lon="10.5398083"><ele>127.00000000000001</ele><time>2026-04-25T09:02:13.122Z</time></trkpt><trkpt lat="43.5020983" lon="10.5396733"><ele>127.0</ele><time>2026-04-25T09:02:14.122Z</time></trkpt><trkpt lat="43.5020533" lon="10.53956"><ele>127.0</ele><time>2026-04-25T09:02:15.122Z</time></trkpt><trkpt lat="43.5020083" lon="10.5394667"><ele>127.0</ele><time>2026-04-25T09:02:16.12Z</time></trkpt><trkpt lat="43.5019633" lon="10.5393867"><ele>127.00000000000001</ele><time>2026-04-25T09:02:17.125Z</time></trkpt><trkpt lat="43.5019133" lon="10.53932"><ele>127.0</ele><time>2026-04-25T09:02:18.124Z</time></trkpt><trkpt lat="43.5018483" lon="10.53926"><ele>129.6</ele><time>2026-04-25T09:02:19.122Z</time></trkpt><trkpt lat="43.5017717" lon="10.5392"><ele>132.2</ele><time>2026-04-25T09:02:20.123Z</time></trkpt><trkpt lat="43.5016833" lon="10.5391417"><ele>134.8</ele><time>2026-04-25T09:02:21.129Z</time></trkpt><trkpt lat="43.5015833" lon="10.5390867"><ele>137.4</ele><time>2026-04-25T09:02:22.121Z</time></trkpt><trkpt lat="43.5014817" lon="10.5390367"><ele>140.0</ele><time>2026-04-25T09:02:23.125Z</time></trkpt><trkpt lat="43.5013833" lon="10.538995"><ele>140.0</ele><time>2026-04-25T09:02:24.124Z</time></trkpt><trkpt lat="43.5012833" lon="10.5389633"><ele>140.0</ele><time>2026-04-25T09:02:25.132Z</time></trkpt><trkpt lat="43.5011767" lon="10.5389433"><ele>140.0</ele><time>2026-04-25T09:02:26.125Z</time></trkpt><trkpt lat="43.50105" lon="10.5389267"><ele>140.0</ele><time>2026-04-25T09:02:27.125Z</time></trkpt><trkpt lat="43.5009117" lon="10.5389"><ele>140.5</ele><time>2026-04-25T09:02:28.128Z</time></trkpt><trkpt lat="43.5007717" lon="10.5388683"><ele>141.0</ele><time>2026-04-25T09:02:29.128Z</time></trkpt><trkpt lat="43.5006333" lon="10.538835"><ele>141.5</ele><time>2026-04-25T09:02:30.125Z</time></trkpt><trkpt lat="43.5005" lon="10.5388"><ele>142.0</ele><time>2026-04-25T09:02:31.132Z</time></trkpt><trkpt lat="43.50038" lon="10.5387667"><ele>141.79999999999998</ele><time>2026-04-25T09:02:32.128Z</time></trkpt><trkpt lat="43.5002633" lon="10.5387367"><ele>141.6</ele><time>2026-04-25T09:02:33.127Z</time></trkpt><trkpt lat="43.500155" lon="10.538705"><ele>141.39999999999998</ele><time>2026-04-25T09:02:34.119Z</time></trkpt><trkpt lat="43.5000517" lon="10.5386783"><ele>141.2</ele><time>2026-04-25T09:02:35.129Z</time></trkpt><trkpt lat="43.4999517" lon="10.5386617"><ele>141.0</ele><time>2026-04-25T09:02:36.117Z</time></trkpt><trkpt lat="43.4998483" lon="10.5386617"><ele>141.0</ele><time>2026-04-25T09:02:37.119Z</time></trkpt><trkpt lat="43.4997433" lon="10.5386833"><ele>141.0</ele><time>2026-04-25T09:02:38.121Z</time></trkpt><trkpt lat="43.4996367" lon="10.538735"><ele>141.0</ele><time>2026-04-25T09:02:39.123Z</time></trkpt><trkpt lat="43.49953" lon="10.538815"><ele>141.0</ele><time>2026-04-25T09:02:40.124Z</time></trkpt><trkpt lat="43.4994217" lon="10.53893"><ele>140.5</ele><time>2026-04-25T09:02:41.127Z</time></trkpt><trkpt lat="43.49931" lon="10.5390667"><ele>140.0</ele><time>2026-04-25T09:02:42.121Z</time></trkpt><trkpt lat="43.4992033" lon="10.5392033"><ele>139.5</ele><time>2026-04-25T09:02:43.139Z</time></trkpt><trkpt lat="43.4991" lon="10.53933"><ele>139.0</ele><time>2026-04-25T09:02:44.13Z</time></trkpt><trkpt lat="43.4989983" lon="10.5394517"><ele>139.5</ele><time>2026-04-25T09:02:45.125Z</time></trkpt><trkpt lat="43.4988983" lon="10.5395683"><ele>140.0</ele><time>2026-04-25T09:02:46.122Z</time></trkpt><trkpt lat="43.4988033" lon="10.5396733"><ele>140.5</ele><time>2026-04-25T09:02:47.127Z</time></trkpt><trkpt lat="43.4987167" lon="10.5397683"><ele>141.0</ele><time>2026-04-25T09:02:48.122Z</time></trkpt><trkpt lat="43.49863" lon="10.5398567"><ele>141.0</ele><time>2026-04-25T09:02:49.129Z</time></trkpt><trkpt lat="43.498545" lon="10.5399367"><ele>141.0</ele><time>2026-04-25T09:02:50.12Z</time></trkpt><trkpt lat="43.4984567" lon="10.5400067"><ele>141.0</ele><time>2026-04-25T09:02:51.125Z</time></trkpt><trkpt lat="43.4983583" lon="10.5400583"><ele>141.0</ele><time>2026-04-25T09:02:52.124Z</time></trkpt><trkpt lat="43.49825" lon="10.5400983"><ele>141.0</ele><time>2026-04-25T09:02:53.126Z</time></trkpt><trkpt lat="43.49813" lon="10.5401267"><ele>141.0</ele><time>2026-04-25T09:02:54.125Z</time></trkpt><trkpt lat="43.4980067" lon="10.5401533"><ele>141.0</ele><time>2026-04-25T09:02:55.124Z</time></trkpt><trkpt lat="43.4978933" lon="10.5401783"><ele>141.0</ele><time>2026-04-25T09:02:56.121Z</time></trkpt><trkpt lat="43.49778" lon="10.54021"><ele>141.0</ele><time>2026-04-25T09:02:57.122Z</time></trkpt><trkpt lat="43.4976633" lon="10.5402483"><ele>141.75</ele><time>2026-04-25T09:02:58.127Z</time></trkpt><trkpt lat="43.4975467" lon="10.5402817"><ele>142.5</ele><time>2026-04-25T09:02:59.124Z</time></trkpt><trkpt lat="43.4974283" lon="10.5403033"><ele>143.25</ele><time>2026-04-25T09:03:00.129Z</time></trkpt><trkpt lat="43.4973083" lon="10.5403083"><ele>144.0</ele><time>2026-04-25T09:03:01.123Z</time></trkpt><trkpt lat="43.4971917" lon="10.5403"><ele>144.0</ele><time>2026-04-25T09:03:02.12Z</time></trkpt><trkpt lat="43.4970867" lon="10.5402883"><ele>144.0</ele><time>2026-04-25T09:03:03.116Z</time></trkpt><trkpt lat="43.4969883" lon="10.5402883"><ele>144.0</ele><time>2026-04-25T09:03:04.125Z</time></trkpt><trkpt lat="43.4968883" lon="10.54031"><ele>144.0</ele><time>2026-04-25T09:03:05.123Z</time></trkpt><trkpt lat="43.4967767" lon="10.5403517"><ele>144.0</ele><time>2026-04-25T09:03:06.126Z</time></trkpt><trkpt lat="43.4966467" lon="10.540415"><ele>143.66666666666666</ele><time>2026-04-25T09:03:07.135Z</time></trkpt><trkpt lat="43.4965" lon="10.540495"><ele>143.33333333333331</ele><time>2026-04-25T09:03:08.119Z</time></trkpt><trkpt lat="43.49635" lon="10.5405767"><ele>143.0</ele><time>2026-04-25T09:03:09.136Z</time></trkpt><trkpt lat="43.4962067" lon="10.54065"><ele>144.5</ele><time>2026-04-25T09:03:10.124Z</time></trkpt><trkpt lat="43.49608" lon="10.5407117"><ele>146.0</ele><time>2026-04-25T09:03:11.121Z</time></trkpt><trkpt lat="43.4959683" lon="10.5407633"><ele>147.5</ele><time>2026-04-25T09:03:12.126Z</time></trkpt><trkpt lat="43.49587" lon="10.5408083"><ele>149.0</ele><time>2026-04-25T09:03:13.126Z</time></trkpt><trkpt lat="43.4957683" lon="10.5408517"><ele>149.0</ele><time>2026-04-25T09:03:14.122Z</time></trkpt><trkpt lat="43.49565" lon="10.5408917"><ele>149.0</ele><time>2026-04-25T09:03:15.124Z</time></trkpt><trkpt lat="43.49553" lon="10.5409317"><ele>149.0</ele><time>2026-04-25T09:03:16.123Z</time></trkpt><trkpt lat="43.4954133" lon="10.5409733"><ele>149.0</ele><time>2026-04-25T09:03:17.122Z</time></trkpt><trkpt lat="43.4953017" lon="10.5410217"><ele>149.0</ele><time>2026-04-25T09:03:18.128Z</time></trkpt><trkpt lat="43.4951917" lon="10.541075"><ele>149.0</ele><time>2026-04-25T09:03:19.125Z</time></trkpt><trkpt lat="43.4950933" lon="10.5411267"><ele>149.0</ele><time>2026-04-25T09:03:20.13Z</time></trkpt><trkpt lat="43.49501" lon="10.5411717"><ele>149.0</ele><time>2026-04-25T09:03:21.126Z</time></trkpt><trkpt lat="43.4949317" lon="10.5412167"><ele>149.0</ele><time>2026-04-25T09:03:22.126Z</time></trkpt><trkpt lat="43.49486" lon="10.5412683"><ele>149.0</ele><time>2026-04-25T09:03:23.126Z</time></trkpt><trkpt lat="43.494795" lon="10.54132"><ele>149.0</ele><time>2026-04-25T09:03:24.127Z</time></trkpt><trkpt lat="43.4947267" lon="10.5413717"><ele>149.0</ele><time>2026-04-25T09:03:25.122Z</time></trkpt><trkpt lat="43.4946483" lon="10.5414133"><ele>149.0</ele><time>2026-04-25T09:03:26.123Z</time></trkpt><trkpt lat="43.4945533" lon="10.5414317"><ele>149.0</ele><time>2026-04-25T09:03:27.131Z</time></trkpt><trkpt lat="43.4944467" lon="10.5414267"><ele>149.0</ele><time>2026-04-25T09:03:28.121Z</time></trkpt><trkpt lat="43.494345" lon="10.5414083"><ele>149.33333333333331</ele><time>2026-04-25T09:03:29.124Z</time></trkpt><trkpt lat="43.49425" lon="10.5413833"><ele>149.66666666666666</ele><time>2026-04-25T09:03:30.12Z</time></trkpt><trkpt lat="43.4941617" lon="10.5413667"><ele>150.0</ele><time>2026-04-25T09:03:31.122Z</time></trkpt><trkpt lat="43.4940833" lon="10.541365"><ele>150.33333333333334</ele><time>2026-04-25T09:03:32.118Z</time></trkpt><trkpt lat="43.49401" lon="10.5413867"><ele>150.66666666666669</ele><time>2026-04-25T09:03:33.12Z</time></trkpt><trkpt lat="43.4939417" lon="10.5414267"><ele>151.0</ele><time>2026-04-25T09:03:34.13Z</time></trkpt><trkpt lat="43.4938733" lon="10.5414817"><ele>151.0</ele><time>2026-04-25T09:03:35.126Z</time></trkpt><trkpt lat="43.493805" lon="10.541555"><ele>151.0</ele><time>2026-04-25T09:03:36.122Z</time></trkpt><trkpt lat="43.4937383" lon="10.5416483"><ele>151.0</ele><time>2026-04-25T09:03:37.132Z</time></trkpt><trkpt lat="43.4936783" lon="10.541765"><ele>151.0</ele><time>2026-04-25T09:03:38.12Z</time></trkpt><trkpt lat="43.4936317" lon="10.541895"><ele>151.0</ele><time>2026-04-25T09:03:39.126Z</time></trkpt><trkpt lat="43.4936033" lon="10.542035"><ele>149.0</ele><time>2026-04-25T09:03:40.123Z</time></trkpt><trkpt lat="43.4935817" lon="10.5421817"><ele>147.0</ele><time>2026-04-25T09:03:41.121Z</time></trkpt><trkpt lat="43.4935567" lon="10.5423317"><ele>145.0</ele><time>2026-04-25T09:03:42.126Z</time></trkpt><trkpt lat="43.4935183" lon="10.5424783"><ele>143.0</ele><time>2026-04-25T09:03:43.124Z</time></trkpt><trkpt lat="43.4934717" lon="10.5426183"><ele>141.0</ele><time>2026-04-25T09:03:44.129Z</time></trkpt><trkpt lat="43.4934133" lon="10.5427483"><ele>141.0</ele><time>2026-04-25T09:03:45.127Z</time></trkpt><trkpt lat="43.4933533" lon="10.5428633"><ele>141.0</ele><time>2026-04-25T09:03:46.13Z</time></trkpt><trkpt lat="43.4932933" lon="10.5429683"><ele>141.0</ele><time>2026-04-25T09:03:47.137Z</time></trkpt><trkpt lat="43.49323" lon="10.54306"><ele>141.0</ele><time>2026-04-25T09:03:48.126Z</time></trkpt><trkpt lat="43.4931567" lon="10.543135"><ele>141.0</ele><time>2026-04-25T09:03:49.13Z</time></trkpt><trkpt lat="43.4930733" lon="10.5431817"><ele>140.6</ele><time>2026-04-25T09:03:50.123Z</time></trkpt><trkpt lat="43.4929783" lon="10.543205"><ele>140.2</ele><time>2026-04-25T09:03:51.126Z</time></trkpt><trkpt lat="43.4928783" lon="10.5432117"><ele>139.8</ele><time>2026-04-25T09:03:52.134Z</time></trkpt><trkpt lat="43.4927733" lon="10.5432133"><ele>139.4</ele><time>2026-04-25T09:03:53.126Z</time></trkpt><trkpt lat="43.49267" lon="10.5432133"><ele>139.0</ele><time>2026-04-25T09:03:54.126Z</time></trkpt><trkpt lat="43.4925633" lon="10.543215"><ele>139.0</ele><time>2026-04-25T09:03:55.118Z</time></trkpt><trkpt lat="43.4924483" lon="10.5432383"><ele>139.0</ele><time>2026-04-25T09:03:56.122Z</time></trkpt><trkpt lat="43.4923183" lon="10.5432783"><ele>139.0</ele><time>2026-04-25T09:03:57.129Z</time></trkpt><trkpt lat="43.4921783" lon="10.5433367"><ele>139.0</ele><time>2026-04-25T09:03:58.118Z</time></trkpt><trkpt lat="43.4920367" lon="10.5434117"><ele>139.33333333333334</ele><time>2026-04-25T09:03:59.13Z</time></trkpt><trkpt lat="43.4918967" lon="10.5435083"><ele>139.66666666666666</ele><time>2026-04-25T09:04:00.13Z</time></trkpt><trkpt lat="43.4917617" lon="10.5436267"><ele>140.0</ele><time>2026-04-25T09:04:01.124Z</time></trkpt><trkpt lat="43.4916333" lon="10.54377"><ele>140.0</ele><time>2026-04-25T09:04:02.12Z</time></trkpt><trkpt lat="43.4915117" lon="10.543925"><ele>140.0</ele><time>2026-04-25T09:04:03.129Z</time></trkpt><trkpt lat="43.491395" lon="10.544075"><ele>140.0</ele><time>2026-04-25T09:04:04.118Z</time></trkpt><trkpt lat="43.4912817" lon="10.54422"><ele>141.75</ele><time>2026-04-25T09:04:05.126Z</time></trkpt><trkpt lat="43.4911767" lon="10.5443683"><ele>143.5</ele><time>2026-04-25T09:04:06.121Z</time></trkpt><trkpt lat="43.4910783" lon="10.54452"><ele>145.25</ele><time>2026-04-25T09:04:07.132Z</time></trkpt><trkpt lat="43.4909933" lon="10.54467"><ele>147.0</ele><time>2026-04-25T09:04:08.131Z</time></trkpt><trkpt lat="43.49092" lon="10.5448183"><ele>147.0</ele><time>2026-04-25T09:04:09.13Z</time></trkpt><trkpt lat="43.49086" lon="10.5449617"><ele>147.0</ele><time>2026-04-25T09:04:10.138Z</time></trkpt><trkpt lat="43.4908133" lon="10.5451017"><ele>147.0</ele><time>2026-04-25T09:04:11.136Z</time></trkpt><trkpt lat="43.49078" lon="10.5452367"><ele>147.0</ele><time>2026-04-25T09:04:12.132Z</time></trkpt><trkpt lat="43.4907517" lon="10.5453583"><ele>147.0</ele><time>2026-04-25T09:04:13.129Z</time></trkpt><trkpt lat="43.4907217" lon="10.5454733"><ele>147.0</ele><time>2026-04-25T09:04:14.131Z</time></trkpt><trkpt lat="43.490685" lon="10.5455883"><ele>147.0</ele><time>2026-04-25T09:04:15.124Z</time></trkpt><trkpt lat="43.4906367" lon="10.5457083"><ele>147.0</ele><time>2026-04-25T09:04:16.133Z</time></trkpt><trkpt lat="43.490575" lon="10.5458283"><ele>147.0</ele><time>2026-04-25T09:04:17.124Z</time></trkpt><trkpt lat="43.4905017" lon="10.5459483"><ele>147.0</ele><time>2026-04-25T09:04:18.123Z</time></trkpt><trkpt lat="43.49042" lon="10.546065"><ele>146.5</ele><time>2026-04-25T09:04:19.13Z</time></trkpt><trkpt lat="43.4903283" lon="10.5461817"><ele>146.0</ele><time>2026-04-25T09:04:20.124Z</time></trkpt><trkpt lat="43.49024" lon="10.5462917"><ele>145.5</ele><time>2026-04-25T09:04:21.123Z</time></trkpt><trkpt lat="43.4901533" lon="10.54639"><ele>145.0</ele><time>2026-04-25T09:04:22.12Z</time></trkpt><trkpt lat="43.490065" lon="10.5464867"><ele>146.0</ele><time>2026-04-25T09:04:23.117Z</time></trkpt><trkpt lat="43.48997" lon="10.54659"><ele>147.0</ele><time>2026-04-25T09:04:24.135Z</time></trkpt><trkpt lat="43.4898733" lon="10.5467"><ele>148.0</ele><time>2026-04-25T09:04:25.123Z</time></trkpt><trkpt lat="43.4897717" lon="10.5468133"><ele>149.0</ele><time>2026-04-25T09:04:26.128Z</time></trkpt><trkpt lat="43.4896733" lon="10.5469217"><ele>149.0</ele><time>2026-04-25T09:04:27.122Z</time></trkpt><trkpt lat="43.48958" lon="10.5470233"><ele>149.0</ele><time>2026-04-25T09:04:28.125Z</time></trkpt><trkpt lat="43.4894883" lon="10.5471217"><ele>149.0</ele><time>2026-04-25T09:04:29.119Z</time></trkpt><trkpt lat="43.489395" lon="10.547215"><ele>149.0</ele><time>2026-04-25T09:04:30.121Z</time></trkpt><trkpt lat="43.4892933" lon="10.5472983"><ele>149.0</ele><time>2026-04-25T09:04:31.123Z</time></trkpt><trkpt lat="43.4891817" lon="10.547365"><ele>149.0</ele><time>2026-04-25T09:04:32.126Z</time></trkpt><trkpt lat="43.4890617" lon="10.5474117"><ele>149.0</ele><time>2026-04-25T09:04:33.121Z</time></trkpt><trkpt lat="43.4889333" lon="10.5474333"><ele>149.0</ele><time>2026-04-25T09:04:34.117Z</time></trkpt><trkpt lat="43.4888" lon="10.5474333"><ele>148.75</ele><time>2026-04-25T09:04:35.128Z</time></trkpt><trkpt lat="43.4886733" lon="10.5474167"><ele>148.5</ele><time>2026-04-25T09:04:36.122Z</time></trkpt><trkpt lat="43.4885583" lon="10.547385"><ele>148.25</ele><time>2026-04-25T09:04:37.121Z</time></trkpt><trkpt lat="43.488445" lon="10.5473317"><ele>148.0</ele><time>2026-04-25T09:04:38.121Z</time></trkpt><trkpt lat="43.488345" lon="10.5472417"><ele>148.0</ele><time>2026-04-25T09:04:39.114Z</time></trkpt><trkpt lat="43.488247" lon="10.5471365"><ele>148.0</ele><time>2026-04-25T09:04:40.113Z</time></trkpt><trkpt lat="43.4881455" lon="10.5469879"><ele>148.0</ele><time>2026-04-25T09:04:41.116Z</time></trkpt><trkpt lat="43.488046" lon="10.5468409"><ele>148.0</ele><time>2026-04-25T09:04:42.122Z</time></trkpt><trkpt lat="43.4879454" lon="10.5467004"><ele>147.5</ele><time>2026-04-25T09:04:43.139Z</time></trkpt><trkpt lat="43.4878554" lon="10.5465611"><ele>147.0</ele><time>2026-04-25T09:04:44.126Z</time></trkpt><trkpt lat="43.4877588" lon="10.5464313"><ele>146.5</ele><time>2026-04-25T09:04:45.12Z</time></trkpt><trkpt lat="43.4876637" lon="10.5463098"><ele>146.0</ele><time>2026-04-25T09:04:46.124Z</time></trkpt><trkpt lat="43.487574" lon="10.5461918"><ele>146.0</ele><time>2026-04-25T09:04:47.116Z</time></trkpt><trkpt lat="43.4874849" lon="10.5460702"><ele>146.0</ele><time>2026-04-25T09:04:48.142Z</time></trkpt><trkpt lat="43.4874019" lon="10.5459446"><ele>146.0</ele><time>2026-04-25T09:04:49.129Z</time></trkpt><trkpt lat="43.4873239" lon="10.5458123"><ele>146.0</ele><time>2026-04-25T09:04:50.126Z</time></trkpt><trkpt lat="43.4872507" lon="10.5456731"><ele>146.0</ele><time>2026-04-25T09:04:51.126Z</time></trkpt><trkpt lat="43.4871776" lon="10.5455259"><ele>146.0</ele><time>2026-04-25T09:04:52.126Z</time></trkpt><trkpt lat="43.487106" lon="10.5453735"><ele>146.0</ele><time>2026-04-25T09:04:53.127Z</time></trkpt><trkpt lat="43.4870359" lon="10.5452244"><ele>146.0</ele><time>2026-04-25T09:04:54.121Z</time></trkpt><trkpt lat="43.4869668" lon="10.5450753"><ele>143.75</ele><time>2026-04-25T09:04:55.126Z</time></trkpt><trkpt lat="43.4868976" lon="10.5449231"><ele>141.5</ele><time>2026-04-25T09:04:56.126Z</time></trkpt><trkpt lat="43.4868246" lon="10.5447671"><ele>139.25</ele><time>2026-04-25T09:04:57.115Z</time></trkpt><trkpt lat="43.4867513" lon="10.5446078"><ele>137.0</ele><time>2026-04-25T09:04:58.116Z</time></trkpt><trkpt lat="43.4866776" lon="10.5444459"><ele>136.75</ele><time>2026-04-25T09:04:59.129Z</time></trkpt><trkpt lat="43.4866027" lon="10.544285"><ele>136.5</ele><time>2026-04-25T09:05:00.133Z</time></trkpt><trkpt lat="43.4865274" lon="10.5441278"><ele>136.25</ele><time>2026-04-25T09:05:01.135Z</time></trkpt><trkpt lat="43.4864537" lon="10.5439704"><ele>136.0</ele><time>2026-04-25T09:05:02.119Z</time></trkpt><trkpt lat="43.4863792" lon="10.5438111"><ele>135.25</ele><time>2026-04-25T09:05:03.137Z</time></trkpt><trkpt lat="43.4863035" lon="10.5436555"><ele>134.5</ele><time>2026-04-25T09:05:04.123Z</time></trkpt><trkpt lat="43.4862283" lon="10.5434967"><ele>133.75</ele><time>2026-04-25T09:05:05.13Z</time></trkpt><trkpt lat="43.4861531" lon="10.5433416"><ele>133.0</ele><time>2026-04-25T09:05:06.125Z</time></trkpt><trkpt lat="43.4860777" lon="10.5431834"><ele>132.75</ele><time>2026-04-25T09:05:07.133Z</time></trkpt><trkpt lat="43.4860075" lon="10.543024"><ele>132.5</ele><time>2026-04-25T09:05:08.121Z</time></trkpt><trkpt lat="43.485945" lon="10.542855"><ele>132.25</ele><time>2026-04-25T09:05:09.138Z</time></trkpt><trkpt lat="43.4858883" lon="10.5426783"><ele>132.0</ele><time>2026-04-25T09:05:10.122Z</time></trkpt><trkpt lat="43.4858383" lon="10.5425017"><ele>132.0</ele><time>2026-04-25T09:05:11.128Z</time></trkpt><trkpt lat="43.4857983" lon="10.5423133"><ele>132.0</ele><time>2026-04-25T09:05:12.127Z</time></trkpt><trkpt lat="43.4857667" lon="10.5421167"><ele>132.0</ele><time>2026-04-25T09:05:13.124Z</time></trkpt><trkpt lat="43.4857433" lon="10.5419167"><ele>132.0</ele><time>2026-04-25T09:05:14.12Z</time></trkpt><trkpt lat="43.48572" lon="10.5417233"><ele>132.0</ele><time>2026-04-25T09:05:15.124Z</time></trkpt><trkpt lat="43.4856983" lon="10.5415333"><ele>132.0</ele><time>2026-04-25T09:05:16.122Z</time></trkpt><trkpt lat="43.4856817" lon="10.5413467"><ele>132.0</ele><time>2026-04-25T09:05:17.122Z</time></trkpt><trkpt lat="43.4856667" lon="10.54116"><ele>132.0</ele><time>2026-04-25T09:05:18.137Z</time></trkpt><trkpt lat="43.4856567" lon="10.5409783"><ele>131.75</ele><time>2026-04-25T09:05:19.135Z</time></trkpt><trkpt lat="43.4856533" lon="10.5407983"><ele>131.5</ele><time>2026-04-25T09:05:20.123Z</time></trkpt><trkpt lat="43.4856533" lon="10.5406183"><ele>131.25</ele><time>2026-04-25T09:05:21.121Z</time></trkpt><trkpt lat="43.4856567" lon="10.5404383"><ele>131.0</ele><time>2026-04-25T09:05:22.124Z</time></trkpt><trkpt lat="43.48566" lon="10.54026"><ele>130.75</ele><time>2026-04-25T09:05:23.127Z</time></trkpt><trkpt lat="43.4856633" lon="10.5400817"><ele>130.5</ele><time>2026-04-25T09:05:24.125Z</time></trkpt><trkpt lat="43.4856683" lon="10.5399"><ele>130.25</ele><time>2026-04-25T09:05:25.139Z</time></trkpt><trkpt lat="43.4856733" lon="10.539715"><ele>130.0</ele><time>2026-04-25T09:05:26.124Z</time></trkpt><trkpt lat="43.48568" lon="10.5395283"><ele>129.0</ele><time>2026-04-25T09:05:27.127Z</time></trkpt><trkpt lat="43.4856883" lon="10.53934"><ele>128.0</ele><time>2026-04-25T09:05:28.126Z</time></trkpt><trkpt lat="43.4856983" lon="10.5391533"><ele>127.0</ele><time>2026-04-25T09:05:29.123Z</time></trkpt><trkpt lat="43.4857117" lon="10.5389733"><ele>126.0</ele><time>2026-04-25T09:05:30.126Z</time></trkpt><trkpt lat="43.48573" lon="10.5388033"><ele>126.19999999999999</ele><time>2026-04-25T09:05:31.125Z</time></trkpt><trkpt lat="43.4857533" lon="10.5386417"><ele>126.39999999999999</ele><time>2026-04-25T09:05:32.127Z</time></trkpt><trkpt lat="43.48578" lon="10.5384917"><ele>126.6</ele><time>2026-04-25T09:05:33.124Z</time></trkpt><trkpt lat="43.4858033" lon="10.5383483"><ele>126.8</ele><time>2026-04-25T09:05:34.122Z</time></trkpt><trkpt lat="43.485815" lon="10.538205"><ele>127.0</ele><time>2026-04-25T09:05:35.124Z</time></trkpt><trkpt lat="43.4858133" lon="10.5380633"><ele>127.00000000000001</ele><time>2026-04-25T09:05:36.125Z</time></trkpt><trkpt lat="43.4858033" lon="10.5379267"><ele>127.0</ele><time>2026-04-25T09:05:37.13Z</time></trkpt><trkpt lat="43.4858" lon="10.5378033"><ele>127.0</ele><time>2026-04-25T09:05:38.123Z</time></trkpt><trkpt lat="43.4858033" lon="10.5376933"><ele>127.0</ele><time>2026-04-25T09:05:39.126Z</time></trkpt><trkpt lat="43.4858067" lon="10.5375917"><ele>127.00000000000001</ele><time>2026-04-25T09:05:40.134Z</time></trkpt><trkpt lat="43.4858017" lon="10.5374933"><ele>127.0</ele><time>2026-04-25T09:05:41.14Z</time></trkpt><trkpt lat="43.4857783" lon="10.5374083"><ele>125.83333333333334</ele><time>2026-04-25T09:05:42.128Z</time></trkpt><trkpt lat="43.4856883" lon="10.5372817"><ele>124.66666666666667</ele><time>2026-04-25T09:05:44.14Z</time></trkpt><trkpt lat="43.4856217" lon="10.5372267"><ele>123.5</ele><time>2026-04-25T09:05:45.129Z</time></trkpt><trkpt lat="43.4855483" lon="10.53718"><ele>122.33333333333334</ele><time>2026-04-25T09:05:46.131Z</time></trkpt><trkpt lat="43.4854733" lon="10.5371417"><ele>121.16666666666667</ele><time>2026-04-25T09:05:47.129Z</time></trkpt><trkpt lat="43.485395" lon="10.5371083"><ele>120.0</ele><time>2026-04-25T09:05:48.129Z</time></trkpt><trkpt lat="43.4853133" lon="10.53708"><ele>119.16666666666667</ele><time>2026-04-25T09:05:49.135Z</time></trkpt><trkpt lat="43.4852283" lon="10.537055"><ele>118.33333333333334</ele><time>2026-04-25T09:05:50.128Z</time></trkpt><trkpt lat="43.4851433" lon="10.5370333"><ele>117.5</ele><time>2026-04-25T09:05:51.13Z</time></trkpt><trkpt lat="43.4850617" lon="10.5370167"><ele>116.66666666666667</ele><time>2026-04-25T09:05:52.139Z</time></trkpt><trkpt lat="43.4849833" lon="10.5370083"><ele>115.83333333333334</ele><time>2026-04-25T09:05:53.123Z</time></trkpt><trkpt lat="43.4849067" lon="10.5370167"><ele>115.0</ele><time>2026-04-25T09:05:54.14Z</time></trkpt><trkpt lat="43.484835" lon="10.5370433"><ele>114.99999999999999</ele><time>2026-04-25T09:05:55.122Z</time></trkpt><trkpt lat="43.48477" lon="10.5370817"><ele>115.0</ele><time>2026-04-25T09:05:56.127Z</time></trkpt><trkpt lat="43.4847083" lon="10.53713"><ele>114.99999999999999</ele><time>2026-04-25T09:05:57.139Z</time></trkpt><trkpt lat="43.48465" lon="10.5371817"><ele>114.99999999999999</ele><time>2026-04-25T09:05:58.14Z</time></trkpt><trkpt lat="43.4845917" lon="10.5372283"><ele>115.0</ele><time>2026-04-25T09:05:59.123Z</time></trkpt><trkpt lat="43.48453" lon="10.53727"><ele>114.99999999999999</ele><time>2026-04-25T09:06:00.131Z</time></trkpt><trkpt lat="43.4844633" lon="10.5373"><ele>114.99999999999999</ele><time>2026-04-25T09:06:01.13Z</time></trkpt><trkpt lat="43.4843917" lon="10.53732"><ele>112.6</ele><time>2026-04-25T09:06:02.125Z</time></trkpt><trkpt lat="43.484325" lon="10.537325"><ele>110.2</ele><time>2026-04-25T09:06:03.128Z</time></trkpt><trkpt lat="43.484215" lon="10.5373117"><ele>107.80000000000001</ele><time>2026-04-25T09:06:05.125Z</time></trkpt><trkpt lat="43.48413" lon="10.5373183"><ele>105.4</ele><time>2026-04-25T09:06:07.135Z</time></trkpt><trkpt lat="43.48404" lon="10.5374017"><ele>103.0</ele><time>2026-04-25T09:06:09.123Z</time></trkpt><trkpt lat="43.4839872" lon="10.5374965"><ele>103.0</ele><time>2026-04-25T09:06:10.136Z</time></trkpt><trkpt lat="43.4839199" lon="10.5376502"><ele>103.0</ele><time>2026-04-25T09:06:11.13Z</time></trkpt><trkpt lat="43.4838278" lon="10.5378656"><ele>103.0</ele><time>2026-04-25T09:06:12.125Z</time></trkpt><trkpt lat="43.4837152" lon="10.5381267"><ele>104.5</ele><time>2026-04-25T09:06:13.126Z</time></trkpt><trkpt lat="43.4835982" lon="10.5383985"><ele>106.0</ele><time>2026-04-25T09:06:14.128Z</time></trkpt><trkpt lat="43.4834804" lon="10.5386686"><ele>106.5</ele><time>2026-04-25T09:06:15.131Z</time></trkpt><trkpt lat="43.4833604" lon="10.5389427"><ele>107.0</ele><time>2026-04-25T09:06:16.132Z</time></trkpt><trkpt lat="43.4832291" lon="10.5392284"><ele>107.0</ele><time>2026-04-25T09:06:17.13Z</time></trkpt><trkpt lat="43.4830871" lon="10.5395165"><ele>107.0</ele><time>2026-04-25T09:06:18.126Z</time></trkpt><trkpt lat="43.4829429" lon="10.5397947"><ele>110.5</ele><time>2026-04-25T09:06:19.127Z</time></trkpt><trkpt lat="43.4827979" lon="10.5400558"><ele>114.0</ele><time>2026-04-25T09:06:20.135Z</time></trkpt><trkpt lat="43.4826521" lon="10.5403004"><ele>113.5</ele><time>2026-04-25T09:06:21.123Z</time></trkpt><trkpt lat="43.4825031" lon="10.5405371"><ele>113.0</ele><time>2026-04-25T09:06:22.126Z</time></trkpt><trkpt lat="43.4823578" lon="10.5407694"><ele>113.0</ele><time>2026-04-25T09:06:23.122Z</time></trkpt><trkpt lat="43.4822156" lon="10.540998"><ele>113.0</ele><time>2026-04-25T09:06:24.124Z</time></trkpt><trkpt lat="43.4820769" lon="10.5412217"><ele>113.0</ele><time>2026-04-25T09:06:25.127Z</time></trkpt><trkpt lat="43.4819406" lon="10.5414411"><ele>115.0</ele><time>2026-04-25T09:06:26.123Z</time></trkpt><trkpt lat="43.481805" lon="10.5416624"><ele>117.0</ele><time>2026-04-25T09:06:27.126Z</time></trkpt><trkpt lat="43.4816685" lon="10.5418831"><ele>119.0</ele><time>2026-04-25T09:06:28.126Z</time></trkpt><trkpt lat="43.4815318" lon="10.5421045"><ele>122.0</ele><time>2026-04-25T09:06:29.123Z</time></trkpt><trkpt lat="43.4813968" lon="10.5423254"><ele>125.0</ele><time>2026-04-25T09:06:30.122Z</time></trkpt><trkpt lat="43.4812641" lon="10.5425471"><ele>128.0</ele><time>2026-04-25T09:06:31.123Z</time></trkpt><trkpt lat="43.4811346" lon="10.542764"><ele>130.66666666666666</ele><time>2026-04-25T09:06:32.124Z</time></trkpt><trkpt lat="43.481013" lon="10.5429661"><ele>133.33333333333334</ele><time>2026-04-25T09:06:33.122Z</time></trkpt><trkpt lat="43.4808993" lon="10.5431573"><ele>136.0</ele><time>2026-04-25T09:06:34.127Z</time></trkpt><trkpt lat="43.4807892" lon="10.5433357"><ele>136.0</ele><time>2026-04-25T09:06:35.119Z</time></trkpt><trkpt lat="43.4806845" lon="10.5435045"><ele>136.0</ele><time>2026-04-25T09:06:36.122Z</time></trkpt><trkpt lat="43.4805871" lon="10.5436656"><ele>136.0</ele><time>2026-04-25T09:06:37.135Z</time></trkpt><trkpt lat="43.4804976" lon="10.5438096"><ele>137.2</ele><time>2026-04-25T09:06:38.134Z</time></trkpt><trkpt lat="43.4804156" lon="10.5439368"><ele>138.39999999999998</ele><time>2026-04-25T09:06:39.126Z</time></trkpt><trkpt lat="43.4803481" lon="10.5440399"><ele>139.6</ele><time>2026-04-25T09:06:40.125Z</time></trkpt><trkpt lat="43.4802842" lon="10.5441166"><ele>140.79999999999998</ele><time>2026-04-25T09:06:41.128Z</time></trkpt><trkpt lat="43.480226" lon="10.5441578"><ele>142.0</ele><time>2026-04-25T09:06:42.133Z</time></trkpt><trkpt lat="43.4801279" lon="10.5441124"><ele>142.0</ele><time>2026-04-25T09:06:44.131Z</time></trkpt><trkpt lat="43.480083" lon="10.5440358"><ele>142.0</ele><time>2026-04-25T09:06:45.129Z</time></trkpt><trkpt lat="43.4800454" lon="10.5439321"><ele>142.0</ele><time>2026-04-25T09:06:46.125Z</time></trkpt><trkpt lat="43.4800126" lon="10.5438416"><ele>142.0</ele><time>2026-04-25T09:06:47.117Z</time></trkpt><trkpt lat="43.4799943" lon="10.5437325"><ele>142.0</ele><time>2026-04-25T09:06:49.116Z</time></trkpt><trkpt lat="43.4800365" lon="10.5436477"><ele>142.0</ele><time>2026-04-25T09:06:51.126Z</time></trkpt><trkpt lat="43.4801234" lon="10.5435588"><ele>141.71428571428572</ele><time>2026-04-25T09:06:53.132Z</time></trkpt><trkpt lat="43.4801923" lon="10.5434371"><ele>141.42857142857142</ele><time>2026-04-25T09:06:55.12Z</time></trkpt><trkpt lat="43.4802172" lon="10.5433542"><ele>141.14285714285714</ele><time>2026-04-25T09:06:56.12Z</time></trkpt><trkpt lat="43.480236" lon="10.5432618"><ele>140.85714285714286</ele><time>2026-04-25T09:06:57.13Z</time></trkpt><trkpt lat="43.4802523" lon="10.5431699"><ele>140.57142857142856</ele><time>2026-04-25T09:06:58.134Z</time></trkpt><trkpt lat="43.4802668" lon="10.543081"><ele>140.28571428571428</ele><time>2026-04-25T09:06:59.122Z</time></trkpt><trkpt lat="43.4802843" lon="10.5429963"><ele>140.0</ele><time>2026-04-25T09:07:00.121Z</time></trkpt><trkpt lat="43.4803225" lon="10.5428542"><ele>140.0</ele><time>2026-04-25T09:07:02.12Z</time></trkpt><trkpt lat="43.4803503" lon="10.5427564"><ele>140.0</ele><time>2026-04-25T09:07:04.127Z</time></trkpt><trkpt lat="43.4803445" lon="10.5426517"><ele>140.0</ele><time>2026-04-25T09:07:07.127Z</time></trkpt><trkpt lat="43.4802683" lon="10.542695"><ele>140.0</ele><time>2026-04-25T09:07:10.123Z</time></trkpt><trkpt lat="43.4801683" lon="10.5428217"><ele>140.0</ele><time>2026-04-25T09:07:12.129Z</time></trkpt><trkpt lat="43.4801017" lon="10.5428967"><ele>140.0</ele><time>2026-04-25T09:07:13.128Z</time></trkpt><trkpt lat="43.4800383" lon="10.5429833"><ele>140.0</ele><time>2026-04-25T09:07:14.127Z</time></trkpt><trkpt lat="43.47999" lon="10.5430767"><ele>140.0</ele><time>2026-04-25T09:07:15.132Z</time></trkpt><trkpt lat="43.4799567" lon="10.54317"><ele>140.0</ele><time>2026-04-25T09:07:16.122Z</time></trkpt><trkpt lat="43.4799283" lon="10.5433167"><ele>140.0</ele><time>2026-04-25T09:07:18.134Z</time></trkpt><trkpt lat="43.4798467" lon="10.543375"><ele>140.0</ele><time>2026-04-25T09:07:21.125Z</time></trkpt><trkpt lat="43.4797717" lon="10.5432883"><ele>140.0</ele><time>2026-04-25T09:07:23.119Z</time></trkpt><trkpt lat="43.47972" lon="10.5432033"><ele>140.0</ele><time>2026-04-25T09:07:24.124Z</time></trkpt><trkpt lat="43.47965" lon="10.5430883"><ele>140.0</ele><time>2026-04-25T09:07:25.123Z</time></trkpt><trkpt lat="43.47956" lon="10.5429533"><ele>140.0</ele><time>2026-04-25T09:07:26.131Z</time></trkpt><trkpt lat="43.4794717" lon="10.542815"><ele>139.8</ele><time>2026-04-25T09:07:27.13Z</time></trkpt><trkpt lat="43.4793933" lon="10.5426783"><ele>139.6</ele><time>2026-04-25T09:07:28.126Z</time></trkpt><trkpt lat="43.4793233" lon="10.54255"><ele>139.4</ele><time>2026-04-25T09:07:29.128Z</time></trkpt><trkpt lat="43.479265" lon="10.542435"><ele>139.2</ele><time>2026-04-25T09:07:30.138Z</time></trkpt><trkpt lat="43.47921" lon="10.5423367"><ele>139.0</ele><time>2026-04-25T09:07:31.138Z</time></trkpt><trkpt lat="43.4791583" lon="10.542255"><ele>139.0</ele><time>2026-04-25T09:07:32.126Z</time></trkpt><trkpt lat="43.479095" lon="10.54218"><ele>139.0</ele><time>2026-04-25T09:07:33.125Z</time></trkpt><trkpt lat="43.479015" lon="10.5421117"><ele>139.0</ele><time>2026-04-25T09:07:34.128Z</time></trkpt><trkpt lat="43.478905" lon="10.542035"><ele>139.0</ele><time>2026-04-25T09:07:35.12Z</time></trkpt><trkpt lat="43.4787783" lon="10.54195"><ele>139.0</ele><time>2026-04-25T09:07:36.124Z</time></trkpt><trkpt lat="43.4786483" lon="10.5418683"><ele>139.25</ele><time>2026-04-25T09:07:37.127Z</time></trkpt><trkpt lat="43.478525" lon="10.5417833"><ele>139.5</ele><time>2026-04-25T09:07:38.119Z</time></trkpt><trkpt lat="43.4784067" lon="10.5416983"><ele>139.75</ele><time>2026-04-25T09:07:39.126Z</time></trkpt><trkpt lat="43.4782967" lon="10.5416233"><ele>140.0</ele><time>2026-04-25T09:07:40.126Z</time></trkpt><trkpt lat="43.4781933" lon="10.5415483"><ele>140.0</ele><time>2026-04-25T09:07:41.123Z</time></trkpt><trkpt lat="43.4780917" lon="10.54148"><ele>140.0</ele><time>2026-04-25T09:07:42.12Z</time></trkpt><trkpt lat="43.4779933" lon="10.5414217"><ele>140.0</ele><time>2026-04-25T09:07:43.12Z</time></trkpt><trkpt lat="43.4779017" lon="10.5413717"><ele>140.0</ele><time>2026-04-25T09:07:44.134Z</time></trkpt><trkpt lat="43.4778167" lon="10.5413267"><ele>140.0</ele><time>2026-04-25T09:07:45.111Z</time></trkpt><trkpt lat="43.47773" lon="10.5412917"><ele>140.75</ele><time>2026-04-25T09:07:46.124Z</time></trkpt><trkpt lat="43.477635" lon="10.5412667"><ele>141.5</ele><time>2026-04-25T09:07:47.12Z</time></trkpt><trkpt lat="43.4775233" lon="10.5412483"><ele>142.25</ele><time>2026-04-25T09:07:48.135Z</time></trkpt><trkpt lat="43.4774017" lon="10.5412433"><ele>143.0</ele><time>2026-04-25T09:07:49.127Z</time></trkpt><trkpt lat="43.47728" lon="10.5412417"><ele>143.0</ele><time>2026-04-25T09:07:50.124Z</time></trkpt><trkpt lat="43.47716" lon="10.541245"><ele>143.0</ele><time>2026-04-25T09:07:51.131Z</time></trkpt><trkpt lat="43.477045" lon="10.5412517"><ele>143.0</ele><time>2026-04-25T09:07:52.13Z</time></trkpt><trkpt lat="43.4769333" lon="10.5412467"><ele>143.0</ele><time>2026-04-25T09:07:53.133Z</time></trkpt><trkpt lat="43.47682" lon="10.541225"><ele>141.25</ele><time>2026-04-25T09:07:54.131Z</time></trkpt><trkpt lat="43.4767117" lon="10.5411767"><ele>139.5</ele><time>2026-04-25T09:07:55.134Z</time></trkpt><trkpt lat="43.47661" lon="10.5411"><ele>137.75</ele><time>2026-04-25T09:07:56.121Z</time></trkpt><trkpt lat="43.4765033" lon="10.5409833"><ele>136.0</ele><time>2026-04-25T09:07:57.13Z</time></trkpt><trkpt lat="43.4763883" lon="10.540845"><ele>136.0</ele><time>2026-04-25T09:07:58.128Z</time></trkpt><trkpt lat="43.4762783" lon="10.5407133"><ele>136.0</ele><time>2026-04-25T09:07:59.124Z</time></trkpt><trkpt lat="43.476185" lon="10.5406017"><ele>136.0</ele><time>2026-04-25T09:08:00.125Z</time></trkpt><trkpt lat="43.476105" lon="10.5405067"><ele>136.0</ele><time>2026-04-25T09:08:01.13Z</time></trkpt><trkpt lat="43.47604" lon="10.5404267"><ele>136.0</ele><time>2026-04-25T09:08:02.124Z</time></trkpt><trkpt lat="43.4759817" lon="10.5403433"><ele>136.0</ele><time>2026-04-25T09:08:03.116Z</time></trkpt><trkpt lat="43.4759317" lon="10.54025"><ele>136.0</ele><time>2026-04-25T09:08:04.127Z</time></trkpt><trkpt lat="43.4758917" lon="10.5401467"><ele>136.0</ele><time>2026-04-25T09:08:05.128Z</time></trkpt><trkpt lat="43.4758683" lon="10.54003"><ele>136.0</ele><time>2026-04-25T09:08:06.128Z</time></trkpt><trkpt lat="43.4758533" lon="10.5399233"><ele>136.0</ele><time>2026-04-25T09:08:07.117Z</time></trkpt><trkpt lat="43.47585" lon="10.539825"><ele>136.0</ele><time>2026-04-25T09:08:08.116Z</time></trkpt><trkpt lat="43.47585" lon="10.5397317"><ele>136.0</ele><time>2026-04-25T09:08:09.12Z</time></trkpt><trkpt lat="43.4758533" lon="10.539645"><ele>136.0</ele><time>2026-04-25T09:08:10.119Z</time></trkpt><trkpt lat="43.475855" lon="10.5394767"><ele>136.0</ele><time>2026-04-25T09:08:12.124Z</time></trkpt><trkpt lat="43.4758567" lon="10.539375"><ele>136.0</ele><time>2026-04-25T09:08:13.122Z</time></trkpt><trkpt lat="43.475855" lon="10.53926"><ele>136.0</ele><time>2026-04-25T09:08:14.116Z</time></trkpt><trkpt lat="43.4758517" lon="10.5391383"><ele>135.4</ele><time>2026-04-25T09:08:15.118Z</time></trkpt><trkpt lat="43.4758533" lon="10.5390133"><ele>134.8</ele><time>2026-04-25T09:08:16.118Z</time></trkpt><trkpt lat="43.4758533" lon="10.53888"><ele>134.20000000000002</ele><time>2026-04-25T09:08:17.132Z</time></trkpt><trkpt lat="43.4758533" lon="10.5387467"><ele>133.6</ele><time>2026-04-25T09:08:18.119Z</time></trkpt><trkpt lat="43.4758467" lon="10.5386133"><ele>133.0</ele><time>2026-04-25T09:08:19.124Z</time></trkpt><trkpt lat="43.47583" lon="10.53848"><ele>132.4</ele><time>2026-04-25T09:08:20.127Z</time></trkpt><trkpt lat="43.4758017" lon="10.5383467"><ele>131.8</ele><time>2026-04-25T09:08:21.13Z</time></trkpt><trkpt lat="43.4757617" lon="10.538215"><ele>131.2</ele><time>2026-04-25T09:08:22.12Z</time></trkpt><trkpt lat="43.475715" lon="10.538085"><ele>130.6</ele><time>2026-04-25T09:08:23.113Z</time></trkpt><trkpt lat="43.475665" lon="10.5379567"><ele>130.0</ele><time>2026-04-25T09:08:24.107Z</time></trkpt><trkpt lat="43.47561" lon="10.537825"><ele>130.0</ele><time>2026-04-25T09:08:25.113Z</time></trkpt><trkpt lat="43.47555" lon="10.5376917"><ele>130.0</ele><time>2026-04-25T09:08:26.116Z</time></trkpt><trkpt lat="43.4754883" lon="10.53756"><ele>130.0</ele><time>2026-04-25T09:08:27.123Z</time></trkpt><trkpt lat="43.47543" lon="10.5374333"><ele>130.0</ele><time>2026-04-25T09:08:28.124Z</time></trkpt><trkpt lat="43.4753767" lon="10.5373117"><ele>130.0</ele><time>2026-04-25T09:08:29.122Z</time></trkpt><trkpt lat="43.4753267" lon="10.5371967"><ele>129.6</ele><time>2026-04-25T09:08:30.121Z</time></trkpt><trkpt lat="43.4752767" lon="10.5370817"><ele>129.2</ele><time>2026-04-25T09:08:31.128Z</time></trkpt><trkpt lat="43.4752217" lon="10.5369617"><ele>128.8</ele><time>2026-04-25T09:08:32.119Z</time></trkpt><trkpt lat="43.4751633" lon="10.5368417"><ele>128.4</ele><time>2026-04-25T09:08:33.126Z</time></trkpt><trkpt lat="43.4750967" lon="10.5367233"><ele>128.0</ele><time>2026-04-25T09:08:34.114Z</time></trkpt><trkpt lat="43.475025" lon="10.5366017"><ele>128.8</ele><time>2026-04-25T09:08:35.118Z</time></trkpt><trkpt lat="43.4749483" lon="10.5364767"><ele>129.60000000000002</ele><time>2026-04-25T09:08:36.124Z</time></trkpt><trkpt lat="43.474875" lon="10.5363533"><ele>130.39999999999998</ele><time>2026-04-25T09:08:37.12Z</time></trkpt><trkpt lat="43.474805" lon="10.536245"><ele>131.2</ele><time>2026-04-25T09:08:38.126Z</time></trkpt><trkpt lat="43.47474" lon="10.5361467"><ele>132.0</ele><time>2026-04-25T09:08:39.122Z</time></trkpt><trkpt lat="43.474675" lon="10.5360517"><ele>131.6</ele><time>2026-04-25T09:08:40.126Z</time></trkpt><trkpt lat="43.4746033" lon="10.5359583"><ele>131.2</ele><time>2026-04-25T09:08:41.121Z</time></trkpt><trkpt lat="43.4745267" lon="10.5358667"><ele>130.8</ele><time>2026-04-25T09:08:42.124Z</time></trkpt><trkpt lat="43.47445" lon="10.535775"><ele>130.4</ele><time>2026-04-25T09:08:43.131Z</time></trkpt><trkpt lat="43.4743783" lon="10.53569"><ele>130.0</ele><time>2026-04-25T09:08:44.132Z</time></trkpt><trkpt lat="43.4743133" lon="10.53561"><ele>130.0</ele><time>2026-04-25T09:08:45.123Z</time></trkpt><trkpt lat="43.4742517" lon="10.5355333"><ele>130.0</ele><time>2026-04-25T09:08:46.12Z</time></trkpt><trkpt lat="43.4741883" lon="10.5354617"><ele>130.0</ele><time>2026-04-25T09:08:47.119Z</time></trkpt><trkpt lat="43.4741183" lon="10.535395"><ele>130.0</ele><time>2026-04-25T09:08:48.131Z</time></trkpt><trkpt lat="43.4740417" lon="10.5353383"><ele>130.0</ele><time>2026-04-25T09:08:49.123Z</time></trkpt><trkpt lat="43.4739633" lon="10.535285"><ele>130.0</ele><time>2026-04-25T09:08:50.122Z</time></trkpt><trkpt lat="43.4738917" lon="10.53524"><ele>130.0</ele><time>2026-04-25T09:08:51.126Z</time></trkpt><trkpt lat="43.473825" lon="10.5351917"><ele>130.0</ele><time>2026-04-25T09:08:52.122Z</time></trkpt><trkpt lat="43.47376" lon="10.53514"><ele>130.0</ele><time>2026-04-25T09:08:53.127Z</time></trkpt><trkpt lat="43.4736983" lon="10.5350767"><ele>130.0</ele><time>2026-04-25T09:08:54.124Z</time></trkpt><trkpt lat="43.473635" lon="10.5349983"><ele>130.0</ele><time>2026-04-25T09:08:55.128Z</time></trkpt><trkpt lat="43.473575" lon="10.5349"><ele>130.0</ele><time>2026-04-25T09:08:56.121Z</time></trkpt><trkpt lat="43.473515" lon="10.5348"><ele>129.2</ele><time>2026-04-25T09:08:57.127Z</time></trkpt><trkpt lat="43.4734483" lon="10.5346967"><ele>128.4</ele><time>2026-04-25T09:08:58.116Z</time></trkpt><trkpt lat="43.47337" lon="10.5345917"><ele>127.6</ele><time>2026-04-25T09:08:59.117Z</time></trkpt><trkpt lat="43.4732867" lon="10.53449"><ele>126.8</ele><time>2026-04-25T09:09:00.122Z</time></trkpt><trkpt lat="43.4732" lon="10.53439"><ele>126.0</ele><time>2026-04-25T09:09:01.135Z</time></trkpt><trkpt lat="43.47312" lon="10.5342867"><ele>125.6</ele><time>2026-04-25T09:09:02.124Z</time></trkpt><trkpt lat="43.4730483" lon="10.5341767"><ele>125.19999999999999</ele><time>2026-04-25T09:09:03.127Z</time></trkpt><trkpt lat="43.4729867" lon="10.5340583"><ele>124.80000000000001</ele><time>2026-04-25T09:09:04.127Z</time></trkpt><trkpt lat="43.4729317" lon="10.53393"><ele>124.4</ele><time>2026-04-25T09:09:05.125Z</time></trkpt><trkpt lat="43.47288" lon="10.5337967"><ele>124.0</ele><time>2026-04-25T09:09:06.129Z</time></trkpt><trkpt lat="43.4728233" lon="10.533655"><ele>122.75</ele><time>2026-04-25T09:09:07.117Z</time></trkpt><trkpt lat="43.4727617" lon="10.5335133"><ele>121.5</ele><time>2026-04-25T09:09:08.121Z</time></trkpt><trkpt lat="43.4727" lon="10.5333683"><ele>120.25</ele><time>2026-04-25T09:09:09.129Z</time></trkpt><trkpt lat="43.4726367" lon="10.5332233"><ele>119.0</ele><time>2026-04-25T09:09:10.119Z</time></trkpt><trkpt lat="43.47257" lon="10.5330767"><ele>119.0</ele><time>2026-04-25T09:09:11.126Z</time></trkpt><trkpt lat="43.4725083" lon="10.5329267"><ele>119.0</ele><time>2026-04-25T09:09:12.122Z</time></trkpt><trkpt lat="43.4724533" lon="10.5327717"><ele>119.0</ele><time>2026-04-25T09:09:13.117Z</time></trkpt><trkpt lat="43.4724033" lon="10.5326083"><ele>119.0</ele><time>2026-04-25T09:09:14.123Z</time></trkpt><trkpt lat="43.47235" lon="10.5324433"><ele>119.25</ele><time>2026-04-25T09:09:15.127Z</time></trkpt><trkpt lat="43.47229" lon="10.5322817"><ele>119.5</ele><time>2026-04-25T09:09:16.125Z</time></trkpt><trkpt lat="43.4722233" lon="10.5321183"><ele>119.75</ele><time>2026-04-25T09:09:17.12Z</time></trkpt><trkpt lat="43.4721533" lon="10.531945"><ele>120.0</ele><time>2026-04-25T09:09:18.123Z</time></trkpt><trkpt lat="43.4720883" lon="10.53177"><ele>120.0</ele><time>2026-04-25T09:09:19.127Z</time></trkpt><trkpt lat="43.4720233" lon="10.5316017"><ele>120.0</ele><time>2026-04-25T09:09:20.128Z</time></trkpt><trkpt lat="43.4719533" lon="10.53144"><ele>120.0</ele><time>2026-04-25T09:09:21.117Z</time></trkpt><trkpt lat="43.47188" lon="10.531295"><ele>120.0</ele><time>2026-04-25T09:09:22.119Z</time></trkpt><trkpt lat="43.47181" lon="10.531155"><ele>120.0</ele><time>2026-04-25T09:09:23.124Z</time></trkpt><trkpt lat="43.4717467" lon="10.5310117"><ele>120.0</ele><time>2026-04-25T09:09:24.118Z</time></trkpt><trkpt lat="43.4716917" lon="10.5308617"><ele>120.0</ele><time>2026-04-25T09:09:25.136Z</time></trkpt><trkpt lat="43.4716433" lon="10.5307017"><ele>120.0</ele><time>2026-04-25T09:09:26.121Z</time></trkpt><trkpt lat="43.4715933" lon="10.5305417"><ele>119.25</ele><time>2026-04-25T09:09:27.126Z</time></trkpt><trkpt lat="43.47153" lon="10.5303767"><ele>118.5</ele><time>2026-04-25T09:09:28.125Z</time></trkpt><trkpt lat="43.4714533" lon="10.5302133"><ele>117.75</ele><time>2026-04-25T09:09:29.118Z</time></trkpt><trkpt lat="43.4713683" lon="10.5300533"><ele>117.0</ele><time>2026-04-25T09:09:30.123Z</time></trkpt><trkpt lat="43.47128" lon="10.5298967"><ele>117.25</ele><time>2026-04-25T09:09:31.123Z</time></trkpt><trkpt lat="43.4711917" lon="10.5297383"><ele>117.5</ele><time>2026-04-25T09:09:32.117Z</time></trkpt><trkpt lat="43.471105" lon="10.5295733"><ele>117.75</ele><time>2026-04-25T09:09:33.121Z</time></trkpt><trkpt lat="43.4710167" lon="10.5294117"><ele>118.0</ele><time>2026-04-25T09:09:34.117Z</time></trkpt><trkpt lat="43.4709333" lon="10.5292533"><ele>118.0</ele><time>2026-04-25T09:09:35.119Z</time></trkpt><trkpt lat="43.4708517" lon="10.5290917"><ele>118.0</ele><time>2026-04-25T09:09:36.126Z</time></trkpt><trkpt lat="43.470775" lon="10.52892"><ele>118.0</ele><time>2026-04-25T09:09:37.119Z</time></trkpt><trkpt lat="43.470705" lon="10.5287367"><ele>118.0</ele><time>2026-04-25T09:09:38.127Z</time></trkpt><trkpt lat="43.4706417" lon="10.5285483"><ele>117.25</ele><time>2026-04-25T09:09:39.129Z</time></trkpt><trkpt lat="43.4705817" lon="10.5283633"><ele>116.5</ele><time>2026-04-25T09:09:40.122Z</time></trkpt><trkpt lat="43.4705233" lon="10.5281867"><ele>115.75</ele><time>2026-04-25T09:09:41.122Z</time></trkpt><trkpt lat="43.4704617" lon="10.528025"><ele>115.0</ele><time>2026-04-25T09:09:42.125Z</time></trkpt><trkpt lat="43.4703983" lon="10.5278783"><ele>114.0</ele><time>2026-04-25T09:09:43.127Z</time></trkpt><trkpt lat="43.470325" lon="10.52773"><ele>113.0</ele><time>2026-04-25T09:09:44.116Z</time></trkpt><trkpt lat="43.4702517" lon="10.5275883"><ele>112.0</ele><time>2026-04-25T09:09:45.127Z</time></trkpt><trkpt lat="43.4701817" lon="10.5274467"><ele>111.0</ele><time>2026-04-25T09:09:46.127Z</time></trkpt><trkpt lat="43.4701183" lon="10.52731"><ele>111.0</ele><time>2026-04-25T09:09:47.13Z</time></trkpt><trkpt lat="43.47006" lon="10.52717"><ele>111.0</ele><time>2026-04-25T09:09:48.126Z</time></trkpt><trkpt lat="43.4700067" lon="10.527025"><ele>111.0</ele><time>2026-04-25T09:09:49.12Z</time></trkpt><trkpt lat="43.4699583" lon="10.5268783"><ele>111.0</ele><time>2026-04-25T09:09:50.126Z</time></trkpt><trkpt lat="43.4699083" lon="10.5267217"><ele>111.25</ele><time>2026-04-25T09:09:51.117Z</time></trkpt><trkpt lat="43.46986" lon="10.526565"><ele>111.5</ele><time>2026-04-25T09:09:52.126Z</time></trkpt><trkpt lat="43.469815" lon="10.5264"><ele>111.75</ele><time>2026-04-25T09:09:53.127Z</time></trkpt><trkpt lat="43.4697767" lon="10.526235"><ele>112.0</ele><time>2026-04-25T09:09:54.118Z</time></trkpt><trkpt lat="43.4697433" lon="10.5260733"><ele>111.19999999999999</ele><time>2026-04-25T09:09:55.128Z</time></trkpt><trkpt lat="43.46971" lon="10.5259183"><ele>110.39999999999999</ele><time>2026-04-25T09:09:56.119Z</time></trkpt><trkpt lat="43.4696817" lon="10.5257767"><ele>109.60000000000001</ele><time>2026-04-25T09:09:57.124Z</time></trkpt><trkpt lat="43.46965" lon="10.5256367"><ele>108.80000000000001</ele><time>2026-04-25T09:09:58.132Z</time></trkpt><trkpt lat="43.4696167" lon="10.5254983"><ele>108.0</ele><time>2026-04-25T09:09:59.126Z</time></trkpt><trkpt lat="43.46958" lon="10.525365"><ele>107.80000000000001</ele><time>2026-04-25T09:10:00.131Z</time></trkpt><trkpt lat="43.46954" lon="10.5252233"><ele>107.60000000000001</ele><time>2026-04-25T09:10:01.122Z</time></trkpt><trkpt lat="43.4695017" lon="10.5250817"><ele>107.39999999999999</ele><time>2026-04-25T09:10:02.122Z</time></trkpt><trkpt lat="43.4694683" lon="10.5249483"><ele>107.19999999999999</ele><time>2026-04-25T09:10:03.128Z</time></trkpt><trkpt lat="43.4694383" lon="10.524815"><ele>107.0</ele><time>2026-04-25T09:10:04.126Z</time></trkpt><trkpt lat="43.4694183" lon="10.5246767"><ele>106.49999999999999</ele><time>2026-04-25T09:10:05.12Z</time></trkpt><trkpt lat="43.4694033" lon="10.52454"><ele>106.0</ele><time>2026-04-25T09:10:06.127Z</time></trkpt><trkpt lat="43.4693883" lon="10.52441"><ele>105.5</ele><time>2026-04-25T09:10:07.119Z</time></trkpt><trkpt lat="43.4693717" lon="10.5242983"><ele>105.0</ele><time>2026-04-25T09:10:08.121Z</time></trkpt><trkpt lat="43.4693583" lon="10.5242067"><ele>104.49999999999999</ele><time>2026-04-25T09:10:09.124Z</time></trkpt><trkpt lat="43.4693417" lon="10.5241067"><ele>104.0</ele><time>2026-04-25T09:10:10.127Z</time></trkpt><trkpt lat="43.46932" lon="10.5239867"><ele>104.0</ele><time>2026-04-25T09:10:11.123Z</time></trkpt><trkpt lat="43.4692967" lon="10.5238633"><ele>104.0</ele><time>2026-04-25T09:10:12.114Z</time></trkpt><trkpt lat="43.4692683" lon="10.5237417"><ele>104.0</ele><time>2026-04-25T09:10:13.125Z</time></trkpt><trkpt lat="43.4692417" lon="10.5236067"><ele>104.0</ele><time>2026-04-25T09:10:14.124Z</time></trkpt><trkpt lat="43.46922" lon="10.52346"><ele>104.0</ele><time>2026-04-25T09:10:15.128Z</time></trkpt><trkpt lat="43.4691967" lon="10.523305"><ele>104.5</ele><time>2026-04-25T09:10:16.122Z</time></trkpt><trkpt lat="43.4691667" lon="10.5231567"><ele>105.0</ele><time>2026-04-25T09:10:17.125Z</time></trkpt><trkpt lat="43.4691333" lon="10.523015"><ele>105.5</ele><time>2026-04-25T09:10:18.129Z</time></trkpt><trkpt lat="43.4690917" lon="10.5228733"><ele>106.0</ele><time>2026-04-25T09:10:19.123Z</time></trkpt><trkpt lat="43.4690433" lon="10.5227217"><ele>106.5</ele><time>2026-04-25T09:10:20.132Z</time></trkpt><trkpt lat="43.4689883" lon="10.5225583"><ele>107.0</ele><time>2026-04-25T09:10:21.137Z</time></trkpt><trkpt lat="43.46893" lon="10.5223917"><ele>107.5</ele><time>2026-04-25T09:10:22.127Z</time></trkpt><trkpt lat="43.4688733" lon="10.5222367"><ele>108.0</ele><time>2026-04-25T09:10:23.113Z</time></trkpt><trkpt lat="43.46882" lon="10.5220967"><ele>106.80000000000001</ele><time>2026-04-25T09:10:24.121Z</time></trkpt><trkpt lat="43.4687683" lon="10.5219667"><ele>105.60000000000001</ele><time>2026-04-25T09:10:25.114Z</time></trkpt><trkpt lat="43.4687217" lon="10.5218433"><ele>104.4</ele><time>2026-04-25T09:10:26.128Z</time></trkpt><trkpt lat="43.468675" lon="10.52173"><ele>103.19999999999999</ele><time>2026-04-25T09:10:27.134Z</time></trkpt><trkpt lat="43.4686333" lon="10.5216333"><ele>102.0</ele><time>2026-04-25T09:10:28.126Z</time></trkpt><trkpt lat="43.4685933" lon="10.521555"><ele>102.0</ele><time>2026-04-25T09:10:29.125Z</time></trkpt><trkpt lat="43.4685533" lon="10.52148"><ele>102.0</ele><time>2026-04-25T09:10:30.128Z</time></trkpt><trkpt lat="43.4684783" lon="10.5213467"><ele>102.0</ele><time>2026-04-25T09:10:32.132Z</time></trkpt><trkpt lat="43.46841" lon="10.5212217"><ele>102.0</ele><time>2026-04-25T09:10:34.14Z</time></trkpt><trkpt lat="43.4683367" lon="10.5210917"><ele>102.0</ele><time>2026-04-25T09:10:36.134Z</time></trkpt><trkpt lat="43.46826" lon="10.5209533"><ele>101.66666666666667</ele><time>2026-04-25T09:10:38.135Z</time></trkpt><trkpt lat="43.468175" lon="10.52082"><ele>101.33333333333334</ele><time>2026-04-25T09:10:40.124Z</time></trkpt><trkpt lat="43.468125" lon="10.52075"><ele>101.0</ele><time>2026-04-25T09:10:41.124Z</time></trkpt><trkpt lat="43.4680733" lon="10.520675"><ele>100.66666666666667</ele><time>2026-04-25T09:10:42.126Z</time></trkpt><trkpt lat="43.4680183" lon="10.5205967"><ele>100.33333333333334</ele><time>2026-04-25T09:10:43.134Z</time></trkpt><trkpt lat="43.46796" lon="10.520515"><ele>100.0</ele><time>2026-04-25T09:10:44.122Z</time></trkpt><trkpt lat="43.4679033" lon="10.5204333"><ele>98.66666666666667</ele><time>2026-04-25T09:10:45.12Z</time></trkpt><trkpt lat="43.4678483" lon="10.52035"><ele>97.33333333333334</ele><time>2026-04-25T09:10:46.122Z</time></trkpt><trkpt lat="43.4677933" lon="10.5202633"><ele>96.0</ele><time>2026-04-25T09:10:47.119Z</time></trkpt><trkpt lat="43.46774" lon="10.520175"><ele>94.66666666666667</ele><time>2026-04-25T09:10:48.127Z</time></trkpt><trkpt lat="43.467685" lon="10.520095"><ele>93.33333333333334</ele><time>2026-04-25T09:10:49.12Z</time></trkpt><trkpt lat="43.4676283" lon="10.5200283"><ele>92.0</ele><time>2026-04-25T09:10:50.119Z</time></trkpt><trkpt lat="43.46757" lon="10.5199717"><ele>92.0</ele><time>2026-04-25T09:10:51.135Z</time></trkpt><trkpt lat="43.467505" lon="10.51992"><ele>92.0</ele><time>2026-04-25T09:10:52.14Z</time></trkpt><trkpt lat="43.4674383" lon="10.5198717"><ele>92.0</ele><time>2026-04-25T09:10:53.124Z</time></trkpt><trkpt lat="43.46737" lon="10.5198183"><ele>92.0</ele><time>2026-04-25T09:10:54.125Z</time></trkpt><trkpt lat="43.4672983" lon="10.5197667"><ele>92.0</ele><time>2026-04-25T09:10:55.117Z</time></trkpt><trkpt lat="43.4672317" lon="10.51972"><ele>92.0</ele><time>2026-04-25T09:10:56.126Z</time></trkpt><trkpt lat="43.4671583" lon="10.5196883"><ele>91.0</ele><time>2026-04-25T09:10:57.117Z</time></trkpt><trkpt lat="43.4670733" lon="10.5196683"><ele>90.0</ele><time>2026-04-25T09:10:58.116Z</time></trkpt><trkpt lat="43.466975" lon="10.5196533"><ele>89.0</ele><time>2026-04-25T09:10:59.127Z</time></trkpt><trkpt lat="43.4668683" lon="10.51964"><ele>88.0</ele><time>2026-04-25T09:11:00.13Z</time></trkpt><trkpt lat="43.4667617" lon="10.5196317"><ele>87.0</ele><time>2026-04-25T09:11:01.123Z</time></trkpt><trkpt lat="43.4666517" lon="10.5196283"><ele>87.0</ele><time>2026-04-25T09:11:02.123Z</time></trkpt><trkpt lat="43.4665467" lon="10.5196233"><ele>87.0</ele><time>2026-04-25T09:11:03.121Z</time></trkpt><trkpt lat="43.46644" lon="10.5196083"><ele>87.0</ele><time>2026-04-25T09:11:04.118Z</time></trkpt><trkpt lat="43.4663283" lon="10.5195833"><ele>87.0</ele><time>2026-04-25T09:11:05.125Z</time></trkpt><trkpt lat="43.466215" lon="10.519555"><ele>87.0</ele><time>2026-04-25T09:11:06.121Z</time></trkpt><trkpt lat="43.4660917" lon="10.5195283"><ele>87.0</ele><time>2026-04-25T09:11:07.123Z</time></trkpt><trkpt lat="43.4659633" lon="10.5195033"><ele>87.0</ele><time>2026-04-25T09:11:08.121Z</time></trkpt><trkpt lat="43.4658483" lon="10.5194783"><ele>87.0</ele><time>2026-04-25T09:11:09.131Z</time></trkpt><trkpt lat="43.4657367" lon="10.5194567"><ele>87.0</ele><time>2026-04-25T09:11:10.121Z</time></trkpt><trkpt lat="43.4656267" lon="10.5194383"><ele>87.0</ele><time>2026-04-25T09:11:11.115Z</time></trkpt><trkpt lat="43.4655117" lon="10.51942"><ele>87.0</ele><time>2026-04-25T09:11:12.129Z</time></trkpt><trkpt lat="43.4653933" lon="10.519405"><ele>87.0</ele><time>2026-04-25T09:11:13.131Z</time></trkpt><trkpt lat="43.465275" lon="10.5193933"><ele>87.0</ele><time>2026-04-25T09:11:14.127Z</time></trkpt><trkpt lat="43.46516" lon="10.51938"><ele>86.6</ele><time>2026-04-25T09:11:15.124Z</time></trkpt><trkpt lat="43.4650483" lon="10.51936"><ele>86.19999999999999</ele><time>2026-04-25T09:11:16.133Z</time></trkpt><trkpt lat="43.46494" lon="10.5193367"><ele>85.8</ele><time>2026-04-25T09:11:17.124Z</time></trkpt><trkpt lat="43.46483" lon="10.519315"><ele>85.4</ele><time>2026-04-25T09:11:18.142Z</time></trkpt><trkpt lat="43.46472" lon="10.51929"><ele>85.0</ele><time>2026-04-25T09:11:19.13Z</time></trkpt><trkpt lat="43.4646133" lon="10.5192633"><ele>84.25</ele><time>2026-04-25T09:11:20.129Z</time></trkpt><trkpt lat="43.4645133" lon="10.5192183"><ele>83.5</ele><time>2026-04-25T09:11:21.127Z</time></trkpt><trkpt lat="43.464405" lon="10.51915"><ele>82.75</ele><time>2026-04-25T09:11:22.139Z</time></trkpt><trkpt lat="43.464285" lon="10.5190583"><ele>82.0</ele><time>2026-04-25T09:11:23.132Z</time></trkpt><trkpt lat="43.4641683" lon="10.5189667"><ele>82.0</ele><time>2026-04-25T09:11:24.13Z</time></trkpt><trkpt lat="43.464055" lon="10.5188783"><ele>82.0</ele><time>2026-04-25T09:11:25.124Z</time></trkpt><trkpt lat="43.4639417" lon="10.5187883"><ele>82.0</ele><time>2026-04-25T09:11:26.129Z</time></trkpt><trkpt lat="43.463825" lon="10.5187017"><ele>82.0</ele><time>2026-04-25T09:11:27.126Z</time></trkpt><trkpt lat="43.463715" lon="10.51862"><ele>82.0</ele><time>2026-04-25T09:11:28.128Z</time></trkpt><trkpt lat="43.46361" lon="10.5185467"><ele>82.0</ele><time>2026-04-25T09:11:29.125Z</time></trkpt><trkpt lat="43.46351" lon="10.518475"><ele>82.0</ele><time>2026-04-25T09:11:30.131Z</time></trkpt><trkpt lat="43.463415" lon="10.5184067"><ele>82.0</ele><time>2026-04-25T09:11:31.13Z</time></trkpt><trkpt lat="43.4633233" lon="10.5183383"><ele>82.0</ele><time>2026-04-25T09:11:32.129Z</time></trkpt><trkpt lat="43.4632333" lon="10.518275"><ele>82.0</ele><time>2026-04-25T09:11:33.121Z</time></trkpt><trkpt lat="43.46315" lon="10.5182133"><ele>82.0</ele><time>2026-04-25T09:11:34.125Z</time></trkpt><trkpt lat="43.46308" lon="10.51816"><ele>82.0</ele><time>2026-04-25T09:11:35.125Z</time></trkpt><trkpt lat="43.4630183" lon="10.5181133"><ele>82.0</ele><time>2026-04-25T09:11:36.124Z</time></trkpt><trkpt lat="43.4629017" lon="10.51805"><ele>82.0</ele><time>2026-04-25T09:11:38.118Z</time></trkpt><trkpt lat="43.4628317" lon="10.5180367"><ele>82.0</ele><time>2026-04-25T09:11:39.125Z</time></trkpt><trkpt lat="43.4627583" lon="10.5180317"><ele>81.14285714285714</ele><time>2026-04-25T09:11:40.126Z</time></trkpt><trkpt lat="43.46269" lon="10.518035"><ele>80.28571428571428</ele><time>2026-04-25T09:11:41.12Z</time></trkpt><trkpt lat="43.4626267" lon="10.5180467"><ele>79.42857142857142</ele><time>2026-04-25T09:11:42.122Z</time></trkpt><trkpt lat="43.46256" lon="10.5180667"><ele>78.57142857142857</ele><time>2026-04-25T09:11:43.127Z</time></trkpt><trkpt lat="43.46249" lon="10.5180933"><ele>77.71428571428572</ele><time>2026-04-25T09:11:44.126Z</time></trkpt><trkpt lat="43.46241" lon="10.5181267"><ele>76.85714285714285</ele><time>2026-04-25T09:11:45.123Z</time></trkpt><trkpt lat="43.46233" lon="10.51816"><ele>76.0</ele><time>2026-04-25T09:11:46.117Z</time></trkpt><trkpt lat="43.462245" lon="10.5181933"><ele>76.0</ele><time>2026-04-25T09:11:47.133Z</time></trkpt><trkpt lat="43.4621633" lon="10.5182283"><ele>76.0</ele><time>2026-04-25T09:11:48.126Z</time></trkpt><trkpt lat="43.4620733" lon="10.518265"><ele>76.0</ele><time>2026-04-25T09:11:49.122Z</time></trkpt><trkpt lat="43.4619767" lon="10.5183033"><ele>76.0</ele><time>2026-04-25T09:11:50.129Z</time></trkpt><trkpt lat="43.4618783" lon="10.518345"><ele>76.0</ele><time>2026-04-25T09:11:51.13Z</time></trkpt><trkpt lat="43.4617833" lon="10.5183867"><ele>74.2</ele><time>2026-04-25T09:11:52.135Z</time></trkpt><trkpt lat="43.4616883" lon="10.5184267"><ele>72.39999999999999</ele><time>2026-04-25T09:11:53.135Z</time></trkpt><trkpt lat="43.461595" lon="10.5184683"><ele>70.6</ele><time>2026-04-25T09:11:54.127Z</time></trkpt><trkpt lat="43.461505" lon="10.5185133"><ele>68.8</ele><time>2026-04-25T09:11:55.127Z</time></trkpt><trkpt lat="43.461415" lon="10.51856"><ele>67.0</ele><time>2026-04-25T09:11:56.123Z</time></trkpt><trkpt lat="43.4613317" lon="10.5186083"><ele>65.5</ele><time>2026-04-25T09:11:57.127Z</time></trkpt><trkpt lat="43.461255" lon="10.5186617"><ele>64.0</ele><time>2026-04-25T09:11:58.124Z</time></trkpt><trkpt lat="43.4611817" lon="10.5187233"><ele>62.5</ele><time>2026-04-25T09:11:59.125Z</time></trkpt><trkpt lat="43.4611117" lon="10.5187917"><ele>61.0</ele><time>2026-04-25T09:12:00.12Z</time></trkpt><trkpt lat="43.4610533" lon="10.51886"><ele>59.49999999999999</ele><time>2026-04-25T09:12:01.121Z</time></trkpt><trkpt lat="43.461005" lon="10.5189217"><ele>58.0</ele><time>2026-04-25T09:12:02.12Z</time></trkpt><trkpt lat="43.4609317" lon="10.5190467"><ele>57.666666666666664</ele><time>2026-04-25T09:12:04.131Z</time></trkpt><trkpt lat="43.4608917" lon="10.5191383"><ele>57.33333333333333</ele><time>2026-04-25T09:12:05.124Z</time></trkpt><trkpt lat="43.4608467" lon="10.5192417"><ele>57.0</ele><time>2026-04-25T09:12:06.123Z</time></trkpt><trkpt lat="43.4607983" lon="10.5193533"><ele>56.66666666666667</ele><time>2026-04-25T09:12:07.125Z</time></trkpt><trkpt lat="43.460745" lon="10.5194533"><ele>56.333333333333336</ele><time>2026-04-25T09:12:08.126Z</time></trkpt><trkpt lat="43.46069" lon="10.5195517"><ele>56.0</ele><time>2026-04-25T09:12:09.13Z</time></trkpt><trkpt lat="43.4606267" lon="10.51964"><ele>55.8</ele><time>2026-04-25T09:12:10.123Z</time></trkpt><trkpt lat="43.46055" lon="10.51971"><ele>55.599999999999994</ele><time>2026-04-25T09:12:11.122Z</time></trkpt><trkpt lat="43.46046" lon="10.519765"><ele>55.4</ele><time>2026-04-25T09:12:12.133Z</time></trkpt><trkpt lat="43.4603567" lon="10.5198133"><ele>55.2</ele><time>2026-04-25T09:12:13.125Z</time></trkpt><trkpt lat="43.4602333" lon="10.5198617"><ele>55.0</ele><time>2026-04-25T09:12:14.127Z</time></trkpt><trkpt lat="43.4600967" lon="10.5199167"><ele>55.5</ele><time>2026-04-25T09:12:15.128Z</time></trkpt><trkpt lat="43.459965" lon="10.5199717"><ele>56.0</ele><time>2026-04-25T09:12:16.117Z</time></trkpt><trkpt lat="43.4598467" lon="10.5200233"><ele>56.5</ele><time>2026-04-25T09:12:17.133Z</time></trkpt><trkpt lat="43.4597417" lon="10.5200717"><ele>57.0</ele><time>2026-04-25T09:12:18.121Z</time></trkpt><trkpt lat="43.4596417" lon="10.5201217"><ele>57.75</ele><time>2026-04-25T09:12:19.119Z</time></trkpt><trkpt lat="43.4595367" lon="10.5201733"><ele>58.5</ele><time>2026-04-25T09:12:20.13Z</time></trkpt><trkpt lat="43.459425" lon="10.5202283"><ele>59.25</ele><time>2026-04-25T09:12:21.126Z</time></trkpt><trkpt lat="43.459315" lon="10.5202817"><ele>60.0</ele><time>2026-04-25T09:12:22.124Z</time></trkpt><trkpt lat="43.45921" lon="10.5203317"><ele>60.0</ele><time>2026-04-25T09:12:23.13Z</time></trkpt><trkpt lat="43.4591033" lon="10.5203817"><ele>60.0</ele><time>2026-04-25T09:12:24.132Z</time></trkpt><trkpt lat="43.459" lon="10.5204267"><ele>60.0</ele><time>2026-04-25T09:12:25.132Z</time></trkpt><trkpt lat="43.4589033" lon="10.5204733"><ele>60.0</ele><time>2026-04-25T09:12:26.124Z</time></trkpt><trkpt lat="43.4588067" lon="10.5205267"><ele>60.0</ele><time>2026-04-25T09:12:27.124Z</time></trkpt><trkpt lat="43.4587083" lon="10.5205917"><ele>59.8</ele><time>2026-04-25T09:12:28.115Z</time></trkpt><trkpt lat="43.4586133" lon="10.52066"><ele>59.6</ele><time>2026-04-25T09:12:29.12Z</time></trkpt><trkpt lat="43.45852" lon="10.5207333"><ele>59.400000000000006</ele><time>2026-04-25T09:12:30.123Z</time></trkpt><trkpt lat="43.45843" lon="10.5208067"><ele>59.2</ele><time>2026-04-25T09:12:31.132Z</time></trkpt><trkpt lat="43.458345" lon="10.5208833"><ele>59.0</ele><time>2026-04-25T09:12:32.122Z</time></trkpt><trkpt lat="43.458265" lon="10.5209483"><ele>59.00000000000001</ele><time>2026-04-25T09:12:33.123Z</time></trkpt><trkpt lat="43.4581867" lon="10.5209933"><ele>59.0</ele><time>2026-04-25T09:12:34.12Z</time></trkpt><trkpt lat="43.458105" lon="10.5210133"><ele>59.0</ele><time>2026-04-25T09:12:35.118Z</time></trkpt><trkpt lat="43.45802" lon="10.52101"><ele>59.0</ele><time>2026-04-25T09:12:36.124Z</time></trkpt><trkpt lat="43.45794" lon="10.5209917"><ele>59.00000000000001</ele><time>2026-04-25T09:12:37.131Z</time></trkpt><trkpt lat="43.457875" lon="10.5209517"><ele>59.0</ele><time>2026-04-25T09:12:38.121Z</time></trkpt><trkpt lat="43.45782" lon="10.520895"><ele>59.16666666666667</ele><time>2026-04-25T09:12:39.125Z</time></trkpt><trkpt lat="43.457775" lon="10.52082"><ele>59.333333333333336</ele><time>2026-04-25T09:12:40.126Z</time></trkpt><trkpt lat="43.4577367" lon="10.5207367"><ele>59.5</ele><time>2026-04-25T09:12:41.125Z</time></trkpt><trkpt lat="43.457695" lon="10.5206417"><ele>59.66666666666667</ele><time>2026-04-25T09:12:42.123Z</time></trkpt><trkpt lat="43.4576433" lon="10.52055"><ele>59.833333333333336</ele><time>2026-04-25T09:12:43.127Z</time></trkpt><trkpt lat="43.4575867" lon="10.5204583"><ele>60.0</ele><time>2026-04-25T09:12:44.121Z</time></trkpt><trkpt lat="43.457525" lon="10.5203717"><ele>59.5</ele><time>2026-04-25T09:12:45.123Z</time></trkpt><trkpt lat="43.45746" lon="10.5202967"><ele>59.0</ele><time>2026-04-25T09:12:46.123Z</time></trkpt><trkpt lat="43.4573933" lon="10.5202267"><ele>58.5</ele><time>2026-04-25T09:12:47.115Z</time></trkpt><trkpt lat="43.4573217" lon="10.5201633"><ele>58.0</ele><time>2026-04-25T09:12:48.129Z</time></trkpt><trkpt lat="43.45725" lon="10.5201117"><ele>57.5</ele><time>2026-04-25T09:12:49.124Z</time></trkpt><trkpt lat="43.4571767" lon="10.5200833"><ele>57.0</ele><time>2026-04-25T09:12:50.124Z</time></trkpt><trkpt lat="43.4571033" lon="10.5200767"><ele>56.8</ele><time>2026-04-25T09:12:51.123Z</time></trkpt><trkpt lat="43.4570167" lon="10.5200917"><ele>56.6</ele><time>2026-04-25T09:12:52.13Z</time></trkpt><trkpt lat="43.4569167" lon="10.520115"><ele>56.39999999999999</ele><time>2026-04-25T09:12:53.127Z</time></trkpt><trkpt lat="43.4568033" lon="10.52014"><ele>56.199999999999996</ele><time>2026-04-25T09:12:54.125Z</time></trkpt><trkpt lat="43.4566867" lon="10.5201617"><ele>56.0</ele><time>2026-04-25T09:12:55.124Z</time></trkpt><trkpt lat="43.456575" lon="10.5201783"><ele>56.00000000000001</ele><time>2026-04-25T09:12:56.125Z</time></trkpt><trkpt lat="43.4564767" lon="10.5201967"><ele>56.0</ele><time>2026-04-25T09:12:57.13Z</time></trkpt><trkpt lat="43.4563867" lon="10.520225"><ele>56.0</ele><time>2026-04-25T09:12:58.131Z</time></trkpt><trkpt lat="43.4562983" lon="10.520265"><ele>56.0</ele><time>2026-04-25T09:12:59.118Z</time></trkpt><trkpt lat="43.4562183" lon="10.5203033"><ele>56.00000000000001</ele><time>2026-04-25T09:13:00.131Z</time></trkpt><trkpt lat="43.45615" lon="10.5203433"><ele>56.0</ele><time>2026-04-25T09:13:01.126Z</time></trkpt><trkpt lat="43.4560883" lon="10.520385"><ele>56.285714285714285</ele><time>2026-04-25T09:13:02.119Z</time></trkpt><trkpt lat="43.456035" lon="10.5204367"><ele>56.57142857142857</ele><time>2026-04-25T09:13:03.129Z</time></trkpt><trkpt lat="43.4559933" lon="10.5205117"><ele>56.85714285714286</ele><time>2026-04-25T09:13:04.124Z</time></trkpt><trkpt lat="43.45595" lon="10.5206067"><ele>57.142857142857146</ele><time>2026-04-25T09:13:05.122Z</time></trkpt><trkpt lat="43.4559033" lon="10.5206933"><ele>57.42857142857143</ele><time>2026-04-25T09:13:06.129Z</time></trkpt><trkpt lat="43.4558467" lon="10.5207567"><ele>57.71428571428572</ele><time>2026-04-25T09:13:07.131Z</time></trkpt><trkpt lat="43.4557767" lon="10.5208"><ele>58.00000000000001</ele><time>2026-04-25T09:13:08.13Z</time></trkpt><trkpt lat="43.4556967" lon="10.5208283"><ele>58.0</ele><time>2026-04-25T09:13:09.122Z</time></trkpt><trkpt lat="43.4556033" lon="10.5208367"><ele>58.0</ele><time>2026-04-25T09:13:10.131Z</time></trkpt><trkpt lat="43.455505" lon="10.52083"><ele>58.0</ele><time>2026-04-25T09:13:11.134Z</time></trkpt><trkpt lat="43.455405" lon="10.520825"><ele>58.0</ele><time>2026-04-25T09:13:12.131Z</time></trkpt><trkpt lat="43.4553083" lon="10.52082"><ele>58.0</ele><time>2026-04-25T09:13:13.123Z</time></trkpt><trkpt lat="43.4552133" lon="10.5208083"><ele>58.599999999999994</ele><time>2026-04-25T09:13:14.124Z</time></trkpt><trkpt lat="43.4551133" lon="10.5207967"><ele>59.199999999999996</ele><time>2026-04-25T09:13:15.129Z</time></trkpt><trkpt lat="43.4550067" lon="10.5207917"><ele>59.8</ele><time>2026-04-25T09:13:16.127Z</time></trkpt><trkpt lat="43.4548983" lon="10.52079"><ele>60.4</ele><time>2026-04-25T09:13:17.13Z</time></trkpt><trkpt lat="43.45479" lon="10.52079"><ele>61.0</ele><time>2026-04-25T09:13:18.132Z</time></trkpt><trkpt lat="43.4546767" lon="10.5207933"><ele>61.199999999999996</ele><time>2026-04-25T09:13:19.132Z</time></trkpt><trkpt lat="43.45457" lon="10.5208"><ele>61.39999999999999</ele><time>2026-04-25T09:13:20.138Z</time></trkpt><trkpt lat="43.4544767" lon="10.520815"><ele>61.6</ele><time>2026-04-25T09:13:21.127Z</time></trkpt><trkpt lat="43.4543933" lon="10.520845"><ele>61.8</ele><time>2026-04-25T09:13:22.119Z</time></trkpt><trkpt lat="43.454305" lon="10.5208883"><ele>62.0</ele><time>2026-04-25T09:13:23.122Z</time></trkpt><trkpt lat="43.4542133" lon="10.520935"><ele>62.0</ele><time>2026-04-25T09:13:24.123Z</time></trkpt><trkpt lat="43.4541233" lon="10.5209867"><ele>62.0</ele><time>2026-04-25T09:13:25.132Z</time></trkpt><trkpt lat="43.4540417" lon="10.5210483"><ele>62.0</ele><time>2026-04-25T09:13:26.122Z</time></trkpt><trkpt lat="43.4539633" lon="10.52112"><ele>62.0</ele><time>2026-04-25T09:13:27.125Z</time></trkpt><trkpt lat="43.453885" lon="10.5212033"><ele>62.0</ele><time>2026-04-25T09:13:28.124Z</time></trkpt><trkpt lat="43.453805" lon="10.5212967"><ele>63.2</ele><time>2026-04-25T09:13:29.128Z</time></trkpt><trkpt lat="43.4537267" lon="10.521395"><ele>64.4</ele><time>2026-04-25T09:13:30.123Z</time></trkpt><trkpt lat="43.453655" lon="10.521485"><ele>65.6</ele><time>2026-04-25T09:13:31.127Z</time></trkpt><trkpt lat="43.4535883" lon="10.5215667"><ele>66.8</ele><time>2026-04-25T09:13:32.12Z</time></trkpt><trkpt lat="43.4535283" lon="10.5216483"><ele>68.0</ele><time>2026-04-25T09:13:33.127Z</time></trkpt><trkpt lat="43.45348" lon="10.5217367"><ele>68.0</ele><time>2026-04-25T09:13:34.123Z</time></trkpt><trkpt lat="43.453445" lon="10.5218217"><ele>68.0</ele><time>2026-04-25T09:13:35.13Z</time></trkpt><trkpt lat="43.4534017" lon="10.52195"><ele>68.0</ele><time>2026-04-25T09:13:37.124Z</time></trkpt><trkpt lat="43.4533533" lon="10.5220083"><ele>68.0</ele><time>2026-04-25T09:13:39.119Z</time></trkpt><trkpt lat="43.4532867" lon="10.522015"><ele>68.0</ele><time>2026-04-25T09:13:41.124Z</time></trkpt><trkpt lat="43.4532" lon="10.5219733"><ele>68.0</ele><time>2026-04-25T09:13:43.125Z</time></trkpt><trkpt lat="43.4531433" lon="10.52193"><ele>68.0</ele><time>2026-04-25T09:13:44.129Z</time></trkpt><trkpt lat="43.4530783" lon="10.5218717"><ele>68.0</ele><time>2026-04-25T09:13:45.133Z</time></trkpt><trkpt lat="43.45301" lon="10.5217983"><ele>68.0</ele><time>2026-04-25T09:13:46.135Z</time></trkpt><trkpt lat="43.4529383" lon="10.521715"><ele>68.0</ele><time>2026-04-25T09:13:47.125Z</time></trkpt><trkpt lat="43.4528783" lon="10.521625"><ele>68.0</ele><time>2026-04-25T09:13:48.132Z</time></trkpt><trkpt lat="43.4528283" lon="10.5215333"><ele>68.0</ele><time>2026-04-25T09:13:49.124Z</time></trkpt><trkpt lat="43.4527883" lon="10.5214367"><ele>67.66666666666667</ele><time>2026-04-25T09:13:50.115Z</time></trkpt><trkpt lat="43.45276" lon="10.5213383"><ele>67.33333333333334</ele><time>2026-04-25T09:13:51.116Z</time></trkpt><trkpt lat="43.4527417" lon="10.5212417"><ele>67.0</ele><time>2026-04-25T09:13:52.117Z</time></trkpt><trkpt lat="43.4527267" lon="10.521135"><ele>66.66666666666667</ele><time>2026-04-25T09:13:53.134Z</time></trkpt><trkpt lat="43.4527133" lon="10.5210183"><ele>66.33333333333333</ele><time>2026-04-25T09:13:54.127Z</time></trkpt><trkpt lat="43.4526967" lon="10.520895"><ele>66.0</ele><time>2026-04-25T09:13:55.131Z</time></trkpt><trkpt lat="43.4526817" lon="10.5207633"><ele>65.39999999999999</ele><time>2026-04-25T09:13:56.124Z</time></trkpt><trkpt lat="43.452665" lon="10.5206233"><ele>64.8</ele><time>2026-04-25T09:13:57.125Z</time></trkpt><trkpt lat="43.4526483" lon="10.5204833"><ele>64.19999999999999</ele><time>2026-04-25T09:13:58.133Z</time></trkpt><trkpt lat="43.4526317" lon="10.5203483"><ele>63.599999999999994</ele><time>2026-04-25T09:13:59.13Z</time></trkpt><trkpt lat="43.4526167" lon="10.5202167"><ele>63.0</ele><time>2026-04-25T09:14:00.133Z</time></trkpt><trkpt lat="43.452605" lon="10.520095"><ele>62.285714285714285</ele><time>2026-04-25T09:14:01.137Z</time></trkpt><trkpt lat="43.4525933" lon="10.51999"><ele>61.57142857142857</ele><time>2026-04-25T09:14:02.13Z</time></trkpt><trkpt lat="43.4525833" lon="10.5198883"><ele>60.85714285714286</ele><time>2026-04-25T09:14:03.133Z</time></trkpt><trkpt lat="43.4525733" lon="10.5197967"><ele>60.142857142857146</ele><time>2026-04-25T09:14:04.128Z</time></trkpt><trkpt lat="43.452565" lon="10.5196933"><ele>59.42857142857143</ele><time>2026-04-25T09:14:06.118Z</time></trkpt><trkpt lat="43.4525633" lon="10.5198117"><ele>58.71428571428572</ele><time>2026-04-25T09:14:14.133Z</time></trkpt><trkpt lat="43.45258" lon="10.5199017"><ele>58.00000000000001</ele><time>2026-04-25T09:14:15.125Z</time></trkpt><trkpt lat="43.4525917" lon="10.52001"><ele>57.99999999999999</ele><time>2026-04-25T09:14:16.119Z</time></trkpt><trkpt lat="43.4526017" lon="10.5201283"><ele>58.0</ele><time>2026-04-25T09:14:17.128Z</time></trkpt><trkpt lat="43.4526133" lon="10.52025"><ele>58.0</ele><time>2026-04-25T09:14:18.132Z</time></trkpt><trkpt lat="43.452625" lon="10.5203667"><ele>58.0</ele><time>2026-04-25T09:14:19.132Z</time></trkpt><trkpt lat="43.4526333" lon="10.5204733"><ele>57.99999999999999</ele><time>2026-04-25T09:14:20.119Z</time></trkpt><trkpt lat="43.4526433" lon="10.5205767"><ele>58.0</ele><time>2026-04-25T09:14:21.12Z</time></trkpt><trkpt lat="43.4526533" lon="10.5206733"><ele>58.71428571428572</ele><time>2026-04-25T09:14:22.116Z</time></trkpt><trkpt lat="43.452665" lon="10.52077"><ele>59.42857142857143</ele><time>2026-04-25T09:14:23.119Z</time></trkpt><trkpt lat="43.4526783" lon="10.520865"><ele>60.142857142857146</ele><time>2026-04-25T09:14:24.132Z</time></trkpt><trkpt lat="43.4526883" lon="10.5209617"><ele>60.85714285714286</ele><time>2026-04-25T09:14:25.13Z</time></trkpt><trkpt lat="43.4526983" lon="10.52106"><ele>61.57142857142857</ele><time>2026-04-25T09:14:26.136Z</time></trkpt><trkpt lat="43.4527117" lon="10.5211617"><ele>62.285714285714285</ele><time>2026-04-25T09:14:27.122Z</time></trkpt><trkpt lat="43.45273" lon="10.5212683"><ele>63.0</ele><time>2026-04-25T09:14:28.123Z</time></trkpt><trkpt lat="43.452755" lon="10.5213733"><ele>63.5</ele><time>2026-04-25T09:14:29.126Z</time></trkpt><trkpt lat="43.4527917" lon="10.5214733"><ele>64.0</ele><time>2026-04-25T09:14:30.124Z</time></trkpt><trkpt lat="43.452835" lon="10.5215683"><ele>64.5</ele><time>2026-04-25T09:14:31.131Z</time></trkpt><trkpt lat="43.4528867" lon="10.5216567"><ele>65.0</ele><time>2026-04-25T09:14:32.129Z</time></trkpt><trkpt lat="43.4529383" lon="10.5217233"><ele>65.5</ele><time>2026-04-25T09:14:33.126Z</time></trkpt><trkpt lat="43.4529967" lon="10.5218133"><ele>66.0</ele><time>2026-04-25T09:14:35.115Z</time></trkpt><trkpt lat="43.452915" lon="10.5218383"><ele>66.0</ele><time>2026-04-25T09:14:39.133Z</time></trkpt><trkpt lat="43.4528583" lon="10.5217933"><ele>66.0</ele><time>2026-04-25T09:14:40.122Z</time></trkpt><trkpt lat="43.4527883" lon="10.5217333"><ele>66.0</ele><time>2026-04-25T09:14:41.13Z</time></trkpt><trkpt lat="43.45272" lon="10.5216817"><ele>66.0</ele><time>2026-04-25T09:14:42.121Z</time></trkpt><trkpt lat="43.4526583" lon="10.5216483"><ele>66.0</ele><time>2026-04-25T09:14:43.123Z</time></trkpt><trkpt lat="43.4525933" lon="10.521625"><ele>66.0</ele><time>2026-04-25T09:14:44.12Z</time></trkpt><trkpt lat="43.4525267" lon="10.5216167"><ele>66.0</ele><time>2026-04-25T09:14:45.12Z</time></trkpt><trkpt lat="43.45246" lon="10.5216133"><ele>66.0</ele><time>2026-04-25T09:14:46.12Z</time></trkpt><trkpt lat="43.452395" lon="10.5216117"><ele>66.0</ele><time>2026-04-25T09:14:47.123Z</time></trkpt><trkpt lat="43.4523317" lon="10.5216133"><ele>66.0</ele><time>2026-04-25T09:14:48.125Z</time></trkpt><trkpt lat="43.4522183" lon="10.52162"><ele>66.0</ele><time>2026-04-25T09:14:50.123Z</time></trkpt><trkpt lat="43.4521217" lon="10.5216333"><ele>66.0</ele><time>2026-04-25T09:14:52.126Z</time></trkpt><trkpt lat="43.4520517" lon="10.5216533"><ele>66.0</ele><time>2026-04-25T09:14:54.128Z</time></trkpt><trkpt lat="43.451965" lon="10.5217233"><ele>65.16666666666667</ele><time>2026-04-25T09:14:56.122Z</time></trkpt><trkpt lat="43.451875" lon="10.5218433"><ele>64.33333333333333</ele><time>2026-04-25T09:14:58.131Z</time></trkpt><trkpt lat="43.4518233" lon="10.5219133"><ele>63.5</ele><time>2026-04-25T09:14:59.13Z</time></trkpt><trkpt lat="43.45177" lon="10.5219833"><ele>62.666666666666664</ele><time>2026-04-25T09:15:00.124Z</time></trkpt><trkpt lat="43.451715" lon="10.522055"><ele>61.83333333333333</ele><time>2026-04-25T09:15:01.124Z</time></trkpt><trkpt lat="43.4516617" lon="10.5221267"><ele>61.0</ele><time>2026-04-25T09:15:02.121Z</time></trkpt><trkpt lat="43.45161" lon="10.5222033"><ele>60.71428571428571</ele><time>2026-04-25T09:15:03.122Z</time></trkpt><trkpt lat="43.4515633" lon="10.52228"><ele>60.42857142857143</ele><time>2026-04-25T09:15:04.125Z</time></trkpt><trkpt lat="43.4515217" lon="10.5223567"><ele>60.14285714285714</ele><time>2026-04-25T09:15:05.125Z</time></trkpt><trkpt lat="43.4514767" lon="10.5224333"><ele>59.857142857142854</ele><time>2026-04-25T09:15:06.132Z</time></trkpt><trkpt lat="43.4514283" lon="10.5225033"><ele>59.57142857142857</ele><time>2026-04-25T09:15:07.128Z</time></trkpt><trkpt lat="43.4513767" lon="10.5225683"><ele>59.285714285714285</ele><time>2026-04-25T09:15:08.125Z</time></trkpt><trkpt lat="43.4513167" lon="10.522625"><ele>59.0</ele><time>2026-04-25T09:15:09.123Z</time></trkpt><trkpt lat="43.451255" lon="10.5226683"><ele>58.57142857142857</ele><time>2026-04-25T09:15:10.121Z</time></trkpt><trkpt lat="43.4511917" lon="10.5227"><ele>58.142857142857146</ele><time>2026-04-25T09:15:11.133Z</time></trkpt><trkpt lat="43.4511267" lon="10.522725"><ele>57.714285714285715</ele><time>2026-04-25T09:15:12.122Z</time></trkpt><trkpt lat="43.4510567" lon="10.5227417"><ele>57.285714285714285</ele><time>2026-04-25T09:15:13.136Z</time></trkpt><trkpt lat="43.4509817" lon="10.52275"><ele>56.85714285714286</ele><time>2026-04-25T09:15:14.125Z</time></trkpt><trkpt lat="43.450905" lon="10.5227583"><ele>56.42857142857143</ele><time>2026-04-25T09:15:15.125Z</time></trkpt><trkpt lat="43.4508283" lon="10.522775"><ele>56.0</ele><time>2026-04-25T09:15:16.126Z</time></trkpt><trkpt lat="43.4507517" lon="10.5227967"><ele>56.00000000000001</ele><time>2026-04-25T09:15:17.12Z</time></trkpt><trkpt lat="43.450675" lon="10.5228333"><ele>56.0</ele><time>2026-04-25T09:15:18.121Z</time></trkpt><trkpt lat="43.4506" lon="10.52287"><ele>56.0</ele><time>2026-04-25T09:15:19.141Z</time></trkpt><trkpt lat="43.4505267" lon="10.522915"><ele>56.0</ele><time>2026-04-25T09:15:20.134Z</time></trkpt><trkpt lat="43.4504483" lon="10.5229517"><ele>56.00000000000001</ele><time>2026-04-25T09:15:21.116Z</time></trkpt><trkpt lat="43.45036" lon="10.5229983"><ele>56.0</ele><time>2026-04-25T09:15:22.127Z</time></trkpt><trkpt lat="43.450275" lon="10.523035"><ele>56.00000000000001</ele><time>2026-04-25T09:15:23.114Z</time></trkpt><trkpt lat="43.4501933" lon="10.5230683"><ele>56.0</ele><time>2026-04-25T09:15:24.126Z</time></trkpt><trkpt lat="43.45012" lon="10.5230967"><ele>56.0</ele><time>2026-04-25T09:15:25.133Z</time></trkpt><trkpt lat="43.450055" lon="10.5231233"><ele>56.0</ele><time>2026-04-25T09:15:26.129Z</time></trkpt><trkpt lat="43.4499467" lon="10.5231367"><ele>56.00000000000001</ele><time>2026-04-25T09:15:28.119Z</time></trkpt><trkpt lat="43.449845" lon="10.5230783"><ele>56.0</ele><time>2026-04-25T09:15:30.121Z</time></trkpt><trkpt lat="43.4497917" lon="10.5229333"><ele>55.857142857142854</ele><time>2026-04-25T09:15:32.118Z</time></trkpt><trkpt lat="43.4497867" lon="10.522845"><ele>55.714285714285715</ele><time>2026-04-25T09:15:33.122Z</time></trkpt><trkpt lat="43.449785" lon="10.5227533"><ele>55.57142857142857</ele><time>2026-04-25T09:15:34.133Z</time></trkpt><trkpt lat="43.44978" lon="10.5226633"><ele>55.42857142857143</ele><time>2026-04-25T09:15:35.129Z</time></trkpt><trkpt lat="43.4497683" lon="10.5225733"><ele>55.285714285714285</ele><time>2026-04-25T09:15:36.123Z</time></trkpt><trkpt lat="43.4497517" lon="10.5224817"><ele>55.14285714285714</ele><time>2026-04-25T09:15:37.127Z</time></trkpt><trkpt lat="43.4497317" lon="10.5223883"><ele>55.0</ele><time>2026-04-25T09:15:38.121Z</time></trkpt><trkpt lat="43.4497067" lon="10.5222933"><ele>54.99999999999999</ele><time>2026-04-25T09:15:39.125Z</time></trkpt><trkpt lat="43.4496717" lon="10.52221"><ele>55.0</ele><time>2026-04-25T09:15:40.121Z</time></trkpt><trkpt lat="43.4496333" lon="10.5221283"><ele>55.0</ele><time>2026-04-25T09:15:41.135Z</time></trkpt><trkpt lat="43.4495883" lon="10.52205"><ele>55.0</ele><time>2026-04-25T09:15:42.135Z</time></trkpt><trkpt lat="43.4495367" lon="10.521975"><ele>54.99999999999999</ele><time>2026-04-25T09:15:43.13Z</time></trkpt><trkpt lat="43.4494767" lon="10.5218967"><ele>55.0</ele><time>2026-04-25T09:15:44.157Z</time></trkpt><trkpt lat="43.4494133" lon="10.5218233"><ele>54.83333333333333</ele><time>2026-04-25T09:15:45.117Z</time></trkpt><trkpt lat="43.4493517" lon="10.52175"><ele>54.666666666666664</ele><time>2026-04-25T09:15:46.123Z</time></trkpt><trkpt lat="43.449285" lon="10.5216717"><ele>54.5</ele><time>2026-04-25T09:15:47.13Z</time></trkpt><trkpt lat="43.4492183" lon="10.5215867"><ele>54.33333333333333</ele><time>2026-04-25T09:15:48.121Z</time></trkpt><trkpt lat="43.4491533" lon="10.5215083"><ele>54.166666666666664</ele><time>2026-04-25T09:15:49.124Z</time></trkpt><trkpt lat="43.4490917" lon="10.5214283"><ele>54.0</ele><time>2026-04-25T09:15:50.117Z</time></trkpt><trkpt lat="43.4490317" lon="10.5213517"><ele>54.0</ele><time>2026-04-25T09:15:51.129Z</time></trkpt><trkpt lat="43.44897" lon="10.521275"><ele>54.0</ele><time>2026-04-25T09:15:52.126Z</time></trkpt><trkpt lat="43.44891" lon="10.521205"><ele>54.0</ele><time>2026-04-25T09:15:53.135Z</time></trkpt><trkpt lat="43.448845" lon="10.521145"><ele>54.0</ele><time>2026-04-25T09:15:54.127Z</time></trkpt><trkpt lat="43.448775" lon="10.5210967"><ele>54.0</ele><time>2026-04-25T09:15:55.141Z</time></trkpt><trkpt lat="43.4487017" lon="10.5210667"><ele>54.0</ele><time>2026-04-25T09:15:56.127Z</time></trkpt><trkpt lat="43.4486283" lon="10.521055"><ele>55.0</ele><time>2026-04-25T09:15:57.131Z</time></trkpt><trkpt lat="43.4485517" lon="10.5210683"><ele>56.0</ele><time>2026-04-25T09:15:58.132Z</time></trkpt><trkpt lat="43.4484817" lon="10.5210933"><ele>57.0</ele><time>2026-04-25T09:15:59.14Z</time></trkpt><trkpt lat="43.44841" lon="10.52112"><ele>58.0</ele><time>2026-04-25T09:16:00.121Z</time></trkpt><trkpt lat="43.4483417" lon="10.5211467"><ele>59.0</ele><time>2026-04-25T09:16:01.125Z</time></trkpt><trkpt lat="43.4482767" lon="10.521165"><ele>60.0</ele><time>2026-04-25T09:16:02.122Z</time></trkpt><trkpt lat="43.448175" lon="10.521175"><ele>60.0</ele><time>2026-04-25T09:16:04.127Z</time></trkpt><trkpt lat="43.448125" lon="10.5210867"><ele>60.0</ele><time>2026-04-25T09:16:06.125Z</time></trkpt><trkpt lat="43.4481" lon="10.5209233"><ele>60.0</ele><time>2026-04-25T09:16:08.121Z</time></trkpt><trkpt lat="43.44807" lon="10.520775"><ele>60.0</ele><time>2026-04-25T09:16:10.122Z</time></trkpt><trkpt lat="43.448025" lon="10.52063"><ele>60.0</ele><time>2026-04-25T09:16:12.129Z</time></trkpt><trkpt lat="43.4479633" lon="10.5204833"><ele>60.0</ele><time>2026-04-25T09:16:14.129Z</time></trkpt><trkpt lat="43.4479283" lon="10.5204033"><ele>60.0</ele><time>2026-04-25T09:16:15.123Z</time></trkpt><trkpt lat="43.44789" lon="10.5203283"><ele>60.0</ele><time>2026-04-25T09:16:16.126Z</time></trkpt><trkpt lat="43.447845" lon="10.5202567"><ele>60.0</ele><time>2026-04-25T09:16:17.12Z</time></trkpt><trkpt lat="43.447795" lon="10.5201933"><ele>60.0</ele><time>2026-04-25T09:16:18.121Z</time></trkpt><trkpt lat="43.44774" lon="10.52014"><ele>60.0</ele><time>2026-04-25T09:16:19.123Z</time></trkpt><trkpt lat="43.4476683" lon="10.5201067"><ele>60.0</ele><time>2026-04-25T09:16:20.12Z</time></trkpt><trkpt lat="43.44759" lon="10.520095"><ele>60.0</ele><time>2026-04-25T09:16:21.124Z</time></trkpt><trkpt lat="43.4475" lon="10.5201067"><ele>60.0</ele><time>2026-04-25T09:16:22.113Z</time></trkpt><trkpt lat="43.4473917" lon="10.5201467"><ele>60.0</ele><time>2026-04-25T09:16:23.123Z</time></trkpt><trkpt lat="43.4472667" lon="10.5201983"><ele>60.0</ele><time>2026-04-25T09:16:24.129Z</time></trkpt><trkpt lat="43.4471367" lon="10.5202533"><ele>59.75</ele><time>2026-04-25T09:16:25.128Z</time></trkpt><trkpt lat="43.4470133" lon="10.520305"><ele>59.5</ele><time>2026-04-25T09:16:26.121Z</time></trkpt><trkpt lat="43.44689" lon="10.5203517"><ele>59.25</ele><time>2026-04-25T09:16:27.125Z</time></trkpt><trkpt lat="43.44677" lon="10.520395"><ele>59.0</ele><time>2026-04-25T09:16:28.125Z</time></trkpt><trkpt lat="43.4466533" lon="10.5204383"><ele>59.5</ele><time>2026-04-25T09:16:29.127Z</time></trkpt><trkpt lat="43.44654" lon="10.52048"><ele>60.0</ele><time>2026-04-25T09:16:30.133Z</time></trkpt><trkpt lat="43.4464333" lon="10.52052"><ele>60.5</ele><time>2026-04-25T09:16:31.13Z</time></trkpt><trkpt lat="43.4463233" lon="10.52056"><ele>61.0</ele><time>2026-04-25T09:16:32.133Z</time></trkpt><trkpt lat="43.4462167" lon="10.5205983"><ele>61.0</ele><time>2026-04-25T09:16:33.126Z</time></trkpt><trkpt lat="43.4461133" lon="10.5206333"><ele>60.99999999999999</ele><time>2026-04-25T09:16:34.132Z</time></trkpt><trkpt lat="43.4460167" lon="10.5206683"><ele>60.99999999999999</ele><time>2026-04-25T09:16:35.125Z</time></trkpt><trkpt lat="43.4459233" lon="10.5207017"><ele>61.0</ele><time>2026-04-25T09:16:36.129Z</time></trkpt><trkpt lat="43.44583" lon="10.5207317"><ele>61.0</ele><time>2026-04-25T09:16:37.125Z</time></trkpt><trkpt lat="43.4457317" lon="10.5207567"><ele>61.0</ele><time>2026-04-25T09:16:38.127Z</time></trkpt><trkpt lat="43.4456333" lon="10.5207683"><ele>60.99999999999999</ele><time>2026-04-25T09:16:39.133Z</time></trkpt><trkpt lat="43.4455283" lon="10.5207767"><ele>60.99999999999999</ele><time>2026-04-25T09:16:40.127Z</time></trkpt><trkpt lat="43.4454217" lon="10.52078"><ele>61.0</ele><time>2026-04-25T09:16:41.125Z</time></trkpt><trkpt lat="43.4453117" lon="10.5207867"><ele>61.0</ele><time>2026-04-25T09:16:42.131Z</time></trkpt><trkpt lat="43.4452017" lon="10.5207933"><ele>61.4</ele><time>2026-04-25T09:16:43.132Z</time></trkpt><trkpt lat="43.4450917" lon="10.520805"><ele>61.8</ele><time>2026-04-25T09:16:44.131Z</time></trkpt><trkpt lat="43.4449867" lon="10.5208233"><ele>62.199999999999996</ele><time>2026-04-25T09:16:45.134Z</time></trkpt><trkpt lat="43.4448833" lon="10.5208517"><ele>62.599999999999994</ele><time>2026-04-25T09:16:46.13Z</time></trkpt><trkpt lat="43.4447867" lon="10.5208833"><ele>63.0</ele><time>2026-04-25T09:16:47.126Z</time></trkpt><trkpt lat="43.4447017" lon="10.5209167"><ele>63.0</ele><time>2026-04-25T09:16:48.125Z</time></trkpt><trkpt lat="43.44463" lon="10.520955"><ele>63.0</ele><time>2026-04-25T09:16:49.124Z</time></trkpt><trkpt lat="43.4445717" lon="10.521005"><ele>63.0</ele><time>2026-04-25T09:16:50.129Z</time></trkpt><trkpt lat="43.4445" lon="10.5211317"><ele>63.0</ele><time>2026-04-25T09:16:52.122Z</time></trkpt><trkpt lat="43.44448" lon="10.521325"><ele>63.0</ele><time>2026-04-25T09:16:54.119Z</time></trkpt><trkpt lat="43.4444783" lon="10.5214417"><ele>62.666666666666664</ele><time>2026-04-25T09:16:55.123Z</time></trkpt><trkpt lat="43.44448" lon="10.5215667"><ele>62.33333333333333</ele><time>2026-04-25T09:16:56.119Z</time></trkpt><trkpt lat="43.4444833" lon="10.5216883"><ele>62.0</ele><time>2026-04-25T09:16:57.12Z</time></trkpt><trkpt lat="43.444485" lon="10.5218017"><ele>61.666666666666664</ele><time>2026-04-25T09:16:58.123Z</time></trkpt><trkpt lat="43.4444867" lon="10.52192"><ele>61.33333333333333</ele><time>2026-04-25T09:16:59.13Z</time></trkpt><trkpt lat="43.4444867" lon="10.5220383"><ele>61.0</ele><time>2026-04-25T09:17:00.127Z</time></trkpt><trkpt lat="43.44448" lon="10.522165"><ele>60.99999999999999</ele><time>2026-04-25T09:17:01.133Z</time></trkpt><trkpt lat="43.4444683" lon="10.5222867"><ele>61.0</ele><time>2026-04-25T09:17:02.132Z</time></trkpt><trkpt lat="43.4444567" lon="10.5224017"><ele>61.0</ele><time>2026-04-25T09:17:03.126Z</time></trkpt><trkpt lat="43.4444467" lon="10.52251"><ele>61.0</ele><time>2026-04-25T09:17:04.133Z</time></trkpt><trkpt lat="43.4444317" lon="10.5226183"><ele>60.99999999999999</ele><time>2026-04-25T09:17:05.125Z</time></trkpt><trkpt lat="43.44442" lon="10.5227267"><ele>61.0</ele><time>2026-04-25T09:17:06.125Z</time></trkpt><trkpt lat="43.4444067" lon="10.5228367"><ele>60.57142857142856</ele><time>2026-04-25T09:17:07.145Z</time></trkpt><trkpt lat="43.4443967" lon="10.5229417"><ele>60.14285714285714</ele><time>2026-04-25T09:17:08.121Z</time></trkpt><trkpt lat="43.44439" lon="10.5230433"><ele>59.714285714285715</ele><time>2026-04-25T09:17:09.127Z</time></trkpt><trkpt lat="43.444385" lon="10.5231417"><ele>59.285714285714285</ele><time>2026-04-25T09:17:10.123Z</time></trkpt><trkpt lat="43.44438" lon="10.523245"><ele>58.85714285714286</ele><time>2026-04-25T09:17:11.136Z</time></trkpt><trkpt lat="43.4443783" lon="10.5233483"><ele>58.42857142857144</ele><time>2026-04-25T09:17:12.127Z</time></trkpt><trkpt lat="43.444375" lon="10.5234483"><ele>58.00000000000001</ele><time>2026-04-25T09:17:13.139Z</time></trkpt><trkpt lat="43.4443717" lon="10.523545"><ele>58.00000000000001</ele><time>2026-04-25T09:17:14.124Z</time></trkpt><trkpt lat="43.44437" lon="10.5236417"><ele>58.0</ele><time>2026-04-25T09:17:15.132Z</time></trkpt><trkpt lat="43.4443733" lon="10.52374"><ele>58.00000000000001</ele><time>2026-04-25T09:17:16.132Z</time></trkpt><trkpt lat="43.4443817" lon="10.523835"><ele>58.00000000000001</ele><time>2026-04-25T09:17:17.13Z</time></trkpt><trkpt lat="43.444395" lon="10.5239333"><ele>58.0</ele><time>2026-04-25T09:17:18.125Z</time></trkpt><trkpt lat="43.4444133" lon="10.5240283"><ele>58.00000000000001</ele><time>2026-04-25T09:17:19.128Z</time></trkpt><trkpt lat="43.4444367" lon="10.524115"><ele>58.00000000000001</ele><time>2026-04-25T09:17:20.129Z</time></trkpt><trkpt lat="43.4444617" lon="10.524195"><ele>57.8</ele><time>2026-04-25T09:17:21.124Z</time></trkpt><trkpt lat="43.4444867" lon="10.5243533"><ele>57.599999999999994</ele><time>2026-04-25T09:17:23.128Z</time></trkpt><trkpt lat="43.44444" lon="10.52451"><ele>57.400000000000006</ele><time>2026-04-25T09:17:25.133Z</time></trkpt><trkpt lat="43.4443833" lon="10.52458"><ele>57.2</ele><time>2026-04-25T09:17:26.143Z</time></trkpt><trkpt lat="43.4443067" lon="10.5246433"><ele>57.0</ele><time>2026-04-25T09:17:27.135Z</time></trkpt><trkpt lat="43.4442033" lon="10.5247033"><ele>57.0</ele><time>2026-04-25T09:17:28.127Z</time></trkpt><trkpt lat="43.4440983" lon="10.5247633"><ele>57.0</ele><time>2026-04-25T09:17:29.132Z</time></trkpt><trkpt lat="43.4440067" lon="10.5248267"><ele>57.0</ele><time>2026-04-25T09:17:30.123Z</time></trkpt><trkpt lat="43.4439317" lon="10.5248883"><ele>57.0</ele><time>2026-04-25T09:17:31.134Z</time></trkpt><trkpt lat="43.4438617" lon="10.52495"><ele>57.0</ele><time>2026-04-25T09:17:32.128Z</time></trkpt><trkpt lat="43.443785" lon="10.52502"><ele>57.0</ele><time>2026-04-25T09:17:33.12Z</time></trkpt><trkpt lat="43.443705" lon="10.5250983"><ele>57.0</ele><time>2026-04-25T09:17:34.13Z</time></trkpt><trkpt lat="43.4436083" lon="10.525185"><ele>57.0</ele><time>2026-04-25T09:17:35.124Z</time></trkpt><trkpt lat="43.4435017" lon="10.5252733"><ele>57.0</ele><time>2026-04-25T09:17:36.132Z</time></trkpt><trkpt lat="43.4433867" lon="10.52537"><ele>58.8</ele><time>2026-04-25T09:17:37.134Z</time></trkpt><trkpt lat="43.4432783" lon="10.5254567"><ele>60.6</ele><time>2026-04-25T09:17:38.121Z</time></trkpt><trkpt lat="43.44318" lon="10.52554"><ele>62.39999999999999</ele><time>2026-04-25T09:17:39.131Z</time></trkpt><trkpt lat="43.44309" lon="10.5256183"><ele>64.2</ele><time>2026-04-25T09:17:40.124Z</time></trkpt><trkpt lat="43.443005" lon="10.52569"><ele>66.0</ele><time>2026-04-25T09:17:41.128Z</time></trkpt><trkpt lat="43.4429267" lon="10.525755"><ele>67.33333333333333</ele><time>2026-04-25T09:17:42.119Z</time></trkpt><trkpt lat="43.4428467" lon="10.5258183"><ele>68.66666666666667</ele><time>2026-04-25T09:17:43.13Z</time></trkpt><trkpt lat="43.44277" lon="10.52588"><ele>70.0</ele><time>2026-04-25T09:17:44.122Z</time></trkpt><trkpt lat="43.442695" lon="10.5259333"><ele>71.33333333333334</ele><time>2026-04-25T09:17:45.123Z</time></trkpt><trkpt lat="43.4426267" lon="10.5259817"><ele>72.66666666666667</ele><time>2026-04-25T09:17:46.124Z</time></trkpt><trkpt lat="43.4425367" lon="10.5260617"><ele>74.0</ele><time>2026-04-25T09:17:48.134Z</time></trkpt><trkpt lat="43.442505" lon="10.5261733"><ele>73.60000000000001</ele><time>2026-04-25T09:17:50.121Z</time></trkpt><trkpt lat="43.4425517" lon="10.52632"><ele>73.2</ele><time>2026-04-25T09:17:52.115Z</time></trkpt><trkpt lat="43.442605" lon="10.5264217"><ele>72.80000000000001</ele><time>2026-04-25T09:17:53.123Z</time></trkpt><trkpt lat="43.44267" lon="10.526545"><ele>72.4</ele><time>2026-04-25T09:17:54.125Z</time></trkpt><trkpt lat="43.44274" lon="10.5266833"><ele>72.0</ele><time>2026-04-25T09:17:55.127Z</time></trkpt><trkpt lat="43.4428067" lon="10.526825"><ele>72.0</ele><time>2026-04-25T09:17:56.128Z</time></trkpt><trkpt lat="43.442865" lon="10.5269683"><ele>72.0</ele><time>2026-04-25T09:17:57.128Z</time></trkpt><trkpt lat="43.4429183" lon="10.5271033"><ele>72.0</ele><time>2026-04-25T09:17:58.119Z</time></trkpt><trkpt lat="43.4429667" lon="10.52722"><ele>72.0</ele><time>2026-04-25T09:17:59.121Z</time></trkpt><trkpt lat="43.4430167" lon="10.5273167"><ele>72.0</ele><time>2026-04-25T09:18:00.117Z</time></trkpt><trkpt lat="43.4430733" lon="10.5274067"><ele>73.6</ele><time>2026-04-25T09:18:01.119Z</time></trkpt><trkpt lat="43.4431417" lon="10.5274983"><ele>75.2</ele><time>2026-04-25T09:18:02.13Z</time></trkpt><trkpt lat="43.4432267" lon="10.527595"><ele>76.8</ele><time>2026-04-25T09:18:03.125Z</time></trkpt><trkpt lat="43.44332" lon="10.5276967"><ele>78.4</ele><time>2026-04-25T09:18:04.121Z</time></trkpt><trkpt lat="43.4434167" lon="10.5277983"><ele>80.0</ele><time>2026-04-25T09:18:05.121Z</time></trkpt><trkpt lat="43.4435083" lon="10.5279"><ele>80.5</ele><time>2026-04-25T09:18:06.12Z</time></trkpt><trkpt lat="43.4436033" lon="10.5280017"><ele>81.0</ele><time>2026-04-25T09:18:07.128Z</time></trkpt><trkpt lat="43.443705" lon="10.528115"><ele>81.5</ele><time>2026-04-25T09:18:08.128Z</time></trkpt><trkpt lat="43.44381" lon="10.5282333"><ele>82.0</ele><time>2026-04-25T09:18:09.124Z</time></trkpt><trkpt lat="43.4439083" lon="10.52836"><ele>82.25</ele><time>2026-04-25T09:18:10.116Z</time></trkpt><trkpt lat="43.4439967" lon="10.5284867"><ele>82.5</ele><time>2026-04-25T09:18:11.121Z</time></trkpt><trkpt lat="43.4440683" lon="10.5286233"><ele>82.75</ele><time>2026-04-25T09:18:12.13Z</time></trkpt><trkpt lat="43.44413" lon="10.5287717"><ele>83.0</ele><time>2026-04-25T09:18:13.125Z</time></trkpt><trkpt lat="43.4441817" lon="10.5289333"><ele>83.0</ele><time>2026-04-25T09:18:14.115Z</time></trkpt><trkpt lat="43.4442333" lon="10.5290933"><ele>83.0</ele><time>2026-04-25T09:18:15.121Z</time></trkpt><trkpt lat="43.44428" lon="10.5292583"><ele>83.0</ele><time>2026-04-25T09:18:16.136Z</time></trkpt><trkpt lat="43.4443283" lon="10.5294217"><ele>83.0</ele><time>2026-04-25T09:18:17.119Z</time></trkpt><trkpt lat="43.4443783" lon="10.5295833"><ele>83.0</ele><time>2026-04-25T09:18:18.124Z</time></trkpt><trkpt lat="43.4444267" lon="10.5297483"><ele>83.0</ele><time>2026-04-25T09:18:19.128Z</time></trkpt><trkpt lat="43.4444733" lon="10.52991"><ele>83.0</ele><time>2026-04-25T09:18:20.122Z</time></trkpt><trkpt lat="43.4445217" lon="10.5300633"><ele>83.0</ele><time>2026-04-25T09:18:21.121Z</time></trkpt><trkpt lat="43.4445683" lon="10.5302117"><ele>83.0</ele><time>2026-04-25T09:18:22.127Z</time></trkpt><trkpt lat="43.444615" lon="10.53036"><ele>83.0</ele><time>2026-04-25T09:18:23.126Z</time></trkpt><trkpt lat="43.4446567" lon="10.5304983"><ele>83.0</ele><time>2026-04-25T09:18:24.127Z</time></trkpt><trkpt lat="43.4446867" lon="10.53063"><ele>83.0</ele><time>2026-04-25T09:18:25.127Z</time></trkpt><trkpt lat="43.4447017" lon="10.5307567"><ele>83.0</ele><time>2026-04-25T09:18:26.124Z</time></trkpt><trkpt lat="43.4447117" lon="10.530875"><ele>84.0</ele><time>2026-04-25T09:18:27.127Z</time></trkpt><trkpt lat="43.4447217" lon="10.5309883"><ele>85.0</ele><time>2026-04-25T09:18:28.118Z</time></trkpt><trkpt lat="43.4447433" lon="10.5311017"><ele>86.0</ele><time>2026-04-25T09:18:29.122Z</time></trkpt><trkpt lat="43.4447867" lon="10.5312033"><ele>87.0</ele><time>2026-04-25T09:18:30.122Z</time></trkpt><trkpt lat="43.444855" lon="10.5313017"><ele>88.0</ele><time>2026-04-25T09:18:31.133Z</time></trkpt><trkpt lat="43.4449383" lon="10.5314017"><ele>88.60000000000001</ele><time>2026-04-25T09:18:32.122Z</time></trkpt><trkpt lat="43.44502" lon="10.531495"><ele>89.2</ele><time>2026-04-25T09:18:33.124Z</time></trkpt><trkpt lat="43.44509" lon="10.5315767"><ele>89.8</ele><time>2026-04-25T09:18:34.119Z</time></trkpt><trkpt lat="43.445155" lon="10.53165"><ele>90.4</ele><time>2026-04-25T09:18:35.127Z</time></trkpt><trkpt lat="43.4452183" lon="10.5317217"><ele>91.0</ele><time>2026-04-25T09:18:36.122Z</time></trkpt><trkpt lat="43.4452917" lon="10.531795"><ele>91.0</ele><time>2026-04-25T09:18:37.13Z</time></trkpt><trkpt lat="43.4453683" lon="10.5318767"><ele>91.0</ele><time>2026-04-25T09:18:38.128Z</time></trkpt><trkpt lat="43.445445" lon="10.5319617"><ele>91.0</ele><time>2026-04-25T09:18:39.122Z</time></trkpt><trkpt lat="43.4455117" lon="10.5320583"><ele>91.0</ele><time>2026-04-25T09:18:40.123Z</time></trkpt><trkpt lat="43.4455617" lon="10.5321683"><ele>91.0</ele><time>2026-04-25T09:18:41.118Z</time></trkpt><trkpt lat="43.4456067" lon="10.5322867"><ele>92.0</ele><time>2026-04-25T09:18:42.129Z</time></trkpt><trkpt lat="43.445655" lon="10.5324067"><ele>93.0</ele><time>2026-04-25T09:18:43.14Z</time></trkpt><trkpt lat="43.445705" lon="10.5325333"><ele>94.0</ele><time>2026-04-25T09:18:44.127Z</time></trkpt><trkpt lat="43.4457583" lon="10.5326633"><ele>95.0</ele><time>2026-04-25T09:18:45.125Z</time></trkpt><trkpt lat="43.4458124" lon="10.5328"><ele>96.0</ele><time>2026-04-25T09:18:46.12Z</time></trkpt><trkpt lat="43.4458653" lon="10.5329417"><ele>96.0</ele><time>2026-04-25T09:18:47.123Z</time></trkpt><trkpt lat="43.4459169" lon="10.5330826"><ele>96.0</ele><time>2026-04-25T09:18:48.125Z</time></trkpt><trkpt lat="43.4459685" lon="10.5332171"><ele>96.0</ele><time>2026-04-25T09:18:49.134Z</time></trkpt><trkpt lat="43.4460189" lon="10.5333453"><ele>96.0</ele><time>2026-04-25T09:18:50.123Z</time></trkpt><trkpt lat="43.4460737" lon="10.5334773"><ele>96.0</ele><time>2026-04-25T09:18:51.125Z</time></trkpt><trkpt lat="43.4461313" lon="10.5336157"><ele>96.19999999999999</ele><time>2026-04-25T09:18:52.125Z</time></trkpt><trkpt lat="43.4461832" lon="10.5337505"><ele>96.39999999999999</ele><time>2026-04-25T09:18:53.124Z</time></trkpt><trkpt lat="43.4462329" lon="10.5338813"><ele>96.6</ele><time>2026-04-25T09:18:54.122Z</time></trkpt><trkpt lat="43.4462868" lon="10.5340137"><ele>96.8</ele><time>2026-04-25T09:18:55.132Z</time></trkpt><trkpt lat="43.4463446" lon="10.5341445"><ele>97.0</ele><time>2026-04-25T09:18:56.12Z</time></trkpt><trkpt lat="43.4464106" lon="10.5342735"><ele>97.75</ele><time>2026-04-25T09:18:57.117Z</time></trkpt><trkpt lat="43.4464857" lon="10.5343995"><ele>98.5</ele><time>2026-04-25T09:18:58.128Z</time></trkpt><trkpt lat="43.4465668" lon="10.5345159"><ele>99.25</ele><time>2026-04-25T09:18:59.118Z</time></trkpt><trkpt lat="43.4466565" lon="10.5346322"><ele>100.0</ele><time>2026-04-25T09:19:00.126Z</time></trkpt><trkpt lat="43.4467439" lon="10.5347536"><ele>100.0</ele><time>2026-04-25T09:19:01.117Z</time></trkpt><trkpt lat="43.4468232" lon="10.5348753"><ele>100.0</ele><time>2026-04-25T09:19:02.125Z</time></trkpt><trkpt lat="43.4468876" lon="10.5349961"><ele>100.0</ele><time>2026-04-25T09:19:03.124Z</time></trkpt><trkpt lat="43.446941" lon="10.5351191"><ele>100.0</ele><time>2026-04-25T09:19:04.121Z</time></trkpt><trkpt lat="43.4469879" lon="10.5352525"><ele>100.0</ele><time>2026-04-25T09:19:05.138Z</time></trkpt><trkpt lat="43.4470336" lon="10.5353991"><ele>99.5</ele><time>2026-04-25T09:19:06.126Z</time></trkpt><trkpt lat="43.4470811" lon="10.5355478"><ele>99.0</ele><time>2026-04-25T09:19:07.128Z</time></trkpt><trkpt lat="43.4471307" lon="10.5356883"><ele>98.5</ele><time>2026-04-25T09:19:08.119Z</time></trkpt><trkpt lat="43.4471892" lon="10.535824"><ele>98.0</ele><time>2026-04-25T09:19:09.122Z</time></trkpt><trkpt lat="43.447262" lon="10.5359494"><ele>99.0</ele><time>2026-04-25T09:19:10.125Z</time></trkpt><trkpt lat="43.447348" lon="10.5360688"><ele>100.0</ele><time>2026-04-25T09:19:11.129Z</time></trkpt><trkpt lat="43.4474456" lon="10.5361833"><ele>101.0</ele><time>2026-04-25T09:19:12.131Z</time></trkpt><trkpt lat="43.4475498" lon="10.5362895"><ele>102.0</ele><time>2026-04-25T09:19:13.123Z</time></trkpt><trkpt lat="43.44765" lon="10.5363891"><ele>102.0</ele><time>2026-04-25T09:19:14.125Z</time></trkpt><trkpt lat="43.44774" lon="10.5364917"><ele>102.0</ele><time>2026-04-25T09:19:15.123Z</time></trkpt><trkpt lat="43.4478283" lon="10.536605"><ele>102.0</ele><time>2026-04-25T09:19:16.127Z</time></trkpt><trkpt lat="43.447915" lon="10.5367283"><ele>102.0</ele><time>2026-04-25T09:19:17.12Z</time></trkpt><trkpt lat="43.4480017" lon="10.536875"><ele>102.0</ele><time>2026-04-25T09:19:18.121Z</time></trkpt><trkpt lat="43.4480883" lon="10.537045"><ele>102.0</ele><time>2026-04-25T09:19:19.127Z</time></trkpt><trkpt lat="43.4481667" lon="10.5372233"><ele>102.0</ele><time>2026-04-25T09:19:20.13Z</time></trkpt><trkpt lat="43.4482383" lon="10.5373967"><ele>102.0</ele><time>2026-04-25T09:19:21.119Z</time></trkpt><trkpt lat="43.4483017" lon="10.5375683"><ele>102.5</ele><time>2026-04-25T09:19:22.131Z</time></trkpt><trkpt lat="43.4483633" lon="10.5377333"><ele>103.0</ele><time>2026-04-25T09:19:23.118Z</time></trkpt><trkpt lat="43.4484167" lon="10.5379017"><ele>103.5</ele><time>2026-04-25T09:19:24.128Z</time></trkpt><trkpt lat="43.448465" lon="10.5380817"><ele>104.0</ele><time>2026-04-25T09:19:25.131Z</time></trkpt><trkpt lat="43.448515" lon="10.5382767"><ele>104.5</ele><time>2026-04-25T09:19:26.118Z</time></trkpt><trkpt lat="43.4485633" lon="10.5384717"><ele>105.0</ele><time>2026-04-25T09:19:27.124Z</time></trkpt><trkpt lat="43.4486017" lon="10.5386483"><ele>105.5</ele><time>2026-04-25T09:19:28.126Z</time></trkpt><trkpt lat="43.4486233" lon="10.5388083"><ele>106.0</ele><time>2026-04-25T09:19:29.125Z</time></trkpt><trkpt lat="43.4486367" lon="10.5389517"><ele>106.19999999999999</ele><time>2026-04-25T09:19:30.118Z</time></trkpt><trkpt lat="43.44865" lon="10.5390867"><ele>106.39999999999999</ele><time>2026-04-25T09:19:31.129Z</time></trkpt><trkpt lat="43.44868" lon="10.5392117"><ele>106.6</ele><time>2026-04-25T09:19:32.127Z</time></trkpt><trkpt lat="43.4487267" lon="10.5393433"><ele>106.8</ele><time>2026-04-25T09:19:33.122Z</time></trkpt><trkpt lat="43.448785" lon="10.539485"><ele>107.0</ele><time>2026-04-25T09:19:34.131Z</time></trkpt><trkpt lat="43.4488517" lon="10.5396367"><ele>108.75</ele><time>2026-04-25T09:19:35.12Z</time></trkpt><trkpt lat="43.4489217" lon="10.539795"><ele>110.5</ele><time>2026-04-25T09:19:36.127Z</time></trkpt><trkpt lat="43.4489917" lon="10.5399467"><ele>112.25</ele><time>2026-04-25T09:19:37.127Z</time></trkpt><trkpt lat="43.44906" lon="10.5400967"><ele>114.0</ele><time>2026-04-25T09:19:38.121Z</time></trkpt><trkpt lat="43.4491233" lon="10.5402433"><ele>114.75</ele><time>2026-04-25T09:19:39.127Z</time></trkpt><trkpt lat="43.4491833" lon="10.5403833"><ele>115.5</ele><time>2026-04-25T09:19:40.126Z</time></trkpt><trkpt lat="43.449245" lon="10.5405217"><ele>116.25</ele><time>2026-04-25T09:19:41.112Z</time></trkpt><trkpt lat="43.4493083" lon="10.54066"><ele>117.0</ele><time>2026-04-25T09:19:42.12Z</time></trkpt><trkpt lat="43.4493733" lon="10.5407983"><ele>117.0</ele><time>2026-04-25T09:19:43.123Z</time></trkpt><trkpt lat="43.4494367" lon="10.5409383"><ele>117.0</ele><time>2026-04-25T09:19:44.126Z</time></trkpt><trkpt lat="43.4494967" lon="10.5410733"><ele>117.0</ele><time>2026-04-25T09:19:45.128Z</time></trkpt><trkpt lat="43.449555" lon="10.5412033"><ele>117.0</ele><time>2026-04-25T09:19:46.121Z</time></trkpt><trkpt lat="43.4496167" lon="10.5413233"><ele>117.8</ele><time>2026-04-25T09:19:47.125Z</time></trkpt><trkpt lat="43.449685" lon="10.5414367"><ele>118.6</ele><time>2026-04-25T09:19:48.122Z</time></trkpt><trkpt lat="43.4497533" lon="10.54154"><ele>119.39999999999999</ele><time>2026-04-25T09:19:49.119Z</time></trkpt><trkpt lat="43.4498217" lon="10.5416467"><ele>120.19999999999999</ele><time>2026-04-25T09:19:50.122Z</time></trkpt><trkpt lat="43.44989" lon="10.541765"><ele>121.0</ele><time>2026-04-25T09:19:51.129Z</time></trkpt><trkpt lat="43.4499567" lon="10.5419017"><ele>121.0</ele><time>2026-04-25T09:19:52.132Z</time></trkpt><trkpt lat="43.4500233" lon="10.5420383"><ele>121.0</ele><time>2026-04-25T09:19:53.123Z</time></trkpt><trkpt lat="43.450085" lon="10.5421683"><ele>121.0</ele><time>2026-04-25T09:19:54.13Z</time></trkpt><trkpt lat="43.4501467" lon="10.5422883"><ele>121.0</ele><time>2026-04-25T09:19:55.123Z</time></trkpt><trkpt lat="43.45021" lon="10.5424033"><ele>121.0</ele><time>2026-04-25T09:19:56.12Z</time></trkpt><trkpt lat="43.4502683" lon="10.542515"><ele>120.19999999999999</ele><time>2026-04-25T09:19:57.124Z</time></trkpt><trkpt lat="43.4503233" lon="10.54263"><ele>119.39999999999999</ele><time>2026-04-25T09:19:58.123Z</time></trkpt><trkpt lat="43.4503683" lon="10.5427583"><ele>118.6</ele><time>2026-04-25T09:19:59.124Z</time></trkpt><trkpt lat="43.4504" lon="10.542895"><ele>117.8</ele><time>2026-04-25T09:20:00.121Z</time></trkpt><trkpt lat="43.4504183" lon="10.5430483"><ele>117.0</ele><time>2026-04-25T09:20:01.133Z</time></trkpt><trkpt lat="43.450425" lon="10.5432117"><ele>116.0</ele><time>2026-04-25T09:20:02.144Z</time></trkpt><trkpt lat="43.4504233" lon="10.54338"><ele>115.0</ele><time>2026-04-25T09:20:03.129Z</time></trkpt><trkpt lat="43.4504183" lon="10.5435417"><ele>114.0</ele><time>2026-04-25T09:20:04.128Z</time></trkpt><trkpt lat="43.45041" lon="10.5436933"><ele>113.0</ele><time>2026-04-25T09:20:05.112Z</time></trkpt><trkpt lat="43.4504" lon="10.54383"><ele>113.0</ele><time>2026-04-25T09:20:06.121Z</time></trkpt><trkpt lat="43.450385" lon="10.5439633"><ele>113.00000000000001</ele><time>2026-04-25T09:20:07.128Z</time></trkpt><trkpt lat="43.450365" lon="10.5440967"><ele>113.00000000000001</ele><time>2026-04-25T09:20:08.125Z</time></trkpt><trkpt lat="43.450335" lon="10.54423"><ele>113.0</ele><time>2026-04-25T09:20:09.126Z</time></trkpt><trkpt lat="43.45029" lon="10.5443667"><ele>113.0</ele><time>2026-04-25T09:20:10.119Z</time></trkpt><trkpt lat="43.450225" lon="10.5445067"><ele>113.5</ele><time>2026-04-25T09:20:11.126Z</time></trkpt><trkpt lat="43.45015" lon="10.5446433"><ele>114.0</ele><time>2026-04-25T09:20:12.122Z</time></trkpt><trkpt lat="43.4500867" lon="10.544775"><ele>114.5</ele><time>2026-04-25T09:20:13.126Z</time></trkpt><trkpt lat="43.4500317" lon="10.5449167"><ele>115.0</ele><time>2026-04-25T09:20:14.122Z</time></trkpt><trkpt lat="43.4499933" lon="10.5450833"><ele>115.0</ele><time>2026-04-25T09:20:15.129Z</time></trkpt><trkpt lat="43.449965" lon="10.5452717"><ele>115.0</ele><time>2026-04-25T09:20:16.125Z</time></trkpt><trkpt lat="43.449935" lon="10.5454717"><ele>115.0</ele><time>2026-04-25T09:20:17.125Z</time></trkpt><trkpt lat="43.449895" lon="10.5456617"><ele>115.0</ele><time>2026-04-25T09:20:18.125Z</time></trkpt><trkpt lat="43.44985" lon="10.5458317"><ele>114.75</ele><time>2026-04-25T09:20:19.129Z</time></trkpt><trkpt lat="43.449795" lon="10.5459983"><ele>114.5</ele><time>2026-04-25T09:20:20.135Z</time></trkpt><trkpt lat="43.4497367" lon="10.5461617"><ele>114.25</ele><time>2026-04-25T09:20:21.125Z</time></trkpt><trkpt lat="43.449685" lon="10.5463133"><ele>114.0</ele><time>2026-04-25T09:20:22.12Z</time></trkpt><trkpt lat="43.44964" lon="10.5464733"><ele>116.25</ele><time>2026-04-25T09:20:23.128Z</time></trkpt><trkpt lat="43.4496017" lon="10.546655"><ele>118.5</ele><time>2026-04-25T09:20:24.121Z</time></trkpt><trkpt lat="43.44956" lon="10.5468583"><ele>120.75</ele><time>2026-04-25T09:20:25.122Z</time></trkpt><trkpt lat="43.4495167" lon="10.54706"><ele>123.0</ele><time>2026-04-25T09:20:26.12Z</time></trkpt><trkpt lat="43.4494717" lon="10.5472483"><ele>125.25</ele><time>2026-04-25T09:20:27.116Z</time></trkpt><trkpt lat="43.4494267" lon="10.5474217"><ele>127.5</ele><time>2026-04-25T09:20:28.127Z</time></trkpt><trkpt lat="43.4493767" lon="10.54758"><ele>129.75</ele><time>2026-04-25T09:20:29.133Z</time></trkpt><trkpt lat="43.4493167" lon="10.547715"><ele>132.0</ele><time>2026-04-25T09:20:30.126Z</time></trkpt><trkpt lat="43.4492383" lon="10.5478383"><ele>132.75</ele><time>2026-04-25T09:20:31.126Z</time></trkpt><trkpt lat="43.4491467" lon="10.5479517"><ele>133.5</ele><time>2026-04-25T09:20:32.123Z</time></trkpt><trkpt lat="43.4490467" lon="10.548055"><ele>134.25</ele><time>2026-04-25T09:20:33.125Z</time></trkpt><trkpt lat="43.4489483" lon="10.5481417"><ele>135.0</ele><time>2026-04-25T09:20:34.126Z</time></trkpt><trkpt lat="43.4488667" lon="10.5482267"><ele>135.0</ele><time>2026-04-25T09:20:35.126Z</time></trkpt><trkpt lat="43.4488117" lon="10.5483183"><ele>135.0</ele><time>2026-04-25T09:20:36.127Z</time></trkpt><trkpt lat="43.4487767" lon="10.548425"><ele>135.0</ele><time>2026-04-25T09:20:37.131Z</time></trkpt><trkpt lat="43.4487517" lon="10.54855"><ele>135.0</ele><time>2026-04-25T09:20:38.122Z</time></trkpt><trkpt lat="43.4487367" lon="10.5486983"><ele>135.0</ele><time>2026-04-25T09:20:39.127Z</time></trkpt><trkpt lat="43.44872" lon="10.54885"><ele>137.0</ele><time>2026-04-25T09:20:40.124Z</time></trkpt><trkpt lat="43.4487067" lon="10.5489917"><ele>139.0</ele><time>2026-04-25T09:20:41.119Z</time></trkpt><trkpt lat="43.4487" lon="10.54912"><ele>141.0</ele><time>2026-04-25T09:20:42.123Z</time></trkpt><trkpt lat="43.44869" lon="10.5492433"><ele>143.0</ele><time>2026-04-25T09:20:43.125Z</time></trkpt><trkpt lat="43.44867" lon="10.5493583"><ele>145.0</ele><time>2026-04-25T09:20:44.121Z</time></trkpt><trkpt lat="43.4486417" lon="10.5494683"><ele>143.8</ele><time>2026-04-25T09:20:45.124Z</time></trkpt><trkpt lat="43.4486117" lon="10.5495817"><ele>142.6</ele><time>2026-04-25T09:20:46.12Z</time></trkpt><trkpt lat="43.44859" lon="10.5497017"><ele>141.4</ele><time>2026-04-25T09:20:47.123Z</time></trkpt><trkpt lat="43.4485833" lon="10.5498317"><ele>140.2</ele><time>2026-04-25T09:20:48.13Z</time></trkpt><trkpt lat="43.4485933" lon="10.5499717"><ele>139.0</ele><time>2026-04-25T09:20:49.13Z</time></trkpt><trkpt lat="43.4486183" lon="10.5501317"><ele>139.0</ele><time>2026-04-25T09:20:50.121Z</time></trkpt><trkpt lat="43.4486467" lon="10.5503117"><ele>139.0</ele><time>2026-04-25T09:20:51.121Z</time></trkpt><trkpt lat="43.4486633" lon="10.550495"><ele>139.0</ele><time>2026-04-25T09:20:52.122Z</time></trkpt><trkpt lat="43.44867" lon="10.550675"><ele>139.0</ele><time>2026-04-25T09:20:53.123Z</time></trkpt><trkpt lat="43.4486783" lon="10.5508583"><ele>137.75</ele><time>2026-04-25T09:20:54.13Z</time></trkpt><trkpt lat="43.4486933" lon="10.55104"><ele>136.5</ele><time>2026-04-25T09:20:55.131Z</time></trkpt><trkpt lat="43.4487167" lon="10.551225"><ele>135.25</ele><time>2026-04-25T09:20:56.128Z</time></trkpt><trkpt lat="43.448745" lon="10.5514183"><ele>134.0</ele><time>2026-04-25T09:20:57.121Z</time></trkpt><trkpt lat="43.4487733" lon="10.5516167"><ele>134.5</ele><time>2026-04-25T09:20:58.124Z</time></trkpt><trkpt lat="43.448795" lon="10.551805"><ele>135.0</ele><time>2026-04-25T09:20:59.124Z</time></trkpt><trkpt lat="43.4488117" lon="10.5519883"><ele>135.5</ele><time>2026-04-25T09:21:00.128Z</time></trkpt><trkpt lat="43.4488267" lon="10.5521567"><ele>136.0</ele><time>2026-04-25T09:21:01.119Z</time></trkpt><trkpt lat="43.4488383" lon="10.5523233"><ele>136.4</ele><time>2026-04-25T09:21:02.13Z</time></trkpt><trkpt lat="43.4488433" lon="10.5524867"><ele>136.8</ele><time>2026-04-25T09:21:03.12Z</time></trkpt><trkpt lat="43.448845" lon="10.552635"><ele>137.20000000000002</ele><time>2026-04-25T09:21:04.14Z</time></trkpt><trkpt lat="43.4488467" lon="10.5527833"><ele>137.6</ele><time>2026-04-25T09:21:05.132Z</time></trkpt><trkpt lat="43.448855" lon="10.552935"><ele>138.0</ele><time>2026-04-25T09:21:06.138Z</time></trkpt><trkpt lat="43.44887" lon="10.5530917"><ele>138.0</ele><time>2026-04-25T09:21:07.133Z</time></trkpt><trkpt lat="43.44889" lon="10.5532517"><ele>138.0</ele><time>2026-04-25T09:21:08.124Z</time></trkpt><trkpt lat="43.44891" lon="10.5534083"><ele>138.0</ele><time>2026-04-25T09:21:09.124Z</time></trkpt><trkpt lat="43.4489367" lon="10.5535633"><ele>138.0</ele><time>2026-04-25T09:21:10.13Z</time></trkpt><trkpt lat="43.448965" lon="10.553725"><ele>138.75</ele><time>2026-04-25T09:21:11.122Z</time></trkpt><trkpt lat="43.44899" lon="10.553895"><ele>139.5</ele><time>2026-04-25T09:21:12.12Z</time></trkpt><trkpt lat="43.44901" lon="10.5540717"><ele>140.25</ele><time>2026-04-25T09:21:13.123Z</time></trkpt><trkpt lat="43.449025" lon="10.5542517"><ele>141.0</ele><time>2026-04-25T09:21:14.126Z</time></trkpt><trkpt lat="43.4490283" lon="10.55443"><ele>141.25</ele><time>2026-04-25T09:21:15.126Z</time></trkpt><trkpt lat="43.4490283" lon="10.5545967"><ele>141.5</ele><time>2026-04-25T09:21:16.126Z</time></trkpt><trkpt lat="43.4490333" lon="10.5547617"><ele>141.75</ele><time>2026-04-25T09:21:17.133Z</time></trkpt><trkpt lat="43.4490483" lon="10.55493"><ele>142.0</ele><time>2026-04-25T09:21:18.125Z</time></trkpt><trkpt lat="43.4490717" lon="10.5551017"><ele>142.0</ele><time>2026-04-25T09:21:19.128Z</time></trkpt><trkpt lat="43.4490933" lon="10.555265"><ele>142.0</ele><time>2026-04-25T09:21:20.132Z</time></trkpt><trkpt lat="43.4491117" lon="10.55542"><ele>142.0</ele><time>2026-04-25T09:21:21.121Z</time></trkpt><trkpt lat="43.4491283" lon="10.5555767"><ele>142.0</ele><time>2026-04-25T09:21:22.137Z</time></trkpt><trkpt lat="43.44914" lon="10.55574"><ele>142.0</ele><time>2026-04-25T09:21:23.125Z</time></trkpt><trkpt lat="43.4491467" lon="10.5559083"><ele>142.0</ele><time>2026-04-25T09:21:24.126Z</time></trkpt><trkpt lat="43.4491483" lon="10.5560733"><ele>142.0</ele><time>2026-04-25T09:21:25.13Z</time></trkpt><trkpt lat="43.4491433" lon="10.5562333"><ele>142.0</ele><time>2026-04-25T09:21:26.127Z</time></trkpt><trkpt lat="43.4491333" lon="10.5563833"><ele>142.0</ele><time>2026-04-25T09:21:27.122Z</time></trkpt><trkpt lat="43.4491217" lon="10.5565183"><ele>142.0</ele><time>2026-04-25T09:21:28.126Z</time></trkpt><trkpt lat="43.4491083" lon="10.5566433"><ele>142.0</ele><time>2026-04-25T09:21:29.13Z</time></trkpt><trkpt lat="43.4490867" lon="10.5567533"><ele>142.0</ele><time>2026-04-25T09:21:30.128Z</time></trkpt><trkpt lat="43.4490633" lon="10.55685"><ele>142.0</ele><time>2026-04-25T09:21:31.136Z</time></trkpt><trkpt lat="43.4490467" lon="10.5569433"><ele>142.0</ele><time>2026-04-25T09:21:32.123Z</time></trkpt><trkpt lat="43.4490417" lon="10.557035"><ele>141.79999999999998</ele><time>2026-04-25T09:21:33.122Z</time></trkpt><trkpt lat="43.44905" lon="10.5571333"><ele>141.6</ele><time>2026-04-25T09:21:34.128Z</time></trkpt><trkpt lat="43.44907" lon="10.5572483"><ele>141.39999999999998</ele><time>2026-04-25T09:21:35.131Z</time></trkpt><trkpt lat="43.4491033" lon="10.55738"><ele>141.2</ele><time>2026-04-25T09:21:36.118Z</time></trkpt><trkpt lat="43.4491417" lon="10.5575283"><ele>141.0</ele><time>2026-04-25T09:21:37.124Z</time></trkpt><trkpt lat="43.44919" lon="10.5576983"><ele>140.25</ele><time>2026-04-25T09:21:38.12Z</time></trkpt><trkpt lat="43.449245" lon="10.5578733"><ele>139.5</ele><time>2026-04-25T09:21:39.127Z</time></trkpt><trkpt lat="43.4493083" lon="10.55806"><ele>138.75</ele><time>2026-04-25T09:21:40.134Z</time></trkpt><trkpt lat="43.44937" lon="10.5582567"><ele>138.0</ele><time>2026-04-25T09:21:41.12Z</time></trkpt><trkpt lat="43.4494233" lon="10.5584317"><ele>138.0</ele><time>2026-04-25T09:21:42.13Z</time></trkpt><trkpt lat="43.449465" lon="10.5585833"><ele>138.0</ele><time>2026-04-25T09:21:43.122Z</time></trkpt><trkpt lat="43.4495083" lon="10.5587167"><ele>138.0</ele><time>2026-04-25T09:21:44.117Z</time></trkpt><trkpt lat="43.449545" lon="10.5588583"><ele>138.0</ele><time>2026-04-25T09:21:45.127Z</time></trkpt><trkpt lat="43.4495683" lon="10.5590133"><ele>138.0</ele><time>2026-04-25T09:21:46.124Z</time></trkpt><trkpt lat="43.4495767" lon="10.5591867"><ele>138.0</ele><time>2026-04-25T09:21:47.133Z</time></trkpt><trkpt lat="43.4495667" lon="10.5593733"><ele>138.0</ele><time>2026-04-25T09:21:48.121Z</time></trkpt><trkpt lat="43.4495467" lon="10.5595867"><ele>138.0</ele><time>2026-04-25T09:21:49.113Z</time></trkpt><trkpt lat="43.4495267" lon="10.5598067"><ele>139.0</ele><time>2026-04-25T09:21:50.118Z</time></trkpt><trkpt lat="43.449515" lon="10.5600033"><ele>140.0</ele><time>2026-04-25T09:21:51.117Z</time></trkpt><trkpt lat="43.4495067" lon="10.56018"><ele>141.0</ele><time>2026-04-25T09:21:52.127Z</time></trkpt><trkpt lat="43.4494933" lon="10.5603433"><ele>142.0</ele><time>2026-04-25T09:21:53.124Z</time></trkpt><trkpt lat="43.44947" lon="10.5604967"><ele>144.0</ele><time>2026-04-25T09:21:54.127Z</time></trkpt><trkpt lat="43.4494333" lon="10.56065"><ele>146.0</ele><time>2026-04-25T09:21:55.123Z</time></trkpt><trkpt lat="43.4493833" lon="10.5608033"><ele>148.0</ele><time>2026-04-25T09:21:56.127Z</time></trkpt><trkpt lat="43.44932" lon="10.56096"><ele>150.0</ele><time>2026-04-25T09:21:57.131Z</time></trkpt><trkpt lat="43.4492467" lon="10.561125"><ele>151.75</ele><time>2026-04-25T09:21:58.132Z</time></trkpt><trkpt lat="43.4491633" lon="10.5612967"><ele>153.5</ele><time>2026-04-25T09:21:59.126Z</time></trkpt><trkpt lat="43.4490867" lon="10.5614567"><ele>155.25</ele><time>2026-04-25T09:22:00.123Z</time></trkpt><trkpt lat="43.4490183" lon="10.561605"><ele>157.0</ele><time>2026-04-25T09:22:01.123Z</time></trkpt><trkpt lat="43.4489567" lon="10.5617417"><ele>157.0</ele><time>2026-04-25T09:22:02.127Z</time></trkpt><trkpt lat="43.4488983" lon="10.5618517"><ele>157.0</ele><time>2026-04-25T09:22:03.126Z</time></trkpt><trkpt lat="43.4488367" lon="10.56193"><ele>157.0</ele><time>2026-04-25T09:22:04.121Z</time></trkpt><trkpt lat="43.448775" lon="10.5619767"><ele>157.0</ele><time>2026-04-25T09:22:05.124Z</time></trkpt><trkpt lat="43.4487133" lon="10.5620017"><ele>157.0</ele><time>2026-04-25T09:22:06.131Z</time></trkpt><trkpt lat="43.4486" lon="10.5620467"><ele>157.0</ele><time>2026-04-25T09:22:08.136Z</time></trkpt><trkpt lat="43.4484867" lon="10.56212"><ele>159.6</ele><time>2026-04-25T09:22:10.125Z</time></trkpt><trkpt lat="43.4484067" lon="10.5622267"><ele>162.2</ele><time>2026-04-25T09:22:12.123Z</time></trkpt><trkpt lat="43.4483683" lon="10.5623583"><ele>164.8</ele><time>2026-04-25T09:22:14.128Z</time></trkpt><trkpt lat="43.448355" lon="10.5625067"><ele>167.4</ele><time>2026-04-25T09:22:16.126Z</time></trkpt><trkpt lat="43.4483483" lon="10.5626533"><ele>170.0</ele><time>2026-04-25T09:22:18.132Z</time></trkpt><trkpt lat="43.4483467" lon="10.562805"><ele>171.6</ele><time>2026-04-25T09:22:20.124Z</time></trkpt><trkpt lat="43.448345" lon="10.5629483"><ele>173.2</ele><time>2026-04-25T09:22:22.134Z</time></trkpt><trkpt lat="43.4483433" lon="10.5631033"><ele>174.8</ele><time>2026-04-25T09:22:24.129Z</time></trkpt><trkpt lat="43.4483383" lon="10.5632667"><ele>176.4</ele><time>2026-04-25T09:22:26.135Z</time></trkpt><trkpt lat="43.4483333" lon="10.563355"><ele>178.0</ele><time>2026-04-25T09:22:27.125Z</time></trkpt><trkpt lat="43.44832" lon="10.56351"><ele>178.0</ele><time>2026-04-25T09:22:29.123Z</time></trkpt><trkpt lat="43.4483017" lon="10.5636467"><ele>178.0</ele><time>2026-04-25T09:22:31.123Z</time></trkpt><trkpt lat="43.448265" lon="10.5637933"><ele>178.0</ele><time>2026-04-25T09:22:33.131Z</time></trkpt><trkpt lat="43.4482217" lon="10.563955"><ele>178.0</ele><time>2026-04-25T09:22:35.126Z</time></trkpt><trkpt lat="43.4481983" lon="10.5640433"><ele>178.0</ele><time>2026-04-25T09:22:36.12Z</time></trkpt><trkpt lat="43.44818" lon="10.56413"><ele>178.83333333333334</ele><time>2026-04-25T09:22:37.13Z</time></trkpt><trkpt lat="43.448165" lon="10.5642183"><ele>179.66666666666669</ele><time>2026-04-25T09:22:38.127Z</time></trkpt><trkpt lat="43.4481533" lon="10.564305"><ele>180.5</ele><time>2026-04-25T09:22:39.129Z</time></trkpt><trkpt lat="43.448145" lon="10.5643917"><ele>181.33333333333334</ele><time>2026-04-25T09:22:40.132Z</time></trkpt><trkpt lat="43.4481333" lon="10.564555"><ele>182.16666666666666</ele><time>2026-04-25T09:22:42.129Z</time></trkpt><trkpt lat="43.4481233" lon="10.5646533"><ele>183.0</ele><time>2026-04-25T09:22:44.125Z</time></trkpt><trkpt lat="43.4480883" lon="10.56474"><ele>182.83333333333334</ele><time>2026-04-25T09:22:48.12Z</time></trkpt><trkpt lat="43.4479967" lon="10.5647567"><ele>182.66666666666666</ele><time>2026-04-25T09:22:51.127Z</time></trkpt><trkpt lat="43.4479067" lon="10.5648283"><ele>182.5</ele><time>2026-04-25T09:22:53.118Z</time></trkpt><trkpt lat="43.4478617" lon="10.5648933"><ele>182.33333333333331</ele><time>2026-04-25T09:22:54.123Z</time></trkpt><trkpt lat="43.447815" lon="10.5649733"><ele>182.16666666666666</ele><time>2026-04-25T09:22:55.121Z</time></trkpt><trkpt lat="43.44777" lon="10.5650683"><ele>182.0</ele><time>2026-04-25T09:22:56.108Z</time></trkpt><trkpt lat="43.4477267" lon="10.565175"><ele>182.0</ele><time>2026-04-25T09:22:57.113Z</time></trkpt><trkpt lat="43.4476867" lon="10.565295"><ele>182.0</ele><time>2026-04-25T09:22:58.126Z</time></trkpt><trkpt lat="43.4476617" lon="10.5654233"><ele>182.0</ele><time>2026-04-25T09:22:59.123Z</time></trkpt><trkpt lat="43.44765" lon="10.56556"><ele>182.0</ele><time>2026-04-25T09:23:00.122Z</time></trkpt><trkpt lat="43.4476433" lon="10.5656983"><ele>182.0</ele><time>2026-04-25T09:23:01.128Z</time></trkpt><trkpt lat="43.44762" lon="10.565835"><ele>183.25</ele><time>2026-04-25T09:23:02.123Z</time></trkpt><trkpt lat="43.4475717" lon="10.5659683"><ele>184.5</ele><time>2026-04-25T09:23:03.122Z</time></trkpt><trkpt lat="43.4474933" lon="10.5660983"><ele>185.75</ele><time>2026-04-25T09:23:04.127Z</time></trkpt><trkpt lat="43.4474017" lon="10.5662283"><ele>187.0</ele><time>2026-04-25T09:23:05.116Z</time></trkpt><trkpt lat="43.447305" lon="10.566355"><ele>188.39999999999998</ele><time>2026-04-25T09:23:06.129Z</time></trkpt><trkpt lat="43.447215" lon="10.56647"><ele>189.79999999999998</ele><time>2026-04-25T09:23:07.13Z</time></trkpt><trkpt lat="43.447135" lon="10.5665783"><ele>191.2</ele><time>2026-04-25T09:23:08.12Z</time></trkpt><trkpt lat="43.4470633" lon="10.5666833"><ele>192.6</ele><time>2026-04-25T09:23:09.118Z</time></trkpt><trkpt lat="43.4470133" lon="10.566805"><ele>194.0</ele><time>2026-04-25T09:23:10.116Z</time></trkpt><trkpt lat="43.4469817" lon="10.566945"><ele>191.75</ele><time>2026-04-25T09:23:11.113Z</time></trkpt><trkpt lat="43.446975" lon="10.5670983"><ele>189.5</ele><time>2026-04-25T09:23:12.114Z</time></trkpt><trkpt lat="43.4469867" lon="10.5672633"><ele>187.25</ele><time>2026-04-25T09:23:13.123Z</time></trkpt><trkpt lat="43.4470233" lon="10.5674233"><ele>185.0</ele><time>2026-04-25T09:23:14.125Z</time></trkpt><trkpt lat="43.4470767" lon="10.5675717"><ele>185.33333333333331</ele><time>2026-04-25T09:23:15.118Z</time></trkpt><trkpt lat="43.447135" lon="10.5677083"><ele>185.66666666666666</ele><time>2026-04-25T09:23:16.125Z</time></trkpt><trkpt lat="43.4471833" lon="10.5678267"><ele>186.0</ele><time>2026-04-25T09:23:17.122Z</time></trkpt><trkpt lat="43.4472133" lon="10.5679233"><ele>186.33333333333334</ele><time>2026-04-25T09:23:18.124Z</time></trkpt><trkpt lat="43.44722" lon="10.5680117"><ele>186.66666666666669</ele><time>2026-04-25T09:23:19.128Z</time></trkpt><trkpt lat="43.4472" lon="10.5681033"><ele>187.0</ele><time>2026-04-25T09:23:20.119Z</time></trkpt><trkpt lat="43.4471583" lon="10.5681883"><ele>189.2</ele><time>2026-04-25T09:23:21.122Z</time></trkpt><trkpt lat="43.4471" lon="10.56826"><ele>191.39999999999998</ele><time>2026-04-25T09:23:22.129Z</time></trkpt><trkpt lat="43.4470267" lon="10.5683133"><ele>193.60000000000002</ele><time>2026-04-25T09:23:23.139Z</time></trkpt><trkpt lat="43.4469417" lon="10.5683133"><ele>195.8</ele><time>2026-04-25T09:23:24.119Z</time></trkpt><trkpt lat="43.4468467" lon="10.5682717"><ele>198.0</ele><time>2026-04-25T09:23:25.12Z</time></trkpt><trkpt lat="43.4467483" lon="10.568195"><ele>198.0</ele><time>2026-04-25T09:23:26.116Z</time></trkpt><trkpt lat="43.4466617" lon="10.56811"><ele>198.0</ele><time>2026-04-25T09:23:27.115Z</time></trkpt><trkpt lat="43.44658" lon="10.5680133"><ele>198.0</ele><time>2026-04-25T09:23:28.126Z</time></trkpt><trkpt lat="43.4465" lon="10.5679167"><ele>198.0</ele><time>2026-04-25T09:23:29.128Z</time></trkpt><trkpt lat="43.4464167" lon="10.56782"><ele>198.0</ele><time>2026-04-25T09:23:30.135Z</time></trkpt><trkpt lat="43.4463267" lon="10.5677333"><ele>196.2</ele><time>2026-04-25T09:23:31.126Z</time></trkpt><trkpt lat="43.4462267" lon="10.567665"><ele>194.4</ele><time>2026-04-25T09:23:32.115Z</time></trkpt><trkpt lat="43.44612" lon="10.5676167"><ele>192.6</ele><time>2026-04-25T09:23:33.123Z</time></trkpt><trkpt lat="43.44601" lon="10.5675917"><ele>190.79999999999998</ele><time>2026-04-25T09:23:34.121Z</time></trkpt><trkpt lat="43.4459" lon="10.5675767"><ele>189.0</ele><time>2026-04-25T09:23:35.118Z</time></trkpt><trkpt lat="43.44579" lon="10.5675917"><ele>189.0</ele><time>2026-04-25T09:23:36.12Z</time></trkpt><trkpt lat="43.4456833" lon="10.56763"><ele>189.0</ele><time>2026-04-25T09:23:37.121Z</time></trkpt><trkpt lat="43.44559" lon="10.56769"><ele>189.0</ele><time>2026-04-25T09:23:38.119Z</time></trkpt><trkpt lat="43.4455067" lon="10.567775"><ele>189.0</ele><time>2026-04-25T09:23:39.125Z</time></trkpt><trkpt lat="43.4454317" lon="10.5678767"><ele>189.0</ele><time>2026-04-25T09:23:40.123Z</time></trkpt><trkpt lat="43.44536" lon="10.5679833"><ele>188.0</ele><time>2026-04-25T09:23:41.117Z</time></trkpt><trkpt lat="43.4452917" lon="10.5681067"><ele>187.0</ele><time>2026-04-25T09:23:42.119Z</time></trkpt><trkpt lat="43.4452183" lon="10.5682317"><ele>186.0</ele><time>2026-04-25T09:23:43.121Z</time></trkpt><trkpt lat="43.4451383" lon="10.5683583"><ele>185.0</ele><time>2026-04-25T09:23:44.124Z</time></trkpt><trkpt lat="43.4450483" lon="10.5684833"><ele>185.0</ele><time>2026-04-25T09:23:45.122Z</time></trkpt><trkpt lat="43.444945" lon="10.5685967"><ele>185.0</ele><time>2026-04-25T09:23:46.122Z</time></trkpt><trkpt lat="43.44483" lon="10.5686867"><ele>185.0</ele><time>2026-04-25T09:23:47.125Z</time></trkpt><trkpt lat="43.4447067" lon="10.5687633"><ele>185.0</ele><time>2026-04-25T09:23:48.113Z</time></trkpt><trkpt lat="43.4445767" lon="10.5688433"><ele>183.0</ele><time>2026-04-25T09:23:49.138Z</time></trkpt><trkpt lat="43.4444467" lon="10.5689317"><ele>181.0</ele><time>2026-04-25T09:23:50.13Z</time></trkpt><trkpt lat="43.4443267" lon="10.5690317"><ele>179.0</ele><time>2026-04-25T09:23:51.12Z</time></trkpt><trkpt lat="43.444215" lon="10.5691417"><ele>177.0</ele><time>2026-04-25T09:23:52.12Z</time></trkpt><trkpt lat="43.4441083" lon="10.5692483"><ele>177.0</ele><time>2026-04-25T09:23:53.126Z</time></trkpt><trkpt lat="43.4439933" lon="10.56934"><ele>177.0</ele><time>2026-04-25T09:23:54.123Z</time></trkpt><trkpt lat="43.4438667" lon="10.5693967"><ele>177.0</ele><time>2026-04-25T09:23:55.124Z</time></trkpt><trkpt lat="43.4437267" lon="10.5694267"><ele>177.0</ele><time>2026-04-25T09:23:56.114Z</time></trkpt><trkpt lat="43.44359" lon="10.5694383"><ele>176.39999999999998</ele><time>2026-04-25T09:23:57.114Z</time></trkpt><trkpt lat="43.4434633" lon="10.5694367"><ele>175.79999999999998</ele><time>2026-04-25T09:23:58.129Z</time></trkpt><trkpt lat="43.4433533" lon="10.56944"><ele>175.2</ele><time>2026-04-25T09:23:59.129Z</time></trkpt><trkpt lat="43.4432517" lon="10.5694733"><ele>174.6</ele><time>2026-04-25T09:24:00.125Z</time></trkpt><trkpt lat="43.4431633" lon="10.569545"><ele>174.0</ele><time>2026-04-25T09:24:01.119Z</time></trkpt><trkpt lat="43.4431" lon="10.56965"><ele>174.0</ele><time>2026-04-25T09:24:02.124Z</time></trkpt><trkpt lat="43.4430617" lon="10.56979"><ele>174.0</ele><time>2026-04-25T09:24:03.124Z</time></trkpt><trkpt lat="43.443035" lon="10.5699417"><ele>174.0</ele><time>2026-04-25T09:24:04.121Z</time></trkpt><trkpt lat="43.443015" lon="10.5700767"><ele>174.0</ele><time>2026-04-25T09:24:05.123Z</time></trkpt><trkpt lat="43.4429883" lon="10.5701867"><ele>174.0</ele><time>2026-04-25T09:24:06.117Z</time></trkpt><trkpt lat="43.4429533" lon="10.5702683"><ele>177.16666666666666</ele><time>2026-04-25T09:24:07.124Z</time></trkpt><trkpt lat="43.4429033" lon="10.570335"><ele>180.33333333333331</ele><time>2026-04-25T09:24:08.117Z</time></trkpt><trkpt lat="43.442785" lon="10.5703767"><ele>183.5</ele><time>2026-04-25T09:24:10.125Z</time></trkpt><trkpt lat="43.4427183" lon="10.57036"><ele>186.66666666666666</ele><time>2026-04-25T09:24:11.118Z</time></trkpt><trkpt lat="43.44265" lon="10.5702967"><ele>189.83333333333331</ele><time>2026-04-25T09:24:12.129Z</time></trkpt><trkpt lat="43.4426083" lon="10.570175"><ele>193.0</ele><time>2026-04-25T09:24:13.115Z</time></trkpt><trkpt lat="43.4425933" lon="10.5700083"><ele>193.0</ele><time>2026-04-25T09:24:14.107Z</time></trkpt><trkpt lat="43.4425917" lon="10.5698"><ele>193.0</ele><time>2026-04-25T09:24:15.121Z</time></trkpt><trkpt lat="43.44257" lon="10.5696033"><ele>193.0</ele><time>2026-04-25T09:24:16.121Z</time></trkpt><trkpt lat="43.44254" lon="10.56943"><ele>193.0</ele><time>2026-04-25T09:24:17.126Z</time></trkpt><trkpt lat="43.4425033" lon="10.5693017"><ele>192.8</ele><time>2026-04-25T09:24:18.124Z</time></trkpt><trkpt lat="43.44245" lon="10.5692133"><ele>192.60000000000002</ele><time>2026-04-25T09:24:19.126Z</time></trkpt><trkpt lat="43.44238" lon="10.5691567"><ele>192.39999999999998</ele><time>2026-04-25T09:24:20.12Z</time></trkpt><trkpt lat="43.442285" lon="10.569125"><ele>192.2</ele><time>2026-04-25T09:24:21.128Z</time></trkpt><trkpt lat="43.4421567" lon="10.5691283"><ele>192.0</ele><time>2026-04-25T09:24:22.122Z</time></trkpt><trkpt lat="43.4420133" lon="10.5691367"><ele>192.0</ele><time>2026-04-25T09:24:23.121Z</time></trkpt><trkpt lat="43.441875" lon="10.5691117"><ele>192.0</ele><time>2026-04-25T09:24:24.125Z</time></trkpt><trkpt lat="43.441765" lon="10.569035"><ele>192.0</ele><time>2026-04-25T09:24:25.121Z</time></trkpt><trkpt lat="43.4416767" lon="10.56892"><ele>192.0</ele><time>2026-04-25T09:24:26.117Z</time></trkpt><trkpt lat="43.441595" lon="10.568755"><ele>187.66666666666666</ele><time>2026-04-25T09:24:27.134Z</time></trkpt><trkpt lat="43.441515" lon="10.56856"><ele>183.33333333333331</ele><time>2026-04-25T09:24:28.115Z</time></trkpt><trkpt lat="43.4414267" lon="10.5683683"><ele>179.0</ele><time>2026-04-25T09:24:29.111Z</time></trkpt><trkpt lat="43.441345" lon="10.568205"><ele>181.2</ele><time>2026-04-25T09:24:30.114Z</time></trkpt><trkpt lat="43.4412617" lon="10.568075"><ele>183.39999999999998</ele><time>2026-04-25T09:24:31.125Z</time></trkpt><trkpt lat="43.441175" lon="10.5679833"><ele>185.6</ele><time>2026-04-25T09:24:32.116Z</time></trkpt><trkpt lat="43.4410767" lon="10.5679217"><ele>187.8</ele><time>2026-04-25T09:24:33.128Z</time></trkpt><trkpt lat="43.4409783" lon="10.5679033"><ele>190.0</ele><time>2026-04-25T09:24:34.118Z</time></trkpt><trkpt lat="43.4408783" lon="10.56793"><ele>190.0</ele><time>2026-04-25T09:24:35.117Z</time></trkpt><trkpt lat="43.4407767" lon="10.5679883"><ele>190.0</ele><time>2026-04-25T09:24:36.121Z</time></trkpt><trkpt lat="43.4406717" lon="10.568045"><ele>190.0</ele><time>2026-04-25T09:24:37.135Z</time></trkpt><trkpt lat="43.4405633" lon="10.5680817"><ele>190.0</ele><time>2026-04-25T09:24:38.128Z</time></trkpt><trkpt lat="43.4404583" lon="10.56807"><ele>190.0</ele><time>2026-04-25T09:24:39.124Z</time></trkpt><trkpt lat="43.4403433" lon="10.5680117"><ele>189.33333333333334</ele><time>2026-04-25T09:24:40.131Z</time></trkpt><trkpt lat="43.4402033" lon="10.5679117"><ele>188.66666666666666</ele><time>2026-04-25T09:24:41.122Z</time></trkpt><trkpt lat="43.440025" lon="10.5677767"><ele>188.0</ele><time>2026-04-25T09:24:42.123Z</time></trkpt><trkpt lat="43.439845" lon="10.5676417"><ele>188.0</ele><time>2026-04-25T09:24:43.125Z</time></trkpt><trkpt lat="43.43968" lon="10.567515"><ele>188.0</ele><time>2026-04-25T09:24:44.121Z</time></trkpt><trkpt lat="43.4395367" lon="10.567385"><ele>188.0</ele><time>2026-04-25T09:24:45.123Z</time></trkpt><trkpt lat="43.4394117" lon="10.5672483"><ele>189.25</ele><time>2026-04-25T09:24:46.121Z</time></trkpt><trkpt lat="43.4393" lon="10.5671067"><ele>190.5</ele><time>2026-04-25T09:24:47.12Z</time></trkpt><trkpt lat="43.4392017" lon="10.56697"><ele>191.75</ele><time>2026-04-25T09:24:48.11Z</time></trkpt><trkpt lat="43.4390967" lon="10.566855"><ele>193.0</ele><time>2026-04-25T09:24:49.114Z</time></trkpt><trkpt lat="43.4389767" lon="10.5667617"><ele>193.0</ele><time>2026-04-25T09:24:50.122Z</time></trkpt><trkpt lat="43.43884" lon="10.5667017"><ele>193.0</ele><time>2026-04-25T09:24:51.126Z</time></trkpt><trkpt lat="43.4386933" lon="10.566675"><ele>193.0</ele><time>2026-04-25T09:24:52.128Z</time></trkpt><trkpt lat="43.438545" lon="10.56667"><ele>193.0</ele><time>2026-04-25T09:24:53.12Z</time></trkpt><trkpt lat="43.4384067" lon="10.566675"><ele>193.75</ele><time>2026-04-25T09:24:54.128Z</time></trkpt><trkpt lat="43.438275" lon="10.5666833"><ele>194.5</ele><time>2026-04-25T09:24:55.132Z</time></trkpt><trkpt lat="43.4381517" lon="10.56669"><ele>195.25</ele><time>2026-04-25T09:24:56.121Z</time></trkpt><trkpt lat="43.4380433" lon="10.56669"><ele>196.0</ele><time>2026-04-25T09:24:57.116Z</time></trkpt><trkpt lat="43.4379467" lon="10.5667083"><ele>194.60000000000002</ele><time>2026-04-25T09:24:58.118Z</time></trkpt><trkpt lat="43.4378567" lon="10.5667467"><ele>193.2</ele><time>2026-04-25T09:24:59.138Z</time></trkpt><trkpt lat="43.4377783" lon="10.5668217"><ele>191.8</ele><time>2026-04-25T09:25:00.121Z</time></trkpt><trkpt lat="43.437725" lon="10.56694"><ele>190.39999999999998</ele><time>2026-04-25T09:25:01.132Z</time></trkpt><trkpt lat="43.4376967" lon="10.5670933"><ele>189.0</ele><time>2026-04-25T09:25:02.12Z</time></trkpt><trkpt lat="43.43768" lon="10.56725"><ele>189.0</ele><time>2026-04-25T09:25:03.114Z</time></trkpt><trkpt lat="43.4376617" lon="10.5673783"><ele>189.0</ele><time>2026-04-25T09:25:04.117Z</time></trkpt><trkpt lat="43.4376233" lon="10.5674833"><ele>189.0</ele><time>2026-04-25T09:25:05.118Z</time></trkpt><trkpt lat="43.4375633" lon="10.5675717"><ele>189.0</ele><time>2026-04-25T09:25:06.123Z</time></trkpt><trkpt lat="43.4374683" lon="10.567635"><ele>189.0</ele><time>2026-04-25T09:25:07.125Z</time></trkpt><trkpt lat="43.4373267" lon="10.567655"><ele>189.0</ele><time>2026-04-25T09:25:08.121Z</time></trkpt><trkpt lat="43.4371817" lon="10.5676433"><ele>189.0</ele><time>2026-04-25T09:25:09.121Z</time></trkpt><trkpt lat="43.4370467" lon="10.5675883"><ele>189.0</ele><time>2026-04-25T09:25:10.12Z</time></trkpt><trkpt lat="43.436925" lon="10.567495"><ele>189.0</ele><time>2026-04-25T09:25:11.118Z</time></trkpt><trkpt lat="43.43682" lon="10.56741"><ele>188.39999999999998</ele><time>2026-04-25T09:25:12.125Z</time></trkpt><trkpt lat="43.4367217" lon="10.5673483"><ele>187.8</ele><time>2026-04-25T09:25:13.13Z</time></trkpt><trkpt lat="43.43662" lon="10.5673333"><ele>187.2</ele><time>2026-04-25T09:25:14.131Z</time></trkpt><trkpt lat="43.436515" lon="10.5673617"><ele>186.60000000000002</ele><time>2026-04-25T09:25:15.135Z</time></trkpt><trkpt lat="43.4364067" lon="10.5674333"><ele>186.0</ele><time>2026-04-25T09:25:16.123Z</time></trkpt><trkpt lat="43.4362867" lon="10.5675233"><ele>185.5</ele><time>2026-04-25T09:25:17.13Z</time></trkpt><trkpt lat="43.4361633" lon="10.567605"><ele>185.0</ele><time>2026-04-25T09:25:18.127Z</time></trkpt><trkpt lat="43.4360433" lon="10.56766"><ele>184.5</ele><time>2026-04-25T09:25:19.13Z</time></trkpt><trkpt lat="43.4359267" lon="10.5676867"><ele>184.0</ele><time>2026-04-25T09:25:20.131Z</time></trkpt><trkpt lat="43.4358167" lon="10.5676883"><ele>184.0</ele><time>2026-04-25T09:25:21.128Z</time></trkpt><trkpt lat="43.4357017" lon="10.567675"><ele>184.0</ele><time>2026-04-25T09:25:22.119Z</time></trkpt><trkpt lat="43.43558" lon="10.56765"><ele>184.0</ele><time>2026-04-25T09:25:23.132Z</time></trkpt><trkpt lat="43.43545" lon="10.5676083"><ele>184.0</ele><time>2026-04-25T09:25:24.121Z</time></trkpt><trkpt lat="43.4353183" lon="10.5675517"><ele>184.25</ele><time>2026-04-25T09:25:25.122Z</time></trkpt><trkpt lat="43.43519" lon="10.5674783"><ele>184.5</ele><time>2026-04-25T09:25:26.115Z</time></trkpt><trkpt lat="43.4350733" lon="10.5674033"><ele>184.75</ele><time>2026-04-25T09:25:27.119Z</time></trkpt><trkpt lat="43.434965" lon="10.56733"><ele>185.0</ele><time>2026-04-25T09:25:28.123Z</time></trkpt><trkpt lat="43.4348617" lon="10.5672617"><ele>185.0</ele><time>2026-04-25T09:25:29.123Z</time></trkpt><trkpt lat="43.4347633" lon="10.567195"><ele>185.0</ele><time>2026-04-25T09:25:30.123Z</time></trkpt><trkpt lat="43.4346733" lon="10.5671283"><ele>185.0</ele><time>2026-04-25T09:25:31.125Z</time></trkpt><trkpt lat="43.4345867" lon="10.5670583"><ele>185.0</ele><time>2026-04-25T09:25:32.123Z</time></trkpt><trkpt lat="43.4345083" lon="10.566975"><ele>185.0</ele><time>2026-04-25T09:25:33.126Z</time></trkpt><trkpt lat="43.4344467" lon="10.5668733"><ele>184.0</ele><time>2026-04-25T09:25:34.125Z</time></trkpt><trkpt lat="43.4343883" lon="10.566765"><ele>183.0</ele><time>2026-04-25T09:25:35.126Z</time></trkpt><trkpt lat="43.4343283" lon="10.5666533"><ele>182.0</ele><time>2026-04-25T09:25:36.118Z</time></trkpt><trkpt lat="43.43427" lon="10.5665383"><ele>181.0</ele><time>2026-04-25T09:25:37.122Z</time></trkpt><trkpt lat="43.4342083" lon="10.5664283"><ele>180.0</ele><time>2026-04-25T09:25:38.121Z</time></trkpt><trkpt lat="43.4341433" lon="10.566325"><ele>180.0</ele><time>2026-04-25T09:25:39.122Z</time></trkpt><trkpt lat="43.4340833" lon="10.5662283"><ele>180.0</ele><time>2026-04-25T09:25:40.136Z</time></trkpt><trkpt lat="43.4340283" lon="10.5661283"><ele>180.0</ele><time>2026-04-25T09:25:41.117Z</time></trkpt><trkpt lat="43.4339817" lon="10.56603"><ele>180.0</ele><time>2026-04-25T09:25:42.119Z</time></trkpt><trkpt lat="43.4339417" lon="10.5659333"><ele>180.0</ele><time>2026-04-25T09:25:43.123Z</time></trkpt><trkpt lat="43.433905" lon="10.56583"><ele>180.0</ele><time>2026-04-25T09:25:44.125Z</time></trkpt><trkpt lat="43.43387" lon="10.5657317"><ele>179.33333333333334</ele><time>2026-04-25T09:25:45.132Z</time></trkpt><trkpt lat="43.433825" lon="10.5656533"><ele>178.66666666666666</ele><time>2026-04-25T09:25:46.125Z</time></trkpt><trkpt lat="43.4337267" lon="10.5655617"><ele>178.0</ele><time>2026-04-25T09:25:48.126Z</time></trkpt><trkpt lat="43.4336083" lon="10.565565"><ele>177.33333333333331</ele><time>2026-04-25T09:25:50.124Z</time></trkpt><trkpt lat="43.433545" lon="10.56559"><ele>176.66666666666666</ele><time>2026-04-25T09:25:51.116Z</time></trkpt><trkpt lat="43.43348" lon="10.5656267"><ele>176.0</ele><time>2026-04-25T09:25:52.119Z</time></trkpt><trkpt lat="43.433415" lon="10.5656767"><ele>176.0</ele><time>2026-04-25T09:25:53.126Z</time></trkpt><trkpt lat="43.4333533" lon="10.5657317"><ele>176.0</ele><time>2026-04-25T09:25:54.121Z</time></trkpt><trkpt lat="43.43329" lon="10.5657867"><ele>176.0</ele><time>2026-04-25T09:25:55.128Z</time></trkpt><trkpt lat="43.4332267" lon="10.565835"><ele>176.0</ele><time>2026-04-25T09:25:56.142Z</time></trkpt><trkpt lat="43.4331633" lon="10.5658817"><ele>176.0</ele><time>2026-04-25T09:25:57.122Z</time></trkpt><trkpt lat="43.4331033" lon="10.5659333"><ele>176.0</ele><time>2026-04-25T09:25:58.12Z</time></trkpt><trkpt lat="43.4330483" lon="10.5659883"><ele>176.0</ele><time>2026-04-25T09:25:59.124Z</time></trkpt><trkpt lat="43.4329933" lon="10.5660417"><ele>176.33333333333331</ele><time>2026-04-25T09:26:00.118Z</time></trkpt><trkpt lat="43.4328917" lon="10.5661367"><ele>176.66666666666666</ele><time>2026-04-25T09:26:02.126Z</time></trkpt><trkpt lat="43.43284" lon="10.5661883"><ele>177.0</ele><time>2026-04-25T09:26:03.121Z</time></trkpt><trkpt lat="43.43273" lon="10.5662817"><ele>177.33333333333334</ele><time>2026-04-25T09:26:05.124Z</time></trkpt><trkpt lat="43.4326733" lon="10.5663317"><ele>177.66666666666669</ele><time>2026-04-25T09:26:06.127Z</time></trkpt><trkpt lat="43.43262" lon="10.5663817"><ele>178.0</ele><time>2026-04-25T09:26:07.122Z</time></trkpt><trkpt lat="43.4325667" lon="10.5664317"><ele>178.0</ele><time>2026-04-25T09:26:08.124Z</time></trkpt><trkpt lat="43.43251" lon="10.566485"><ele>178.0</ele><time>2026-04-25T09:26:09.131Z</time></trkpt><trkpt lat="43.432455" lon="10.566535"><ele>178.0</ele><time>2026-04-25T09:26:10.123Z</time></trkpt><trkpt lat="43.4323533" lon="10.566635"><ele>178.0</ele><time>2026-04-25T09:26:12.13Z</time></trkpt><trkpt lat="43.4322983" lon="10.5666933"><ele>178.0</ele><time>2026-04-25T09:26:13.13Z</time></trkpt><trkpt lat="43.4322433" lon="10.566755"><ele>178.0</ele><time>2026-04-25T09:26:14.119Z</time></trkpt><trkpt lat="43.4321883" lon="10.5668133"><ele>176.8</ele><time>2026-04-25T09:26:15.12Z</time></trkpt><trkpt lat="43.4321333" lon="10.5668717"><ele>175.60000000000002</ele><time>2026-04-25T09:26:16.122Z</time></trkpt><trkpt lat="43.4320583" lon="10.567005"><ele>174.39999999999998</ele><time>2026-04-25T09:26:18.119Z</time></trkpt><trkpt lat="43.43203" lon="10.5671783"><ele>173.2</ele><time>2026-04-25T09:26:20.111Z</time></trkpt><trkpt lat="43.4320367" lon="10.5672867"><ele>172.0</ele><time>2026-04-25T09:26:21.111Z</time></trkpt><trkpt lat="43.432055" lon="10.56742"><ele>173.0</ele><time>2026-04-25T09:26:22.125Z</time></trkpt><trkpt lat="43.432085" lon="10.5675717"><ele>174.0</ele><time>2026-04-25T09:26:23.125Z</time></trkpt><trkpt lat="43.43212" lon="10.5677283"><ele>175.0</ele><time>2026-04-25T09:26:24.121Z</time></trkpt><trkpt lat="43.432165" lon="10.56788"><ele>176.0</ele><time>2026-04-25T09:26:25.12Z</time></trkpt><trkpt lat="43.4322133" lon="10.5680317"><ele>176.0</ele><time>2026-04-25T09:26:26.122Z</time></trkpt><trkpt lat="43.4322733" lon="10.56818"><ele>176.0</ele><time>2026-04-25T09:26:27.125Z</time></trkpt><trkpt lat="43.4323467" lon="10.5683233"><ele>176.0</ele><time>2026-04-25T09:26:28.13Z</time></trkpt><trkpt lat="43.4324183" lon="10.5684683"><ele>176.0</ele><time>2026-04-25T09:26:29.123Z</time></trkpt><trkpt lat="43.43248" lon="10.568615"><ele>173.5</ele><time>2026-04-25T09:26:30.115Z</time></trkpt><trkpt lat="43.4325333" lon="10.5687633"><ele>171.0</ele><time>2026-04-25T09:26:31.116Z</time></trkpt><trkpt lat="43.4325817" lon="10.5689117"><ele>168.5</ele><time>2026-04-25T09:26:32.126Z</time></trkpt><trkpt lat="43.4326283" lon="10.5690633"><ele>166.0</ele><time>2026-04-25T09:26:33.115Z</time></trkpt><trkpt lat="43.4326783" lon="10.5692233"><ele>166.0</ele><time>2026-04-25T09:26:34.119Z</time></trkpt><trkpt lat="43.4327233" lon="10.569385"><ele>166.0</ele><time>2026-04-25T09:26:35.113Z</time></trkpt><trkpt lat="43.432755" lon="10.5695283"><ele>166.0</ele><time>2026-04-25T09:26:36.112Z</time></trkpt><trkpt lat="43.4327867" lon="10.56965"><ele>166.0</ele><time>2026-04-25T09:26:37.117Z</time></trkpt><trkpt lat="43.4328283" lon="10.5697617"><ele>166.0</ele><time>2026-04-25T09:26:38.121Z</time></trkpt><trkpt lat="43.4329" lon="10.56987"><ele>168.60000000000002</ele><time>2026-04-25T09:26:39.116Z</time></trkpt><trkpt lat="43.4329867" lon="10.5699683"><ele>171.2</ele><time>2026-04-25T09:26:40.126Z</time></trkpt><trkpt lat="43.4330683" lon="10.5700617"><ele>173.8</ele><time>2026-04-25T09:26:41.118Z</time></trkpt><trkpt lat="43.4331367" lon="10.57016"><ele>176.39999999999998</ele><time>2026-04-25T09:26:42.119Z</time></trkpt><trkpt lat="43.4331767" lon="10.5702717"><ele>179.0</ele><time>2026-04-25T09:26:43.121Z</time></trkpt><trkpt lat="43.43319" lon="10.5704"><ele>180.0</ele><time>2026-04-25T09:26:44.12Z</time></trkpt><trkpt lat="43.43318" lon="10.5705283"><ele>181.0</ele><time>2026-04-25T09:26:45.118Z</time></trkpt><trkpt lat="43.4331317" lon="10.5706533"><ele>182.0</ele><time>2026-04-25T09:26:46.123Z</time></trkpt><trkpt lat="43.433035" lon="10.570785"><ele>183.0</ele><time>2026-04-25T09:26:47.126Z</time></trkpt><trkpt lat="43.4329167" lon="10.5709317"><ele>180.0</ele><time>2026-04-25T09:26:48.124Z</time></trkpt><trkpt lat="43.4327917" lon="10.5710833"><ele>177.0</ele><time>2026-04-25T09:26:49.122Z</time></trkpt><trkpt lat="43.4326767" lon="10.5712233"><ele>174.0</ele><time>2026-04-25T09:26:50.117Z</time></trkpt><trkpt lat="43.4325767" lon="10.5713433"><ele>174.0</ele><time>2026-04-25T09:26:51.12Z</time></trkpt><trkpt lat="43.4324917" lon="10.5714467"><ele>174.0</ele><time>2026-04-25T09:26:52.117Z</time></trkpt><trkpt lat="43.43242" lon="10.5715317"><ele>174.0</ele><time>2026-04-25T09:26:53.126Z</time></trkpt><trkpt lat="43.4323567" lon="10.571605"><ele>174.0</ele><time>2026-04-25T09:26:54.125Z</time></trkpt><trkpt lat="43.4322967" lon="10.5716583"><ele>174.0</ele><time>2026-04-25T09:26:55.113Z</time></trkpt><trkpt lat="43.43218" lon="10.5716867"><ele>172.79999999999998</ele><time>2026-04-25T09:26:57.126Z</time></trkpt><trkpt lat="43.4320567" lon="10.5716567"><ele>171.6</ele><time>2026-04-25T09:26:59.122Z</time></trkpt><trkpt lat="43.4319367" lon="10.571625"><ele>170.4</ele><time>2026-04-25T09:27:01.11Z</time></trkpt><trkpt lat="43.431875" lon="10.5716067"><ele>169.2</ele><time>2026-04-25T09:27:02.116Z</time></trkpt><trkpt lat="43.43177" lon="10.5715367"><ele>168.0</ele><time>2026-04-25T09:27:04.126Z</time></trkpt><trkpt lat="43.431715" lon="10.57141"><ele>168.0</ele><time>2026-04-25T09:27:06.114Z</time></trkpt><trkpt lat="43.4316817" lon="10.5712333"><ele>168.0</ele><time>2026-04-25T09:27:08.116Z</time></trkpt><trkpt lat="43.431685" lon="10.5711067"><ele>168.0</ele><time>2026-04-25T09:27:09.121Z</time></trkpt><trkpt lat="43.4316983" lon="10.5709617"><ele>168.0</ele><time>2026-04-25T09:27:10.132Z</time></trkpt><trkpt lat="43.4316933" lon="10.57082"><ele>168.0</ele><time>2026-04-25T09:27:11.119Z</time></trkpt><trkpt lat="43.4316683" lon="10.57068"><ele>168.5</ele><time>2026-04-25T09:27:12.125Z</time></trkpt><trkpt lat="43.4316333" lon="10.57054"><ele>169.0</ele><time>2026-04-25T09:27:13.117Z</time></trkpt><trkpt lat="43.4315883" lon="10.5703917"><ele>169.5</ele><time>2026-04-25T09:27:14.121Z</time></trkpt><trkpt lat="43.4315217" lon="10.570225"><ele>170.0</ele><time>2026-04-25T09:27:15.122Z</time></trkpt><trkpt lat="43.43143" lon="10.57003"><ele>170.66666666666666</ele><time>2026-04-25T09:27:16.115Z</time></trkpt><trkpt lat="43.431345" lon="10.569825"><ele>171.33333333333334</ele><time>2026-04-25T09:27:17.122Z</time></trkpt><trkpt lat="43.4312683" lon="10.5696417"><ele>172.0</ele><time>2026-04-25T09:27:18.116Z</time></trkpt><trkpt lat="43.4312133" lon="10.56947"><ele>172.0</ele><time>2026-04-25T09:27:19.119Z</time></trkpt><trkpt lat="43.4311633" lon="10.5693233"><ele>172.0</ele><time>2026-04-25T09:27:20.122Z</time></trkpt><trkpt lat="43.43111" lon="10.5692133"><ele>172.0</ele><time>2026-04-25T09:27:21.116Z</time></trkpt><trkpt lat="43.4310417" lon="10.56914"><ele>172.0</ele><time>2026-04-25T09:27:22.13Z</time></trkpt><trkpt lat="43.430955" lon="10.5690983"><ele>172.0</ele><time>2026-04-25T09:27:23.114Z</time></trkpt><trkpt lat="43.430855" lon="10.5691"><ele>172.0</ele><time>2026-04-25T09:27:24.123Z</time></trkpt><trkpt lat="43.4307233" lon="10.5691583"><ele>172.0</ele><time>2026-04-25T09:27:25.112Z</time></trkpt><trkpt lat="43.43059" lon="10.5692067"><ele>172.0</ele><time>2026-04-25T09:27:26.108Z</time></trkpt><trkpt lat="43.430455" lon="10.5692483"><ele>172.0</ele><time>2026-04-25T09:27:27.118Z</time></trkpt><trkpt lat="43.4303483" lon="10.56924"><ele>172.33333333333334</ele><time>2026-04-25T09:27:28.118Z</time></trkpt><trkpt lat="43.4302733" lon="10.5691983"><ele>172.66666666666669</ele><time>2026-04-25T09:27:29.137Z</time></trkpt><trkpt lat="43.430225" lon="10.5691283"><ele>173.0</ele><time>2026-04-25T09:27:30.128Z</time></trkpt><trkpt lat="43.430195" lon="10.569035"><ele>173.33333333333334</ele><time>2026-04-25T09:27:31.125Z</time></trkpt><trkpt lat="43.4301967" lon="10.5689067"><ele>173.66666666666666</ele><time>2026-04-25T09:27:32.126Z</time></trkpt><trkpt lat="43.430215" lon="10.56874"><ele>174.0</ele><time>2026-04-25T09:27:33.12Z</time></trkpt><trkpt lat="43.43022" lon="10.5685767"><ele>174.0</ele><time>2026-04-25T09:27:34.119Z</time></trkpt><trkpt lat="43.430195" lon="10.568425"><ele>174.0</ele><time>2026-04-25T09:27:35.121Z</time></trkpt><trkpt lat="43.4301233" lon="10.568285"><ele>174.0</ele><time>2026-04-25T09:27:36.117Z</time></trkpt><trkpt lat="43.43002" lon="10.5681383"><ele>174.0</ele><time>2026-04-25T09:27:37.121Z</time></trkpt><trkpt lat="43.42989" lon="10.5679883"><ele>174.0</ele><time>2026-04-25T09:27:38.128Z</time></trkpt><trkpt lat="43.4297567" lon="10.56785"><ele>174.0</ele><time>2026-04-25T09:27:39.129Z</time></trkpt><trkpt lat="43.429625" lon="10.5677367"><ele>174.0</ele><time>2026-04-25T09:27:40.112Z</time></trkpt><trkpt lat="43.4294833" lon="10.56766"><ele>174.0</ele><time>2026-04-25T09:27:41.116Z</time></trkpt><trkpt lat="43.4293217" lon="10.567615"><ele>174.0</ele><time>2026-04-25T09:27:42.125Z</time></trkpt><trkpt lat="43.429165" lon="10.56759"><ele>174.0</ele><time>2026-04-25T09:27:43.12Z</time></trkpt><trkpt lat="43.42902" lon="10.5675967"><ele>174.0</ele><time>2026-04-25T09:27:44.128Z</time></trkpt><trkpt lat="43.4288783" lon="10.567655"><ele>174.0</ele><time>2026-04-25T09:27:45.119Z</time></trkpt><trkpt lat="43.4287317" lon="10.5677483"><ele>174.0</ele><time>2026-04-25T09:27:46.125Z</time></trkpt><trkpt lat="43.4285983" lon="10.567845"><ele>174.66666666666666</ele><time>2026-04-25T09:27:47.124Z</time></trkpt><trkpt lat="43.42849" lon="10.5679183"><ele>175.33333333333334</ele><time>2026-04-25T09:27:48.124Z</time></trkpt><trkpt lat="43.4284033" lon="10.5679567"><ele>176.0</ele><time>2026-04-25T09:27:49.123Z</time></trkpt><trkpt lat="43.428325" lon="10.5679683"><ele>176.66666666666669</ele><time>2026-04-25T09:27:50.119Z</time></trkpt><trkpt lat="43.4282567" lon="10.5679483"><ele>177.33333333333334</ele><time>2026-04-25T09:27:51.118Z</time></trkpt><trkpt lat="43.4281983" lon="10.5678917"><ele>178.0</ele><time>2026-04-25T09:27:52.116Z</time></trkpt><trkpt lat="43.4281617" lon="10.5677733"><ele>178.0</ele><time>2026-04-25T09:27:53.124Z</time></trkpt><trkpt lat="43.4281433" lon="10.5675833"><ele>178.0</ele><time>2026-04-25T09:27:54.125Z</time></trkpt><trkpt lat="43.428105" lon="10.56737"><ele>178.0</ele><time>2026-04-25T09:27:55.123Z</time></trkpt><trkpt lat="43.4280417" lon="10.567175"><ele>180.25</ele><time>2026-04-25T09:27:56.12Z</time></trkpt><trkpt lat="43.4279517" lon="10.5670267"><ele>182.5</ele><time>2026-04-25T09:27:57.119Z</time></trkpt><trkpt lat="43.4278317" lon="10.5669167"><ele>184.75</ele><time>2026-04-25T09:27:58.124Z</time></trkpt><trkpt lat="43.4277033" lon="10.5668283"><ele>187.0</ele><time>2026-04-25T09:27:59.117Z</time></trkpt><trkpt lat="43.42759" lon="10.566755"><ele>187.0</ele><time>2026-04-25T09:28:00.115Z</time></trkpt><trkpt lat="43.427505" lon="10.566685"><ele>187.0</ele><time>2026-04-25T09:28:01.114Z</time></trkpt><trkpt lat="43.42746" lon="10.5666117"><ele>187.0</ele><time>2026-04-25T09:28:02.122Z</time></trkpt><trkpt lat="43.4274433" lon="10.56647"><ele>187.0</ele><time>2026-04-25T09:28:04.124Z</time></trkpt><trkpt lat="43.42755" lon="10.5663433"><ele>187.0</ele><time>2026-04-25T09:28:06.127Z</time></trkpt><trkpt lat="43.427625" lon="10.56628"><ele>187.0</ele><time>2026-04-25T09:28:07.122Z</time></trkpt><trkpt lat="43.4276833" lon="10.5662067"><ele>187.0</ele><time>2026-04-25T09:28:08.127Z</time></trkpt><trkpt lat="43.42771" lon="10.5661217"><ele>187.0</ele><time>2026-04-25T09:28:09.121Z</time></trkpt><trkpt lat="43.4277167" lon="10.5660267"><ele>187.0</ele><time>2026-04-25T09:28:10.119Z</time></trkpt><trkpt lat="43.4276933" lon="10.5659183"><ele>187.0</ele><time>2026-04-25T09:28:11.118Z</time></trkpt><trkpt lat="43.4276367" lon="10.5658117"><ele>187.0</ele><time>2026-04-25T09:28:12.122Z</time></trkpt><trkpt lat="43.427555" lon="10.5656983"><ele>187.5</ele><time>2026-04-25T09:28:13.123Z</time></trkpt><trkpt lat="43.4274783" lon="10.565585"><ele>188.0</ele><time>2026-04-25T09:28:14.125Z</time></trkpt><trkpt lat="43.4273683" lon="10.5654533"><ele>188.5</ele><time>2026-04-25T09:28:15.124Z</time></trkpt><trkpt lat="43.4272417" lon="10.565315"><ele>189.0</ele><time>2026-04-25T09:28:16.114Z</time></trkpt><trkpt lat="43.4270933" lon="10.5651667"><ele>190.75</ele><time>2026-04-25T09:28:17.116Z</time></trkpt><trkpt lat="43.426965" lon="10.5650467"><ele>192.5</ele><time>2026-04-25T09:28:18.125Z</time></trkpt><trkpt lat="43.4268417" lon="10.56494"><ele>194.25</ele><time>2026-04-25T09:28:19.124Z</time></trkpt><trkpt lat="43.426725" lon="10.56486"><ele>196.0</ele><time>2026-04-25T09:28:20.121Z</time></trkpt><trkpt lat="43.426615" lon="10.5648217"><ele>196.0</ele><time>2026-04-25T09:28:21.125Z</time></trkpt><trkpt lat="43.4265117" lon="10.5648167"><ele>196.0</ele><time>2026-04-25T09:28:22.119Z</time></trkpt><trkpt lat="43.42639" lon="10.5648633"><ele>196.0</ele><time>2026-04-25T09:28:23.12Z</time></trkpt><trkpt lat="43.4262567" lon="10.5649117"><ele>196.0</ele><time>2026-04-25T09:28:24.124Z</time></trkpt><trkpt lat="43.4261133" lon="10.5649383"><ele>197.75</ele><time>2026-04-25T09:28:25.124Z</time></trkpt><trkpt lat="43.425975" lon="10.5649183"><ele>199.5</ele><time>2026-04-25T09:28:26.137Z</time></trkpt><trkpt lat="43.42584" lon="10.564885"><ele>201.25</ele><time>2026-04-25T09:28:27.13Z</time></trkpt><trkpt lat="43.4257233" lon="10.5648683"><ele>203.0</ele><time>2026-04-25T09:28:28.136Z</time></trkpt><trkpt lat="43.4256117" lon="10.5648867"><ele>203.0</ele><time>2026-04-25T09:28:29.117Z</time></trkpt><trkpt lat="43.4254983" lon="10.5649283"><ele>203.0</ele><time>2026-04-25T09:28:30.126Z</time></trkpt><trkpt lat="43.4254" lon="10.5650017"><ele>203.0</ele><time>2026-04-25T09:28:31.118Z</time></trkpt><trkpt lat="43.4253167" lon="10.5651033"><ele>203.0</ele><time>2026-04-25T09:28:32.121Z</time></trkpt><trkpt lat="43.4252617" lon="10.5652367"><ele>205.25</ele><time>2026-04-25T09:28:33.126Z</time></trkpt><trkpt lat="43.4252417" lon="10.5653883"><ele>207.5</ele><time>2026-04-25T09:28:34.114Z</time></trkpt><trkpt lat="43.4252383" lon="10.5655417"><ele>209.75</ele><time>2026-04-25T09:28:35.121Z</time></trkpt><trkpt lat="43.4252583" lon="10.56569"><ele>212.0</ele><time>2026-04-25T09:28:36.113Z</time></trkpt><trkpt lat="43.4253" lon="10.5658483"><ele>212.0</ele><time>2026-04-25T09:28:37.123Z</time></trkpt><trkpt lat="43.4253417" lon="10.5659967"><ele>212.0</ele><time>2026-04-25T09:28:38.118Z</time></trkpt><trkpt lat="43.4253617" lon="10.566125"><ele>212.0</ele><time>2026-04-25T09:28:39.119Z</time></trkpt><trkpt lat="43.42537" lon="10.5662417"><ele>212.0</ele><time>2026-04-25T09:28:40.121Z</time></trkpt><trkpt lat="43.4253467" lon="10.566345"><ele>212.0</ele><time>2026-04-25T09:28:41.129Z</time></trkpt><trkpt lat="43.4253" lon="10.56643"><ele>214.39999999999998</ele><time>2026-04-25T09:28:42.124Z</time></trkpt><trkpt lat="43.4252383" lon="10.5665167"><ele>216.79999999999998</ele><time>2026-04-25T09:28:43.129Z</time></trkpt><trkpt lat="43.4251483" lon="10.56656"><ele>219.2</ele><time>2026-04-25T09:28:44.116Z</time></trkpt><trkpt lat="43.425055" lon="10.566565"><ele>221.6</ele><time>2026-04-25T09:28:45.119Z</time></trkpt><trkpt lat="43.4249383" lon="10.5664817"><ele>224.0</ele><time>2026-04-25T09:28:46.124Z</time></trkpt><trkpt lat="43.424815" lon="10.5663217"><ele>226.0</ele><time>2026-04-25T09:28:47.116Z</time></trkpt><trkpt lat="43.4246617" lon="10.5660267"><ele>228.0</ele><time>2026-04-25T09:28:48.122Z</time></trkpt><trkpt lat="43.424575" lon="10.5657433"><ele>228.0</ele><time>2026-04-25T09:28:49.125Z</time></trkpt><trkpt lat="43.4245167" lon="10.5655183"><ele>228.0</ele><time>2026-04-25T09:28:50.122Z</time></trkpt><trkpt lat="43.4244467" lon="10.5653417"><ele>228.0</ele><time>2026-04-25T09:28:51.129Z</time></trkpt><trkpt lat="43.42436" lon="10.5651833"><ele>226.4</ele><time>2026-04-25T09:28:52.122Z</time></trkpt><trkpt lat="43.4242617" lon="10.5650617"><ele>224.8</ele><time>2026-04-25T09:28:53.125Z</time></trkpt><trkpt lat="43.4241583" lon="10.5649867"><ele>223.2</ele><time>2026-04-25T09:28:54.122Z</time></trkpt><trkpt lat="43.42407" lon="10.56495"><ele>221.6</ele><time>2026-04-25T09:28:55.127Z</time></trkpt><trkpt lat="43.4239933" lon="10.5649433"><ele>220.0</ele><time>2026-04-25T09:28:56.12Z</time></trkpt><trkpt lat="43.4239267" lon="10.5649717"><ele>220.0</ele><time>2026-04-25T09:28:57.128Z</time></trkpt><trkpt lat="43.42388" lon="10.5650567"><ele>220.0</ele><time>2026-04-25T09:28:58.124Z</time></trkpt><trkpt lat="43.4238533" lon="10.5651733"><ele>220.0</ele><time>2026-04-25T09:28:59.124Z</time></trkpt><trkpt lat="43.4238617" lon="10.56532"><ele>220.0</ele><time>2026-04-25T09:29:00.127Z</time></trkpt><trkpt lat="43.4239133" lon="10.5655133"><ele>220.0</ele><time>2026-04-25T09:29:01.123Z</time></trkpt><trkpt lat="43.4239717" lon="10.5657367"><ele>222.0</ele><time>2026-04-25T09:29:02.124Z</time></trkpt><trkpt lat="43.4240367" lon="10.56594"><ele>224.0</ele><time>2026-04-25T09:29:03.133Z</time></trkpt><trkpt lat="43.4241133" lon="10.5661233"><ele>226.0</ele><time>2026-04-25T09:29:04.123Z</time></trkpt><trkpt lat="43.42417" lon="10.5662683"><ele>228.0</ele><time>2026-04-25T09:29:05.115Z</time></trkpt><trkpt lat="43.4241983" lon="10.5663867"><ele>228.8</ele><time>2026-04-25T09:29:06.127Z</time></trkpt><trkpt lat="43.4242067" lon="10.5664933"><ele>229.60000000000002</ele><time>2026-04-25T09:29:07.129Z</time></trkpt><trkpt lat="43.4242" lon="10.5665867"><ele>230.39999999999998</ele><time>2026-04-25T09:29:08.118Z</time></trkpt><trkpt lat="43.4241017" lon="10.5666633"><ele>231.2</ele><time>2026-04-25T09:29:10.12Z</time></trkpt><trkpt lat="43.4240167" lon="10.5666467"><ele>232.0</ele><time>2026-04-25T09:29:11.116Z</time></trkpt><trkpt lat="43.4238833" lon="10.5665933"><ele>233.0</ele><time>2026-04-25T09:29:12.117Z</time></trkpt><trkpt lat="43.4237433" lon="10.566545"><ele>234.0</ele><time>2026-04-25T09:29:13.125Z</time></trkpt><trkpt lat="43.4236033" lon="10.5665433"><ele>235.0</ele><time>2026-04-25T09:29:14.116Z</time></trkpt><trkpt lat="43.4234417" lon="10.5665783"><ele>236.0</ele><time>2026-04-25T09:29:15.126Z</time></trkpt><trkpt lat="43.4232733" lon="10.566635"><ele>236.0</ele><time>2026-04-25T09:29:16.135Z</time></trkpt><trkpt lat="43.4231133" lon="10.5666917"><ele>236.0</ele><time>2026-04-25T09:29:17.119Z</time></trkpt><trkpt lat="43.4229633" lon="10.56672"><ele>236.0</ele><time>2026-04-25T09:29:18.123Z</time></trkpt><trkpt lat="43.4228083" lon="10.5667117"><ele>237.66666666666669</ele><time>2026-04-25T09:29:19.122Z</time></trkpt><trkpt lat="43.4226317" lon="10.5666733"><ele>239.33333333333331</ele><time>2026-04-25T09:29:20.112Z</time></trkpt><trkpt lat="43.42245" lon="10.5666267"><ele>241.0</ele><time>2026-04-25T09:29:21.115Z</time></trkpt><trkpt lat="43.4222833" lon="10.566605"><ele>241.0</ele><time>2026-04-25T09:29:22.113Z</time></trkpt><trkpt lat="43.4221233" lon="10.566615"><ele>241.0</ele><time>2026-04-25T09:29:23.123Z</time></trkpt><trkpt lat="43.42196" lon="10.5666667"><ele>241.0</ele><time>2026-04-25T09:29:24.119Z</time></trkpt><trkpt lat="43.42179" lon="10.5667567"><ele>241.0</ele><time>2026-04-25T09:29:25.121Z</time></trkpt><trkpt lat="43.4216333" lon="10.5668533"><ele>241.0</ele><time>2026-04-25T09:29:26.12Z</time></trkpt><trkpt lat="43.4214983" lon="10.566945"><ele>241.0</ele><time>2026-04-25T09:29:27.143Z</time></trkpt><trkpt lat="43.42138" lon="10.56703"><ele>247.0</ele><time>2026-04-25T09:29:28.117Z</time></trkpt><trkpt lat="43.4212767" lon="10.567125"><ele>253.0</ele><time>2026-04-25T09:29:29.127Z</time></trkpt><trkpt lat="43.4211933" lon="10.56724"><ele>259.0</ele><time>2026-04-25T09:29:30.13Z</time></trkpt><trkpt lat="43.42114" lon="10.5673717"><ele>265.0</ele><time>2026-04-25T09:29:31.122Z</time></trkpt><trkpt lat="43.4211117" lon="10.567515"><ele>265.0</ele><time>2026-04-25T09:29:32.125Z</time></trkpt><trkpt lat="43.421115" lon="10.5676683"><ele>265.0</ele><time>2026-04-25T09:29:33.12Z</time></trkpt><trkpt lat="43.4211667" lon="10.5678283"><ele>265.0</ele><time>2026-04-25T09:29:34.128Z</time></trkpt><trkpt lat="43.42126" lon="10.5679817"><ele>265.0</ele><time>2026-04-25T09:29:35.116Z</time></trkpt><trkpt lat="43.4213633" lon="10.5681217"><ele>262.5</ele><time>2026-04-25T09:29:36.126Z</time></trkpt><trkpt lat="43.4214767" lon="10.5682333"><ele>260.0</ele><time>2026-04-25T09:29:37.118Z</time></trkpt><trkpt lat="43.4216067" lon="10.56831"><ele>257.5</ele><time>2026-04-25T09:29:38.119Z</time></trkpt><trkpt lat="43.421755" lon="10.5683483"><ele>255.0</ele><time>2026-04-25T09:29:39.121Z</time></trkpt><trkpt lat="43.42192" lon="10.5683467"><ele>255.0</ele><time>2026-04-25T09:29:40.111Z</time></trkpt><trkpt lat="43.422085" lon="10.5683317"><ele>255.0</ele><time>2026-04-25T09:29:41.12Z</time></trkpt><trkpt lat="43.422225" lon="10.5683467"><ele>255.0</ele><time>2026-04-25T09:29:42.113Z</time></trkpt><trkpt lat="43.42234" lon="10.5683917"><ele>255.0</ele><time>2026-04-25T09:29:43.12Z</time></trkpt><trkpt lat="43.4224317" lon="10.5684833"><ele>254.75</ele><time>2026-04-25T09:29:44.118Z</time></trkpt><trkpt lat="43.42252" lon="10.5686067"><ele>254.5</ele><time>2026-04-25T09:29:45.119Z</time></trkpt><trkpt lat="43.4226083" lon="10.5687183"><ele>254.25</ele><time>2026-04-25T09:29:46.125Z</time></trkpt><trkpt lat="43.422705" lon="10.56879"><ele>254.0</ele><time>2026-04-25T09:29:47.118Z</time></trkpt><trkpt lat="43.42282" lon="10.5688383"><ele>255.75</ele><time>2026-04-25T09:29:48.136Z</time></trkpt><trkpt lat="43.4229633" lon="10.5688517"><ele>257.5</ele><time>2026-04-25T09:29:49.128Z</time></trkpt><trkpt lat="43.4231" lon="10.5688667"><ele>259.25</ele><time>2026-04-25T09:29:50.117Z</time></trkpt><trkpt lat="43.42322" lon="10.5688983"><ele>261.0</ele><time>2026-04-25T09:29:51.123Z</time></trkpt><trkpt lat="43.4233233" lon="10.5689733"><ele>261.0</ele><time>2026-04-25T09:29:52.123Z</time></trkpt><trkpt lat="43.423415" lon="10.5690933"><ele>261.0</ele><time>2026-04-25T09:29:53.123Z</time></trkpt><trkpt lat="43.4235033" lon="10.5692533"><ele>261.0</ele><time>2026-04-25T09:29:54.126Z</time></trkpt><trkpt lat="43.4235817" lon="10.5694217"><ele>261.0</ele><time>2026-04-25T09:29:55.119Z</time></trkpt><trkpt lat="43.4236633" lon="10.5695633"><ele>262.25</ele><time>2026-04-25T09:29:56.127Z</time></trkpt><trkpt lat="43.4237533" lon="10.5696783"><ele>263.5</ele><time>2026-04-25T09:29:57.119Z</time></trkpt><trkpt lat="43.42386" lon="10.569755"><ele>264.75</ele><time>2026-04-25T09:29:58.122Z</time></trkpt><trkpt lat="43.42398" lon="10.5698033"><ele>266.0</ele><time>2026-04-25T09:29:59.119Z</time></trkpt><trkpt lat="43.4241217" lon="10.5698367"><ele>266.0</ele><time>2026-04-25T09:30:00.114Z</time></trkpt><trkpt lat="43.4242833" lon="10.5698667"><ele>266.0</ele><time>2026-04-25T09:30:01.117Z</time></trkpt><trkpt lat="43.4244383" lon="10.569895"><ele>266.0</ele><time>2026-04-25T09:30:02.113Z</time></trkpt><trkpt lat="43.4245733" lon="10.5699183"><ele>266.2</ele><time>2026-04-25T09:30:03.126Z</time></trkpt><trkpt lat="43.4246867" lon="10.569935"><ele>266.40000000000003</ele><time>2026-04-25T09:30:04.13Z</time></trkpt><trkpt lat="43.4247883" lon="10.5699667"><ele>266.6</ele><time>2026-04-25T09:30:05.121Z</time></trkpt><trkpt lat="43.42487" lon="10.5700233"><ele>266.8</ele><time>2026-04-25T09:30:06.12Z</time></trkpt><trkpt lat="43.4249283" lon="10.5701117"><ele>267.0</ele><time>2026-04-25T09:30:07.13Z</time></trkpt><trkpt lat="43.42496" lon="10.5702167"><ele>267.0</ele><time>2026-04-25T09:30:08.129Z</time></trkpt><trkpt lat="43.42496" lon="10.570325"><ele>267.0</ele><time>2026-04-25T09:30:09.125Z</time></trkpt><trkpt lat="43.4249183" lon="10.5704333"><ele>267.0</ele><time>2026-04-25T09:30:10.118Z</time></trkpt><trkpt lat="43.4248383" lon="10.5705417"><ele>267.0</ele><time>2026-04-25T09:30:11.129Z</time></trkpt><trkpt lat="43.4246917" lon="10.5706933"><ele>269.3333333333333</ele><time>2026-04-25T09:30:12.118Z</time></trkpt><trkpt lat="43.42455" lon="10.5708433"><ele>271.66666666666663</ele><time>2026-04-25T09:30:13.12Z</time></trkpt><trkpt lat="43.424405" lon="10.5709683"><ele>274.0</ele><time>2026-04-25T09:30:14.124Z</time></trkpt><trkpt lat="43.4242633" lon="10.57105"><ele>274.0</ele><time>2026-04-25T09:30:15.119Z</time></trkpt><trkpt lat="43.42412" lon="10.571085"><ele>274.0</ele><time>2026-04-25T09:30:16.117Z</time></trkpt><trkpt lat="43.42397" lon="10.57107"><ele>274.0</ele><time>2026-04-25T09:30:17.122Z</time></trkpt><trkpt lat="43.4238167" lon="10.571025"><ele>275.66666666666663</ele><time>2026-04-25T09:30:18.127Z</time></trkpt><trkpt lat="43.423665" lon="10.5709917"><ele>277.3333333333333</ele><time>2026-04-25T09:30:19.126Z</time></trkpt><trkpt lat="43.4235067" lon="10.57099"><ele>279.0</ele><time>2026-04-25T09:30:20.128Z</time></trkpt><trkpt lat="43.4233417" lon="10.5710117"><ele>279.0</ele><time>2026-04-25T09:30:21.117Z</time></trkpt><trkpt lat="43.4231867" lon="10.5710383"><ele>279.0</ele><time>2026-04-25T09:30:22.127Z</time></trkpt><trkpt lat="43.4230567" lon="10.5710417"><ele>279.0</ele><time>2026-04-25T09:30:23.128Z</time></trkpt><trkpt lat="43.42294" lon="10.571015"><ele>279.0</ele><time>2026-04-25T09:30:24.127Z</time></trkpt><trkpt lat="43.4228333" lon="10.5709583"><ele>280.5</ele><time>2026-04-25T09:30:25.121Z</time></trkpt><trkpt lat="43.4227267" lon="10.5708883"><ele>282.0</ele><time>2026-04-25T09:30:26.125Z</time></trkpt><trkpt lat="43.4226133" lon="10.5708267"><ele>283.5</ele><time>2026-04-25T09:30:27.123Z</time></trkpt><trkpt lat="43.422495" lon="10.5707867"><ele>285.0</ele><time>2026-04-25T09:30:28.125Z</time></trkpt><trkpt lat="43.4223717" lon="10.570775"><ele>285.0</ele><time>2026-04-25T09:30:29.12Z</time></trkpt><trkpt lat="43.4222533" lon="10.5708017"><ele>285.0</ele><time>2026-04-25T09:30:30.122Z</time></trkpt><trkpt lat="43.4221383" lon="10.5708683"><ele>285.0</ele><time>2026-04-25T09:30:31.121Z</time></trkpt><trkpt lat="43.42203" lon="10.57095"><ele>285.0</ele><time>2026-04-25T09:30:32.125Z</time></trkpt><trkpt lat="43.4219267" lon="10.5710217"><ele>287.25</ele><time>2026-04-25T09:30:33.126Z</time></trkpt><trkpt lat="43.4218183" lon="10.5710617"><ele>289.5</ele><time>2026-04-25T09:30:34.125Z</time></trkpt><trkpt lat="43.4217017" lon="10.5710633"><ele>291.75</ele><time>2026-04-25T09:30:35.104Z</time></trkpt><trkpt lat="43.421585" lon="10.5710367"><ele>294.0</ele><time>2026-04-25T09:30:36.12Z</time></trkpt><trkpt lat="43.4214733" lon="10.5709767"><ele>294.0</ele><time>2026-04-25T09:30:37.119Z</time></trkpt><trkpt lat="43.421365" lon="10.5708833"><ele>294.0</ele><time>2026-04-25T09:30:38.123Z</time></trkpt><trkpt lat="43.42126" lon="10.5707633"><ele>294.0</ele><time>2026-04-25T09:30:39.12Z</time></trkpt><trkpt lat="43.4211617" lon="10.5706433"><ele>294.0</ele><time>2026-04-25T09:30:40.119Z</time></trkpt><trkpt lat="43.4210533" lon="10.5705417"><ele>293.25</ele><time>2026-04-25T09:30:41.124Z</time></trkpt><trkpt lat="43.420935" lon="10.5704667"><ele>292.5</ele><time>2026-04-25T09:30:42.124Z</time></trkpt><trkpt lat="43.4207983" lon="10.570415"><ele>291.75</ele><time>2026-04-25T09:30:43.123Z</time></trkpt><trkpt lat="43.4206583" lon="10.57038"><ele>291.0</ele><time>2026-04-25T09:30:44.125Z</time></trkpt><trkpt lat="43.4205183" lon="10.57035"><ele>293.75</ele><time>2026-04-25T09:30:45.115Z</time></trkpt><trkpt lat="43.4203883" lon="10.5703117"><ele>296.5</ele><time>2026-04-25T09:30:46.12Z</time></trkpt><trkpt lat="43.4202617" lon="10.5702633"><ele>299.25</ele><time>2026-04-25T09:30:47.122Z</time></trkpt><trkpt lat="43.42014" lon="10.5702067"><ele>302.0</ele><time>2026-04-25T09:30:48.124Z</time></trkpt><trkpt lat="43.42002" lon="10.5701333"><ele>302.0</ele><time>2026-04-25T09:30:49.125Z</time></trkpt><trkpt lat="43.419915" lon="10.5700167"><ele>302.0</ele><time>2026-04-25T09:30:50.132Z</time></trkpt><trkpt lat="43.4198183" lon="10.5698667"><ele>302.0</ele><time>2026-04-25T09:30:51.123Z</time></trkpt><trkpt lat="43.4197267" lon="10.5697117"><ele>302.0</ele><time>2026-04-25T09:30:52.124Z</time></trkpt><trkpt lat="43.4196367" lon="10.5695533"><ele>303.5</ele><time>2026-04-25T09:30:53.118Z</time></trkpt><trkpt lat="43.41955" lon="10.56941"><ele>305.0</ele><time>2026-04-25T09:30:54.119Z</time></trkpt><trkpt lat="43.4194717" lon="10.569295"><ele>306.5</ele><time>2026-04-25T09:30:55.126Z</time></trkpt><trkpt lat="43.4193867" lon="10.5692133"><ele>308.0</ele><time>2026-04-25T09:30:56.126Z</time></trkpt><trkpt lat="43.4192867" lon="10.5691583"><ele>308.0</ele><time>2026-04-25T09:30:57.132Z</time></trkpt><trkpt lat="43.4191667" lon="10.5691267"><ele>308.0</ele><time>2026-04-25T09:30:58.127Z</time></trkpt><trkpt lat="43.4190267" lon="10.56911"><ele>308.0</ele><time>2026-04-25T09:30:59.128Z</time></trkpt><trkpt lat="43.4188817" lon="10.56911"><ele>308.0</ele><time>2026-04-25T09:31:00.124Z</time></trkpt><trkpt lat="43.418755" lon="10.5691217"><ele>308.0</ele><time>2026-04-25T09:31:01.123Z</time></trkpt><trkpt lat="43.4186483" lon="10.5691567"><ele>308.0</ele><time>2026-04-25T09:31:02.125Z</time></trkpt><trkpt lat="43.4185467" lon="10.56924"><ele>308.0</ele><time>2026-04-25T09:31:03.118Z</time></trkpt><trkpt lat="43.4184533" lon="10.569365"><ele>308.0</ele><time>2026-04-25T09:31:04.123Z</time></trkpt><trkpt lat="43.4183667" lon="10.5694983"><ele>310.0</ele><time>2026-04-25T09:31:05.123Z</time></trkpt><trkpt lat="43.4182833" lon="10.5695983"><ele>312.0</ele><time>2026-04-25T09:31:06.125Z</time></trkpt><trkpt lat="43.4181933" lon="10.5696517"><ele>314.0</ele><time>2026-04-25T09:31:07.126Z</time></trkpt><trkpt lat="43.4181017" lon="10.5696517"><ele>316.0</ele><time>2026-04-25T09:31:08.119Z</time></trkpt><trkpt lat="43.4180067" lon="10.5696017"><ele>318.0</ele><time>2026-04-25T09:31:09.114Z</time></trkpt><trkpt lat="43.4179033" lon="10.569545"><ele>318.4</ele><time>2026-04-25T09:31:10.126Z</time></trkpt><trkpt lat="43.4177867" lon="10.5695117"><ele>318.8</ele><time>2026-04-25T09:31:11.125Z</time></trkpt><trkpt lat="43.4176767" lon="10.569485"><ele>319.2</ele><time>2026-04-25T09:31:12.129Z</time></trkpt><trkpt lat="43.417575" lon="10.5694433"><ele>319.6</ele><time>2026-04-25T09:31:13.118Z</time></trkpt><trkpt lat="43.4174883" lon="10.56938"><ele>320.0</ele><time>2026-04-25T09:31:14.115Z</time></trkpt><trkpt lat="43.41742" lon="10.5692867"><ele>320.0</ele><time>2026-04-25T09:31:15.119Z</time></trkpt><trkpt lat="43.4173633" lon="10.56915"><ele>320.0</ele><time>2026-04-25T09:31:16.123Z</time></trkpt><trkpt lat="43.41733" lon="10.5689683"><ele>320.0</ele><time>2026-04-25T09:31:17.125Z</time></trkpt><trkpt lat="43.4173117" lon="10.5687783"><ele>320.0</ele><time>2026-04-25T09:31:18.125Z</time></trkpt><trkpt lat="43.4172817" lon="10.5686117"><ele>319.6</ele><time>2026-04-25T09:31:19.12Z</time></trkpt><trkpt lat="43.4172233" lon="10.568475"><ele>319.2</ele><time>2026-04-25T09:31:20.126Z</time></trkpt><trkpt lat="43.417145" lon="10.5683767"><ele>318.8</ele><time>2026-04-25T09:31:21.13Z</time></trkpt><trkpt lat="43.4170533" lon="10.568315"><ele>318.4</ele><time>2026-04-25T09:31:22.124Z</time></trkpt><trkpt lat="43.4169483" lon="10.5682833"><ele>318.0</ele><time>2026-04-25T09:31:23.119Z</time></trkpt><trkpt lat="43.4168233" lon="10.5682783"><ele>318.25</ele><time>2026-04-25T09:31:24.126Z</time></trkpt><trkpt lat="43.4166783" lon="10.56828"><ele>318.5</ele><time>2026-04-25T09:31:25.135Z</time></trkpt><trkpt lat="43.4165317" lon="10.5682817"><ele>318.75</ele><time>2026-04-25T09:31:26.123Z</time></trkpt><trkpt lat="43.4163967" lon="10.56829"><ele>319.0</ele><time>2026-04-25T09:31:27.131Z</time></trkpt><trkpt lat="43.416275" lon="10.56831"><ele>319.0</ele><time>2026-04-25T09:31:28.131Z</time></trkpt><trkpt lat="43.4161767" lon="10.5683533"><ele>319.0</ele><time>2026-04-25T09:31:29.12Z</time></trkpt><trkpt lat="43.4160983" lon="10.568425"><ele>319.0</ele><time>2026-04-25T09:31:30.136Z</time></trkpt><trkpt lat="43.4160417" lon="10.5685283"><ele>319.0</ele><time>2026-04-25T09:31:31.116Z</time></trkpt><trkpt lat="43.4160133" lon="10.568655"><ele>319.0</ele><time>2026-04-25T09:31:32.119Z</time></trkpt><trkpt lat="43.416025" lon="10.5687983"><ele>319.5</ele><time>2026-04-25T09:31:33.12Z</time></trkpt><trkpt lat="43.4160717" lon="10.56893"><ele>320.0</ele><time>2026-04-25T09:31:34.123Z</time></trkpt><trkpt lat="43.4161467" lon="10.5690417"><ele>320.5</ele><time>2026-04-25T09:31:35.126Z</time></trkpt><trkpt lat="43.4162467" lon="10.5691333"><ele>321.0</ele><time>2026-04-25T09:31:36.129Z</time></trkpt><trkpt lat="43.4163567" lon="10.5692133"><ele>323.20000000000005</ele><time>2026-04-25T09:31:37.127Z</time></trkpt><trkpt lat="43.4164633" lon="10.5692883"><ele>325.40000000000003</ele><time>2026-04-25T09:31:38.123Z</time></trkpt><trkpt lat="43.41655" lon="10.56937"><ele>327.6</ele><time>2026-04-25T09:31:39.12Z</time></trkpt><trkpt lat="43.4166183" lon="10.569465"><ele>329.8</ele><time>2026-04-25T09:31:40.129Z</time></trkpt><trkpt lat="43.4166617" lon="10.5695917"><ele>332.0</ele><time>2026-04-25T09:31:41.124Z</time></trkpt><trkpt lat="43.41669" lon="10.5697417"><ele>333.0</ele><time>2026-04-25T09:31:42.123Z</time></trkpt><trkpt lat="43.4167133" lon="10.5699133"><ele>334.0</ele><time>2026-04-25T09:31:43.126Z</time></trkpt><trkpt lat="43.41673" lon="10.5701067"><ele>335.0</ele><time>2026-04-25T09:31:44.119Z</time></trkpt><trkpt lat="43.4167367" lon="10.5703133"><ele>336.0</ele><time>2026-04-25T09:31:45.128Z</time></trkpt><trkpt lat="43.4167367" lon="10.57052"><ele>336.5</ele><time>2026-04-25T09:31:46.129Z</time></trkpt><trkpt lat="43.41673" lon="10.5707017"><ele>337.0</ele><time>2026-04-25T09:31:47.111Z</time></trkpt><trkpt lat="43.4167217" lon="10.5708633"><ele>337.5</ele><time>2026-04-25T09:31:48.122Z</time></trkpt><trkpt lat="43.4167133" lon="10.5710283"><ele>338.0</ele><time>2026-04-25T09:31:49.125Z</time></trkpt><trkpt lat="43.4167033" lon="10.5711933"><ele>339.75</ele><time>2026-04-25T09:31:50.118Z</time></trkpt><trkpt lat="43.416685" lon="10.5713533"><ele>341.5</ele><time>2026-04-25T09:31:51.129Z</time></trkpt><trkpt lat="43.416645" lon="10.5715083"><ele>343.25</ele><time>2026-04-25T09:31:52.125Z</time></trkpt><trkpt lat="43.4165817" lon="10.5716483"><ele>345.0</ele><time>2026-04-25T09:31:53.121Z</time></trkpt><trkpt lat="43.4164933" lon="10.5717567"><ele>345.0</ele><time>2026-04-25T09:31:54.121Z</time></trkpt><trkpt lat="43.4163867" lon="10.5718433"><ele>345.0</ele><time>2026-04-25T09:31:55.127Z</time></trkpt><trkpt lat="43.4162883" lon="10.5719117"><ele>345.0</ele><time>2026-04-25T09:31:56.12Z</time></trkpt><trkpt lat="43.4162117" lon="10.5719767"><ele>345.0</ele><time>2026-04-25T09:31:57.131Z</time></trkpt><trkpt lat="43.4161567" lon="10.57204"><ele>345.0</ele><time>2026-04-25T09:31:58.125Z</time></trkpt><trkpt lat="43.4160867" lon="10.5721467"><ele>345.5</ele><time>2026-04-25T09:32:00.13Z</time></trkpt><trkpt lat="43.416025" lon="10.5723217"><ele>346.0</ele><time>2026-04-25T09:32:02.119Z</time></trkpt><trkpt lat="43.415985" lon="10.572465"><ele>346.5</ele><time>2026-04-25T09:32:03.124Z</time></trkpt><trkpt lat="43.4159367" lon="10.5726417"><ele>347.0</ele><time>2026-04-25T09:32:04.122Z</time></trkpt><trkpt lat="43.4158817" lon="10.5728767"><ele>349.0</ele><time>2026-04-25T09:32:05.121Z</time></trkpt><trkpt lat="43.4158233" lon="10.5731383"><ele>351.0</ele><time>2026-04-25T09:32:06.14Z</time></trkpt><trkpt lat="43.41577" lon="10.573375"><ele>353.0</ele><time>2026-04-25T09:32:07.129Z</time></trkpt><trkpt lat="43.4157267" lon="10.57357"><ele>353.59999999999997</ele><time>2026-04-25T09:32:08.12Z</time></trkpt><trkpt lat="43.4156883" lon="10.57373"><ele>354.2</ele><time>2026-04-25T09:32:09.129Z</time></trkpt><trkpt lat="43.4156417" lon="10.57386"><ele>354.8</ele><time>2026-04-25T09:32:10.136Z</time></trkpt><trkpt lat="43.4155917" lon="10.5739683"><ele>355.4</ele><time>2026-04-25T09:32:11.131Z</time></trkpt><trkpt lat="43.4155267" lon="10.5740617"><ele>356.0</ele><time>2026-04-25T09:32:12.129Z</time></trkpt><trkpt lat="43.415455" lon="10.5741383"><ele>356.0</ele><time>2026-04-25T09:32:13.126Z</time></trkpt><trkpt lat="43.415385" lon="10.5742067"><ele>356.0</ele><time>2026-04-25T09:32:14.134Z</time></trkpt><trkpt lat="43.4153217" lon="10.57427"><ele>356.0</ele><time>2026-04-25T09:32:15.13Z</time></trkpt><trkpt lat="43.4152633" lon="10.574325"><ele>356.0</ele><time>2026-04-25T09:32:16.12Z</time></trkpt><trkpt lat="43.4152133" lon="10.57438"><ele>356.0</ele><time>2026-04-25T09:32:17.123Z</time></trkpt><trkpt lat="43.4151083" lon="10.5744883"><ele>356.0</ele><time>2026-04-25T09:32:19.128Z</time></trkpt><trkpt lat="43.4150533" lon="10.5745633"><ele>357.33333333333337</ele><time>2026-04-25T09:32:20.135Z</time></trkpt><trkpt lat="43.4150033" lon="10.5746533"><ele>358.6666666666667</ele><time>2026-04-25T09:32:21.125Z</time></trkpt><trkpt lat="43.41496" lon="10.5747533"><ele>360.0</ele><time>2026-04-25T09:32:22.124Z</time></trkpt><trkpt lat="43.41492" lon="10.5748567"><ele>361.3333333333333</ele><time>2026-04-25T09:32:23.131Z</time></trkpt><trkpt lat="43.4148783" lon="10.5749733"><ele>362.66666666666663</ele><time>2026-04-25T09:32:24.13Z</time></trkpt><trkpt lat="43.4148383" lon="10.5750917"><ele>364.0</ele><time>2026-04-25T09:32:25.133Z</time></trkpt><trkpt lat="43.4147917" lon="10.5751983"><ele>364.0</ele><time>2026-04-25T09:32:26.119Z</time></trkpt><trkpt lat="43.41474" lon="10.575295"><ele>364.0</ele><time>2026-04-25T09:32:27.14Z</time></trkpt><trkpt lat="43.4146783" lon="10.57538"><ele>364.0</ele><time>2026-04-25T09:32:28.135Z</time></trkpt><trkpt lat="43.4146117" lon="10.5754483"><ele>364.0</ele><time>2026-04-25T09:32:29.127Z</time></trkpt><trkpt lat="43.4145383" lon="10.5755133"><ele>364.0</ele><time>2026-04-25T09:32:30.117Z</time></trkpt><trkpt lat="43.4144617" lon="10.57558"><ele>364.0</ele><time>2026-04-25T09:32:31.125Z</time></trkpt><trkpt lat="43.4143833" lon="10.57564"><ele>365.16666666666663</ele><time>2026-04-25T09:32:32.12Z</time></trkpt><trkpt lat="43.4143067" lon="10.57569"><ele>366.3333333333333</ele><time>2026-04-25T09:32:33.123Z</time></trkpt><trkpt lat="43.4142367" lon="10.5757367"><ele>367.5</ele><time>2026-04-25T09:32:34.122Z</time></trkpt><trkpt lat="43.414175" lon="10.5757867"><ele>368.6666666666667</ele><time>2026-04-25T09:32:35.129Z</time></trkpt><trkpt lat="43.4141183" lon="10.5758333"><ele>369.83333333333337</ele><time>2026-04-25T09:32:36.122Z</time></trkpt><trkpt lat="43.414045" lon="10.5758983"><ele>371.0</ele><time>2026-04-25T09:32:38.126Z</time></trkpt><trkpt lat="43.4139833" lon="10.5759567"><ele>371.0</ele><time>2026-04-25T09:32:41.129Z</time></trkpt><trkpt lat="43.41396" lon="10.5760617"><ele>371.0</ele><time>2026-04-25T09:42:25.128Z</time></trkpt><trkpt lat="43.41385" lon="10.5761667"><ele>371.0</ele><time>2026-04-25T09:42:27.118Z</time></trkpt><trkpt lat="43.41378" lon="10.5762183"><ele>371.0</ele><time>2026-04-25T09:42:28.112Z</time></trkpt><trkpt lat="43.4137083" lon="10.5762633"><ele>371.0</ele><time>2026-04-25T09:42:29.12Z</time></trkpt><trkpt lat="43.41363" lon="10.5763067"><ele>371.1666666666667</ele><time>2026-04-25T09:42:30.131Z</time></trkpt><trkpt lat="43.4135533" lon="10.5763483"><ele>371.33333333333337</ele><time>2026-04-25T09:42:31.124Z</time></trkpt><trkpt lat="43.413475" lon="10.5763933"><ele>371.5</ele><time>2026-04-25T09:42:32.123Z</time></trkpt><trkpt lat="43.4133967" lon="10.5764417"><ele>371.6666666666667</ele><time>2026-04-25T09:42:33.129Z</time></trkpt><trkpt lat="43.4133217" lon="10.5764867"><ele>371.8333333333333</ele><time>2026-04-25T09:42:34.131Z</time></trkpt><trkpt lat="43.4132467" lon="10.576525"><ele>372.0</ele><time>2026-04-25T09:42:35.124Z</time></trkpt><trkpt lat="43.4131733" lon="10.57656"><ele>372.0</ele><time>2026-04-25T09:42:36.123Z</time></trkpt><trkpt lat="43.4131" lon="10.576585"><ele>372.0</ele><time>2026-04-25T09:42:37.127Z</time></trkpt><trkpt lat="43.4130283" lon="10.5765967"><ele>372.0</ele><time>2026-04-25T09:42:38.128Z</time></trkpt><trkpt lat="43.4129633" lon="10.5765967"><ele>372.0</ele><time>2026-04-25T09:42:39.122Z</time></trkpt><trkpt lat="43.4128517" lon="10.5765833"><ele>372.0</ele><time>2026-04-25T09:42:41.125Z</time></trkpt><trkpt lat="43.4127583" lon="10.57661"><ele>372.0</ele><time>2026-04-25T09:42:43.124Z</time></trkpt><trkpt lat="43.4126733" lon="10.5766717"><ele>372.40000000000003</ele><time>2026-04-25T09:42:45.121Z</time></trkpt><trkpt lat="43.41259" lon="10.5767567"><ele>372.8</ele><time>2026-04-25T09:42:47.131Z</time></trkpt><trkpt lat="43.41248" lon="10.576815"><ele>373.2</ele><time>2026-04-25T09:42:49.125Z</time></trkpt><trkpt lat="43.4124117" lon="10.5768533"><ele>373.6</ele><time>2026-04-25T09:42:50.121Z</time></trkpt><trkpt lat="43.4123333" lon="10.5769167"><ele>374.0</ele><time>2026-04-25T09:42:51.129Z</time></trkpt><trkpt lat="43.4122617" lon="10.5769933"><ele>373.6666666666667</ele><time>2026-04-25T09:42:52.124Z</time></trkpt><trkpt lat="43.412195" lon="10.5770783"><ele>373.33333333333337</ele><time>2026-04-25T09:42:53.119Z</time></trkpt><trkpt lat="43.4121367" lon="10.5771633"><ele>373.0</ele><time>2026-04-25T09:42:54.117Z</time></trkpt><trkpt lat="43.4120833" lon="10.57725"><ele>372.6666666666667</ele><time>2026-04-25T09:42:55.116Z</time></trkpt><trkpt lat="43.4120317" lon="10.577335"><ele>372.3333333333333</ele><time>2026-04-25T09:42:56.121Z</time></trkpt><trkpt lat="43.4119833" lon="10.577415"><ele>372.0</ele><time>2026-04-25T09:42:57.126Z</time></trkpt><trkpt lat="43.41193" lon="10.577495"><ele>372.00000000000006</ele><time>2026-04-25T09:42:58.129Z</time></trkpt><trkpt lat="43.41188" lon="10.5775717"><ele>372.0</ele><time>2026-04-25T09:42:59.133Z</time></trkpt><trkpt lat="43.4118333" lon="10.5776483"><ele>372.0</ele><time>2026-04-25T09:43:00.134Z</time></trkpt><trkpt lat="43.4117883" lon="10.5777317"><ele>372.0</ele><time>2026-04-25T09:43:01.122Z</time></trkpt><trkpt lat="43.411745" lon="10.57782"><ele>372.0</ele><time>2026-04-25T09:43:02.119Z</time></trkpt><trkpt lat="43.4117083" lon="10.57791"><ele>372.00000000000006</ele><time>2026-04-25T09:43:03.123Z</time></trkpt><trkpt lat="43.411675" lon="10.578"><ele>372.0</ele><time>2026-04-25T09:43:04.125Z</time></trkpt><trkpt lat="43.411645" lon="10.57808"><ele>372.40000000000003</ele><time>2026-04-25T09:43:05.133Z</time></trkpt><trkpt lat="43.411595" lon="10.5782183"><ele>372.8</ele><time>2026-04-25T09:43:07.132Z</time></trkpt><trkpt lat="43.4115417" lon="10.57834"><ele>373.2</ele><time>2026-04-25T09:43:09.127Z</time></trkpt><trkpt lat="43.4114567" lon="10.578455"><ele>373.6</ele><time>2026-04-25T09:43:11.126Z</time></trkpt><trkpt lat="43.411395" lon="10.5785067"><ele>374.0</ele><time>2026-04-25T09:43:12.128Z</time></trkpt><trkpt lat="43.4113233" lon="10.5785683"><ele>374.0</ele><time>2026-04-25T09:43:13.123Z</time></trkpt><trkpt lat="43.4112483" lon="10.57863"><ele>374.0</ele><time>2026-04-25T09:43:14.123Z</time></trkpt><trkpt lat="43.4111767" lon="10.578695"><ele>374.0</ele><time>2026-04-25T09:43:15.128Z</time></trkpt><trkpt lat="43.411105" lon="10.578735"><ele>374.0</ele><time>2026-04-25T09:43:16.113Z</time></trkpt><trkpt lat="43.4110367" lon="10.57876"><ele>374.0</ele><time>2026-04-25T09:43:17.12Z</time></trkpt><trkpt lat="43.4109683" lon="10.5787667"><ele>374.0</ele><time>2026-04-25T09:43:18.117Z</time></trkpt><trkpt lat="43.4108967" lon="10.5787617"><ele>374.0</ele><time>2026-04-25T09:43:19.131Z</time></trkpt><trkpt lat="43.4108283" lon="10.5787383"><ele>374.0</ele><time>2026-04-25T09:43:20.119Z</time></trkpt><trkpt lat="43.410755" lon="10.5787067"><ele>374.0</ele><time>2026-04-25T09:43:21.127Z</time></trkpt><trkpt lat="43.4106867" lon="10.578655"><ele>374.0</ele><time>2026-04-25T09:43:22.131Z</time></trkpt><trkpt lat="43.4106117" lon="10.5785967"><ele>374.0</ele><time>2026-04-25T09:43:23.122Z</time></trkpt><trkpt lat="43.410525" lon="10.578555"><ele>374.0</ele><time>2026-04-25T09:43:24.134Z</time></trkpt><trkpt lat="43.4104317" lon="10.5785217"><ele>374.79999999999995</ele><time>2026-04-25T09:43:25.129Z</time></trkpt><trkpt lat="43.4103333" lon="10.5784983"><ele>375.59999999999997</ele><time>2026-04-25T09:43:26.129Z</time></trkpt><trkpt lat="43.4102283" lon="10.578485"><ele>376.4</ele><time>2026-04-25T09:43:27.116Z</time></trkpt><trkpt lat="43.4101183" lon="10.5784767"><ele>377.2</ele><time>2026-04-25T09:43:28.116Z</time></trkpt><trkpt lat="43.4099967" lon="10.5784717"><ele>378.0</ele><time>2026-04-25T09:43:29.124Z</time></trkpt><trkpt lat="43.4098717" lon="10.57847"><ele>378.0</ele><time>2026-04-25T09:43:30.119Z</time></trkpt><trkpt lat="43.409745" lon="10.5784733"><ele>378.0</ele><time>2026-04-25T09:43:31.116Z</time></trkpt><trkpt lat="43.409625" lon="10.5784733"><ele>378.0</ele><time>2026-04-25T09:43:32.119Z</time></trkpt><trkpt lat="43.4095017" lon="10.5784717"><ele>378.0</ele><time>2026-04-25T09:43:33.115Z</time></trkpt><trkpt lat="43.4093817" lon="10.5784667"><ele>379.0</ele><time>2026-04-25T09:43:34.119Z</time></trkpt><trkpt lat="43.4092633" lon="10.578465"><ele>380.0</ele><time>2026-04-25T09:43:35.117Z</time></trkpt><trkpt lat="43.409145" lon="10.5784617"><ele>381.0</ele><time>2026-04-25T09:43:36.123Z</time></trkpt><trkpt lat="43.40903" lon="10.5784617"><ele>382.0</ele><time>2026-04-25T09:43:37.123Z</time></trkpt><trkpt lat="43.408915" lon="10.578465"><ele>381.75</ele><time>2026-04-25T09:43:38.125Z</time></trkpt><trkpt lat="43.4088033" lon="10.5784717"><ele>381.5</ele><time>2026-04-25T09:43:39.129Z</time></trkpt><trkpt lat="43.40869" lon="10.57848"><ele>381.25</ele><time>2026-04-25T09:43:40.126Z</time></trkpt><trkpt lat="43.4085767" lon="10.57849"><ele>381.0</ele><time>2026-04-25T09:43:41.122Z</time></trkpt><trkpt lat="43.4084617" lon="10.5785"><ele>381.0</ele><time>2026-04-25T09:43:42.12Z</time></trkpt><trkpt lat="43.4083483" lon="10.578505"><ele>381.0</ele><time>2026-04-25T09:43:43.12Z</time></trkpt><trkpt lat="43.4082333" lon="10.57851"><ele>381.0</ele><time>2026-04-25T09:43:44.117Z</time></trkpt><trkpt lat="43.408115" lon="10.5785133"><ele>381.0</ele><time>2026-04-25T09:43:45.121Z</time></trkpt><trkpt lat="43.4079933" lon="10.5785067"><ele>381.20000000000005</ele><time>2026-04-25T09:43:46.118Z</time></trkpt><trkpt lat="43.4078767" lon="10.5785033"><ele>381.40000000000003</ele><time>2026-04-25T09:43:47.122Z</time></trkpt><trkpt lat="43.40777" lon="10.5785017"><ele>381.6</ele><time>2026-04-25T09:43:48.12Z</time></trkpt><trkpt lat="43.4076667" lon="10.5784967"><ele>381.8</ele><time>2026-04-25T09:43:49.129Z</time></trkpt><trkpt lat="43.4075683" lon="10.578475"><ele>382.0</ele><time>2026-04-25T09:43:50.124Z</time></trkpt><trkpt lat="43.4074683" lon="10.57843"><ele>382.0</ele><time>2026-04-25T09:43:51.124Z</time></trkpt><trkpt lat="43.407375" lon="10.5783533"><ele>382.0</ele><time>2026-04-25T09:43:52.122Z</time></trkpt><trkpt lat="43.40729" lon="10.578255"><ele>382.0</ele><time>2026-04-25T09:43:53.123Z</time></trkpt><trkpt lat="43.40721" lon="10.57814"><ele>382.0</ele><time>2026-04-25T09:43:54.118Z</time></trkpt><trkpt lat="43.4071333" lon="10.5780067"><ele>383.25</ele><time>2026-04-25T09:43:55.119Z</time></trkpt><trkpt lat="43.4070767" lon="10.57786"><ele>384.5</ele><time>2026-04-25T09:43:56.12Z</time></trkpt><trkpt lat="43.4070383" lon="10.5777083"><ele>385.75</ele><time>2026-04-25T09:43:57.124Z</time></trkpt><trkpt lat="43.4070067" lon="10.5775567"><ele>387.0</ele><time>2026-04-25T09:43:58.126Z</time></trkpt><trkpt lat="43.4069667" lon="10.57741"><ele>387.0</ele><time>2026-04-25T09:43:59.12Z</time></trkpt><trkpt lat="43.406915" lon="10.5772633"><ele>387.0</ele><time>2026-04-25T09:44:00.124Z</time></trkpt><trkpt lat="43.4068467" lon="10.5771267"><ele>387.0</ele><time>2026-04-25T09:44:01.114Z</time></trkpt><trkpt lat="43.4067617" lon="10.5769967"><ele>387.0</ele><time>2026-04-25T09:44:02.123Z</time></trkpt><trkpt lat="43.4066667" lon="10.576885"><ele>388.25</ele><time>2026-04-25T09:44:03.114Z</time></trkpt><trkpt lat="43.40657" lon="10.5767883"><ele>389.5</ele><time>2026-04-25T09:44:04.124Z</time></trkpt><trkpt lat="43.40647" lon="10.5767033"><ele>390.75</ele><time>2026-04-25T09:44:05.126Z</time></trkpt><trkpt lat="43.40637" lon="10.5766167"><ele>392.0</ele><time>2026-04-25T09:44:06.13Z</time></trkpt><trkpt lat="43.4062783" lon="10.5765117"><ele>392.0</ele><time>2026-04-25T09:44:07.116Z</time></trkpt><trkpt lat="43.4061967" lon="10.5763883"><ele>392.0</ele><time>2026-04-25T09:44:08.118Z</time></trkpt><trkpt lat="43.406125" lon="10.5762583"><ele>392.0</ele><time>2026-04-25T09:44:09.125Z</time></trkpt><trkpt lat="43.4060483" lon="10.5761317"><ele>392.0</ele><time>2026-04-25T09:44:10.121Z</time></trkpt><trkpt lat="43.4059633" lon="10.5760117"><ele>389.75</ele><time>2026-04-25T09:44:11.122Z</time></trkpt><trkpt lat="43.4058733" lon="10.575895"><ele>387.5</ele><time>2026-04-25T09:44:12.121Z</time></trkpt><trkpt lat="43.405785" lon="10.5757783"><ele>385.25</ele><time>2026-04-25T09:44:13.12Z</time></trkpt><trkpt lat="43.4057" lon="10.5756567"><ele>383.0</ele><time>2026-04-25T09:44:14.116Z</time></trkpt><trkpt lat="43.4056283" lon="10.57552"><ele>383.0</ele><time>2026-04-25T09:44:15.118Z</time></trkpt><trkpt lat="43.40557" lon="10.5753833"><ele>383.0</ele><time>2026-04-25T09:44:16.112Z</time></trkpt><trkpt lat="43.4055133" lon="10.57525"><ele>383.0</ele><time>2026-04-25T09:44:17.111Z</time></trkpt><trkpt lat="43.4054483" lon="10.5751417"><ele>383.0</ele><time>2026-04-25T09:44:18.119Z</time></trkpt><trkpt lat="43.40537" lon="10.5750667"><ele>383.0</ele><time>2026-04-25T09:44:19.123Z</time></trkpt><trkpt lat="43.4052817" lon="10.5750333"><ele>383.2</ele><time>2026-04-25T09:44:20.118Z</time></trkpt><trkpt lat="43.4051833" lon="10.575035"><ele>383.4</ele><time>2026-04-25T09:44:21.135Z</time></trkpt><trkpt lat="43.4050883" lon="10.5750767"><ele>383.59999999999997</ele><time>2026-04-25T09:44:22.132Z</time></trkpt><trkpt lat="43.4050117" lon="10.5751633"><ele>383.79999999999995</ele><time>2026-04-25T09:44:23.131Z</time></trkpt><trkpt lat="43.40493" lon="10.5752583"><ele>384.0</ele><time>2026-04-25T09:44:24.122Z</time></trkpt><trkpt lat="43.4048483" lon="10.5753567"><ele>385.5</ele><time>2026-04-25T09:44:25.137Z</time></trkpt><trkpt lat="43.40477" lon="10.5754483"><ele>387.0</ele><time>2026-04-25T09:44:26.116Z</time></trkpt><trkpt lat="43.404695" lon="10.5755283"><ele>388.5</ele><time>2026-04-25T09:44:27.128Z</time></trkpt><trkpt lat="43.4046233" lon="10.5755917"><ele>390.0</ele><time>2026-04-25T09:44:28.126Z</time></trkpt><trkpt lat="43.404555" lon="10.5756317"><ele>391.5</ele><time>2026-04-25T09:44:29.121Z</time></trkpt><trkpt lat="43.404485" lon="10.5756417"><ele>393.0</ele><time>2026-04-25T09:44:30.127Z</time></trkpt><trkpt lat="43.40442" lon="10.5756233"><ele>393.4</ele><time>2026-04-25T09:44:31.122Z</time></trkpt><trkpt lat="43.4043533" lon="10.575555"><ele>393.79999999999995</ele><time>2026-04-25T09:44:32.111Z</time></trkpt><trkpt lat="43.4042917" lon="10.5754483"><ele>394.2</ele><time>2026-04-25T09:44:33.11Z</time></trkpt><trkpt lat="43.4042417" lon="10.5753067"><ele>394.6</ele><time>2026-04-25T09:44:34.122Z</time></trkpt><trkpt lat="43.4041983" lon="10.5751367"><ele>395.0</ele><time>2026-04-25T09:44:35.125Z</time></trkpt><trkpt lat="43.4041533" lon="10.57496"><ele>393.75</ele><time>2026-04-25T09:44:36.123Z</time></trkpt><trkpt lat="43.404105" lon="10.5747817"><ele>392.5</ele><time>2026-04-25T09:44:37.127Z</time></trkpt><trkpt lat="43.4040517" lon="10.5746"><ele>391.25</ele><time>2026-04-25T09:44:38.122Z</time></trkpt><trkpt lat="43.4039983" lon="10.5744233"><ele>390.0</ele><time>2026-04-25T09:44:39.124Z</time></trkpt><trkpt lat="43.40394" lon="10.57425"><ele>390.75</ele><time>2026-04-25T09:44:40.116Z</time></trkpt><trkpt lat="43.4038767" lon="10.5740867"><ele>391.5</ele><time>2026-04-25T09:44:41.114Z</time></trkpt><trkpt lat="43.4038133" lon="10.5739367"><ele>392.25</ele><time>2026-04-25T09:44:42.117Z</time></trkpt><trkpt lat="43.403755" lon="10.5737933"><ele>393.0</ele><time>2026-04-25T09:44:43.122Z</time></trkpt><trkpt lat="43.4037167" lon="10.57364"><ele>393.0</ele><time>2026-04-25T09:44:44.122Z</time></trkpt><trkpt lat="43.4037017" lon="10.573475"><ele>393.0</ele><time>2026-04-25T09:44:45.12Z</time></trkpt><trkpt lat="43.4037083" lon="10.573305"><ele>393.0</ele><time>2026-04-25T09:44:46.12Z</time></trkpt><trkpt lat="43.4037417" lon="10.573125"><ele>393.0</ele><time>2026-04-25T09:44:47.123Z</time></trkpt><trkpt lat="43.4037933" lon="10.5729467"><ele>390.25</ele><time>2026-04-25T09:44:48.116Z</time></trkpt><trkpt lat="43.4038483" lon="10.5727783"><ele>387.5</ele><time>2026-04-25T09:44:49.121Z</time></trkpt><trkpt lat="43.4039067" lon="10.5726217"><ele>384.75</ele><time>2026-04-25T09:44:50.125Z</time></trkpt><trkpt lat="43.4039533" lon="10.5724683"><ele>382.0</ele><time>2026-04-25T09:44:51.122Z</time></trkpt><trkpt lat="43.4039817" lon="10.572315"><ele>382.0</ele><time>2026-04-25T09:44:52.129Z</time></trkpt><trkpt lat="43.4039883" lon="10.5721683"><ele>382.0</ele><time>2026-04-25T09:44:53.132Z</time></trkpt><trkpt lat="43.4039683" lon="10.5720267"><ele>382.0</ele><time>2026-04-25T09:44:54.122Z</time></trkpt><trkpt lat="43.403925" lon="10.5718933"><ele>382.0</ele><time>2026-04-25T09:44:55.123Z</time></trkpt><trkpt lat="43.4038567" lon="10.5717733"><ele>382.0</ele><time>2026-04-25T09:44:56.131Z</time></trkpt><trkpt lat="43.4037683" lon="10.5716733"><ele>383.5</ele><time>2026-04-25T09:44:57.121Z</time></trkpt><trkpt lat="43.4036533" lon="10.5716033"><ele>385.0</ele><time>2026-04-25T09:44:58.121Z</time></trkpt><trkpt lat="43.4035267" lon="10.5715483"><ele>386.5</ele><time>2026-04-25T09:44:59.131Z</time></trkpt><trkpt lat="43.4033917" lon="10.571515"><ele>388.0</ele><time>2026-04-25T09:45:00.121Z</time></trkpt><trkpt lat="43.4032667" lon="10.5714783"><ele>388.0</ele><time>2026-04-25T09:45:01.117Z</time></trkpt><trkpt lat="43.4031583" lon="10.57141"><ele>388.0</ele><time>2026-04-25T09:45:02.117Z</time></trkpt><trkpt lat="43.403055" lon="10.5713183"><ele>388.0</ele><time>2026-04-25T09:45:03.126Z</time></trkpt><trkpt lat="43.4029767" lon="10.5712"><ele>388.0</ele><time>2026-04-25T09:45:04.123Z</time></trkpt><trkpt lat="43.40292" lon="10.5710667"><ele>387.79999999999995</ele><time>2026-04-25T09:45:05.125Z</time></trkpt><trkpt lat="43.40287" lon="10.570945"><ele>387.6</ele><time>2026-04-25T09:45:06.118Z</time></trkpt><trkpt lat="43.402815" lon="10.5708283"><ele>387.4</ele><time>2026-04-25T09:45:07.124Z</time></trkpt><trkpt lat="43.402745" lon="10.570725"><ele>387.20000000000005</ele><time>2026-04-25T09:45:08.118Z</time></trkpt><trkpt lat="43.4026617" lon="10.57066"><ele>387.0</ele><time>2026-04-25T09:45:09.117Z</time></trkpt><trkpt lat="43.4025683" lon="10.5706433"><ele>387.0</ele><time>2026-04-25T09:45:10.138Z</time></trkpt><trkpt lat="43.4024717" lon="10.5706833"><ele>387.0</ele><time>2026-04-25T09:45:11.13Z</time></trkpt><trkpt lat="43.4023783" lon="10.5707783"><ele>387.0</ele><time>2026-04-25T09:45:12.12Z</time></trkpt><trkpt lat="43.4022917" lon="10.5708967"><ele>387.0</ele><time>2026-04-25T09:45:13.126Z</time></trkpt><trkpt lat="43.4022017" lon="10.57101"><ele>386.0</ele><time>2026-04-25T09:45:14.128Z</time></trkpt><trkpt lat="43.4021067" lon="10.57109"><ele>385.0</ele><time>2026-04-25T09:45:15.119Z</time></trkpt><trkpt lat="43.4019967" lon="10.5711317"><ele>384.0</ele><time>2026-04-25T09:45:16.128Z</time></trkpt><trkpt lat="43.4018783" lon="10.571125"><ele>383.0</ele><time>2026-04-25T09:45:17.124Z</time></trkpt><trkpt lat="43.4017567" lon="10.57109"><ele>383.0</ele><time>2026-04-25T09:45:18.119Z</time></trkpt><trkpt lat="43.4016317" lon="10.5710383"><ele>383.0</ele><time>2026-04-25T09:45:19.123Z</time></trkpt><trkpt lat="43.401505" lon="10.5709833"><ele>383.0</ele><time>2026-04-25T09:45:20.129Z</time></trkpt><trkpt lat="43.4013767" lon="10.5709467"><ele>383.0</ele><time>2026-04-25T09:45:21.116Z</time></trkpt><trkpt lat="43.4012533" lon="10.5709533"><ele>381.75</ele><time>2026-04-25T09:45:22.115Z</time></trkpt><trkpt lat="43.401145" lon="10.57101"><ele>380.5</ele><time>2026-04-25T09:45:23.126Z</time></trkpt><trkpt lat="43.40105" lon="10.5711067"><ele>379.25</ele><time>2026-04-25T09:45:24.116Z</time></trkpt><trkpt lat="43.4009567" lon="10.57125"><ele>378.0</ele><time>2026-04-25T09:45:25.133Z</time></trkpt><trkpt lat="43.4008467" lon="10.5714233"><ele>377.3333333333333</ele><time>2026-04-25T09:45:26.119Z</time></trkpt><trkpt lat="43.4007167" lon="10.5715917"><ele>376.66666666666663</ele><time>2026-04-25T09:45:27.118Z</time></trkpt><trkpt lat="43.4005683" lon="10.571745"><ele>376.0</ele><time>2026-04-25T09:45:28.123Z</time></trkpt><trkpt lat="43.400425" lon="10.5718717"><ele>376.0</ele><time>2026-04-25T09:45:29.127Z</time></trkpt><trkpt lat="43.4003" lon="10.5719867"><ele>376.0</ele><time>2026-04-25T09:45:30.13Z</time></trkpt><trkpt lat="43.4001883" lon="10.572115"><ele>376.0</ele><time>2026-04-25T09:45:31.121Z</time></trkpt><trkpt lat="43.4000817" lon="10.57227"><ele>379.66666666666663</ele><time>2026-04-25T09:45:32.122Z</time></trkpt><trkpt lat="43.3999817" lon="10.5724567"><ele>383.3333333333333</ele><time>2026-04-25T09:45:33.112Z</time></trkpt><trkpt lat="43.3998933" lon="10.5726567"><ele>387.0</ele><time>2026-04-25T09:45:34.126Z</time></trkpt><trkpt lat="43.3998033" lon="10.5728483"><ele>387.0</ele><time>2026-04-25T09:45:35.13Z</time></trkpt><trkpt lat="43.3997017" lon="10.5730233"><ele>387.0</ele><time>2026-04-25T09:45:36.136Z</time></trkpt><trkpt lat="43.399585" lon="10.57318"><ele>387.0</ele><time>2026-04-25T09:45:37.126Z</time></trkpt><trkpt lat="43.3994583" lon="10.5733083"><ele>387.0</ele><time>2026-04-25T09:45:38.12Z</time></trkpt><trkpt lat="43.39932" lon="10.5734017"><ele>387.0</ele><time>2026-04-25T09:45:39.125Z</time></trkpt><trkpt lat="43.3991567" lon="10.573465"><ele>387.0</ele><time>2026-04-25T09:45:40.123Z</time></trkpt><trkpt lat="43.3989783" lon="10.5735183"><ele>386.33333333333337</ele><time>2026-04-25T09:45:41.123Z</time></trkpt><trkpt lat="43.3987967" lon="10.57357"><ele>385.6666666666667</ele><time>2026-04-25T09:45:42.13Z</time></trkpt><trkpt lat="43.3986167" lon="10.5736233"><ele>385.0</ele><time>2026-04-25T09:45:43.122Z</time></trkpt><trkpt lat="43.3984433" lon="10.57366"><ele>386.25</ele><time>2026-04-25T09:45:44.121Z</time></trkpt><trkpt lat="43.3982833" lon="10.57369"><ele>387.5</ele><time>2026-04-25T09:45:45.121Z</time></trkpt><trkpt lat="43.3981367" lon="10.5737017"><ele>388.75</ele><time>2026-04-25T09:45:46.124Z</time></trkpt><trkpt lat="43.3979967" lon="10.57368"><ele>390.0</ele><time>2026-04-25T09:45:47.12Z</time></trkpt><trkpt lat="43.3978633" lon="10.5736233"><ele>390.0</ele><time>2026-04-25T09:45:48.114Z</time></trkpt><trkpt lat="43.3977383" lon="10.573535"><ele>390.0</ele><time>2026-04-25T09:45:49.123Z</time></trkpt><trkpt lat="43.3976283" lon="10.5734133"><ele>390.0</ele><time>2026-04-25T09:45:50.115Z</time></trkpt><trkpt lat="43.397525" lon="10.5732817"><ele>390.0</ele><time>2026-04-25T09:45:51.119Z</time></trkpt><trkpt lat="43.397415" lon="10.57317"><ele>390.0</ele><time>2026-04-25T09:45:52.126Z</time></trkpt><trkpt lat="43.39729" lon="10.5730817"><ele>390.0</ele><time>2026-04-25T09:45:53.116Z</time></trkpt><trkpt lat="43.3971517" lon="10.57302"><ele>390.0</ele><time>2026-04-25T09:45:54.119Z</time></trkpt><trkpt lat="43.3970033" lon="10.5729717"><ele>390.0</ele><time>2026-04-25T09:45:55.123Z</time></trkpt><trkpt lat="43.3968467" lon="10.5729283"><ele>388.0</ele><time>2026-04-25T09:45:56.117Z</time></trkpt><trkpt lat="43.3966883" lon="10.57289"><ele>386.0</ele><time>2026-04-25T09:45:57.128Z</time></trkpt><trkpt lat="43.3965333" lon="10.5728483"><ele>384.0</ele><time>2026-04-25T09:45:58.124Z</time></trkpt><trkpt lat="43.3963867" lon="10.5728067"><ele>384.25</ele><time>2026-04-25T09:45:59.124Z</time></trkpt><trkpt lat="43.3962417" lon="10.572765"><ele>384.5</ele><time>2026-04-25T09:46:00.122Z</time></trkpt><trkpt lat="43.3961017" lon="10.57273"><ele>384.75</ele><time>2026-04-25T09:46:01.123Z</time></trkpt><trkpt lat="43.395965" lon="10.572695"><ele>385.0</ele><time>2026-04-25T09:46:02.121Z</time></trkpt><trkpt lat="43.39583" lon="10.572665"><ele>385.0</ele><time>2026-04-25T09:46:03.125Z</time></trkpt><trkpt lat="43.395695" lon="10.5726533"><ele>385.0</ele><time>2026-04-25T09:46:04.115Z</time></trkpt><trkpt lat="43.3955467" lon="10.57267"><ele>385.0</ele><time>2026-04-25T09:46:05.117Z</time></trkpt><trkpt lat="43.395395" lon="10.57271"><ele>385.0</ele><time>2026-04-25T09:46:06.119Z</time></trkpt><trkpt lat="43.3952433" lon="10.57277"><ele>384.33333333333337</ele><time>2026-04-25T09:46:07.121Z</time></trkpt><trkpt lat="43.39509" lon="10.5728483"><ele>383.6666666666667</ele><time>2026-04-25T09:46:08.125Z</time></trkpt><trkpt lat="43.3949367" lon="10.57293"><ele>383.0</ele><time>2026-04-25T09:46:09.12Z</time></trkpt><trkpt lat="43.394785" lon="10.5730133"><ele>385.6666666666667</ele><time>2026-04-25T09:46:10.13Z</time></trkpt><trkpt lat="43.39464" lon="10.573095"><ele>388.33333333333337</ele><time>2026-04-25T09:46:11.119Z</time></trkpt><trkpt lat="43.3944933" lon="10.57317"><ele>391.0</ele><time>2026-04-25T09:46:12.13Z</time></trkpt><trkpt lat="43.3943467" lon="10.5732483"><ele>391.0</ele><time>2026-04-25T09:46:13.126Z</time></trkpt><trkpt lat="43.3942" lon="10.573325"><ele>391.0</ele><time>2026-04-25T09:46:14.13Z</time></trkpt><trkpt lat="43.3940517" lon="10.5734117"><ele>391.0</ele><time>2026-04-25T09:46:15.12Z</time></trkpt><trkpt lat="43.393905" lon="10.573505"><ele>392.0</ele><time>2026-04-25T09:46:16.129Z</time></trkpt><trkpt lat="43.393755" lon="10.57361"><ele>393.0</ele><time>2026-04-25T09:46:17.122Z</time></trkpt><trkpt lat="43.39361" lon="10.5737317"><ele>394.0</ele><time>2026-04-25T09:46:18.116Z</time></trkpt><trkpt lat="43.393465" lon="10.5738517"><ele>394.0</ele><time>2026-04-25T09:46:19.117Z</time></trkpt><trkpt lat="43.3933233" lon="10.5739717"><ele>394.0</ele><time>2026-04-25T09:46:20.116Z</time></trkpt><trkpt lat="43.3931967" lon="10.57407"><ele>394.0</ele><time>2026-04-25T09:46:21.115Z</time></trkpt><trkpt lat="43.393085" lon="10.5741683"><ele>394.0</ele><time>2026-04-25T09:46:22.119Z</time></trkpt><trkpt lat="43.39299" lon="10.5742683"><ele>393.25</ele><time>2026-04-25T09:46:23.124Z</time></trkpt><trkpt lat="43.3929083" lon="10.5743867"><ele>392.5</ele><time>2026-04-25T09:46:24.116Z</time></trkpt><trkpt lat="43.3928317" lon="10.57453"><ele>391.75</ele><time>2026-04-25T09:46:25.129Z</time></trkpt><trkpt lat="43.392765" lon="10.5746917"><ele>391.0</ele><time>2026-04-25T09:46:26.119Z</time></trkpt><trkpt lat="43.3927017" lon="10.574855"><ele>391.0</ele><time>2026-04-25T09:46:27.122Z</time></trkpt><trkpt lat="43.3926433" lon="10.5750117"><ele>391.0</ele><time>2026-04-25T09:46:28.126Z</time></trkpt><trkpt lat="43.3925817" lon="10.575155"><ele>391.0</ele><time>2026-04-25T09:46:29.121Z</time></trkpt><trkpt lat="43.3925117" lon="10.5752783"><ele>391.0</ele><time>2026-04-25T09:46:30.126Z</time></trkpt><trkpt lat="43.3924267" lon="10.5753833"><ele>392.75</ele><time>2026-04-25T09:46:31.122Z</time></trkpt><trkpt lat="43.3923317" lon="10.5754633"><ele>394.5</ele><time>2026-04-25T09:46:32.12Z</time></trkpt><trkpt lat="43.3922267" lon="10.57552"><ele>396.25</ele><time>2026-04-25T09:46:33.117Z</time></trkpt><trkpt lat="43.3921167" lon="10.57555"><ele>398.0</ele><time>2026-04-25T09:46:34.114Z</time></trkpt><trkpt lat="43.3920033" lon="10.5755617"><ele>398.2</ele><time>2026-04-25T09:46:35.122Z</time></trkpt><trkpt lat="43.3918883" lon="10.575555"><ele>398.4</ele><time>2026-04-25T09:46:36.115Z</time></trkpt><trkpt lat="43.3917783" lon="10.5755217"><ele>398.59999999999997</ele><time>2026-04-25T09:46:37.122Z</time></trkpt><trkpt lat="43.39169" lon="10.5754567"><ele>398.79999999999995</ele><time>2026-04-25T09:46:38.123Z</time></trkpt><trkpt lat="43.391625" lon="10.5753533"><ele>399.0</ele><time>2026-04-25T09:46:39.112Z</time></trkpt><trkpt lat="43.3915733" lon="10.5752167"><ele>398.25</ele><time>2026-04-25T09:46:40.122Z</time></trkpt><trkpt lat="43.3915217" lon="10.5750583"><ele>397.5</ele><time>2026-04-25T09:46:41.133Z</time></trkpt><trkpt lat="43.3914567" lon="10.5748933"><ele>396.75</ele><time>2026-04-25T09:46:42.125Z</time></trkpt><trkpt lat="43.391385" lon="10.5747317"><ele>396.0</ele><time>2026-04-25T09:46:43.12Z</time></trkpt><trkpt lat="43.39132" lon="10.5745633"><ele>397.5</ele><time>2026-04-25T09:46:44.127Z</time></trkpt><trkpt lat="43.3912667" lon="10.574385"><ele>399.0</ele><time>2026-04-25T09:46:45.129Z</time></trkpt><trkpt lat="43.3912217" lon="10.5741967"><ele>400.5</ele><time>2026-04-25T09:46:46.127Z</time></trkpt><trkpt lat="43.391185" lon="10.573995"><ele>402.0</ele><time>2026-04-25T09:46:47.117Z</time></trkpt><trkpt lat="43.39115" lon="10.5737967"><ele>401.25</ele><time>2026-04-25T09:46:48.121Z</time></trkpt><trkpt lat="43.3911217" lon="10.5736083"><ele>400.5</ele><time>2026-04-25T09:46:49.121Z</time></trkpt><trkpt lat="43.3911" lon="10.5734417"><ele>399.75</ele><time>2026-04-25T09:46:50.128Z</time></trkpt><trkpt lat="43.39107" lon="10.5732983"><ele>399.0</ele><time>2026-04-25T09:46:51.122Z</time></trkpt><trkpt lat="43.3910233" lon="10.573175"><ele>399.0</ele><time>2026-04-25T09:46:52.128Z</time></trkpt><trkpt lat="43.39095" lon="10.57309"><ele>399.0</ele><time>2026-04-25T09:46:53.115Z</time></trkpt><trkpt lat="43.3908667" lon="10.5730433"><ele>399.0</ele><time>2026-04-25T09:46:54.114Z</time></trkpt><trkpt lat="43.3907817" lon="10.5730267"><ele>399.0</ele><time>2026-04-25T09:46:55.113Z</time></trkpt><trkpt lat="43.390685" lon="10.573055"><ele>399.0</ele><time>2026-04-25T09:46:56.114Z</time></trkpt><trkpt lat="43.3905717" lon="10.5731083"><ele>398.5</ele><time>2026-04-25T09:46:57.121Z</time></trkpt><trkpt lat="43.390455" lon="10.5731667"><ele>398.0</ele><time>2026-04-25T09:46:58.127Z</time></trkpt><trkpt lat="43.390335" lon="10.57322"><ele>397.5</ele><time>2026-04-25T09:46:59.127Z</time></trkpt><trkpt lat="43.3902117" lon="10.57326"><ele>397.0</ele><time>2026-04-25T09:47:00.118Z</time></trkpt><trkpt lat="43.39009" lon="10.5732867"><ele>397.0</ele><time>2026-04-25T09:47:01.115Z</time></trkpt><trkpt lat="43.389975" lon="10.5733167"><ele>397.0</ele><time>2026-04-25T09:47:02.122Z</time></trkpt><trkpt lat="43.389865" lon="10.5733617"><ele>397.0</ele><time>2026-04-25T09:47:03.126Z</time></trkpt><trkpt lat="43.3897633" lon="10.57343"><ele>397.0</ele><time>2026-04-25T09:47:04.121Z</time></trkpt><trkpt lat="43.389675" lon="10.5735233"><ele>395.0</ele><time>2026-04-25T09:47:05.126Z</time></trkpt><trkpt lat="43.3896067" lon="10.5736367"><ele>393.0</ele><time>2026-04-25T09:47:06.127Z</time></trkpt><trkpt lat="43.3895583" lon="10.5737717"><ele>391.0</ele><time>2026-04-25T09:47:07.126Z</time></trkpt><trkpt lat="43.3895167" lon="10.5739217"><ele>389.0</ele><time>2026-04-25T09:47:08.115Z</time></trkpt><trkpt lat="43.3894767" lon="10.5740683"><ele>387.0</ele><time>2026-04-25T09:47:09.13Z</time></trkpt><trkpt lat="43.3894217" lon="10.5742083"><ele>387.0</ele><time>2026-04-25T09:47:10.128Z</time></trkpt><trkpt lat="43.3893433" lon="10.5743383"><ele>387.0</ele><time>2026-04-25T09:47:11.123Z</time></trkpt><trkpt lat="43.3892533" lon="10.5744633"><ele>387.0</ele><time>2026-04-25T09:47:12.119Z</time></trkpt><trkpt lat="43.38915" lon="10.5745883"><ele>387.0</ele><time>2026-04-25T09:47:13.119Z</time></trkpt><trkpt lat="43.3890433" lon="10.57471"><ele>386.5</ele><time>2026-04-25T09:47:14.112Z</time></trkpt><trkpt lat="43.388945" lon="10.5748133"><ele>386.0</ele><time>2026-04-25T09:47:15.12Z</time></trkpt><trkpt lat="43.388845" lon="10.574895"><ele>385.5</ele><time>2026-04-25T09:47:16.111Z</time></trkpt><trkpt lat="43.3887333" lon="10.5749483"><ele>385.0</ele><time>2026-04-25T09:47:17.128Z</time></trkpt><trkpt lat="43.3886067" lon="10.5749733"><ele>385.0</ele><time>2026-04-25T09:47:18.122Z</time></trkpt><trkpt lat="43.3884617" lon="10.5749817"><ele>385.0</ele><time>2026-04-25T09:47:19.121Z</time></trkpt><trkpt lat="43.3883067" lon="10.574985"><ele>385.0</ele><time>2026-04-25T09:47:20.121Z</time></trkpt><trkpt lat="43.38815" lon="10.5749917"><ele>385.75</ele><time>2026-04-25T09:47:21.124Z</time></trkpt><trkpt lat="43.3879967" lon="10.5749983"><ele>386.5</ele><time>2026-04-25T09:47:22.119Z</time></trkpt><trkpt lat="43.3878533" lon="10.575"><ele>387.25</ele><time>2026-04-25T09:47:23.115Z</time></trkpt><trkpt lat="43.3877183" lon="10.5749917"><ele>388.0</ele><time>2026-04-25T09:47:24.133Z</time></trkpt><trkpt lat="43.387585" lon="10.5749617"><ele>388.0</ele><time>2026-04-25T09:47:25.126Z</time></trkpt><trkpt lat="43.3874433" lon="10.5749067"><ele>388.0</ele><time>2026-04-25T09:47:26.121Z</time></trkpt><trkpt lat="43.3872833" lon="10.57484"><ele>388.0</ele><time>2026-04-25T09:47:27.125Z</time></trkpt><trkpt lat="43.3871133" lon="10.574765"><ele>389.33333333333337</ele><time>2026-04-25T09:47:28.123Z</time></trkpt><trkpt lat="43.3869367" lon="10.5746917"><ele>390.66666666666663</ele><time>2026-04-25T09:47:29.122Z</time></trkpt><trkpt lat="43.3867683" lon="10.5746183"><ele>392.0</ele><time>2026-04-25T09:47:30.115Z</time></trkpt><trkpt lat="43.38661" lon="10.57456"><ele>386.75</ele><time>2026-04-25T09:47:31.107Z</time></trkpt><trkpt lat="43.3864667" lon="10.5745117"><ele>381.5</ele><time>2026-04-25T09:47:32.121Z</time></trkpt><trkpt lat="43.3863383" lon="10.5744767"><ele>376.25</ele><time>2026-04-25T09:47:33.137Z</time></trkpt><trkpt lat="43.3862217" lon="10.574465"><ele>371.0</ele><time>2026-04-25T09:47:34.119Z</time></trkpt><trkpt lat="43.3861083" lon="10.5744883"><ele>373.0</ele><time>2026-04-25T09:47:35.12Z</time></trkpt><trkpt lat="43.385985" lon="10.5745433"><ele>375.0</ele><time>2026-04-25T09:47:36.127Z</time></trkpt><trkpt lat="43.3858517" lon="10.57463"><ele>377.0</ele><time>2026-04-25T09:47:37.124Z</time></trkpt><trkpt lat="43.3857133" lon="10.57474"><ele>379.0</ele><time>2026-04-25T09:47:38.118Z</time></trkpt><trkpt lat="43.3855767" lon="10.57487"><ele>378.0</ele><time>2026-04-25T09:47:39.129Z</time></trkpt><trkpt lat="43.3854483" lon="10.5750267"><ele>377.0</ele><time>2026-04-25T09:47:40.119Z</time></trkpt><trkpt lat="43.385325" lon="10.5751983"><ele>376.0</ele><time>2026-04-25T09:47:41.128Z</time></trkpt><trkpt lat="43.385215" lon="10.575365"><ele>376.0</ele><time>2026-04-25T09:47:42.125Z</time></trkpt><trkpt lat="43.3851033" lon="10.575515"><ele>376.0</ele><time>2026-04-25T09:47:43.12Z</time></trkpt><trkpt lat="43.384995" lon="10.5756483"><ele>376.0</ele><time>2026-04-25T09:47:44.119Z</time></trkpt><trkpt lat="43.3848917" lon="10.5757517"><ele>376.0</ele><time>2026-04-25T09:47:45.115Z</time></trkpt><trkpt lat="43.384785" lon="10.57583"><ele>372.75</ele><time>2026-04-25T09:47:46.111Z</time></trkpt><trkpt lat="43.3846767" lon="10.5758717"><ele>369.5</ele><time>2026-04-25T09:47:47.118Z</time></trkpt><trkpt lat="43.384565" lon="10.5758717"><ele>366.25</ele><time>2026-04-25T09:47:48.122Z</time></trkpt><trkpt lat="43.3844533" lon="10.5758267"><ele>363.0</ele><time>2026-04-25T09:47:49.126Z</time></trkpt><trkpt lat="43.3843417" lon="10.5757433"><ele>363.0</ele><time>2026-04-25T09:47:50.125Z</time></trkpt><trkpt lat="43.3842317" lon="10.5756517"><ele>363.0</ele><time>2026-04-25T09:47:51.122Z</time></trkpt><trkpt lat="43.3841167" lon="10.575585"><ele>363.0</ele><time>2026-04-25T09:47:52.124Z</time></trkpt><trkpt lat="43.3840067" lon="10.57555"><ele>363.0</ele><time>2026-04-25T09:47:53.129Z</time></trkpt><trkpt lat="43.3839067" lon="10.5755583"><ele>359.79999999999995</ele><time>2026-04-25T09:47:54.12Z</time></trkpt><trkpt lat="43.3838183" lon="10.57561"><ele>356.6</ele><time>2026-04-25T09:47:55.123Z</time></trkpt><trkpt lat="43.3837517" lon="10.5756883"><ele>353.4</ele><time>2026-04-25T09:47:56.116Z</time></trkpt><trkpt lat="43.3837017" lon="10.5757867"><ele>350.20000000000005</ele><time>2026-04-25T09:47:57.127Z</time></trkpt><trkpt lat="43.3836683" lon="10.5759083"><ele>347.0</ele><time>2026-04-25T09:47:58.12Z</time></trkpt><trkpt lat="43.383665" lon="10.5760517"><ele>346.25</ele><time>2026-04-25T09:47:59.115Z</time></trkpt><trkpt lat="43.3836867" lon="10.5762033"><ele>345.5</ele><time>2026-04-25T09:48:00.116Z</time></trkpt><trkpt lat="43.383735" lon="10.57636"><ele>344.75</ele><time>2026-04-25T09:48:01.119Z</time></trkpt><trkpt lat="43.3838017" lon="10.5765233"><ele>344.0</ele><time>2026-04-25T09:48:02.117Z</time></trkpt><trkpt lat="43.3838633" lon="10.5766933"><ele>348.25</ele><time>2026-04-25T09:48:03.127Z</time></trkpt><trkpt lat="43.3839067" lon="10.5768783"><ele>352.5</ele><time>2026-04-25T09:48:04.121Z</time></trkpt><trkpt lat="43.3839233" lon="10.5770783"><ele>356.75</ele><time>2026-04-25T09:48:05.123Z</time></trkpt><trkpt lat="43.38391" lon="10.5772883"><ele>361.0</ele><time>2026-04-25T09:48:06.122Z</time></trkpt><trkpt lat="43.3838767" lon="10.5774933"><ele>356.0</ele><time>2026-04-25T09:48:07.121Z</time></trkpt><trkpt lat="43.3838217" lon="10.5776867"><ele>351.0</ele><time>2026-04-25T09:48:08.119Z</time></trkpt><trkpt lat="43.383745" lon="10.5778733"><ele>346.0</ele><time>2026-04-25T09:48:09.122Z</time></trkpt><trkpt lat="43.3836383" lon="10.5780517"><ele>346.0</ele><time>2026-04-25T09:48:10.124Z</time></trkpt><trkpt lat="43.3835183" lon="10.5782233"><ele>346.0</ele><time>2026-04-25T09:48:11.118Z</time></trkpt><trkpt lat="43.38341" lon="10.5783983"><ele>346.0</ele><time>2026-04-25T09:48:12.116Z</time></trkpt><trkpt lat="43.38332" lon="10.578585"><ele>349.0</ele><time>2026-04-25T09:48:13.125Z</time></trkpt><trkpt lat="43.38324" lon="10.5787767"><ele>352.0</ele><time>2026-04-25T09:48:14.124Z</time></trkpt><trkpt lat="43.3831583" lon="10.5789617"><ele>355.0</ele><time>2026-04-25T09:48:15.13Z</time></trkpt><trkpt lat="43.3830633" lon="10.5791317"><ele>354.0</ele><time>2026-04-25T09:48:16.126Z</time></trkpt><trkpt lat="43.382945" lon="10.5792817"><ele>353.0</ele><time>2026-04-25T09:48:17.12Z</time></trkpt><trkpt lat="43.382815" lon="10.579425"><ele>352.0</ele><time>2026-04-25T09:48:18.118Z</time></trkpt><trkpt lat="43.3826767" lon="10.5795667"><ele>352.0</ele><time>2026-04-25T09:48:19.13Z</time></trkpt><trkpt lat="43.3825367" lon="10.5797117"><ele>352.0</ele><time>2026-04-25T09:48:20.107Z</time></trkpt><trkpt lat="43.3823967" lon="10.5798567"><ele>352.0</ele><time>2026-04-25T09:48:21.134Z</time></trkpt><trkpt lat="43.3822583" lon="10.5799967"><ele>350.3333333333333</ele><time>2026-04-25T09:48:22.112Z</time></trkpt><trkpt lat="43.3821267" lon="10.58013"><ele>348.6666666666667</ele><time>2026-04-25T09:48:23.117Z</time></trkpt><trkpt lat="43.3820033" lon="10.5802667"><ele>347.0</ele><time>2026-04-25T09:48:24.118Z</time></trkpt><trkpt lat="43.3818833" lon="10.58042"><ele>347.0</ele><time>2026-04-25T09:48:25.119Z</time></trkpt><trkpt lat="43.3817683" lon="10.58058"><ele>347.0</ele><time>2026-04-25T09:48:26.126Z</time></trkpt><trkpt lat="43.3816617" lon="10.5807317"><ele>347.0</ele><time>2026-04-25T09:48:27.117Z</time></trkpt><trkpt lat="43.381575" lon="10.5808583"><ele>347.0</ele><time>2026-04-25T09:48:28.127Z</time></trkpt><trkpt lat="43.38151" lon="10.5809733"><ele>347.0</ele><time>2026-04-25T09:48:29.124Z</time></trkpt><trkpt lat="43.3814667" lon="10.5811033"><ele>347.0</ele><time>2026-04-25T09:48:30.119Z</time></trkpt><trkpt lat="43.3814483" lon="10.5812567"><ele>347.0</ele><time>2026-04-25T09:48:31.123Z</time></trkpt><trkpt lat="43.3814583" lon="10.581415"><ele>347.0</ele><time>2026-04-25T09:48:32.12Z</time></trkpt><trkpt lat="43.3814917" lon="10.5815767"><ele>346.75</ele><time>2026-04-25T09:48:33.125Z</time></trkpt><trkpt lat="43.3815333" lon="10.5817467"><ele>346.5</ele><time>2026-04-25T09:48:34.133Z</time></trkpt><trkpt lat="43.3815817" lon="10.581915"><ele>346.25</ele><time>2026-04-25T09:48:35.13Z</time></trkpt><trkpt lat="43.3816267" lon="10.5820733"><ele>346.0</ele><time>2026-04-25T09:48:36.127Z</time></trkpt><trkpt lat="43.3816767" lon="10.5822183"><ele>344.5</ele><time>2026-04-25T09:48:37.126Z</time></trkpt><trkpt lat="43.381735" lon="10.58235"><ele>343.0</ele><time>2026-04-25T09:48:38.121Z</time></trkpt><trkpt lat="43.3818083" lon="10.58247"><ele>341.5</ele><time>2026-04-25T09:48:39.12Z</time></trkpt><trkpt lat="43.3819" lon="10.5825783"><ele>340.0</ele><time>2026-04-25T09:48:40.125Z</time></trkpt><trkpt lat="43.3820083" lon="10.58267"><ele>340.0</ele><time>2026-04-25T09:48:41.13Z</time></trkpt><trkpt lat="43.3821317" lon="10.58275"><ele>340.0</ele><time>2026-04-25T09:48:42.121Z</time></trkpt><trkpt lat="43.38226" lon="10.5828333"><ele>340.0</ele><time>2026-04-25T09:48:43.12Z</time></trkpt><trkpt lat="43.3823817" lon="10.5829283"><ele>340.0</ele><time>2026-04-25T09:48:44.122Z</time></trkpt><trkpt lat="43.3824983" lon="10.58304"><ele>340.0</ele><time>2026-04-25T09:48:45.125Z</time></trkpt><trkpt lat="43.3826" lon="10.5831683"><ele>340.0</ele><time>2026-04-25T09:48:46.111Z</time></trkpt><trkpt lat="43.3826883" lon="10.58332"><ele>340.0</ele><time>2026-04-25T09:48:47.122Z</time></trkpt><trkpt lat="43.3827633" lon="10.5834867"><ele>340.0</ele><time>2026-04-25T09:48:48.114Z</time></trkpt><trkpt lat="43.38282" lon="10.58367"><ele>338.5</ele><time>2026-04-25T09:48:49.124Z</time></trkpt><trkpt lat="43.382855" lon="10.5838683"><ele>337.0</ele><time>2026-04-25T09:48:50.113Z</time></trkpt><trkpt lat="43.382875" lon="10.5840633"><ele>335.5</ele><time>2026-04-25T09:48:51.123Z</time></trkpt><trkpt lat="43.3829017" lon="10.584255"><ele>334.0</ele><time>2026-04-25T09:48:52.118Z</time></trkpt><trkpt lat="43.3829483" lon="10.5844533"><ele>331.66666666666663</ele><time>2026-04-25T09:48:53.12Z</time></trkpt><trkpt lat="43.3830117" lon="10.5846633"><ele>329.3333333333333</ele><time>2026-04-25T09:48:54.122Z</time></trkpt><trkpt lat="43.383075" lon="10.5848883"><ele>327.0</ele><time>2026-04-25T09:48:55.128Z</time></trkpt><trkpt lat="43.3831217" lon="10.5851067"><ele>332.0</ele><time>2026-04-25T09:48:56.117Z</time></trkpt><trkpt lat="43.3831567" lon="10.58531"><ele>337.0</ele><time>2026-04-25T09:48:57.125Z</time></trkpt><trkpt lat="43.3831933" lon="10.5854983"><ele>342.0</ele><time>2026-04-25T09:48:58.12Z</time></trkpt><trkpt lat="43.383225" lon="10.5856883"><ele>347.0</ele><time>2026-04-25T09:48:59.127Z</time></trkpt><trkpt lat="43.3832383" lon="10.5858817"><ele>347.0</ele><time>2026-04-25T09:49:00.121Z</time></trkpt><trkpt lat="43.383225" lon="10.5860767"><ele>347.0</ele><time>2026-04-25T09:49:01.126Z</time></trkpt><trkpt lat="43.3831867" lon="10.5862733"><ele>347.0</ele><time>2026-04-25T09:49:02.117Z</time></trkpt><trkpt lat="43.3831433" lon="10.5864567"><ele>347.0</ele><time>2026-04-25T09:49:03.117Z</time></trkpt><trkpt lat="43.3831133" lon="10.58664"><ele>346.0</ele><time>2026-04-25T09:49:04.134Z</time></trkpt><trkpt lat="43.3831067" lon="10.5868383"><ele>345.0</ele><time>2026-04-25T09:49:05.126Z</time></trkpt><trkpt lat="43.38313" lon="10.587055"><ele>344.0</ele><time>2026-04-25T09:49:06.131Z</time></trkpt><trkpt lat="43.3831667" lon="10.58728"><ele>343.25</ele><time>2026-04-25T09:49:07.126Z</time></trkpt><trkpt lat="43.383205" lon="10.587495"><ele>342.5</ele><time>2026-04-25T09:49:08.131Z</time></trkpt><trkpt lat="43.3832417" lon="10.58769"><ele>341.75</ele><time>2026-04-25T09:49:09.129Z</time></trkpt><trkpt lat="43.3832867" lon="10.58787"><ele>341.0</ele><time>2026-04-25T09:49:10.12Z</time></trkpt><trkpt lat="43.3833567" lon="10.5880533"><ele>338.6666666666667</ele><time>2026-04-25T09:49:11.125Z</time></trkpt><trkpt lat="43.3834383" lon="10.5882433"><ele>336.3333333333333</ele><time>2026-04-25T09:49:12.132Z</time></trkpt><trkpt lat="43.3835117" lon="10.5884367"><ele>334.0</ele><time>2026-04-25T09:49:13.13Z</time></trkpt><trkpt lat="43.383565" lon="10.5886433"><ele>332.0</ele><time>2026-04-25T09:49:14.138Z</time></trkpt><trkpt lat="43.3836" lon="10.5888483"><ele>330.0</ele><time>2026-04-25T09:49:15.123Z</time></trkpt><trkpt lat="43.3836233" lon="10.589035"><ele>328.0</ele><time>2026-04-25T09:49:16.125Z</time></trkpt><trkpt lat="43.383655" lon="10.5892"><ele>326.0</ele><time>2026-04-25T09:49:17.13Z</time></trkpt><trkpt lat="43.3837033" lon="10.5893533"><ele>326.0</ele><time>2026-04-25T09:49:18.117Z</time></trkpt><trkpt lat="43.3837767" lon="10.5895067"><ele>326.0</ele><time>2026-04-25T09:49:19.122Z</time></trkpt><trkpt lat="43.38387" lon="10.5896617"><ele>326.0</ele><time>2026-04-25T09:49:20.117Z</time></trkpt><trkpt lat="43.3839717" lon="10.5898083"><ele>326.0</ele><time>2026-04-25T09:49:21.119Z</time></trkpt><trkpt lat="43.3840783" lon="10.589965"><ele>325.0</ele><time>2026-04-25T09:49:22.119Z</time></trkpt><trkpt lat="43.3841817" lon="10.5901367"><ele>324.0</ele><time>2026-04-25T09:49:23.119Z</time></trkpt><trkpt lat="43.384275" lon="10.5903317"><ele>323.0</ele><time>2026-04-25T09:49:24.126Z</time></trkpt><trkpt lat="43.3843533" lon="10.590535"><ele>323.0</ele><time>2026-04-25T09:49:25.117Z</time></trkpt><trkpt lat="43.3844217" lon="10.5907317"><ele>323.0</ele><time>2026-04-25T09:49:26.127Z</time></trkpt><trkpt lat="43.3844833" lon="10.5909167"><ele>323.0</ele><time>2026-04-25T09:49:27.113Z</time></trkpt><trkpt lat="43.3845383" lon="10.59108"><ele>323.0</ele><time>2026-04-25T09:49:28.127Z</time></trkpt><trkpt lat="43.3845983" lon="10.5912267"><ele>323.5</ele><time>2026-04-25T09:49:29.128Z</time></trkpt><trkpt lat="43.3846767" lon="10.5913533"><ele>324.0</ele><time>2026-04-25T09:49:30.121Z</time></trkpt><trkpt lat="43.3847733" lon="10.5914633"><ele>324.5</ele><time>2026-04-25T09:49:31.123Z</time></trkpt><trkpt lat="43.3848833" lon="10.5915567"><ele>325.0</ele><time>2026-04-25T09:49:32.118Z</time></trkpt><trkpt lat="43.3850017" lon="10.5916333"><ele>325.0</ele><time>2026-04-25T09:49:33.126Z</time></trkpt><trkpt lat="43.38513" lon="10.5916917"><ele>325.0</ele><time>2026-04-25T09:49:34.122Z</time></trkpt><trkpt lat="43.3852683" lon="10.5917267"><ele>325.0</ele><time>2026-04-25T09:49:35.117Z</time></trkpt><trkpt lat="43.385405" lon="10.5917417"><ele>325.0</ele><time>2026-04-25T09:49:36.109Z</time></trkpt><trkpt lat="43.3855367" lon="10.59175"><ele>326.5</ele><time>2026-04-25T09:49:37.12Z</time></trkpt><trkpt lat="43.3856617" lon="10.591755"><ele>328.0</ele><time>2026-04-25T09:49:38.121Z</time></trkpt><trkpt lat="43.3857783" lon="10.5917783"><ele>329.5</ele><time>2026-04-25T09:49:39.122Z</time></trkpt><trkpt lat="43.385885" lon="10.5918333"><ele>331.0</ele><time>2026-04-25T09:49:40.124Z</time></trkpt><trkpt lat="43.3859833" lon="10.5919183"><ele>328.5</ele><time>2026-04-25T09:49:41.124Z</time></trkpt><trkpt lat="43.38606" lon="10.5920283"><ele>326.0</ele><time>2026-04-25T09:49:42.124Z</time></trkpt><trkpt lat="43.386105" lon="10.5921717"><ele>323.5</ele><time>2026-04-25T09:49:43.132Z</time></trkpt><trkpt lat="43.38613" lon="10.5923383"><ele>321.0</ele><time>2026-04-25T09:49:44.12Z</time></trkpt><trkpt lat="43.3861483" lon="10.5925267"><ele>321.0</ele><time>2026-04-25T09:49:45.131Z</time></trkpt><trkpt lat="43.3861683" lon="10.592725"><ele>321.0</ele><time>2026-04-25T09:49:46.123Z</time></trkpt><trkpt lat="43.386175" lon="10.592915"><ele>321.0</ele><time>2026-04-25T09:49:47.119Z</time></trkpt><trkpt lat="43.3861767" lon="10.5930917"><ele>321.0</ele><time>2026-04-25T09:49:48.125Z</time></trkpt><trkpt lat="43.3861867" lon="10.5932517"><ele>320.40000000000003</ele><time>2026-04-25T09:49:49.12Z</time></trkpt><trkpt lat="43.3862033" lon="10.593395"><ele>319.8</ele><time>2026-04-25T09:49:50.121Z</time></trkpt><trkpt lat="43.386245" lon="10.5935233"><ele>319.20000000000005</ele><time>2026-04-25T09:49:51.116Z</time></trkpt><trkpt lat="43.38632" lon="10.5936317"><ele>318.6</ele><time>2026-04-25T09:49:52.126Z</time></trkpt><trkpt lat="43.3864267" lon="10.593725"><ele>318.0</ele><time>2026-04-25T09:49:53.121Z</time></trkpt><trkpt lat="43.3865633" lon="10.5938217"><ele>318.0</ele><time>2026-04-25T09:49:54.117Z</time></trkpt><trkpt lat="43.3867167" lon="10.5939533"><ele>318.0</ele><time>2026-04-25T09:49:55.123Z</time></trkpt><trkpt lat="43.3868717" lon="10.59409"><ele>318.0</ele><time>2026-04-25T09:49:56.114Z</time></trkpt><trkpt lat="43.38702" lon="10.594205"><ele>318.0</ele><time>2026-04-25T09:49:57.117Z</time></trkpt><trkpt lat="43.3871583" lon="10.5943067"><ele>318.0</ele><time>2026-04-25T09:49:58.119Z</time></trkpt><trkpt lat="43.38729" lon="10.5944067"><ele>318.0</ele><time>2026-04-25T09:49:59.124Z</time></trkpt><trkpt lat="43.3874083" lon="10.594515"><ele>318.0</ele><time>2026-04-25T09:50:00.124Z</time></trkpt><trkpt lat="43.38751" lon="10.5946233"><ele>318.3333333333333</ele><time>2026-04-25T09:50:01.127Z</time></trkpt><trkpt lat="43.3875967" lon="10.5947233"><ele>318.6666666666667</ele><time>2026-04-25T09:50:02.125Z</time></trkpt><trkpt lat="43.387665" lon="10.5948167"><ele>319.0</ele><time>2026-04-25T09:50:03.127Z</time></trkpt><trkpt lat="43.3877133" lon="10.59491"><ele>319.33333333333337</ele><time>2026-04-25T09:50:04.118Z</time></trkpt><trkpt lat="43.3877417" lon="10.595"><ele>319.6666666666667</ele><time>2026-04-25T09:50:05.123Z</time></trkpt><trkpt lat="43.3877517" lon="10.5950917"><ele>320.0</ele><time>2026-04-25T09:50:06.123Z</time></trkpt><trkpt lat="43.3877317" lon="10.595175"><ele>320.0</ele><time>2026-04-25T09:50:07.134Z</time></trkpt><trkpt lat="43.3876817" lon="10.5952517"><ele>320.0</ele><time>2026-04-25T09:50:08.127Z</time></trkpt><trkpt lat="43.3875933" lon="10.595325"><ele>320.0</ele><time>2026-04-25T09:50:09.124Z</time></trkpt><trkpt lat="43.3874667" lon="10.5953983"><ele>320.0</ele><time>2026-04-25T09:50:10.128Z</time></trkpt><trkpt lat="43.3873267" lon="10.5954817"><ele>322.75</ele><time>2026-04-25T09:50:11.12Z</time></trkpt><trkpt lat="43.38719" lon="10.5955783"><ele>325.5</ele><time>2026-04-25T09:50:12.122Z</time></trkpt><trkpt lat="43.3870833" lon="10.5957017"><ele>328.25</ele><time>2026-04-25T09:50:13.116Z</time></trkpt><trkpt lat="43.387005" lon="10.5958517"><ele>331.0</ele><time>2026-04-25T09:50:14.121Z</time></trkpt><trkpt lat="43.38694" lon="10.5960517"><ele>324.0</ele><time>2026-04-25T09:50:15.132Z</time></trkpt><trkpt lat="43.38689" lon="10.5963183"><ele>317.0</ele><time>2026-04-25T09:50:16.129Z</time></trkpt><trkpt lat="43.38683" lon="10.5966217"><ele>310.0</ele><time>2026-04-25T09:50:17.122Z</time></trkpt><trkpt lat="43.38677" lon="10.59692"><ele>311.3333333333333</ele><time>2026-04-25T09:50:18.121Z</time></trkpt><trkpt lat="43.386715" lon="10.597195"><ele>312.6666666666667</ele><time>2026-04-25T09:50:19.123Z</time></trkpt><trkpt lat="43.3866667" lon="10.5974567"><ele>314.0</ele><time>2026-04-25T09:50:20.132Z</time></trkpt><trkpt lat="43.3866317" lon="10.5977"><ele>314.33333333333337</ele><time>2026-04-25T09:50:21.127Z</time></trkpt><trkpt lat="43.38661" lon="10.5979317"><ele>314.6666666666667</ele><time>2026-04-25T09:50:22.128Z</time></trkpt><trkpt lat="43.3866083" lon="10.59816"><ele>315.0</ele><time>2026-04-25T09:50:23.113Z</time></trkpt><trkpt lat="43.386625" lon="10.5983833"><ele>315.0</ele><time>2026-04-25T09:50:24.121Z</time></trkpt><trkpt lat="43.386655" lon="10.59861"><ele>315.0</ele><time>2026-04-25T09:50:25.128Z</time></trkpt><trkpt lat="43.386695" lon="10.5988267"><ele>315.0</ele><time>2026-04-25T09:50:26.124Z</time></trkpt><trkpt lat="43.3867383" lon="10.5990217"><ele>314.0</ele><time>2026-04-25T09:50:27.124Z</time></trkpt><trkpt lat="43.38678" lon="10.5992"><ele>313.0</ele><time>2026-04-25T09:50:28.126Z</time></trkpt><trkpt lat="43.3868117" lon="10.599365"><ele>312.0</ele><time>2026-04-25T09:50:29.131Z</time></trkpt><trkpt lat="43.386825" lon="10.5995133"><ele>311.0</ele><time>2026-04-25T09:50:30.116Z</time></trkpt><trkpt lat="43.3868267" lon="10.5996433"><ele>311.0</ele><time>2026-04-25T09:50:31.106Z</time></trkpt><trkpt lat="43.3868133" lon="10.5997567"><ele>311.0</ele><time>2026-04-25T09:50:32.113Z</time></trkpt><trkpt lat="43.38678" lon="10.5998533"><ele>311.0</ele><time>2026-04-25T09:50:33.118Z</time></trkpt><trkpt lat="43.3867167" lon="10.5999567"><ele>311.0</ele><time>2026-04-25T09:50:34.128Z</time></trkpt><trkpt lat="43.3866083" lon="10.6000633"><ele>311.0</ele><time>2026-04-25T09:50:35.121Z</time></trkpt><trkpt lat="43.38646" lon="10.6001917"><ele>311.6666666666667</ele><time>2026-04-25T09:50:36.117Z</time></trkpt><trkpt lat="43.386265" lon="10.600355"><ele>312.3333333333333</ele><time>2026-04-25T09:50:37.123Z</time></trkpt><trkpt lat="43.3860867" lon="10.6005067"><ele>313.0</ele><time>2026-04-25T09:50:38.118Z</time></trkpt><trkpt lat="43.38592" lon="10.6006467"><ele>313.0</ele><time>2026-04-25T09:50:39.12Z</time></trkpt><trkpt lat="43.3857767" lon="10.6007667"><ele>313.0</ele><time>2026-04-25T09:50:40.136Z</time></trkpt><trkpt lat="43.38565" lon="10.6008767"><ele>313.0</ele><time>2026-04-25T09:50:41.122Z</time></trkpt><trkpt lat="43.3855333" lon="10.6009917"><ele>311.3333333333333</ele><time>2026-04-25T09:50:42.125Z</time></trkpt><trkpt lat="43.38542" lon="10.601115"><ele>309.6666666666667</ele><time>2026-04-25T09:50:43.124Z</time></trkpt><trkpt lat="43.3853" lon="10.6012633"><ele>308.0</ele><time>2026-04-25T09:50:44.132Z</time></trkpt><trkpt lat="43.3851717" lon="10.6014417"><ele>308.0</ele><time>2026-04-25T09:50:45.121Z</time></trkpt><trkpt lat="43.385055" lon="10.6016317"><ele>308.0</ele><time>2026-04-25T09:50:46.121Z</time></trkpt><trkpt lat="43.3849417" lon="10.6018217"><ele>308.0</ele><time>2026-04-25T09:50:47.123Z</time></trkpt><trkpt lat="43.3848217" lon="10.6020067"><ele>306.0</ele><time>2026-04-25T09:50:48.119Z</time></trkpt><trkpt lat="43.3846833" lon="10.6021867"><ele>304.0</ele><time>2026-04-25T09:50:49.127Z</time></trkpt><trkpt lat="43.384525" lon="10.6023683"><ele>302.0</ele><time>2026-04-25T09:50:50.12Z</time></trkpt><trkpt lat="43.3843533" lon="10.6025517"><ele>302.0</ele><time>2026-04-25T09:50:51.121Z</time></trkpt><trkpt lat="43.3841883" lon="10.6027283"><ele>302.0</ele><time>2026-04-25T09:50:52.12Z</time></trkpt><trkpt lat="43.3840367" lon="10.6028983"><ele>302.0</ele><time>2026-04-25T09:50:53.121Z</time></trkpt><trkpt lat="43.3838967" lon="10.6030683"><ele>301.0</ele><time>2026-04-25T09:50:54.121Z</time></trkpt><trkpt lat="43.3837667" lon="10.60324"><ele>300.0</ele><time>2026-04-25T09:50:55.131Z</time></trkpt><trkpt lat="43.3836417" lon="10.6034067"><ele>299.0</ele><time>2026-04-25T09:50:56.121Z</time></trkpt><trkpt lat="43.38353" lon="10.6035617"><ele>302.0</ele><time>2026-04-25T09:50:57.127Z</time></trkpt><trkpt lat="43.3834233" lon="10.6036967"><ele>305.0</ele><time>2026-04-25T09:50:58.126Z</time></trkpt><trkpt lat="43.3833233" lon="10.6038133"><ele>308.0</ele><time>2026-04-25T09:50:59.121Z</time></trkpt><trkpt lat="43.3832233" lon="10.60391"><ele>311.0</ele><time>2026-04-25T09:51:00.133Z</time></trkpt><trkpt lat="43.3831133" lon="10.6039767"><ele>308.33333333333337</ele><time>2026-04-25T09:51:01.129Z</time></trkpt><trkpt lat="43.382985" lon="10.6040083"><ele>305.6666666666667</ele><time>2026-04-25T09:51:02.122Z</time></trkpt><trkpt lat="43.3828317" lon="10.60401"><ele>303.0</ele><time>2026-04-25T09:51:03.124Z</time></trkpt><trkpt lat="43.3826583" lon="10.6039917"><ele>303.0</ele><time>2026-04-25T09:51:04.123Z</time></trkpt><trkpt lat="43.3824783" lon="10.6039883"><ele>303.0</ele><time>2026-04-25T09:51:05.123Z</time></trkpt><trkpt lat="43.38231" lon="10.60399"><ele>303.0</ele><time>2026-04-25T09:51:06.121Z</time></trkpt><trkpt lat="43.3821683" lon="10.60399"><ele>302.75</ele><time>2026-04-25T09:51:07.121Z</time></trkpt><trkpt lat="43.3820333" lon="10.6039767"><ele>302.5</ele><time>2026-04-25T09:51:08.115Z</time></trkpt><trkpt lat="43.381895" lon="10.6039267"><ele>302.25</ele><time>2026-04-25T09:51:09.118Z</time></trkpt><trkpt lat="43.3817467" lon="10.603825"><ele>302.0</ele><time>2026-04-25T09:51:10.107Z</time></trkpt><trkpt lat="43.3816" lon="10.60369"><ele>297.6666666666667</ele><time>2026-04-25T09:51:11.117Z</time></trkpt><trkpt lat="43.381455" lon="10.6035667"><ele>293.3333333333333</ele><time>2026-04-25T09:51:12.125Z</time></trkpt><trkpt lat="43.3813033" lon="10.6034633"><ele>289.0</ele><time>2026-04-25T09:51:13.115Z</time></trkpt><trkpt lat="43.3811567" lon="10.6033833"><ele>289.0</ele><time>2026-04-25T09:51:14.12Z</time></trkpt><trkpt lat="43.381025" lon="10.6033067"><ele>289.0</ele><time>2026-04-25T09:51:15.118Z</time></trkpt><trkpt lat="43.38091" lon="10.6032267"><ele>289.0</ele><time>2026-04-25T09:51:16.122Z</time></trkpt><trkpt lat="43.3808117" lon="10.6031317"><ele>289.0</ele><time>2026-04-25T09:51:17.121Z</time></trkpt><trkpt lat="43.380735" lon="10.6030033"><ele>290.0</ele><time>2026-04-25T09:51:18.133Z</time></trkpt><trkpt lat="43.3806683" lon="10.60283"><ele>291.0</ele><time>2026-04-25T09:51:19.126Z</time></trkpt><trkpt lat="43.380595" lon="10.602615"><ele>292.0</ele><time>2026-04-25T09:51:20.121Z</time></trkpt><trkpt lat="43.3805" lon="10.6023767"><ele>292.0</ele><time>2026-04-25T09:51:21.123Z</time></trkpt><trkpt lat="43.38038" lon="10.6021267"><ele>292.0</ele><time>2026-04-25T09:51:22.128Z</time></trkpt><trkpt lat="43.38026" lon="10.6018767"><ele>292.0</ele><time>2026-04-25T09:51:23.119Z</time></trkpt><trkpt lat="43.38015" lon="10.6016367"><ele>290.3333333333333</ele><time>2026-04-25T09:51:24.129Z</time></trkpt><trkpt lat="43.380055" lon="10.6014083"><ele>288.6666666666667</ele><time>2026-04-25T09:51:25.131Z</time></trkpt><trkpt lat="43.3799717" lon="10.6011983"><ele>287.0</ele><time>2026-04-25T09:51:26.132Z</time></trkpt><trkpt lat="43.3798967" lon="10.6010083"><ele>285.4</ele><time>2026-04-25T09:51:27.125Z</time></trkpt><trkpt lat="43.379825" lon="10.6008483"><ele>283.79999999999995</ele><time>2026-04-25T09:51:28.126Z</time></trkpt><trkpt lat="43.3797583" lon="10.6007233"><ele>282.2</ele><time>2026-04-25T09:51:29.126Z</time></trkpt><trkpt lat="43.37968" lon="10.6006383"><ele>280.59999999999997</ele><time>2026-04-25T09:51:30.126Z</time></trkpt><trkpt lat="43.3795883" lon="10.6005867"><ele>279.0</ele><time>2026-04-25T09:51:31.126Z</time></trkpt><trkpt lat="43.3794683" lon="10.6005667"><ele>279.0</ele><time>2026-04-25T09:51:32.126Z</time></trkpt><trkpt lat="43.37932" lon="10.6005683"><ele>279.0</ele><time>2026-04-25T09:51:33.121Z</time></trkpt><trkpt lat="43.379155" lon="10.6005617"><ele>279.0</ele><time>2026-04-25T09:51:34.126Z</time></trkpt><trkpt lat="43.3789867" lon="10.6005317"><ele>281.3333333333333</ele><time>2026-04-25T09:51:35.128Z</time></trkpt><trkpt lat="43.37883" lon="10.60048"><ele>283.66666666666663</ele><time>2026-04-25T09:51:36.123Z</time></trkpt><trkpt lat="43.3786817" lon="10.6004067"><ele>286.0</ele><time>2026-04-25T09:51:37.132Z</time></trkpt><trkpt lat="43.3785417" lon="10.6003083"><ele>281.75</ele><time>2026-04-25T09:51:38.124Z</time></trkpt><trkpt lat="43.3784117" lon="10.6001983"><ele>277.5</ele><time>2026-04-25T09:51:39.131Z</time></trkpt><trkpt lat="43.3782917" lon="10.6000867"><ele>273.25</ele><time>2026-04-25T09:51:40.12Z</time></trkpt><trkpt lat="43.3781767" lon="10.5999867"><ele>269.0</ele><time>2026-04-25T09:51:41.124Z</time></trkpt><trkpt lat="43.37806" lon="10.5999083"><ele>270.0</ele><time>2026-04-25T09:51:42.132Z</time></trkpt><trkpt lat="43.3779333" lon="10.5998533"><ele>271.0</ele><time>2026-04-25T09:51:43.132Z</time></trkpt><trkpt lat="43.37779" lon="10.5998217"><ele>272.0</ele><time>2026-04-25T09:51:44.127Z</time></trkpt><trkpt lat="43.37765" lon="10.5998017"><ele>273.0</ele><time>2026-04-25T09:51:45.121Z</time></trkpt><trkpt lat="43.3775267" lon="10.599785"><ele>273.0</ele><time>2026-04-25T09:51:46.125Z</time></trkpt><trkpt lat="43.37742" lon="10.5997683"><ele>273.0</ele><time>2026-04-25T09:51:47.139Z</time></trkpt><trkpt lat="43.3773267" lon="10.599755"><ele>273.0</ele><time>2026-04-25T09:51:48.13Z</time></trkpt><trkpt lat="43.3772483" lon="10.5997467"><ele>273.0</ele><time>2026-04-25T09:51:49.121Z</time></trkpt><trkpt lat="43.3771467" lon="10.5997333"><ele>273.0</ele><time>2026-04-25T09:51:51.124Z</time></trkpt><trkpt lat="43.3772633" lon="10.5998083"><ele>273.0</ele><time>2026-04-25T09:52:02.123Z</time></trkpt><trkpt lat="43.37734" lon="10.599815"><ele>273.0</ele><time>2026-04-25T09:52:03.137Z</time></trkpt><trkpt lat="43.3774083" lon="10.59983"><ele>273.0</ele><time>2026-04-25T09:52:04.127Z</time></trkpt><trkpt lat="43.3774833" lon="10.5999267"><ele>273.0</ele><time>2026-04-25T09:52:06.123Z</time></trkpt><trkpt lat="43.3774567" lon="10.600075"><ele>273.0</ele><time>2026-04-25T09:52:08.127Z</time></trkpt><trkpt lat="43.3773967" lon="10.600155"><ele>273.0</ele><time>2026-04-25T09:52:09.113Z</time></trkpt><trkpt lat="43.3773083" lon="10.6002417"><ele>273.0</ele><time>2026-04-25T09:52:10.13Z</time></trkpt><trkpt lat="43.3772133" lon="10.6003317"><ele>273.0</ele><time>2026-04-25T09:52:11.12Z</time></trkpt><trkpt lat="43.3771217" lon="10.6004217"><ele>273.0</ele><time>2026-04-25T09:52:12.122Z</time></trkpt><trkpt lat="43.377025" lon="10.6005083"><ele>273.0</ele><time>2026-04-25T09:52:13.11Z</time></trkpt><trkpt lat="43.37693" lon="10.6005933"><ele>275.6</ele><time>2026-04-25T09:52:14.111Z</time></trkpt><trkpt lat="43.37684" lon="10.6006717"><ele>278.20000000000005</ele><time>2026-04-25T09:52:15.114Z</time></trkpt><trkpt lat="43.3767567" lon="10.6007533"><ele>280.8</ele><time>2026-04-25T09:52:16.12Z</time></trkpt><trkpt lat="43.3766817" lon="10.6008383"><ele>283.40000000000003</ele><time>2026-04-25T09:52:17.122Z</time></trkpt><trkpt lat="43.37661" lon="10.600925"><ele>286.0</ele><time>2026-04-25T09:52:18.122Z</time></trkpt><trkpt lat="43.37654" lon="10.6010033"><ele>286.0</ele><time>2026-04-25T09:52:19.129Z</time></trkpt><trkpt lat="43.3764733" lon="10.6010617"><ele>286.0</ele><time>2026-04-25T09:52:20.123Z</time></trkpt><trkpt lat="43.3764017" lon="10.6010983"><ele>286.0</ele><time>2026-04-25T09:52:21.125Z</time></trkpt><trkpt lat="43.3763233" lon="10.6011133"><ele>286.0</ele><time>2026-04-25T09:52:22.124Z</time></trkpt><trkpt lat="43.37624" lon="10.6011067"><ele>286.0</ele><time>2026-04-25T09:52:23.114Z</time></trkpt><trkpt lat="43.3761483" lon="10.6010767"><ele>286.0</ele><time>2026-04-25T09:52:24.121Z</time></trkpt><trkpt lat="43.3760483" lon="10.6010283"><ele>288.75</ele><time>2026-04-25T09:52:25.13Z</time></trkpt><trkpt lat="43.3759467" lon="10.60094"><ele>291.5</ele><time>2026-04-25T09:52:26.121Z</time></trkpt><trkpt lat="43.375845" lon="10.60085"><ele>294.25</ele><time>2026-04-25T09:52:27.124Z</time></trkpt><trkpt lat="43.3757533" lon="10.60076"><ele>297.0</ele><time>2026-04-25T09:52:28.112Z</time></trkpt><trkpt lat="43.37566" lon="10.6006783"><ele>297.0</ele><time>2026-04-25T09:52:29.113Z</time></trkpt><trkpt lat="43.3755517" lon="10.6005967"><ele>297.0</ele><time>2026-04-25T09:52:30.117Z</time></trkpt><trkpt lat="43.375445" lon="10.600535"><ele>297.0</ele><time>2026-04-25T09:52:31.128Z</time></trkpt><trkpt lat="43.37534" lon="10.600475"><ele>297.0</ele><time>2026-04-25T09:52:32.133Z</time></trkpt><trkpt lat="43.3752317" lon="10.6004317"><ele>299.0</ele><time>2026-04-25T09:52:33.127Z</time></trkpt><trkpt lat="43.375115" lon="10.6004133"><ele>301.0</ele><time>2026-04-25T09:52:34.123Z</time></trkpt><trkpt lat="43.3749767" lon="10.60042"><ele>303.0</ele><time>2026-04-25T09:52:35.124Z</time></trkpt><trkpt lat="43.3748383" lon="10.60045"><ele>305.0</ele><time>2026-04-25T09:52:36.132Z</time></trkpt><trkpt lat="43.374715" lon="10.6005067"><ele>303.5</ele><time>2026-04-25T09:52:37.122Z</time></trkpt><trkpt lat="43.3746067" lon="10.60057"><ele>302.0</ele><time>2026-04-25T09:52:38.125Z</time></trkpt><trkpt lat="43.37454" lon="10.6006517"><ele>300.5</ele><time>2026-04-25T09:52:39.126Z</time></trkpt><trkpt lat="43.3745" lon="10.6007333"><ele>299.0</ele><time>2026-04-25T09:52:40.136Z</time></trkpt><trkpt lat="43.37448" lon="10.60083"><ele>297.5</ele><time>2026-04-25T09:52:41.127Z</time></trkpt><trkpt lat="43.374485" lon="10.6009467"><ele>296.0</ele><time>2026-04-25T09:52:42.124Z</time></trkpt><trkpt lat="43.3745183" lon="10.60108"><ele>296.5</ele><time>2026-04-25T09:52:43.126Z</time></trkpt><trkpt lat="43.3745767" lon="10.6012383"><ele>297.0</ele><time>2026-04-25T09:52:44.124Z</time></trkpt><trkpt lat="43.37466" lon="10.60141"><ele>297.5</ele><time>2026-04-25T09:52:45.129Z</time></trkpt><trkpt lat="43.3747783" lon="10.6015683"><ele>298.0</ele><time>2026-04-25T09:52:46.138Z</time></trkpt><trkpt lat="43.3748967" lon="10.6017167"><ele>301.75</ele><time>2026-04-25T09:52:47.129Z</time></trkpt><trkpt lat="43.3750017" lon="10.60184"><ele>305.5</ele><time>2026-04-25T09:52:48.12Z</time></trkpt><trkpt lat="43.3750933" lon="10.6019467"><ele>309.25</ele><time>2026-04-25T09:52:49.131Z</time></trkpt><trkpt lat="43.3751783" lon="10.6020517"><ele>313.0</ele><time>2026-04-25T09:52:50.122Z</time></trkpt><trkpt lat="43.3752567" lon="10.602155"><ele>313.0</ele><time>2026-04-25T09:52:51.123Z</time></trkpt><trkpt lat="43.3753217" lon="10.6022783"><ele>313.0</ele><time>2026-04-25T09:52:52.135Z</time></trkpt><trkpt lat="43.3753783" lon="10.602415"><ele>313.0</ele><time>2026-04-25T09:52:53.132Z</time></trkpt><trkpt lat="43.3754167" lon="10.602555"><ele>313.0</ele><time>2026-04-25T09:52:54.127Z</time></trkpt><trkpt lat="43.37546" lon="10.6026867"><ele>313.0</ele><time>2026-04-25T09:52:55.133Z</time></trkpt><trkpt lat="43.3755133" lon="10.6028233"><ele>314.75</ele><time>2026-04-25T09:52:56.137Z</time></trkpt><trkpt lat="43.3755783" lon="10.6029533"><ele>316.5</ele><time>2026-04-25T09:52:57.13Z</time></trkpt><trkpt lat="43.3756417" lon="10.603085"><ele>318.25</ele><time>2026-04-25T09:52:58.128Z</time></trkpt><trkpt lat="43.3757083" lon="10.6032133"><ele>320.0</ele><time>2026-04-25T09:52:59.124Z</time></trkpt><trkpt lat="43.3757767" lon="10.6033383"><ele>320.0</ele><time>2026-04-25T09:53:00.133Z</time></trkpt><trkpt lat="43.3758467" lon="10.60346"><ele>320.0</ele><time>2026-04-25T09:53:01.127Z</time></trkpt><trkpt lat="43.37592" lon="10.6035783"><ele>320.0</ele><time>2026-04-25T09:53:02.118Z</time></trkpt><trkpt lat="43.3759917" lon="10.6036833"><ele>320.0</ele><time>2026-04-25T09:53:03.111Z</time></trkpt><trkpt lat="43.3760633" lon="10.6037733"><ele>320.0</ele><time>2026-04-25T09:53:04.125Z</time></trkpt><trkpt lat="43.3761333" lon="10.6038517"><ele>320.6</ele><time>2026-04-25T09:53:05.127Z</time></trkpt><trkpt lat="43.3761883" lon="10.6039217"><ele>321.2</ele><time>2026-04-25T09:53:06.134Z</time></trkpt><trkpt lat="43.3762933" lon="10.604015"><ele>321.79999999999995</ele><time>2026-04-25T09:53:08.118Z</time></trkpt><trkpt lat="43.376375" lon="10.6040533"><ele>322.4</ele><time>2026-04-25T09:53:09.121Z</time></trkpt><trkpt lat="43.3764733" lon="10.6041017"><ele>323.0</ele><time>2026-04-25T09:53:10.119Z</time></trkpt><trkpt lat="43.3765867" lon="10.6041667"><ele>325.0</ele><time>2026-04-25T09:53:11.121Z</time></trkpt><trkpt lat="43.3767133" lon="10.6042483"><ele>327.0</ele><time>2026-04-25T09:53:12.119Z</time></trkpt><trkpt lat="43.3768733" lon="10.604355"><ele>329.0</ele><time>2026-04-25T09:53:13.124Z</time></trkpt><trkpt lat="43.37708" lon="10.6045033"><ele>331.0</ele><time>2026-04-25T09:53:14.125Z</time></trkpt><trkpt lat="43.3773267" lon="10.6046867"><ele>333.0</ele><time>2026-04-25T09:53:15.128Z</time></trkpt><trkpt lat="43.377555" lon="10.6048633"><ele>333.0</ele><time>2026-04-25T09:53:16.12Z</time></trkpt><trkpt lat="43.3777533" lon="10.6050167"><ele>333.0</ele><time>2026-04-25T09:53:17.116Z</time></trkpt><trkpt lat="43.37793" lon="10.6051533"><ele>333.0</ele><time>2026-04-25T09:53:18.13Z</time></trkpt><trkpt lat="43.3780933" lon="10.6052817"><ele>334.3333333333333</ele><time>2026-04-25T09:53:19.113Z</time></trkpt><trkpt lat="43.378245" lon="10.6054117"><ele>335.66666666666663</ele><time>2026-04-25T09:53:20.115Z</time></trkpt><trkpt lat="43.3783917" lon="10.6055467"><ele>337.0</ele><time>2026-04-25T09:53:21.124Z</time></trkpt><trkpt lat="43.3785183" lon="10.6056667"><ele>337.0</ele><time>2026-04-25T09:53:22.124Z</time></trkpt><trkpt lat="43.378625" lon="10.6057633"><ele>337.0</ele><time>2026-04-25T09:53:23.124Z</time></trkpt><trkpt lat="43.3787217" lon="10.6058233"><ele>337.0</ele><time>2026-04-25T09:53:24.12Z</time></trkpt><trkpt lat="43.3788183" lon="10.6058383"><ele>337.0</ele><time>2026-04-25T09:53:25.122Z</time></trkpt><trkpt lat="43.37892" lon="10.6058183"><ele>337.0</ele><time>2026-04-25T09:53:26.114Z</time></trkpt><trkpt lat="43.3790167" lon="10.605775"><ele>339.6</ele><time>2026-04-25T09:53:27.121Z</time></trkpt><trkpt lat="43.3791083" lon="10.6057417"><ele>342.20000000000005</ele><time>2026-04-25T09:53:28.119Z</time></trkpt><trkpt lat="43.379185" lon="10.6057383"><ele>344.8</ele><time>2026-04-25T09:53:29.115Z</time></trkpt><trkpt lat="43.3792867" lon="10.6058383"><ele>347.4</ele><time>2026-04-25T09:53:31.126Z</time></trkpt><trkpt lat="43.3793067" lon="10.6059417"><ele>350.0</ele><time>2026-04-25T09:53:32.126Z</time></trkpt><trkpt lat="43.3793217" lon="10.6060633"><ele>351.25</ele><time>2026-04-25T09:53:33.119Z</time></trkpt><trkpt lat="43.3793567" lon="10.6061833"><ele>352.5</ele><time>2026-04-25T09:53:34.13Z</time></trkpt><trkpt lat="43.3794283" lon="10.6063033"><ele>353.75</ele><time>2026-04-25T09:53:35.119Z</time></trkpt><trkpt lat="43.379525" lon="10.6064417"><ele>355.0</ele><time>2026-04-25T09:53:36.122Z</time></trkpt><trkpt lat="43.3796267" lon="10.606585"><ele>357.75</ele><time>2026-04-25T09:53:37.124Z</time></trkpt><trkpt lat="43.3797167" lon="10.60674"><ele>360.5</ele><time>2026-04-25T09:53:38.121Z</time></trkpt><trkpt lat="43.3797833" lon="10.6069033"><ele>363.25</ele><time>2026-04-25T09:53:39.123Z</time></trkpt><trkpt lat="43.3798417" lon="10.607045"><ele>366.0</ele><time>2026-04-25T09:53:40.134Z</time></trkpt><trkpt lat="43.37991" lon="10.60717"><ele>366.6666666666667</ele><time>2026-04-25T09:53:41.117Z</time></trkpt><trkpt lat="43.3800117" lon="10.6072833"><ele>367.33333333333337</ele><time>2026-04-25T09:53:42.121Z</time></trkpt><trkpt lat="43.3801683" lon="10.607375"><ele>368.0</ele><time>2026-04-25T09:53:43.128Z</time></trkpt><trkpt lat="43.3803367" lon="10.6074517"><ele>368.0</ele><time>2026-04-25T09:53:44.122Z</time></trkpt><trkpt lat="43.3804817" lon="10.607515"><ele>368.0</ele><time>2026-04-25T09:53:45.136Z</time></trkpt><trkpt lat="43.3805967" lon="10.6075767"><ele>368.0</ele><time>2026-04-25T09:53:46.125Z</time></trkpt><trkpt lat="43.3806883" lon="10.6076533"><ele>368.0</ele><time>2026-04-25T09:53:47.123Z</time></trkpt><trkpt lat="43.3807733" lon="10.6077467"><ele>368.75</ele><time>2026-04-25T09:53:48.134Z</time></trkpt><trkpt lat="43.3808617" lon="10.6078433"><ele>369.5</ele><time>2026-04-25T09:53:49.113Z</time></trkpt><trkpt lat="43.3809633" lon="10.6079433"><ele>370.25</ele><time>2026-04-25T09:53:50.113Z</time></trkpt><trkpt lat="43.3810917" lon="10.6080367"><ele>371.0</ele><time>2026-04-25T09:53:51.126Z</time></trkpt><trkpt lat="43.3812433" lon="10.60812"><ele>374.0</ele><time>2026-04-25T09:53:52.12Z</time></trkpt><trkpt lat="43.3813883" lon="10.6081883"><ele>377.0</ele><time>2026-04-25T09:53:53.13Z</time></trkpt><trkpt lat="43.3815117" lon="10.608235"><ele>380.0</ele><time>2026-04-25T09:53:54.118Z</time></trkpt><trkpt lat="43.3816183" lon="10.6082667"><ele>383.0</ele><time>2026-04-25T09:53:55.112Z</time></trkpt><trkpt lat="43.381715" lon="10.6082867"><ele>383.0</ele><time>2026-04-25T09:53:56.114Z</time></trkpt><trkpt lat="43.381805" lon="10.6083033"><ele>383.0</ele><time>2026-04-25T09:53:57.121Z</time></trkpt><trkpt lat="43.3818983" lon="10.6083167"><ele>383.0</ele><time>2026-04-25T09:53:58.134Z</time></trkpt><trkpt lat="43.382" lon="10.6083333"><ele>383.0</ele><time>2026-04-25T09:53:59.123Z</time></trkpt><trkpt lat="43.3821033" lon="10.6083633"><ele>383.0</ele><time>2026-04-25T09:54:00.132Z</time></trkpt><trkpt lat="43.38221" lon="10.6084033"><ele>383.0</ele><time>2026-04-25T09:54:01.126Z</time></trkpt><trkpt lat="43.38232" lon="10.6084533"><ele>383.0</ele><time>2026-04-25T09:54:02.122Z</time></trkpt><trkpt lat="43.3824317" lon="10.6085067"><ele>383.0</ele><time>2026-04-25T09:54:03.133Z</time></trkpt><trkpt lat="43.38254" lon="10.608575"><ele>383.0</ele><time>2026-04-25T09:54:04.116Z</time></trkpt><trkpt lat="43.38264" lon="10.6086633"><ele>382.4</ele><time>2026-04-25T09:54:05.113Z</time></trkpt><trkpt lat="43.3827367" lon="10.6087617"><ele>381.79999999999995</ele><time>2026-04-25T09:54:06.12Z</time></trkpt><trkpt lat="43.3828267" lon="10.6088567"><ele>381.2</ele><time>2026-04-25T09:54:07.126Z</time></trkpt><trkpt lat="43.3829117" lon="10.6089317"><ele>380.6</ele><time>2026-04-25T09:54:08.12Z</time></trkpt><trkpt lat="43.3830033" lon="10.6089917"><ele>380.0</ele><time>2026-04-25T09:54:09.113Z</time></trkpt><trkpt lat="43.3831083" lon="10.6090267"><ele>381.5</ele><time>2026-04-25T09:54:10.126Z</time></trkpt><trkpt lat="43.3832233" lon="10.60905"><ele>383.0</ele><time>2026-04-25T09:54:11.127Z</time></trkpt><trkpt lat="43.3833567" lon="10.6090667"><ele>384.5</ele><time>2026-04-25T09:54:12.12Z</time></trkpt><trkpt lat="43.3835033" lon="10.6090783"><ele>386.0</ele><time>2026-04-25T09:54:13.117Z</time></trkpt><trkpt lat="43.38367" lon="10.60909"><ele>386.0</ele><time>2026-04-25T09:54:14.118Z</time></trkpt><trkpt lat="43.38384" lon="10.6091033"><ele>386.0</ele><time>2026-04-25T09:54:15.122Z</time></trkpt><trkpt lat="43.3839983" lon="10.60912"><ele>386.0</ele><time>2026-04-25T09:54:16.122Z</time></trkpt><trkpt lat="43.38415" lon="10.609145"><ele>387.3333333333333</ele><time>2026-04-25T09:54:17.118Z</time></trkpt><trkpt lat="43.3843117" lon="10.6091883"><ele>388.66666666666663</ele><time>2026-04-25T09:54:18.136Z</time></trkpt><trkpt lat="43.3844967" lon="10.609255"><ele>390.0</ele><time>2026-04-25T09:54:19.127Z</time></trkpt><trkpt lat="43.3847017" lon="10.6093417"><ele>392.0</ele><time>2026-04-25T09:54:20.118Z</time></trkpt><trkpt lat="43.3848983" lon="10.6094317"><ele>394.0</ele><time>2026-04-25T09:54:21.118Z</time></trkpt><trkpt lat="43.3850767" lon="10.6095117"><ele>396.0</ele><time>2026-04-25T09:54:22.125Z</time></trkpt><trkpt lat="43.38523" lon="10.6095817"><ele>397.0</ele><time>2026-04-25T09:54:23.126Z</time></trkpt><trkpt lat="43.385365" lon="10.6096483"><ele>398.0</ele><time>2026-04-25T09:54:24.119Z</time></trkpt><trkpt lat="43.3854933" lon="10.6097317"><ele>399.0</ele><time>2026-04-25T09:54:25.118Z</time></trkpt><trkpt lat="43.3856267" lon="10.6098333"><ele>400.0</ele><time>2026-04-25T09:54:26.117Z</time></trkpt><trkpt lat="43.3857717" lon="10.6099583"><ele>404.0</ele><time>2026-04-25T09:54:27.114Z</time></trkpt><trkpt lat="43.3859367" lon="10.6100967"><ele>408.0</ele><time>2026-04-25T09:54:28.127Z</time></trkpt><trkpt lat="43.3861133" lon="10.6102417"><ele>412.0</ele><time>2026-04-25T09:54:29.132Z</time></trkpt><trkpt lat="43.3862867" lon="10.610385"><ele>417.33333333333337</ele><time>2026-04-25T09:54:30.122Z</time></trkpt><trkpt lat="43.3864467" lon="10.6105167"><ele>422.66666666666663</ele><time>2026-04-25T09:54:31.131Z</time></trkpt><trkpt lat="43.3865933" lon="10.6106217"><ele>428.0</ele><time>2026-04-25T09:54:32.117Z</time></trkpt><trkpt lat="43.3867367" lon="10.6106967"><ele>428.0</ele><time>2026-04-25T09:54:33.122Z</time></trkpt><trkpt lat="43.3868833" lon="10.6107483"><ele>428.0</ele><time>2026-04-25T09:54:34.129Z</time></trkpt><trkpt lat="43.3870483" lon="10.6107717"><ele>428.0</ele><time>2026-04-25T09:54:35.124Z</time></trkpt><trkpt lat="43.3872083" lon="10.6107817"><ele>430.25</ele><time>2026-04-25T09:54:36.121Z</time></trkpt><trkpt lat="43.3873517" lon="10.61078"><ele>432.5</ele><time>2026-04-25T09:54:37.129Z</time></trkpt><trkpt lat="43.387475" lon="10.6107767"><ele>434.75</ele><time>2026-04-25T09:54:38.122Z</time></trkpt><trkpt lat="43.3875983" lon="10.6108033"><ele>437.0</ele><time>2026-04-25T09:54:39.123Z</time></trkpt><trkpt lat="43.38774" lon="10.6108583"><ele>437.0</ele><time>2026-04-25T09:54:40.117Z</time></trkpt><trkpt lat="43.387895" lon="10.6109433"><ele>437.0</ele><time>2026-04-25T09:54:41.119Z</time></trkpt><trkpt lat="43.3880333" lon="10.6110367"><ele>437.0</ele><time>2026-04-25T09:54:42.119Z</time></trkpt><trkpt lat="43.3881467" lon="10.6111217"><ele>438.5</ele><time>2026-04-25T09:54:43.126Z</time></trkpt><trkpt lat="43.3882533" lon="10.6111833"><ele>440.0</ele><time>2026-04-25T09:54:44.114Z</time></trkpt><trkpt lat="43.3883633" lon="10.6112217"><ele>441.5</ele><time>2026-04-25T09:54:45.123Z</time></trkpt><trkpt lat="43.3884917" lon="10.6112433"><ele>443.0</ele><time>2026-04-25T09:54:46.136Z</time></trkpt><trkpt lat="43.3886167" lon="10.61125"><ele>443.0</ele><time>2026-04-25T09:54:47.117Z</time></trkpt><trkpt lat="43.38873" lon="10.6112483"><ele>443.0</ele><time>2026-04-25T09:54:48.122Z</time></trkpt><trkpt lat="43.388855" lon="10.6112367"><ele>443.0</ele><time>2026-04-25T09:54:49.122Z</time></trkpt><trkpt lat="43.388995" lon="10.6112033"><ele>443.0</ele><time>2026-04-25T09:54:50.122Z</time></trkpt><trkpt lat="43.3891483" lon="10.61114"><ele>447.0</ele><time>2026-04-25T09:54:51.129Z</time></trkpt><trkpt lat="43.3893117" lon="10.6110533"><ele>451.0</ele><time>2026-04-25T09:54:52.127Z</time></trkpt><trkpt lat="43.3894767" lon="10.6109617"><ele>455.0</ele><time>2026-04-25T09:54:53.123Z</time></trkpt><trkpt lat="43.3896283" lon="10.61087"><ele>456.25</ele><time>2026-04-25T09:54:54.117Z</time></trkpt><trkpt lat="43.38976" lon="10.6107933"><ele>457.5</ele><time>2026-04-25T09:54:55.124Z</time></trkpt><trkpt lat="43.3898767" lon="10.6107183"><ele>458.75</ele><time>2026-04-25T09:54:56.125Z</time></trkpt><trkpt lat="43.389985" lon="10.6106483"><ele>460.0</ele><time>2026-04-25T09:54:57.131Z</time></trkpt><trkpt lat="43.39009" lon="10.6105833"><ele>460.0</ele><time>2026-04-25T09:54:58.119Z</time></trkpt><trkpt lat="43.390205" lon="10.6105267"><ele>460.0</ele><time>2026-04-25T09:54:59.129Z</time></trkpt><trkpt lat="43.3903317" lon="10.6104967"><ele>460.0</ele><time>2026-04-25T09:55:00.126Z</time></trkpt><trkpt lat="43.39048" lon="10.6104967"><ele>460.0</ele><time>2026-04-25T09:55:01.119Z</time></trkpt><trkpt lat="43.390625" lon="10.6105067"><ele>459.25</ele><time>2026-04-25T09:55:02.114Z</time></trkpt><trkpt lat="43.3907667" lon="10.610515"><ele>458.5</ele><time>2026-04-25T09:55:03.116Z</time></trkpt><trkpt lat="43.3908917" lon="10.61052"><ele>457.75</ele><time>2026-04-25T09:55:04.123Z</time></trkpt><trkpt lat="43.3909967" lon="10.6105383"><ele>457.0</ele><time>2026-04-25T09:55:05.126Z</time></trkpt><trkpt lat="43.3910833" lon="10.6105817"><ele>457.0</ele><time>2026-04-25T09:55:06.13Z</time></trkpt><trkpt lat="43.39116" lon="10.6106583"><ele>457.00000000000006</ele><time>2026-04-25T09:55:07.119Z</time></trkpt><trkpt lat="43.39122" lon="10.6107817"><ele>457.00000000000006</ele><time>2026-04-25T09:55:08.123Z</time></trkpt><trkpt lat="43.3912733" lon="10.61091"><ele>457.0</ele><time>2026-04-25T09:55:09.13Z</time></trkpt><trkpt lat="43.3913367" lon="10.6110283"><ele>457.0</ele><time>2026-04-25T09:55:10.126Z</time></trkpt><trkpt lat="43.3914233" lon="10.6111283"><ele>456.6</ele><time>2026-04-25T09:55:11.126Z</time></trkpt><trkpt lat="43.3915233" lon="10.611215"><ele>456.20000000000005</ele><time>2026-04-25T09:55:12.127Z</time></trkpt><trkpt lat="43.39162" lon="10.6112983"><ele>455.8</ele><time>2026-04-25T09:55:13.12Z</time></trkpt><trkpt lat="43.3917" lon="10.6113783"><ele>455.4</ele><time>2026-04-25T09:55:14.117Z</time></trkpt><trkpt lat="43.39175" lon="10.6114733"><ele>455.0</ele><time>2026-04-25T09:55:15.127Z</time></trkpt><trkpt lat="43.3917717" lon="10.6115767"><ele>455.0</ele><time>2026-04-25T09:55:16.122Z</time></trkpt><trkpt lat="43.3917783" lon="10.611685"><ele>455.0</ele><time>2026-04-25T09:55:17.117Z</time></trkpt><trkpt lat="43.391755" lon="10.6118067"><ele>455.0</ele><time>2026-04-25T09:55:18.12Z</time></trkpt><trkpt lat="43.3917433" lon="10.61194"><ele>455.0</ele><time>2026-04-25T09:55:19.124Z</time></trkpt><trkpt lat="43.3917467" lon="10.61207"><ele>455.0</ele><time>2026-04-25T09:55:20.118Z</time></trkpt><trkpt lat="43.3917783" lon="10.612185"><ele>454.4</ele><time>2026-04-25T09:55:21.119Z</time></trkpt><trkpt lat="43.3918267" lon="10.6122917"><ele>453.8</ele><time>2026-04-25T09:55:22.121Z</time></trkpt><trkpt lat="43.3919" lon="10.61238"><ele>453.20000000000005</ele><time>2026-04-25T09:55:23.119Z</time></trkpt><trkpt lat="43.3920067" lon="10.6124433"><ele>452.6</ele><time>2026-04-25T09:55:24.128Z</time></trkpt><trkpt lat="43.3921267" lon="10.6125083"><ele>452.0</ele><time>2026-04-25T09:55:25.118Z</time></trkpt><trkpt lat="43.3922533" lon="10.6125833"><ele>453.75</ele><time>2026-04-25T09:55:26.122Z</time></trkpt><trkpt lat="43.3923767" lon="10.6126733"><ele>455.5</ele><time>2026-04-25T09:55:27.123Z</time></trkpt><trkpt lat="43.3924833" lon="10.6127783"><ele>457.25</ele><time>2026-04-25T09:55:28.126Z</time></trkpt><trkpt lat="43.392575" lon="10.6129067"><ele>459.0</ele><time>2026-04-25T09:55:29.117Z</time></trkpt><trkpt lat="43.39266" lon="10.61306"><ele>459.0</ele><time>2026-04-25T09:55:30.125Z</time></trkpt><trkpt lat="43.39273" lon="10.613215"><ele>459.0</ele><time>2026-04-25T09:55:31.121Z</time></trkpt><trkpt lat="43.3927933" lon="10.6133733"><ele>459.0</ele><time>2026-04-25T09:55:32.124Z</time></trkpt><trkpt lat="43.3928383" lon="10.6135333"><ele>459.0</ele><time>2026-04-25T09:55:33.126Z</time></trkpt><trkpt lat="43.3928633" lon="10.6137017"><ele>459.5</ele><time>2026-04-25T09:55:34.116Z</time></trkpt><trkpt lat="43.3928717" lon="10.6138717"><ele>460.0</ele><time>2026-04-25T09:55:35.117Z</time></trkpt><trkpt lat="43.39286" lon="10.6140467"><ele>460.5</ele><time>2026-04-25T09:55:36.108Z</time></trkpt><trkpt lat="43.3928483" lon="10.61423"><ele>461.0</ele><time>2026-04-25T09:55:37.118Z</time></trkpt><trkpt lat="43.39284" lon="10.6144083"><ele>462.4</ele><time>2026-04-25T09:55:38.114Z</time></trkpt><trkpt lat="43.3928267" lon="10.6145733"><ele>463.8</ele><time>2026-04-25T09:55:39.126Z</time></trkpt><trkpt lat="43.3928" lon="10.61472"><ele>465.19999999999993</ele><time>2026-04-25T09:55:40.118Z</time></trkpt><trkpt lat="43.3927517" lon="10.61485"><ele>466.59999999999997</ele><time>2026-04-25T09:55:41.117Z</time></trkpt><trkpt lat="43.3926983" lon="10.61497"><ele>468.0</ele><time>2026-04-25T09:55:42.13Z</time></trkpt><trkpt lat="43.392655" lon="10.61509"><ele>468.0</ele><time>2026-04-25T09:55:43.123Z</time></trkpt><trkpt lat="43.3926417" lon="10.6152033"><ele>468.0</ele><time>2026-04-25T09:55:44.134Z</time></trkpt><trkpt lat="43.39265" lon="10.615315"><ele>468.0</ele><time>2026-04-25T09:55:45.132Z</time></trkpt><trkpt lat="43.392675" lon="10.6154183"><ele>468.0</ele><time>2026-04-25T09:55:46.125Z</time></trkpt><trkpt lat="43.392725" lon="10.6155133"><ele>468.0</ele><time>2026-04-25T09:55:47.113Z</time></trkpt><trkpt lat="43.3928033" lon="10.6155917"><ele>468.0</ele><time>2026-04-25T09:55:48.125Z</time></trkpt><trkpt lat="43.3928817" lon="10.6156467"><ele>467.59999999999997</ele><time>2026-04-25T09:55:49.118Z</time></trkpt><trkpt lat="43.392965" lon="10.61567"><ele>467.19999999999993</ele><time>2026-04-25T09:55:50.122Z</time></trkpt><trkpt lat="43.3930533" lon="10.6156583"><ele>466.8</ele><time>2026-04-25T09:55:51.114Z</time></trkpt><trkpt lat="43.3931567" lon="10.6156067"><ele>466.4</ele><time>2026-04-25T09:55:52.121Z</time></trkpt><trkpt lat="43.3932617" lon="10.6155717"><ele>466.0</ele><time>2026-04-25T09:55:53.115Z</time></trkpt><trkpt lat="43.393365" lon="10.6155483"><ele>466.6</ele><time>2026-04-25T09:55:54.112Z</time></trkpt><trkpt lat="43.3934633" lon="10.6155483"><ele>467.20000000000005</ele><time>2026-04-25T09:55:55.123Z</time></trkpt><trkpt lat="43.3935667" lon="10.6155667"><ele>467.79999999999995</ele><time>2026-04-25T09:55:56.138Z</time></trkpt><trkpt lat="43.3936717" lon="10.615605"><ele>468.4</ele><time>2026-04-25T09:55:57.117Z</time></trkpt><trkpt lat="43.3937817" lon="10.6156483"><ele>469.0</ele><time>2026-04-25T09:55:58.124Z</time></trkpt><trkpt lat="43.3938867" lon="10.6156917"><ele>469.0</ele><time>2026-04-25T09:55:59.125Z</time></trkpt><trkpt lat="43.3939917" lon="10.61576"><ele>469.0</ele><time>2026-04-25T09:56:00.121Z</time></trkpt><trkpt lat="43.39409" lon="10.6158467"><ele>469.0</ele><time>2026-04-25T09:56:01.128Z</time></trkpt><trkpt lat="43.394185" lon="10.615955"><ele>469.0</ele><time>2026-04-25T09:56:02.123Z</time></trkpt><trkpt lat="43.3942783" lon="10.616085"><ele>465.25</ele><time>2026-04-25T09:56:03.135Z</time></trkpt><trkpt lat="43.3943717" lon="10.6162333"><ele>461.5</ele><time>2026-04-25T09:56:04.116Z</time></trkpt><trkpt lat="43.39445" lon="10.616385"><ele>457.75</ele><time>2026-04-25T09:56:05.119Z</time></trkpt><trkpt lat="43.39452" lon="10.6165217"><ele>454.0</ele><time>2026-04-25T09:56:06.124Z</time></trkpt><trkpt lat="43.3945883" lon="10.6166217"><ele>454.00000000000006</ele><time>2026-04-25T09:56:07.127Z</time></trkpt><trkpt lat="43.3946633" lon="10.6166983"><ele>454.0</ele><time>2026-04-25T09:56:08.125Z</time></trkpt><trkpt lat="43.3947467" lon="10.6167633"><ele>454.0</ele><time>2026-04-25T09:56:09.127Z</time></trkpt><trkpt lat="43.3948383" lon="10.6167883"><ele>454.0</ele><time>2026-04-25T09:56:10.125Z</time></trkpt><trkpt lat="43.3949233" lon="10.6167867"><ele>454.00000000000006</ele><time>2026-04-25T09:56:11.116Z</time></trkpt><trkpt lat="43.3950033" lon="10.6168033"><ele>454.0</ele><time>2026-04-25T09:56:12.115Z</time></trkpt><trkpt lat="43.3950683" lon="10.6168483"><ele>455.79999999999995</ele><time>2026-04-25T09:56:13.118Z</time></trkpt><trkpt lat="43.3951167" lon="10.61693"><ele>457.59999999999997</ele><time>2026-04-25T09:56:14.123Z</time></trkpt><trkpt lat="43.3951533" lon="10.617025"><ele>459.4</ele><time>2026-04-25T09:56:15.123Z</time></trkpt><trkpt lat="43.3951717" lon="10.6171533"><ele>461.2</ele><time>2026-04-25T09:56:16.114Z</time></trkpt><trkpt lat="43.3952017" lon="10.6172883"><ele>463.0</ele><time>2026-04-25T09:56:17.123Z</time></trkpt><trkpt lat="43.3952467" lon="10.6174183"><ele>463.0</ele><time>2026-04-25T09:56:18.119Z</time></trkpt><trkpt lat="43.3953083" lon="10.6175183"><ele>462.99999999999994</ele><time>2026-04-25T09:56:19.122Z</time></trkpt><trkpt lat="43.3953833" lon="10.6175717"><ele>462.99999999999994</ele><time>2026-04-25T09:56:20.127Z</time></trkpt><trkpt lat="43.395485" lon="10.6175733"><ele>463.0</ele><time>2026-04-25T09:56:21.126Z</time></trkpt><trkpt lat="43.3956067" lon="10.6175233"><ele>463.0</ele><time>2026-04-25T09:56:22.127Z</time></trkpt><trkpt lat="43.3957517" lon="10.6174083"><ele>469.6666666666667</ele><time>2026-04-25T09:56:23.126Z</time></trkpt><trkpt lat="43.3959033" lon="10.6172933"><ele>476.33333333333337</ele><time>2026-04-25T09:56:24.127Z</time></trkpt><trkpt lat="43.39605" lon="10.6171983"><ele>483.0</ele><time>2026-04-25T09:56:25.123Z</time></trkpt><trkpt lat="43.39619" lon="10.6171183"><ele>483.0</ele><time>2026-04-25T09:56:26.116Z</time></trkpt><trkpt lat="43.396325" lon="10.6170617"><ele>482.99999999999994</ele><time>2026-04-25T09:56:27.145Z</time></trkpt><trkpt lat="43.3964333" lon="10.6170233"><ele>482.99999999999994</ele><time>2026-04-25T09:56:28.126Z</time></trkpt><trkpt lat="43.3965183" lon="10.6170217"><ele>483.0</ele><time>2026-04-25T09:56:29.126Z</time></trkpt><trkpt lat="43.396605" lon="10.6170417"><ele>483.0</ele><time>2026-04-25T09:56:30.127Z</time></trkpt><trkpt lat="43.3966683" lon="10.617085"><ele>485.79999999999995</ele><time>2026-04-25T09:56:31.129Z</time></trkpt><trkpt lat="43.3967217" lon="10.61717"><ele>488.59999999999997</ele><time>2026-04-25T09:56:32.121Z</time></trkpt><trkpt lat="43.3967683" lon="10.6172783"><ele>491.40000000000003</ele><time>2026-04-25T09:56:33.132Z</time></trkpt><trkpt lat="43.3968267" lon="10.61739"><ele>494.20000000000005</ele><time>2026-04-25T09:56:34.12Z</time></trkpt><trkpt lat="43.3969067" lon="10.6174933"><ele>497.0</ele><time>2026-04-25T09:56:35.131Z</time></trkpt><trkpt lat="43.3970183" lon="10.6175617"><ele>497.0</ele><time>2026-04-25T09:56:36.129Z</time></trkpt><trkpt lat="43.397155" lon="10.6176133"><ele>497.0</ele><time>2026-04-25T09:56:37.127Z</time></trkpt><trkpt lat="43.3973017" lon="10.6176567"><ele>497.0</ele><time>2026-04-25T09:56:38.126Z</time></trkpt><trkpt lat="43.39745" lon="10.6176817"><ele>497.0</ele><time>2026-04-25T09:56:39.121Z</time></trkpt><trkpt lat="43.3976033" lon="10.617675"><ele>501.25</ele><time>2026-04-25T09:56:40.129Z</time></trkpt><trkpt lat="43.3977617" lon="10.6176533"><ele>505.5</ele><time>2026-04-25T09:56:41.131Z</time></trkpt><trkpt lat="43.3979083" lon="10.617615"><ele>509.75</ele><time>2026-04-25T09:56:42.132Z</time></trkpt><trkpt lat="43.3980367" lon="10.6175583"><ele>514.0</ele><time>2026-04-25T09:56:43.129Z</time></trkpt><trkpt lat="43.3981383" lon="10.6174917"><ele>516.5</ele><time>2026-04-25T09:56:44.131Z</time></trkpt><trkpt lat="43.39823" lon="10.6174383"><ele>519.0</ele><time>2026-04-25T09:56:45.129Z</time></trkpt><trkpt lat="43.39833" lon="10.617395"><ele>521.5</ele><time>2026-04-25T09:56:46.12Z</time></trkpt><trkpt lat="43.3984567" lon="10.6173667"><ele>524.0</ele><time>2026-04-25T09:56:47.125Z</time></trkpt><trkpt lat="43.398605" lon="10.61735"><ele>524.0</ele><time>2026-04-25T09:56:48.137Z</time></trkpt><trkpt lat="43.398755" lon="10.617335"><ele>524.0</ele><time>2026-04-25T09:56:49.121Z</time></trkpt><trkpt lat="43.398895" lon="10.61732"><ele>524.0</ele><time>2026-04-25T09:56:50.126Z</time></trkpt><trkpt lat="43.3990183" lon="10.6173117"><ele>524.0</ele><time>2026-04-25T09:56:51.119Z</time></trkpt><trkpt lat="43.3991267" lon="10.617315"><ele>526.0</ele><time>2026-04-25T09:56:52.127Z</time></trkpt><trkpt lat="43.3992183" lon="10.6173433"><ele>528.0</ele><time>2026-04-25T09:56:53.131Z</time></trkpt><trkpt lat="43.3992967" lon="10.617395"><ele>530.0</ele><time>2026-04-25T09:56:54.124Z</time></trkpt><trkpt lat="43.3993633" lon="10.61747"><ele>532.0</ele><time>2026-04-25T09:56:55.121Z</time></trkpt><trkpt lat="43.3993917" lon="10.61759"><ele>534.0</ele><time>2026-04-25T09:56:56.123Z</time></trkpt><trkpt lat="43.3993817" lon="10.6177417"><ele>533.6</ele><time>2026-04-25T09:56:57.127Z</time></trkpt><trkpt lat="43.3993617" lon="10.61789"><ele>533.2</ele><time>2026-04-25T09:56:58.124Z</time></trkpt><trkpt lat="43.39936" lon="10.6180317"><ele>532.8000000000001</ele><time>2026-04-25T09:56:59.126Z</time></trkpt><trkpt lat="43.3993717" lon="10.6181683"><ele>532.4</ele><time>2026-04-25T09:57:00.124Z</time></trkpt><trkpt lat="43.3993933" lon="10.618285"><ele>532.0</ele><time>2026-04-25T09:57:01.12Z</time></trkpt><trkpt lat="43.3994183" lon="10.6183767"><ele>532.0</ele><time>2026-04-25T09:57:02.131Z</time></trkpt><trkpt lat="43.3994617" lon="10.6185067"><ele>532.0</ele><time>2026-04-25T09:57:04.111Z</time></trkpt><trkpt lat="43.3994583" lon="10.6186"><ele>532.0</ele><time>2026-04-25T09:57:40.114Z</time></trkpt><trkpt lat="43.3994633" lon="10.61877"><ele>532.0</ele><time>2026-04-25T09:57:42.122Z</time></trkpt><trkpt lat="43.3994633" lon="10.618875"><ele>532.0</ele><time>2026-04-25T09:57:43.12Z</time></trkpt><trkpt lat="43.3994633" lon="10.618995"><ele>532.0</ele><time>2026-04-25T09:57:44.129Z</time></trkpt><trkpt lat="43.3994583" lon="10.6191133"><ele>532.0</ele><time>2026-04-25T09:57:45.123Z</time></trkpt><trkpt lat="43.3994517" lon="10.6192383"><ele>532.0</ele><time>2026-04-25T09:57:46.122Z</time></trkpt><trkpt lat="43.39944" lon="10.6193583"><ele>532.0</ele><time>2026-04-25T09:57:47.13Z</time></trkpt><trkpt lat="43.3994217" lon="10.6194783"><ele>532.0</ele><time>2026-04-25T09:57:48.124Z</time></trkpt><trkpt lat="43.3993917" lon="10.6195967"><ele>532.0</ele><time>2026-04-25T09:57:49.126Z</time></trkpt><trkpt lat="43.3993483" lon="10.6197117"><ele>532.2</ele><time>2026-04-25T09:57:50.12Z</time></trkpt><trkpt lat="43.3993" lon="10.6198283"><ele>532.4000000000001</ele><time>2026-04-25T09:57:51.125Z</time></trkpt><trkpt lat="43.3992517" lon="10.6199467"><ele>532.5999999999999</ele><time>2026-04-25T09:57:52.12Z</time></trkpt><trkpt lat="43.399205" lon="10.62007"><ele>532.8</ele><time>2026-04-25T09:57:53.125Z</time></trkpt><trkpt lat="43.3991517" lon="10.6201883"><ele>533.0</ele><time>2026-04-25T09:57:54.137Z</time></trkpt><trkpt lat="43.3990933" lon="10.6202967"><ele>533.6666666666666</ele><time>2026-04-25T09:57:55.13Z</time></trkpt><trkpt lat="43.3990333" lon="10.6203983"><ele>534.3333333333333</ele><time>2026-04-25T09:57:56.128Z</time></trkpt><trkpt lat="43.3989783" lon="10.620495"><ele>535.0</ele><time>2026-04-25T09:57:57.121Z</time></trkpt><trkpt lat="43.3989283" lon="10.6205917"><ele>535.6666666666666</ele><time>2026-04-25T09:57:58.128Z</time></trkpt><trkpt lat="43.3988783" lon="10.620685"><ele>536.3333333333334</ele><time>2026-04-25T09:57:59.126Z</time></trkpt><trkpt lat="43.398835" lon="10.6207717"><ele>537.0</ele><time>2026-04-25T09:58:00.127Z</time></trkpt><trkpt lat="43.3988" lon="10.6208617"><ele>536.8333333333334</ele><time>2026-04-25T09:58:01.121Z</time></trkpt><trkpt lat="43.3987733" lon="10.6209617"><ele>536.6666666666666</ele><time>2026-04-25T09:58:02.121Z</time></trkpt><trkpt lat="43.3987533" lon="10.6210667"><ele>536.5</ele><time>2026-04-25T09:58:03.125Z</time></trkpt><trkpt lat="43.398745" lon="10.621175"><ele>536.3333333333333</ele><time>2026-04-25T09:58:04.123Z</time></trkpt><trkpt lat="43.3987483" lon="10.6212833"><ele>536.1666666666666</ele><time>2026-04-25T09:58:05.128Z</time></trkpt><trkpt lat="43.3987567" lon="10.621385"><ele>536.0</ele><time>2026-04-25T09:58:06.125Z</time></trkpt><trkpt lat="43.3987633" lon="10.6214717"><ele>536.0</ele><time>2026-04-25T09:58:07.124Z</time></trkpt><trkpt lat="43.3987583" lon="10.62156"><ele>536.0</ele><time>2026-04-25T09:58:08.119Z</time></trkpt><trkpt lat="43.398735" lon="10.6216467"><ele>536.0</ele><time>2026-04-25T09:58:09.121Z</time></trkpt><trkpt lat="43.3986933" lon="10.6217367"><ele>536.0</ele><time>2026-04-25T09:58:10.117Z</time></trkpt><trkpt lat="43.3986383" lon="10.6218333"><ele>536.0</ele><time>2026-04-25T09:58:11.12Z</time></trkpt><trkpt lat="43.3985783" lon="10.6219383"><ele>536.0</ele><time>2026-04-25T09:58:12.124Z</time></trkpt><trkpt lat="43.3985267" lon="10.6220517"><ele>536.0</ele><time>2026-04-25T09:58:13.126Z</time></trkpt><trkpt lat="43.3984833" lon="10.6221617"><ele>536.0</ele><time>2026-04-25T09:58:14.131Z</time></trkpt><trkpt lat="43.3984533" lon="10.6222717"><ele>536.0</ele><time>2026-04-25T09:58:15.124Z</time></trkpt><trkpt lat="43.3984383" lon="10.6223933"><ele>536.0</ele><time>2026-04-25T09:58:16.124Z</time></trkpt><trkpt lat="43.3984433" lon="10.6225283"><ele>536.0</ele><time>2026-04-25T09:58:17.122Z</time></trkpt><trkpt lat="43.3984467" lon="10.6226617"><ele>536.0</ele><time>2026-04-25T09:58:18.139Z</time></trkpt><trkpt lat="43.3984417" lon="10.6227783"><ele>536.0</ele><time>2026-04-25T09:58:19.126Z</time></trkpt><trkpt lat="43.3984267" lon="10.6228833"><ele>536.0</ele><time>2026-04-25T09:58:20.123Z</time></trkpt><trkpt lat="43.3983983" lon="10.6229867"><ele>536.0</ele><time>2026-04-25T09:58:21.128Z</time></trkpt><trkpt lat="43.39836" lon="10.6230933"><ele>536.0</ele><time>2026-04-25T09:58:22.131Z</time></trkpt><trkpt lat="43.3983133" lon="10.6231983"><ele>536.0</ele><time>2026-04-25T09:58:23.127Z</time></trkpt><trkpt lat="43.3982567" lon="10.6233133"><ele>535.6666666666666</ele><time>2026-04-25T09:58:24.13Z</time></trkpt><trkpt lat="43.3981933" lon="10.6234233"><ele>535.3333333333333</ele><time>2026-04-25T09:58:25.121Z</time></trkpt><trkpt lat="43.3981317" lon="10.6235267"><ele>535.0</ele><time>2026-04-25T09:58:26.13Z</time></trkpt><trkpt lat="43.3980783" lon="10.62362"><ele>534.6666666666666</ele><time>2026-04-25T09:58:27.131Z</time></trkpt><trkpt lat="43.3980417" lon="10.6237133"><ele>534.3333333333334</ele><time>2026-04-25T09:58:28.126Z</time></trkpt><trkpt lat="43.3980233" lon="10.623815"><ele>534.0</ele><time>2026-04-25T09:58:29.128Z</time></trkpt><trkpt lat="43.3980183" lon="10.6239217"><ele>533.6666666666666</ele><time>2026-04-25T09:58:30.127Z</time></trkpt><trkpt lat="43.3980283" lon="10.6240317"><ele>533.3333333333334</ele><time>2026-04-25T09:58:31.123Z</time></trkpt><trkpt lat="43.398045" lon="10.62414"><ele>533.0</ele><time>2026-04-25T09:58:32.116Z</time></trkpt><trkpt lat="43.3980617" lon="10.6242433"><ele>532.6666666666667</ele><time>2026-04-25T09:58:33.122Z</time></trkpt><trkpt lat="43.3980717" lon="10.62434"><ele>532.3333333333334</ele><time>2026-04-25T09:58:34.119Z</time></trkpt><trkpt lat="43.39808" lon="10.6244367"><ele>532.0</ele><time>2026-04-25T09:58:35.128Z</time></trkpt><trkpt lat="43.398085" lon="10.624545"><ele>531.4285714285714</ele><time>2026-04-25T09:58:36.129Z</time></trkpt><trkpt lat="43.3980867" lon="10.6246533"><ele>530.8571428571429</ele><time>2026-04-25T09:58:37.127Z</time></trkpt><trkpt lat="43.398085" lon="10.6247583"><ele>530.2857142857142</ele><time>2026-04-25T09:58:38.128Z</time></trkpt><trkpt lat="43.3980817" lon="10.6248583"><ele>529.7142857142858</ele><time>2026-04-25T09:58:39.125Z</time></trkpt><trkpt lat="43.39808" lon="10.6249533"><ele>529.1428571428571</ele><time>2026-04-25T09:58:40.131Z</time></trkpt><trkpt lat="43.39808" lon="10.6250567"><ele>528.5714285714286</ele><time>2026-04-25T09:58:41.117Z</time></trkpt><trkpt lat="43.3980783" lon="10.6251633"><ele>528.0</ele><time>2026-04-25T09:58:42.129Z</time></trkpt><trkpt lat="43.39808" lon="10.6252683"><ele>527.0</ele><time>2026-04-25T09:58:43.133Z</time></trkpt><trkpt lat="43.39808" lon="10.6253717"><ele>526.0</ele><time>2026-04-25T09:58:44.127Z</time></trkpt><trkpt lat="43.3980833" lon="10.625465"><ele>525.0</ele><time>2026-04-25T09:58:45.119Z</time></trkpt><trkpt lat="43.3980867" lon="10.6255517"><ele>524.0</ele><time>2026-04-25T09:58:46.132Z</time></trkpt><trkpt lat="43.3981033" lon="10.62571"><ele>523.0</ele><time>2026-04-25T09:58:48.133Z</time></trkpt><trkpt lat="43.3981683" lon="10.6258533"><ele>522.0</ele><time>2026-04-25T09:58:50.131Z</time></trkpt><trkpt lat="43.39827" lon="10.6259133"><ele>522.0</ele><time>2026-04-25T09:58:52.124Z</time></trkpt><trkpt lat="43.3983883" lon="10.6259033"><ele>522.0</ele><time>2026-04-25T09:58:54.122Z</time></trkpt><trkpt lat="43.3984917" lon="10.6259233"><ele>522.0</ele><time>2026-04-25T09:58:56.128Z</time></trkpt><trkpt lat="43.3985467" lon="10.626025"><ele>522.0</ele><time>2026-04-25T09:58:58.121Z</time></trkpt><trkpt lat="43.39853" lon="10.626165"><ele>522.0</ele><time>2026-04-25T09:59:00.137Z</time></trkpt><trkpt lat="43.3984933" lon="10.6262417"><ele>520.1666666666666</ele><time>2026-04-25T09:59:01.129Z</time></trkpt><trkpt lat="43.3984417" lon="10.626315"><ele>518.3333333333334</ele><time>2026-04-25T09:59:02.132Z</time></trkpt><trkpt lat="43.39837" lon="10.626385"><ele>516.5</ele><time>2026-04-25T09:59:03.123Z</time></trkpt><trkpt lat="43.3983" lon="10.6264533"><ele>514.6666666666667</ele><time>2026-04-25T09:59:04.126Z</time></trkpt><trkpt lat="43.3982317" lon="10.62652"><ele>512.8333333333334</ele><time>2026-04-25T09:59:05.12Z</time></trkpt><trkpt lat="43.398165" lon="10.62659"><ele>511.0</ele><time>2026-04-25T09:59:06.126Z</time></trkpt><trkpt lat="43.398105" lon="10.6266667"><ele>511.0</ele><time>2026-04-25T09:59:07.131Z</time></trkpt><trkpt lat="43.39805" lon="10.6267417"><ele>511.0</ele><time>2026-04-25T09:59:08.126Z</time></trkpt><trkpt lat="43.3980033" lon="10.62682"><ele>511.0</ele><time>2026-04-25T09:59:09.12Z</time></trkpt><trkpt lat="43.397965" lon="10.6269017"><ele>511.0</ele><time>2026-04-25T09:59:10.135Z</time></trkpt><trkpt lat="43.397945" lon="10.6269917"><ele>511.0</ele><time>2026-04-25T09:59:11.123Z</time></trkpt><trkpt lat="43.3979383" lon="10.627085"><ele>511.0</ele><time>2026-04-25T09:59:12.116Z</time></trkpt><trkpt lat="43.397945" lon="10.62719"><ele>511.0</ele><time>2026-04-25T09:59:13.132Z</time></trkpt><trkpt lat="43.397965" lon="10.627295"><ele>509.8</ele><time>2026-04-25T09:59:14.126Z</time></trkpt><trkpt lat="43.3979967" lon="10.6273883"><ele>508.6</ele><time>2026-04-25T09:59:15.123Z</time></trkpt><trkpt lat="43.3980333" lon="10.6274767"><ele>507.4</ele><time>2026-04-25T09:59:16.124Z</time></trkpt><trkpt lat="43.398065" lon="10.6275583"><ele>506.2</ele><time>2026-04-25T09:59:17.125Z</time></trkpt><trkpt lat="43.3981133" lon="10.6277133"><ele>505.0</ele><time>2026-04-25T09:59:19.131Z</time></trkpt><trkpt lat="43.3981283" lon="10.62788"><ele>503.85714285714283</ele><time>2026-04-25T09:59:21.126Z</time></trkpt><trkpt lat="43.39813" lon="10.6279717"><ele>502.71428571428567</ele><time>2026-04-25T09:59:22.133Z</time></trkpt><trkpt lat="43.3981333" lon="10.6280717"><ele>501.57142857142856</ele><time>2026-04-25T09:59:23.132Z</time></trkpt><trkpt lat="43.398135" lon="10.628175"><ele>500.42857142857144</ele><time>2026-04-25T09:59:24.118Z</time></trkpt><trkpt lat="43.3981383" lon="10.628275"><ele>499.2857142857143</ele><time>2026-04-25T09:59:25.131Z</time></trkpt><trkpt lat="43.3981417" lon="10.628375"><ele>498.1428571428571</ele><time>2026-04-25T09:59:26.137Z</time></trkpt><trkpt lat="43.3981417" lon="10.62848"><ele>497.0</ele><time>2026-04-25T09:59:27.12Z</time></trkpt><trkpt lat="43.3981433" lon="10.6285917"><ele>496.66666666666663</ele><time>2026-04-25T09:59:28.121Z</time></trkpt><trkpt lat="43.3981417" lon="10.6287"><ele>496.3333333333333</ele><time>2026-04-25T09:59:29.123Z</time></trkpt><trkpt lat="43.3981433" lon="10.6288117"><ele>496.0</ele><time>2026-04-25T09:59:30.137Z</time></trkpt><trkpt lat="43.3981483" lon="10.6289283"><ele>495.66666666666663</ele><time>2026-04-25T09:59:31.123Z</time></trkpt><trkpt lat="43.3981517" lon="10.6290367"><ele>495.3333333333333</ele><time>2026-04-25T09:59:32.122Z</time></trkpt><trkpt lat="43.39815" lon="10.6291483"><ele>495.0</ele><time>2026-04-25T09:59:33.128Z</time></trkpt><trkpt lat="43.3981533" lon="10.6292617"><ele>495.0</ele><time>2026-04-25T09:59:34.118Z</time></trkpt><trkpt lat="43.3981517" lon="10.629375"><ele>495.0</ele><time>2026-04-25T09:59:35.126Z</time></trkpt><trkpt lat="43.3981483" lon="10.6294917"><ele>495.0</ele><time>2026-04-25T09:59:36.128Z</time></trkpt><trkpt lat="43.3981417" lon="10.6296167"><ele>495.0</ele><time>2026-04-25T09:59:37.129Z</time></trkpt><trkpt lat="43.3981383" lon="10.6297333"><ele>495.0</ele><time>2026-04-25T09:59:38.126Z</time></trkpt><trkpt lat="43.398135" lon="10.629845"><ele>495.0</ele><time>2026-04-25T09:59:39.127Z</time></trkpt><trkpt lat="43.39813" lon="10.62995"><ele>494.3333333333333</ele><time>2026-04-25T09:59:40.141Z</time></trkpt><trkpt lat="43.3981267" lon="10.630045"><ele>493.66666666666663</ele><time>2026-04-25T09:59:41.125Z</time></trkpt><trkpt lat="43.39813" lon="10.6301367"><ele>493.0</ele><time>2026-04-25T09:59:42.121Z</time></trkpt><trkpt lat="43.3981467" lon="10.6302317"><ele>492.3333333333333</ele><time>2026-04-25T09:59:43.121Z</time></trkpt><trkpt lat="43.39817" lon="10.6303417"><ele>491.66666666666663</ele><time>2026-04-25T09:59:44.123Z</time></trkpt><trkpt lat="43.3981933" lon="10.6304717"><ele>491.0</ele><time>2026-04-25T09:59:45.131Z</time></trkpt><trkpt lat="43.3982083" lon="10.630615"><ele>488.6</ele><time>2026-04-25T09:59:46.122Z</time></trkpt><trkpt lat="43.3982067" lon="10.6307617"><ele>486.20000000000005</ele><time>2026-04-25T09:59:47.127Z</time></trkpt><trkpt lat="43.3981867" lon="10.6309167"><ele>483.79999999999995</ele><time>2026-04-25T09:59:48.129Z</time></trkpt><trkpt lat="43.3981533" lon="10.6310567"><ele>481.4</ele><time>2026-04-25T09:59:49.122Z</time></trkpt><trkpt lat="43.3981117" lon="10.6311833"><ele>479.0</ele><time>2026-04-25T09:59:50.121Z</time></trkpt><trkpt lat="43.3980583" lon="10.6313083"><ele>477.79999999999995</ele><time>2026-04-25T09:59:51.13Z</time></trkpt><trkpt lat="43.3980017" lon="10.631435"><ele>476.59999999999997</ele><time>2026-04-25T09:59:52.12Z</time></trkpt><trkpt lat="43.397945" lon="10.631555"><ele>475.4</ele><time>2026-04-25T09:59:53.123Z</time></trkpt><trkpt lat="43.3978967" lon="10.6316617"><ele>474.2</ele><time>2026-04-25T09:59:54.121Z</time></trkpt><trkpt lat="43.3978533" lon="10.6317717"><ele>473.0</ele><time>2026-04-25T09:59:55.118Z</time></trkpt><trkpt lat="43.3978167" lon="10.6318917"><ele>471.75</ele><time>2026-04-25T09:59:56.117Z</time></trkpt><trkpt lat="43.3977867" lon="10.6320267"><ele>470.5</ele><time>2026-04-25T09:59:57.121Z</time></trkpt><trkpt lat="43.39776" lon="10.6321817"><ele>469.25</ele><time>2026-04-25T09:59:58.12Z</time></trkpt><trkpt lat="43.39773" lon="10.6323433"><ele>468.0</ele><time>2026-04-25T09:59:59.127Z</time></trkpt><trkpt lat="43.3976967" lon="10.63251"><ele>468.0</ele><time>2026-04-25T10:00:00.125Z</time></trkpt><trkpt lat="43.3976633" lon="10.6326783"><ele>468.0</ele><time>2026-04-25T10:00:01.129Z</time></trkpt><trkpt lat="43.397635" lon="10.6328383"><ele>468.0</ele><time>2026-04-25T10:00:02.119Z</time></trkpt><trkpt lat="43.3976017" lon="10.633"><ele>468.0</ele><time>2026-04-25T10:00:03.122Z</time></trkpt><trkpt lat="43.3975683" lon="10.6331633"><ele>468.25</ele><time>2026-04-25T10:00:04.121Z</time></trkpt><trkpt lat="43.397535" lon="10.6333267"><ele>468.5</ele><time>2026-04-25T10:00:05.121Z</time></trkpt><trkpt lat="43.3975033" lon="10.6334817"><ele>468.75</ele><time>2026-04-25T10:00:06.13Z</time></trkpt><trkpt lat="43.3974733" lon="10.6336317"><ele>469.0</ele><time>2026-04-25T10:00:07.132Z</time></trkpt><trkpt lat="43.3974433" lon="10.63377"><ele>469.00000000000006</ele><time>2026-04-25T10:00:08.124Z</time></trkpt><trkpt lat="43.3974167" lon="10.633895"><ele>469.0</ele><time>2026-04-25T10:00:09.121Z</time></trkpt><trkpt lat="43.3973967" lon="10.6340083"><ele>469.0</ele><time>2026-04-25T10:00:10.13Z</time></trkpt><trkpt lat="43.3973767" lon="10.6341167"><ele>469.0</ele><time>2026-04-25T10:00:11.121Z</time></trkpt><trkpt lat="43.3973583" lon="10.6342217"><ele>469.00000000000006</ele><time>2026-04-25T10:00:12.117Z</time></trkpt><trkpt lat="43.39734" lon="10.63432"><ele>469.0</ele><time>2026-04-25T10:00:13.123Z</time></trkpt><trkpt lat="43.397325" lon="10.6344217"><ele>468.79999999999995</ele><time>2026-04-25T10:00:14.131Z</time></trkpt><trkpt lat="43.39732" lon="10.634535"><ele>468.59999999999997</ele><time>2026-04-25T10:00:15.128Z</time></trkpt><trkpt lat="43.3973167" lon="10.6346633"><ele>468.4</ele><time>2026-04-25T10:00:16.128Z</time></trkpt><trkpt lat="43.3973167" lon="10.6347933"><ele>468.2</ele><time>2026-04-25T10:00:17.122Z</time></trkpt><trkpt lat="43.3973217" lon="10.63492"><ele>468.0</ele><time>2026-04-25T10:00:18.13Z</time></trkpt><trkpt lat="43.3973233" lon="10.6350417"><ele>468.0</ele><time>2026-04-25T10:00:19.126Z</time></trkpt><trkpt lat="43.3973233" lon="10.6351567"><ele>468.0</ele><time>2026-04-25T10:00:20.128Z</time></trkpt><trkpt lat="43.3973267" lon="10.635265"><ele>468.0</ele><time>2026-04-25T10:00:21.126Z</time></trkpt><trkpt lat="43.39734" lon="10.6353667"><ele>468.0</ele><time>2026-04-25T10:00:22.136Z</time></trkpt><trkpt lat="43.3973617" lon="10.6354617"><ele>468.0</ele><time>2026-04-25T10:00:23.129Z</time></trkpt><trkpt lat="43.3973983" lon="10.6355633"><ele>468.0</ele><time>2026-04-25T10:00:24.125Z</time></trkpt><trkpt lat="43.3974517" lon="10.6356683"><ele>466.3333333333333</ele><time>2026-04-25T10:00:25.123Z</time></trkpt><trkpt lat="43.3975117" lon="10.63577"><ele>464.66666666666663</ele><time>2026-04-25T10:00:26.125Z</time></trkpt><trkpt lat="43.3975783" lon="10.6358733"><ele>463.0</ele><time>2026-04-25T10:00:27.115Z</time></trkpt><trkpt lat="43.3976383" lon="10.635965"><ele>461.3333333333333</ele><time>2026-04-25T10:00:28.132Z</time></trkpt><trkpt lat="43.3976883" lon="10.6360517"><ele>459.66666666666663</ele><time>2026-04-25T10:00:29.128Z</time></trkpt><trkpt lat="43.39774" lon="10.6361417"><ele>458.0</ele><time>2026-04-25T10:00:30.123Z</time></trkpt><trkpt lat="43.3978" lon="10.6362283"><ele>456.0</ele><time>2026-04-25T10:00:31.12Z</time></trkpt><trkpt lat="43.3978683" lon="10.6363117"><ele>453.99999999999994</ele><time>2026-04-25T10:00:32.126Z</time></trkpt><trkpt lat="43.39794" lon="10.6363867"><ele>451.99999999999994</ele><time>2026-04-25T10:00:33.127Z</time></trkpt><trkpt lat="43.3980133" lon="10.6364633"><ele>450.0</ele><time>2026-04-25T10:00:34.122Z</time></trkpt><trkpt lat="43.3980917" lon="10.63654"><ele>448.0</ele><time>2026-04-25T10:00:35.13Z</time></trkpt><trkpt lat="43.398175" lon="10.6366167"><ele>447.1666666666667</ele><time>2026-04-25T10:00:36.125Z</time></trkpt><trkpt lat="43.3982583" lon="10.6366883"><ele>446.33333333333337</ele><time>2026-04-25T10:00:37.122Z</time></trkpt><trkpt lat="43.39834" lon="10.63676"><ele>445.5</ele><time>2026-04-25T10:00:38.121Z</time></trkpt><trkpt lat="43.3984167" lon="10.6368283"><ele>444.66666666666663</ele><time>2026-04-25T10:00:39.131Z</time></trkpt><trkpt lat="43.3984883" lon="10.6368867"><ele>443.8333333333333</ele><time>2026-04-25T10:00:40.133Z</time></trkpt><trkpt lat="43.39855" lon="10.6369483"><ele>443.0</ele><time>2026-04-25T10:00:41.127Z</time></trkpt><trkpt lat="43.3986033" lon="10.6370133"><ele>441.16666666666663</ele><time>2026-04-25T10:00:42.128Z</time></trkpt><trkpt lat="43.3986517" lon="10.6370933"><ele>439.3333333333333</ele><time>2026-04-25T10:00:43.123Z</time></trkpt><trkpt lat="43.39869" lon="10.6371867"><ele>437.5</ele><time>2026-04-25T10:00:44.121Z</time></trkpt><trkpt lat="43.39872" lon="10.6372967"><ele>435.66666666666663</ele><time>2026-04-25T10:00:45.127Z</time></trkpt><trkpt lat="43.3987483" lon="10.63741"><ele>433.8333333333333</ele><time>2026-04-25T10:00:46.124Z</time></trkpt><trkpt lat="43.3987767" lon="10.6375183"><ele>432.0</ele><time>2026-04-25T10:00:47.127Z</time></trkpt><trkpt lat="43.3988" lon="10.63762"><ele>432.0</ele><time>2026-04-25T10:00:48.122Z</time></trkpt><trkpt lat="43.3988217" lon="10.63771"><ele>432.0</ele><time>2026-04-25T10:00:49.126Z</time></trkpt><trkpt lat="43.3988367" lon="10.6378067"><ele>432.0</ele><time>2026-04-25T10:00:50.133Z</time></trkpt><trkpt lat="43.3988433" lon="10.6379083"><ele>432.0</ele><time>2026-04-25T10:00:51.145Z</time></trkpt><trkpt lat="43.3988367" lon="10.638015"><ele>432.0</ele><time>2026-04-25T10:00:52.143Z</time></trkpt><trkpt lat="43.3988267" lon="10.63812"><ele>432.0</ele><time>2026-04-25T10:00:53.129Z</time></trkpt><trkpt lat="43.398825" lon="10.6382267"><ele>432.0</ele><time>2026-04-25T10:00:54.127Z</time></trkpt><trkpt lat="43.3988333" lon="10.6383333"><ele>430.6666666666667</ele><time>2026-04-25T10:00:55.125Z</time></trkpt><trkpt lat="43.3988483" lon="10.6384417"><ele>429.33333333333337</ele><time>2026-04-25T10:00:56.129Z</time></trkpt><trkpt lat="43.39888" lon="10.6385433"><ele>428.0</ele><time>2026-04-25T10:00:57.13Z</time></trkpt><trkpt lat="43.3989233" lon="10.6386383"><ele>426.6666666666667</ele><time>2026-04-25T10:00:58.12Z</time></trkpt><trkpt lat="43.3989867" lon="10.638735"><ele>425.33333333333337</ele><time>2026-04-25T10:00:59.136Z</time></trkpt><trkpt lat="43.3990567" lon="10.6388317"><ele>424.0</ele><time>2026-04-25T10:01:00.122Z</time></trkpt><trkpt lat="43.3991283" lon="10.638925"><ele>421.6</ele><time>2026-04-25T10:01:01.128Z</time></trkpt><trkpt lat="43.3991883" lon="10.63902"><ele>419.2</ele><time>2026-04-25T10:01:02.122Z</time></trkpt><trkpt lat="43.399245" lon="10.63912"><ele>416.8</ele><time>2026-04-25T10:01:03.13Z</time></trkpt><trkpt lat="43.3992967" lon="10.639225"><ele>414.40000000000003</ele><time>2026-04-25T10:01:04.13Z</time></trkpt><trkpt lat="43.3993433" lon="10.6393367"><ele>412.0</ele><time>2026-04-25T10:01:05.131Z</time></trkpt><trkpt lat="43.3993817" lon="10.6394433"><ele>409.50000000000006</ele><time>2026-04-25T10:01:06.125Z</time></trkpt><trkpt lat="43.399415" lon="10.6395533"><ele>407.0</ele><time>2026-04-25T10:01:07.12Z</time></trkpt><trkpt lat="43.39945" lon="10.63967"><ele>404.5</ele><time>2026-04-25T10:01:08.121Z</time></trkpt><trkpt lat="43.3994817" lon="10.6397867"><ele>402.0</ele><time>2026-04-25T10:01:09.131Z</time></trkpt><trkpt lat="43.3995083" lon="10.6399017"><ele>399.50000000000006</ele><time>2026-04-25T10:01:10.123Z</time></trkpt><trkpt lat="43.3995317" lon="10.6400183"><ele>397.0</ele><time>2026-04-25T10:01:11.118Z</time></trkpt><trkpt lat="43.39954" lon="10.6401317"><ele>397.0</ele><time>2026-04-25T10:01:12.125Z</time></trkpt><trkpt lat="43.3995417" lon="10.6402383"><ele>397.0</ele><time>2026-04-25T10:01:13.122Z</time></trkpt><trkpt lat="43.3995417" lon="10.6403367"><ele>397.0</ele><time>2026-04-25T10:01:14.131Z</time></trkpt><trkpt lat="43.399545" lon="10.6404317"><ele>397.0</ele><time>2026-04-25T10:01:15.119Z</time></trkpt><trkpt lat="43.3995667" lon="10.6405217"><ele>397.0</ele><time>2026-04-25T10:01:16.119Z</time></trkpt><trkpt lat="43.3995983" lon="10.6406133"><ele>397.0</ele><time>2026-04-25T10:01:17.117Z</time></trkpt><trkpt lat="43.3996367" lon="10.6406933"><ele>397.0</ele><time>2026-04-25T10:01:18.128Z</time></trkpt><trkpt lat="43.3996783" lon="10.640765"><ele>397.00000000000006</ele><time>2026-04-25T10:01:19.129Z</time></trkpt><trkpt lat="43.39977" lon="10.6408617"><ele>397.0</ele><time>2026-04-25T10:01:21.116Z</time></trkpt><trkpt lat="43.3998217" lon="10.6409267"><ele>397.0</ele><time>2026-04-25T10:01:23.12Z</time></trkpt><trkpt lat="43.3997917" lon="10.6410083"><ele>397.0</ele><time>2026-04-25T10:01:26.126Z</time></trkpt><trkpt lat="43.399715" lon="10.6410117"><ele>397.00000000000006</ele><time>2026-04-25T10:01:28.117Z</time></trkpt><trkpt lat="43.399605" lon="10.6409517"><ele>397.0</ele><time>2026-04-25T10:01:30.117Z</time></trkpt><trkpt lat="43.3995267" lon="10.6408983"><ele>394.8</ele><time>2026-04-25T10:01:31.119Z</time></trkpt><trkpt lat="43.3994433" lon="10.6408417"><ele>392.6</ele><time>2026-04-25T10:01:32.119Z</time></trkpt><trkpt lat="43.3993617" lon="10.6407867"><ele>390.40000000000003</ele><time>2026-04-25T10:01:33.125Z</time></trkpt><trkpt lat="43.3992717" lon="10.6407333"><ele>388.20000000000005</ele><time>2026-04-25T10:01:34.122Z</time></trkpt><trkpt lat="43.3991733" lon="10.640685"><ele>386.0</ele><time>2026-04-25T10:01:35.118Z</time></trkpt><trkpt lat="43.3990733" lon="10.6406417"><ele>386.0</ele><time>2026-04-25T10:01:36.127Z</time></trkpt><trkpt lat="43.39898" lon="10.6406083"><ele>386.0</ele><time>2026-04-25T10:01:37.119Z</time></trkpt><trkpt lat="43.398885" lon="10.6405833"><ele>386.0</ele><time>2026-04-25T10:01:38.122Z</time></trkpt><trkpt lat="43.3987833" lon="10.6405667"><ele>386.0</ele><time>2026-04-25T10:01:39.12Z</time></trkpt><trkpt lat="43.3986767" lon="10.64056"><ele>386.0</ele><time>2026-04-25T10:01:40.127Z</time></trkpt><trkpt lat="43.398565" lon="10.64056"><ele>384.4</ele><time>2026-04-25T10:01:41.121Z</time></trkpt><trkpt lat="43.3984517" lon="10.640565"><ele>382.8</ele><time>2026-04-25T10:01:42.122Z</time></trkpt><trkpt lat="43.3983417" lon="10.6405767"><ele>381.2</ele><time>2026-04-25T10:01:43.12Z</time></trkpt><trkpt lat="43.398245" lon="10.6405967"><ele>379.59999999999997</ele><time>2026-04-25T10:01:44.123Z</time></trkpt><trkpt lat="43.39815" lon="10.64063"><ele>378.0</ele><time>2026-04-25T10:01:45.128Z</time></trkpt><trkpt lat="43.3980517" lon="10.6406817"><ele>377.5</ele><time>2026-04-25T10:01:46.13Z</time></trkpt><trkpt lat="43.39795" lon="10.6407533"><ele>377.0</ele><time>2026-04-25T10:01:47.121Z</time></trkpt><trkpt lat="43.3978467" lon="10.6408233"><ele>376.5</ele><time>2026-04-25T10:01:48.124Z</time></trkpt><trkpt lat="43.3977417" lon="10.640885"><ele>376.0</ele><time>2026-04-25T10:01:49.137Z</time></trkpt><trkpt lat="43.39764" lon="10.6409333"><ele>376.0</ele><time>2026-04-25T10:01:50.127Z</time></trkpt><trkpt lat="43.397535" lon="10.6409583"><ele>376.0</ele><time>2026-04-25T10:01:51.123Z</time></trkpt><trkpt lat="43.397435" lon="10.6409583"><ele>376.0</ele><time>2026-04-25T10:01:52.125Z</time></trkpt><trkpt lat="43.3973317" lon="10.64094"><ele>376.0</ele><time>2026-04-25T10:01:53.127Z</time></trkpt><trkpt lat="43.3972233" lon="10.6409117"><ele>376.0</ele><time>2026-04-25T10:01:54.116Z</time></trkpt><trkpt lat="43.3971183" lon="10.6408833"><ele>375.8333333333333</ele><time>2026-04-25T10:01:55.132Z</time></trkpt><trkpt lat="43.3970217" lon="10.6408483"><ele>375.66666666666663</ele><time>2026-04-25T10:01:56.122Z</time></trkpt><trkpt lat="43.39693" lon="10.6408067"><ele>375.5</ele><time>2026-04-25T10:01:57.132Z</time></trkpt><trkpt lat="43.396845" lon="10.6407667"><ele>375.3333333333333</ele><time>2026-04-25T10:01:58.13Z</time></trkpt><trkpt lat="43.3967683" lon="10.6407383"><ele>375.1666666666667</ele><time>2026-04-25T10:01:59.129Z</time></trkpt><trkpt lat="43.3966917" lon="10.6407233"><ele>375.0</ele><time>2026-04-25T10:02:00.123Z</time></trkpt><trkpt lat="43.3966083" lon="10.6407267"><ele>375.0</ele><time>2026-04-25T10:02:01.134Z</time></trkpt><trkpt lat="43.3965017" lon="10.640755"><ele>375.0</ele><time>2026-04-25T10:02:02.131Z</time></trkpt><trkpt lat="43.3963683" lon="10.6407983"><ele>375.0</ele><time>2026-04-25T10:02:03.121Z</time></trkpt><trkpt lat="43.3962333" lon="10.6408433"><ele>375.0</ele><time>2026-04-25T10:02:04.117Z</time></trkpt><trkpt lat="43.3960983" lon="10.6408817"><ele>375.75</ele><time>2026-04-25T10:02:05.122Z</time></trkpt><trkpt lat="43.3959617" lon="10.6409133"><ele>376.5</ele><time>2026-04-25T10:02:06.121Z</time></trkpt><trkpt lat="43.395825" lon="10.6409433"><ele>377.25</ele><time>2026-04-25T10:02:07.128Z</time></trkpt><trkpt lat="43.3956917" lon="10.6409667"><ele>378.0</ele><time>2026-04-25T10:02:08.123Z</time></trkpt><trkpt lat="43.3955617" lon="10.6409867"><ele>377.75</ele><time>2026-04-25T10:02:09.123Z</time></trkpt><trkpt lat="43.395435" lon="10.6410033"><ele>377.5</ele><time>2026-04-25T10:02:10.126Z</time></trkpt><trkpt lat="43.395315" lon="10.64101"><ele>377.25</ele><time>2026-04-25T10:02:11.12Z</time></trkpt><trkpt lat="43.395195" lon="10.6410233"><ele>377.0</ele><time>2026-04-25T10:02:12.127Z</time></trkpt><trkpt lat="43.395075" lon="10.6410533"><ele>377.0</ele><time>2026-04-25T10:02:13.12Z</time></trkpt><trkpt lat="43.3949533" lon="10.6410933"><ele>377.0</ele><time>2026-04-25T10:02:14.13Z</time></trkpt><trkpt lat="43.39483" lon="10.6411367"><ele>377.0</ele><time>2026-04-25T10:02:15.12Z</time></trkpt><trkpt lat="43.3947033" lon="10.6411783"><ele>377.0</ele><time>2026-04-25T10:02:16.127Z</time></trkpt><trkpt lat="43.3945667" lon="10.6412183"><ele>371.25</ele><time>2026-04-25T10:02:17.138Z</time></trkpt><trkpt lat="43.3944283" lon="10.641245"><ele>365.5</ele><time>2026-04-25T10:02:18.122Z</time></trkpt><trkpt lat="43.3943033" lon="10.6412617"><ele>359.75</ele><time>2026-04-25T10:02:19.124Z</time></trkpt><trkpt lat="43.394195" lon="10.6412817"><ele>354.0</ele><time>2026-04-25T10:02:20.129Z</time></trkpt><trkpt lat="43.3941017" lon="10.6413083"><ele>354.0</ele><time>2026-04-25T10:02:21.139Z</time></trkpt><trkpt lat="43.3940183" lon="10.6413283"><ele>354.0</ele><time>2026-04-25T10:02:22.12Z</time></trkpt><trkpt lat="43.3939433" lon="10.6413417"><ele>354.0</ele><time>2026-04-25T10:02:23.118Z</time></trkpt><trkpt lat="43.3938783" lon="10.6413433"><ele>354.0</ele><time>2026-04-25T10:02:24.117Z</time></trkpt><trkpt lat="43.3938167" lon="10.641325"><ele>354.0</ele><time>2026-04-25T10:02:25.128Z</time></trkpt><trkpt lat="43.3937617" lon="10.6412783"><ele>354.0</ele><time>2026-04-25T10:02:26.122Z</time></trkpt><trkpt lat="43.3937083" lon="10.6412083"><ele>354.0</ele><time>2026-04-25T10:02:27.132Z</time></trkpt><trkpt lat="43.3936567" lon="10.64112"><ele>353.3333333333333</ele><time>2026-04-25T10:02:28.126Z</time></trkpt><trkpt lat="43.3936067" lon="10.641025"><ele>352.6666666666667</ele><time>2026-04-25T10:02:29.127Z</time></trkpt><trkpt lat="43.3935583" lon="10.64094"><ele>352.0</ele><time>2026-04-25T10:02:30.131Z</time></trkpt><trkpt lat="43.3935117" lon="10.6408617"><ele>351.33333333333337</ele><time>2026-04-25T10:02:31.126Z</time></trkpt><trkpt lat="43.3934617" lon="10.640785"><ele>350.6666666666667</ele><time>2026-04-25T10:02:32.125Z</time></trkpt><trkpt lat="43.3934133" lon="10.64071"><ele>350.0</ele><time>2026-04-25T10:02:33.128Z</time></trkpt><trkpt lat="43.39337" lon="10.6406367"><ele>350.0</ele><time>2026-04-25T10:02:34.139Z</time></trkpt><trkpt lat="43.393295" lon="10.6405133"><ele>350.0</ele><time>2026-04-25T10:02:36.119Z</time></trkpt><trkpt lat="43.393205" lon="10.64045"><ele>350.0</ele><time>2026-04-25T10:02:38.116Z</time></trkpt><trkpt lat="43.3931017" lon="10.6404633"><ele>350.0</ele><time>2026-04-25T10:02:40.124Z</time></trkpt><trkpt lat="43.3930217" lon="10.640545"><ele>350.0</ele><time>2026-04-25T10:02:42.117Z</time></trkpt><trkpt lat="43.3929683" lon="10.640625"><ele>348.1666666666667</ele><time>2026-04-25T10:02:44.123Z</time></trkpt><trkpt lat="43.3929183" lon="10.6407383"><ele>346.33333333333337</ele><time>2026-04-25T10:02:46.119Z</time></trkpt><trkpt lat="43.3928883" lon="10.6408217"><ele>344.5</ele><time>2026-04-25T10:02:47.14Z</time></trkpt><trkpt lat="43.39286" lon="10.6409083"><ele>342.6666666666667</ele><time>2026-04-25T10:02:48.121Z</time></trkpt><trkpt lat="43.39283" lon="10.641005"><ele>340.8333333333333</ele><time>2026-04-25T10:02:49.123Z</time></trkpt><trkpt lat="43.3928017" lon="10.6411017"><ele>339.0</ele><time>2026-04-25T10:02:50.121Z</time></trkpt><trkpt lat="43.3927767" lon="10.641195"><ele>337.5</ele><time>2026-04-25T10:02:51.128Z</time></trkpt><trkpt lat="43.3927533" lon="10.641285"><ele>336.0</ele><time>2026-04-25T10:02:52.137Z</time></trkpt><trkpt lat="43.3927267" lon="10.6413783"><ele>334.5</ele><time>2026-04-25T10:02:53.122Z</time></trkpt><trkpt lat="43.3927017" lon="10.6414833"><ele>333.0</ele><time>2026-04-25T10:02:54.121Z</time></trkpt><trkpt lat="43.392675" lon="10.6415833"><ele>331.5</ele><time>2026-04-25T10:02:55.122Z</time></trkpt><trkpt lat="43.39265" lon="10.6416717"><ele>330.0</ele><time>2026-04-25T10:02:56.118Z</time></trkpt><trkpt lat="43.392585" lon="10.6418117"><ele>330.0</ele><time>2026-04-25T10:02:58.123Z</time></trkpt><trkpt lat="43.39247" lon="10.6419033"><ele>330.0</ele><time>2026-04-25T10:03:00.12Z</time></trkpt><trkpt lat="43.3924" lon="10.6419383"><ele>330.0</ele><time>2026-04-25T10:03:01.12Z</time></trkpt><trkpt lat="43.3923283" lon="10.6419633"><ele>330.0</ele><time>2026-04-25T10:03:02.114Z</time></trkpt><trkpt lat="43.3922483" lon="10.641975"><ele>330.0</ele><time>2026-04-25T10:03:03.118Z</time></trkpt><trkpt lat="43.392165" lon="10.641985"><ele>330.0</ele><time>2026-04-25T10:03:04.125Z</time></trkpt><trkpt lat="43.3920733" lon="10.6419933"><ele>326.5</ele><time>2026-04-25T10:03:05.121Z</time></trkpt><trkpt lat="43.3919783" lon="10.6419983"><ele>323.0</ele><time>2026-04-25T10:03:06.121Z</time></trkpt><trkpt lat="43.3918883" lon="10.642"><ele>319.5</ele><time>2026-04-25T10:03:07.132Z</time></trkpt><trkpt lat="43.391805" lon="10.6420017"><ele>316.0</ele><time>2026-04-25T10:03:08.124Z</time></trkpt><trkpt lat="43.3917233" lon="10.6420017"><ele>312.5</ele><time>2026-04-25T10:03:09.123Z</time></trkpt><trkpt lat="43.3916467" lon="10.642"><ele>309.0</ele><time>2026-04-25T10:03:10.117Z</time></trkpt><trkpt lat="43.3915733" lon="10.6419933"><ele>309.0</ele><time>2026-04-25T10:03:11.118Z</time></trkpt><trkpt lat="43.3915067" lon="10.641985"><ele>309.0</ele><time>2026-04-25T10:03:12.119Z</time></trkpt><trkpt lat="43.3914417" lon="10.6419767"><ele>309.0</ele><time>2026-04-25T10:03:13.134Z</time></trkpt><trkpt lat="43.39132" lon="10.6419083"><ele>309.0</ele><time>2026-04-25T10:03:15.119Z</time></trkpt><trkpt lat="43.3912583" lon="10.6418683"><ele>309.0</ele><time>2026-04-25T10:03:16.122Z</time></trkpt><trkpt lat="43.3911983" lon="10.6418417"><ele>309.0</ele><time>2026-04-25T10:03:17.117Z</time></trkpt><trkpt lat="43.3910767" lon="10.6418333"><ele>308.6666666666667</ele><time>2026-04-25T10:03:19.126Z</time></trkpt><trkpt lat="43.3910133" lon="10.6418567"><ele>308.3333333333333</ele><time>2026-04-25T10:03:20.118Z</time></trkpt><trkpt lat="43.39094" lon="10.64191"><ele>308.0</ele><time>2026-04-25T10:03:21.128Z</time></trkpt><trkpt lat="43.3908517" lon="10.6419667"><ele>307.66666666666663</ele><time>2026-04-25T10:03:22.119Z</time></trkpt><trkpt lat="43.390765" lon="10.64201"><ele>307.3333333333333</ele><time>2026-04-25T10:03:23.118Z</time></trkpt><trkpt lat="43.3906683" lon="10.6420267"><ele>307.0</ele><time>2026-04-25T10:03:24.128Z</time></trkpt><trkpt lat="43.3905617" lon="10.6420333"><ele>306.0</ele><time>2026-04-25T10:03:25.13Z</time></trkpt><trkpt lat="43.3904567" lon="10.6420317"><ele>305.0</ele><time>2026-04-25T10:03:26.119Z</time></trkpt><trkpt lat="43.390355" lon="10.6420183"><ele>304.0</ele><time>2026-04-25T10:03:27.127Z</time></trkpt><trkpt lat="43.3902533" lon="10.6420067"><ele>303.0</ele><time>2026-04-25T10:03:28.125Z</time></trkpt><trkpt lat="43.3901433" lon="10.6419867"><ele>302.0</ele><time>2026-04-25T10:03:29.121Z</time></trkpt><trkpt lat="43.39004" lon="10.64196"><ele>303.4</ele><time>2026-04-25T10:03:30.121Z</time></trkpt><trkpt lat="43.389945" lon="10.64193"><ele>304.79999999999995</ele><time>2026-04-25T10:03:31.128Z</time></trkpt><trkpt lat="43.3898583" lon="10.64191"><ele>306.2</ele><time>2026-04-25T10:03:32.13Z</time></trkpt><trkpt lat="43.3897717" lon="10.6419017"><ele>307.59999999999997</ele><time>2026-04-25T10:03:33.125Z</time></trkpt><trkpt lat="43.38968" lon="10.6419083"><ele>309.0</ele><time>2026-04-25T10:03:34.127Z</time></trkpt><trkpt lat="43.38959" lon="10.6419217"><ele>309.0</ele><time>2026-04-25T10:03:35.128Z</time></trkpt><trkpt lat="43.3894967" lon="10.64194"><ele>309.0</ele><time>2026-04-25T10:03:36.129Z</time></trkpt><trkpt lat="43.3893983" lon="10.6419533"><ele>309.0</ele><time>2026-04-25T10:03:37.127Z</time></trkpt><trkpt lat="43.389295" lon="10.64198"><ele>309.0</ele><time>2026-04-25T10:03:38.124Z</time></trkpt><trkpt lat="43.389185" lon="10.642005"><ele>309.0</ele><time>2026-04-25T10:03:39.139Z</time></trkpt><trkpt lat="43.3890817" lon="10.6420383"><ele>306.5</ele><time>2026-04-25T10:03:40.125Z</time></trkpt><trkpt lat="43.3889783" lon="10.6420683"><ele>304.0</ele><time>2026-04-25T10:03:41.129Z</time></trkpt><trkpt lat="43.3888883" lon="10.6420833"><ele>301.5</ele><time>2026-04-25T10:03:42.127Z</time></trkpt><trkpt lat="43.3888083" lon="10.6420917"><ele>299.0</ele><time>2026-04-25T10:03:43.125Z</time></trkpt><trkpt lat="43.388725" lon="10.642095"><ele>296.5</ele><time>2026-04-25T10:03:44.131Z</time></trkpt><trkpt lat="43.3886467" lon="10.6420783"><ele>294.0</ele><time>2026-04-25T10:03:45.124Z</time></trkpt><trkpt lat="43.388565" lon="10.6420517"><ele>294.5</ele><time>2026-04-25T10:03:46.137Z</time></trkpt><trkpt lat="43.3884833" lon="10.642025"><ele>295.0</ele><time>2026-04-25T10:03:47.118Z</time></trkpt><trkpt lat="43.3884017" lon="10.6420067"><ele>295.5</ele><time>2026-04-25T10:03:48.126Z</time></trkpt><trkpt lat="43.3883183" lon="10.6419883"><ele>296.0</ele><time>2026-04-25T10:03:49.123Z</time></trkpt><trkpt lat="43.3882333" lon="10.6419717"><ele>296.5</ele><time>2026-04-25T10:03:50.137Z</time></trkpt><trkpt lat="43.38815" lon="10.6419517"><ele>297.0</ele><time>2026-04-25T10:03:51.122Z</time></trkpt><trkpt lat="43.3880733" lon="10.64193"><ele>294.0</ele><time>2026-04-25T10:03:52.135Z</time></trkpt><trkpt lat="43.3880067" lon="10.6419117"><ele>291.0</ele><time>2026-04-25T10:03:53.121Z</time></trkpt><trkpt lat="43.3879017" lon="10.6419033"><ele>288.0</ele><time>2026-04-25T10:03:55.13Z</time></trkpt><trkpt lat="43.38782" lon="10.6419533"><ele>285.0</ele><time>2026-04-25T10:03:57.127Z</time></trkpt><trkpt lat="43.38776" lon="10.6420617"><ele>282.0</ele><time>2026-04-25T10:03:59.127Z</time></trkpt><trkpt lat="43.3877417" lon="10.6421467"><ele>279.0</ele><time>2026-04-25T10:04:00.124Z</time></trkpt><trkpt lat="43.3877317" lon="10.642255"><ele>278.3333333333333</ele><time>2026-04-25T10:04:01.128Z</time></trkpt><trkpt lat="43.3877217" lon="10.6423767"><ele>277.6666666666667</ele><time>2026-04-25T10:04:02.125Z</time></trkpt><trkpt lat="43.3877167" lon="10.6425017"><ele>277.0</ele><time>2026-04-25T10:04:03.127Z</time></trkpt><trkpt lat="43.38771" lon="10.6426217"><ele>276.33333333333337</ele><time>2026-04-25T10:04:04.127Z</time></trkpt><trkpt lat="43.3877067" lon="10.6427383"><ele>275.6666666666667</ele><time>2026-04-25T10:04:05.132Z</time></trkpt><trkpt lat="43.3877017" lon="10.6428517"><ele>275.0</ele><time>2026-04-25T10:04:06.132Z</time></trkpt><trkpt lat="43.387695" lon="10.6429617"><ele>274.14285714285717</ele><time>2026-04-25T10:04:07.135Z</time></trkpt><trkpt lat="43.38769" lon="10.6430633"><ele>273.2857142857143</ele><time>2026-04-25T10:04:08.12Z</time></trkpt><trkpt lat="43.387685" lon="10.64316"><ele>272.42857142857144</ele><time>2026-04-25T10:04:09.128Z</time></trkpt><trkpt lat="43.3876817" lon="10.6432517"><ele>271.57142857142856</ele><time>2026-04-25T10:04:10.126Z</time></trkpt><trkpt lat="43.3876783" lon="10.6433433"><ele>270.7142857142857</ele><time>2026-04-25T10:04:11.133Z</time></trkpt><trkpt lat="43.3876733" lon="10.6434317"><ele>269.8571428571429</ele><time>2026-04-25T10:04:12.123Z</time></trkpt><trkpt lat="43.38766" lon="10.643575"><ele>269.0</ele><time>2026-04-25T10:04:14.126Z</time></trkpt><trkpt lat="43.38761" lon="10.6436633"><ele>269.0</ele><time>2026-04-25T10:04:16.125Z</time></trkpt><trkpt lat="43.3875167" lon="10.64367"><ele>269.0</ele><time>2026-04-25T10:04:18.12Z</time></trkpt><trkpt lat="43.387455" lon="10.6436467"><ele>269.0</ele><time>2026-04-25T10:04:19.123Z</time></trkpt><trkpt lat="43.387375" lon="10.64362"><ele>269.0</ele><time>2026-04-25T10:04:20.121Z</time></trkpt><trkpt lat="43.3872817" lon="10.6435933"><ele>269.0</ele><time>2026-04-25T10:04:21.119Z</time></trkpt><trkpt lat="43.3871817" lon="10.6435733"><ele>269.0</ele><time>2026-04-25T10:04:22.128Z</time></trkpt><trkpt lat="43.387075" lon="10.643555"><ele>267.2</ele><time>2026-04-25T10:04:23.123Z</time></trkpt><trkpt lat="43.386965" lon="10.6435383"><ele>265.4</ele><time>2026-04-25T10:04:24.133Z</time></trkpt><trkpt lat="43.3868583" lon="10.6435233"><ele>263.6</ele><time>2026-04-25T10:04:25.121Z</time></trkpt><trkpt lat="43.3867583" lon="10.6435083"><ele>261.8</ele><time>2026-04-25T10:04:26.121Z</time></trkpt><trkpt lat="43.38666" lon="10.6434917"><ele>260.0</ele><time>2026-04-25T10:04:27.127Z</time></trkpt><trkpt lat="43.3865667" lon="10.6434817"><ele>260.0</ele><time>2026-04-25T10:04:28.116Z</time></trkpt><trkpt lat="43.3864683" lon="10.6434683"><ele>260.0</ele><time>2026-04-25T10:04:29.118Z</time></trkpt><trkpt lat="43.3863733" lon="10.6434533"><ele>260.0</ele><time>2026-04-25T10:04:30.121Z</time></trkpt><trkpt lat="43.3862817" lon="10.6434383"><ele>260.0</ele><time>2026-04-25T10:04:31.125Z</time></trkpt><trkpt lat="43.386195" lon="10.6434283"><ele>260.0</ele><time>2026-04-25T10:04:32.121Z</time></trkpt><trkpt lat="43.3861167" lon="10.6434183"><ele>258.6666666666667</ele><time>2026-04-25T10:04:33.129Z</time></trkpt><trkpt lat="43.3860433" lon="10.643405"><ele>257.33333333333337</ele><time>2026-04-25T10:04:34.125Z</time></trkpt><trkpt lat="43.385975" lon="10.643385"><ele>256.0</ele><time>2026-04-25T10:04:35.12Z</time></trkpt><trkpt lat="43.38587" lon="10.64332"><ele>254.66666666666669</ele><time>2026-04-25T10:04:37.127Z</time></trkpt><trkpt lat="43.3858133" lon="10.64319"><ele>253.33333333333334</ele><time>2026-04-25T10:04:39.125Z</time></trkpt><trkpt lat="43.38579" lon="10.6430933"><ele>252.0</ele><time>2026-04-25T10:04:40.123Z</time></trkpt><trkpt lat="43.3857617" lon="10.6429917"><ele>252.0</ele><time>2026-04-25T10:04:41.137Z</time></trkpt><trkpt lat="43.3857417" lon="10.6428917"><ele>252.0</ele><time>2026-04-25T10:04:42.125Z</time></trkpt><trkpt lat="43.38573" lon="10.64279"><ele>252.0</ele><time>2026-04-25T10:04:43.124Z</time></trkpt><trkpt lat="43.3857283" lon="10.6426767"><ele>252.0</ele><time>2026-04-25T10:04:44.125Z</time></trkpt><trkpt lat="43.38574" lon="10.6425517"><ele>252.0</ele><time>2026-04-25T10:04:45.127Z</time></trkpt><trkpt lat="43.38576" lon="10.6424183"><ele>252.0</ele><time>2026-04-25T10:04:46.12Z</time></trkpt><trkpt lat="43.385785" lon="10.6422917"><ele>252.0</ele><time>2026-04-25T10:04:47.132Z</time></trkpt><trkpt lat="43.38581" lon="10.6421717"><ele>252.0</ele><time>2026-04-25T10:04:48.118Z</time></trkpt><trkpt lat="43.3858267" lon="10.642065"><ele>252.0</ele><time>2026-04-25T10:04:49.131Z</time></trkpt><trkpt lat="43.38583" lon="10.6419683"><ele>252.0</ele><time>2026-04-25T10:04:50.126Z</time></trkpt><trkpt lat="43.38582" lon="10.64187"><ele>252.0</ele><time>2026-04-25T10:04:51.129Z</time></trkpt><trkpt lat="43.3857967" lon="10.6417717"><ele>252.0</ele><time>2026-04-25T10:04:52.125Z</time></trkpt><trkpt lat="43.3857617" lon="10.64168"><ele>252.16666666666666</ele><time>2026-04-25T10:04:53.124Z</time></trkpt><trkpt lat="43.385715" lon="10.6416017"><ele>252.33333333333331</ele><time>2026-04-25T10:04:54.128Z</time></trkpt><trkpt lat="43.385665" lon="10.6415383"><ele>252.5</ele><time>2026-04-25T10:04:55.121Z</time></trkpt><trkpt lat="43.3856117" lon="10.6414883"><ele>252.66666666666666</ele><time>2026-04-25T10:04:56.129Z</time></trkpt><trkpt lat="43.385525" lon="10.641415"><ele>252.83333333333331</ele><time>2026-04-25T10:04:58.123Z</time></trkpt><trkpt lat="43.3854333" lon="10.6413567"><ele>253.0</ele><time>2026-04-25T10:05:03.138Z</time></trkpt><trkpt lat="43.3853567" lon="10.641395"><ele>251.8571428571429</ele><time>2026-04-25T10:05:06.133Z</time></trkpt><trkpt lat="43.3852967" lon="10.64144"><ele>250.71428571428572</ele><time>2026-04-25T10:05:08.121Z</time></trkpt><trkpt lat="43.385215" lon="10.6415017"><ele>249.57142857142858</ele><time>2026-04-25T10:05:10.125Z</time></trkpt><trkpt lat="43.38516" lon="10.64155"><ele>248.42857142857144</ele><time>2026-04-25T10:05:11.12Z</time></trkpt><trkpt lat="43.3851067" lon="10.6416017"><ele>247.28571428571428</ele><time>2026-04-25T10:05:12.134Z</time></trkpt><trkpt lat="43.3850483" lon="10.64166"><ele>246.14285714285714</ele><time>2026-04-25T10:05:13.135Z</time></trkpt><trkpt lat="43.38499" lon="10.641715"><ele>245.0</ele><time>2026-04-25T10:05:14.121Z</time></trkpt><trkpt lat="43.3849333" lon="10.6417783"><ele>245.00000000000003</ele><time>2026-04-25T10:05:15.122Z</time></trkpt><trkpt lat="43.3848783" lon="10.6418367"><ele>245.0</ele><time>2026-04-25T10:05:16.118Z</time></trkpt><trkpt lat="43.3847817" lon="10.6419367"><ele>245.0</ele><time>2026-04-25T10:05:18.12Z</time></trkpt><trkpt lat="43.3847283" lon="10.6419833"><ele>245.0</ele><time>2026-04-25T10:05:19.122Z</time></trkpt><trkpt lat="43.3846733" lon="10.6420333"><ele>245.00000000000003</ele><time>2026-04-25T10:05:20.129Z</time></trkpt><trkpt lat="43.3846117" lon="10.6420833"><ele>245.0</ele><time>2026-04-25T10:05:21.127Z</time></trkpt><trkpt lat="43.384545" lon="10.64214"><ele>243.85714285714286</ele><time>2026-04-25T10:05:22.12Z</time></trkpt><trkpt lat="43.384475" lon="10.64219"><ele>242.71428571428572</ele><time>2026-04-25T10:05:23.123Z</time></trkpt><trkpt lat="43.38441" lon="10.642235"><ele>241.57142857142856</ele><time>2026-04-25T10:05:24.119Z</time></trkpt><trkpt lat="43.3843533" lon="10.642285"><ele>240.42857142857142</ele><time>2026-04-25T10:05:25.129Z</time></trkpt><trkpt lat="43.3843033" lon="10.64234"><ele>239.28571428571428</ele><time>2026-04-25T10:05:26.114Z</time></trkpt><trkpt lat="43.384255" lon="10.6424167"><ele>238.1428571428571</ele><time>2026-04-25T10:05:27.125Z</time></trkpt><trkpt lat="43.3842033" lon="10.6424983"><ele>236.99999999999997</ele><time>2026-04-25T10:05:28.12Z</time></trkpt><trkpt lat="43.384145" lon="10.6425683"><ele>237.0</ele><time>2026-04-25T10:05:29.122Z</time></trkpt><trkpt lat="43.384075" lon="10.6426317"><ele>237.0</ele><time>2026-04-25T10:05:30.129Z</time></trkpt><trkpt lat="43.384005" lon="10.6426783"><ele>237.0</ele><time>2026-04-25T10:05:31.133Z</time></trkpt><trkpt lat="43.3839333" lon="10.6427217"><ele>237.0</ele><time>2026-04-25T10:05:32.116Z</time></trkpt><trkpt lat="43.383875" lon="10.64276"><ele>237.0</ele><time>2026-04-25T10:05:33.12Z</time></trkpt><trkpt lat="43.3837817" lon="10.6428533"><ele>237.0</ele><time>2026-04-25T10:05:35.126Z</time></trkpt><trkpt lat="43.38373" lon="10.6430033"><ele>235.66666666666666</ele><time>2026-04-25T10:05:37.127Z</time></trkpt><trkpt lat="43.3836967" lon="10.64316"><ele>234.33333333333331</ele><time>2026-04-25T10:05:39.119Z</time></trkpt><trkpt lat="43.3836383" lon="10.643295"><ele>233.0</ele><time>2026-04-25T10:05:41.142Z</time></trkpt><trkpt lat="43.38359" lon="10.643355"><ele>231.66666666666666</ele><time>2026-04-25T10:05:42.119Z</time></trkpt><trkpt lat="43.3835367" lon="10.6434133"><ele>230.33333333333331</ele><time>2026-04-25T10:05:43.129Z</time></trkpt><trkpt lat="43.3834817" lon="10.6434667"><ele>229.0</ele><time>2026-04-25T10:05:44.124Z</time></trkpt><trkpt lat="43.3834333" lon="10.6435283"><ele>229.0</ele><time>2026-04-25T10:05:45.118Z</time></trkpt><trkpt lat="43.3833917" lon="10.6436083"><ele>229.0</ele><time>2026-04-25T10:05:46.129Z</time></trkpt><trkpt lat="43.3833517" lon="10.6436867"><ele>229.0</ele><time>2026-04-25T10:05:47.12Z</time></trkpt><trkpt lat="43.3833033" lon="10.6437517"><ele>229.0</ele><time>2026-04-25T10:05:48.113Z</time></trkpt><trkpt lat="43.3832433" lon="10.6437967"><ele>229.0</ele><time>2026-04-25T10:05:49.116Z</time></trkpt><trkpt lat="43.3831733" lon="10.6438183"><ele>229.0</ele><time>2026-04-25T10:05:50.12Z</time></trkpt><trkpt lat="43.3831017" lon="10.643835"><ele>229.0</ele><time>2026-04-25T10:05:51.125Z</time></trkpt><trkpt lat="43.3830383" lon="10.64385"><ele>227.39999999999998</ele><time>2026-04-25T10:05:52.128Z</time></trkpt><trkpt lat="43.38294" lon="10.6439083"><ele>225.79999999999998</ele><time>2026-04-25T10:05:54.12Z</time></trkpt><trkpt lat="43.3828783" lon="10.6440517"><ele>224.20000000000002</ele><time>2026-04-25T10:05:56.125Z</time></trkpt><trkpt lat="43.3828467" lon="10.6441483"><ele>222.60000000000002</ele><time>2026-04-25T10:05:57.125Z</time></trkpt><trkpt lat="43.3828217" lon="10.64426"><ele>221.0</ele><time>2026-04-25T10:05:58.124Z</time></trkpt><trkpt lat="43.3828033" lon="10.6443683"><ele>218.4</ele><time>2026-04-25T10:05:59.127Z</time></trkpt><trkpt lat="43.3827767" lon="10.6444817"><ele>215.8</ele><time>2026-04-25T10:06:00.127Z</time></trkpt><trkpt lat="43.38274" lon="10.6445917"><ele>213.20000000000002</ele><time>2026-04-25T10:06:01.117Z</time></trkpt><trkpt lat="43.3826817" lon="10.64469"><ele>210.60000000000002</ele><time>2026-04-25T10:06:02.117Z</time></trkpt><trkpt lat="43.38261" lon="10.644775"><ele>208.0</ele><time>2026-04-25T10:06:03.122Z</time></trkpt><trkpt lat="43.3825267" lon="10.64485"><ele>207.99999999999997</ele><time>2026-04-25T10:06:04.12Z</time></trkpt><trkpt lat="43.3824417" lon="10.6449"><ele>208.0</ele><time>2026-04-25T10:06:05.123Z</time></trkpt><trkpt lat="43.3823583" lon="10.644935"><ele>208.0</ele><time>2026-04-25T10:06:06.127Z</time></trkpt><trkpt lat="43.38228" lon="10.6449533"><ele>208.0</ele><time>2026-04-25T10:06:07.129Z</time></trkpt><trkpt lat="43.3822117" lon="10.6449617"><ele>207.99999999999997</ele><time>2026-04-25T10:06:08.134Z</time></trkpt><trkpt lat="43.38215" lon="10.6449817"><ele>208.0</ele><time>2026-04-25T10:06:09.12Z</time></trkpt><trkpt lat="43.38204" lon="10.645075"><ele>207.60000000000002</ele><time>2026-04-25T10:06:11.12Z</time></trkpt><trkpt lat="43.3819783" lon="10.6451667"><ele>207.20000000000002</ele><time>2026-04-25T10:06:12.128Z</time></trkpt><trkpt lat="43.38191" lon="10.6452717"><ele>206.8</ele><time>2026-04-25T10:06:13.123Z</time></trkpt><trkpt lat="43.3818433" lon="10.6453733"><ele>206.4</ele><time>2026-04-25T10:06:14.114Z</time></trkpt><trkpt lat="43.3817767" lon="10.645465"><ele>206.0</ele><time>2026-04-25T10:06:15.116Z</time></trkpt><trkpt lat="43.3816967" lon="10.6455433"><ele>204.00000000000003</ele><time>2026-04-25T10:06:16.114Z</time></trkpt><trkpt lat="43.3816133" lon="10.6455917"><ele>202.0</ele><time>2026-04-25T10:06:17.119Z</time></trkpt><trkpt lat="43.3815317" lon="10.6456083"><ele>200.0</ele><time>2026-04-25T10:06:18.129Z</time></trkpt><trkpt lat="43.3814583" lon="10.6455917"><ele>198.0</ele><time>2026-04-25T10:06:19.124Z</time></trkpt><trkpt lat="43.3813683" lon="10.6455117"><ele>196.00000000000003</ele><time>2026-04-25T10:06:21.122Z</time></trkpt><trkpt lat="43.3813067" lon="10.6454467"><ele>194.0</ele><time>2026-04-25T10:06:23.122Z</time></trkpt><trkpt lat="43.3812217" lon="10.6454367"><ele>194.00000000000003</ele><time>2026-04-25T10:06:45.119Z</time></trkpt><trkpt lat="43.3811483" lon="10.6454133"><ele>194.0</ele><time>2026-04-25T10:06:47.124Z</time></trkpt><trkpt lat="43.3810767" lon="10.6454383"><ele>194.0</ele><time>2026-04-25T10:06:49.116Z</time></trkpt><trkpt lat="43.381015" lon="10.6455383"><ele>194.0</ele><time>2026-04-25T10:06:51.12Z</time></trkpt><trkpt lat="43.3809533" lon="10.6456783"><ele>194.00000000000003</ele><time>2026-04-25T10:06:53.122Z</time></trkpt><trkpt lat="43.380905" lon="10.645765"><ele>194.0</ele><time>2026-04-25T10:06:54.133Z</time></trkpt><trkpt lat="43.38085" lon="10.6458483"><ele>194.0</ele><time>2026-04-25T10:06:55.123Z</time></trkpt><trkpt lat="43.3807867" lon="10.6459183"><ele>194.0</ele><time>2026-04-25T10:06:56.124Z</time></trkpt><trkpt lat="43.380715" lon="10.6459667"><ele>194.0</ele><time>2026-04-25T10:06:57.125Z</time></trkpt><trkpt lat="43.3806333" lon="10.6459933"><ele>194.0</ele><time>2026-04-25T10:06:58.124Z</time></trkpt><trkpt lat="43.380535" lon="10.646005"><ele>194.0</ele><time>2026-04-25T10:06:59.122Z</time></trkpt><trkpt lat="43.38042" lon="10.6460117"><ele>195.39999999999998</ele><time>2026-04-25T10:07:00.124Z</time></trkpt><trkpt lat="43.3803067" lon="10.6460267"><ele>196.8</ele><time>2026-04-25T10:07:01.126Z</time></trkpt><trkpt lat="43.380205" lon="10.6460383"><ele>198.2</ele><time>2026-04-25T10:07:02.122Z</time></trkpt><trkpt lat="43.380105" lon="10.6460617"><ele>199.60000000000002</ele><time>2026-04-25T10:07:03.121Z</time></trkpt><trkpt lat="43.38" lon="10.646095"><ele>201.0</ele><time>2026-04-25T10:07:04.115Z</time></trkpt><trkpt lat="43.3798933" lon="10.64614"><ele>198.0</ele><time>2026-04-25T10:07:05.116Z</time></trkpt><trkpt lat="43.3797867" lon="10.6461917"><ele>195.0</ele><time>2026-04-25T10:07:06.12Z</time></trkpt><trkpt lat="43.3796817" lon="10.6462467"><ele>192.0</ele><time>2026-04-25T10:07:07.124Z</time></trkpt><trkpt lat="43.3795817" lon="10.6462983"><ele>189.0</ele><time>2026-04-25T10:07:08.112Z</time></trkpt><trkpt lat="43.3794817" lon="10.6463333"><ele>186.0</ele><time>2026-04-25T10:07:09.111Z</time></trkpt><trkpt lat="43.37938" lon="10.6463517"><ele>186.0</ele><time>2026-04-25T10:07:10.12Z</time></trkpt><trkpt lat="43.379275" lon="10.6463667"><ele>186.0</ele><time>2026-04-25T10:07:11.123Z</time></trkpt><trkpt lat="43.3791667" lon="10.6463933"><ele>186.0</ele><time>2026-04-25T10:07:12.145Z</time></trkpt><trkpt lat="43.3790617" lon="10.646435"><ele>186.0</ele><time>2026-04-25T10:07:13.132Z</time></trkpt><trkpt lat="43.37896" lon="10.6464783"><ele>186.0</ele><time>2026-04-25T10:07:14.129Z</time></trkpt><trkpt lat="43.3788617" lon="10.6465183"><ele>189.0</ele><time>2026-04-25T10:07:15.125Z</time></trkpt><trkpt lat="43.3787633" lon="10.6465617"><ele>192.0</ele><time>2026-04-25T10:07:16.132Z</time></trkpt><trkpt lat="43.3786667" lon="10.6466167"><ele>195.0</ele><time>2026-04-25T10:07:17.13Z</time></trkpt><trkpt lat="43.3785633" lon="10.6467017"><ele>198.0</ele><time>2026-04-25T10:07:18.127Z</time></trkpt><trkpt lat="43.37846" lon="10.6468033"><ele>198.0</ele><time>2026-04-25T10:07:19.123Z</time></trkpt><trkpt lat="43.37835" lon="10.64692"><ele>198.0</ele><time>2026-04-25T10:07:20.127Z</time></trkpt><trkpt lat="43.3782417" lon="10.6470283"><ele>198.0</ele><time>2026-04-25T10:07:21.126Z</time></trkpt><trkpt lat="43.37814" lon="10.6471283"><ele>198.0</ele><time>2026-04-25T10:07:22.125Z</time></trkpt><trkpt lat="43.378055" lon="10.6472167"><ele>196.4</ele><time>2026-04-25T10:07:23.132Z</time></trkpt><trkpt lat="43.37798" lon="10.647295"><ele>194.8</ele><time>2026-04-25T10:07:24.14Z</time></trkpt><trkpt lat="43.3779067" lon="10.64737"><ele>193.2</ele><time>2026-04-25T10:07:25.135Z</time></trkpt><trkpt lat="43.3778333" lon="10.6474317"><ele>191.6</ele><time>2026-04-25T10:07:26.133Z</time></trkpt><trkpt lat="43.3777517" lon="10.6474867"><ele>190.0</ele><time>2026-04-25T10:07:27.132Z</time></trkpt><trkpt lat="43.37766" lon="10.6475317"><ele>190.0</ele><time>2026-04-25T10:07:28.13Z</time></trkpt><trkpt lat="43.3775567" lon="10.6475683"><ele>190.0</ele><time>2026-04-25T10:07:29.122Z</time></trkpt><trkpt lat="43.377445" lon="10.6475967"><ele>190.0</ele><time>2026-04-25T10:07:30.129Z</time></trkpt><trkpt lat="43.3773383" lon="10.64762"><ele>190.0</ele><time>2026-04-25T10:07:31.125Z</time></trkpt><trkpt lat="43.377235" lon="10.6476417"><ele>190.0</ele><time>2026-04-25T10:07:32.13Z</time></trkpt><trkpt lat="43.3771317" lon="10.6476633"><ele>190.8</ele><time>2026-04-25T10:07:33.12Z</time></trkpt><trkpt lat="43.3770333" lon="10.647685"><ele>191.6</ele><time>2026-04-25T10:07:34.123Z</time></trkpt><trkpt lat="43.3769317" lon="10.6476967"><ele>192.39999999999998</ele><time>2026-04-25T10:07:35.123Z</time></trkpt><trkpt lat="43.3768267" lon="10.6476967"><ele>193.2</ele><time>2026-04-25T10:07:36.132Z</time></trkpt><trkpt lat="43.3767233" lon="10.6476783"><ele>194.0</ele><time>2026-04-25T10:07:37.124Z</time></trkpt><trkpt lat="43.376625" lon="10.6476633"><ele>194.0</ele><time>2026-04-25T10:07:38.128Z</time></trkpt><trkpt lat="43.3765367" lon="10.6476617"><ele>194.0</ele><time>2026-04-25T10:07:39.13Z</time></trkpt><trkpt lat="43.3764467" lon="10.6476783"><ele>194.0</ele><time>2026-04-25T10:07:40.119Z</time></trkpt><trkpt lat="43.3763567" lon="10.6477167"><ele>194.0</ele><time>2026-04-25T10:07:41.118Z</time></trkpt><trkpt lat="43.376265" lon="10.6477683"><ele>194.0</ele><time>2026-04-25T10:07:42.119Z</time></trkpt><trkpt lat="43.376175" lon="10.647805"><ele>194.2</ele><time>2026-04-25T10:07:43.126Z</time></trkpt><trkpt lat="43.3760817" lon="10.6478217"><ele>194.39999999999998</ele><time>2026-04-25T10:07:44.129Z</time></trkpt><trkpt lat="43.3759717" lon="10.6478183"><ele>194.6</ele><time>2026-04-25T10:07:45.121Z</time></trkpt><trkpt lat="43.3758533" lon="10.6478017"><ele>194.8</ele><time>2026-04-25T10:07:46.122Z</time></trkpt><trkpt lat="43.3757333" lon="10.647785"><ele>195.0</ele><time>2026-04-25T10:07:47.128Z</time></trkpt><trkpt lat="43.37562" lon="10.647775"><ele>194.8</ele><time>2026-04-25T10:07:48.115Z</time></trkpt><trkpt lat="43.3755133" lon="10.6477717"><ele>194.6</ele><time>2026-04-25T10:07:49.117Z</time></trkpt><trkpt lat="43.37541" lon="10.64777"><ele>194.39999999999998</ele><time>2026-04-25T10:07:50.119Z</time></trkpt><trkpt lat="43.375315" lon="10.647785"><ele>194.2</ele><time>2026-04-25T10:07:51.126Z</time></trkpt><trkpt lat="43.3752317" lon="10.6478233"><ele>194.0</ele><time>2026-04-25T10:07:52.137Z</time></trkpt><trkpt lat="43.37515" lon="10.6478867"><ele>189.75</ele><time>2026-04-25T10:07:53.122Z</time></trkpt><trkpt lat="43.3750483" lon="10.6479833"><ele>185.5</ele><time>2026-04-25T10:07:54.123Z</time></trkpt><trkpt lat="43.3749417" lon="10.6480867"><ele>181.25</ele><time>2026-04-25T10:07:55.128Z</time></trkpt><trkpt lat="43.3748317" lon="10.648205"><ele>177.0</ele><time>2026-04-25T10:07:56.141Z</time></trkpt><trkpt lat="43.3747233" lon="10.6483133"><ele>176.75</ele><time>2026-04-25T10:07:57.126Z</time></trkpt><trkpt lat="43.374625" lon="10.6484033"><ele>176.5</ele><time>2026-04-25T10:07:58.129Z</time></trkpt><trkpt lat="43.3745317" lon="10.64849"><ele>176.25</ele><time>2026-04-25T10:07:59.126Z</time></trkpt><trkpt lat="43.3744367" lon="10.6485767"><ele>176.0</ele><time>2026-04-25T10:08:00.131Z</time></trkpt><trkpt lat="43.374345" lon="10.6486567"><ele>176.0</ele><time>2026-04-25T10:08:01.131Z</time></trkpt><trkpt lat="43.3742583" lon="10.6487317"><ele>176.0</ele><time>2026-04-25T10:08:02.129Z</time></trkpt><trkpt lat="43.3741767" lon="10.6488"><ele>176.0</ele><time>2026-04-25T10:08:03.127Z</time></trkpt><trkpt lat="43.3740967" lon="10.6488583"><ele>176.0</ele><time>2026-04-25T10:08:04.134Z</time></trkpt><trkpt lat="43.37402" lon="10.6489083"><ele>176.0</ele><time>2026-04-25T10:08:05.133Z</time></trkpt><trkpt lat="43.3739367" lon="10.6489417"><ele>176.8</ele><time>2026-04-25T10:08:06.124Z</time></trkpt><trkpt lat="43.3738517" lon="10.64896"><ele>177.60000000000002</ele><time>2026-04-25T10:08:07.123Z</time></trkpt><trkpt lat="43.37376" lon="10.6489683"><ele>178.4</ele><time>2026-04-25T10:08:08.114Z</time></trkpt><trkpt lat="43.373665" lon="10.648975"><ele>179.2</ele><time>2026-04-25T10:08:09.116Z</time></trkpt><trkpt lat="43.3735683" lon="10.64898"><ele>180.0</ele><time>2026-04-25T10:08:10.119Z</time></trkpt><trkpt lat="43.3734733" lon="10.64899"><ele>180.0</ele><time>2026-04-25T10:08:11.123Z</time></trkpt><trkpt lat="43.3733867" lon="10.6489967"><ele>180.0</ele><time>2026-04-25T10:08:12.124Z</time></trkpt><trkpt lat="43.37332" lon="10.6489983"><ele>180.0</ele><time>2026-04-25T10:08:13.12Z</time></trkpt><trkpt lat="43.3732167" lon="10.648995"><ele>180.0</ele><time>2026-04-25T10:08:15.129Z</time></trkpt><trkpt lat="43.3731483" lon="10.6489933"><ele>180.0</ele><time>2026-04-25T10:08:16.127Z</time></trkpt><trkpt lat="43.3730683" lon="10.648995"><ele>180.0</ele><time>2026-04-25T10:08:17.14Z</time></trkpt><trkpt lat="43.372985" lon="10.6489967"><ele>179.66666666666666</ele><time>2026-04-25T10:08:18.125Z</time></trkpt><trkpt lat="43.3729017" lon="10.6490033"><ele>179.33333333333334</ele><time>2026-04-25T10:08:19.126Z</time></trkpt><trkpt lat="43.3728167" lon="10.64901"><ele>179.0</ele><time>2026-04-25T10:08:20.133Z</time></trkpt><trkpt lat="43.3727317" lon="10.649015"><ele>178.66666666666669</ele><time>2026-04-25T10:08:21.122Z</time></trkpt><trkpt lat="43.3726433" lon="10.6490233"><ele>178.33333333333334</ele><time>2026-04-25T10:08:22.118Z</time></trkpt><trkpt lat="43.3725517" lon="10.64903"><ele>178.0</ele><time>2026-04-25T10:08:23.125Z</time></trkpt><trkpt lat="43.3724583" lon="10.6490383"><ele>178.0</ele><time>2026-04-25T10:08:24.144Z</time></trkpt><trkpt lat="43.372365" lon="10.6490433"><ele>178.0</ele><time>2026-04-25T10:08:25.143Z</time></trkpt><trkpt lat="43.3722733" lon="10.6490467"><ele>178.0</ele><time>2026-04-25T10:08:26.133Z</time></trkpt><trkpt lat="43.3721833" lon="10.6490517"><ele>178.0</ele><time>2026-04-25T10:08:27.138Z</time></trkpt><trkpt lat="43.372095" lon="10.6490583"><ele>178.0</ele><time>2026-04-25T10:08:28.138Z</time></trkpt><trkpt lat="43.3720117" lon="10.6490617"><ele>178.0</ele><time>2026-04-25T10:08:29.142Z</time></trkpt><trkpt lat="43.3719333" lon="10.649065"><ele>177.8</ele><time>2026-04-25T10:08:30.131Z</time></trkpt><trkpt lat="43.3718583" lon="10.6490683"><ele>177.60000000000002</ele><time>2026-04-25T10:08:31.127Z</time></trkpt><trkpt lat="43.3717883" lon="10.6490733"><ele>177.39999999999998</ele><time>2026-04-25T10:08:32.133Z</time></trkpt><trkpt lat="43.371675" lon="10.64908"><ele>177.2</ele><time>2026-04-25T10:08:34.138Z</time></trkpt><trkpt lat="43.3715933" lon="10.6491383"><ele>177.0</ele><time>2026-04-25T10:08:36.131Z</time></trkpt><trkpt lat="43.3715617" lon="10.6493083"><ele>177.0</ele><time>2026-04-25T10:08:38.123Z</time></trkpt><trkpt lat="43.3715483" lon="10.649415"><ele>177.0</ele><time>2026-04-25T10:08:39.122Z</time></trkpt><trkpt lat="43.3715267" lon="10.6495217"><ele>177.0</ele><time>2026-04-25T10:08:40.133Z</time></trkpt><trkpt lat="43.37149" lon="10.6496283"><ele>177.0</ele><time>2026-04-25T10:08:41.128Z</time></trkpt><trkpt lat="43.37144" lon="10.6497367"><ele>177.0</ele><time>2026-04-25T10:08:42.129Z</time></trkpt><trkpt lat="43.37138" lon="10.6498417"><ele>177.0</ele><time>2026-04-25T10:08:43.125Z</time></trkpt><trkpt lat="43.37131" lon="10.6499433"><ele>177.2</ele><time>2026-04-25T10:08:44.129Z</time></trkpt><trkpt lat="43.37124" lon="10.6500467"><ele>177.39999999999998</ele><time>2026-04-25T10:08:45.118Z</time></trkpt><trkpt lat="43.3711667" lon="10.6501533"><ele>177.60000000000002</ele><time>2026-04-25T10:08:46.124Z</time></trkpt><trkpt lat="43.3710933" lon="10.6502617"><ele>177.8</ele><time>2026-04-25T10:08:47.122Z</time></trkpt><trkpt lat="43.37102" lon="10.6503683"><ele>178.0</ele><time>2026-04-25T10:08:48.124Z</time></trkpt><trkpt lat="43.3709467" lon="10.6504733"><ele>178.0</ele><time>2026-04-25T10:08:49.129Z</time></trkpt><trkpt lat="43.3708817" lon="10.6505683"><ele>178.0</ele><time>2026-04-25T10:08:50.119Z</time></trkpt><trkpt lat="43.3708217" lon="10.65066"><ele>178.0</ele><time>2026-04-25T10:08:51.128Z</time></trkpt><trkpt lat="43.3707633" lon="10.6507433"><ele>178.0</ele><time>2026-04-25T10:08:52.115Z</time></trkpt><trkpt lat="43.3707117" lon="10.6508167"><ele>178.0</ele><time>2026-04-25T10:08:53.123Z</time></trkpt><trkpt lat="43.3706583" lon="10.6508867"><ele>178.0</ele><time>2026-04-25T10:08:54.121Z</time></trkpt><trkpt lat="43.3705517" lon="10.65095"><ele>178.0</ele><time>2026-04-25T10:08:56.126Z</time></trkpt><trkpt lat="43.370445" lon="10.65094"><ele>178.0</ele><time>2026-04-25T10:08:58.132Z</time></trkpt><trkpt lat="43.3703833" lon="10.650915"><ele>178.0</ele><time>2026-04-25T10:08:59.123Z</time></trkpt><trkpt lat="43.3703083" lon="10.6508933"><ele>178.0</ele><time>2026-04-25T10:09:00.125Z</time></trkpt><trkpt lat="43.3702267" lon="10.650875"><ele>178.0</ele><time>2026-04-25T10:09:01.128Z</time></trkpt><trkpt lat="43.3701483" lon="10.650865"><ele>178.0</ele><time>2026-04-25T10:09:02.123Z</time></trkpt><trkpt lat="43.370075" lon="10.65085"><ele>178.0</ele><time>2026-04-25T10:09:03.125Z</time></trkpt><trkpt lat="43.370005" lon="10.6508417"><ele>178.0</ele><time>2026-04-25T10:09:04.122Z</time></trkpt><trkpt lat="43.36994" lon="10.6508317"><ele>178.0</ele><time>2026-04-25T10:09:05.125Z</time></trkpt><trkpt lat="43.3698183" lon="10.6508367"><ele>178.0</ele><time>2026-04-25T10:09:07.128Z</time></trkpt><trkpt lat="43.3697017" lon="10.6508783"><ele>178.0</ele><time>2026-04-25T10:09:09.123Z</time></trkpt><trkpt lat="43.3695933" lon="10.6509533"><ele>176.66666666666669</ele><time>2026-04-25T10:09:11.127Z</time></trkpt><trkpt lat="43.369515" lon="10.6510733"><ele>175.33333333333334</ele><time>2026-04-25T10:09:13.128Z</time></trkpt><trkpt lat="43.3694817" lon="10.6511517"><ele>174.0</ele><time>2026-04-25T10:09:14.122Z</time></trkpt><trkpt lat="43.3694483" lon="10.65125"><ele>172.66666666666666</ele><time>2026-04-25T10:09:15.118Z</time></trkpt><trkpt lat="43.36942" lon="10.6513583"><ele>171.33333333333331</ele><time>2026-04-25T10:09:16.136Z</time></trkpt><trkpt lat="43.3693983" lon="10.6514617"><ele>170.0</ele><time>2026-04-25T10:09:17.118Z</time></trkpt><trkpt lat="43.36939" lon="10.6515567"><ele>169.42857142857144</ele><time>2026-04-25T10:09:18.12Z</time></trkpt><trkpt lat="43.3693917" lon="10.651645"><ele>168.85714285714283</ele><time>2026-04-25T10:09:19.12Z</time></trkpt><trkpt lat="43.3694117" lon="10.6517333"><ele>168.28571428571428</ele><time>2026-04-25T10:09:20.119Z</time></trkpt><trkpt lat="43.3694517" lon="10.65182"><ele>167.71428571428572</ele><time>2026-04-25T10:09:21.123Z</time></trkpt><trkpt lat="43.369505" lon="10.6519017"><ele>167.14285714285717</ele><time>2026-04-25T10:09:22.121Z</time></trkpt><trkpt lat="43.36956" lon="10.6519783"><ele>166.57142857142856</ele><time>2026-04-25T10:09:23.128Z</time></trkpt><trkpt lat="43.3696233" lon="10.652045"><ele>166.0</ele><time>2026-04-25T10:09:24.124Z</time></trkpt><trkpt lat="43.3696983" lon="10.6520967"><ele>165.16666666666669</ele><time>2026-04-25T10:09:25.119Z</time></trkpt><trkpt lat="43.3697717" lon="10.652135"><ele>164.33333333333334</ele><time>2026-04-25T10:09:26.122Z</time></trkpt><trkpt lat="43.3698533" lon="10.65215"><ele>163.5</ele><time>2026-04-25T10:09:27.129Z</time></trkpt><trkpt lat="43.3699383" lon="10.6521467"><ele>162.66666666666666</ele><time>2026-04-25T10:09:28.127Z</time></trkpt><trkpt lat="43.3700183" lon="10.652135"><ele>161.83333333333331</ele><time>2026-04-25T10:09:29.124Z</time></trkpt><trkpt lat="43.3700983" lon="10.6521133"><ele>161.0</ele><time>2026-04-25T10:09:30.129Z</time></trkpt><trkpt lat="43.370175" lon="10.6520833"><ele>161.0</ele><time>2026-04-25T10:09:31.125Z</time></trkpt><trkpt lat="43.3702433" lon="10.6520683"><ele>161.0</ele><time>2026-04-25T10:09:32.123Z</time></trkpt><trkpt lat="43.37031" lon="10.6520683"><ele>161.0</ele><time>2026-04-25T10:09:33.139Z</time></trkpt><trkpt lat="43.3703767" lon="10.6520917"><ele>161.0</ele><time>2026-04-25T10:09:34.124Z</time></trkpt><trkpt lat="43.3704417" lon="10.65214"><ele>161.0</ele><time>2026-04-25T10:09:35.128Z</time></trkpt><trkpt lat="43.3705033" lon="10.6522"><ele>161.0</ele><time>2026-04-25T10:09:36.126Z</time></trkpt><trkpt lat="43.3705583" lon="10.6522617"><ele>161.0</ele><time>2026-04-25T10:09:37.128Z</time></trkpt><trkpt lat="43.370665" lon="10.6523383"><ele>160.0</ele><time>2026-04-25T10:09:39.144Z</time></trkpt><trkpt lat="43.3707783" lon="10.65235"><ele>159.0</ele><time>2026-04-25T10:09:41.129Z</time></trkpt><trkpt lat="43.3708817" lon="10.6523867"><ele>158.0</ele><time>2026-04-25T10:09:43.131Z</time></trkpt><trkpt lat="43.3708917" lon="10.6524883"><ele>157.0</ele><time>2026-04-25T10:09:45.134Z</time></trkpt><trkpt lat="43.37083" lon="10.6525767"><ele>156.0</ele><time>2026-04-25T10:09:47.142Z</time></trkpt><trkpt lat="43.37077" lon="10.6526333"><ele>156.0</ele><time>2026-04-25T10:09:48.131Z</time></trkpt><trkpt lat="43.3707" lon="10.6526767"><ele>156.0</ele><time>2026-04-25T10:09:49.134Z</time></trkpt><trkpt lat="43.370615" lon="10.6527083"><ele>156.0</ele><time>2026-04-25T10:09:50.125Z</time></trkpt><trkpt lat="43.3705217" lon="10.6527217"><ele>156.0</ele><time>2026-04-25T10:09:51.132Z</time></trkpt><trkpt lat="43.3704167" lon="10.6527133"><ele>156.0</ele><time>2026-04-25T10:09:52.13Z</time></trkpt><trkpt lat="43.3703117" lon="10.6526983"><ele>157.0</ele><time>2026-04-25T10:09:53.13Z</time></trkpt><trkpt lat="43.3702167" lon="10.6526817"><ele>158.0</ele><time>2026-04-25T10:09:54.129Z</time></trkpt><trkpt lat="43.3701333" lon="10.6526717"><ele>159.0</ele><time>2026-04-25T10:09:55.136Z</time></trkpt><trkpt lat="43.370055" lon="10.6526867"><ele>160.0</ele><time>2026-04-25T10:09:56.122Z</time></trkpt><trkpt lat="43.3699683" lon="10.6527283"><ele>161.0</ele><time>2026-04-25T10:09:57.122Z</time></trkpt><trkpt lat="43.369865" lon="10.6527967"><ele>155.5</ele><time>2026-04-25T10:09:58.118Z</time></trkpt><trkpt lat="43.3697517" lon="10.6528633"><ele>150.0</ele><time>2026-04-25T10:09:59.124Z</time></trkpt><trkpt lat="43.3696267" lon="10.6529233"><ele>144.5</ele><time>2026-04-25T10:10:00.125Z</time></trkpt><trkpt lat="43.3695" lon="10.652965"><ele>139.0</ele><time>2026-04-25T10:10:01.143Z</time></trkpt><trkpt lat="43.3693733" lon="10.653"><ele>138.8</ele><time>2026-04-25T10:10:02.123Z</time></trkpt><trkpt lat="43.36926" lon="10.6530167"><ele>138.60000000000002</ele><time>2026-04-25T10:10:03.123Z</time></trkpt><trkpt lat="43.369165" lon="10.6530133"><ele>138.4</ele><time>2026-04-25T10:10:04.124Z</time></trkpt><trkpt lat="43.3690783" lon="10.65299"><ele>138.20000000000002</ele><time>2026-04-25T10:10:05.119Z</time></trkpt><trkpt lat="43.3689917" lon="10.6529467"><ele>138.0</ele><time>2026-04-25T10:10:06.133Z</time></trkpt><trkpt lat="43.368915" lon="10.652875"><ele>139.5</ele><time>2026-04-25T10:10:07.123Z</time></trkpt><trkpt lat="43.3688583" lon="10.6527817"><ele>141.0</ele><time>2026-04-25T10:10:08.127Z</time></trkpt><trkpt lat="43.3688133" lon="10.6526867"><ele>142.5</ele><time>2026-04-25T10:10:09.123Z</time></trkpt><trkpt lat="43.368765" lon="10.6526"><ele>144.0</ele><time>2026-04-25T10:10:10.126Z</time></trkpt><trkpt lat="43.3687017" lon="10.65254"><ele>145.5</ele><time>2026-04-25T10:10:11.125Z</time></trkpt><trkpt lat="43.3686267" lon="10.65251"><ele>147.0</ele><time>2026-04-25T10:10:12.126Z</time></trkpt><trkpt lat="43.3685483" lon="10.6525117"><ele>147.0</ele><time>2026-04-25T10:10:13.119Z</time></trkpt><trkpt lat="43.368465" lon="10.6525517"><ele>147.0</ele><time>2026-04-25T10:10:14.122Z</time></trkpt><trkpt lat="43.36839" lon="10.652625"><ele>147.0</ele><time>2026-04-25T10:10:15.12Z</time></trkpt><trkpt lat="43.36832" lon="10.65272"><ele>147.0</ele><time>2026-04-25T10:10:16.118Z</time></trkpt><trkpt lat="43.3682633" lon="10.6528217"><ele>147.0</ele><time>2026-04-25T10:10:17.123Z</time></trkpt><trkpt lat="43.3682167" lon="10.65292"><ele>144.5</ele><time>2026-04-25T10:10:18.124Z</time></trkpt><trkpt lat="43.3681667" lon="10.6530017"><ele>142.0</ele><time>2026-04-25T10:10:19.122Z</time></trkpt><trkpt lat="43.36811" lon="10.6530633"><ele>139.5</ele><time>2026-04-25T10:10:20.127Z</time></trkpt><trkpt lat="43.3679817" lon="10.6530533"><ele>137.0</ele><time>2026-04-25T10:10:22.133Z</time></trkpt><trkpt lat="43.36791" lon="10.653035"><ele>134.5</ele><time>2026-04-25T10:10:23.123Z</time></trkpt><trkpt lat="43.3678267" lon="10.6530283"><ele>132.0</ele><time>2026-04-25T10:10:24.118Z</time></trkpt><trkpt lat="43.36773" lon="10.653055"><ele>131.2</ele><time>2026-04-25T10:10:25.122Z</time></trkpt><trkpt lat="43.3676267" lon="10.653095"><ele>130.39999999999998</ele><time>2026-04-25T10:10:26.121Z</time></trkpt><trkpt lat="43.3675183" lon="10.653135"><ele>129.60000000000002</ele><time>2026-04-25T10:10:27.121Z</time></trkpt><trkpt lat="43.3674133" lon="10.65317"><ele>128.8</ele><time>2026-04-25T10:10:28.125Z</time></trkpt><trkpt lat="43.3673067" lon="10.6532017"><ele>128.0</ele><time>2026-04-25T10:10:29.13Z</time></trkpt><trkpt lat="43.3672033" lon="10.6532267"><ele>128.4</ele><time>2026-04-25T10:10:30.125Z</time></trkpt><trkpt lat="43.3671" lon="10.6532467"><ele>128.8</ele><time>2026-04-25T10:10:31.127Z</time></trkpt><trkpt lat="43.3669967" lon="10.653265"><ele>129.2</ele><time>2026-04-25T10:10:32.118Z</time></trkpt><trkpt lat="43.366895" lon="10.6532767"><ele>129.6</ele><time>2026-04-25T10:10:33.115Z</time></trkpt><trkpt lat="43.3668" lon="10.6532867"><ele>130.0</ele><time>2026-04-25T10:10:34.124Z</time></trkpt><trkpt lat="43.3667083" lon="10.653295"><ele>130.00000000000003</ele><time>2026-04-25T10:10:35.119Z</time></trkpt><trkpt lat="43.3666283" lon="10.6533017"><ele>130.0</ele><time>2026-04-25T10:10:36.127Z</time></trkpt><trkpt lat="43.366555" lon="10.65332"><ele>130.0</ele><time>2026-04-25T10:10:37.127Z</time></trkpt><trkpt lat="43.36649" lon="10.6533483"><ele>130.0</ele><time>2026-04-25T10:10:38.125Z</time></trkpt><trkpt lat="43.3664317" lon="10.6534"><ele>130.0</ele><time>2026-04-25T10:10:39.123Z</time></trkpt><trkpt lat="43.3663867" lon="10.6534717"><ele>130.00000000000003</ele><time>2026-04-25T10:10:40.123Z</time></trkpt><trkpt lat="43.366355" lon="10.6535633"><ele>130.0</ele><time>2026-04-25T10:10:41.122Z</time></trkpt><trkpt lat="43.3663317" lon="10.6536867"><ele>129.4</ele><time>2026-04-25T10:10:42.118Z</time></trkpt><trkpt lat="43.366295" lon="10.653845"><ele>128.8</ele><time>2026-04-25T10:10:43.121Z</time></trkpt><trkpt lat="43.3662517" lon="10.6539967"><ele>128.2</ele><time>2026-04-25T10:10:44.126Z</time></trkpt><trkpt lat="43.3662167" lon="10.654115"><ele>127.6</ele><time>2026-04-25T10:10:45.133Z</time></trkpt><trkpt lat="43.36619" lon="10.6542267"><ele>127.0</ele><time>2026-04-25T10:10:46.12Z</time></trkpt><trkpt lat="43.36617" lon="10.6543483"><ele>124.19999999999999</ele><time>2026-04-25T10:10:47.12Z</time></trkpt><trkpt lat="43.3661633" lon="10.654475"><ele>121.39999999999999</ele><time>2026-04-25T10:10:48.125Z</time></trkpt><trkpt lat="43.3661567" lon="10.6545867"><ele>118.60000000000001</ele><time>2026-04-25T10:10:49.129Z</time></trkpt><trkpt lat="43.3661417" lon="10.6546833"><ele>115.80000000000001</ele><time>2026-04-25T10:10:50.121Z</time></trkpt><trkpt lat="43.3660683" lon="10.6547983"><ele>113.0</ele><time>2026-04-25T10:10:52.12Z</time></trkpt><trkpt lat="43.3659483" lon="10.6548083"><ele>113.0</ele><time>2026-04-25T10:10:54.124Z</time></trkpt><trkpt lat="43.3658733" lon="10.65479"><ele>113.00000000000001</ele><time>2026-04-25T10:10:55.135Z</time></trkpt><trkpt lat="43.3657867" lon="10.6547783"><ele>113.00000000000001</ele><time>2026-04-25T10:10:56.126Z</time></trkpt><trkpt lat="43.3656917" lon="10.6547883"><ele>113.0</ele><time>2026-04-25T10:10:57.122Z</time></trkpt><trkpt lat="43.3655917" lon="10.654815"><ele>113.0</ele><time>2026-04-25T10:10:58.123Z</time></trkpt><trkpt lat="43.36549" lon="10.6548517"><ele>113.0</ele><time>2026-04-25T10:10:59.123Z</time></trkpt><trkpt lat="43.3653933" lon="10.654895"><ele>113.00000000000001</ele><time>2026-04-25T10:11:00.124Z</time></trkpt><trkpt lat="43.365305" lon="10.654945"><ele>113.00000000000001</ele><time>2026-04-25T10:11:01.127Z</time></trkpt><trkpt lat="43.3652217" lon="10.65499"><ele>113.0</ele><time>2026-04-25T10:11:02.117Z</time></trkpt><trkpt lat="43.365145" lon="10.6550283"><ele>113.0</ele><time>2026-04-25T10:11:03.119Z</time></trkpt><trkpt lat="43.365065" lon="10.6550483"><ele>113.0</ele><time>2026-04-25T10:11:04.13Z</time></trkpt><trkpt lat="43.36498" lon="10.6550483"><ele>113.00000000000001</ele><time>2026-04-25T10:11:05.125Z</time></trkpt><trkpt lat="43.3648833" lon="10.6550267"><ele>113.00000000000001</ele><time>2026-04-25T10:11:06.12Z</time></trkpt><trkpt lat="43.3647833" lon="10.6549917"><ele>113.0</ele><time>2026-04-25T10:11:07.124Z</time></trkpt><trkpt lat="43.3646783" lon="10.6549683"><ele>113.0</ele><time>2026-04-25T10:11:08.126Z</time></trkpt><trkpt lat="43.3645767" lon="10.6549383"><ele>110.80000000000001</ele><time>2026-04-25T10:11:09.125Z</time></trkpt><trkpt lat="43.364485" lon="10.6549033"><ele>108.60000000000001</ele><time>2026-04-25T10:11:10.121Z</time></trkpt><trkpt lat="43.3644" lon="10.6548617"><ele>106.4</ele><time>2026-04-25T10:11:11.126Z</time></trkpt><trkpt lat="43.3643233" lon="10.6548083"><ele>104.19999999999999</ele><time>2026-04-25T10:11:12.12Z</time></trkpt><trkpt lat="43.3642533" lon="10.6547383"><ele>102.0</ele><time>2026-04-25T10:11:13.123Z</time></trkpt><trkpt lat="43.36418" lon="10.6546517"><ele>102.0</ele><time>2026-04-25T10:11:14.123Z</time></trkpt><trkpt lat="43.36411" lon="10.6545617"><ele>102.0</ele><time>2026-04-25T10:11:15.118Z</time></trkpt><trkpt lat="43.36404" lon="10.65448"><ele>102.0</ele><time>2026-04-25T10:11:16.121Z</time></trkpt><trkpt lat="43.3639633" lon="10.6544083"><ele>102.0</ele><time>2026-04-25T10:11:17.125Z</time></trkpt><trkpt lat="43.36388" lon="10.6543517"><ele>102.0</ele><time>2026-04-25T10:11:18.129Z</time></trkpt><trkpt lat="43.3637833" lon="10.6543117"><ele>101.5</ele><time>2026-04-25T10:11:19.123Z</time></trkpt><trkpt lat="43.363685" lon="10.65428"><ele>101.0</ele><time>2026-04-25T10:11:20.12Z</time></trkpt><trkpt lat="43.3635933" lon="10.6542567"><ele>100.5</ele><time>2026-04-25T10:11:21.119Z</time></trkpt><trkpt lat="43.3635117" lon="10.654235"><ele>100.0</ele><time>2026-04-25T10:11:22.118Z</time></trkpt><trkpt lat="43.3634383" lon="10.65421"><ele>99.5</ele><time>2026-04-25T10:11:23.118Z</time></trkpt><trkpt lat="43.363375" lon="10.6541833"><ele>99.0</ele><time>2026-04-25T10:11:24.122Z</time></trkpt><trkpt lat="43.3632883" lon="10.6541483"><ele>99.0</ele><time>2026-04-25T10:11:26.115Z</time></trkpt><trkpt lat="43.36323" lon="10.654195"><ele>99.0</ele><time>2026-04-25T10:11:28.118Z</time></trkpt><trkpt lat="43.3632317" lon="10.6542817"><ele>99.0</ele><time>2026-04-25T10:11:30.122Z</time></trkpt><trkpt lat="43.3633183" lon="10.6543633"><ele>99.0</ele><time>2026-04-25T10:11:32.125Z</time></trkpt><trkpt lat="43.363375" lon="10.6544017"><ele>99.0</ele><time>2026-04-25T10:11:33.125Z</time></trkpt><trkpt lat="43.363435" lon="10.6544533"><ele>99.0</ele><time>2026-04-25T10:11:34.119Z</time></trkpt><trkpt lat="43.36349" lon="10.6545317"><ele>99.0</ele><time>2026-04-25T10:11:35.113Z</time></trkpt><trkpt lat="43.36354" lon="10.6546367"><ele>97.33333333333333</ele><time>2026-04-25T10:11:36.126Z</time></trkpt><trkpt lat="43.363585" lon="10.6547383"><ele>95.66666666666667</ele><time>2026-04-25T10:11:37.128Z</time></trkpt><trkpt lat="43.3636383" lon="10.6548317"><ele>94.0</ele><time>2026-04-25T10:11:38.128Z</time></trkpt><trkpt lat="43.3636883" lon="10.6549117"><ele>92.33333333333334</ele><time>2026-04-25T10:11:39.118Z</time></trkpt><trkpt lat="43.3637267" lon="10.6549917"><ele>90.66666666666667</ele><time>2026-04-25T10:11:40.126Z</time></trkpt><trkpt lat="43.3637483" lon="10.6550767"><ele>89.0</ele><time>2026-04-25T10:11:41.119Z</time></trkpt><trkpt lat="43.3637333" lon="10.6552217"><ele>89.0</ele><time>2026-04-25T10:11:43.125Z</time></trkpt><trkpt lat="43.36365" lon="10.6552933"><ele>89.0</ele><time>2026-04-25T10:11:45.126Z</time></trkpt><trkpt lat="43.3635117" lon="10.65526"><ele>89.0</ele><time>2026-04-25T10:11:47.124Z</time></trkpt><trkpt lat="43.3634183" lon="10.6552383"><ele>89.0</ele><time>2026-04-25T10:11:48.123Z</time></trkpt><trkpt lat="43.363315" lon="10.655225"><ele>89.0</ele><time>2026-04-25T10:11:49.12Z</time></trkpt><trkpt lat="43.3632267" lon="10.65521"><ele>89.0</ele><time>2026-04-25T10:11:50.118Z</time></trkpt><trkpt lat="43.36315" lon="10.655175"><ele>89.0</ele><time>2026-04-25T10:11:51.125Z</time></trkpt><trkpt lat="43.3630883" lon="10.6551217"><ele>89.0</ele><time>2026-04-25T10:11:52.123Z</time></trkpt><trkpt lat="43.3630367" lon="10.655055"><ele>89.0</ele><time>2026-04-25T10:11:53.123Z</time></trkpt><trkpt lat="43.3629783" lon="10.6549867"><ele>89.0</ele><time>2026-04-25T10:11:54.119Z</time></trkpt><trkpt lat="43.3629083" lon="10.6549333"><ele>89.0</ele><time>2026-04-25T10:11:55.128Z</time></trkpt><trkpt lat="43.3628233" lon="10.6548983"><ele>87.4</ele><time>2026-04-25T10:11:56.119Z</time></trkpt><trkpt lat="43.3627217" lon="10.6548833"><ele>85.80000000000001</ele><time>2026-04-25T10:11:57.119Z</time></trkpt><trkpt lat="43.36261" lon="10.6548983"><ele>84.19999999999999</ele><time>2026-04-25T10:11:58.131Z</time></trkpt><trkpt lat="43.3625117" lon="10.654915"><ele>82.6</ele><time>2026-04-25T10:11:59.119Z</time></trkpt><trkpt lat="43.3624183" lon="10.65492"><ele>81.0</ele><time>2026-04-25T10:12:00.115Z</time></trkpt><trkpt lat="43.3623167" lon="10.6548967"><ele>81.0</ele><time>2026-04-25T10:12:01.12Z</time></trkpt><trkpt lat="43.3622083" lon="10.6548467"><ele>81.0</ele><time>2026-04-25T10:12:02.124Z</time></trkpt><trkpt lat="43.3621017" lon="10.6548"><ele>81.0</ele><time>2026-04-25T10:12:03.121Z</time></trkpt><trkpt lat="43.3619983" lon="10.6547617"><ele>81.0</ele><time>2026-04-25T10:12:04.129Z</time></trkpt><trkpt lat="43.36191" lon="10.6547217"><ele>81.0</ele><time>2026-04-25T10:12:05.117Z</time></trkpt><trkpt lat="43.36183" lon="10.6546717"><ele>80.0</ele><time>2026-04-25T10:12:06.117Z</time></trkpt><trkpt lat="43.3617533" lon="10.65461"><ele>79.0</ele><time>2026-04-25T10:12:07.129Z</time></trkpt><trkpt lat="43.3616817" lon="10.6545383"><ele>78.0</ele><time>2026-04-25T10:12:08.122Z</time></trkpt><trkpt lat="43.36161" lon="10.654445"><ele>77.0</ele><time>2026-04-25T10:12:09.126Z</time></trkpt><trkpt lat="43.3615417" lon="10.65435"><ele>76.0</ele><time>2026-04-25T10:12:10.122Z</time></trkpt><trkpt lat="43.361485" lon="10.654255"><ele>76.0</ele><time>2026-04-25T10:12:11.13Z</time></trkpt><trkpt lat="43.3614183" lon="10.654165"><ele>76.0</ele><time>2026-04-25T10:12:12.12Z</time></trkpt><trkpt lat="43.3613433" lon="10.6540867"><ele>76.0</ele><time>2026-04-25T10:12:13.127Z</time></trkpt><trkpt lat="43.3612733" lon="10.6540167"><ele>76.0</ele><time>2026-04-25T10:12:14.125Z</time></trkpt><trkpt lat="43.3612" lon="10.653955"><ele>76.0</ele><time>2026-04-25T10:12:15.122Z</time></trkpt><trkpt lat="43.3611283" lon="10.6538917"><ele>76.0</ele><time>2026-04-25T10:12:16.122Z</time></trkpt><trkpt lat="43.3610533" lon="10.6538333"><ele>73.6</ele><time>2026-04-25T10:12:17.127Z</time></trkpt><trkpt lat="43.3609717" lon="10.6537833"><ele>71.19999999999999</ele><time>2026-04-25T10:12:18.117Z</time></trkpt><trkpt lat="43.3608817" lon="10.6537417"><ele>68.80000000000001</ele><time>2026-04-25T10:12:19.122Z</time></trkpt><trkpt lat="43.36079" lon="10.653705"><ele>66.4</ele><time>2026-04-25T10:12:20.12Z</time></trkpt><trkpt lat="43.3607" lon="10.65367"><ele>64.0</ele><time>2026-04-25T10:12:21.121Z</time></trkpt><trkpt lat="43.36061" lon="10.65363"><ele>63.83333333333333</ele><time>2026-04-25T10:12:22.123Z</time></trkpt><trkpt lat="43.3605183" lon="10.653585"><ele>63.666666666666664</ele><time>2026-04-25T10:12:23.123Z</time></trkpt><trkpt lat="43.3604383" lon="10.6535483"><ele>63.5</ele><time>2026-04-25T10:12:24.119Z</time></trkpt><trkpt lat="43.3603567" lon="10.6535117"><ele>63.33333333333333</ele><time>2026-04-25T10:12:25.137Z</time></trkpt><trkpt lat="43.3602783" lon="10.6534717"><ele>63.166666666666664</ele><time>2026-04-25T10:12:26.124Z</time></trkpt><trkpt lat="43.3601983" lon="10.6534333"><ele>63.0</ele><time>2026-04-25T10:12:27.12Z</time></trkpt><trkpt lat="43.360105" lon="10.6534067"><ele>63.0</ele><time>2026-04-25T10:12:28.121Z</time></trkpt><trkpt lat="43.3600033" lon="10.653385"><ele>63.0</ele><time>2026-04-25T10:12:29.126Z</time></trkpt><trkpt lat="43.3599" lon="10.6533617"><ele>63.0</ele><time>2026-04-25T10:12:30.122Z</time></trkpt><trkpt lat="43.3597983" lon="10.6533383"><ele>63.0</ele><time>2026-04-25T10:12:31.123Z</time></trkpt><trkpt lat="43.3596983" lon="10.6533167"><ele>63.0</ele><time>2026-04-25T10:12:32.123Z</time></trkpt><trkpt lat="43.3595983" lon="10.6532917"><ele>62.5</ele><time>2026-04-25T10:12:33.117Z</time></trkpt><trkpt lat="43.35949" lon="10.6532583"><ele>62.0</ele><time>2026-04-25T10:12:34.132Z</time></trkpt><trkpt lat="43.3593783" lon="10.6532183"><ele>61.5</ele><time>2026-04-25T10:12:35.123Z</time></trkpt><trkpt lat="43.3592683" lon="10.6531717"><ele>61.0</ele><time>2026-04-25T10:12:36.123Z</time></trkpt><trkpt lat="43.3591633" lon="10.6531183"><ele>61.0</ele><time>2026-04-25T10:12:37.124Z</time></trkpt><trkpt lat="43.35906" lon="10.65307"><ele>60.99999999999999</ele><time>2026-04-25T10:12:38.126Z</time></trkpt><trkpt lat="43.3589617" lon="10.6530283"><ele>60.99999999999999</ele><time>2026-04-25T10:12:39.115Z</time></trkpt><trkpt lat="43.3588667" lon="10.652995"><ele>61.0</ele><time>2026-04-25T10:12:40.124Z</time></trkpt><trkpt lat="43.3587733" lon="10.6529683"><ele>61.0</ele><time>2026-04-25T10:12:41.129Z</time></trkpt><trkpt lat="43.3586783" lon="10.65295"><ele>60.0</ele><time>2026-04-25T10:12:42.126Z</time></trkpt><trkpt lat="43.35858" lon="10.652935"><ele>58.99999999999999</ele><time>2026-04-25T10:12:43.123Z</time></trkpt><trkpt lat="43.35848" lon="10.6529233"><ele>57.99999999999999</ele><time>2026-04-25T10:12:44.122Z</time></trkpt><trkpt lat="43.3583817" lon="10.6529117"><ele>57.0</ele><time>2026-04-25T10:12:45.123Z</time></trkpt><trkpt lat="43.3582867" lon="10.6528967"><ele>56.0</ele><time>2026-04-25T10:12:46.126Z</time></trkpt><trkpt lat="43.3581933" lon="10.65288"><ele>56.0</ele><time>2026-04-25T10:12:47.117Z</time></trkpt><trkpt lat="43.3580967" lon="10.6528567"><ele>55.99999999999999</ele><time>2026-04-25T10:12:48.12Z</time></trkpt><trkpt lat="43.358" lon="10.65283"><ele>55.99999999999999</ele><time>2026-04-25T10:12:49.124Z</time></trkpt><trkpt lat="43.357905" lon="10.6527967"><ele>56.0</ele><time>2026-04-25T10:12:50.121Z</time></trkpt><trkpt lat="43.35781" lon="10.65276"><ele>56.0</ele><time>2026-04-25T10:12:51.12Z</time></trkpt><trkpt lat="43.3577183" lon="10.6527167"><ele>56.8</ele><time>2026-04-25T10:12:52.123Z</time></trkpt><trkpt lat="43.3576283" lon="10.6526717"><ele>57.599999999999994</ele><time>2026-04-25T10:12:53.124Z</time></trkpt><trkpt lat="43.35754" lon="10.6526233"><ele>58.4</ele><time>2026-04-25T10:12:54.117Z</time></trkpt><trkpt lat="43.35746" lon="10.6525717"><ele>59.2</ele><time>2026-04-25T10:12:55.124Z</time></trkpt><trkpt lat="43.3573783" lon="10.6525183"><ele>60.0</ele><time>2026-04-25T10:12:56.118Z</time></trkpt><trkpt lat="43.3572933" lon="10.6524617"><ele>60.0</ele><time>2026-04-25T10:12:57.126Z</time></trkpt><trkpt lat="43.3572083" lon="10.6524033"><ele>60.0</ele><time>2026-04-25T10:12:58.128Z</time></trkpt><trkpt lat="43.3571233" lon="10.6523417"><ele>60.0</ele><time>2026-04-25T10:12:59.121Z</time></trkpt><trkpt lat="43.3570367" lon="10.6522833"><ele>60.0</ele><time>2026-04-25T10:13:00.121Z</time></trkpt><trkpt lat="43.3569517" lon="10.65223"><ele>60.0</ele><time>2026-04-25T10:13:01.125Z</time></trkpt><trkpt lat="43.3568683" lon="10.6521767"><ele>60.666666666666664</ele><time>2026-04-25T10:13:02.121Z</time></trkpt><trkpt lat="43.3567883" lon="10.6521267"><ele>61.33333333333333</ele><time>2026-04-25T10:13:03.123Z</time></trkpt><trkpt lat="43.35671" lon="10.6520767"><ele>62.0</ele><time>2026-04-25T10:13:04.127Z</time></trkpt><trkpt lat="43.3566333" lon="10.6520267"><ele>62.666666666666664</ele><time>2026-04-25T10:13:05.121Z</time></trkpt><trkpt lat="43.3565567" lon="10.65198"><ele>63.33333333333333</ele><time>2026-04-25T10:13:06.132Z</time></trkpt><trkpt lat="43.3564783" lon="10.6519317"><ele>64.0</ele><time>2026-04-25T10:13:07.123Z</time></trkpt><trkpt lat="43.3564067" lon="10.6518783"><ele>62.666666666666664</ele><time>2026-04-25T10:13:08.129Z</time></trkpt><trkpt lat="43.3563367" lon="10.6518217"><ele>61.33333333333333</ele><time>2026-04-25T10:13:09.127Z</time></trkpt><trkpt lat="43.3562633" lon="10.65177"><ele>60.0</ele><time>2026-04-25T10:13:10.133Z</time></trkpt><trkpt lat="43.356185" lon="10.6517233"><ele>58.66666666666667</ele><time>2026-04-25T10:13:11.126Z</time></trkpt><trkpt lat="43.3561033" lon="10.6516817"><ele>57.333333333333336</ele><time>2026-04-25T10:13:12.116Z</time></trkpt><trkpt lat="43.3560183" lon="10.6516517"><ele>56.0</ele><time>2026-04-25T10:13:13.134Z</time></trkpt><trkpt lat="43.3559317" lon="10.6516283"><ele>56.00000000000001</ele><time>2026-04-25T10:13:14.127Z</time></trkpt><trkpt lat="43.3558483" lon="10.651605"><ele>56.0</ele><time>2026-04-25T10:13:15.127Z</time></trkpt><trkpt lat="43.3557683" lon="10.6515817"><ele>56.0</ele><time>2026-04-25T10:13:16.117Z</time></trkpt><trkpt lat="43.3556883" lon="10.6515617"><ele>56.0</ele><time>2026-04-25T10:13:17.121Z</time></trkpt><trkpt lat="43.355605" lon="10.6515383"><ele>56.00000000000001</ele><time>2026-04-25T10:13:18.127Z</time></trkpt><trkpt lat="43.3555217" lon="10.6515133"><ele>56.0</ele><time>2026-04-25T10:13:19.13Z</time></trkpt><trkpt lat="43.3554367" lon="10.651485"><ele>55.0</ele><time>2026-04-25T10:13:20.121Z</time></trkpt><trkpt lat="43.3553483" lon="10.651455"><ele>53.99999999999999</ele><time>2026-04-25T10:13:21.121Z</time></trkpt><trkpt lat="43.355255" lon="10.6514233"><ele>53.0</ele><time>2026-04-25T10:13:22.127Z</time></trkpt><trkpt lat="43.3551583" lon="10.6513883"><ele>52.0</ele><time>2026-04-25T10:13:23.124Z</time></trkpt><trkpt lat="43.3550583" lon="10.6513517"><ele>51.0</ele><time>2026-04-25T10:13:24.124Z</time></trkpt><trkpt lat="43.3549517" lon="10.6513117"><ele>51.0</ele><time>2026-04-25T10:13:25.128Z</time></trkpt><trkpt lat="43.3548483" lon="10.6512733"><ele>51.0</ele><time>2026-04-25T10:13:26.122Z</time></trkpt><trkpt lat="43.3547467" lon="10.6512367"><ele>51.0</ele><time>2026-04-25T10:13:27.122Z</time></trkpt><trkpt lat="43.3546467" lon="10.6512017"><ele>51.0</ele><time>2026-04-25T10:13:28.125Z</time></trkpt><trkpt lat="43.3545533" lon="10.65117"><ele>51.0</ele><time>2026-04-25T10:13:29.125Z</time></trkpt><trkpt lat="43.3544617" lon="10.6511383"><ele>51.166666666666664</ele><time>2026-04-25T10:13:30.122Z</time></trkpt><trkpt lat="43.3543733" lon="10.6511067"><ele>51.33333333333333</ele><time>2026-04-25T10:13:31.129Z</time></trkpt><trkpt lat="43.3542867" lon="10.651075"><ele>51.5</ele><time>2026-04-25T10:13:32.127Z</time></trkpt><trkpt lat="43.3542033" lon="10.6510483"><ele>51.666666666666664</ele><time>2026-04-25T10:13:33.118Z</time></trkpt><trkpt lat="43.354125" lon="10.6510233"><ele>51.83333333333333</ele><time>2026-04-25T10:13:34.119Z</time></trkpt><trkpt lat="43.3540533" lon="10.651"><ele>52.0</ele><time>2026-04-25T10:13:35.123Z</time></trkpt><trkpt lat="43.3539867" lon="10.6509783"><ele>51.99999999999999</ele><time>2026-04-25T10:13:36.125Z</time></trkpt><trkpt lat="43.3539217" lon="10.6509533"><ele>52.0</ele><time>2026-04-25T10:13:37.12Z</time></trkpt><trkpt lat="43.3538567" lon="10.6509283"><ele>52.0</ele><time>2026-04-25T10:13:38.126Z</time></trkpt><trkpt lat="43.35379" lon="10.6508983"><ele>52.0</ele><time>2026-04-25T10:13:39.12Z</time></trkpt><trkpt lat="43.3537117" lon="10.650865"><ele>51.99999999999999</ele><time>2026-04-25T10:13:40.128Z</time></trkpt><trkpt lat="43.3536233" lon="10.6508283"><ele>52.0</ele><time>2026-04-25T10:13:41.119Z</time></trkpt><trkpt lat="43.35353" lon="10.6507833"><ele>51.0</ele><time>2026-04-25T10:13:42.119Z</time></trkpt><trkpt lat="43.35343" lon="10.6507333"><ele>50.0</ele><time>2026-04-25T10:13:43.126Z</time></trkpt><trkpt lat="43.3533233" lon="10.6506817"><ele>49.0</ele><time>2026-04-25T10:13:44.122Z</time></trkpt><trkpt lat="43.35321" lon="10.6506283"><ele>48.0</ele><time>2026-04-25T10:13:45.125Z</time></trkpt><trkpt lat="43.3530933" lon="10.6505717"><ele>47.5</ele><time>2026-04-25T10:13:46.128Z</time></trkpt><trkpt lat="43.3529783" lon="10.6505133"><ele>47.0</ele><time>2026-04-25T10:13:47.119Z</time></trkpt><trkpt lat="43.35286" lon="10.650455"><ele>46.5</ele><time>2026-04-25T10:13:48.123Z</time></trkpt><trkpt lat="43.3527417" lon="10.6503983"><ele>46.0</ele><time>2026-04-25T10:13:49.127Z</time></trkpt><trkpt lat="43.3526183" lon="10.6503367"><ele>45.75</ele><time>2026-04-25T10:13:50.119Z</time></trkpt><trkpt lat="43.3524967" lon="10.6502767"><ele>45.5</ele><time>2026-04-25T10:13:51.123Z</time></trkpt><trkpt lat="43.35238" lon="10.6502133"><ele>45.25</ele><time>2026-04-25T10:13:52.118Z</time></trkpt><trkpt lat="43.3522683" lon="10.6501533"><ele>45.0</ele><time>2026-04-25T10:13:53.119Z</time></trkpt><trkpt lat="43.352155" lon="10.6500983"><ele>45.0</ele><time>2026-04-25T10:13:54.126Z</time></trkpt><trkpt lat="43.3520417" lon="10.6500417"><ele>45.0</ele><time>2026-04-25T10:13:55.115Z</time></trkpt><trkpt lat="43.3519267" lon="10.649985"><ele>45.0</ele><time>2026-04-25T10:13:56.121Z</time></trkpt><trkpt lat="43.3518133" lon="10.649925"><ele>45.0</ele><time>2026-04-25T10:13:57.119Z</time></trkpt><trkpt lat="43.3516983" lon="10.6498667"><ele>45.0</ele><time>2026-04-25T10:13:58.123Z</time></trkpt><trkpt lat="43.3515817" lon="10.6498117"><ele>45.0</ele><time>2026-04-25T10:13:59.124Z</time></trkpt><trkpt lat="43.3514667" lon="10.6497567"><ele>45.0</ele><time>2026-04-25T10:14:00.123Z</time></trkpt><trkpt lat="43.35135" lon="10.6496983"><ele>45.0</ele><time>2026-04-25T10:14:01.126Z</time></trkpt><trkpt lat="43.351235" lon="10.6496367"><ele>44.75</ele><time>2026-04-25T10:14:02.128Z</time></trkpt><trkpt lat="43.3511167" lon="10.6495767"><ele>44.5</ele><time>2026-04-25T10:14:03.124Z</time></trkpt><trkpt lat="43.3509983" lon="10.6495183"><ele>44.25</ele><time>2026-04-25T10:14:04.114Z</time></trkpt><trkpt lat="43.3508783" lon="10.6494583"><ele>44.0</ele><time>2026-04-25T10:14:05.124Z</time></trkpt><trkpt lat="43.3507583" lon="10.6493983"><ele>44.0</ele><time>2026-04-25T10:14:06.124Z</time></trkpt><trkpt lat="43.3506367" lon="10.6493367"><ele>44.0</ele><time>2026-04-25T10:14:07.124Z</time></trkpt><trkpt lat="43.350515" lon="10.6492733"><ele>44.0</ele><time>2026-04-25T10:14:08.128Z</time></trkpt><trkpt lat="43.350395" lon="10.649215"><ele>44.0</ele><time>2026-04-25T10:14:09.121Z</time></trkpt><trkpt lat="43.3502717" lon="10.6491567"><ele>44.0</ele><time>2026-04-25T10:14:10.116Z</time></trkpt><trkpt lat="43.35015" lon="10.6490967"><ele>44.0</ele><time>2026-04-25T10:14:11.116Z</time></trkpt><trkpt lat="43.35003" lon="10.6490367"><ele>44.0</ele><time>2026-04-25T10:14:12.121Z</time></trkpt><trkpt lat="43.3499133" lon="10.648975"><ele>44.0</ele><time>2026-04-25T10:14:13.126Z</time></trkpt><trkpt lat="43.3497967" lon="10.648915"><ele>43.0</ele><time>2026-04-25T10:14:14.129Z</time></trkpt><trkpt lat="43.349685" lon="10.6488617"><ele>42.0</ele><time>2026-04-25T10:14:15.128Z</time></trkpt><trkpt lat="43.34957" lon="10.64881"><ele>41.0</ele><time>2026-04-25T10:14:16.121Z</time></trkpt><trkpt lat="43.3494467" lon="10.648755"><ele>40.0</ele><time>2026-04-25T10:14:17.126Z</time></trkpt><trkpt lat="43.34931" lon="10.6486917"><ele>40.0</ele><time>2026-04-25T10:14:18.122Z</time></trkpt><trkpt lat="43.3491667" lon="10.648635"><ele>40.0</ele><time>2026-04-25T10:14:19.132Z</time></trkpt><trkpt lat="43.3490183" lon="10.6485733"><ele>40.0</ele><time>2026-04-25T10:14:20.124Z</time></trkpt><trkpt lat="43.3488683" lon="10.6485167"><ele>40.0</ele><time>2026-04-25T10:14:21.127Z</time></trkpt><trkpt lat="43.348715" lon="10.6484567"><ele>40.0</ele><time>2026-04-25T10:14:22.126Z</time></trkpt><trkpt lat="43.3485633" lon="10.6483917"><ele>40.0</ele><time>2026-04-25T10:14:23.121Z</time></trkpt><trkpt lat="43.34841" lon="10.6483283"><ele>40.0</ele><time>2026-04-25T10:14:24.117Z</time></trkpt><trkpt lat="43.3482567" lon="10.6482617"><ele>40.0</ele><time>2026-04-25T10:14:25.115Z</time></trkpt><trkpt lat="43.348105" lon="10.6481967"><ele>40.0</ele><time>2026-04-25T10:14:26.122Z</time></trkpt><trkpt lat="43.34796" lon="10.648135"><ele>39.75</ele><time>2026-04-25T10:14:27.112Z</time></trkpt><trkpt lat="43.3478167" lon="10.6480733"><ele>39.5</ele><time>2026-04-25T10:14:28.123Z</time></trkpt><trkpt lat="43.34768" lon="10.6480167"><ele>39.25</ele><time>2026-04-25T10:14:29.124Z</time></trkpt><trkpt lat="43.3475483" lon="10.6479617"><ele>39.0</ele><time>2026-04-25T10:14:30.122Z</time></trkpt><trkpt lat="43.3474233" lon="10.6479083"><ele>39.0</ele><time>2026-04-25T10:14:31.124Z</time></trkpt><trkpt lat="43.3472983" lon="10.6478533"><ele>39.0</ele><time>2026-04-25T10:14:32.125Z</time></trkpt><trkpt lat="43.347175" lon="10.6478"><ele>39.0</ele><time>2026-04-25T10:14:33.125Z</time></trkpt><trkpt lat="43.3470533" lon="10.64775"><ele>39.0</ele><time>2026-04-25T10:14:34.127Z</time></trkpt><trkpt lat="43.3469317" lon="10.6477"><ele>39.75</ele><time>2026-04-25T10:14:35.129Z</time></trkpt><trkpt lat="43.3468133" lon="10.6476483"><ele>40.5</ele><time>2026-04-25T10:14:36.128Z</time></trkpt><trkpt lat="43.346695" lon="10.6476"><ele>41.25</ele><time>2026-04-25T10:14:37.124Z</time></trkpt><trkpt lat="43.3465733" lon="10.6475517"><ele>42.0</ele><time>2026-04-25T10:14:38.128Z</time></trkpt><trkpt lat="43.3464467" lon="10.6475"><ele>42.25</ele><time>2026-04-25T10:14:39.125Z</time></trkpt><trkpt lat="43.3463117" lon="10.6474533"><ele>42.5</ele><time>2026-04-25T10:14:40.111Z</time></trkpt><trkpt lat="43.3461767" lon="10.647415"><ele>42.75</ele><time>2026-04-25T10:14:41.114Z</time></trkpt><trkpt lat="43.34604" lon="10.64738"><ele>43.0</ele><time>2026-04-25T10:14:42.119Z</time></trkpt><trkpt lat="43.3459033" lon="10.6473467"><ele>43.0</ele><time>2026-04-25T10:14:43.125Z</time></trkpt><trkpt lat="43.3457733" lon="10.647315"><ele>43.0</ele><time>2026-04-25T10:14:44.117Z</time></trkpt><trkpt lat="43.3456483" lon="10.647285"><ele>43.0</ele><time>2026-04-25T10:14:45.119Z</time></trkpt><trkpt lat="43.3455217" lon="10.6472567"><ele>43.0</ele><time>2026-04-25T10:14:46.118Z</time></trkpt><trkpt lat="43.3453833" lon="10.6472367"><ele>42.0</ele><time>2026-04-25T10:14:47.119Z</time></trkpt><trkpt lat="43.3452383" lon="10.6472033"><ele>41.0</ele><time>2026-04-25T10:14:48.136Z</time></trkpt><trkpt lat="43.345095" lon="10.64715"><ele>40.0</ele><time>2026-04-25T10:14:49.124Z</time></trkpt><trkpt lat="43.3449483" lon="10.647095"><ele>39.0</ele><time>2026-04-25T10:14:50.124Z</time></trkpt><trkpt lat="43.34479" lon="10.6470417"><ele>39.0</ele><time>2026-04-25T10:14:51.119Z</time></trkpt><trkpt lat="43.344625" lon="10.64699"><ele>39.0</ele><time>2026-04-25T10:14:52.117Z</time></trkpt><trkpt lat="43.3444633" lon="10.64694"><ele>39.0</ele><time>2026-04-25T10:14:53.122Z</time></trkpt><trkpt lat="43.34431" lon="10.6468917"><ele>39.0</ele><time>2026-04-25T10:14:54.124Z</time></trkpt><trkpt lat="43.3441667" lon="10.6468483"><ele>39.0</ele><time>2026-04-25T10:14:55.141Z</time></trkpt><trkpt lat="43.3440317" lon="10.64681"><ele>39.0</ele><time>2026-04-25T10:14:56.117Z</time></trkpt><trkpt lat="43.3438933" lon="10.64677"><ele>39.0</ele><time>2026-04-25T10:14:57.121Z</time></trkpt><trkpt lat="43.3437467" lon="10.646735"><ele>39.0</ele><time>2026-04-25T10:14:58.127Z</time></trkpt><trkpt lat="43.3435883" lon="10.646715"><ele>39.0</ele><time>2026-04-25T10:14:59.126Z</time></trkpt><trkpt lat="43.343425" lon="10.646705"><ele>39.0</ele><time>2026-04-25T10:15:00.132Z</time></trkpt><trkpt lat="43.3432667" lon="10.6467"><ele>39.0</ele><time>2026-04-25T10:15:01.13Z</time></trkpt><trkpt lat="43.343125" lon="10.6466933"><ele>39.0</ele><time>2026-04-25T10:15:02.125Z</time></trkpt><trkpt lat="43.3429967" lon="10.6466783"><ele>39.0</ele><time>2026-04-25T10:15:03.132Z</time></trkpt><trkpt lat="43.3428683" lon="10.6466483"><ele>39.0</ele><time>2026-04-25T10:15:04.134Z</time></trkpt><trkpt lat="43.3427367" lon="10.6466083"><ele>38.25</ele><time>2026-04-25T10:15:05.13Z</time></trkpt><trkpt lat="43.3426083" lon="10.6465633"><ele>37.5</ele><time>2026-04-25T10:15:06.13Z</time></trkpt><trkpt lat="43.342485" lon="10.6465183"><ele>36.75</ele><time>2026-04-25T10:15:07.123Z</time></trkpt><trkpt lat="43.3423683" lon="10.646475"><ele>36.0</ele><time>2026-04-25T10:15:08.132Z</time></trkpt><trkpt lat="43.3422533" lon="10.6464383"><ele>35.2</ele><time>2026-04-25T10:15:09.128Z</time></trkpt><trkpt lat="43.3421483" lon="10.646395"><ele>34.400000000000006</ele><time>2026-04-25T10:15:10.123Z</time></trkpt><trkpt lat="43.3420483" lon="10.6463567"><ele>33.6</ele><time>2026-04-25T10:15:11.127Z</time></trkpt><trkpt lat="43.3419467" lon="10.6463067"><ele>32.800000000000004</ele><time>2026-04-25T10:15:12.128Z</time></trkpt><trkpt lat="43.341845" lon="10.6462417"><ele>32.0</ele><time>2026-04-25T10:15:13.123Z</time></trkpt><trkpt lat="43.34174" lon="10.6461583"><ele>32.25</ele><time>2026-04-25T10:15:14.123Z</time></trkpt><trkpt lat="43.34163" lon="10.646055"><ele>32.5</ele><time>2026-04-25T10:15:15.121Z</time></trkpt><trkpt lat="43.3415167" lon="10.6459417"><ele>32.75</ele><time>2026-04-25T10:15:16.126Z</time></trkpt><trkpt lat="43.3414033" lon="10.645825"><ele>33.0</ele><time>2026-04-25T10:15:17.128Z</time></trkpt><trkpt lat="43.34129" lon="10.6457133"><ele>33.0</ele><time>2026-04-25T10:15:18.127Z</time></trkpt><trkpt lat="43.3411767" lon="10.6456017"><ele>33.0</ele><time>2026-04-25T10:15:19.138Z</time></trkpt><trkpt lat="43.3410633" lon="10.6454917"><ele>33.0</ele><time>2026-04-25T10:15:20.122Z</time></trkpt><trkpt lat="43.3409567" lon="10.6453883"><ele>33.0</ele><time>2026-04-25T10:15:21.133Z</time></trkpt><trkpt lat="43.3408533" lon="10.64529"><ele>32.6</ele><time>2026-04-25T10:15:22.141Z</time></trkpt><trkpt lat="43.3407533" lon="10.645195"><ele>32.199999999999996</ele><time>2026-04-25T10:15:23.131Z</time></trkpt><trkpt lat="43.3406567" lon="10.6451033"><ele>31.8</ele><time>2026-04-25T10:15:24.134Z</time></trkpt><trkpt lat="43.3405683" lon="10.6450233"><ele>31.4</ele><time>2026-04-25T10:15:25.131Z</time></trkpt><trkpt lat="43.34049" lon="10.6449583"><ele>31.0</ele><time>2026-04-25T10:15:26.133Z</time></trkpt><trkpt lat="43.3404217" lon="10.644905"><ele>31.000000000000004</ele><time>2026-04-25T10:15:27.123Z</time></trkpt><trkpt lat="43.34036" lon="10.6448633"><ele>31.0</ele><time>2026-04-25T10:15:28.125Z</time></trkpt><trkpt lat="43.3402567" lon="10.64481"><ele>31.0</ele><time>2026-04-25T10:15:30.126Z</time></trkpt><trkpt lat="43.34019" lon="10.6447767"><ele>31.0</ele><time>2026-04-25T10:15:34.128Z</time></trkpt><trkpt lat="43.3401633" lon="10.6446217"><ele>31.000000000000004</ele><time>2026-04-25T10:15:37.135Z</time></trkpt><trkpt lat="43.3401533" lon="10.6445267"><ele>31.0</ele><time>2026-04-25T10:15:38.125Z</time></trkpt><trkpt lat="43.3401367" lon="10.64442"><ele>31.166666666666668</ele><time>2026-04-25T10:15:39.129Z</time></trkpt><trkpt lat="43.3401133" lon="10.6443217"><ele>31.333333333333336</ele><time>2026-04-25T10:15:40.134Z</time></trkpt><trkpt lat="43.340085" lon="10.6442333"><ele>31.5</ele><time>2026-04-25T10:15:41.125Z</time></trkpt><trkpt lat="43.340025" lon="10.6441383"><ele>31.666666666666664</ele><time>2026-04-25T10:15:43.135Z</time></trkpt><trkpt lat="43.33994" lon="10.644135"><ele>31.833333333333332</ele><time>2026-04-25T10:15:47.119Z</time></trkpt><trkpt lat="43.3398767" lon="10.6442567"><ele>32.0</ele><time>2026-04-25T10:15:49.124Z</time></trkpt><trkpt lat="43.3398433" lon="10.6443967"><ele>31.666666666666664</ele><time>2026-04-25T10:15:50.118Z</time></trkpt><trkpt lat="43.3397967" lon="10.6446017"><ele>31.333333333333336</ele><time>2026-04-25T10:15:51.13Z</time></trkpt><trkpt lat="43.3397417" lon="10.644835"><ele>31.0</ele><time>2026-04-25T10:15:52.123Z</time></trkpt><trkpt lat="43.3396767" lon="10.645105"><ele>31.0</ele><time>2026-04-25T10:15:53.126Z</time></trkpt><trkpt lat="43.3396067" lon="10.64539"><ele>31.0</ele><time>2026-04-25T10:15:54.127Z</time></trkpt><trkpt lat="43.3395367" lon="10.6456833"><ele>31.0</ele><time>2026-04-25T10:15:55.125Z</time></trkpt><trkpt lat="43.339465" lon="10.6459833"><ele>31.5</ele><time>2026-04-25T10:15:56.124Z</time></trkpt><trkpt lat="43.3393917" lon="10.646285"><ele>32.0</ele><time>2026-04-25T10:15:57.124Z</time></trkpt><trkpt lat="43.3393183" lon="10.6465917"><ele>32.0</ele><time>2026-04-25T10:15:58.126Z</time></trkpt><trkpt lat="43.339245" lon="10.6468983"><ele>32.0</ele><time>2026-04-25T10:15:59.122Z</time></trkpt><trkpt lat="43.3391717" lon="10.6471983"><ele>32.0</ele><time>2026-04-25T10:16:00.134Z</time></trkpt><trkpt lat="43.3391017" lon="10.6474967"><ele>32.0</ele><time>2026-04-25T10:16:01.139Z</time></trkpt><trkpt lat="43.33903" lon="10.6477917"><ele>32.0</ele><time>2026-04-25T10:16:02.128Z</time></trkpt><trkpt lat="43.338955" lon="10.6480833"><ele>32.0</ele><time>2026-04-25T10:16:03.137Z</time></trkpt><trkpt lat="43.3388733" lon="10.6483733"><ele>32.0</ele><time>2026-04-25T10:16:04.129Z</time></trkpt><trkpt lat="43.3387867" lon="10.6486567"><ele>32.0</ele><time>2026-04-25T10:16:05.128Z</time></trkpt><trkpt lat="43.3386967" lon="10.648935"><ele>32.0</ele><time>2026-04-25T10:16:06.129Z</time></trkpt><trkpt lat="43.3385983" lon="10.6492067"><ele>32.0</ele><time>2026-04-25T10:16:07.134Z</time></trkpt><trkpt lat="43.3384883" lon="10.64947"><ele>32.0</ele><time>2026-04-25T10:16:08.133Z</time></trkpt><trkpt lat="43.3383633" lon="10.6497317"><ele>32.0</ele><time>2026-04-25T10:16:09.132Z</time></trkpt><trkpt lat="43.338225" lon="10.6499883"><ele>32.0</ele><time>2026-04-25T10:16:10.117Z</time></trkpt><trkpt lat="43.3380767" lon="10.6502417"><ele>32.0</ele><time>2026-04-25T10:16:11.12Z</time></trkpt><trkpt lat="43.3379183" lon="10.6504933"><ele>31.5</ele><time>2026-04-25T10:16:12.121Z</time></trkpt><trkpt lat="43.337755" lon="10.6507367"><ele>31.0</ele><time>2026-04-25T10:16:13.12Z</time></trkpt><trkpt lat="43.3375967" lon="10.6509683"><ele>31.333333333333336</ele><time>2026-04-25T10:16:14.135Z</time></trkpt><trkpt lat="43.3374483" lon="10.6511933"><ele>31.666666666666664</ele><time>2026-04-25T10:16:15.135Z</time></trkpt><trkpt lat="43.3373067" lon="10.6514017"><ele>32.0</ele><time>2026-04-25T10:16:16.13Z</time></trkpt><trkpt lat="43.33717" lon="10.6515933"><ele>32.0</ele><time>2026-04-25T10:16:17.125Z</time></trkpt><trkpt lat="43.3370467" lon="10.651775"><ele>32.0</ele><time>2026-04-25T10:16:18.131Z</time></trkpt><trkpt lat="43.3369333" lon="10.6519367"><ele>32.0</ele><time>2026-04-25T10:16:19.13Z</time></trkpt><trkpt lat="43.3368333" lon="10.65208"><ele>32.2</ele><time>2026-04-25T10:16:20.134Z</time></trkpt><trkpt lat="43.3367517" lon="10.6522033"><ele>32.400000000000006</ele><time>2026-04-25T10:16:21.136Z</time></trkpt><trkpt lat="43.3366817" lon="10.65231"><ele>32.599999999999994</ele><time>2026-04-25T10:16:22.128Z</time></trkpt><trkpt lat="43.3366167" lon="10.6524"><ele>32.8</ele><time>2026-04-25T10:16:23.129Z</time></trkpt><trkpt lat="43.3365583" lon="10.6524683"><ele>33.0</ele><time>2026-04-25T10:16:24.132Z</time></trkpt><trkpt lat="43.336495" lon="10.65252"><ele>33.0</ele><time>2026-04-25T10:16:25.136Z</time></trkpt><trkpt lat="43.336435" lon="10.6525633"><ele>33.0</ele><time>2026-04-25T10:16:26.124Z</time></trkpt><trkpt lat="43.336375" lon="10.652615"><ele>33.0</ele><time>2026-04-25T10:16:27.136Z</time></trkpt><trkpt lat="43.33632" lon="10.65269"><ele>33.0</ele><time>2026-04-25T10:16:28.122Z</time></trkpt><trkpt lat="43.3362783" lon="10.6527983"><ele>33.0</ele><time>2026-04-25T10:16:29.122Z</time></trkpt><trkpt lat="43.3362367" lon="10.6529217"><ele>33.0</ele><time>2026-04-25T10:16:30.127Z</time></trkpt><trkpt lat="43.3361783" lon="10.6530533"><ele>33.0</ele><time>2026-04-25T10:16:31.126Z</time></trkpt><trkpt lat="43.3361033" lon="10.6531867"><ele>33.0</ele><time>2026-04-25T10:16:32.129Z</time></trkpt><trkpt lat="43.33602" lon="10.65333"><ele>33.0</ele><time>2026-04-25T10:16:33.12Z</time></trkpt><trkpt lat="43.3359317" lon="10.6534833"><ele>33.0</ele><time>2026-04-25T10:16:34.124Z</time></trkpt><trkpt lat="43.3358367" lon="10.6536433"><ele>32.0</ele><time>2026-04-25T10:16:35.118Z</time></trkpt><trkpt lat="43.3357383" lon="10.65381"><ele>31.0</ele><time>2026-04-25T10:16:36.122Z</time></trkpt><trkpt lat="43.3356383" lon="10.65398"><ele>30.0</ele><time>2026-04-25T10:16:37.129Z</time></trkpt><trkpt lat="43.3355367" lon="10.6541533"><ele>30.0</ele><time>2026-04-25T10:16:38.122Z</time></trkpt><trkpt lat="43.33544" lon="10.6543267"><ele>30.0</ele><time>2026-04-25T10:16:39.128Z</time></trkpt><trkpt lat="43.335345" lon="10.6544983"><ele>30.0</ele><time>2026-04-25T10:16:40.125Z</time></trkpt><trkpt lat="43.335255" lon="10.6546667"><ele>30.75</ele><time>2026-04-25T10:16:41.132Z</time></trkpt><trkpt lat="43.3351667" lon="10.6548283"><ele>31.5</ele><time>2026-04-25T10:16:42.118Z</time></trkpt><trkpt lat="43.3350817" lon="10.6549867"><ele>32.25</ele><time>2026-04-25T10:16:43.109Z</time></trkpt><trkpt lat="43.334995" lon="10.655145"><ele>33.0</ele><time>2026-04-25T10:16:44.123Z</time></trkpt><trkpt lat="43.3349083" lon="10.6553083"><ele>32.5</ele><time>2026-04-25T10:16:45.123Z</time></trkpt><trkpt lat="43.33482" lon="10.6554683"><ele>32.0</ele><time>2026-04-25T10:16:46.125Z</time></trkpt><trkpt lat="43.33473" lon="10.65563"><ele>31.5</ele><time>2026-04-25T10:16:47.123Z</time></trkpt><trkpt lat="43.3346417" lon="10.6557917"><ele>31.0</ele><time>2026-04-25T10:16:48.121Z</time></trkpt><trkpt lat="43.3345533" lon="10.6559567"><ele>31.666666666666668</ele><time>2026-04-25T10:16:49.126Z</time></trkpt><trkpt lat="43.3344633" lon="10.6561233"><ele>32.333333333333336</ele><time>2026-04-25T10:16:50.12Z</time></trkpt><trkpt lat="43.33437" lon="10.6562933"><ele>33.0</ele><time>2026-04-25T10:16:51.119Z</time></trkpt><trkpt lat="43.33428" lon="10.6564617"><ele>33.0</ele><time>2026-04-25T10:16:52.12Z</time></trkpt><trkpt lat="43.3341883" lon="10.6566317"><ele>33.0</ele><time>2026-04-25T10:16:53.122Z</time></trkpt><trkpt lat="43.3340967" lon="10.6568033"><ele>33.0</ele><time>2026-04-25T10:16:54.117Z</time></trkpt><trkpt lat="43.334005" lon="10.6569733"><ele>32.75</ele><time>2026-04-25T10:16:55.124Z</time></trkpt><trkpt lat="43.333915" lon="10.6571383"><ele>32.5</ele><time>2026-04-25T10:16:56.118Z</time></trkpt><trkpt lat="43.3338267" lon="10.6572983"><ele>32.25</ele><time>2026-04-25T10:16:57.13Z</time></trkpt><trkpt lat="43.33374" lon="10.6574567"><ele>32.0</ele><time>2026-04-25T10:16:58.127Z</time></trkpt><trkpt lat="43.3336533" lon="10.6576133"><ele>32.0</ele><time>2026-04-25T10:16:59.126Z</time></trkpt><trkpt lat="43.3335683" lon="10.6577683"><ele>32.0</ele><time>2026-04-25T10:17:00.135Z</time></trkpt><trkpt lat="43.3334817" lon="10.6579217"><ele>32.0</ele><time>2026-04-25T10:17:01.126Z</time></trkpt><trkpt lat="43.3333967" lon="10.6580783"><ele>32.0</ele><time>2026-04-25T10:17:02.136Z</time></trkpt><trkpt lat="43.33331" lon="10.6582383"><ele>32.0</ele><time>2026-04-25T10:17:03.111Z</time></trkpt><trkpt lat="43.3332217" lon="10.6584"><ele>32.0</ele><time>2026-04-25T10:17:04.13Z</time></trkpt><trkpt lat="43.3331333" lon="10.65856"><ele>32.0</ele><time>2026-04-25T10:17:05.132Z</time></trkpt><trkpt lat="43.3328617" lon="10.6590583"><ele>33.0</ele><time>2026-04-25T10:17:08.121Z</time></trkpt><trkpt lat="43.3327667" lon="10.6592267"><ele>34.0</ele><time>2026-04-25T10:17:09.132Z</time></trkpt><trkpt lat="43.33267" lon="10.659395"><ele>35.0</ele><time>2026-04-25T10:17:10.123Z</time></trkpt><trkpt lat="43.33257" lon="10.6595717"><ele>36.33333333333333</ele><time>2026-04-25T10:17:11.129Z</time></trkpt><trkpt lat="43.332465" lon="10.6597517"><ele>37.666666666666664</ele><time>2026-04-25T10:17:12.129Z</time></trkpt><trkpt lat="43.3323567" lon="10.6599417"><ele>39.0</ele><time>2026-04-25T10:17:13.123Z</time></trkpt><trkpt lat="43.33224" lon="10.6601317"><ele>38.0</ele><time>2026-04-25T10:17:14.14Z</time></trkpt><trkpt lat="43.3321183" lon="10.66032"><ele>37.0</ele><time>2026-04-25T10:17:15.121Z</time></trkpt><trkpt lat="43.33199" lon="10.6605067"><ele>36.0</ele><time>2026-04-25T10:17:16.114Z</time></trkpt><trkpt lat="43.3318533" lon="10.6606917"><ele>36.0</ele><time>2026-04-25T10:17:17.117Z</time></trkpt><trkpt lat="43.3317083" lon="10.6608717"><ele>36.0</ele><time>2026-04-25T10:17:18.12Z</time></trkpt><trkpt lat="43.3315517" lon="10.6610483"><ele>36.0</ele><time>2026-04-25T10:17:19.126Z</time></trkpt><trkpt lat="43.3313833" lon="10.6612167"><ele>37.333333333333336</ele><time>2026-04-25T10:17:20.121Z</time></trkpt><trkpt lat="43.3312067" lon="10.6613783"><ele>38.66666666666667</ele><time>2026-04-25T10:17:21.134Z</time></trkpt><trkpt lat="43.3310233" lon="10.6615283"><ele>40.0</ele><time>2026-04-25T10:17:22.13Z</time></trkpt><trkpt lat="43.3308383" lon="10.6616683"><ele>40.0</ele><time>2026-04-25T10:17:23.123Z</time></trkpt><trkpt lat="43.3306533" lon="10.66179"><ele>40.0</ele><time>2026-04-25T10:17:24.128Z</time></trkpt><trkpt lat="43.3304667" lon="10.6618983"><ele>40.0</ele><time>2026-04-25T10:17:25.133Z</time></trkpt><trkpt lat="43.33028" lon="10.6619933"><ele>39.333333333333336</ele><time>2026-04-25T10:17:26.139Z</time></trkpt><trkpt lat="43.3300983" lon="10.6620833"><ele>38.666666666666664</ele><time>2026-04-25T10:17:27.136Z</time></trkpt><trkpt lat="43.3299267" lon="10.6621633"><ele>38.0</ele><time>2026-04-25T10:17:28.136Z</time></trkpt><trkpt lat="43.3297633" lon="10.662235"><ele>37.0</ele><time>2026-04-25T10:17:29.132Z</time></trkpt><trkpt lat="43.329605" lon="10.6623017"><ele>36.0</ele><time>2026-04-25T10:17:30.124Z</time></trkpt><trkpt lat="43.32945" lon="10.6623733"><ele>35.0</ele><time>2026-04-25T10:17:31.134Z</time></trkpt><trkpt lat="43.3292967" lon="10.66246"><ele>35.0</ele><time>2026-04-25T10:17:32.129Z</time></trkpt><trkpt lat="43.3291517" lon="10.6625667"><ele>35.0</ele><time>2026-04-25T10:17:33.128Z</time></trkpt><trkpt lat="43.3290183" lon="10.6626867"><ele>35.0</ele><time>2026-04-25T10:17:34.122Z</time></trkpt><trkpt lat="43.3288967" lon="10.662815"><ele>35.0</ele><time>2026-04-25T10:17:35.132Z</time></trkpt><trkpt lat="43.32879" lon="10.662955"><ele>35.0</ele><time>2026-04-25T10:17:36.123Z</time></trkpt><trkpt lat="43.3286983" lon="10.6631117"><ele>35.0</ele><time>2026-04-25T10:17:37.135Z</time></trkpt><trkpt lat="43.3286183" lon="10.6632833"><ele>35.0</ele><time>2026-04-25T10:17:38.129Z</time></trkpt><trkpt lat="43.328555" lon="10.6634717"><ele>35.0</ele><time>2026-04-25T10:17:39.123Z</time></trkpt><trkpt lat="43.328505" lon="10.6636633"><ele>35.0</ele><time>2026-04-25T10:17:40.12Z</time></trkpt><trkpt lat="43.3284717" lon="10.6638683"><ele>35.0</ele><time>2026-04-25T10:17:41.127Z</time></trkpt><trkpt lat="43.3284533" lon="10.6640817"><ele>35.0</ele><time>2026-04-25T10:17:42.121Z</time></trkpt><trkpt lat="43.3284517" lon="10.6643017"><ele>35.0</ele><time>2026-04-25T10:17:43.133Z</time></trkpt><trkpt lat="43.3284567" lon="10.6645167"><ele>35.0</ele><time>2026-04-25T10:17:44.134Z</time></trkpt><trkpt lat="43.328465" lon="10.6647217"><ele>35.75</ele><time>2026-04-25T10:17:45.128Z</time></trkpt><trkpt lat="43.3284767" lon="10.6649183"><ele>36.5</ele><time>2026-04-25T10:17:46.136Z</time></trkpt><trkpt lat="43.3284883" lon="10.665115"><ele>37.25</ele><time>2026-04-25T10:17:47.133Z</time></trkpt><trkpt lat="43.3285" lon="10.665315"><ele>38.0</ele><time>2026-04-25T10:17:48.132Z</time></trkpt><trkpt lat="43.3285133" lon="10.6655117"><ele>38.0</ele><time>2026-04-25T10:17:49.135Z</time></trkpt><trkpt lat="43.3285283" lon="10.665705"><ele>38.0</ele><time>2026-04-25T10:17:50.137Z</time></trkpt><trkpt lat="43.3285517" lon="10.6659"><ele>38.0</ele><time>2026-04-25T10:17:51.131Z</time></trkpt><trkpt lat="43.32858" lon="10.666095"><ele>38.0</ele><time>2026-04-25T10:17:52.132Z</time></trkpt><trkpt lat="43.3286067" lon="10.66629"><ele>37.75</ele><time>2026-04-25T10:17:53.123Z</time></trkpt><trkpt lat="43.3286367" lon="10.666485"><ele>37.5</ele><time>2026-04-25T10:17:54.125Z</time></trkpt><trkpt lat="43.3286667" lon="10.6666783"><ele>37.25</ele><time>2026-04-25T10:17:55.12Z</time></trkpt><trkpt lat="43.3286967" lon="10.66687"><ele>37.0</ele><time>2026-04-25T10:17:56.122Z</time></trkpt><trkpt lat="43.328725" lon="10.6670583"><ele>37.0</ele><time>2026-04-25T10:17:57.131Z</time></trkpt><trkpt lat="43.328755" lon="10.6672467"><ele>37.0</ele><time>2026-04-25T10:17:58.123Z</time></trkpt><trkpt lat="43.328785" lon="10.6674317"><ele>37.0</ele><time>2026-04-25T10:17:59.138Z</time></trkpt><trkpt lat="43.3288133" lon="10.6676133"><ele>37.0</ele><time>2026-04-25T10:18:00.143Z</time></trkpt><trkpt lat="43.3288433" lon="10.667795"><ele>36.75</ele><time>2026-04-25T10:18:01.121Z</time></trkpt><trkpt lat="43.32887" lon="10.6679833"><ele>36.5</ele><time>2026-04-25T10:18:02.126Z</time></trkpt><trkpt lat="43.3288983" lon="10.6681717"><ele>36.25</ele><time>2026-04-25T10:18:03.125Z</time></trkpt><trkpt lat="43.3289267" lon="10.6683567"><ele>36.0</ele><time>2026-04-25T10:18:04.13Z</time></trkpt><trkpt lat="43.3289567" lon="10.668545"><ele>35.5</ele><time>2026-04-25T10:18:05.123Z</time></trkpt><trkpt lat="43.328985" lon="10.66873"><ele>35.0</ele><time>2026-04-25T10:18:06.13Z</time></trkpt><trkpt lat="43.3290133" lon="10.668905"><ele>34.5</ele><time>2026-04-25T10:18:07.127Z</time></trkpt><trkpt lat="43.3290383" lon="10.6690733"><ele>34.0</ele><time>2026-04-25T10:18:08.128Z</time></trkpt><trkpt lat="43.3290617" lon="10.6692367"><ele>34.0</ele><time>2026-04-25T10:18:09.132Z</time></trkpt><trkpt lat="43.3290867" lon="10.669395"><ele>34.0</ele><time>2026-04-25T10:18:10.133Z</time></trkpt><trkpt lat="43.3291117" lon="10.66955"><ele>34.0</ele><time>2026-04-25T10:18:11.139Z</time></trkpt><trkpt lat="43.329135" lon="10.669705"><ele>34.0</ele><time>2026-04-25T10:18:12.132Z</time></trkpt><trkpt lat="43.3291533" lon="10.66985"><ele>34.2</ele><time>2026-04-25T10:18:13.129Z</time></trkpt><trkpt lat="43.32916" lon="10.6699767"><ele>34.4</ele><time>2026-04-25T10:18:14.133Z</time></trkpt><trkpt lat="43.3291467" lon="10.6700883"><ele>34.6</ele><time>2026-04-25T10:18:15.131Z</time></trkpt><trkpt lat="43.3291133" lon="10.670195"><ele>34.8</ele><time>2026-04-25T10:18:16.121Z</time></trkpt><trkpt lat="43.3290483" lon="10.6703033"><ele>35.0</ele><time>2026-04-25T10:18:17.123Z</time></trkpt><trkpt lat="43.3289467" lon="10.6704033"><ele>35.25</ele><time>2026-04-25T10:18:18.12Z</time></trkpt><trkpt lat="43.3288283" lon="10.670495"><ele>35.5</ele><time>2026-04-25T10:18:19.125Z</time></trkpt><trkpt lat="43.3286967" lon="10.67056"><ele>35.75</ele><time>2026-04-25T10:18:20.136Z</time></trkpt><trkpt lat="43.3285583" lon="10.6705883"><ele>36.0</ele><time>2026-04-25T10:18:21.129Z</time></trkpt><trkpt lat="43.3284017" lon="10.6705817"><ele>36.0</ele><time>2026-04-25T10:18:22.125Z</time></trkpt><trkpt lat="43.32823" lon="10.67056"><ele>36.0</ele><time>2026-04-25T10:18:23.128Z</time></trkpt><trkpt lat="43.328045" lon="10.6705267"><ele>36.0</ele><time>2026-04-25T10:18:24.126Z</time></trkpt><trkpt lat="43.3278533" lon="10.67049"><ele>36.333333333333336</ele><time>2026-04-25T10:18:25.129Z</time></trkpt><trkpt lat="43.3276517" lon="10.6704483"><ele>36.66666666666667</ele><time>2026-04-25T10:18:26.123Z</time></trkpt><trkpt lat="43.327445" lon="10.6704083"><ele>37.0</ele><time>2026-04-25T10:18:27.115Z</time></trkpt><trkpt lat="43.32723" lon="10.67037"><ele>37.333333333333336</ele><time>2026-04-25T10:18:28.123Z</time></trkpt><trkpt lat="43.3270133" lon="10.6703317"><ele>37.666666666666664</ele><time>2026-04-25T10:18:29.12Z</time></trkpt><trkpt lat="43.3268" lon="10.6702933"><ele>38.0</ele><time>2026-04-25T10:18:30.124Z</time></trkpt><trkpt lat="43.3265917" lon="10.6702533"><ele>37.33333333333333</ele><time>2026-04-25T10:18:31.131Z</time></trkpt><trkpt lat="43.326385" lon="10.6702117"><ele>36.666666666666664</ele><time>2026-04-25T10:18:32.121Z</time></trkpt><trkpt lat="43.32618" lon="10.6701717"><ele>36.0</ele><time>2026-04-25T10:18:33.121Z</time></trkpt><trkpt lat="43.3259733" lon="10.6701333"><ele>36.0</ele><time>2026-04-25T10:18:34.124Z</time></trkpt><trkpt lat="43.32577" lon="10.6700967"><ele>36.0</ele><time>2026-04-25T10:18:35.129Z</time></trkpt><trkpt lat="43.3255683" lon="10.67006"><ele>36.0</ele><time>2026-04-25T10:18:36.116Z</time></trkpt><trkpt lat="43.3253733" lon="10.6700217"><ele>36.0</ele><time>2026-04-25T10:18:37.114Z</time></trkpt><trkpt lat="43.3251817" lon="10.6699817"><ele>36.0</ele><time>2026-04-25T10:18:38.117Z</time></trkpt><trkpt lat="43.3249933" lon="10.6699467"><ele>36.0</ele><time>2026-04-25T10:18:39.13Z</time></trkpt><trkpt lat="43.3248033" lon="10.6699117"><ele>36.0</ele><time>2026-04-25T10:18:40.126Z</time></trkpt><trkpt lat="43.324605" lon="10.66988"><ele>36.0</ele><time>2026-04-25T10:18:41.143Z</time></trkpt><trkpt lat="43.3244017" lon="10.669855"><ele>36.0</ele><time>2026-04-25T10:18:42.126Z</time></trkpt><trkpt lat="43.324195" lon="10.6698417"><ele>36.0</ele><time>2026-04-25T10:18:43.125Z</time></trkpt><trkpt lat="43.323985" lon="10.669835"><ele>36.0</ele><time>2026-04-25T10:18:44.123Z</time></trkpt><trkpt lat="43.3237733" lon="10.669835"><ele>36.0</ele><time>2026-04-25T10:18:45.12Z</time></trkpt><trkpt lat="43.323555" lon="10.669835"><ele>35.333333333333336</ele><time>2026-04-25T10:18:46.133Z</time></trkpt><trkpt lat="43.3233367" lon="10.6698383"><ele>34.66666666666667</ele><time>2026-04-25T10:18:47.122Z</time></trkpt><trkpt lat="43.3231233" lon="10.6698417"><ele>34.0</ele><time>2026-04-25T10:18:48.123Z</time></trkpt><trkpt lat="43.3229133" lon="10.669845"><ele>35.333333333333336</ele><time>2026-04-25T10:18:49.125Z</time></trkpt><trkpt lat="43.322705" lon="10.6698483"><ele>36.666666666666664</ele><time>2026-04-25T10:18:50.125Z</time></trkpt><trkpt lat="43.322495" lon="10.6698483"><ele>38.0</ele><time>2026-04-25T10:18:51.127Z</time></trkpt><trkpt lat="43.3222783" lon="10.6698467"><ele>37.666666666666664</ele><time>2026-04-25T10:18:52.136Z</time></trkpt><trkpt lat="43.32206" lon="10.6698483"><ele>37.333333333333336</ele><time>2026-04-25T10:18:53.126Z</time></trkpt><trkpt lat="43.3218417" lon="10.6698517"><ele>37.0</ele><time>2026-04-25T10:18:54.121Z</time></trkpt><trkpt lat="43.32163" lon="10.669855"><ele>37.0</ele><time>2026-04-25T10:18:55.122Z</time></trkpt><trkpt lat="43.3214367" lon="10.6698567"><ele>37.0</ele><time>2026-04-25T10:18:56.125Z</time></trkpt><trkpt lat="43.3212567" lon="10.6698617"><ele>37.0</ele><time>2026-04-25T10:18:57.121Z</time></trkpt><trkpt lat="43.3210783" lon="10.6698683"><ele>37.0</ele><time>2026-04-25T10:18:58.124Z</time></trkpt><trkpt lat="43.3209" lon="10.6698783"><ele>37.0</ele><time>2026-04-25T10:18:59.137Z</time></trkpt><trkpt lat="43.32072" lon="10.6698933"><ele>37.0</ele><time>2026-04-25T10:19:00.118Z</time></trkpt><trkpt lat="43.3205433" lon="10.669915"><ele>37.0</ele><time>2026-04-25T10:19:01.119Z</time></trkpt><trkpt lat="43.32037" lon="10.669945"><ele>37.0</ele><time>2026-04-25T10:19:02.125Z</time></trkpt><trkpt lat="43.320195" lon="10.66998"><ele>37.0</ele><time>2026-04-25T10:19:03.12Z</time></trkpt><trkpt lat="43.320015" lon="10.6700217"><ele>37.0</ele><time>2026-04-25T10:19:04.122Z</time></trkpt><trkpt lat="43.3198317" lon="10.6700667"><ele>37.0</ele><time>2026-04-25T10:19:05.122Z</time></trkpt><trkpt lat="43.3196433" lon="10.67012"><ele>37.0</ele><time>2026-04-25T10:19:06.122Z</time></trkpt><trkpt lat="43.3194483" lon="10.6701833"><ele>36.66666666666667</ele><time>2026-04-25T10:19:07.124Z</time></trkpt><trkpt lat="43.3192467" lon="10.6702517"><ele>36.333333333333336</ele><time>2026-04-25T10:19:08.134Z</time></trkpt><trkpt lat="43.31904" lon="10.6703317"><ele>36.0</ele><time>2026-04-25T10:19:09.136Z</time></trkpt><trkpt lat="43.3188333" lon="10.6704183"><ele>36.0</ele><time>2026-04-25T10:19:10.132Z</time></trkpt><trkpt lat="43.3186283" lon="10.6705133"><ele>36.0</ele><time>2026-04-25T10:19:11.126Z</time></trkpt><trkpt lat="43.318425" lon="10.67062"><ele>36.0</ele><time>2026-04-25T10:19:12.12Z</time></trkpt><trkpt lat="43.3182217" lon="10.6707417"><ele>36.5</ele><time>2026-04-25T10:19:13.133Z</time></trkpt><trkpt lat="43.3180067" lon="10.67088"><ele>37.0</ele><time>2026-04-25T10:19:14.126Z</time></trkpt><trkpt lat="43.31778" lon="10.6710417"><ele>37.5</ele><time>2026-04-25T10:19:15.117Z</time></trkpt><trkpt lat="43.3175383" lon="10.6712217"><ele>38.0</ele><time>2026-04-25T10:19:16.132Z</time></trkpt><trkpt lat="43.3172783" lon="10.671425"><ele>38.5</ele><time>2026-04-25T10:19:17.123Z</time></trkpt><trkpt lat="43.3170067" lon="10.6716483"><ele>39.0</ele><time>2026-04-25T10:19:18.121Z</time></trkpt><trkpt lat="43.31674" lon="10.67188"><ele>39.0</ele><time>2026-04-25T10:19:19.122Z</time></trkpt><trkpt lat="43.31649" lon="10.6721"><ele>39.0</ele><time>2026-04-25T10:19:20.12Z</time></trkpt><trkpt lat="43.3162533" lon="10.672305"><ele>39.0</ele><time>2026-04-25T10:19:21.124Z</time></trkpt><trkpt lat="43.316025" lon="10.6725"><ele>39.0</ele><time>2026-04-25T10:19:22.121Z</time></trkpt><trkpt lat="43.3158033" lon="10.6726867"><ele>40.0</ele><time>2026-04-25T10:19:23.122Z</time></trkpt><trkpt lat="43.3155917" lon="10.6728667"><ele>41.0</ele><time>2026-04-25T10:19:24.122Z</time></trkpt><trkpt lat="43.3153817" lon="10.6730417"><ele>41.0</ele><time>2026-04-25T10:19:25.114Z</time></trkpt><trkpt lat="43.315175" lon="10.6732217"><ele>41.0</ele><time>2026-04-25T10:19:26.115Z</time></trkpt><trkpt lat="43.3149633" lon="10.673415"><ele>39.5</ele><time>2026-04-25T10:19:27.123Z</time></trkpt><trkpt lat="43.31475" lon="10.67362"><ele>38.0</ele><time>2026-04-25T10:19:28.127Z</time></trkpt><trkpt lat="43.3145317" lon="10.67384"><ele>38.0</ele><time>2026-04-25T10:19:29.121Z</time></trkpt><trkpt lat="43.3143117" lon="10.674075"><ele>38.0</ele><time>2026-04-25T10:19:30.124Z</time></trkpt><trkpt lat="43.3140883" lon="10.6743233"><ele>39.5</ele><time>2026-04-25T10:19:31.134Z</time></trkpt><trkpt lat="43.3138667" lon="10.67458"><ele>41.0</ele><time>2026-04-25T10:19:32.125Z</time></trkpt><trkpt lat="43.3136517" lon="10.67483"><ele>41.0</ele><time>2026-04-25T10:19:33.118Z</time></trkpt><trkpt lat="43.3134483" lon="10.67507"><ele>41.0</ele><time>2026-04-25T10:19:34.123Z</time></trkpt><trkpt lat="43.3132533" lon="10.6753017"><ele>40.0</ele><time>2026-04-25T10:19:35.125Z</time></trkpt><trkpt lat="43.3130683" lon="10.6755233"><ele>39.0</ele><time>2026-04-25T10:19:36.135Z</time></trkpt><trkpt lat="43.31289" lon="10.6757333"><ele>39.0</ele><time>2026-04-25T10:19:37.12Z</time></trkpt><trkpt lat="43.3127117" lon="10.6759433"><ele>39.0</ele><time>2026-04-25T10:19:38.125Z</time></trkpt><trkpt lat="43.3125317" lon="10.6761583"><ele>39.0</ele><time>2026-04-25T10:19:39.129Z</time></trkpt><trkpt lat="43.3123467" lon="10.6763767"><ele>39.0</ele><time>2026-04-25T10:19:40.119Z</time></trkpt><trkpt lat="43.3121583" lon="10.6766017"><ele>39.0</ele><time>2026-04-25T10:19:41.125Z</time></trkpt><trkpt lat="43.3119633" lon="10.67683"><ele>39.0</ele><time>2026-04-25T10:19:42.133Z</time></trkpt><trkpt lat="43.3117633" lon="10.6770633"><ele>38.5</ele><time>2026-04-25T10:19:43.139Z</time></trkpt><trkpt lat="43.3115583" lon="10.6773017"><ele>38.0</ele><time>2026-04-25T10:19:44.126Z</time></trkpt><trkpt lat="43.3113533" lon="10.677545"><ele>38.5</ele><time>2026-04-25T10:19:45.126Z</time></trkpt><trkpt lat="43.3111433" lon="10.6777933"><ele>39.0</ele><time>2026-04-25T10:19:46.127Z</time></trkpt><trkpt lat="43.3109317" lon="10.678045"><ele>39.0</ele><time>2026-04-25T10:19:47.137Z</time></trkpt><trkpt lat="43.31072" lon="10.6782983"><ele>39.0</ele><time>2026-04-25T10:19:48.115Z</time></trkpt><trkpt lat="43.31051" lon="10.67855"><ele>39.0</ele><time>2026-04-25T10:19:49.127Z</time></trkpt><trkpt lat="43.3103" lon="10.6787983"><ele>39.0</ele><time>2026-04-25T10:19:50.115Z</time></trkpt><trkpt lat="43.3100917" lon="10.679045"><ele>39.0</ele><time>2026-04-25T10:19:51.134Z</time></trkpt><trkpt lat="43.30989" lon="10.679285"><ele>39.0</ele><time>2026-04-25T10:19:52.12Z</time></trkpt><trkpt lat="43.30969" lon="10.6795217"><ele>39.5</ele><time>2026-04-25T10:19:53.124Z</time></trkpt><trkpt lat="43.30949" lon="10.67976"><ele>40.0</ele><time>2026-04-25T10:19:54.119Z</time></trkpt><trkpt lat="43.3092883" lon="10.68"><ele>40.0</ele><time>2026-04-25T10:19:55.121Z</time></trkpt><trkpt lat="43.309085" lon="10.68024"><ele>40.0</ele><time>2026-04-25T10:19:56.122Z</time></trkpt><trkpt lat="43.308885" lon="10.6804767"><ele>41.5</ele><time>2026-04-25T10:19:57.124Z</time></trkpt><trkpt lat="43.3086967" lon="10.6806983"><ele>43.0</ele><time>2026-04-25T10:19:58.123Z</time></trkpt><trkpt lat="43.3085183" lon="10.6809067"><ele>43.0</ele><time>2026-04-25T10:19:59.128Z</time></trkpt><trkpt lat="43.308355" lon="10.6811033"><ele>43.0</ele><time>2026-04-25T10:20:00.126Z</time></trkpt><trkpt lat="43.3081983" lon="10.6813067"><ele>43.0</ele><time>2026-04-25T10:20:01.137Z</time></trkpt><trkpt lat="43.30804" lon="10.6815383"><ele>42.5</ele><time>2026-04-25T10:20:02.116Z</time></trkpt><trkpt lat="43.3078733" lon="10.6818183"><ele>42.0</ele><time>2026-04-25T10:20:03.115Z</time></trkpt><trkpt lat="43.3076983" lon="10.6821317"><ele>45.5</ele><time>2026-04-25T10:20:04.126Z</time></trkpt><trkpt lat="43.3075167" lon="10.6824667"><ele>49.0</ele><time>2026-04-25T10:20:05.118Z</time></trkpt><trkpt lat="43.3073267" lon="10.6828233"><ele>46.0</ele><time>2026-04-25T10:20:06.128Z</time></trkpt><trkpt lat="43.30712" lon="10.6831967"><ele>43.0</ele><time>2026-04-25T10:20:07.125Z</time></trkpt><trkpt lat="43.3069167" lon="10.68357"><ele>43.5</ele><time>2026-04-25T10:20:08.121Z</time></trkpt><trkpt lat="43.3067217" lon="10.6839233"><ele>44.0</ele><time>2026-04-25T10:20:09.124Z</time></trkpt><trkpt lat="43.30654" lon="10.6842533"><ele>43.5</ele><time>2026-04-25T10:20:10.119Z</time></trkpt><trkpt lat="43.3063733" lon="10.6845633"><ele>43.0</ele><time>2026-04-25T10:20:11.13Z</time></trkpt><trkpt lat="43.3062167" lon="10.68485"><ele>43.0</ele><time>2026-04-25T10:20:12.125Z</time></trkpt><trkpt lat="43.3060667" lon="10.6851233"><ele>43.0</ele><time>2026-04-25T10:20:13.124Z</time></trkpt><trkpt lat="43.3059167" lon="10.685385"><ele>44.0</ele><time>2026-04-25T10:20:14.122Z</time></trkpt><trkpt lat="43.3057667" lon="10.6856317"><ele>45.0</ele><time>2026-04-25T10:20:15.118Z</time></trkpt><trkpt lat="43.305605" lon="10.68587"><ele>45.5</ele><time>2026-04-25T10:20:16.114Z</time></trkpt><trkpt lat="43.30542" lon="10.6861067"><ele>46.0</ele><time>2026-04-25T10:20:17.128Z</time></trkpt><trkpt lat="43.3052167" lon="10.6863467"><ele>46.0</ele><time>2026-04-25T10:20:18.117Z</time></trkpt><trkpt lat="43.3049933" lon="10.68659"><ele>46.0</ele><time>2026-04-25T10:20:19.127Z</time></trkpt><trkpt lat="43.30476" lon="10.6868367"><ele>47.0</ele><time>2026-04-25T10:20:20.136Z</time></trkpt><trkpt lat="43.3045283" lon="10.6870833"><ele>48.0</ele><time>2026-04-25T10:20:21.119Z</time></trkpt><trkpt lat="43.3043017" lon="10.687325"><ele>48.0</ele><time>2026-04-25T10:20:22.125Z</time></trkpt><trkpt lat="43.3040817" lon="10.687555"><ele>48.0</ele><time>2026-04-25T10:20:23.129Z</time></trkpt><trkpt lat="43.30387" lon="10.68778"><ele>47.0</ele><time>2026-04-25T10:20:24.122Z</time></trkpt><trkpt lat="43.30366" lon="10.6879983"><ele>46.0</ele><time>2026-04-25T10:20:25.122Z</time></trkpt><trkpt lat="43.303455" lon="10.6882117"><ele>46.0</ele><time>2026-04-25T10:20:26.122Z</time></trkpt><trkpt lat="43.3032583" lon="10.68842"><ele>46.0</ele><time>2026-04-25T10:20:27.12Z</time></trkpt><trkpt lat="43.3030717" lon="10.6886183"><ele>46.0</ele><time>2026-04-25T10:20:28.123Z</time></trkpt><trkpt lat="43.3028933" lon="10.6888083"><ele>46.0</ele><time>2026-04-25T10:20:29.128Z</time></trkpt><trkpt lat="43.30272" lon="10.689"><ele>46.0</ele><time>2026-04-25T10:20:30.125Z</time></trkpt><trkpt lat="43.3025417" lon="10.6892117"><ele>45.0</ele><time>2026-04-25T10:20:31.132Z</time></trkpt><trkpt lat="43.302355" lon="10.6894583"><ele>44.0</ele><time>2026-04-25T10:20:32.121Z</time></trkpt><trkpt lat="43.3021633" lon="10.68974"><ele>44.0</ele><time>2026-04-25T10:20:33.132Z</time></trkpt><trkpt lat="43.30197" lon="10.69004"><ele>44.0</ele><time>2026-04-25T10:20:34.122Z</time></trkpt><trkpt lat="43.301785" lon="10.69034"><ele>46.0</ele><time>2026-04-25T10:20:35.134Z</time></trkpt><trkpt lat="43.30161" lon="10.69063"><ele>48.0</ele><time>2026-04-25T10:20:36.134Z</time></trkpt><trkpt lat="43.301445" lon="10.690905"><ele>48.5</ele><time>2026-04-25T10:20:37.13Z</time></trkpt><trkpt lat="43.3012883" lon="10.6911667"><ele>49.0</ele><time>2026-04-25T10:20:38.127Z</time></trkpt><trkpt lat="43.3011367" lon="10.691415"><ele>49.0</ele><time>2026-04-25T10:20:39.128Z</time></trkpt><trkpt lat="43.30098" lon="10.691655"><ele>49.0</ele><time>2026-04-25T10:20:40.126Z</time></trkpt><trkpt lat="43.30081" lon="10.6919017"><ele>48.0</ele><time>2026-04-25T10:20:41.132Z</time></trkpt><trkpt lat="43.300625" lon="10.6921417"><ele>47.0</ele><time>2026-04-25T10:20:42.134Z</time></trkpt><trkpt lat="43.30042" lon="10.6923733"><ele>47.0</ele><time>2026-04-25T10:20:43.134Z</time></trkpt><trkpt lat="43.3001967" lon="10.6925967"><ele>47.0</ele><time>2026-04-25T10:20:44.127Z</time></trkpt><trkpt lat="43.2999583" lon="10.6928183"><ele>46.5</ele><time>2026-04-25T10:20:45.123Z</time></trkpt><trkpt lat="43.2997067" lon="10.6930417"><ele>46.0</ele><time>2026-04-25T10:20:46.121Z</time></trkpt><trkpt lat="43.2994517" lon="10.6932683"><ele>46.0</ele><time>2026-04-25T10:20:47.117Z</time></trkpt><trkpt lat="43.2992017" lon="10.6934917"><ele>46.0</ele><time>2026-04-25T10:20:48.117Z</time></trkpt><trkpt lat="43.298965" lon="10.693705"><ele>46.0</ele><time>2026-04-25T10:20:49.134Z</time></trkpt><trkpt lat="43.29874" lon="10.6939083"><ele>46.0</ele><time>2026-04-25T10:20:50.123Z</time></trkpt><trkpt lat="43.2985217" lon="10.6941033"><ele>46.0</ele><time>2026-04-25T10:20:51.127Z</time></trkpt><trkpt lat="43.2983017" lon="10.6943"><ele>46.0</ele><time>2026-04-25T10:20:52.127Z</time></trkpt><trkpt lat="43.2980817" lon="10.6944967"><ele>48.0</ele><time>2026-04-25T10:20:53.133Z</time></trkpt><trkpt lat="43.2978617" lon="10.694695"><ele>50.0</ele><time>2026-04-25T10:20:54.124Z</time></trkpt><trkpt lat="43.29764" lon="10.6948933"><ele>50.0</ele><time>2026-04-25T10:20:55.135Z</time></trkpt><trkpt lat="43.2974183" lon="10.6950967"><ele>50.0</ele><time>2026-04-25T10:20:56.122Z</time></trkpt><trkpt lat="43.297195" lon="10.6953"><ele>50.0</ele><time>2026-04-25T10:20:57.12Z</time></trkpt><trkpt lat="43.2969733" lon="10.6955017"><ele>50.0</ele><time>2026-04-25T10:20:58.127Z</time></trkpt><trkpt lat="43.296755" lon="10.6957"><ele>50.0</ele><time>2026-04-25T10:20:59.122Z</time></trkpt><trkpt lat="43.2965433" lon="10.6958933"><ele>50.0</ele><time>2026-04-25T10:21:00.139Z</time></trkpt><trkpt lat="43.2963367" lon="10.6960817"><ele>51.0</ele><time>2026-04-25T10:21:01.125Z</time></trkpt><trkpt lat="43.2961333" lon="10.6962633"><ele>52.0</ele><time>2026-04-25T10:21:02.13Z</time></trkpt><trkpt lat="43.2959317" lon="10.6964433"><ele>52.0</ele><time>2026-04-25T10:21:03.116Z</time></trkpt><trkpt lat="43.295735" lon="10.696625"><ele>52.0</ele><time>2026-04-25T10:21:04.117Z</time></trkpt><trkpt lat="43.295535" lon="10.6968067"><ele>51.5</ele><time>2026-04-25T10:21:05.126Z</time></trkpt><trkpt lat="43.295335" lon="10.6969867"><ele>51.0</ele><time>2026-04-25T10:21:06.113Z</time></trkpt><trkpt lat="43.2951417" lon="10.6971617"><ele>51.0</ele><time>2026-04-25T10:21:07.124Z</time></trkpt><trkpt lat="43.29496" lon="10.6973267"><ele>51.0</ele><time>2026-04-25T10:21:08.119Z</time></trkpt><trkpt lat="43.29479" lon="10.697485"><ele>51.0</ele><time>2026-04-25T10:21:09.133Z</time></trkpt><trkpt lat="43.2946267" lon="10.6976333"><ele>51.0</ele><time>2026-04-25T10:21:10.131Z</time></trkpt><trkpt lat="43.2944717" lon="10.6977783"><ele>51.0</ele><time>2026-04-25T10:21:11.128Z</time></trkpt><trkpt lat="43.2943183" lon="10.6979133"><ele>51.0</ele><time>2026-04-25T10:21:12.133Z</time></trkpt><trkpt lat="43.2941767" lon="10.6980417"><ele>51.0</ele><time>2026-04-25T10:21:13.129Z</time></trkpt><trkpt lat="43.294045" lon="10.6981617"><ele>51.0</ele><time>2026-04-25T10:21:14.138Z</time></trkpt><trkpt lat="43.293925" lon="10.6982617"><ele>51.0</ele><time>2026-04-25T10:21:15.138Z</time></trkpt><trkpt lat="43.2938183" lon="10.6983417"><ele>51.0</ele><time>2026-04-25T10:21:16.136Z</time></trkpt><trkpt lat="43.2937267" lon="10.6984033"><ele>51.0</ele><time>2026-04-25T10:21:17.129Z</time></trkpt><trkpt lat="43.293645" lon="10.6984533"><ele>51.0</ele><time>2026-04-25T10:21:18.129Z</time></trkpt><trkpt lat="43.2935733" lon="10.6985017"><ele>51.0</ele><time>2026-04-25T10:21:19.135Z</time></trkpt><trkpt lat="43.2935183" lon="10.698555"><ele>51.0</ele><time>2026-04-25T10:21:20.129Z</time></trkpt><trkpt lat="43.29347" lon="10.6986917"><ele>51.0</ele><time>2026-04-25T10:21:22.117Z</time></trkpt><trkpt lat="43.2934667" lon="10.698805"><ele>51.0</ele><time>2026-04-25T10:21:23.118Z</time></trkpt><trkpt lat="43.2934733" lon="10.6989633"><ele>52.5</ele><time>2026-04-25T10:21:24.123Z</time></trkpt><trkpt lat="43.2934833" lon="10.699145"><ele>54.0</ele><time>2026-04-25T10:21:25.125Z</time></trkpt><trkpt lat="43.2934983" lon="10.699325"><ele>55.5</ele><time>2026-04-25T10:21:26.127Z</time></trkpt><trkpt lat="43.2935267" lon="10.6995133"><ele>57.0</ele><time>2026-04-25T10:21:27.13Z</time></trkpt><trkpt lat="43.2935567" lon="10.6997133"><ele>58.66666666666667</ele><time>2026-04-25T10:21:28.113Z</time></trkpt><trkpt lat="43.2935883" lon="10.6999267"><ele>60.333333333333336</ele><time>2026-04-25T10:21:29.124Z</time></trkpt><trkpt lat="43.2936217" lon="10.70015"><ele>62.0</ele><time>2026-04-25T10:21:30.116Z</time></trkpt><trkpt lat="43.2936583" lon="10.7003883"><ele>63.0</ele><time>2026-04-25T10:21:31.118Z</time></trkpt><trkpt lat="43.2936967" lon="10.7006233"><ele>64.0</ele><time>2026-04-25T10:21:32.127Z</time></trkpt><trkpt lat="43.29373" lon="10.7008417"><ele>65.0</ele><time>2026-04-25T10:21:33.121Z</time></trkpt><trkpt lat="43.2937583" lon="10.70104"><ele>64.5</ele><time>2026-04-25T10:21:34.123Z</time></trkpt><trkpt lat="43.293785" lon="10.7012183"><ele>64.0</ele><time>2026-04-25T10:21:35.123Z</time></trkpt><trkpt lat="43.2938083" lon="10.70138"><ele>63.5</ele><time>2026-04-25T10:21:36.127Z</time></trkpt><trkpt lat="43.2938233" lon="10.701535"><ele>63.0</ele><time>2026-04-25T10:21:37.131Z</time></trkpt><trkpt lat="43.2938283" lon="10.70169"><ele>63.0</ele><time>2026-04-25T10:21:38.116Z</time></trkpt><trkpt lat="43.2938167" lon="10.701855"><ele>63.0</ele><time>2026-04-25T10:21:39.13Z</time></trkpt><trkpt lat="43.2937867" lon="10.7020267"><ele>63.0</ele><time>2026-04-25T10:21:40.126Z</time></trkpt><trkpt lat="43.2937433" lon="10.7022067"><ele>63.0</ele><time>2026-04-25T10:21:41.121Z</time></trkpt><trkpt lat="43.293695" lon="10.7023883"><ele>62.75</ele><time>2026-04-25T10:21:42.123Z</time></trkpt><trkpt lat="43.2936517" lon="10.7025567"><ele>62.5</ele><time>2026-04-25T10:21:43.124Z</time></trkpt><trkpt lat="43.2936133" lon="10.7027167"><ele>62.25</ele><time>2026-04-25T10:21:44.134Z</time></trkpt><trkpt lat="43.2935783" lon="10.70286"><ele>62.0</ele><time>2026-04-25T10:21:45.13Z</time></trkpt><trkpt lat="43.29355" lon="10.7030017"><ele>62.0</ele><time>2026-04-25T10:21:46.132Z</time></trkpt><trkpt lat="43.29352" lon="10.7031383"><ele>62.0</ele><time>2026-04-25T10:21:47.128Z</time></trkpt><trkpt lat="43.2934967" lon="10.7032683"><ele>62.0</ele><time>2026-04-25T10:21:48.123Z</time></trkpt><trkpt lat="43.2934683" lon="10.7033967"><ele>62.0</ele><time>2026-04-25T10:21:49.126Z</time></trkpt><trkpt lat="43.29344" lon="10.70353"><ele>62.0</ele><time>2026-04-25T10:21:50.126Z</time></trkpt><trkpt lat="43.2934067" lon="10.7036683"><ele>62.400000000000006</ele><time>2026-04-25T10:21:51.127Z</time></trkpt><trkpt lat="43.2933717" lon="10.70381"><ele>62.800000000000004</ele><time>2026-04-25T10:21:52.127Z</time></trkpt><trkpt lat="43.29334" lon="10.70394"><ele>63.2</ele><time>2026-04-25T10:21:53.121Z</time></trkpt><trkpt lat="43.29331" lon="10.704065"><ele>63.6</ele><time>2026-04-25T10:21:54.128Z</time></trkpt><trkpt lat="43.29328" lon="10.7041833"><ele>64.0</ele><time>2026-04-25T10:21:55.149Z</time></trkpt><trkpt lat="43.2932483" lon="10.7043"><ele>63.83333333333333</ele><time>2026-04-25T10:21:56.129Z</time></trkpt><trkpt lat="43.2932183" lon="10.704415"><ele>63.666666666666664</ele><time>2026-04-25T10:21:57.114Z</time></trkpt><trkpt lat="43.2931917" lon="10.704525"><ele>63.5</ele><time>2026-04-25T10:21:58.123Z</time></trkpt><trkpt lat="43.2931633" lon="10.7046267"><ele>63.33333333333333</ele><time>2026-04-25T10:21:59.128Z</time></trkpt><trkpt lat="43.2931383" lon="10.7047217"><ele>63.166666666666664</ele><time>2026-04-25T10:22:00.136Z</time></trkpt><trkpt lat="43.2931167" lon="10.7048067"><ele>63.0</ele><time>2026-04-25T10:22:01.128Z</time></trkpt><trkpt lat="43.293075" lon="10.70495"><ele>64.0</ele><time>2026-04-25T10:22:03.127Z</time></trkpt><trkpt lat="43.2930283" lon="10.7050633"><ele>65.0</ele><time>2026-04-25T10:22:05.131Z</time></trkpt><trkpt lat="43.2929833" lon="10.7051617"><ele>66.0</ele><time>2026-04-25T10:22:07.14Z</time></trkpt><trkpt lat="43.2929283" lon="10.7052783"><ele>67.0</ele><time>2026-04-25T10:22:09.123Z</time></trkpt><trkpt lat="43.2928817" lon="10.705355"><ele>68.0</ele><time>2026-04-25T10:22:10.13Z</time></trkpt><trkpt lat="43.2928183" lon="10.70546"><ele>68.0</ele><time>2026-04-25T10:22:11.115Z</time></trkpt><trkpt lat="43.2927383" lon="10.7055967"><ele>68.0</ele><time>2026-04-25T10:22:12.117Z</time></trkpt><trkpt lat="43.2926533" lon="10.7057517"><ele>68.0</ele><time>2026-04-25T10:22:13.115Z</time></trkpt><trkpt lat="43.2925617" lon="10.7059133"><ele>68.0</ele><time>2026-04-25T10:22:14.115Z</time></trkpt><trkpt lat="43.2924733" lon="10.7060633"><ele>67.5</ele><time>2026-04-25T10:22:15.123Z</time></trkpt><trkpt lat="43.29239" lon="10.7062033"><ele>67.0</ele><time>2026-04-25T10:22:16.121Z</time></trkpt><trkpt lat="43.2923133" lon="10.706335"><ele>66.5</ele><time>2026-04-25T10:22:17.118Z</time></trkpt><trkpt lat="43.2922517" lon="10.7064583"><ele>66.0</ele><time>2026-04-25T10:22:18.119Z</time></trkpt><trkpt lat="43.29221" lon="10.7065867"><ele>66.2</ele><time>2026-04-25T10:22:19.128Z</time></trkpt><trkpt lat="43.2921967" lon="10.7067233"><ele>66.39999999999999</ele><time>2026-04-25T10:22:20.124Z</time></trkpt><trkpt lat="43.2922183" lon="10.7068517"><ele>66.6</ele><time>2026-04-25T10:22:21.124Z</time></trkpt><trkpt lat="43.29228" lon="10.7069667"><ele>66.8</ele><time>2026-04-25T10:22:22.121Z</time></trkpt><trkpt lat="43.2923833" lon="10.707065"><ele>67.0</ele><time>2026-04-25T10:22:23.124Z</time></trkpt><trkpt lat="43.292515" lon="10.7071517"><ele>67.0</ele><time>2026-04-25T10:22:24.127Z</time></trkpt><trkpt lat="43.2926633" lon="10.70723"><ele>67.0</ele><time>2026-04-25T10:22:25.122Z</time></trkpt><trkpt lat="43.29282" lon="10.7073083"><ele>67.0</ele><time>2026-04-25T10:22:26.115Z</time></trkpt><trkpt lat="43.2929767" lon="10.7073917"><ele>66.33333333333333</ele><time>2026-04-25T10:22:27.118Z</time></trkpt><trkpt lat="43.2931267" lon="10.7074783"><ele>65.66666666666667</ele><time>2026-04-25T10:22:28.113Z</time></trkpt><trkpt lat="43.2932733" lon="10.70756"><ele>65.0</ele><time>2026-04-25T10:22:29.12Z</time></trkpt><trkpt lat="43.293405" lon="10.707635"><ele>65.0</ele><time>2026-04-25T10:22:30.128Z</time></trkpt><trkpt lat="43.293515" lon="10.7077067"><ele>65.0</ele><time>2026-04-25T10:22:31.127Z</time></trkpt><trkpt lat="43.2936083" lon="10.7077883"><ele>65.0</ele><time>2026-04-25T10:22:32.132Z</time></trkpt><trkpt lat="43.2936817" lon="10.7078867"><ele>65.0</ele><time>2026-04-25T10:22:33.132Z</time></trkpt><trkpt lat="43.29374" lon="10.708025"><ele>67.33333333333334</ele><time>2026-04-25T10:22:34.118Z</time></trkpt><trkpt lat="43.2937917" lon="10.7082067"><ele>69.66666666666667</ele><time>2026-04-25T10:22:35.121Z</time></trkpt><trkpt lat="43.293835" lon="10.7084167"><ele>72.0</ele><time>2026-04-25T10:22:36.114Z</time></trkpt><trkpt lat="43.2938733" lon="10.7086333"><ele>74.5</ele><time>2026-04-25T10:22:37.131Z</time></trkpt><trkpt lat="43.2939" lon="10.70884"><ele>77.0</ele><time>2026-04-25T10:22:38.144Z</time></trkpt><trkpt lat="43.2939233" lon="10.7090367"><ele>79.5</ele><time>2026-04-25T10:22:39.132Z</time></trkpt><trkpt lat="43.2939433" lon="10.7092283"><ele>82.0</ele><time>2026-04-25T10:22:40.138Z</time></trkpt><trkpt lat="43.2939533" lon="10.7094033"><ele>84.8</ele><time>2026-04-25T10:22:41.135Z</time></trkpt><trkpt lat="43.2939533" lon="10.70957"><ele>87.6</ele><time>2026-04-25T10:22:42.124Z</time></trkpt><trkpt lat="43.2939483" lon="10.709725"><ele>90.39999999999999</ele><time>2026-04-25T10:22:43.123Z</time></trkpt><trkpt lat="43.29396" lon="10.7098583"><ele>93.19999999999999</ele><time>2026-04-25T10:22:44.122Z</time></trkpt><trkpt lat="43.2939967" lon="10.70998"><ele>96.0</ele><time>2026-04-25T10:22:45.124Z</time></trkpt><trkpt lat="43.29405" lon="10.71009"><ele>96.0</ele><time>2026-04-25T10:22:46.131Z</time></trkpt><trkpt lat="43.2941233" lon="10.710195"><ele>96.0</ele><time>2026-04-25T10:22:47.131Z</time></trkpt><trkpt lat="43.2942117" lon="10.71031"><ele>96.0</ele><time>2026-04-25T10:22:48.121Z</time></trkpt><trkpt lat="43.29431" lon="10.7104367"><ele>96.0</ele><time>2026-04-25T10:22:49.126Z</time></trkpt><trkpt lat="43.2944133" lon="10.710565"><ele>97.25</ele><time>2026-04-25T10:22:50.118Z</time></trkpt><trkpt lat="43.2945167" lon="10.71069"><ele>98.5</ele><time>2026-04-25T10:22:51.135Z</time></trkpt><trkpt lat="43.294615" lon="10.7108"><ele>99.75</ele><time>2026-04-25T10:22:52.126Z</time></trkpt><trkpt lat="43.2947133" lon="10.7108933"><ele>101.0</ele><time>2026-04-25T10:22:53.125Z</time></trkpt><trkpt lat="43.2948067" lon="10.7109817"><ele>101.0</ele><time>2026-04-25T10:22:54.121Z</time></trkpt><trkpt lat="43.29489" lon="10.71107"><ele>101.0</ele><time>2026-04-25T10:22:55.122Z</time></trkpt><trkpt lat="43.2949567" lon="10.71116"><ele>101.0</ele><time>2026-04-25T10:22:56.114Z</time></trkpt><trkpt lat="43.2950083" lon="10.7112533"><ele>101.0</ele><time>2026-04-25T10:22:57.119Z</time></trkpt><trkpt lat="43.2950433" lon="10.7113583"><ele>101.0</ele><time>2026-04-25T10:22:58.124Z</time></trkpt><trkpt lat="43.2950533" lon="10.711485"><ele>102.6</ele><time>2026-04-25T10:22:59.125Z</time></trkpt><trkpt lat="43.29504" lon="10.7116333"><ele>104.19999999999999</ele><time>2026-04-25T10:23:00.134Z</time></trkpt><trkpt lat="43.2950417" lon="10.7117717"><ele>105.80000000000001</ele><time>2026-04-25T10:23:01.127Z</time></trkpt><trkpt lat="43.29508" lon="10.7118883"><ele>107.4</ele><time>2026-04-25T10:23:02.122Z</time></trkpt><trkpt lat="43.295155" lon="10.7119933"><ele>109.0</ele><time>2026-04-25T10:23:03.133Z</time></trkpt><trkpt lat="43.2952533" lon="10.7120817"><ele>109.25</ele><time>2026-04-25T10:23:04.126Z</time></trkpt><trkpt lat="43.29537" lon="10.7121483"><ele>109.5</ele><time>2026-04-25T10:23:05.121Z</time></trkpt><trkpt lat="43.2955067" lon="10.7121867"><ele>109.75</ele><time>2026-04-25T10:23:06.129Z</time></trkpt><trkpt lat="43.2956483" lon="10.7121933"><ele>110.0</ele><time>2026-04-25T10:23:07.132Z</time></trkpt><trkpt lat="43.2958" lon="10.7121717"><ele>114.25</ele><time>2026-04-25T10:23:08.124Z</time></trkpt><trkpt lat="43.295945" lon="10.7121383"><ele>118.5</ele><time>2026-04-25T10:23:09.139Z</time></trkpt><trkpt lat="43.296075" lon="10.712105"><ele>122.75</ele><time>2026-04-25T10:23:10.125Z</time></trkpt><trkpt lat="43.29619" lon="10.712075"><ele>127.0</ele><time>2026-04-25T10:23:11.123Z</time></trkpt><trkpt lat="43.296285" lon="10.7120583"><ele>127.00000000000001</ele><time>2026-04-25T10:23:12.122Z</time></trkpt><trkpt lat="43.296365" lon="10.71206"><ele>127.0</ele><time>2026-04-25T10:23:13.119Z</time></trkpt><trkpt lat="43.296435" lon="10.7120917"><ele>127.0</ele><time>2026-04-25T10:23:14.126Z</time></trkpt><trkpt lat="43.29648" lon="10.7121567"><ele>127.0</ele><time>2026-04-25T10:23:15.126Z</time></trkpt><trkpt lat="43.2965067" lon="10.7122417"><ele>127.00000000000001</ele><time>2026-04-25T10:23:16.124Z</time></trkpt><trkpt lat="43.29651" lon="10.7123467"><ele>127.0</ele><time>2026-04-25T10:23:17.139Z</time></trkpt><trkpt lat="43.296515" lon="10.712475"><ele>130.5</ele><time>2026-04-25T10:23:18.155Z</time></trkpt><trkpt lat="43.2965033" lon="10.71265"><ele>134.0</ele><time>2026-04-25T10:23:19.131Z</time></trkpt><trkpt lat="43.2964933" lon="10.7128283"><ele>137.5</ele><time>2026-04-25T10:23:20.137Z</time></trkpt><trkpt lat="43.2964983" lon="10.7130133"><ele>141.0</ele><time>2026-04-25T10:23:21.123Z</time></trkpt><trkpt lat="43.2965183" lon="10.7132217"><ele>143.33333333333334</ele><time>2026-04-25T10:23:22.132Z</time></trkpt><trkpt lat="43.2965467" lon="10.713465"><ele>145.66666666666669</ele><time>2026-04-25T10:23:23.134Z</time></trkpt><trkpt lat="43.29658" lon="10.7137017"><ele>148.0</ele><time>2026-04-25T10:23:24.127Z</time></trkpt><trkpt lat="43.2966233" lon="10.7139217"><ele>149.25</ele><time>2026-04-25T10:23:25.124Z</time></trkpt><trkpt lat="43.2966683" lon="10.7141283"><ele>150.5</ele><time>2026-04-25T10:23:26.131Z</time></trkpt><trkpt lat="43.296715" lon="10.7143167"><ele>151.75</ele><time>2026-04-25T10:23:27.131Z</time></trkpt><trkpt lat="43.2967567" lon="10.7144883"><ele>153.0</ele><time>2026-04-25T10:23:28.13Z</time></trkpt><trkpt lat="43.29681" lon="10.7146483"><ele>153.75</ele><time>2026-04-25T10:23:29.116Z</time></trkpt><trkpt lat="43.2968733" lon="10.7148067"><ele>154.5</ele><time>2026-04-25T10:23:30.13Z</time></trkpt><trkpt lat="43.296935" lon="10.7149667"><ele>155.25</ele><time>2026-04-25T10:23:31.128Z</time></trkpt><trkpt lat="43.2969783" lon="10.715125"><ele>156.0</ele><time>2026-04-25T10:23:32.128Z</time></trkpt><trkpt lat="43.296995" lon="10.715285"><ele>157.25</ele><time>2026-04-25T10:23:33.134Z</time></trkpt><trkpt lat="43.2969917" lon="10.7154433"><ele>158.5</ele><time>2026-04-25T10:23:34.134Z</time></trkpt><trkpt lat="43.2969733" lon="10.7155967"><ele>159.75</ele><time>2026-04-25T10:23:35.135Z</time></trkpt><trkpt lat="43.2969517" lon="10.71576"><ele>161.0</ele><time>2026-04-25T10:23:36.13Z</time></trkpt><trkpt lat="43.29693" lon="10.7159367"><ele>161.5</ele><time>2026-04-25T10:23:37.127Z</time></trkpt><trkpt lat="43.2969067" lon="10.7161067"><ele>162.0</ele><time>2026-04-25T10:23:38.124Z</time></trkpt><trkpt lat="43.296885" lon="10.7162817"><ele>162.5</ele><time>2026-04-25T10:23:39.138Z</time></trkpt><trkpt lat="43.296865" lon="10.7164583"><ele>163.0</ele><time>2026-04-25T10:23:40.128Z</time></trkpt><trkpt lat="43.2968467" lon="10.71664"><ele>163.0</ele><time>2026-04-25T10:23:41.129Z</time></trkpt><trkpt lat="43.2968383" lon="10.7168317"><ele>163.0</ele><time>2026-04-25T10:23:42.132Z</time></trkpt><trkpt lat="43.2968333" lon="10.7170267"><ele>163.0</ele><time>2026-04-25T10:23:43.142Z</time></trkpt><trkpt lat="43.2968233" lon="10.7172133"><ele>163.0</ele><time>2026-04-25T10:23:44.132Z</time></trkpt><trkpt lat="43.29681" lon="10.7173783"><ele>164.0</ele><time>2026-04-25T10:23:45.129Z</time></trkpt><trkpt lat="43.2968067" lon="10.7175217"><ele>165.0</ele><time>2026-04-25T10:23:46.127Z</time></trkpt><trkpt lat="43.29683" lon="10.7176633"><ele>166.0</ele><time>2026-04-25T10:23:47.13Z</time></trkpt><trkpt lat="43.2968717" lon="10.7178133"><ele>167.0</ele><time>2026-04-25T10:23:48.134Z</time></trkpt><trkpt lat="43.2969267" lon="10.71796"><ele>168.0</ele><time>2026-04-25T10:23:49.131Z</time></trkpt><trkpt lat="43.2969967" lon="10.7181017"><ele>168.5</ele><time>2026-04-25T10:23:50.134Z</time></trkpt><trkpt lat="43.2970867" lon="10.718245"><ele>169.0</ele><time>2026-04-25T10:23:51.124Z</time></trkpt><trkpt lat="43.2971917" lon="10.7183883"><ele>169.5</ele><time>2026-04-25T10:23:52.139Z</time></trkpt><trkpt lat="43.2972983" lon="10.718535"><ele>170.0</ele><time>2026-04-25T10:23:53.13Z</time></trkpt><trkpt lat="43.2974083" lon="10.7186917"><ele>170.0</ele><time>2026-04-25T10:23:54.139Z</time></trkpt><trkpt lat="43.2975117" lon="10.71885"><ele>170.0</ele><time>2026-04-25T10:23:55.118Z</time></trkpt><trkpt lat="43.2976017" lon="10.718995"><ele>170.0</ele><time>2026-04-25T10:23:56.118Z</time></trkpt><trkpt lat="43.2976817" lon="10.71912"><ele>170.0</ele><time>2026-04-25T10:23:57.117Z</time></trkpt><trkpt lat="43.2977517" lon="10.7192267"><ele>170.0</ele><time>2026-04-25T10:23:58.122Z</time></trkpt><trkpt lat="43.2978133" lon="10.71932"><ele>170.0</ele><time>2026-04-25T10:23:59.123Z</time></trkpt><trkpt lat="43.2978667" lon="10.7194083"><ele>170.0</ele><time>2026-04-25T10:24:00.121Z</time></trkpt><trkpt lat="43.297905" lon="10.7194933"><ele>170.0</ele><time>2026-04-25T10:24:01.125Z</time></trkpt><trkpt lat="43.2979233" lon="10.71958"><ele>170.0</ele><time>2026-04-25T10:24:02.122Z</time></trkpt><trkpt lat="43.2979183" lon="10.7196667"><ele>170.0</ele><time>2026-04-25T10:24:03.136Z</time></trkpt><trkpt lat="43.29789" lon="10.7197533"><ele>170.0</ele><time>2026-04-25T10:24:04.13Z</time></trkpt><trkpt lat="43.29783" lon="10.7198467"><ele>170.25</ele><time>2026-04-25T10:24:05.128Z</time></trkpt><trkpt lat="43.297735" lon="10.7199567"><ele>170.5</ele><time>2026-04-25T10:24:06.123Z</time></trkpt><trkpt lat="43.297625" lon="10.7200833"><ele>170.75</ele><time>2026-04-25T10:24:07.138Z</time></trkpt><trkpt lat="43.2975117" lon="10.72022"><ele>171.0</ele><time>2026-04-25T10:24:08.127Z</time></trkpt><trkpt lat="43.2973983" lon="10.7203667"><ele>171.0</ele><time>2026-04-25T10:24:09.133Z</time></trkpt><trkpt lat="43.2972783" lon="10.720515"><ele>171.0</ele><time>2026-04-25T10:24:10.12Z</time></trkpt><trkpt lat="43.2971633" lon="10.72066"><ele>171.0</ele><time>2026-04-25T10:24:11.13Z</time></trkpt><trkpt lat="43.2970583" lon="10.7207917"><ele>171.8</ele><time>2026-04-25T10:24:12.133Z</time></trkpt><trkpt lat="43.296965" lon="10.7209117"><ele>172.60000000000002</ele><time>2026-04-25T10:24:13.133Z</time></trkpt><trkpt lat="43.2968817" lon="10.7210167"><ele>173.4</ele><time>2026-04-25T10:24:14.127Z</time></trkpt><trkpt lat="43.296805" lon="10.7211117"><ele>174.2</ele><time>2026-04-25T10:24:15.121Z</time></trkpt><trkpt lat="43.2967333" lon="10.7211917"><ele>175.0</ele><time>2026-04-25T10:24:16.126Z</time></trkpt><trkpt lat="43.2966683" lon="10.7212667"><ele>175.0</ele><time>2026-04-25T10:24:17.128Z</time></trkpt><trkpt lat="43.2966167" lon="10.7213467"><ele>175.0</ele><time>2026-04-25T10:24:18.128Z</time></trkpt><trkpt lat="43.296585" lon="10.721435"><ele>175.0</ele><time>2026-04-25T10:24:19.123Z</time></trkpt><trkpt lat="43.2965817" lon="10.7215317"><ele>175.0</ele><time>2026-04-25T10:24:20.131Z</time></trkpt><trkpt lat="43.2966" lon="10.721645"><ele>175.0</ele><time>2026-04-25T10:24:21.134Z</time></trkpt><trkpt lat="43.2966333" lon="10.72178"><ele>175.0</ele><time>2026-04-25T10:24:22.137Z</time></trkpt><trkpt lat="43.2966633" lon="10.721925"><ele>176.2</ele><time>2026-04-25T10:24:23.136Z</time></trkpt><trkpt lat="43.29669" lon="10.722065"><ele>177.4</ele><time>2026-04-25T10:24:24.129Z</time></trkpt><trkpt lat="43.2967183" lon="10.7221983"><ele>178.60000000000002</ele><time>2026-04-25T10:24:25.138Z</time></trkpt><trkpt lat="43.29675" lon="10.7223183"><ele>179.8</ele><time>2026-04-25T10:24:26.133Z</time></trkpt><trkpt lat="43.2967933" lon="10.7224267"><ele>181.0</ele><time>2026-04-25T10:24:27.135Z</time></trkpt><trkpt lat="43.2968483" lon="10.72252"><ele>181.0</ele><time>2026-04-25T10:24:28.139Z</time></trkpt><trkpt lat="43.2969167" lon="10.7226117"><ele>181.0</ele><time>2026-04-25T10:24:29.13Z</time></trkpt><trkpt lat="43.297" lon="10.7227117"><ele>181.0</ele><time>2026-04-25T10:24:30.136Z</time></trkpt><trkpt lat="43.2970783" lon="10.7228183"><ele>181.0</ele><time>2026-04-25T10:24:31.143Z</time></trkpt><trkpt lat="43.2971483" lon="10.7229333"><ele>181.0</ele><time>2026-04-25T10:24:32.138Z</time></trkpt><trkpt lat="43.2971967" lon="10.7230633"><ele>182.20000000000002</ele><time>2026-04-25T10:24:33.123Z</time></trkpt><trkpt lat="43.2972233" lon="10.7232117"><ele>183.4</ele><time>2026-04-25T10:24:34.124Z</time></trkpt><trkpt lat="43.297235" lon="10.72336"><ele>184.6</ele><time>2026-04-25T10:24:35.125Z</time></trkpt><trkpt lat="43.2972517" lon="10.723495"><ele>185.8</ele><time>2026-04-25T10:24:36.134Z</time></trkpt><trkpt lat="43.2972833" lon="10.7236217"><ele>187.0</ele><time>2026-04-25T10:24:37.136Z</time></trkpt><trkpt lat="43.2973233" lon="10.7237467"><ele>187.0</ele><time>2026-04-25T10:24:38.122Z</time></trkpt><trkpt lat="43.297385" lon="10.7238867"><ele>187.0</ele><time>2026-04-25T10:24:39.132Z</time></trkpt><trkpt lat="43.2974517" lon="10.7240367"><ele>187.0</ele><time>2026-04-25T10:24:40.123Z</time></trkpt><trkpt lat="43.29752" lon="10.7241833"><ele>187.0</ele><time>2026-04-25T10:24:41.128Z</time></trkpt><trkpt lat="43.2975867" lon="10.7243067"><ele>186.6</ele><time>2026-04-25T10:24:42.124Z</time></trkpt><trkpt lat="43.2976367" lon="10.7244117"><ele>186.2</ele><time>2026-04-25T10:24:43.125Z</time></trkpt><trkpt lat="43.2976683" lon="10.7245067"><ele>185.8</ele><time>2026-04-25T10:24:44.121Z</time></trkpt><trkpt lat="43.2976867" lon="10.7246317"><ele>185.4</ele><time>2026-04-25T10:24:46.131Z</time></trkpt><trkpt lat="43.2976333" lon="10.72469"><ele>185.0</ele><time>2026-04-25T10:24:48.121Z</time></trkpt><trkpt lat="43.2974967" lon="10.724725"><ele>185.0</ele><time>2026-04-25T10:24:50.125Z</time></trkpt><trkpt lat="43.2974" lon="10.7247533"><ele>185.0</ele><time>2026-04-25T10:24:51.138Z</time></trkpt><trkpt lat="43.297285" lon="10.7247967"><ele>185.0</ele><time>2026-04-25T10:24:52.121Z</time></trkpt><trkpt lat="43.2971533" lon="10.72485"><ele>185.0</ele><time>2026-04-25T10:24:53.123Z</time></trkpt><trkpt lat="43.2970183" lon="10.724905"><ele>185.0</ele><time>2026-04-25T10:24:54.126Z</time></trkpt><trkpt lat="43.2968967" lon="10.7249567"><ele>185.0</ele><time>2026-04-25T10:24:55.127Z</time></trkpt><trkpt lat="43.2967883" lon="10.7250117"><ele>185.0</ele><time>2026-04-25T10:24:56.139Z</time></trkpt><trkpt lat="43.296685" lon="10.7250917"><ele>185.0</ele><time>2026-04-25T10:24:57.12Z</time></trkpt><trkpt lat="43.29659" lon="10.7252017"><ele>185.66666666666666</ele><time>2026-04-25T10:24:58.122Z</time></trkpt><trkpt lat="43.2965133" lon="10.72532"><ele>186.33333333333331</ele><time>2026-04-25T10:24:59.134Z</time></trkpt><trkpt lat="43.2964533" lon="10.72543"><ele>187.0</ele><time>2026-04-25T10:25:00.112Z</time></trkpt><trkpt lat="43.2964083" lon="10.7255333"><ele>187.66666666666666</ele><time>2026-04-25T10:25:01.128Z</time></trkpt><trkpt lat="43.29638" lon="10.7256233"><ele>188.33333333333334</ele><time>2026-04-25T10:25:02.117Z</time></trkpt><trkpt lat="43.2963683" lon="10.7257117"><ele>189.0</ele><time>2026-04-25T10:25:03.129Z</time></trkpt><trkpt lat="43.2963733" lon="10.7258"><ele>189.0</ele><time>2026-04-25T10:25:04.126Z</time></trkpt><trkpt lat="43.296405" lon="10.7258867"><ele>189.0</ele><time>2026-04-25T10:25:05.131Z</time></trkpt><trkpt lat="43.2964533" lon="10.7259817"><ele>189.0</ele><time>2026-04-25T10:25:06.134Z</time></trkpt><trkpt lat="43.2964967" lon="10.7260833"><ele>189.0</ele><time>2026-04-25T10:25:07.128Z</time></trkpt><trkpt lat="43.2965233" lon="10.726185"><ele>189.0</ele><time>2026-04-25T10:25:08.137Z</time></trkpt><trkpt lat="43.29652" lon="10.7262983"><ele>189.0</ele><time>2026-04-25T10:25:09.123Z</time></trkpt><trkpt lat="43.2964867" lon="10.7264467"><ele>191.0</ele><time>2026-04-25T10:25:10.132Z</time></trkpt><trkpt lat="43.296435" lon="10.7266083"><ele>193.0</ele><time>2026-04-25T10:25:11.127Z</time></trkpt><trkpt lat="43.296395" lon="10.7267817"><ele>195.0</ele><time>2026-04-25T10:25:12.132Z</time></trkpt><trkpt lat="43.2963817" lon="10.7269467"><ele>197.0</ele><time>2026-04-25T10:25:13.125Z</time></trkpt><trkpt lat="43.2963683" lon="10.7270683"><ele>200.8</ele><time>2026-04-25T10:25:14.133Z</time></trkpt><trkpt lat="43.2963433" lon="10.72716"><ele>204.6</ele><time>2026-04-25T10:25:15.138Z</time></trkpt><trkpt lat="43.2962467" lon="10.7272367"><ele>208.40000000000003</ele><time>2026-04-25T10:25:17.13Z</time></trkpt><trkpt lat="43.29616" lon="10.7271833"><ele>212.20000000000002</ele><time>2026-04-25T10:25:18.131Z</time></trkpt><trkpt lat="43.2960417" lon="10.7270617"><ele>216.0</ele><time>2026-04-25T10:25:19.137Z</time></trkpt><trkpt lat="43.295905" lon="10.7269067"><ele>215.4</ele><time>2026-04-25T10:25:20.125Z</time></trkpt><trkpt lat="43.2957833" lon="10.7267883"><ele>214.8</ele><time>2026-04-25T10:25:21.128Z</time></trkpt><trkpt lat="43.2956883" lon="10.72672"><ele>214.20000000000002</ele><time>2026-04-25T10:25:22.133Z</time></trkpt><trkpt lat="43.2956033" lon="10.7267"><ele>213.60000000000002</ele><time>2026-04-25T10:25:23.12Z</time></trkpt><trkpt lat="43.29551" lon="10.7267433"><ele>213.0</ele><time>2026-04-25T10:25:24.122Z</time></trkpt><trkpt lat="43.2954183" lon="10.7268317"><ele>218.0</ele><time>2026-04-25T10:25:25.138Z</time></trkpt><trkpt lat="43.2953583" lon="10.7269233"><ele>223.0</ele><time>2026-04-25T10:25:26.123Z</time></trkpt><trkpt lat="43.2953267" lon="10.7270083"><ele>228.0</ele><time>2026-04-25T10:25:27.133Z</time></trkpt><trkpt lat="43.29537" lon="10.7271817"><ele>233.0</ele><time>2026-04-25T10:25:29.125Z</time></trkpt><trkpt lat="43.2954533" lon="10.7273"><ele>238.0</ele><time>2026-04-25T10:25:30.13Z</time></trkpt><trkpt lat="43.2955767" lon="10.7274383"><ele>234.60000000000002</ele><time>2026-04-25T10:25:31.139Z</time></trkpt><trkpt lat="43.2956833" lon="10.7275583"><ele>231.20000000000002</ele><time>2026-04-25T10:25:32.13Z</time></trkpt><trkpt lat="43.2957633" lon="10.7276733"><ele>227.8</ele><time>2026-04-25T10:25:33.138Z</time></trkpt><trkpt lat="43.2958133" lon="10.7277833"><ele>224.4</ele><time>2026-04-25T10:25:34.134Z</time></trkpt><trkpt lat="43.295835" lon="10.72789"><ele>221.0</ele><time>2026-04-25T10:25:35.127Z</time></trkpt><trkpt lat="43.2958283" lon="10.728005"><ele>221.0</ele><time>2026-04-25T10:25:36.131Z</time></trkpt><trkpt lat="43.2957983" lon="10.7281317"><ele>221.0</ele><time>2026-04-25T10:25:37.125Z</time></trkpt><trkpt lat="43.29573" lon="10.7283033"><ele>221.0</ele><time>2026-04-25T10:25:38.121Z</time></trkpt><trkpt lat="43.2956467" lon="10.7284767"><ele>221.0</ele><time>2026-04-25T10:25:39.134Z</time></trkpt><trkpt lat="43.2955617" lon="10.7286283"><ele>226.75</ele><time>2026-04-25T10:25:40.131Z</time></trkpt><trkpt lat="43.2954783" lon="10.72875"><ele>232.5</ele><time>2026-04-25T10:25:41.128Z</time></trkpt><trkpt lat="43.2953767" lon="10.7288683"><ele>238.25</ele><time>2026-04-25T10:25:42.145Z</time></trkpt><trkpt lat="43.2952683" lon="10.7289783"><ele>244.0</ele><time>2026-04-25T10:25:43.137Z</time></trkpt><trkpt lat="43.2951567" lon="10.7290733"><ele>244.0</ele><time>2026-04-25T10:25:44.141Z</time></trkpt><trkpt lat="43.2950417" lon="10.72915"><ele>243.99999999999997</ele><time>2026-04-25T10:25:45.134Z</time></trkpt><trkpt lat="43.294935" lon="10.7292217"><ele>243.99999999999997</ele><time>2026-04-25T10:25:46.129Z</time></trkpt><trkpt lat="43.2948483" lon="10.729285"><ele>244.0</ele><time>2026-04-25T10:25:47.129Z</time></trkpt><trkpt lat="43.294785" lon="10.7293483"><ele>244.0</ele><time>2026-04-25T10:25:48.123Z</time></trkpt><trkpt lat="43.2947417" lon="10.7294183"><ele>245.4285714285714</ele><time>2026-04-25T10:25:49.134Z</time></trkpt><trkpt lat="43.294715" lon="10.7294983"><ele>246.85714285714283</ele><time>2026-04-25T10:25:50.137Z</time></trkpt><trkpt lat="43.2947067" lon="10.72959"><ele>248.28571428571428</ele><time>2026-04-25T10:25:51.135Z</time></trkpt><trkpt lat="43.294675" lon="10.7297217"><ele>249.7142857142857</ele><time>2026-04-25T10:25:53.136Z</time></trkpt><trkpt lat="43.2946167" lon="10.72977"><ele>251.1428571428571</ele><time>2026-04-25T10:25:55.125Z</time></trkpt><trkpt lat="43.294555" lon="10.7297433"><ele>252.57142857142858</ele><time>2026-04-25T10:25:57.118Z</time></trkpt><trkpt lat="43.2945517" lon="10.72964"><ele>254.0</ele><time>2026-04-25T10:25:59.125Z</time></trkpt><trkpt lat="43.2945317" lon="10.729555"><ele>254.00000000000003</ele><time>2026-04-25T10:26:02.13Z</time></trkpt><trkpt lat="43.2944633" lon="10.7295967"><ele>254.0</ele><time>2026-04-25T10:26:23.132Z</time></trkpt><trkpt lat="43.2944017" lon="10.72963"><ele>254.0</ele><time>2026-04-25T10:26:25.131Z</time></trkpt><trkpt lat="43.2943433" lon="10.72967"><ele>254.0</ele><time>2026-04-25T10:26:27.123Z</time></trkpt><trkpt lat="43.2942667" lon="10.729715"><ele>254.00000000000003</ele><time>2026-04-25T10:26:29.134Z</time></trkpt><trkpt lat="43.2941383" lon="10.7297917"><ele>254.0</ele><time>2026-04-25T10:26:31.126Z</time></trkpt><trkpt lat="43.294065" lon="10.729835"><ele>254.00000000000003</ele><time>2026-04-25T10:26:32.124Z</time></trkpt><trkpt lat="43.2939833" lon="10.7298717"><ele>254.0</ele><time>2026-04-25T10:26:33.119Z</time></trkpt><trkpt lat="43.2938983" lon="10.7298967"><ele>254.0</ele><time>2026-04-25T10:26:34.124Z</time></trkpt><trkpt lat="43.2938117" lon="10.72992"><ele>254.0</ele><time>2026-04-25T10:26:35.125Z</time></trkpt><trkpt lat="43.2937317" lon="10.72994"><ele>254.00000000000003</ele><time>2026-04-25T10:26:36.12Z</time></trkpt><trkpt lat="43.2936567" lon="10.7299633"><ele>254.0</ele><time>2026-04-25T10:26:37.116Z</time></trkpt><trkpt lat="43.2935883" lon="10.7299967"><ele>254.50000000000003</ele><time>2026-04-25T10:26:38.125Z</time></trkpt><trkpt lat="43.293525" lon="10.7300467"><ele>255.0</ele><time>2026-04-25T10:26:39.141Z</time></trkpt><trkpt lat="43.2934667" lon="10.7301117"><ele>255.5</ele><time>2026-04-25T10:26:40.127Z</time></trkpt><trkpt lat="43.2934167" lon="10.7301817"><ele>256.0</ele><time>2026-04-25T10:26:41.122Z</time></trkpt><trkpt lat="43.293375" lon="10.73026"><ele>256.5</ele><time>2026-04-25T10:26:42.116Z</time></trkpt><trkpt lat="43.293335" lon="10.7303517"><ele>257.0</ele><time>2026-04-25T10:26:43.132Z</time></trkpt><trkpt lat="43.2933" lon="10.730465"><ele>257.0</ele><time>2026-04-25T10:26:44.122Z</time></trkpt><trkpt lat="43.2932683" lon="10.7305883"><ele>257.0</ele><time>2026-04-25T10:26:45.119Z</time></trkpt><trkpt lat="43.2932383" lon="10.7307117"><ele>257.0</ele><time>2026-04-25T10:26:46.113Z</time></trkpt><trkpt lat="43.293205" lon="10.7308317"><ele>257.0</ele><time>2026-04-25T10:26:47.121Z</time></trkpt><trkpt lat="43.2931717" lon="10.7309433"><ele>257.0</ele><time>2026-04-25T10:26:48.127Z</time></trkpt><trkpt lat="43.2931283" lon="10.7310517"><ele>254.50000000000003</ele><time>2026-04-25T10:26:49.12Z</time></trkpt><trkpt lat="43.293075" lon="10.7311517"><ele>252.0</ele><time>2026-04-25T10:26:50.123Z</time></trkpt><trkpt lat="43.2930283" lon="10.7312433"><ele>249.5</ele><time>2026-04-25T10:26:51.121Z</time></trkpt><trkpt lat="43.2929967" lon="10.7313367"><ele>247.0</ele><time>2026-04-25T10:26:52.127Z</time></trkpt><trkpt lat="43.29298" lon="10.731435"><ele>244.50000000000003</ele><time>2026-04-25T10:26:53.127Z</time></trkpt><trkpt lat="43.2929917" lon="10.731545"><ele>242.0</ele><time>2026-04-25T10:26:54.126Z</time></trkpt><trkpt lat="43.2930217" lon="10.731645"><ele>242.00000000000003</ele><time>2026-04-25T10:26:55.125Z</time></trkpt><trkpt lat="43.293065" lon="10.7317367"><ele>242.0</ele><time>2026-04-25T10:26:56.119Z</time></trkpt><trkpt lat="43.2931" lon="10.7318167"><ele>242.0</ele><time>2026-04-25T10:26:57.123Z</time></trkpt><trkpt lat="43.29313" lon="10.7319"><ele>242.0</ele><time>2026-04-25T10:26:58.12Z</time></trkpt><trkpt lat="43.2931667" lon="10.7320467"><ele>242.00000000000003</ele><time>2026-04-25T10:27:00.122Z</time></trkpt><trkpt lat="43.29315" lon="10.7321817"><ele>242.0</ele><time>2026-04-25T10:27:02.121Z</time></trkpt><trkpt lat="43.2931067" lon="10.7323367"><ele>246.16666666666669</ele><time>2026-04-25T10:27:04.125Z</time></trkpt><trkpt lat="43.2930967" lon="10.7324233"><ele>250.33333333333334</ele><time>2026-04-25T10:27:05.121Z</time></trkpt><trkpt lat="43.2931017" lon="10.7325133"><ele>254.5</ele><time>2026-04-25T10:27:06.128Z</time></trkpt><trkpt lat="43.293115" lon="10.732605"><ele>258.6666666666667</ele><time>2026-04-25T10:27:07.116Z</time></trkpt><trkpt lat="43.2931217" lon="10.73276"><ele>262.8333333333333</ele><time>2026-04-25T10:27:09.135Z</time></trkpt><trkpt lat="43.2930633" lon="10.73282"><ele>267.0</ele><time>2026-04-25T10:27:11.118Z</time></trkpt><trkpt lat="43.2929733" lon="10.7328333"><ele>267.6</ele><time>2026-04-25T10:27:13.125Z</time></trkpt><trkpt lat="43.2928367" lon="10.73287"><ele>268.2</ele><time>2026-04-25T10:27:15.121Z</time></trkpt><trkpt lat="43.2927367" lon="10.7328983"><ele>268.8</ele><time>2026-04-25T10:27:16.124Z</time></trkpt><trkpt lat="43.2926367" lon="10.7329167"><ele>269.4</ele><time>2026-04-25T10:27:17.124Z</time></trkpt><trkpt lat="43.292545" lon="10.7329467"><ele>270.0</ele><time>2026-04-25T10:27:18.132Z</time></trkpt><trkpt lat="43.292475" lon="10.7329833"><ele>270.0</ele><time>2026-04-25T10:27:19.123Z</time></trkpt><trkpt lat="43.2923867" lon="10.73309"><ele>270.0</ele><time>2026-04-25T10:27:21.119Z</time></trkpt><trkpt lat="43.2923433" lon="10.7332317"><ele>270.0</ele><time>2026-04-25T10:27:23.124Z</time></trkpt><trkpt lat="43.2923167" lon="10.7333967"><ele>270.0</ele><time>2026-04-25T10:27:25.121Z</time></trkpt><trkpt lat="43.2923083" lon="10.733485"><ele>270.0</ele><time>2026-04-25T10:27:26.114Z</time></trkpt><trkpt lat="43.2923067" lon="10.73358"><ele>270.3333333333333</ele><time>2026-04-25T10:27:27.119Z</time></trkpt><trkpt lat="43.2922917" lon="10.7336883"><ele>270.6666666666667</ele><time>2026-04-25T10:27:28.123Z</time></trkpt><trkpt lat="43.2922683" lon="10.733805"><ele>271.0</ele><time>2026-04-25T10:27:29.124Z</time></trkpt><trkpt lat="43.2922383" lon="10.73392"><ele>271.33333333333337</ele><time>2026-04-25T10:27:30.121Z</time></trkpt><trkpt lat="43.2922067" lon="10.734035"><ele>271.6666666666667</ele><time>2026-04-25T10:27:31.125Z</time></trkpt><trkpt lat="43.2921767" lon="10.73416"><ele>272.0</ele><time>2026-04-25T10:27:32.126Z</time></trkpt><trkpt lat="43.2921483" lon="10.7342717"><ele>272.0</ele><time>2026-04-25T10:27:33.122Z</time></trkpt><trkpt lat="43.2921217" lon="10.7343633"><ele>272.0</ele><time>2026-04-25T10:27:34.119Z</time></trkpt><trkpt lat="43.292085" lon="10.734455"><ele>272.0</ele><time>2026-04-25T10:27:35.123Z</time></trkpt><trkpt lat="43.2920417" lon="10.7345433"><ele>272.0</ele><time>2026-04-25T10:27:36.116Z</time></trkpt><trkpt lat="43.2919933" lon="10.7346283"><ele>272.0</ele><time>2026-04-25T10:27:37.128Z</time></trkpt><trkpt lat="43.29194" lon="10.7347217"><ele>272.0</ele><time>2026-04-25T10:27:38.118Z</time></trkpt><trkpt lat="43.2918883" lon="10.7347933"><ele>274.8</ele><time>2026-04-25T10:27:39.121Z</time></trkpt><trkpt lat="43.2918367" lon="10.7348467"><ele>277.6</ele><time>2026-04-25T10:27:40.125Z</time></trkpt><trkpt lat="43.29174" lon="10.7348917"><ele>280.40000000000003</ele><time>2026-04-25T10:27:42.123Z</time></trkpt><trkpt lat="43.2916683" lon="10.7348417"><ele>283.2</ele><time>2026-04-25T10:27:44.124Z</time></trkpt><trkpt lat="43.29163" lon="10.73475"><ele>286.0</ele><time>2026-04-25T10:27:46.124Z</time></trkpt><trkpt lat="43.2915867" lon="10.7345733"><ele>286.0</ele><time>2026-04-25T10:27:48.118Z</time></trkpt><trkpt lat="43.2915433" lon="10.7344733"><ele>286.0</ele><time>2026-04-25T10:27:49.129Z</time></trkpt><trkpt lat="43.2914817" lon="10.73438"><ele>286.0</ele><time>2026-04-25T10:27:50.121Z</time></trkpt><trkpt lat="43.2914167" lon="10.734295"><ele>286.0</ele><time>2026-04-25T10:27:51.118Z</time></trkpt><trkpt lat="43.291355" lon="10.7342283"><ele>286.0</ele><time>2026-04-25T10:27:52.118Z</time></trkpt><trkpt lat="43.2912833" lon="10.734175"><ele>286.0</ele><time>2026-04-25T10:27:53.12Z</time></trkpt><trkpt lat="43.2912083" lon="10.7341367"><ele>286.3333333333333</ele><time>2026-04-25T10:27:54.12Z</time></trkpt><trkpt lat="43.2911233" lon="10.7341167"><ele>286.66666666666663</ele><time>2026-04-25T10:27:55.125Z</time></trkpt><trkpt lat="43.2910333" lon="10.7341033"><ele>287.0</ele><time>2026-04-25T10:27:56.118Z</time></trkpt><trkpt lat="43.2909433" lon="10.7340867"><ele>287.3333333333333</ele><time>2026-04-25T10:27:57.124Z</time></trkpt><trkpt lat="43.2908617" lon="10.734065"><ele>287.6666666666667</ele><time>2026-04-25T10:27:58.127Z</time></trkpt><trkpt lat="43.2907883" lon="10.734035"><ele>288.0</ele><time>2026-04-25T10:27:59.128Z</time></trkpt><trkpt lat="43.2907267" lon="10.7339933"><ele>288.0</ele><time>2026-04-25T10:28:00.12Z</time></trkpt><trkpt lat="43.2906517" lon="10.7338783"><ele>288.0</ele><time>2026-04-25T10:28:02.121Z</time></trkpt><trkpt lat="43.2906333" lon="10.733795"><ele>288.0</ele><time>2026-04-25T10:28:03.121Z</time></trkpt><trkpt lat="43.2905567" lon="10.7336433"><ele>288.0</ele><time>2026-04-25T10:28:05.125Z</time></trkpt><trkpt lat="43.290495" lon="10.7335733"><ele>288.0</ele><time>2026-04-25T10:28:06.127Z</time></trkpt><trkpt lat="43.29042" lon="10.7335117"><ele>286.8</ele><time>2026-04-25T10:28:07.123Z</time></trkpt><trkpt lat="43.2903367" lon="10.73346"><ele>285.6</ele><time>2026-04-25T10:28:08.131Z</time></trkpt><trkpt lat="43.2902467" lon="10.7334217"><ele>284.4</ele><time>2026-04-25T10:28:09.121Z</time></trkpt><trkpt lat="43.2901517" lon="10.7334"><ele>283.2</ele><time>2026-04-25T10:28:10.126Z</time></trkpt><trkpt lat="43.29006" lon="10.7333967"><ele>282.0</ele><time>2026-04-25T10:28:11.127Z</time></trkpt><trkpt lat="43.2899783" lon="10.7334"><ele>282.0</ele><time>2026-04-25T10:28:12.127Z</time></trkpt><trkpt lat="43.2899067" lon="10.7334117"><ele>282.0</ele><time>2026-04-25T10:28:13.123Z</time></trkpt><trkpt lat="43.2898433" lon="10.7334417"><ele>282.0</ele><time>2026-04-25T10:28:14.118Z</time></trkpt><trkpt lat="43.2897833" lon="10.7334967"><ele>282.0</ele><time>2026-04-25T10:28:15.123Z</time></trkpt><trkpt lat="43.2897267" lon="10.733575"><ele>282.0</ele><time>2026-04-25T10:28:16.116Z</time></trkpt><trkpt lat="43.2896683" lon="10.7336717"><ele>282.0</ele><time>2026-04-25T10:28:17.121Z</time></trkpt><trkpt lat="43.2895967" lon="10.7337767"><ele>281.75</ele><time>2026-04-25T10:28:18.126Z</time></trkpt><trkpt lat="43.2895067" lon="10.7338883"><ele>281.5</ele><time>2026-04-25T10:28:19.129Z</time></trkpt><trkpt lat="43.2894067" lon="10.734"><ele>281.25</ele><time>2026-04-25T10:28:20.118Z</time></trkpt><trkpt lat="43.2893133" lon="10.734105"><ele>281.0</ele><time>2026-04-25T10:28:21.123Z</time></trkpt><trkpt lat="43.2892333" lon="10.7341917"><ele>281.0</ele><time>2026-04-25T10:28:22.13Z</time></trkpt><trkpt lat="43.28917" lon="10.73426"><ele>281.0</ele><time>2026-04-25T10:28:23.122Z</time></trkpt><trkpt lat="43.2891233" lon="10.7343283"><ele>281.0</ele><time>2026-04-25T10:28:24.122Z</time></trkpt><trkpt lat="43.2890917" lon="10.73447"><ele>281.0</ele><time>2026-04-25T10:28:26.115Z</time></trkpt><trkpt lat="43.2891117" lon="10.7345567"><ele>281.0</ele><time>2026-04-25T10:28:27.118Z</time></trkpt><trkpt lat="43.2891467" lon="10.7346667"><ele>281.0</ele><time>2026-04-25T10:28:28.126Z</time></trkpt><trkpt lat="43.2891733" lon="10.734785"><ele>282.0</ele><time>2026-04-25T10:28:29.123Z</time></trkpt><trkpt lat="43.2891917" lon="10.7349233"><ele>283.0</ele><time>2026-04-25T10:28:30.121Z</time></trkpt><trkpt lat="43.2891917" lon="10.7350633"><ele>284.0</ele><time>2026-04-25T10:28:31.125Z</time></trkpt><trkpt lat="43.289185" lon="10.7351867"><ele>285.0</ele><time>2026-04-25T10:28:32.123Z</time></trkpt><trkpt lat="43.2891833" lon="10.7352917"><ele>286.0</ele><time>2026-04-25T10:28:33.131Z</time></trkpt><trkpt lat="43.289195" lon="10.7353883"><ele>287.0</ele><time>2026-04-25T10:28:34.122Z</time></trkpt><trkpt lat="43.2892183" lon="10.7354767"><ele>287.0</ele><time>2026-04-25T10:28:35.126Z</time></trkpt><trkpt lat="43.289255" lon="10.735555"><ele>287.0</ele><time>2026-04-25T10:28:36.129Z</time></trkpt><trkpt lat="43.28931" lon="10.7356267"><ele>287.0</ele><time>2026-04-25T10:28:37.121Z</time></trkpt><trkpt lat="43.2893783" lon="10.735685"><ele>287.0</ele><time>2026-04-25T10:28:38.117Z</time></trkpt><trkpt lat="43.2894617" lon="10.7357317"><ele>287.0</ele><time>2026-04-25T10:28:39.121Z</time></trkpt><trkpt lat="43.289555" lon="10.7357717"><ele>287.0</ele><time>2026-04-25T10:28:40.124Z</time></trkpt><trkpt lat="43.2896567" lon="10.7358017"><ele>290.2</ele><time>2026-04-25T10:28:41.129Z</time></trkpt><trkpt lat="43.28976" lon="10.7358333"><ele>293.4</ele><time>2026-04-25T10:28:42.128Z</time></trkpt><trkpt lat="43.28986" lon="10.7358683"><ele>296.6</ele><time>2026-04-25T10:28:43.127Z</time></trkpt><trkpt lat="43.2899533" lon="10.7359"><ele>299.8</ele><time>2026-04-25T10:28:44.115Z</time></trkpt><trkpt lat="43.290035" lon="10.7359233"><ele>303.0</ele><time>2026-04-25T10:28:45.119Z</time></trkpt><trkpt lat="43.2901033" lon="10.7359433"><ele>303.0</ele><time>2026-04-25T10:28:46.125Z</time></trkpt><trkpt lat="43.29021" lon="10.73601"><ele>303.0</ele><time>2026-04-25T10:28:48.123Z</time></trkpt><trkpt lat="43.29026" lon="10.7360783"><ele>303.0</ele><time>2026-04-25T10:28:49.118Z</time></trkpt><trkpt lat="43.29031" lon="10.7361683"><ele>303.0</ele><time>2026-04-25T10:28:50.116Z</time></trkpt><trkpt lat="43.2903483" lon="10.73626"><ele>303.0</ele><time>2026-04-25T10:28:51.119Z</time></trkpt><trkpt lat="43.29037" lon="10.73636"><ele>303.0</ele><time>2026-04-25T10:28:52.122Z</time></trkpt><trkpt lat="43.2903867" lon="10.73646"><ele>303.0</ele><time>2026-04-25T10:28:53.126Z</time></trkpt><trkpt lat="43.2903917" lon="10.7365467"><ele>303.0</ele><time>2026-04-25T10:28:54.126Z</time></trkpt><trkpt lat="43.2903833" lon="10.736635"><ele>303.0</ele><time>2026-04-25T10:28:55.125Z</time></trkpt><trkpt lat="43.29036" lon="10.736725"><ele>303.0</ele><time>2026-04-25T10:28:56.142Z</time></trkpt><trkpt lat="43.2903267" lon="10.7368317"><ele>303.0</ele><time>2026-04-25T10:28:57.122Z</time></trkpt><trkpt lat="43.29028" lon="10.7369317"><ele>303.0</ele><time>2026-04-25T10:28:58.13Z</time></trkpt><trkpt lat="43.2902267" lon="10.7370233"><ele>305.8</ele><time>2026-04-25T10:28:59.121Z</time></trkpt><trkpt lat="43.290175" lon="10.7371283"><ele>308.6</ele><time>2026-04-25T10:29:00.126Z</time></trkpt><trkpt lat="43.2901067" lon="10.7372383"><ele>311.4</ele><time>2026-04-25T10:29:01.118Z</time></trkpt><trkpt lat="43.2900133" lon="10.7373467"><ele>314.2</ele><time>2026-04-25T10:29:02.128Z</time></trkpt><trkpt lat="43.2899167" lon="10.73745"><ele>317.0</ele><time>2026-04-25T10:29:03.116Z</time></trkpt><trkpt lat="43.2898283" lon="10.7375467"><ele>319.0</ele><time>2026-04-25T10:29:04.119Z</time></trkpt><trkpt lat="43.289745" lon="10.7376533"><ele>321.0</ele><time>2026-04-25T10:29:05.125Z</time></trkpt><trkpt lat="43.28967" lon="10.7377683"><ele>323.0</ele><time>2026-04-25T10:29:06.114Z</time></trkpt><trkpt lat="43.2895967" lon="10.7378633"><ele>325.0</ele><time>2026-04-25T10:29:07.117Z</time></trkpt><trkpt lat="43.2895067" lon="10.7379483"><ele>327.0</ele><time>2026-04-25T10:29:08.125Z</time></trkpt><trkpt lat="43.2894083" lon="10.7380217"><ele>327.0</ele><time>2026-04-25T10:29:09.124Z</time></trkpt><trkpt lat="43.2893133" lon="10.73809"><ele>327.0</ele><time>2026-04-25T10:29:10.131Z</time></trkpt><trkpt lat="43.2892283" lon="10.7381517"><ele>327.0</ele><time>2026-04-25T10:29:11.127Z</time></trkpt><trkpt lat="43.28915" lon="10.7382117"><ele>327.0</ele><time>2026-04-25T10:29:12.118Z</time></trkpt><trkpt lat="43.28908" lon="10.7382767"><ele>327.0</ele><time>2026-04-25T10:29:13.135Z</time></trkpt><trkpt lat="43.289" lon="10.73834"><ele>327.6</ele><time>2026-04-25T10:29:14.125Z</time></trkpt><trkpt lat="43.2889117" lon="10.7383967"><ele>328.20000000000005</ele><time>2026-04-25T10:29:15.122Z</time></trkpt><trkpt lat="43.2888233" lon="10.7384567"><ele>328.8</ele><time>2026-04-25T10:29:16.124Z</time></trkpt><trkpt lat="43.2887283" lon="10.7385133"><ele>329.4</ele><time>2026-04-25T10:29:17.128Z</time></trkpt><trkpt lat="43.28864" lon="10.7385867"><ele>330.0</ele><time>2026-04-25T10:29:18.125Z</time></trkpt><trkpt lat="43.28856" lon="10.73867"><ele>330.0</ele><time>2026-04-25T10:29:19.139Z</time></trkpt><trkpt lat="43.28849" lon="10.7387517"><ele>330.0</ele><time>2026-04-25T10:29:20.121Z</time></trkpt><trkpt lat="43.28842" lon="10.7388417"><ele>330.0</ele><time>2026-04-25T10:29:21.129Z</time></trkpt><trkpt lat="43.288355" lon="10.7389317"><ele>330.0</ele><time>2026-04-25T10:29:22.128Z</time></trkpt><trkpt lat="43.2883" lon="10.7390267"><ele>330.0</ele><time>2026-04-25T10:29:23.151Z</time></trkpt><trkpt lat="43.2882483" lon="10.7391233"><ele>330.0</ele><time>2026-04-25T10:29:24.142Z</time></trkpt><trkpt lat="43.2882067" lon="10.739225"><ele>330.0</ele><time>2026-04-25T10:29:25.126Z</time></trkpt><trkpt lat="43.2881767" lon="10.7393283"><ele>330.0</ele><time>2026-04-25T10:29:26.119Z</time></trkpt><trkpt lat="43.2881483" lon="10.73943"><ele>330.0</ele><time>2026-04-25T10:29:27.122Z</time></trkpt><trkpt lat="43.2880983" lon="10.739565"><ele>330.0</ele><time>2026-04-25T10:29:29.127Z</time></trkpt><trkpt lat="43.28803" lon="10.7396117"><ele>330.0</ele><time>2026-04-25T10:29:31.139Z</time></trkpt><trkpt lat="43.2879633" lon="10.7396167"><ele>331.6</ele><time>2026-04-25T10:29:33.13Z</time></trkpt><trkpt lat="43.2878867" lon="10.7395017"><ele>333.2</ele><time>2026-04-25T10:29:35.122Z</time></trkpt><trkpt lat="43.28782" lon="10.7394317"><ele>334.79999999999995</ele><time>2026-04-25T10:29:36.128Z</time></trkpt><trkpt lat="43.28775" lon="10.73938"><ele>336.4</ele><time>2026-04-25T10:29:37.133Z</time></trkpt><trkpt lat="43.2876817" lon="10.73935"><ele>338.0</ele><time>2026-04-25T10:29:38.127Z</time></trkpt><trkpt lat="43.2875683" lon="10.7393617"><ele>338.0</ele><time>2026-04-25T10:29:40.134Z</time></trkpt><trkpt lat="43.2874583" lon="10.7394767"><ele>338.0</ele><time>2026-04-25T10:29:42.121Z</time></trkpt><trkpt lat="43.2874067" lon="10.7395833"><ele>338.0</ele><time>2026-04-25T10:29:43.136Z</time></trkpt><trkpt lat="43.2873583" lon="10.7396983"><ele>338.0</ele><time>2026-04-25T10:29:44.127Z</time></trkpt><trkpt lat="43.2873033" lon="10.73981"><ele>338.0</ele><time>2026-04-25T10:29:45.133Z</time></trkpt><trkpt lat="43.28724" lon="10.7399083"><ele>336.4</ele><time>2026-04-25T10:29:46.134Z</time></trkpt><trkpt lat="43.2871667" lon="10.7400083"><ele>334.79999999999995</ele><time>2026-04-25T10:29:47.141Z</time></trkpt><trkpt lat="43.2871017" lon="10.7401"><ele>333.2</ele><time>2026-04-25T10:29:48.139Z</time></trkpt><trkpt lat="43.2870417" lon="10.7402"><ele>331.6</ele><time>2026-04-25T10:29:49.131Z</time></trkpt><trkpt lat="43.28699" lon="10.7403183"><ele>330.0</ele><time>2026-04-25T10:29:50.125Z</time></trkpt><trkpt lat="43.28694" lon="10.7404633"><ele>330.0</ele><time>2026-04-25T10:29:51.118Z</time></trkpt><trkpt lat="43.28689" lon="10.7406033"><ele>330.0</ele><time>2026-04-25T10:29:52.119Z</time></trkpt><trkpt lat="43.2868383" lon="10.7407333"><ele>330.0</ele><time>2026-04-25T10:29:53.124Z</time></trkpt><trkpt lat="43.2867933" lon="10.7408583"><ele>330.0</ele><time>2026-04-25T10:29:54.128Z</time></trkpt><trkpt lat="43.286755" lon="10.7409733"><ele>330.0</ele><time>2026-04-25T10:29:55.118Z</time></trkpt><trkpt lat="43.286725" lon="10.7410833"><ele>333.8</ele><time>2026-04-25T10:29:56.117Z</time></trkpt><trkpt lat="43.2866883" lon="10.741185"><ele>337.6</ele><time>2026-04-25T10:29:57.119Z</time></trkpt><trkpt lat="43.286645" lon="10.7412883"><ele>341.4</ele><time>2026-04-25T10:29:58.126Z</time></trkpt><trkpt lat="43.2865933" lon="10.7414"><ele>345.2</ele><time>2026-04-25T10:29:59.126Z</time></trkpt><trkpt lat="43.2865483" lon="10.7415267"><ele>349.0</ele><time>2026-04-25T10:30:00.127Z</time></trkpt><trkpt lat="43.2865083" lon="10.7416567"><ele>348.99999999999994</ele><time>2026-04-25T10:30:01.117Z</time></trkpt><trkpt lat="43.2864733" lon="10.7417767"><ele>349.0</ele><time>2026-04-25T10:30:02.123Z</time></trkpt><trkpt lat="43.2864383" lon="10.7418767"><ele>349.0</ele><time>2026-04-25T10:30:03.122Z</time></trkpt><trkpt lat="43.2864033" lon="10.7419583"><ele>349.0</ele><time>2026-04-25T10:30:04.122Z</time></trkpt><trkpt lat="43.2863683" lon="10.7420383"><ele>349.0</ele><time>2026-04-25T10:30:05.12Z</time></trkpt><trkpt lat="43.2863433" lon="10.74212"><ele>348.99999999999994</ele><time>2026-04-25T10:30:06.12Z</time></trkpt><trkpt lat="43.2863233" lon="10.7422133"><ele>349.0</ele><time>2026-04-25T10:30:07.122Z</time></trkpt><trkpt lat="43.2863017" lon="10.742315"><ele>348.79999999999995</ele><time>2026-04-25T10:30:08.122Z</time></trkpt><trkpt lat="43.286275" lon="10.7424317"><ele>348.59999999999997</ele><time>2026-04-25T10:30:09.12Z</time></trkpt><trkpt lat="43.2862433" lon="10.7425517"><ele>348.4</ele><time>2026-04-25T10:30:10.121Z</time></trkpt><trkpt lat="43.2862017" lon="10.7426717"><ele>348.2</ele><time>2026-04-25T10:30:11.125Z</time></trkpt><trkpt lat="43.286155" lon="10.7427883"><ele>348.0</ele><time>2026-04-25T10:30:12.137Z</time></trkpt><trkpt lat="43.2861033" lon="10.7428783"><ele>349.57142857142856</ele><time>2026-04-25T10:30:13.124Z</time></trkpt><trkpt lat="43.2860533" lon="10.7429683"><ele>351.14285714285717</ele><time>2026-04-25T10:30:14.133Z</time></trkpt><trkpt lat="43.2860083" lon="10.7430517"><ele>352.7142857142857</ele><time>2026-04-25T10:30:15.128Z</time></trkpt><trkpt lat="43.285965" lon="10.7431383"><ele>354.2857142857143</ele><time>2026-04-25T10:30:16.135Z</time></trkpt><trkpt lat="43.2859317" lon="10.743225"><ele>355.8571428571429</ele><time>2026-04-25T10:30:17.141Z</time></trkpt><trkpt lat="43.2859117" lon="10.7433133"><ele>357.42857142857144</ele><time>2026-04-25T10:30:18.131Z</time></trkpt><trkpt lat="43.2859067" lon="10.743405"><ele>359.0</ele><time>2026-04-25T10:30:19.138Z</time></trkpt><trkpt lat="43.2859083" lon="10.74351"><ele>360.6</ele><time>2026-04-25T10:30:20.129Z</time></trkpt><trkpt lat="43.2859083" lon="10.743625"><ele>362.2</ele><time>2026-04-25T10:30:21.132Z</time></trkpt><trkpt lat="43.2859067" lon="10.743735"><ele>363.8</ele><time>2026-04-25T10:30:22.135Z</time></trkpt><trkpt lat="43.285875" lon="10.7438817"><ele>365.40000000000003</ele><time>2026-04-25T10:30:24.133Z</time></trkpt><trkpt lat="43.2858133" lon="10.7439483"><ele>367.0</ele><time>2026-04-25T10:30:26.128Z</time></trkpt><trkpt lat="43.2857283" lon="10.743875"><ele>367.0</ele><time>2026-04-25T10:30:29.137Z</time></trkpt><trkpt lat="43.2857133" lon="10.7437817"><ele>367.0</ele><time>2026-04-25T10:30:30.138Z</time></trkpt><trkpt lat="43.2856933" lon="10.7436783"><ele>367.0</ele><time>2026-04-25T10:30:31.14Z</time></trkpt><trkpt lat="43.285655" lon="10.7435767"><ele>367.0</ele><time>2026-04-25T10:30:32.127Z</time></trkpt><trkpt lat="43.2855967" lon="10.7435"><ele>367.0</ele><time>2026-04-25T10:30:33.127Z</time></trkpt><trkpt lat="43.2855317" lon="10.74345"><ele>367.0</ele><time>2026-04-25T10:30:34.126Z</time></trkpt><trkpt lat="43.28546" lon="10.74342"><ele>366.8333333333333</ele><time>2026-04-25T10:30:35.12Z</time></trkpt><trkpt lat="43.285385" lon="10.7433933"><ele>366.66666666666663</ele><time>2026-04-25T10:30:36.133Z</time></trkpt><trkpt lat="43.28531" lon="10.7433617"><ele>366.5</ele><time>2026-04-25T10:30:37.122Z</time></trkpt><trkpt lat="43.2852433" lon="10.7433217"><ele>366.3333333333333</ele><time>2026-04-25T10:30:38.133Z</time></trkpt><trkpt lat="43.2851883" lon="10.7432667"><ele>366.1666666666667</ele><time>2026-04-25T10:30:39.133Z</time></trkpt><trkpt lat="43.2851367" lon="10.7432067"><ele>366.0</ele><time>2026-04-25T10:30:40.132Z</time></trkpt><trkpt lat="43.28504" lon="10.7431133"><ele>366.0</ele><time>2026-04-25T10:30:42.137Z</time></trkpt><trkpt lat="43.28496" lon="10.7430617"><ele>366.0</ele><time>2026-04-25T10:30:44.125Z</time></trkpt><trkpt lat="43.2848767" lon="10.7430167"><ele>366.0</ele><time>2026-04-25T10:30:47.123Z</time></trkpt><trkpt lat="43.2847783" lon="10.7429833"><ele>366.0</ele><time>2026-04-25T10:30:53.127Z</time></trkpt><trkpt lat="43.28471" lon="10.74298"><ele>366.0</ele><time>2026-04-25T10:30:56.124Z</time></trkpt><trkpt lat="43.2847233" lon="10.7428633"><ele>366.0</ele><time>2026-04-25T10:31:05.127Z</time></trkpt><trkpt lat="43.2848183" lon="10.7429433"><ele>367.6</ele><time>2026-04-25T10:32:32.127Z</time></trkpt><trkpt lat="43.2847483" lon="10.743015"><ele>369.20000000000005</ele><time>2026-04-25T10:32:36.123Z</time></trkpt><trkpt lat="43.2846633" lon="10.7430483"><ele>370.79999999999995</ele><time>2026-04-25T10:32:38.123Z</time></trkpt><trkpt lat="43.2845533" lon="10.7430817"><ele>372.4</ele><time>2026-04-25T10:32:40.122Z</time></trkpt><trkpt lat="43.28449" lon="10.7430883"><ele>374.0</ele><time>2026-04-25T10:32:41.131Z</time></trkpt><trkpt lat="43.2843667" lon="10.7430533"><ele>374.0</ele><time>2026-04-25T10:32:43.13Z</time></trkpt><trkpt lat="43.2842983" lon="10.7430233"><ele>374.0</ele><time>2026-04-25T10:32:44.131Z</time></trkpt><trkpt lat="43.2842283" lon="10.74299"><ele>374.0</ele><time>2026-04-25T10:32:45.13Z</time></trkpt><trkpt lat="43.2841633" lon="10.7429683"><ele>374.0</ele><time>2026-04-25T10:32:46.125Z</time></trkpt><trkpt lat="43.2840533" lon="10.7429483"><ele>374.0</ele><time>2026-04-25T10:32:48.122Z</time></trkpt><trkpt lat="43.2839533" lon="10.742935"><ele>374.0</ele><time>2026-04-25T10:32:50.136Z</time></trkpt><trkpt lat="43.2838417" lon="10.74288"><ele>373.4285714285714</ele><time>2026-04-25T10:32:52.117Z</time></trkpt><trkpt lat="43.283785" lon="10.7428317"><ele>372.8571428571429</ele><time>2026-04-25T10:32:53.122Z</time></trkpt><trkpt lat="43.28373" lon="10.742775"><ele>372.2857142857143</ele><time>2026-04-25T10:32:54.109Z</time></trkpt><trkpt lat="43.2836733" lon="10.74272"><ele>371.71428571428567</ele><time>2026-04-25T10:32:55.125Z</time></trkpt><trkpt lat="43.2836117" lon="10.7426683"><ele>371.1428571428571</ele><time>2026-04-25T10:32:56.125Z</time></trkpt><trkpt lat="43.28355" lon="10.74263"><ele>370.57142857142856</ele><time>2026-04-25T10:32:57.123Z</time></trkpt><trkpt lat="43.2834867" lon="10.74261"><ele>370.0</ele><time>2026-04-25T10:32:58.125Z</time></trkpt><trkpt lat="43.2833717" lon="10.7426333"><ele>370.25</ele><time>2026-04-25T10:33:00.119Z</time></trkpt><trkpt lat="43.2832733" lon="10.7427233"><ele>370.5</ele><time>2026-04-25T10:33:02.127Z</time></trkpt><trkpt lat="43.2831783" lon="10.742815"><ele>370.75</ele><time>2026-04-25T10:33:04.125Z</time></trkpt><trkpt lat="43.2830667" lon="10.7428533"><ele>371.0</ele><time>2026-04-25T10:33:06.121Z</time></trkpt><trkpt lat="43.2829717" lon="10.7429017"><ele>371.0</ele><time>2026-04-25T10:33:08.125Z</time></trkpt><trkpt lat="43.2829333" lon="10.7430017"><ele>371.0</ele><time>2026-04-25T10:33:10.121Z</time></trkpt><trkpt lat="43.2829433" lon="10.7431467"><ele>371.0</ele><time>2026-04-25T10:33:12.121Z</time></trkpt><trkpt lat="43.2829533" lon="10.7433083"><ele>371.0</ele><time>2026-04-25T10:33:14.121Z</time></trkpt><trkpt lat="43.282985" lon="10.7434683"><ele>371.0</ele><time>2026-04-25T10:33:16.126Z</time></trkpt><trkpt lat="43.2830117" lon="10.7435567"><ele>371.83333333333337</ele><time>2026-04-25T10:33:17.13Z</time></trkpt><trkpt lat="43.2830467" lon="10.7436483"><ele>372.6666666666667</ele><time>2026-04-25T10:33:18.129Z</time></trkpt><trkpt lat="43.28309" lon="10.7437417"><ele>373.5</ele><time>2026-04-25T10:33:19.123Z</time></trkpt><trkpt lat="43.28314" lon="10.7438317"><ele>374.3333333333333</ele><time>2026-04-25T10:33:20.128Z</time></trkpt><trkpt lat="43.2831917" lon="10.7439217"><ele>375.16666666666663</ele><time>2026-04-25T10:33:21.136Z</time></trkpt><trkpt lat="43.283245" lon="10.7440133"><ele>376.0</ele><time>2026-04-25T10:33:22.119Z</time></trkpt><trkpt lat="43.2832967" lon="10.7441067"><ele>377.66666666666663</ele><time>2026-04-25T10:33:23.132Z</time></trkpt><trkpt lat="43.2833467" lon="10.7442017"><ele>379.3333333333333</ele><time>2026-04-25T10:33:24.129Z</time></trkpt><trkpt lat="43.2833933" lon="10.7442967"><ele>381.0</ele><time>2026-04-25T10:33:25.122Z</time></trkpt><trkpt lat="43.28344" lon="10.7443867"><ele>382.66666666666663</ele><time>2026-04-25T10:33:26.132Z</time></trkpt><trkpt lat="43.283485" lon="10.74448"><ele>384.3333333333333</ele><time>2026-04-25T10:33:27.127Z</time></trkpt><trkpt lat="43.2835267" lon="10.7445767"><ele>386.0</ele><time>2026-04-25T10:33:28.131Z</time></trkpt><trkpt lat="43.2835617" lon="10.7446767"><ele>386.42857142857144</ele><time>2026-04-25T10:33:29.124Z</time></trkpt><trkpt lat="43.2835967" lon="10.74478"><ele>386.8571428571429</ele><time>2026-04-25T10:33:30.116Z</time></trkpt><trkpt lat="43.2836283" lon="10.74488"><ele>387.28571428571433</ele><time>2026-04-25T10:33:31.128Z</time></trkpt><trkpt lat="43.2836633" lon="10.7449733"><ele>387.7142857142857</ele><time>2026-04-25T10:33:32.124Z</time></trkpt><trkpt lat="43.2836883" lon="10.74506"><ele>388.1428571428571</ele><time>2026-04-25T10:33:33.132Z</time></trkpt><trkpt lat="43.28371" lon="10.7451517"><ele>388.5714285714286</ele><time>2026-04-25T10:33:34.12Z</time></trkpt><trkpt lat="43.2837233" lon="10.7452417"><ele>389.0</ele><time>2026-04-25T10:33:35.125Z</time></trkpt><trkpt lat="43.283725" lon="10.7453283"><ele>389.79999999999995</ele><time>2026-04-25T10:33:36.127Z</time></trkpt><trkpt lat="43.2836967" lon="10.7454967"><ele>390.59999999999997</ele><time>2026-04-25T10:33:38.121Z</time></trkpt><trkpt lat="43.2836683" lon="10.74558"><ele>391.4</ele><time>2026-04-25T10:33:39.126Z</time></trkpt><trkpt lat="43.2836267" lon="10.745675"><ele>392.2</ele><time>2026-04-25T10:33:40.129Z</time></trkpt><trkpt lat="43.2835783" lon="10.7457767"><ele>393.0</ele><time>2026-04-25T10:33:41.128Z</time></trkpt><trkpt lat="43.283525" lon="10.7458783"><ele>393.0</ele><time>2026-04-25T10:33:42.118Z</time></trkpt><trkpt lat="43.2834783" lon="10.745975"><ele>393.0</ele><time>2026-04-25T10:33:43.13Z</time></trkpt><trkpt lat="43.2834383" lon="10.7460617"><ele>393.0</ele><time>2026-04-25T10:33:44.121Z</time></trkpt><trkpt lat="43.283405" lon="10.746165"><ele>393.0</ele><time>2026-04-25T10:33:45.124Z</time></trkpt><trkpt lat="43.283385" lon="10.74626"><ele>393.0</ele><time>2026-04-25T10:33:46.127Z</time></trkpt><trkpt lat="43.2833883" lon="10.7464167"><ele>393.0</ele><time>2026-04-25T10:33:48.133Z</time></trkpt><trkpt lat="43.2834567" lon="10.7465433"><ele>394.5</ele><time>2026-04-25T10:33:50.121Z</time></trkpt><trkpt lat="43.2835083" lon="10.7466"><ele>396.0</ele><time>2026-04-25T10:33:51.111Z</time></trkpt><trkpt lat="43.283565" lon="10.74665"><ele>397.5</ele><time>2026-04-25T10:33:52.12Z</time></trkpt><trkpt lat="43.2836233" lon="10.7467017"><ele>399.0</ele><time>2026-04-25T10:33:53.127Z</time></trkpt><trkpt lat="43.2836767" lon="10.7467583"><ele>400.5</ele><time>2026-04-25T10:33:54.125Z</time></trkpt><trkpt lat="43.2837283" lon="10.7468867"><ele>402.0</ele><time>2026-04-25T10:33:56.123Z</time></trkpt><trkpt lat="43.28371" lon="10.74699"><ele>404.0</ele><time>2026-04-25T10:33:58.127Z</time></trkpt><trkpt lat="43.28362" lon="10.7470583"><ele>406.0</ele><time>2026-04-25T10:34:00.134Z</time></trkpt><trkpt lat="43.28355" lon="10.7470717"><ele>408.0</ele><time>2026-04-25T10:34:01.127Z</time></trkpt><trkpt lat="43.283475" lon="10.7470767"><ele>410.0</ele><time>2026-04-25T10:34:02.13Z</time></trkpt><trkpt lat="43.2834" lon="10.747075"><ele>412.0</ele><time>2026-04-25T10:34:03.119Z</time></trkpt><trkpt lat="43.2833267" lon="10.74708"><ele>414.0</ele><time>2026-04-25T10:34:04.123Z</time></trkpt><trkpt lat="43.2832583" lon="10.747095"><ele>414.0</ele><time>2026-04-25T10:34:05.124Z</time></trkpt><trkpt lat="43.2831583" lon="10.747165"><ele>414.0</ele><time>2026-04-25T10:34:07.123Z</time></trkpt><trkpt lat="43.2830983" lon="10.747295"><ele>414.0</ele><time>2026-04-25T10:34:09.126Z</time></trkpt><trkpt lat="43.2830833" lon="10.7473833"><ele>414.0</ele><time>2026-04-25T10:34:10.124Z</time></trkpt><trkpt lat="43.283065" lon="10.7474767"><ele>414.0</ele><time>2026-04-25T10:34:11.127Z</time></trkpt><trkpt lat="43.2830417" lon="10.7475617"><ele>414.0</ele><time>2026-04-25T10:34:12.128Z</time></trkpt><trkpt lat="43.28294" lon="10.7476433"><ele>414.5</ele><time>2026-04-25T10:34:14.127Z</time></trkpt><trkpt lat="43.28288" lon="10.7476733"><ele>415.0</ele><time>2026-04-25T10:34:15.125Z</time></trkpt><trkpt lat="43.2827733" lon="10.747755"><ele>415.5</ele><time>2026-04-25T10:34:17.117Z</time></trkpt><trkpt lat="43.2827167" lon="10.747815"><ele>416.0</ele><time>2026-04-25T10:34:18.125Z</time></trkpt><trkpt lat="43.28265" lon="10.7478817"><ele>416.5</ele><time>2026-04-25T10:34:19.137Z</time></trkpt><trkpt lat="43.2825733" lon="10.7479483"><ele>417.0</ele><time>2026-04-25T10:34:20.122Z</time></trkpt><trkpt lat="43.2825083" lon="10.74803"><ele>417.0</ele><time>2026-04-25T10:34:21.127Z</time></trkpt><trkpt lat="43.282455" lon="10.748125"><ele>417.0</ele><time>2026-04-25T10:34:22.119Z</time></trkpt><trkpt lat="43.28241" lon="10.7482217"><ele>417.0</ele><time>2026-04-25T10:34:23.121Z</time></trkpt><trkpt lat="43.2823717" lon="10.7483117"><ele>417.0</ele><time>2026-04-25T10:34:24.123Z</time></trkpt><trkpt lat="43.2823483" lon="10.7483983"><ele>417.0</ele><time>2026-04-25T10:34:25.132Z</time></trkpt><trkpt lat="43.2823367" lon="10.7484883"><ele>417.0</ele><time>2026-04-25T10:34:26.124Z</time></trkpt><trkpt lat="43.282345" lon="10.74858"><ele>417.0</ele><time>2026-04-25T10:34:27.118Z</time></trkpt><trkpt lat="43.282365" lon="10.74868"><ele>417.5</ele><time>2026-04-25T10:34:28.123Z</time></trkpt><trkpt lat="43.282385" lon="10.74878"><ele>418.0</ele><time>2026-04-25T10:34:29.136Z</time></trkpt><trkpt lat="43.28239" lon="10.7488867"><ele>418.5</ele><time>2026-04-25T10:34:30.124Z</time></trkpt><trkpt lat="43.2823783" lon="10.74898"><ele>419.0</ele><time>2026-04-25T10:34:31.136Z</time></trkpt><trkpt lat="43.2823533" lon="10.7490617"><ele>419.5</ele><time>2026-04-25T10:34:32.114Z</time></trkpt><trkpt lat="43.2822433" lon="10.74914"><ele>420.0</ele><time>2026-04-25T10:34:34.137Z</time></trkpt><trkpt lat="43.2821633" lon="10.7491467"><ele>420.0</ele><time>2026-04-25T10:34:35.122Z</time></trkpt><trkpt lat="43.282075" lon="10.7491517"><ele>420.0</ele><time>2026-04-25T10:34:36.124Z</time></trkpt><trkpt lat="43.2819983" lon="10.749175"><ele>420.0</ele><time>2026-04-25T10:34:37.125Z</time></trkpt><trkpt lat="43.2819333" lon="10.7492117"><ele>420.0</ele><time>2026-04-25T10:34:38.134Z</time></trkpt><trkpt lat="43.2818767" lon="10.74927"><ele>420.0</ele><time>2026-04-25T10:34:39.122Z</time></trkpt><trkpt lat="43.2818267" lon="10.74935"><ele>420.0</ele><time>2026-04-25T10:34:40.12Z</time></trkpt><trkpt lat="43.281775" lon="10.7494517"><ele>422.4</ele><time>2026-04-25T10:34:41.127Z</time></trkpt><trkpt lat="43.2817217" lon="10.7495733"><ele>424.8</ele><time>2026-04-25T10:34:42.123Z</time></trkpt><trkpt lat="43.281675" lon="10.7497033"><ele>427.20000000000005</ele><time>2026-04-25T10:34:43.119Z</time></trkpt><trkpt lat="43.2816367" lon="10.7498283"><ele>429.6</ele><time>2026-04-25T10:34:44.13Z</time></trkpt><trkpt lat="43.2816117" lon="10.7499383"><ele>432.0</ele><time>2026-04-25T10:34:45.118Z</time></trkpt><trkpt lat="43.2816" lon="10.7500467"><ele>432.0</ele><time>2026-04-25T10:34:46.134Z</time></trkpt><trkpt lat="43.2816" lon="10.75015"><ele>432.0</ele><time>2026-04-25T10:34:47.124Z</time></trkpt><trkpt lat="43.2816233" lon="10.7502583"><ele>432.0</ele><time>2026-04-25T10:34:48.125Z</time></trkpt><trkpt lat="43.2816617" lon="10.7503733"><ele>432.0</ele><time>2026-04-25T10:34:49.126Z</time></trkpt><trkpt lat="43.2817117" lon="10.75048"><ele>432.0</ele><time>2026-04-25T10:34:50.119Z</time></trkpt><trkpt lat="43.28176" lon="10.75059"><ele>432.0</ele><time>2026-04-25T10:34:51.116Z</time></trkpt><trkpt lat="43.281795" lon="10.7506967"><ele>432.8333333333333</ele><time>2026-04-25T10:34:52.125Z</time></trkpt><trkpt lat="43.2818183" lon="10.7508083"><ele>433.66666666666663</ele><time>2026-04-25T10:34:53.121Z</time></trkpt><trkpt lat="43.281825" lon="10.7509217"><ele>434.5</ele><time>2026-04-25T10:34:54.133Z</time></trkpt><trkpt lat="43.2818167" lon="10.7510417"><ele>435.3333333333333</ele><time>2026-04-25T10:34:55.137Z</time></trkpt><trkpt lat="43.2818117" lon="10.751165"><ele>436.16666666666663</ele><time>2026-04-25T10:34:56.124Z</time></trkpt><trkpt lat="43.2818083" lon="10.7512933"><ele>437.0</ele><time>2026-04-25T10:34:57.121Z</time></trkpt><trkpt lat="43.2817967" lon="10.7514167"><ele>438.0</ele><time>2026-04-25T10:34:58.121Z</time></trkpt><trkpt lat="43.28178" lon="10.7515267"><ele>439.00000000000006</ele><time>2026-04-25T10:34:59.122Z</time></trkpt><trkpt lat="43.2817583" lon="10.751615"><ele>440.00000000000006</ele><time>2026-04-25T10:35:00.143Z</time></trkpt><trkpt lat="43.2817133" lon="10.7517633"><ele>441.0</ele><time>2026-04-25T10:35:02.127Z</time></trkpt><trkpt lat="43.2816483" lon="10.75189"><ele>442.0</ele><time>2026-04-25T10:35:04.119Z</time></trkpt><trkpt lat="43.2815533" lon="10.7520067"><ele>442.50000000000006</ele><time>2026-04-25T10:35:06.132Z</time></trkpt><trkpt lat="43.28149" lon="10.752055"><ele>443.0</ele><time>2026-04-25T10:35:07.127Z</time></trkpt><trkpt lat="43.2814183" lon="10.75209"><ele>443.5</ele><time>2026-04-25T10:35:08.125Z</time></trkpt><trkpt lat="43.281335" lon="10.75211"><ele>444.0</ele><time>2026-04-25T10:35:09.127Z</time></trkpt><trkpt lat="43.2812383" lon="10.7521217"><ele>444.50000000000006</ele><time>2026-04-25T10:35:10.127Z</time></trkpt><trkpt lat="43.2811233" lon="10.7521317"><ele>445.0</ele><time>2026-04-25T10:35:11.139Z</time></trkpt><trkpt lat="43.28101" lon="10.75214"><ele>446.2</ele><time>2026-04-25T10:35:12.129Z</time></trkpt><trkpt lat="43.280905" lon="10.75215"><ele>447.4</ele><time>2026-04-25T10:35:13.126Z</time></trkpt><trkpt lat="43.2808067" lon="10.7521667"><ele>448.6</ele><time>2026-04-25T10:35:14.118Z</time></trkpt><trkpt lat="43.2807133" lon="10.7521883"><ele>449.8</ele><time>2026-04-25T10:35:15.128Z</time></trkpt><trkpt lat="43.2806167" lon="10.7522267"><ele>451.0</ele><time>2026-04-25T10:35:16.131Z</time></trkpt><trkpt lat="43.280505" lon="10.752275"><ele>451.20000000000005</ele><time>2026-04-25T10:35:17.12Z</time></trkpt><trkpt lat="43.2803933" lon="10.7523217"><ele>451.40000000000003</ele><time>2026-04-25T10:35:18.124Z</time></trkpt><trkpt lat="43.28029" lon="10.7523533"><ele>451.6</ele><time>2026-04-25T10:35:19.127Z</time></trkpt><trkpt lat="43.28019" lon="10.7523833"><ele>451.8</ele><time>2026-04-25T10:35:20.121Z</time></trkpt><trkpt lat="43.2801017" lon="10.752415"><ele>452.0</ele><time>2026-04-25T10:35:21.126Z</time></trkpt><trkpt lat="43.2800233" lon="10.7524533"><ele>451.99999999999994</ele><time>2026-04-25T10:35:22.121Z</time></trkpt><trkpt lat="43.2799567" lon="10.752505"><ele>452.0</ele><time>2026-04-25T10:35:23.126Z</time></trkpt><trkpt lat="43.2799033" lon="10.75256"><ele>452.0</ele><time>2026-04-25T10:35:24.124Z</time></trkpt><trkpt lat="43.27983" lon="10.7526817"><ele>452.0</ele><time>2026-04-25T10:35:26.127Z</time></trkpt><trkpt lat="43.2798183" lon="10.7527783"><ele>451.99999999999994</ele><time>2026-04-25T10:35:27.12Z</time></trkpt><trkpt lat="43.279815" lon="10.7529217"><ele>452.0</ele><time>2026-04-25T10:35:28.119Z</time></trkpt><trkpt lat="43.2797967" lon="10.753075"><ele>451.25</ele><time>2026-04-25T10:35:29.121Z</time></trkpt><trkpt lat="43.2797683" lon="10.7532367"><ele>450.5</ele><time>2026-04-25T10:35:30.137Z</time></trkpt><trkpt lat="43.27973" lon="10.7534017"><ele>449.75</ele><time>2026-04-25T10:35:31.125Z</time></trkpt><trkpt lat="43.2796883" lon="10.7535667"><ele>449.0</ele><time>2026-04-25T10:35:32.117Z</time></trkpt><trkpt lat="43.27965" lon="10.753725"><ele>449.99999999999994</ele><time>2026-04-25T10:35:33.125Z</time></trkpt><trkpt lat="43.27962" lon="10.7538683"><ele>451.0</ele><time>2026-04-25T10:35:34.124Z</time></trkpt><trkpt lat="43.2795983" lon="10.753995"><ele>452.0</ele><time>2026-04-25T10:35:35.128Z</time></trkpt><trkpt lat="43.2795817" lon="10.7541117"><ele>453.0</ele><time>2026-04-25T10:35:36.121Z</time></trkpt><trkpt lat="43.27957" lon="10.7542133"><ele>453.99999999999994</ele><time>2026-04-25T10:35:37.119Z</time></trkpt><trkpt lat="43.279555" lon="10.754305"><ele>455.0</ele><time>2026-04-25T10:35:38.125Z</time></trkpt><trkpt lat="43.2795333" lon="10.7543967"><ele>455.49999999999994</ele><time>2026-04-25T10:35:39.122Z</time></trkpt><trkpt lat="43.2795017" lon="10.7544833"><ele>456.0</ele><time>2026-04-25T10:35:40.132Z</time></trkpt><trkpt lat="43.2794567" lon="10.7545617"><ele>456.5</ele><time>2026-04-25T10:35:41.127Z</time></trkpt><trkpt lat="43.2794" lon="10.7546383"><ele>457.0</ele><time>2026-04-25T10:35:42.121Z</time></trkpt><trkpt lat="43.2793383" lon="10.754715"><ele>457.49999999999994</ele><time>2026-04-25T10:35:43.115Z</time></trkpt><trkpt lat="43.279275" lon="10.7547867"><ele>458.0</ele><time>2026-04-25T10:35:44.116Z</time></trkpt><trkpt lat="43.27922" lon="10.75485"><ele>457.99999999999994</ele><time>2026-04-25T10:35:45.111Z</time></trkpt><trkpt lat="43.2791767" lon="10.7549183"><ele>458.0</ele><time>2026-04-25T10:35:46.122Z</time></trkpt><trkpt lat="43.279125" lon="10.755075"><ele>458.0</ele><time>2026-04-25T10:35:48.128Z</time></trkpt><trkpt lat="43.279115" lon="10.7551667"><ele>458.0</ele><time>2026-04-25T10:35:49.122Z</time></trkpt><trkpt lat="43.27912" lon="10.7552683"><ele>457.99999999999994</ele><time>2026-04-25T10:35:50.134Z</time></trkpt><trkpt lat="43.2791333" lon="10.7553817"><ele>458.0</ele><time>2026-04-25T10:35:51.122Z</time></trkpt><trkpt lat="43.27915" lon="10.7554917"><ele>458.42857142857144</ele><time>2026-04-25T10:35:52.126Z</time></trkpt><trkpt lat="43.279165" lon="10.7556017"><ele>458.8571428571429</ele><time>2026-04-25T10:35:53.125Z</time></trkpt><trkpt lat="43.279175" lon="10.755705"><ele>459.28571428571433</ele><time>2026-04-25T10:35:54.113Z</time></trkpt><trkpt lat="43.2791733" lon="10.755805"><ele>459.7142857142857</ele><time>2026-04-25T10:35:55.132Z</time></trkpt><trkpt lat="43.2791617" lon="10.7558983"><ele>460.1428571428572</ele><time>2026-04-25T10:35:56.125Z</time></trkpt><trkpt lat="43.279135" lon="10.75599"><ele>460.5714285714286</ele><time>2026-04-25T10:35:57.123Z</time></trkpt><trkpt lat="43.2791067" lon="10.7560783"><ele>461.0</ele><time>2026-04-25T10:35:58.123Z</time></trkpt><trkpt lat="43.279075" lon="10.7561717"><ele>460.99999999999994</ele><time>2026-04-25T10:35:59.119Z</time></trkpt><trkpt lat="43.2790417" lon="10.7562633"><ele>461.0</ele><time>2026-04-25T10:36:00.116Z</time></trkpt><trkpt lat="43.2790067" lon="10.75635"><ele>461.0</ele><time>2026-04-25T10:36:01.141Z</time></trkpt><trkpt lat="43.2789667" lon="10.7564267"><ele>461.0</ele><time>2026-04-25T10:36:02.122Z</time></trkpt><trkpt lat="43.27887" lon="10.756515"><ele>460.99999999999994</ele><time>2026-04-25T10:36:04.123Z</time></trkpt><trkpt lat="43.2787633" lon="10.7564967"><ele>461.0</ele><time>2026-04-25T10:36:06.133Z</time></trkpt><trkpt lat="43.2786683" lon="10.75638"><ele>461.66666666666663</ele><time>2026-04-25T10:36:08.127Z</time></trkpt><trkpt lat="43.27863" lon="10.7562967"><ele>462.3333333333333</ele><time>2026-04-25T10:36:09.127Z</time></trkpt><trkpt lat="43.27859" lon="10.7561983"><ele>463.0</ele><time>2026-04-25T10:36:10.132Z</time></trkpt><trkpt lat="43.27855" lon="10.7560983"><ele>463.66666666666663</ele><time>2026-04-25T10:36:11.125Z</time></trkpt><trkpt lat="43.2785083" lon="10.7560033"><ele>464.3333333333333</ele><time>2026-04-25T10:36:12.118Z</time></trkpt><trkpt lat="43.2784683" lon="10.7559067"><ele>465.0</ele><time>2026-04-25T10:36:13.138Z</time></trkpt><trkpt lat="43.278425" lon="10.75582"><ele>465.3333333333333</ele><time>2026-04-25T10:36:14.116Z</time></trkpt><trkpt lat="43.2783767" lon="10.75575"><ele>465.66666666666663</ele><time>2026-04-25T10:36:15.108Z</time></trkpt><trkpt lat="43.2783267" lon="10.755695"><ele>466.0</ele><time>2026-04-25T10:36:16.124Z</time></trkpt><trkpt lat="43.27827" lon="10.7556567"><ele>466.3333333333333</ele><time>2026-04-25T10:36:17.125Z</time></trkpt><trkpt lat="43.2781583" lon="10.7556467"><ele>466.66666666666663</ele><time>2026-04-25T10:36:19.118Z</time></trkpt><trkpt lat="43.2780567" lon="10.7557267"><ele>467.0</ele><time>2026-04-25T10:36:21.134Z</time></trkpt><trkpt lat="43.2779867" lon="10.7558633"><ele>468.3333333333333</ele><time>2026-04-25T10:36:23.128Z</time></trkpt><trkpt lat="43.277955" lon="10.7559517"><ele>469.66666666666663</ele><time>2026-04-25T10:36:24.136Z</time></trkpt><trkpt lat="43.2779183" lon="10.7560433"><ele>471.0</ele><time>2026-04-25T10:36:25.127Z</time></trkpt><trkpt lat="43.27788" lon="10.75614"><ele>472.33333333333337</ele><time>2026-04-25T10:36:26.124Z</time></trkpt><trkpt lat="43.2778367" lon="10.7562367"><ele>473.6666666666667</ele><time>2026-04-25T10:36:27.133Z</time></trkpt><trkpt lat="43.27779" lon="10.75633"><ele>475.0</ele><time>2026-04-25T10:36:28.131Z</time></trkpt><trkpt lat="43.2777433" lon="10.75642"><ele>475.00000000000006</ele><time>2026-04-25T10:36:29.126Z</time></trkpt><trkpt lat="43.2776933" lon="10.7565033"><ele>475.0</ele><time>2026-04-25T10:36:30.131Z</time></trkpt><trkpt lat="43.27764" lon="10.7565767"><ele>475.0</ele><time>2026-04-25T10:36:31.136Z</time></trkpt><trkpt lat="43.2775783" lon="10.7566433"><ele>475.0</ele><time>2026-04-25T10:36:32.128Z</time></trkpt><trkpt lat="43.2775083" lon="10.7566967"><ele>475.00000000000006</ele><time>2026-04-25T10:36:33.127Z</time></trkpt><trkpt lat="43.277425" lon="10.75674"><ele>475.0</ele><time>2026-04-25T10:36:34.12Z</time></trkpt><trkpt lat="43.277335" lon="10.7567783"><ele>475.2</ele><time>2026-04-25T10:36:35.135Z</time></trkpt><trkpt lat="43.2772417" lon="10.7568167"><ele>475.4</ele><time>2026-04-25T10:36:36.121Z</time></trkpt><trkpt lat="43.2771483" lon="10.7568533"><ele>475.6</ele><time>2026-04-25T10:36:37.13Z</time></trkpt><trkpt lat="43.27706" lon="10.7568883"><ele>475.8</ele><time>2026-04-25T10:36:38.124Z</time></trkpt><trkpt lat="43.276975" lon="10.7569217"><ele>476.0</ele><time>2026-04-25T10:36:39.128Z</time></trkpt><trkpt lat="43.2768883" lon="10.7569483"><ele>475.99999999999994</ele><time>2026-04-25T10:36:40.135Z</time></trkpt><trkpt lat="43.2768" lon="10.7569683"><ele>476.0</ele><time>2026-04-25T10:36:41.125Z</time></trkpt><trkpt lat="43.276715" lon="10.7569783"><ele>476.0</ele><time>2026-04-25T10:36:42.126Z</time></trkpt><trkpt lat="43.2766317" lon="10.7569783"><ele>476.0</ele><time>2026-04-25T10:36:43.13Z</time></trkpt><trkpt lat="43.276555" lon="10.756985"><ele>475.99999999999994</ele><time>2026-04-25T10:36:44.127Z</time></trkpt><trkpt lat="43.2764867" lon="10.7570017"><ele>476.0</ele><time>2026-04-25T10:36:45.132Z</time></trkpt><trkpt lat="43.2764267" lon="10.7570333"><ele>478.16666666666663</ele><time>2026-04-25T10:36:46.134Z</time></trkpt><trkpt lat="43.2763717" lon="10.7570833"><ele>480.3333333333333</ele><time>2026-04-25T10:36:47.127Z</time></trkpt><trkpt lat="43.27632" lon="10.75715"><ele>482.5</ele><time>2026-04-25T10:36:48.132Z</time></trkpt><trkpt lat="43.2762683" lon="10.7572333"><ele>484.66666666666663</ele><time>2026-04-25T10:36:49.133Z</time></trkpt><trkpt lat="43.2762183" lon="10.7573233"><ele>486.8333333333333</ele><time>2026-04-25T10:36:50.126Z</time></trkpt><trkpt lat="43.27617" lon="10.757415"><ele>489.0</ele><time>2026-04-25T10:36:51.131Z</time></trkpt><trkpt lat="43.27613" lon="10.7575083"><ele>489.0</ele><time>2026-04-25T10:36:52.126Z</time></trkpt><trkpt lat="43.2760983" lon="10.7576083"><ele>489.0</ele><time>2026-04-25T10:36:53.125Z</time></trkpt><trkpt lat="43.276075" lon="10.7577067"><ele>489.0</ele><time>2026-04-25T10:36:54.121Z</time></trkpt><trkpt lat="43.2760583" lon="10.7578167"><ele>489.0</ele><time>2026-04-25T10:36:55.132Z</time></trkpt><trkpt lat="43.2760433" lon="10.7579317"><ele>489.0</ele><time>2026-04-25T10:36:56.128Z</time></trkpt><trkpt lat="43.2760317" lon="10.758045"><ele>489.0</ele><time>2026-04-25T10:36:57.124Z</time></trkpt><trkpt lat="43.276025" lon="10.7581667"><ele>489.0</ele><time>2026-04-25T10:36:58.13Z</time></trkpt><trkpt lat="43.2760183" lon="10.7582867"><ele>489.0</ele><time>2026-04-25T10:36:59.129Z</time></trkpt><trkpt lat="43.2760167" lon="10.7584083"><ele>489.0</ele><time>2026-04-25T10:37:00.128Z</time></trkpt><trkpt lat="43.2760083" lon="10.7585233"><ele>489.0</ele><time>2026-04-25T10:37:01.132Z</time></trkpt><trkpt lat="43.27599" lon="10.758625"><ele>489.0</ele><time>2026-04-25T10:37:02.131Z</time></trkpt><trkpt lat="43.2759617" lon="10.7587083"><ele>489.0</ele><time>2026-04-25T10:37:03.129Z</time></trkpt><trkpt lat="43.2759167" lon="10.7587733"><ele>488.8333333333333</ele><time>2026-04-25T10:37:04.133Z</time></trkpt><trkpt lat="43.2758583" lon="10.75882"><ele>488.66666666666663</ele><time>2026-04-25T10:37:05.126Z</time></trkpt><trkpt lat="43.27579" lon="10.7588467"><ele>488.5</ele><time>2026-04-25T10:37:06.116Z</time></trkpt><trkpt lat="43.2757183" lon="10.7588483"><ele>488.3333333333333</ele><time>2026-04-25T10:37:07.131Z</time></trkpt><trkpt lat="43.2756417" lon="10.75883"><ele>488.16666666666663</ele><time>2026-04-25T10:37:08.119Z</time></trkpt><trkpt lat="43.2755633" lon="10.7587983"><ele>488.0</ele><time>2026-04-25T10:37:09.128Z</time></trkpt><trkpt lat="43.2754833" lon="10.758755"><ele>488.8333333333333</ele><time>2026-04-25T10:37:10.134Z</time></trkpt><trkpt lat="43.2754117" lon="10.7587"><ele>489.66666666666663</ele><time>2026-04-25T10:37:11.129Z</time></trkpt><trkpt lat="43.2753433" lon="10.758655"><ele>490.5</ele><time>2026-04-25T10:37:12.125Z</time></trkpt><trkpt lat="43.2752817" lon="10.7586283"><ele>491.33333333333337</ele><time>2026-04-25T10:37:13.132Z</time></trkpt><trkpt lat="43.2751567" lon="10.7586583"><ele>492.1666666666667</ele><time>2026-04-25T10:37:15.125Z</time></trkpt><trkpt lat="43.2750983" lon="10.7587217"><ele>493.0</ele><time>2026-04-25T10:37:16.121Z</time></trkpt><trkpt lat="43.2750417" lon="10.7588033"><ele>493.0</ele><time>2026-04-25T10:37:17.128Z</time></trkpt><trkpt lat="43.2749867" lon="10.7588833"><ele>493.0</ele><time>2026-04-25T10:37:18.127Z</time></trkpt><trkpt lat="43.2749317" lon="10.7589517"><ele>493.0</ele><time>2026-04-25T10:37:19.138Z</time></trkpt><trkpt lat="43.2748717" lon="10.758995"><ele>493.0</ele><time>2026-04-25T10:37:20.123Z</time></trkpt><trkpt lat="43.2748067" lon="10.7590083"><ele>493.0</ele><time>2026-04-25T10:37:21.132Z</time></trkpt><trkpt lat="43.2747333" lon="10.7589967"><ele>493.0</ele><time>2026-04-25T10:37:22.129Z</time></trkpt><trkpt lat="43.2746533" lon="10.7589717"><ele>493.0</ele><time>2026-04-25T10:37:23.137Z</time></trkpt><trkpt lat="43.2745733" lon="10.7589467"><ele>493.4</ele><time>2026-04-25T10:37:24.13Z</time></trkpt><trkpt lat="43.2744967" lon="10.7589383"><ele>493.79999999999995</ele><time>2026-04-25T10:37:25.129Z</time></trkpt><trkpt lat="43.274415" lon="10.7589533"><ele>494.2</ele><time>2026-04-25T10:37:26.13Z</time></trkpt><trkpt lat="43.274325" lon="10.7589967"><ele>494.6</ele><time>2026-04-25T10:37:27.127Z</time></trkpt><trkpt lat="43.2742283" lon="10.7590467"><ele>495.0</ele><time>2026-04-25T10:37:28.126Z</time></trkpt><trkpt lat="43.2741267" lon="10.7590933"><ele>495.0</ele><time>2026-04-25T10:37:29.138Z</time></trkpt><trkpt lat="43.2740283" lon="10.7591317"><ele>495.0</ele><time>2026-04-25T10:37:30.132Z</time></trkpt><trkpt lat="43.2739317" lon="10.7591667"><ele>495.0</ele><time>2026-04-25T10:37:31.125Z</time></trkpt><trkpt lat="43.2738417" lon="10.759195"><ele>495.0</ele><time>2026-04-25T10:37:32.137Z</time></trkpt><trkpt lat="43.27376" lon="10.75922"><ele>495.0</ele><time>2026-04-25T10:37:33.138Z</time></trkpt><trkpt lat="43.27369" lon="10.7592533"><ele>494.6</ele><time>2026-04-25T10:37:34.129Z</time></trkpt><trkpt lat="43.2735933" lon="10.7593267"><ele>494.2</ele><time>2026-04-25T10:37:36.118Z</time></trkpt><trkpt lat="43.2735167" lon="10.759385"><ele>493.79999999999995</ele><time>2026-04-25T10:37:38.122Z</time></trkpt><trkpt lat="43.2734183" lon="10.75948"><ele>493.4</ele><time>2026-04-25T10:37:40.124Z</time></trkpt><trkpt lat="43.2733583" lon="10.75955"><ele>493.0</ele><time>2026-04-25T10:37:41.118Z</time></trkpt><trkpt lat="43.2732933" lon="10.7596383"><ele>493.00000000000006</ele><time>2026-04-25T10:37:42.129Z</time></trkpt><trkpt lat="43.273225" lon="10.75973"><ele>493.0</ele><time>2026-04-25T10:37:43.122Z</time></trkpt><trkpt lat="43.273155" lon="10.75982"><ele>493.0</ele><time>2026-04-25T10:37:44.117Z</time></trkpt><trkpt lat="43.2730883" lon="10.7599033"><ele>493.0</ele><time>2026-04-25T10:37:45.127Z</time></trkpt><trkpt lat="43.273025" lon="10.75998"><ele>493.00000000000006</ele><time>2026-04-25T10:37:46.125Z</time></trkpt><trkpt lat="43.2729667" lon="10.7600467"><ele>493.0</ele><time>2026-04-25T10:37:47.119Z</time></trkpt><trkpt lat="43.2729067" lon="10.7601083"><ele>491.33333333333337</ele><time>2026-04-25T10:37:48.13Z</time></trkpt><trkpt lat="43.2728433" lon="10.7601533"><ele>489.6666666666667</ele><time>2026-04-25T10:37:49.128Z</time></trkpt><trkpt lat="43.27277" lon="10.76018"><ele>488.0</ele><time>2026-04-25T10:37:50.132Z</time></trkpt><trkpt lat="43.2726883" lon="10.7601883"><ele>486.33333333333337</ele><time>2026-04-25T10:37:51.126Z</time></trkpt><trkpt lat="43.2726033" lon="10.7601783"><ele>484.6666666666667</ele><time>2026-04-25T10:37:52.124Z</time></trkpt><trkpt lat="43.2725183" lon="10.760155"><ele>483.0</ele><time>2026-04-25T10:37:53.126Z</time></trkpt><trkpt lat="43.2724383" lon="10.7601267"><ele>483.0</ele><time>2026-04-25T10:37:54.125Z</time></trkpt><trkpt lat="43.27236" lon="10.7600983"><ele>483.0</ele><time>2026-04-25T10:37:55.145Z</time></trkpt><trkpt lat="43.2722817" lon="10.7600817"><ele>483.0</ele><time>2026-04-25T10:37:56.123Z</time></trkpt><trkpt lat="43.2722033" lon="10.7600783"><ele>483.0</ele><time>2026-04-25T10:37:57.125Z</time></trkpt><trkpt lat="43.272135" lon="10.7600833"><ele>483.0</ele><time>2026-04-25T10:37:58.122Z</time></trkpt><trkpt lat="43.2720717" lon="10.7601017"><ele>483.0</ele><time>2026-04-25T10:37:59.137Z</time></trkpt><trkpt lat="43.2720133" lon="10.7601417"><ele>483.0</ele><time>2026-04-25T10:38:00.122Z</time></trkpt><trkpt lat="43.2719633" lon="10.760195"><ele>481.8571428571429</ele><time>2026-04-25T10:38:01.133Z</time></trkpt><trkpt lat="43.2719167" lon="10.76026"><ele>480.7142857142857</ele><time>2026-04-25T10:38:02.119Z</time></trkpt><trkpt lat="43.2718733" lon="10.7603317"><ele>479.57142857142856</ele><time>2026-04-25T10:38:03.127Z</time></trkpt><trkpt lat="43.2718367" lon="10.76041"><ele>478.42857142857144</ele><time>2026-04-25T10:38:04.126Z</time></trkpt><trkpt lat="43.27181" lon="10.760495"><ele>477.28571428571433</ele><time>2026-04-25T10:38:05.127Z</time></trkpt><trkpt lat="43.2717867" lon="10.760585"><ele>476.14285714285717</ele><time>2026-04-25T10:38:06.126Z</time></trkpt><trkpt lat="43.271765" lon="10.7606717"><ele>475.0</ele><time>2026-04-25T10:38:07.121Z</time></trkpt><trkpt lat="43.2717333" lon="10.7608233"><ele>475.00000000000006</ele><time>2026-04-25T10:38:09.125Z</time></trkpt><trkpt lat="43.2717017" lon="10.7609483"><ele>475.0</ele><time>2026-04-25T10:38:11.13Z</time></trkpt><trkpt lat="43.2716633" lon="10.7610583"><ele>475.0</ele><time>2026-04-25T10:38:13.128Z</time></trkpt><trkpt lat="43.2716167" lon="10.7611567"><ele>475.0</ele><time>2026-04-25T10:38:15.133Z</time></trkpt><trkpt lat="43.271545" lon="10.7612267"><ele>475.00000000000006</ele><time>2026-04-25T10:38:17.127Z</time></trkpt><trkpt lat="43.2714867" lon="10.76126"><ele>475.0</ele><time>2026-04-25T10:38:19.126Z</time></trkpt><trkpt lat="43.2713917" lon="10.7612983"><ele>472.2</ele><time>2026-04-25T10:38:28.121Z</time></trkpt><trkpt lat="43.2712617" lon="10.7613067"><ele>469.4</ele><time>2026-04-25T10:38:30.123Z</time></trkpt><trkpt lat="43.2711883" lon="10.7613117"><ele>466.6</ele><time>2026-04-25T10:38:31.124Z</time></trkpt><trkpt lat="43.2711183" lon="10.7613133"><ele>463.8</ele><time>2026-04-25T10:38:32.133Z</time></trkpt><trkpt lat="43.271" lon="10.7612883"><ele>461.0</ele><time>2026-04-25T10:38:34.134Z</time></trkpt><trkpt lat="43.2709" lon="10.76123"><ele>461.0</ele><time>2026-04-25T10:38:36.128Z</time></trkpt><trkpt lat="43.2708433" lon="10.76117"><ele>461.00000000000006</ele><time>2026-04-25T10:38:38.116Z</time></trkpt><trkpt lat="43.2707783" lon="10.7611533"><ele>461.0</ele><time>2026-04-25T10:38:51.124Z</time></trkpt><trkpt lat="43.2708517" lon="10.7611983"><ele>461.0</ele><time>2026-04-25T10:38:58.126Z</time></trkpt><trkpt lat="43.27091" lon="10.7612333"><ele>461.00000000000006</ele><time>2026-04-25T10:38:59.129Z</time></trkpt><trkpt lat="43.2709783" lon="10.7612633"><ele>461.0</ele><time>2026-04-25T10:39:00.13Z</time></trkpt><trkpt lat="43.271055" lon="10.7612833"><ele>461.0</ele><time>2026-04-25T10:39:01.135Z</time></trkpt><trkpt lat="43.2711367" lon="10.7612917"><ele>460.99999999999994</ele><time>2026-04-25T10:39:02.123Z</time></trkpt><trkpt lat="43.27122" lon="10.7612917"><ele>461.0</ele><time>2026-04-25T10:39:03.123Z</time></trkpt><trkpt lat="43.2713117" lon="10.76129"><ele>461.0</ele><time>2026-04-25T10:39:04.121Z</time></trkpt><trkpt lat="43.2714017" lon="10.7612833"><ele>461.0</ele><time>2026-04-25T10:39:05.134Z</time></trkpt><trkpt lat="43.27148" lon="10.761265"><ele>460.99999999999994</ele><time>2026-04-25T10:39:06.125Z</time></trkpt><trkpt lat="43.2715467" lon="10.7612383"><ele>461.0</ele><time>2026-04-25T10:39:07.125Z</time></trkpt><trkpt lat="43.27163" lon="10.7611533"><ele>463.3333333333333</ele><time>2026-04-25T10:39:09.126Z</time></trkpt><trkpt lat="43.27169" lon="10.7610167"><ele>465.66666666666663</ele><time>2026-04-25T10:39:11.123Z</time></trkpt><trkpt lat="43.2717133" lon="10.7609267"><ele>468.0</ele><time>2026-04-25T10:39:12.122Z</time></trkpt><trkpt lat="43.27173" lon="10.7608383"><ele>470.33333333333337</ele><time>2026-04-25T10:39:13.126Z</time></trkpt><trkpt lat="43.27175" lon="10.7606933"><ele>472.6666666666667</ele><time>2026-04-25T10:39:15.124Z</time></trkpt><trkpt lat="43.2717267" lon="10.7605967"><ele>475.0</ele><time>2026-04-25T10:39:17.125Z</time></trkpt><trkpt lat="43.27169" lon="10.760525"><ele>475.0</ele><time>2026-04-25T10:39:19.119Z</time></trkpt><trkpt lat="43.2716217" lon="10.7604767"><ele>475.00000000000006</ele><time>2026-04-25T10:39:21.127Z</time></trkpt><trkpt lat="43.2715467" lon="10.7604367"><ele>475.0</ele><time>2026-04-25T10:39:23.137Z</time></trkpt><trkpt lat="43.2714867" lon="10.7603883"><ele>475.0</ele><time>2026-04-25T10:39:25.132Z</time></trkpt><trkpt lat="43.27141" lon="10.7603433"><ele>475.00000000000006</ele><time>2026-04-25T10:39:28.128Z</time></trkpt><trkpt lat="43.271345" lon="10.7603317"><ele>475.0</ele><time>2026-04-25T10:39:30.128Z</time></trkpt><trkpt lat="43.2712833" lon="10.7602983"><ele>475.0</ele><time>2026-04-25T10:39:32.136Z</time></trkpt><trkpt lat="43.271235" lon="10.7602417"><ele>473.6666666666667</ele><time>2026-04-25T10:39:34.134Z</time></trkpt><trkpt lat="43.271165" lon="10.7602217"><ele>472.33333333333337</ele><time>2026-04-25T10:39:37.132Z</time></trkpt><trkpt lat="43.2711267" lon="10.7602917"><ele>471.0</ele><time>2026-04-25T10:39:40.121Z</time></trkpt><trkpt lat="43.27116" lon="10.7604067"><ele>469.66666666666663</ele><time>2026-04-25T10:39:43.124Z</time></trkpt><trkpt lat="43.2712167" lon="10.7605267"><ele>468.3333333333333</ele><time>2026-04-25T10:39:45.125Z</time></trkpt><trkpt lat="43.271275" lon="10.7606433"><ele>467.0</ele><time>2026-04-25T10:39:47.122Z</time></trkpt><trkpt lat="43.27132" lon="10.7607483"><ele>466.99999999999994</ele><time>2026-04-25T10:39:49.127Z</time></trkpt><trkpt lat="43.2713633" lon="10.760815"><ele>467.0</ele><time>2026-04-25T10:39:51.132Z</time></trkpt><trkpt lat="43.2714333" lon="10.7608"><ele>466.99999999999994</ele><time>2026-04-25T10:39:56.141Z</time></trkpt><trkpt lat="43.2714767" lon="10.7606967"><ele>466.99999999999994</ele><time>2026-04-25T10:44:59.126Z</time></trkpt><trkpt lat="43.271525" lon="10.7606367"><ele>467.0</ele><time>2026-04-25T10:45:03.122Z</time></trkpt><trkpt lat="43.271525" lon="10.7605467"><ele>466.99999999999994</ele><time>2026-04-25T10:45:11.135Z</time></trkpt><trkpt lat="43.2714967" lon="10.7604533"><ele>466.99999999999994</ele><time>2026-04-25T10:45:15.122Z</time></trkpt><trkpt lat="43.271555" lon="10.760415"><ele>468.3333333333333</ele><time>2026-04-25T10:45:20.118Z</time></trkpt><trkpt lat="43.2716217" lon="10.76053"><ele>469.66666666666663</ele><time>2026-04-25T10:45:22.126Z</time></trkpt><trkpt lat="43.2716733" lon="10.7606083"><ele>471.0</ele><time>2026-04-25T10:45:24.117Z</time></trkpt><trkpt lat="43.2717283" lon="10.7606883"><ele>472.33333333333337</ele><time>2026-04-25T10:45:27.123Z</time></trkpt><trkpt lat="43.271735" lon="10.7607783"><ele>473.6666666666667</ele><time>2026-04-25T10:45:30.136Z</time></trkpt><trkpt lat="43.27171" lon="10.7609017"><ele>475.0</ele><time>2026-04-25T10:45:48.126Z</time></trkpt><trkpt lat="43.2716783" lon="10.7610133"><ele>472.2</ele><time>2026-04-25T10:45:50.118Z</time></trkpt><trkpt lat="43.2716267" lon="10.76112"><ele>469.4</ele><time>2026-04-25T10:45:52.13Z</time></trkpt><trkpt lat="43.2715433" lon="10.7612033"><ele>466.6</ele><time>2026-04-25T10:45:54.117Z</time></trkpt><trkpt lat="43.271425" lon="10.7612617"><ele>463.8</ele><time>2026-04-25T10:45:56.128Z</time></trkpt><trkpt lat="43.27135" lon="10.7612783"><ele>461.0</ele><time>2026-04-25T10:45:57.129Z</time></trkpt><trkpt lat="43.2712767" lon="10.7612833"><ele>461.0</ele><time>2026-04-25T10:45:58.119Z</time></trkpt><trkpt lat="43.271205" lon="10.761285"><ele>461.0</ele><time>2026-04-25T10:45:59.113Z</time></trkpt><trkpt lat="43.2711383" lon="10.7612883"><ele>461.0</ele><time>2026-04-25T10:46:00.118Z</time></trkpt><trkpt lat="43.2710183" lon="10.7612817"><ele>461.0</ele><time>2026-04-25T10:46:02.125Z</time></trkpt><trkpt lat="43.2709067" lon="10.7612367"><ele>461.0</ele><time>2026-04-25T10:46:04.125Z</time></trkpt><trkpt lat="43.2708183" lon="10.7611467"><ele>462.20000000000005</ele><time>2026-04-25T10:46:06.115Z</time></trkpt><trkpt lat="43.2707767" lon="10.7610167"><ele>463.40000000000003</ele><time>2026-04-25T10:46:08.118Z</time></trkpt><trkpt lat="43.2707817" lon="10.76084"><ele>464.6</ele><time>2026-04-25T10:46:10.122Z</time></trkpt><trkpt lat="43.2707867" lon="10.76074"><ele>465.8</ele><time>2026-04-25T10:46:11.122Z</time></trkpt><trkpt lat="43.2707883" lon="10.7606383"><ele>467.0</ele><time>2026-04-25T10:46:12.127Z</time></trkpt><trkpt lat="43.27079" lon="10.7605367"><ele>466.99999999999994</ele><time>2026-04-25T10:46:13.13Z</time></trkpt><trkpt lat="43.27079" lon="10.7604333"><ele>467.0</ele><time>2026-04-25T10:46:14.134Z</time></trkpt><trkpt lat="43.2707967" lon="10.760325"><ele>467.0</ele><time>2026-04-25T10:46:15.124Z</time></trkpt><trkpt lat="43.2708033" lon="10.76022"><ele>467.0</ele><time>2026-04-25T10:46:16.118Z</time></trkpt><trkpt lat="43.2708133" lon="10.7601167"><ele>466.99999999999994</ele><time>2026-04-25T10:46:17.133Z</time></trkpt><trkpt lat="43.2708233" lon="10.7600133"><ele>467.0</ele><time>2026-04-25T10:46:18.114Z</time></trkpt><trkpt lat="43.2708333" lon="10.75991"><ele>466.1428571428571</ele><time>2026-04-25T10:46:19.11Z</time></trkpt><trkpt lat="43.2708333" lon="10.7598017"><ele>465.2857142857143</ele><time>2026-04-25T10:46:20.113Z</time></trkpt><trkpt lat="43.2708267" lon="10.7596983"><ele>464.42857142857144</ele><time>2026-04-25T10:46:21.108Z</time></trkpt><trkpt lat="43.27081" lon="10.7596033"><ele>463.57142857142856</ele><time>2026-04-25T10:46:22.131Z</time></trkpt><trkpt lat="43.2707867" lon="10.7595167"><ele>462.7142857142858</ele><time>2026-04-25T10:46:23.125Z</time></trkpt><trkpt lat="43.2707717" lon="10.75943"><ele>461.8571428571429</ele><time>2026-04-25T10:46:24.124Z</time></trkpt><trkpt lat="43.2707717" lon="10.7593417"><ele>461.0</ele><time>2026-04-25T10:46:25.121Z</time></trkpt><trkpt lat="43.2707867" lon="10.759255"><ele>460.8333333333333</ele><time>2026-04-25T10:46:26.12Z</time></trkpt><trkpt lat="43.2708133" lon="10.7591667"><ele>460.66666666666663</ele><time>2026-04-25T10:46:27.124Z</time></trkpt><trkpt lat="43.270845" lon="10.759065"><ele>460.5</ele><time>2026-04-25T10:46:28.124Z</time></trkpt><trkpt lat="43.270875" lon="10.7589483"><ele>460.33333333333337</ele><time>2026-04-25T10:46:29.13Z</time></trkpt><trkpt lat="43.270895" lon="10.7588233"><ele>460.1666666666667</ele><time>2026-04-25T10:46:30.122Z</time></trkpt><trkpt lat="43.2709167" lon="10.7587"><ele>460.0</ele><time>2026-04-25T10:46:31.117Z</time></trkpt><trkpt lat="43.270935" lon="10.7585867"><ele>459.42857142857133</ele><time>2026-04-25T10:46:32.118Z</time></trkpt><trkpt lat="43.27095" lon="10.7584883"><ele>458.85714285714283</ele><time>2026-04-25T10:46:33.123Z</time></trkpt><trkpt lat="43.2709567" lon="10.7584"><ele>458.2857142857142</ele><time>2026-04-25T10:46:34.114Z</time></trkpt><trkpt lat="43.27095" lon="10.7583117"><ele>457.71428571428567</ele><time>2026-04-25T10:46:35.118Z</time></trkpt><trkpt lat="43.270925" lon="10.7582217"><ele>457.1428571428571</ele><time>2026-04-25T10:46:36.128Z</time></trkpt><trkpt lat="43.2708833" lon="10.758125"><ele>456.57142857142856</ele><time>2026-04-25T10:46:37.135Z</time></trkpt><trkpt lat="43.2708433" lon="10.75803"><ele>456.0</ele><time>2026-04-25T10:46:38.138Z</time></trkpt><trkpt lat="43.2708083" lon="10.7579317"><ele>456.0</ele><time>2026-04-25T10:46:39.118Z</time></trkpt><trkpt lat="43.270785" lon="10.757835"><ele>455.99999999999994</ele><time>2026-04-25T10:46:40.135Z</time></trkpt><trkpt lat="43.2707767" lon="10.757735"><ele>456.0</ele><time>2026-04-25T10:46:41.124Z</time></trkpt><trkpt lat="43.27078" lon="10.7576367"><ele>456.0</ele><time>2026-04-25T10:46:42.125Z</time></trkpt><trkpt lat="43.2707883" lon="10.7575433"><ele>455.99999999999994</ele><time>2026-04-25T10:46:43.129Z</time></trkpt><trkpt lat="43.270795" lon="10.7574517"><ele>456.0</ele><time>2026-04-25T10:46:44.118Z</time></trkpt><trkpt lat="43.2707933" lon="10.75736"><ele>456.0</ele><time>2026-04-25T10:46:45.135Z</time></trkpt><trkpt lat="43.2707783" lon="10.757275"><ele>455.5</ele><time>2026-04-25T10:46:46.13Z</time></trkpt><trkpt lat="43.27074" lon="10.7571933"><ele>455.0</ele><time>2026-04-25T10:46:47.127Z</time></trkpt><trkpt lat="43.2706817" lon="10.7571167"><ele>454.5</ele><time>2026-04-25T10:46:48.131Z</time></trkpt><trkpt lat="43.2706017" lon="10.7570467"><ele>454.0</ele><time>2026-04-25T10:46:49.123Z</time></trkpt><trkpt lat="43.270515" lon="10.7569883"><ele>453.5</ele><time>2026-04-25T10:46:50.129Z</time></trkpt><trkpt lat="43.27042" lon="10.75694"><ele>453.0</ele><time>2026-04-25T10:46:51.122Z</time></trkpt><trkpt lat="43.27032" lon="10.7569033"><ele>450.5</ele><time>2026-04-25T10:46:52.128Z</time></trkpt><trkpt lat="43.2702117" lon="10.756875"><ele>448.0</ele><time>2026-04-25T10:46:53.123Z</time></trkpt><trkpt lat="43.2700967" lon="10.7568567"><ele>445.5</ele><time>2026-04-25T10:46:54.123Z</time></trkpt><trkpt lat="43.2699767" lon="10.7568467"><ele>443.0</ele><time>2026-04-25T10:46:55.133Z</time></trkpt><trkpt lat="43.269855" lon="10.7568383"><ele>442.4</ele><time>2026-04-25T10:46:56.129Z</time></trkpt><trkpt lat="43.2697417" lon="10.7568117"><ele>441.79999999999995</ele><time>2026-04-25T10:46:57.125Z</time></trkpt><trkpt lat="43.2696333" lon="10.7567683"><ele>441.2</ele><time>2026-04-25T10:46:58.124Z</time></trkpt><trkpt lat="43.2695317" lon="10.7567133"><ele>440.6</ele><time>2026-04-25T10:46:59.132Z</time></trkpt><trkpt lat="43.269435" lon="10.7566467"><ele>440.0</ele><time>2026-04-25T10:47:00.134Z</time></trkpt><trkpt lat="43.26934" lon="10.7565767"><ele>440.0</ele><time>2026-04-25T10:47:01.134Z</time></trkpt><trkpt lat="43.269245" lon="10.7565033"><ele>440.0</ele><time>2026-04-25T10:47:02.126Z</time></trkpt><trkpt lat="43.2691517" lon="10.7564283"><ele>440.0</ele><time>2026-04-25T10:47:03.131Z</time></trkpt><trkpt lat="43.26906" lon="10.7563483"><ele>440.0</ele><time>2026-04-25T10:47:04.129Z</time></trkpt><trkpt lat="43.26897" lon="10.756255"><ele>440.0</ele><time>2026-04-25T10:47:05.131Z</time></trkpt><trkpt lat="43.2688833" lon="10.7561583"><ele>440.6</ele><time>2026-04-25T10:47:06.123Z</time></trkpt><trkpt lat="43.2687983" lon="10.7560617"><ele>441.2</ele><time>2026-04-25T10:47:07.123Z</time></trkpt><trkpt lat="43.268715" lon="10.75597"><ele>441.79999999999995</ele><time>2026-04-25T10:47:08.112Z</time></trkpt><trkpt lat="43.268635" lon="10.75588"><ele>442.4</ele><time>2026-04-25T10:47:09.113Z</time></trkpt><trkpt lat="43.2685583" lon="10.75579"><ele>443.0</ele><time>2026-04-25T10:47:10.112Z</time></trkpt><trkpt lat="43.2684833" lon="10.7557033"><ele>442.99999999999994</ele><time>2026-04-25T10:47:11.118Z</time></trkpt><trkpt lat="43.2684117" lon="10.7556133"><ele>443.0</ele><time>2026-04-25T10:47:12.116Z</time></trkpt><trkpt lat="43.2683467" lon="10.75552"><ele>443.0</ele><time>2026-04-25T10:47:13.117Z</time></trkpt><trkpt lat="43.2682883" lon="10.7554283"><ele>443.0</ele><time>2026-04-25T10:47:14.113Z</time></trkpt><trkpt lat="43.2682383" lon="10.7553367"><ele>442.99999999999994</ele><time>2026-04-25T10:47:15.123Z</time></trkpt><trkpt lat="43.2681933" lon="10.7552467"><ele>443.0</ele><time>2026-04-25T10:47:16.124Z</time></trkpt><trkpt lat="43.26815" lon="10.7551617"><ele>442.8333333333333</ele><time>2026-04-25T10:47:17.131Z</time></trkpt><trkpt lat="43.2681033" lon="10.7550933"><ele>442.66666666666663</ele><time>2026-04-25T10:47:18.156Z</time></trkpt><trkpt lat="43.268005" lon="10.7550383"><ele>442.5</ele><time>2026-04-25T10:47:20.134Z</time></trkpt><trkpt lat="43.2678983" lon="10.755095"><ele>442.33333333333337</ele><time>2026-04-25T10:47:22.122Z</time></trkpt><trkpt lat="43.2678417" lon="10.7551517"><ele>442.1666666666667</ele><time>2026-04-25T10:47:23.13Z</time></trkpt><trkpt lat="43.267775" lon="10.755225"><ele>442.0</ele><time>2026-04-25T10:47:24.123Z</time></trkpt><trkpt lat="43.2677033" lon="10.7553"><ele>442.00000000000006</ele><time>2026-04-25T10:47:25.129Z</time></trkpt><trkpt lat="43.2676267" lon="10.7553667"><ele>442.0</ele><time>2026-04-25T10:47:26.14Z</time></trkpt><trkpt lat="43.2675467" lon="10.755415"><ele>442.0</ele><time>2026-04-25T10:47:27.122Z</time></trkpt><trkpt lat="43.267465" lon="10.7554533"><ele>442.0</ele><time>2026-04-25T10:47:28.131Z</time></trkpt><trkpt lat="43.2673817" lon="10.7554783"><ele>442.00000000000006</ele><time>2026-04-25T10:47:29.137Z</time></trkpt><trkpt lat="43.2672967" lon="10.7554833"><ele>442.0</ele><time>2026-04-25T10:47:30.123Z</time></trkpt><trkpt lat="43.26721" lon="10.755465"><ele>440.0</ele><time>2026-04-25T10:47:31.125Z</time></trkpt><trkpt lat="43.267125" lon="10.7554333"><ele>438.00000000000006</ele><time>2026-04-25T10:47:32.124Z</time></trkpt><trkpt lat="43.26704" lon="10.7553933"><ele>436.00000000000006</ele><time>2026-04-25T10:47:33.132Z</time></trkpt><trkpt lat="43.266955" lon="10.755345"><ele>434.0</ele><time>2026-04-25T10:47:34.127Z</time></trkpt><trkpt lat="43.2668733" lon="10.755295"><ele>432.0</ele><time>2026-04-25T10:47:35.131Z</time></trkpt><trkpt lat="43.26679" lon="10.755235"><ele>433.6666666666667</ele><time>2026-04-25T10:47:36.135Z</time></trkpt><trkpt lat="43.2667083" lon="10.7551733"><ele>435.33333333333337</ele><time>2026-04-25T10:47:37.142Z</time></trkpt><trkpt lat="43.2666333" lon="10.7551133"><ele>437.0</ele><time>2026-04-25T10:47:38.117Z</time></trkpt><trkpt lat="43.266565" lon="10.7550567"><ele>438.6666666666667</ele><time>2026-04-25T10:47:39.12Z</time></trkpt><trkpt lat="43.2665017" lon="10.7550067"><ele>440.33333333333337</ele><time>2026-04-25T10:47:40.132Z</time></trkpt><trkpt lat="43.26644" lon="10.7549633"><ele>442.0</ele><time>2026-04-25T10:47:41.13Z</time></trkpt><trkpt lat="43.2663717" lon="10.7549267"><ele>443.28571428571433</ele><time>2026-04-25T10:47:42.132Z</time></trkpt><trkpt lat="43.2663017" lon="10.754905"><ele>444.57142857142856</ele><time>2026-04-25T10:47:43.132Z</time></trkpt><trkpt lat="43.2662333" lon="10.7548917"><ele>445.8571428571429</ele><time>2026-04-25T10:47:44.12Z</time></trkpt><trkpt lat="43.266165" lon="10.7548867"><ele>447.14285714285717</ele><time>2026-04-25T10:47:45.129Z</time></trkpt><trkpt lat="43.2661" lon="10.7548967"><ele>448.42857142857144</ele><time>2026-04-25T10:47:46.134Z</time></trkpt><trkpt lat="43.2660367" lon="10.7549233"><ele>449.7142857142857</ele><time>2026-04-25T10:47:47.13Z</time></trkpt><trkpt lat="43.265975" lon="10.7549583"><ele>451.0</ele><time>2026-04-25T10:47:48.127Z</time></trkpt><trkpt lat="43.265915" lon="10.7549883"><ele>451.0</ele><time>2026-04-25T10:47:49.13Z</time></trkpt><trkpt lat="43.2657933" lon="10.755015"><ele>451.0</ele><time>2026-04-25T10:47:51.123Z</time></trkpt><trkpt lat="43.26573" lon="10.7550117"><ele>451.0</ele><time>2026-04-25T10:47:52.135Z</time></trkpt><trkpt lat="43.2656117" lon="10.755005"><ele>451.0</ele><time>2026-04-25T10:47:54.126Z</time></trkpt><trkpt lat="43.2654983" lon="10.7550267"><ele>451.0</ele><time>2026-04-25T10:47:56.132Z</time></trkpt><trkpt lat="43.2653767" lon="10.7550617"><ele>453.00000000000006</ele><time>2026-04-25T10:47:58.124Z</time></trkpt><trkpt lat="43.2652533" lon="10.75509"><ele>455.0</ele><time>2026-04-25T10:48:00.126Z</time></trkpt><trkpt lat="43.2651867" lon="10.7550967"><ele>457.0</ele><time>2026-04-25T10:48:01.129Z</time></trkpt><trkpt lat="43.265115" lon="10.7550933"><ele>459.0</ele><time>2026-04-25T10:48:02.131Z</time></trkpt><trkpt lat="43.26504" lon="10.75508"><ele>461.00000000000006</ele><time>2026-04-25T10:48:03.138Z</time></trkpt><trkpt lat="43.2649667" lon="10.7550583"><ele>463.0</ele><time>2026-04-25T10:48:04.124Z</time></trkpt><trkpt lat="43.264895" lon="10.7550317"><ele>463.00000000000006</ele><time>2026-04-25T10:48:05.131Z</time></trkpt><trkpt lat="43.2648217" lon="10.7549917"><ele>463.0</ele><time>2026-04-25T10:48:06.129Z</time></trkpt><trkpt lat="43.2647483" lon="10.7549517"><ele>463.0</ele><time>2026-04-25T10:48:07.127Z</time></trkpt><trkpt lat="43.2646717" lon="10.7549233"><ele>463.0</ele><time>2026-04-25T10:48:08.127Z</time></trkpt><trkpt lat="43.2645983" lon="10.7548983"><ele>463.00000000000006</ele><time>2026-04-25T10:48:09.126Z</time></trkpt><trkpt lat="43.2645167" lon="10.7548817"><ele>463.0</ele><time>2026-04-25T10:48:10.121Z</time></trkpt><trkpt lat="43.26443" lon="10.7548683"><ele>461.50000000000006</ele><time>2026-04-25T10:48:11.13Z</time></trkpt><trkpt lat="43.2643433" lon="10.754855"><ele>460.0</ele><time>2026-04-25T10:48:12.113Z</time></trkpt><trkpt lat="43.2642583" lon="10.7548367"><ele>458.5</ele><time>2026-04-25T10:48:13.135Z</time></trkpt><trkpt lat="43.26418" lon="10.754815"><ele>457.0</ele><time>2026-04-25T10:48:14.131Z</time></trkpt><trkpt lat="43.26411" lon="10.7547817"><ele>455.50000000000006</ele><time>2026-04-25T10:48:15.125Z</time></trkpt><trkpt lat="43.2640467" lon="10.7547367"><ele>454.0</ele><time>2026-04-25T10:48:16.126Z</time></trkpt><trkpt lat="43.2639917" lon="10.75467"><ele>452.6666666666667</ele><time>2026-04-25T10:48:17.13Z</time></trkpt><trkpt lat="43.2639433" lon="10.7545917"><ele>451.33333333333337</ele><time>2026-04-25T10:48:18.121Z</time></trkpt><trkpt lat="43.2638983" lon="10.7545033"><ele>450.0</ele><time>2026-04-25T10:48:19.132Z</time></trkpt><trkpt lat="43.2638517" lon="10.7544017"><ele>448.66666666666663</ele><time>2026-04-25T10:48:20.13Z</time></trkpt><trkpt lat="43.26381" lon="10.7542917"><ele>447.3333333333333</ele><time>2026-04-25T10:48:21.127Z</time></trkpt><trkpt lat="43.263775" lon="10.754175"><ele>446.0</ele><time>2026-04-25T10:48:22.134Z</time></trkpt><trkpt lat="43.2637483" lon="10.7540633"><ele>445.99999999999994</ele><time>2026-04-25T10:48:23.12Z</time></trkpt><trkpt lat="43.2637233" lon="10.7539633"><ele>446.0</ele><time>2026-04-25T10:48:24.126Z</time></trkpt><trkpt lat="43.263695" lon="10.75388"><ele>446.0</ele><time>2026-04-25T10:48:25.128Z</time></trkpt><trkpt lat="43.26362" lon="10.7537567"><ele>446.0</ele><time>2026-04-25T10:48:27.122Z</time></trkpt><trkpt lat="43.2635667" lon="10.7537083"><ele>445.99999999999994</ele><time>2026-04-25T10:48:28.134Z</time></trkpt><trkpt lat="43.2635067" lon="10.75367"><ele>446.0</ele><time>2026-04-25T10:48:29.136Z</time></trkpt><trkpt lat="43.2634233" lon="10.7536367"><ele>446.0</ele><time>2026-04-25T10:48:30.132Z</time></trkpt><trkpt lat="43.263325" lon="10.7536033"><ele>446.0</ele><time>2026-04-25T10:48:31.126Z</time></trkpt><trkpt lat="43.2632233" lon="10.7535783"><ele>446.0</ele><time>2026-04-25T10:48:32.138Z</time></trkpt><trkpt lat="43.263125" lon="10.7535483"><ele>446.0</ele><time>2026-04-25T10:48:33.115Z</time></trkpt><trkpt lat="43.2630317" lon="10.7535117"><ele>446.0</ele><time>2026-04-25T10:48:34.129Z</time></trkpt><trkpt lat="43.262945" lon="10.7534633"><ele>448.0</ele><time>2026-04-25T10:48:35.125Z</time></trkpt><trkpt lat="43.2628717" lon="10.7534083"><ele>450.0</ele><time>2026-04-25T10:48:36.125Z</time></trkpt><trkpt lat="43.2628067" lon="10.7533483"><ele>452.0</ele><time>2026-04-25T10:48:37.133Z</time></trkpt><trkpt lat="43.262745" lon="10.7532917"><ele>454.0</ele><time>2026-04-25T10:48:38.121Z</time></trkpt><trkpt lat="43.26268" lon="10.75325"><ele>456.0</ele><time>2026-04-25T10:48:39.131Z</time></trkpt><trkpt lat="43.2626117" lon="10.7532333"><ele>457.99999999999994</ele><time>2026-04-25T10:48:40.135Z</time></trkpt><trkpt lat="43.2625433" lon="10.7532433"><ele>459.99999999999994</ele><time>2026-04-25T10:48:41.123Z</time></trkpt><trkpt lat="43.2624733" lon="10.7532733"><ele>460.0</ele><time>2026-04-25T10:48:42.122Z</time></trkpt><trkpt lat="43.2624083" lon="10.7533"><ele>460.0</ele><time>2026-04-25T10:48:43.125Z</time></trkpt><trkpt lat="43.262285" lon="10.7532983"><ele>460.0</ele><time>2026-04-25T10:48:45.114Z</time></trkpt><trkpt lat="43.2622217" lon="10.753275"><ele>460.0</ele><time>2026-04-25T10:48:46.119Z</time></trkpt><trkpt lat="43.2621133" lon="10.7531983"><ele>460.0</ele><time>2026-04-25T10:48:48.121Z</time></trkpt><trkpt lat="43.2620217" lon="10.7531383"><ele>461.2</ele><time>2026-04-25T10:48:50.14Z</time></trkpt><trkpt lat="43.2619133" lon="10.7531117"><ele>462.4</ele><time>2026-04-25T10:48:52.117Z</time></trkpt><trkpt lat="43.2618033" lon="10.7531483"><ele>463.6</ele><time>2026-04-25T10:48:54.125Z</time></trkpt><trkpt lat="43.2617417" lon="10.7531933"><ele>464.8</ele><time>2026-04-25T10:48:55.113Z</time></trkpt><trkpt lat="43.2616717" lon="10.7532667"><ele>466.0</ele><time>2026-04-25T10:48:56.119Z</time></trkpt><trkpt lat="43.26159" lon="10.7533483"><ele>466.0</ele><time>2026-04-25T10:48:57.115Z</time></trkpt><trkpt lat="43.2615033" lon="10.7534233"><ele>466.0</ele><time>2026-04-25T10:48:58.124Z</time></trkpt><trkpt lat="43.2614133" lon="10.7534783"><ele>466.0</ele><time>2026-04-25T10:48:59.121Z</time></trkpt><trkpt lat="43.2613267" lon="10.7535133"><ele>466.0</ele><time>2026-04-25T10:49:00.123Z</time></trkpt><trkpt lat="43.2612417" lon="10.753545"><ele>466.0</ele><time>2026-04-25T10:49:01.127Z</time></trkpt><trkpt lat="43.2611667" lon="10.7535817"><ele>464.6666666666667</ele><time>2026-04-25T10:49:02.128Z</time></trkpt><trkpt lat="43.261105" lon="10.7536317"><ele>463.33333333333337</ele><time>2026-04-25T10:49:03.115Z</time></trkpt><trkpt lat="43.2610517" lon="10.7537033"><ele>462.0</ele><time>2026-04-25T10:49:04.128Z</time></trkpt><trkpt lat="43.2610033" lon="10.7537933"><ele>460.66666666666663</ele><time>2026-04-25T10:49:05.12Z</time></trkpt><trkpt lat="43.260945" lon="10.753875"><ele>459.3333333333333</ele><time>2026-04-25T10:49:06.119Z</time></trkpt><trkpt lat="43.26087" lon="10.7539483"><ele>458.0</ele><time>2026-04-25T10:49:07.133Z</time></trkpt><trkpt lat="43.2607717" lon="10.7540067"><ele>458.0</ele><time>2026-04-25T10:49:08.119Z</time></trkpt><trkpt lat="43.2606533" lon="10.7540533"><ele>458.0</ele><time>2026-04-25T10:49:09.121Z</time></trkpt><trkpt lat="43.2605333" lon="10.754085"><ele>458.0</ele><time>2026-04-25T10:49:10.118Z</time></trkpt><trkpt lat="43.260415" lon="10.7540883"><ele>458.0</ele><time>2026-04-25T10:49:11.12Z</time></trkpt><trkpt lat="43.26029" lon="10.75407"><ele>458.0</ele><time>2026-04-25T10:49:12.117Z</time></trkpt><trkpt lat="43.2601633" lon="10.7540333"><ele>458.0</ele><time>2026-04-25T10:49:13.125Z</time></trkpt><trkpt lat="43.2600517" lon="10.7539883"><ele>458.0</ele><time>2026-04-25T10:49:14.117Z</time></trkpt><trkpt lat="43.259955" lon="10.7539333"><ele>458.0</ele><time>2026-04-25T10:49:15.126Z</time></trkpt><trkpt lat="43.2598617" lon="10.7538583"><ele>457.4</ele><time>2026-04-25T10:49:16.118Z</time></trkpt><trkpt lat="43.2597683" lon="10.75376"><ele>456.79999999999995</ele><time>2026-04-25T10:49:17.123Z</time></trkpt><trkpt lat="43.2596833" lon="10.753655"><ele>456.2</ele><time>2026-04-25T10:49:18.122Z</time></trkpt><trkpt lat="43.2596133" lon="10.7535567"><ele>455.6</ele><time>2026-04-25T10:49:19.122Z</time></trkpt><trkpt lat="43.2595567" lon="10.75346"><ele>455.0</ele><time>2026-04-25T10:49:20.115Z</time></trkpt><trkpt lat="43.2595117" lon="10.753365"><ele>454.99999999999994</ele><time>2026-04-25T10:49:21.115Z</time></trkpt><trkpt lat="43.2594817" lon="10.7532633"><ele>455.0</ele><time>2026-04-25T10:49:22.119Z</time></trkpt><trkpt lat="43.2594683" lon="10.7531583"><ele>455.0</ele><time>2026-04-25T10:49:23.119Z</time></trkpt><trkpt lat="43.2594733" lon="10.7530517"><ele>455.0</ele><time>2026-04-25T10:49:24.125Z</time></trkpt><trkpt lat="43.2594933" lon="10.75294"><ele>454.99999999999994</ele><time>2026-04-25T10:49:25.133Z</time></trkpt><trkpt lat="43.2595217" lon="10.75282"><ele>455.0</ele><time>2026-04-25T10:49:26.121Z</time></trkpt><trkpt lat="43.2595517" lon="10.7527067"><ele>456.66666666666663</ele><time>2026-04-25T10:49:27.125Z</time></trkpt><trkpt lat="43.2595767" lon="10.7526083"><ele>458.3333333333333</ele><time>2026-04-25T10:49:28.12Z</time></trkpt><trkpt lat="43.2595933" lon="10.75252"><ele>460.0</ele><time>2026-04-25T10:49:29.119Z</time></trkpt><trkpt lat="43.2596233" lon="10.752365"><ele>461.66666666666663</ele><time>2026-04-25T10:49:31.143Z</time></trkpt><trkpt lat="43.2596" lon="10.7522617"><ele>463.3333333333333</ele><time>2026-04-25T10:49:33.125Z</time></trkpt><trkpt lat="43.2595433" lon="10.752185"><ele>465.0</ele><time>2026-04-25T10:49:35.121Z</time></trkpt><trkpt lat="43.2594267" lon="10.7521117"><ele>465.0</ele><time>2026-04-25T10:49:37.122Z</time></trkpt><trkpt lat="43.259355" lon="10.7520833"><ele>465.0</ele><time>2026-04-25T10:49:38.121Z</time></trkpt><trkpt lat="43.2592833" lon="10.75206"><ele>465.0</ele><time>2026-04-25T10:49:39.122Z</time></trkpt><trkpt lat="43.2592083" lon="10.7520483"><ele>465.0</ele><time>2026-04-25T10:49:40.125Z</time></trkpt><trkpt lat="43.25912" lon="10.7520517"><ele>465.0</ele><time>2026-04-25T10:49:41.128Z</time></trkpt><trkpt lat="43.259025" lon="10.7520783"><ele>465.0</ele><time>2026-04-25T10:49:42.119Z</time></trkpt><trkpt lat="43.2589233" lon="10.7521167"><ele>465.25</ele><time>2026-04-25T10:49:43.13Z</time></trkpt><trkpt lat="43.2588167" lon="10.7521583"><ele>465.5</ele><time>2026-04-25T10:49:44.124Z</time></trkpt><trkpt lat="43.25871" lon="10.75221"><ele>465.75</ele><time>2026-04-25T10:49:45.126Z</time></trkpt><trkpt lat="43.2586017" lon="10.7522483"><ele>466.0</ele><time>2026-04-25T10:49:46.123Z</time></trkpt><trkpt lat="43.258485" lon="10.7522717"><ele>466.0</ele><time>2026-04-25T10:49:47.12Z</time></trkpt><trkpt lat="43.2583667" lon="10.752285"><ele>466.0</ele><time>2026-04-25T10:49:48.122Z</time></trkpt><trkpt lat="43.2582533" lon="10.7522983"><ele>466.0</ele><time>2026-04-25T10:49:49.12Z</time></trkpt><trkpt lat="43.2581383" lon="10.7523067"><ele>466.0</ele><time>2026-04-25T10:49:50.124Z</time></trkpt><trkpt lat="43.2580283" lon="10.7523083"><ele>465.0</ele><time>2026-04-25T10:49:51.133Z</time></trkpt><trkpt lat="43.2579267" lon="10.7523"><ele>464.0</ele><time>2026-04-25T10:49:52.13Z</time></trkpt><trkpt lat="43.2578367" lon="10.75227"><ele>463.0</ele><time>2026-04-25T10:49:53.121Z</time></trkpt><trkpt lat="43.2577433" lon="10.7522167"><ele>462.0</ele><time>2026-04-25T10:49:54.128Z</time></trkpt><trkpt lat="43.2576383" lon="10.752145"><ele>461.0</ele><time>2026-04-25T10:49:55.124Z</time></trkpt><trkpt lat="43.2575083" lon="10.75208"><ele>461.0</ele><time>2026-04-25T10:49:56.12Z</time></trkpt><trkpt lat="43.2573833" lon="10.7520083"><ele>461.0</ele><time>2026-04-25T10:49:57.123Z</time></trkpt><trkpt lat="43.2572583" lon="10.7519367"><ele>461.0</ele><time>2026-04-25T10:49:58.127Z</time></trkpt><trkpt lat="43.2571483" lon="10.7518633"><ele>461.0</ele><time>2026-04-25T10:49:59.128Z</time></trkpt><trkpt lat="43.25706" lon="10.751775"><ele>461.5</ele><time>2026-04-25T10:50:00.134Z</time></trkpt><trkpt lat="43.256975" lon="10.7516767"><ele>462.0</ele><time>2026-04-25T10:50:01.122Z</time></trkpt><trkpt lat="43.25689" lon="10.7515583"><ele>462.5</ele><time>2026-04-25T10:50:02.134Z</time></trkpt><trkpt lat="43.2567867" lon="10.751435"><ele>463.0</ele><time>2026-04-25T10:50:03.116Z</time></trkpt><trkpt lat="43.2566833" lon="10.7512983"><ele>463.0</ele><time>2026-04-25T10:50:04.117Z</time></trkpt><trkpt lat="43.2565867" lon="10.7511367"><ele>463.0</ele><time>2026-04-25T10:50:05.122Z</time></trkpt><trkpt lat="43.2565083" lon="10.750965"><ele>463.0</ele><time>2026-04-25T10:50:06.121Z</time></trkpt><trkpt lat="43.2564383" lon="10.7508117"><ele>463.0</ele><time>2026-04-25T10:50:07.132Z</time></trkpt><trkpt lat="43.2563733" lon="10.7506883"><ele>464.59999999999997</ele><time>2026-04-25T10:50:08.125Z</time></trkpt><trkpt lat="43.2563033" lon="10.750605"><ele>466.19999999999993</ele><time>2026-04-25T10:50:09.119Z</time></trkpt><trkpt lat="43.2562267" lon="10.7505383"><ele>467.8</ele><time>2026-04-25T10:50:10.129Z</time></trkpt><trkpt lat="43.2561417" lon="10.7504817"><ele>469.4</ele><time>2026-04-25T10:50:11.116Z</time></trkpt><trkpt lat="43.2560533" lon="10.7504267"><ele>471.0</ele><time>2026-04-25T10:50:12.11Z</time></trkpt><trkpt lat="43.255975" lon="10.7503583"><ele>471.0</ele><time>2026-04-25T10:50:13.116Z</time></trkpt><trkpt lat="43.255905" lon="10.750275"><ele>471.0</ele><time>2026-04-25T10:50:14.118Z</time></trkpt><trkpt lat="43.2558433" lon="10.7501717"><ele>471.0</ele><time>2026-04-25T10:50:15.118Z</time></trkpt><trkpt lat="43.25579" lon="10.7500733"><ele>471.0</ele><time>2026-04-25T10:50:16.125Z</time></trkpt><trkpt lat="43.25574" lon="10.74999"><ele>471.0</ele><time>2026-04-25T10:50:17.125Z</time></trkpt><trkpt lat="43.255675" lon="10.7499267"><ele>471.0</ele><time>2026-04-25T10:50:18.127Z</time></trkpt><trkpt lat="43.2556133" lon="10.7498883"><ele>471.8</ele><time>2026-04-25T10:50:19.128Z</time></trkpt><trkpt lat="43.25554" lon="10.7498633"><ele>472.6</ele><time>2026-04-25T10:50:20.12Z</time></trkpt><trkpt lat="43.2554517" lon="10.7498783"><ele>473.4</ele><time>2026-04-25T10:50:21.126Z</time></trkpt><trkpt lat="43.255345" lon="10.74992"><ele>474.2</ele><time>2026-04-25T10:50:22.116Z</time></trkpt><trkpt lat="43.2552433" lon="10.749955"><ele>475.0</ele><time>2026-04-25T10:50:23.11Z</time></trkpt><trkpt lat="43.255135" lon="10.7499717"><ele>475.0</ele><time>2026-04-25T10:50:24.125Z</time></trkpt><trkpt lat="43.2550183" lon="10.74997"><ele>475.0</ele><time>2026-04-25T10:50:25.127Z</time></trkpt><trkpt lat="43.2548933" lon="10.7499633"><ele>475.0</ele><time>2026-04-25T10:50:26.13Z</time></trkpt><trkpt lat="43.2547767" lon="10.7499567"><ele>475.0</ele><time>2026-04-25T10:50:27.125Z</time></trkpt><trkpt lat="43.2546717" lon="10.7499467"><ele>476.83333333333337</ele><time>2026-04-25T10:50:28.123Z</time></trkpt><trkpt lat="43.2545783" lon="10.7499383"><ele>478.6666666666667</ele><time>2026-04-25T10:50:29.123Z</time></trkpt><trkpt lat="43.25449" lon="10.7499167"><ele>480.5</ele><time>2026-04-25T10:50:30.117Z</time></trkpt><trkpt lat="43.2544067" lon="10.7498833"><ele>482.33333333333337</ele><time>2026-04-25T10:50:31.125Z</time></trkpt><trkpt lat="43.254325" lon="10.74983"><ele>484.1666666666667</ele><time>2026-04-25T10:50:32.119Z</time></trkpt><trkpt lat="43.2542517" lon="10.749775"><ele>486.0</ele><time>2026-04-25T10:50:33.121Z</time></trkpt><trkpt lat="43.2541767" lon="10.749705"><ele>486.0</ele><time>2026-04-25T10:50:34.124Z</time></trkpt><trkpt lat="43.2541017" lon="10.74963"><ele>486.0</ele><time>2026-04-25T10:50:35.119Z</time></trkpt><trkpt lat="43.254025" lon="10.7495617"><ele>486.0</ele><time>2026-04-25T10:50:36.112Z</time></trkpt><trkpt lat="43.25395" lon="10.74946"><ele>486.0</ele><time>2026-04-25T10:50:37.112Z</time></trkpt><trkpt lat="43.25389" lon="10.7493417"><ele>486.0</ele><time>2026-04-25T10:50:38.116Z</time></trkpt><trkpt lat="43.2538417" lon="10.7492133"><ele>486.3333333333333</ele><time>2026-04-25T10:50:39.107Z</time></trkpt><trkpt lat="43.2538083" lon="10.7490683"><ele>486.66666666666663</ele><time>2026-04-25T10:50:40.128Z</time></trkpt><trkpt lat="43.2537967" lon="10.7489317"><ele>487.0</ele><time>2026-04-25T10:50:41.125Z</time></trkpt><trkpt lat="43.253795" lon="10.748815"><ele>487.3333333333333</ele><time>2026-04-25T10:50:42.12Z</time></trkpt><trkpt lat="43.2537733" lon="10.7487083"><ele>487.66666666666663</ele><time>2026-04-25T10:50:43.132Z</time></trkpt><trkpt lat="43.2537417" lon="10.7486233"><ele>488.0</ele><time>2026-04-25T10:50:44.129Z</time></trkpt><trkpt lat="43.2537067" lon="10.748545"><ele>487.2</ele><time>2026-04-25T10:50:45.128Z</time></trkpt><trkpt lat="43.253655" lon="10.7484767"><ele>486.4</ele><time>2026-04-25T10:50:46.122Z</time></trkpt><trkpt lat="43.2535717" lon="10.7484067"><ele>485.59999999999997</ele><time>2026-04-25T10:50:47.119Z</time></trkpt><trkpt lat="43.2534783" lon="10.7483367"><ele>484.79999999999995</ele><time>2026-04-25T10:50:48.12Z</time></trkpt><trkpt lat="43.2533867" lon="10.7482633"><ele>484.0</ele><time>2026-04-25T10:50:49.13Z</time></trkpt><trkpt lat="43.2533083" lon="10.7481917"><ele>484.00000000000006</ele><time>2026-04-25T10:50:50.119Z</time></trkpt><trkpt lat="43.253255" lon="10.7481217"><ele>484.0</ele><time>2026-04-25T10:50:51.121Z</time></trkpt><trkpt lat="43.253215" lon="10.7480533"><ele>484.0</ele><time>2026-04-25T10:50:52.117Z</time></trkpt><trkpt lat="43.2531683" lon="10.7479317"><ele>484.0</ele><time>2026-04-25T10:50:54.121Z</time></trkpt><trkpt lat="43.25313" lon="10.747825"><ele>484.00000000000006</ele><time>2026-04-25T10:50:56.126Z</time></trkpt><trkpt lat="43.2531083" lon="10.747705"><ele>484.0</ele><time>2026-04-25T10:50:58.109Z</time></trkpt><trkpt lat="43.253075" lon="10.7475683"><ele>486.79999999999995</ele><time>2026-04-25T10:51:00.113Z</time></trkpt><trkpt lat="43.25303" lon="10.7474317"><ele>489.59999999999997</ele><time>2026-04-25T10:51:02.113Z</time></trkpt><trkpt lat="43.2529667" lon="10.7473467"><ele>492.4</ele><time>2026-04-25T10:51:04.128Z</time></trkpt><trkpt lat="43.2528767" lon="10.7473183"><ele>495.2</ele><time>2026-04-25T10:51:06.128Z</time></trkpt><trkpt lat="43.25275" lon="10.7473183"><ele>498.0</ele><time>2026-04-25T10:51:08.123Z</time></trkpt><trkpt lat="43.2526733" lon="10.747315"><ele>498.0</ele><time>2026-04-25T10:51:09.13Z</time></trkpt><trkpt lat="43.25259" lon="10.7473017"><ele>498.0</ele><time>2026-04-25T10:51:10.119Z</time></trkpt><trkpt lat="43.252515" lon="10.7472817"><ele>498.0</ele><time>2026-04-25T10:51:11.119Z</time></trkpt><trkpt lat="43.2524467" lon="10.7472583"><ele>498.0</ele><time>2026-04-25T10:51:12.113Z</time></trkpt><trkpt lat="43.2523817" lon="10.7472267"><ele>498.0</ele><time>2026-04-25T10:51:13.118Z</time></trkpt><trkpt lat="43.252315" lon="10.747185"><ele>498.0</ele><time>2026-04-25T10:51:14.122Z</time></trkpt><trkpt lat="43.2522417" lon="10.747135"><ele>497.3333333333333</ele><time>2026-04-25T10:51:15.112Z</time></trkpt><trkpt lat="43.2521717" lon="10.74707"><ele>496.66666666666663</ele><time>2026-04-25T10:51:16.116Z</time></trkpt><trkpt lat="43.2521133" lon="10.74699"><ele>496.0</ele><time>2026-04-25T10:51:17.128Z</time></trkpt><trkpt lat="43.2520583" lon="10.74689"><ele>495.3333333333333</ele><time>2026-04-25T10:51:18.121Z</time></trkpt><trkpt lat="43.2520067" lon="10.74679"><ele>494.66666666666663</ele><time>2026-04-25T10:51:19.118Z</time></trkpt><trkpt lat="43.251945" lon="10.7466983"><ele>494.0</ele><time>2026-04-25T10:51:20.118Z</time></trkpt><trkpt lat="43.2518883" lon="10.7466217"><ele>494.0</ele><time>2026-04-25T10:51:21.128Z</time></trkpt><trkpt lat="43.2518317" lon="10.7465617"><ele>494.0</ele><time>2026-04-25T10:51:22.128Z</time></trkpt><trkpt lat="43.251765" lon="10.7465183"><ele>494.0</ele><time>2026-04-25T10:51:23.118Z</time></trkpt><trkpt lat="43.2517017" lon="10.7464933"><ele>494.0</ele><time>2026-04-25T10:51:24.117Z</time></trkpt><trkpt lat="43.2516367" lon="10.746475"><ele>494.0</ele><time>2026-04-25T10:51:25.124Z</time></trkpt><trkpt lat="43.25154" lon="10.7465"><ele>494.0</ele><time>2026-04-25T10:51:27.13Z</time></trkpt><trkpt lat="43.2514917" lon="10.7465683"><ele>494.0</ele><time>2026-04-25T10:51:28.135Z</time></trkpt><trkpt lat="43.251435" lon="10.74667"><ele>493.6</ele><time>2026-04-25T10:51:29.14Z</time></trkpt><trkpt lat="43.25137" lon="10.7467817"><ele>493.2</ele><time>2026-04-25T10:51:30.13Z</time></trkpt><trkpt lat="43.2513017" lon="10.7468933"><ele>492.80000000000007</ele><time>2026-04-25T10:51:31.128Z</time></trkpt><trkpt lat="43.2512267" lon="10.74702"><ele>492.40000000000003</ele><time>2026-04-25T10:51:32.127Z</time></trkpt><trkpt lat="43.251155" lon="10.747145"><ele>492.0</ele><time>2026-04-25T10:51:33.12Z</time></trkpt><trkpt lat="43.2510933" lon="10.74726"><ele>492.0</ele><time>2026-04-25T10:51:34.129Z</time></trkpt><trkpt lat="43.251035" lon="10.7473933"><ele>492.00000000000006</ele><time>2026-04-25T10:51:35.122Z</time></trkpt><trkpt lat="43.2509867" lon="10.7475233"><ele>492.00000000000006</ele><time>2026-04-25T10:51:36.129Z</time></trkpt><trkpt lat="43.2509467" lon="10.7476517"><ele>492.0</ele><time>2026-04-25T10:51:37.125Z</time></trkpt><trkpt lat="43.2509067" lon="10.7477817"><ele>492.0</ele><time>2026-04-25T10:51:38.127Z</time></trkpt><trkpt lat="43.2508583" lon="10.7479117"><ele>492.0</ele><time>2026-04-25T10:51:39.135Z</time></trkpt><trkpt lat="43.2508" lon="10.7480267"><ele>492.0</ele><time>2026-04-25T10:51:40.123Z</time></trkpt><trkpt lat="43.250725" lon="10.7481267"><ele>492.0</ele><time>2026-04-25T10:51:41.122Z</time></trkpt><trkpt lat="43.2506133" lon="10.7482083"><ele>492.0</ele><time>2026-04-25T10:51:42.124Z</time></trkpt><trkpt lat="43.2505017" lon="10.7482933"><ele>492.0</ele><time>2026-04-25T10:51:43.124Z</time></trkpt><trkpt lat="43.250385" lon="10.7483883"><ele>492.0</ele><time>2026-04-25T10:51:44.135Z</time></trkpt><trkpt lat="43.25025" lon="10.7485067"><ele>492.0</ele><time>2026-04-25T10:51:45.118Z</time></trkpt><trkpt lat="43.25012" lon="10.7485917"><ele>492.0</ele><time>2026-04-25T10:51:46.12Z</time></trkpt><trkpt lat="43.2499867" lon="10.7486533"><ele>492.0</ele><time>2026-04-25T10:51:47.123Z</time></trkpt><trkpt lat="43.2498517" lon="10.7487067"><ele>492.0</ele><time>2026-04-25T10:51:48.134Z</time></trkpt><trkpt lat="43.2497233" lon="10.7487483"><ele>492.0</ele><time>2026-04-25T10:51:49.129Z</time></trkpt><trkpt lat="43.2496083" lon="10.7487683"><ele>492.0</ele><time>2026-04-25T10:51:50.128Z</time></trkpt><trkpt lat="43.2495" lon="10.7487667"><ele>492.6</ele><time>2026-04-25T10:51:51.129Z</time></trkpt><trkpt lat="43.249395" lon="10.74875"><ele>493.20000000000005</ele><time>2026-04-25T10:51:52.124Z</time></trkpt><trkpt lat="43.249295" lon="10.7487217"><ele>493.8</ele><time>2026-04-25T10:51:53.128Z</time></trkpt><trkpt lat="43.249195" lon="10.7486783"><ele>494.4</ele><time>2026-04-25T10:51:54.124Z</time></trkpt><trkpt lat="43.2491117" lon="10.7486133"><ele>495.0</ele><time>2026-04-25T10:51:55.122Z</time></trkpt><trkpt lat="43.2490367" lon="10.7485467"><ele>494.8333333333333</ele><time>2026-04-25T10:51:56.12Z</time></trkpt><trkpt lat="43.248965" lon="10.74848"><ele>494.66666666666663</ele><time>2026-04-25T10:51:57.126Z</time></trkpt><trkpt lat="43.24889" lon="10.748415"><ele>494.5</ele><time>2026-04-25T10:51:58.13Z</time></trkpt><trkpt lat="43.2488033" lon="10.7483517"><ele>494.3333333333333</ele><time>2026-04-25T10:51:59.136Z</time></trkpt><trkpt lat="43.2487183" lon="10.7482917"><ele>494.16666666666663</ele><time>2026-04-25T10:52:00.124Z</time></trkpt><trkpt lat="43.2486483" lon="10.74824"><ele>494.0</ele><time>2026-04-25T10:52:01.129Z</time></trkpt><trkpt lat="43.2485867" lon="10.748205"><ele>493.2</ele><time>2026-04-25T10:52:02.125Z</time></trkpt><trkpt lat="43.2484867" lon="10.7481983"><ele>492.4</ele><time>2026-04-25T10:52:04.128Z</time></trkpt><trkpt lat="43.248415" lon="10.748265"><ele>491.6</ele><time>2026-04-25T10:52:06.12Z</time></trkpt><trkpt lat="43.2484017" lon="10.7483833"><ele>490.8</ele><time>2026-04-25T10:52:08.122Z</time></trkpt><trkpt lat="43.2484533" lon="10.7485517"><ele>490.0</ele><time>2026-04-25T10:52:10.127Z</time></trkpt><trkpt lat="43.2484967" lon="10.7486633"><ele>489.0</ele><time>2026-04-25T10:52:11.116Z</time></trkpt><trkpt lat="43.2485383" lon="10.7488017"><ele>488.0</ele><time>2026-04-25T10:52:12.111Z</time></trkpt><trkpt lat="43.2485733" lon="10.748965"><ele>487.0</ele><time>2026-04-25T10:52:13.121Z</time></trkpt><trkpt lat="43.2486083" lon="10.7491317"><ele>486.0</ele><time>2026-04-25T10:52:14.12Z</time></trkpt><trkpt lat="43.2486367" lon="10.7493"><ele>485.8</ele><time>2026-04-25T10:52:15.114Z</time></trkpt><trkpt lat="43.2486533" lon="10.7494483"><ele>485.6</ele><time>2026-04-25T10:52:16.122Z</time></trkpt><trkpt lat="43.2486633" lon="10.7495867"><ele>485.4</ele><time>2026-04-25T10:52:17.118Z</time></trkpt><trkpt lat="43.24867" lon="10.7497183"><ele>485.2</ele><time>2026-04-25T10:52:18.131Z</time></trkpt><trkpt lat="43.2486733" lon="10.7498517"><ele>485.0</ele><time>2026-04-25T10:52:19.122Z</time></trkpt><trkpt lat="43.2486767" lon="10.7499917"><ele>485.0</ele><time>2026-04-25T10:52:20.12Z</time></trkpt><trkpt lat="43.2486767" lon="10.7501383"><ele>485.0</ele><time>2026-04-25T10:52:21.119Z</time></trkpt><trkpt lat="43.2486783" lon="10.7502933"><ele>485.0</ele><time>2026-04-25T10:52:22.119Z</time></trkpt><trkpt lat="43.2486733" lon="10.7504517"><ele>485.0</ele><time>2026-04-25T10:52:23.114Z</time></trkpt><trkpt lat="43.2486567" lon="10.7506167"><ele>485.0</ele><time>2026-04-25T10:52:24.135Z</time></trkpt><trkpt lat="43.2486333" lon="10.7507833"><ele>485.0</ele><time>2026-04-25T10:52:25.123Z</time></trkpt><trkpt lat="43.248605" lon="10.750945"><ele>485.0</ele><time>2026-04-25T10:52:26.119Z</time></trkpt><trkpt lat="43.248575" lon="10.7510917"><ele>485.0</ele><time>2026-04-25T10:52:27.114Z</time></trkpt><trkpt lat="43.2485517" lon="10.7512317"><ele>485.0</ele><time>2026-04-25T10:52:28.123Z</time></trkpt><trkpt lat="43.2485333" lon="10.7513617"><ele>485.0</ele><time>2026-04-25T10:52:29.124Z</time></trkpt><trkpt lat="43.2485283" lon="10.7514883"><ele>485.0</ele><time>2026-04-25T10:52:30.123Z</time></trkpt><trkpt lat="43.248535" lon="10.7516133"><ele>485.0</ele><time>2026-04-25T10:52:31.128Z</time></trkpt><trkpt lat="43.2485483" lon="10.75174"><ele>485.0</ele><time>2026-04-25T10:52:32.134Z</time></trkpt><trkpt lat="43.2485617" lon="10.751865"><ele>485.8</ele><time>2026-04-25T10:52:33.131Z</time></trkpt><trkpt lat="43.2485667" lon="10.7519867"><ele>486.6</ele><time>2026-04-25T10:52:34.126Z</time></trkpt><trkpt lat="43.24857" lon="10.7521117"><ele>487.4</ele><time>2026-04-25T10:52:35.124Z</time></trkpt><trkpt lat="43.248575" lon="10.7522433"><ele>488.2</ele><time>2026-04-25T10:52:36.128Z</time></trkpt><trkpt lat="43.248575" lon="10.7523867"><ele>489.0</ele><time>2026-04-25T10:52:37.133Z</time></trkpt><trkpt lat="43.2485717" lon="10.7525333"><ele>489.0</ele><time>2026-04-25T10:52:38.12Z</time></trkpt><trkpt lat="43.2485667" lon="10.7526767"><ele>489.0</ele><time>2026-04-25T10:52:39.134Z</time></trkpt><trkpt lat="43.2485617" lon="10.7528183"><ele>489.0</ele><time>2026-04-25T10:52:40.13Z</time></trkpt><trkpt lat="43.2485533" lon="10.7529567"><ele>489.0</ele><time>2026-04-25T10:52:41.132Z</time></trkpt><trkpt lat="43.248535" lon="10.753085"><ele>489.0</ele><time>2026-04-25T10:52:42.125Z</time></trkpt><trkpt lat="43.2485067" lon="10.75321"><ele>487.4</ele><time>2026-04-25T10:52:43.116Z</time></trkpt><trkpt lat="43.2484667" lon="10.753335"><ele>485.79999999999995</ele><time>2026-04-25T10:52:44.129Z</time></trkpt><trkpt lat="43.24843" lon="10.7534717"><ele>484.20000000000005</ele><time>2026-04-25T10:52:45.129Z</time></trkpt><trkpt lat="43.2483917" lon="10.7536167"><ele>482.6</ele><time>2026-04-25T10:52:46.122Z</time></trkpt><trkpt lat="43.2483533" lon="10.7537733"><ele>481.0</ele><time>2026-04-25T10:52:47.125Z</time></trkpt><trkpt lat="43.2483167" lon="10.7539417"><ele>479.5</ele><time>2026-04-25T10:52:48.127Z</time></trkpt><trkpt lat="43.2482783" lon="10.7541167"><ele>478.0</ele><time>2026-04-25T10:52:49.127Z</time></trkpt><trkpt lat="43.248235" lon="10.7542917"><ele>476.5</ele><time>2026-04-25T10:52:50.129Z</time></trkpt><trkpt lat="43.2481883" lon="10.7544433"><ele>475.0</ele><time>2026-04-25T10:52:51.128Z</time></trkpt><trkpt lat="43.248135" lon="10.75458"><ele>473.4</ele><time>2026-04-25T10:52:52.128Z</time></trkpt><trkpt lat="43.2480733" lon="10.7546983"><ele>471.8</ele><time>2026-04-25T10:52:53.122Z</time></trkpt><trkpt lat="43.24801" lon="10.7548083"><ele>470.20000000000005</ele><time>2026-04-25T10:52:54.118Z</time></trkpt><trkpt lat="43.24795" lon="10.7549183"><ele>468.6</ele><time>2026-04-25T10:52:55.124Z</time></trkpt><trkpt lat="43.2478917" lon="10.755025"><ele>467.0</ele><time>2026-04-25T10:52:56.109Z</time></trkpt><trkpt lat="43.247835" lon="10.7551217"><ele>468.99999999999994</ele><time>2026-04-25T10:52:57.12Z</time></trkpt><trkpt lat="43.2477733" lon="10.755205"><ele>471.0</ele><time>2026-04-25T10:52:58.117Z</time></trkpt><trkpt lat="43.2476983" lon="10.75528"><ele>473.0</ele><time>2026-04-25T10:52:59.112Z</time></trkpt><trkpt lat="43.2476217" lon="10.7553483"><ele>475.0</ele><time>2026-04-25T10:53:00.12Z</time></trkpt><trkpt lat="43.2475467" lon="10.7554183"><ele>476.99999999999994</ele><time>2026-04-25T10:53:01.119Z</time></trkpt><trkpt lat="43.2474817" lon="10.7554883"><ele>479.0</ele><time>2026-04-25T10:53:02.123Z</time></trkpt><trkpt lat="43.2474233" lon="10.7555583"><ele>478.99999999999994</ele><time>2026-04-25T10:53:03.124Z</time></trkpt><trkpt lat="43.24737" lon="10.7556233"><ele>479.0</ele><time>2026-04-25T10:53:04.119Z</time></trkpt><trkpt lat="43.2473183" lon="10.755685"><ele>479.0</ele><time>2026-04-25T10:53:05.122Z</time></trkpt><trkpt lat="43.2472617" lon="10.755735"><ele>479.0</ele><time>2026-04-25T10:53:06.124Z</time></trkpt><trkpt lat="43.2472117" lon="10.7557883"><ele>478.99999999999994</ele><time>2026-04-25T10:53:07.118Z</time></trkpt><trkpt lat="43.24714" lon="10.7558933"><ele>479.0</ele><time>2026-04-25T10:53:09.128Z</time></trkpt><trkpt lat="43.2471083" lon="10.75599"><ele>476.16666666666663</ele><time>2026-04-25T10:53:11.133Z</time></trkpt><trkpt lat="43.24713" lon="10.756105"><ele>473.3333333333333</ele><time>2026-04-25T10:53:14.122Z</time></trkpt><trkpt lat="43.2471667" lon="10.7561833"><ele>470.5</ele><time>2026-04-25T10:53:16.126Z</time></trkpt><trkpt lat="43.24722" lon="10.7562733"><ele>467.66666666666663</ele><time>2026-04-25T10:53:18.114Z</time></trkpt><trkpt lat="43.2472583" lon="10.7563633"><ele>464.8333333333333</ele><time>2026-04-25T10:53:20.126Z</time></trkpt><trkpt lat="43.2472433" lon="10.7564817"><ele>462.0</ele><time>2026-04-25T10:53:23.121Z</time></trkpt><trkpt lat="43.2471783" lon="10.7565483"><ele>462.0</ele><time>2026-04-25T10:53:25.121Z</time></trkpt><trkpt lat="43.2470717" lon="10.7566067"><ele>462.00000000000006</ele><time>2026-04-25T10:53:27.112Z</time></trkpt><trkpt lat="43.247" lon="10.756635"><ele>462.00000000000006</ele><time>2026-04-25T10:53:28.117Z</time></trkpt><trkpt lat="43.2469133" lon="10.7566683"><ele>462.0</ele><time>2026-04-25T10:53:29.118Z</time></trkpt><trkpt lat="43.2468117" lon="10.7567167"><ele>462.0</ele><time>2026-04-25T10:53:30.112Z</time></trkpt><trkpt lat="43.2467083" lon="10.7567633"><ele>462.0</ele><time>2026-04-25T10:53:31.115Z</time></trkpt><trkpt lat="43.2466" lon="10.7568067"><ele>462.00000000000006</ele><time>2026-04-25T10:53:32.121Z</time></trkpt><trkpt lat="43.246495" lon="10.756845"><ele>462.00000000000006</ele><time>2026-04-25T10:53:33.115Z</time></trkpt><trkpt lat="43.2463967" lon="10.75688"><ele>462.0</ele><time>2026-04-25T10:53:34.112Z</time></trkpt><trkpt lat="43.2463067" lon="10.7569167"><ele>462.0</ele><time>2026-04-25T10:53:35.113Z</time></trkpt><trkpt lat="43.2462283" lon="10.7569683"><ele>460.8333333333333</ele><time>2026-04-25T10:53:36.126Z</time></trkpt><trkpt lat="43.2461533" lon="10.75703"><ele>459.66666666666663</ele><time>2026-04-25T10:53:37.13Z</time></trkpt><trkpt lat="43.2460817" lon="10.757095"><ele>458.5</ele><time>2026-04-25T10:53:38.12Z</time></trkpt><trkpt lat="43.246015" lon="10.75717"><ele>457.3333333333333</ele><time>2026-04-25T10:53:39.12Z</time></trkpt><trkpt lat="43.2459517" lon="10.7572533"><ele>456.16666666666663</ele><time>2026-04-25T10:53:40.117Z</time></trkpt><trkpt lat="43.24589" lon="10.7573517"><ele>455.0</ele><time>2026-04-25T10:53:41.115Z</time></trkpt><trkpt lat="43.2458333" lon="10.7574567"><ele>455.0</ele><time>2026-04-25T10:53:42.115Z</time></trkpt><trkpt lat="43.2457867" lon="10.75756"><ele>455.0</ele><time>2026-04-25T10:53:43.129Z</time></trkpt><trkpt lat="43.2457467" lon="10.75766"><ele>455.0</ele><time>2026-04-25T10:53:44.124Z</time></trkpt><trkpt lat="43.2457133" lon="10.7577517"><ele>455.0</ele><time>2026-04-25T10:53:45.116Z</time></trkpt><trkpt lat="43.2456933" lon="10.7578367"><ele>455.0</ele><time>2026-04-25T10:53:46.115Z</time></trkpt><trkpt lat="43.2456733" lon="10.7579233"><ele>455.0</ele><time>2026-04-25T10:53:47.114Z</time></trkpt><trkpt lat="43.2456583" lon="10.7580117"><ele>455.0</ele><time>2026-04-25T10:53:48.115Z</time></trkpt><trkpt lat="43.2456483" lon="10.75811"><ele>454.16666666666663</ele><time>2026-04-25T10:53:49.126Z</time></trkpt><trkpt lat="43.2456383" lon="10.7582083"><ele>453.3333333333333</ele><time>2026-04-25T10:53:50.123Z</time></trkpt><trkpt lat="43.2456217" lon="10.7583"><ele>452.5</ele><time>2026-04-25T10:53:51.12Z</time></trkpt><trkpt lat="43.245595" lon="10.7583833"><ele>451.66666666666663</ele><time>2026-04-25T10:53:52.126Z</time></trkpt><trkpt lat="43.24555" lon="10.7584617"><ele>450.8333333333333</ele><time>2026-04-25T10:53:53.122Z</time></trkpt><trkpt lat="43.2454917" lon="10.75854"><ele>450.0</ele><time>2026-04-25T10:53:54.129Z</time></trkpt><trkpt lat="43.2454267" lon="10.7586217"><ele>447.6666666666667</ele><time>2026-04-25T10:53:55.124Z</time></trkpt><trkpt lat="43.24536" lon="10.7587"><ele>445.33333333333337</ele><time>2026-04-25T10:53:56.121Z</time></trkpt><trkpt lat="43.2453" lon="10.7587717"><ele>443.0</ele><time>2026-04-25T10:53:57.121Z</time></trkpt><trkpt lat="43.2452433" lon="10.7588467"><ele>440.6666666666667</ele><time>2026-04-25T10:53:58.134Z</time></trkpt><trkpt lat="43.2451933" lon="10.7589217"><ele>438.33333333333337</ele><time>2026-04-25T10:53:59.125Z</time></trkpt><trkpt lat="43.24515" lon="10.7589983"><ele>436.0</ele><time>2026-04-25T10:54:00.16Z</time></trkpt><trkpt lat="43.24511" lon="10.7590817"><ele>436.00000000000006</ele><time>2026-04-25T10:54:01.129Z</time></trkpt><trkpt lat="43.2450733" lon="10.759165"><ele>436.0</ele><time>2026-04-25T10:54:02.13Z</time></trkpt><trkpt lat="43.2450417" lon="10.7592517"><ele>436.0</ele><time>2026-04-25T10:54:03.118Z</time></trkpt><trkpt lat="43.2450183" lon="10.7593517"><ele>436.0</ele><time>2026-04-25T10:54:04.127Z</time></trkpt><trkpt lat="43.2450033" lon="10.7594617"><ele>436.00000000000006</ele><time>2026-04-25T10:54:05.117Z</time></trkpt><trkpt lat="43.2449883" lon="10.7595867"><ele>436.0</ele><time>2026-04-25T10:54:06.117Z</time></trkpt><trkpt lat="43.2449717" lon="10.7597183"><ele>435.50000000000006</ele><time>2026-04-25T10:54:07.117Z</time></trkpt><trkpt lat="43.24496" lon="10.75985"><ele>435.0</ele><time>2026-04-25T10:54:08.134Z</time></trkpt><trkpt lat="43.2449417" lon="10.75998"><ele>434.5</ele><time>2026-04-25T10:54:09.138Z</time></trkpt><trkpt lat="43.2449133" lon="10.7600933"><ele>434.0</ele><time>2026-04-25T10:54:10.123Z</time></trkpt><trkpt lat="43.2448733" lon="10.7601883"><ele>433.50000000000006</ele><time>2026-04-25T10:54:11.122Z</time></trkpt><trkpt lat="43.244825" lon="10.760265"><ele>433.0</ele><time>2026-04-25T10:54:12.123Z</time></trkpt><trkpt lat="43.2447683" lon="10.7603183"><ele>430.85714285714283</ele><time>2026-04-25T10:54:13.13Z</time></trkpt><trkpt lat="43.2447033" lon="10.7603483"><ele>428.7142857142857</ele><time>2026-04-25T10:54:14.125Z</time></trkpt><trkpt lat="43.244635" lon="10.760365"><ele>426.57142857142856</ele><time>2026-04-25T10:54:15.124Z</time></trkpt><trkpt lat="43.24457" lon="10.7603833"><ele>424.42857142857144</ele><time>2026-04-25T10:54:16.13Z</time></trkpt><trkpt lat="43.2445" lon="10.7604033"><ele>422.2857142857143</ele><time>2026-04-25T10:54:17.124Z</time></trkpt><trkpt lat="43.2444233" lon="10.7604267"><ele>420.1428571428571</ele><time>2026-04-25T10:54:18.128Z</time></trkpt><trkpt lat="43.2443433" lon="10.7604367"><ele>418.0</ele><time>2026-04-25T10:54:19.125Z</time></trkpt><trkpt lat="43.2442633" lon="10.7604217"><ele>418.0</ele><time>2026-04-25T10:54:20.125Z</time></trkpt><trkpt lat="43.24418" lon="10.760395"><ele>418.0</ele><time>2026-04-25T10:54:21.119Z</time></trkpt><trkpt lat="43.2440933" lon="10.7603567"><ele>418.0</ele><time>2026-04-25T10:54:22.128Z</time></trkpt><trkpt lat="43.2440033" lon="10.7603017"><ele>418.0</ele><time>2026-04-25T10:54:23.122Z</time></trkpt><trkpt lat="43.243915" lon="10.7602433"><ele>418.0</ele><time>2026-04-25T10:54:24.14Z</time></trkpt><trkpt lat="43.24383" lon="10.7601817"><ele>419.83333333333337</ele><time>2026-04-25T10:54:25.125Z</time></trkpt><trkpt lat="43.2437517" lon="10.7601233"><ele>421.6666666666667</ele><time>2026-04-25T10:54:26.118Z</time></trkpt><trkpt lat="43.24368" lon="10.7600733"><ele>423.5</ele><time>2026-04-25T10:54:27.122Z</time></trkpt><trkpt lat="43.2436067" lon="10.7600317"><ele>425.33333333333337</ele><time>2026-04-25T10:54:28.122Z</time></trkpt><trkpt lat="43.2435267" lon="10.7599917"><ele>427.1666666666667</ele><time>2026-04-25T10:54:29.121Z</time></trkpt><trkpt lat="43.2434417" lon="10.7599517"><ele>429.0</ele><time>2026-04-25T10:54:30.12Z</time></trkpt><trkpt lat="43.2433533" lon="10.7599083"><ele>429.0</ele><time>2026-04-25T10:54:31.125Z</time></trkpt><trkpt lat="43.2432717" lon="10.7598617"><ele>429.0</ele><time>2026-04-25T10:54:32.124Z</time></trkpt><trkpt lat="43.243195" lon="10.7598083"><ele>429.0</ele><time>2026-04-25T10:54:33.116Z</time></trkpt><trkpt lat="43.24312" lon="10.7597567"><ele>429.0</ele><time>2026-04-25T10:54:34.135Z</time></trkpt><trkpt lat="43.2430483" lon="10.75971"><ele>429.0</ele><time>2026-04-25T10:54:35.115Z</time></trkpt><trkpt lat="43.2429783" lon="10.75966"><ele>429.0</ele><time>2026-04-25T10:54:36.115Z</time></trkpt><trkpt lat="43.2429117" lon="10.7596183"><ele>431.75</ele><time>2026-04-25T10:54:37.116Z</time></trkpt><trkpt lat="43.2428033" lon="10.759575"><ele>434.5</ele><time>2026-04-25T10:54:39.128Z</time></trkpt><trkpt lat="43.2426883" lon="10.7595783"><ele>437.25</ele><time>2026-04-25T10:54:41.122Z</time></trkpt><trkpt lat="43.242585" lon="10.7596117"><ele>440.0</ele><time>2026-04-25T10:54:43.129Z</time></trkpt><trkpt lat="43.242475" lon="10.7596833"><ele>439.99999999999994</ele><time>2026-04-25T10:54:45.123Z</time></trkpt><trkpt lat="43.2424217" lon="10.759735"><ele>440.0</ele><time>2026-04-25T10:54:46.122Z</time></trkpt><trkpt lat="43.24237" lon="10.7597883"><ele>440.0</ele><time>2026-04-25T10:54:47.124Z</time></trkpt><trkpt lat="43.2423183" lon="10.75985"><ele>440.0</ele><time>2026-04-25T10:54:48.122Z</time></trkpt><trkpt lat="43.2422667" lon="10.759915"><ele>440.0</ele><time>2026-04-25T10:54:49.128Z</time></trkpt><trkpt lat="43.24221" lon="10.759975"><ele>439.99999999999994</ele><time>2026-04-25T10:54:50.128Z</time></trkpt><trkpt lat="43.2421533" lon="10.7600317"><ele>440.0</ele><time>2026-04-25T10:54:51.124Z</time></trkpt><trkpt lat="43.2420517" lon="10.76012"><ele>439.4</ele><time>2026-04-25T10:54:53.121Z</time></trkpt><trkpt lat="43.2419383" lon="10.760175"><ele>438.8</ele><time>2026-04-25T10:54:55.134Z</time></trkpt><trkpt lat="43.241825" lon="10.7602117"><ele>438.20000000000005</ele><time>2026-04-25T10:54:57.126Z</time></trkpt><trkpt lat="43.2417267" lon="10.76022"><ele>437.6</ele><time>2026-04-25T10:54:59.125Z</time></trkpt><trkpt lat="43.2416467" lon="10.76016"><ele>437.0</ele><time>2026-04-25T10:55:01.126Z</time></trkpt><trkpt lat="43.2415833" lon="10.7600383"><ele>436.99999999999994</ele><time>2026-04-25T10:55:03.136Z</time></trkpt><trkpt lat="43.2415533" lon="10.7599517"><ele>437.0</ele><time>2026-04-25T10:55:04.133Z</time></trkpt><trkpt lat="43.24152" lon="10.7598533"><ele>437.0</ele><time>2026-04-25T10:55:05.123Z</time></trkpt><trkpt lat="43.241485" lon="10.759745"><ele>437.0</ele><time>2026-04-25T10:55:06.127Z</time></trkpt><trkpt lat="43.24145" lon="10.75963"><ele>436.99999999999994</ele><time>2026-04-25T10:55:07.127Z</time></trkpt><trkpt lat="43.2414183" lon="10.7595067"><ele>437.0</ele><time>2026-04-25T10:55:08.138Z</time></trkpt><trkpt lat="43.241385" lon="10.759385"><ele>437.8333333333333</ele><time>2026-04-25T10:55:09.12Z</time></trkpt><trkpt lat="43.24136" lon="10.759275"><ele>438.66666666666663</ele><time>2026-04-25T10:55:10.125Z</time></trkpt><trkpt lat="43.2413367" lon="10.7591733"><ele>439.5</ele><time>2026-04-25T10:55:11.135Z</time></trkpt><trkpt lat="43.2413083" lon="10.7590917"><ele>440.33333333333337</ele><time>2026-04-25T10:55:12.131Z</time></trkpt><trkpt lat="43.2412367" lon="10.758995"><ele>441.1666666666667</ele><time>2026-04-25T10:55:14.122Z</time></trkpt><trkpt lat="43.2411533" lon="10.7589817"><ele>442.0</ele><time>2026-04-25T10:55:16.124Z</time></trkpt><trkpt lat="43.241115" lon="10.7590867"><ele>442.0</ele><time>2026-04-25T10:55:19.115Z</time></trkpt><trkpt lat="43.241175" lon="10.7592633"><ele>442.00000000000006</ele><time>2026-04-25T10:55:21.121Z</time></trkpt><trkpt lat="43.2412033" lon="10.7593767"><ele>442.00000000000006</ele><time>2026-04-25T10:55:22.12Z</time></trkpt><trkpt lat="43.2412183" lon="10.7595017"><ele>442.0</ele><time>2026-04-25T10:55:23.119Z</time></trkpt><trkpt lat="43.241215" lon="10.75963"><ele>442.0</ele><time>2026-04-25T10:55:24.114Z</time></trkpt><trkpt lat="43.2412083" lon="10.7597583"><ele>444.40000000000003</ele><time>2026-04-25T10:55:25.125Z</time></trkpt><trkpt lat="43.241205" lon="10.7598983"><ele>446.80000000000007</ele><time>2026-04-25T10:55:26.116Z</time></trkpt><trkpt lat="43.2412017" lon="10.760045"><ele>449.2</ele><time>2026-04-25T10:55:27.117Z</time></trkpt><trkpt lat="43.2412" lon="10.7601883"><ele>451.6</ele><time>2026-04-25T10:55:28.127Z</time></trkpt><trkpt lat="43.2412017" lon="10.760335"><ele>454.0</ele><time>2026-04-25T10:55:29.131Z</time></trkpt><trkpt lat="43.2412117" lon="10.76048"><ele>456.79999999999995</ele><time>2026-04-25T10:55:30.14Z</time></trkpt><trkpt lat="43.24123" lon="10.7606133"><ele>459.59999999999997</ele><time>2026-04-25T10:55:31.129Z</time></trkpt><trkpt lat="43.2412633" lon="10.760745"><ele>462.4</ele><time>2026-04-25T10:55:32.115Z</time></trkpt><trkpt lat="43.241315" lon="10.760865"><ele>465.2</ele><time>2026-04-25T10:55:33.118Z</time></trkpt><trkpt lat="43.24137" lon="10.760975"><ele>468.0</ele><time>2026-04-25T10:55:34.119Z</time></trkpt><trkpt lat="43.2414233" lon="10.761075"><ele>468.3333333333333</ele><time>2026-04-25T10:55:35.118Z</time></trkpt><trkpt lat="43.241475" lon="10.7611617"><ele>468.66666666666663</ele><time>2026-04-25T10:55:36.124Z</time></trkpt><trkpt lat="43.2415133" lon="10.76124"><ele>469.0</ele><time>2026-04-25T10:55:37.125Z</time></trkpt><trkpt lat="43.241535" lon="10.7613767"><ele>469.3333333333333</ele><time>2026-04-25T10:55:39.126Z</time></trkpt><trkpt lat="43.2414917" lon="10.76147"><ele>469.66666666666663</ele><time>2026-04-25T10:55:41.119Z</time></trkpt><trkpt lat="43.2414067" lon="10.7615433"><ele>470.0</ele><time>2026-04-25T10:55:43.116Z</time></trkpt><trkpt lat="43.24131" lon="10.76166"><ele>469.99999999999994</ele><time>2026-04-25T10:55:45.118Z</time></trkpt><trkpt lat="43.241265" lon="10.7617367"><ele>470.0</ele><time>2026-04-25T10:55:46.115Z</time></trkpt><trkpt lat="43.241225" lon="10.7618233"><ele>470.0</ele><time>2026-04-25T10:55:47.122Z</time></trkpt><trkpt lat="43.241195" lon="10.7619167"><ele>470.0</ele><time>2026-04-25T10:55:48.118Z</time></trkpt><trkpt lat="43.2411717" lon="10.7620183"><ele>469.99999999999994</ele><time>2026-04-25T10:55:49.139Z</time></trkpt><trkpt lat="43.2411583" lon="10.7621317"><ele>470.0</ele><time>2026-04-25T10:55:50.108Z</time></trkpt><trkpt lat="43.241155" lon="10.7622583"><ele>469.0</ele><time>2026-04-25T10:55:51.122Z</time></trkpt><trkpt lat="43.241155" lon="10.762385"><ele>468.0</ele><time>2026-04-25T10:55:52.12Z</time></trkpt><trkpt lat="43.2411483" lon="10.7624933"><ele>467.0</ele><time>2026-04-25T10:55:53.121Z</time></trkpt><trkpt lat="43.2411117" lon="10.7626383"><ele>466.0</ele><time>2026-04-25T10:55:55.12Z</time></trkpt><trkpt lat="43.2410317" lon="10.76275"><ele>465.0</ele><time>2026-04-25T10:55:57.115Z</time></trkpt><trkpt lat="43.2409767" lon="10.762825"><ele>465.57142857142856</ele><time>2026-04-25T10:55:58.111Z</time></trkpt><trkpt lat="43.2409233" lon="10.7629133"><ele>466.14285714285717</ele><time>2026-04-25T10:55:59.111Z</time></trkpt><trkpt lat="43.240875" lon="10.7629983"><ele>466.7142857142857</ele><time>2026-04-25T10:56:00.118Z</time></trkpt><trkpt lat="43.2408217" lon="10.7630683"><ele>467.2857142857143</ele><time>2026-04-25T10:56:01.115Z</time></trkpt><trkpt lat="43.240765" lon="10.7631233"><ele>467.8571428571429</ele><time>2026-04-25T10:56:02.113Z</time></trkpt><trkpt lat="43.240705" lon="10.7631617"><ele>468.42857142857144</ele><time>2026-04-25T10:56:03.117Z</time></trkpt><trkpt lat="43.240645" lon="10.7632"><ele>469.0</ele><time>2026-04-25T10:56:04.121Z</time></trkpt><trkpt lat="43.2405883" lon="10.763245"><ele>469.0</ele><time>2026-04-25T10:56:05.117Z</time></trkpt><trkpt lat="43.2405333" lon="10.763295"><ele>469.0</ele><time>2026-04-25T10:56:06.111Z</time></trkpt><trkpt lat="43.2404283" lon="10.763385"><ele>469.0</ele><time>2026-04-25T10:56:08.128Z</time></trkpt><trkpt lat="43.2403183" lon="10.7634483"><ele>469.0</ele><time>2026-04-25T10:56:10.135Z</time></trkpt><trkpt lat="43.24022" lon="10.7635083"><ele>469.0</ele><time>2026-04-25T10:56:12.133Z</time></trkpt><trkpt lat="43.2401533" lon="10.7636"><ele>469.6666666666667</ele><time>2026-04-25T10:56:14.126Z</time></trkpt><trkpt lat="43.240145" lon="10.7637333"><ele>470.33333333333337</ele><time>2026-04-25T10:56:16.119Z</time></trkpt><trkpt lat="43.2402117" lon="10.7638483"><ele>471.0</ele><time>2026-04-25T10:56:18.122Z</time></trkpt><trkpt lat="43.24027" lon="10.7639"><ele>471.66666666666663</ele><time>2026-04-25T10:56:19.12Z</time></trkpt><trkpt lat="43.2403417" lon="10.763955"><ele>472.3333333333333</ele><time>2026-04-25T10:56:20.118Z</time></trkpt><trkpt lat="43.2404133" lon="10.76401"><ele>473.0</ele><time>2026-04-25T10:56:21.125Z</time></trkpt><trkpt lat="43.24048" lon="10.7640683"><ele>473.0</ele><time>2026-04-25T10:56:22.125Z</time></trkpt><trkpt lat="43.2405333" lon="10.7641517"><ele>472.99999999999994</ele><time>2026-04-25T10:56:23.118Z</time></trkpt><trkpt lat="43.240585" lon="10.7642617"><ele>472.99999999999994</ele><time>2026-04-25T10:56:24.126Z</time></trkpt><trkpt lat="43.2406433" lon="10.76438"><ele>473.0</ele><time>2026-04-25T10:56:25.123Z</time></trkpt><trkpt lat="43.240705" lon="10.7645033"><ele>473.0</ele><time>2026-04-25T10:56:26.122Z</time></trkpt><trkpt lat="43.2407567" lon="10.764615"><ele>471.66666666666663</ele><time>2026-04-25T10:56:27.122Z</time></trkpt><trkpt lat="43.2407933" lon="10.7647217"><ele>470.3333333333333</ele><time>2026-04-25T10:56:28.119Z</time></trkpt><trkpt lat="43.2408267" lon="10.764825"><ele>469.0</ele><time>2026-04-25T10:56:29.126Z</time></trkpt><trkpt lat="43.24085" lon="10.7649267"><ele>467.66666666666663</ele><time>2026-04-25T10:56:30.121Z</time></trkpt><trkpt lat="43.2408667" lon="10.765035"><ele>466.3333333333333</ele><time>2026-04-25T10:56:31.119Z</time></trkpt><trkpt lat="43.24088" lon="10.7651583"><ele>465.0</ele><time>2026-04-25T10:56:32.127Z</time></trkpt><trkpt lat="43.2409" lon="10.7653033"><ele>465.0</ele><time>2026-04-25T10:56:33.121Z</time></trkpt><trkpt lat="43.240925" lon="10.7654517"><ele>465.0</ele><time>2026-04-25T10:56:34.139Z</time></trkpt><trkpt lat="43.24095" lon="10.7655933"><ele>465.0</ele><time>2026-04-25T10:56:35.136Z</time></trkpt><trkpt lat="43.2409667" lon="10.7657233"><ele>465.0</ele><time>2026-04-25T10:56:36.13Z</time></trkpt><trkpt lat="43.240975" lon="10.76584"><ele>465.0</ele><time>2026-04-25T10:56:37.131Z</time></trkpt><trkpt lat="43.24097" lon="10.765955"><ele>464.2</ele><time>2026-04-25T10:56:38.123Z</time></trkpt><trkpt lat="43.2409567" lon="10.7660783"><ele>463.4</ele><time>2026-04-25T10:56:39.125Z</time></trkpt><trkpt lat="43.24093" lon="10.7662117"><ele>462.6</ele><time>2026-04-25T10:56:40.121Z</time></trkpt><trkpt lat="43.2408983" lon="10.7663417"><ele>461.8</ele><time>2026-04-25T10:56:41.128Z</time></trkpt><trkpt lat="43.2408667" lon="10.766475"><ele>461.0</ele><time>2026-04-25T10:56:42.122Z</time></trkpt><trkpt lat="43.2408367" lon="10.7666033"><ele>461.0</ele><time>2026-04-25T10:56:43.129Z</time></trkpt><trkpt lat="43.2408117" lon="10.7667317"><ele>461.0</ele><time>2026-04-25T10:56:44.127Z</time></trkpt><trkpt lat="43.2407933" lon="10.7668717"><ele>461.0</ele><time>2026-04-25T10:56:45.128Z</time></trkpt><trkpt lat="43.2407783" lon="10.7670283"><ele>461.0</ele><time>2026-04-25T10:56:46.129Z</time></trkpt><trkpt lat="43.2407533" lon="10.767205"><ele>461.0</ele><time>2026-04-25T10:56:47.125Z</time></trkpt><trkpt lat="43.2407283" lon="10.767385"><ele>461.25</ele><time>2026-04-25T10:56:48.137Z</time></trkpt><trkpt lat="43.24071" lon="10.7675567"><ele>461.5</ele><time>2026-04-25T10:56:49.129Z</time></trkpt><trkpt lat="43.2406933" lon="10.767725"><ele>461.75</ele><time>2026-04-25T10:56:50.126Z</time></trkpt><trkpt lat="43.2406817" lon="10.767885"><ele>462.0</ele><time>2026-04-25T10:56:51.126Z</time></trkpt><trkpt lat="43.24068" lon="10.76803"><ele>462.0</ele><time>2026-04-25T10:56:52.117Z</time></trkpt><trkpt lat="43.2406783" lon="10.76814"><ele>462.00000000000006</ele><time>2026-04-25T10:56:53.116Z</time></trkpt><trkpt lat="43.2406717" lon="10.7682317"><ele>462.00000000000006</ele><time>2026-04-25T10:56:54.14Z</time></trkpt><trkpt lat="43.24064" lon="10.7683617"><ele>462.0</ele><time>2026-04-25T10:56:56.131Z</time></trkpt><trkpt lat="43.2405717" lon="10.7683967"><ele>462.0</ele><time>2026-04-25T10:56:58.13Z</time></trkpt><trkpt lat="43.240445" lon="10.768355"><ele>461.0</ele><time>2026-04-25T10:57:00.113Z</time></trkpt><trkpt lat="43.240355" lon="10.768295"><ele>460.0</ele><time>2026-04-25T10:57:01.12Z</time></trkpt><trkpt lat="43.2402517" lon="10.76823"><ele>459.0</ele><time>2026-04-25T10:57:02.123Z</time></trkpt><trkpt lat="43.24014" lon="10.7681817"><ele>458.0</ele><time>2026-04-25T10:57:03.12Z</time></trkpt><trkpt lat="43.24002" lon="10.7681567"><ele>458.0</ele><time>2026-04-25T10:57:04.131Z</time></trkpt><trkpt lat="43.239895" lon="10.7681517"><ele>457.99999999999994</ele><time>2026-04-25T10:57:05.126Z</time></trkpt><trkpt lat="43.23978" lon="10.7681583"><ele>457.99999999999994</ele><time>2026-04-25T10:57:06.126Z</time></trkpt><trkpt lat="43.2396783" lon="10.7681567"><ele>458.0</ele><time>2026-04-25T10:57:07.123Z</time></trkpt><trkpt lat="43.2395883" lon="10.7681417"><ele>458.0</ele><time>2026-04-25T10:57:08.125Z</time></trkpt><trkpt lat="43.2394967" lon="10.7681083"><ele>457.0</ele><time>2026-04-25T10:57:09.122Z</time></trkpt><trkpt lat="43.239395" lon="10.768075"><ele>456.0</ele><time>2026-04-25T10:57:10.121Z</time></trkpt><trkpt lat="43.2392767" lon="10.768055"><ele>455.0</ele><time>2026-04-25T10:57:11.117Z</time></trkpt><trkpt lat="43.2391433" lon="10.76805"><ele>454.0</ele><time>2026-04-25T10:57:12.115Z</time></trkpt><trkpt lat="43.2390067" lon="10.76805"><ele>453.0</ele><time>2026-04-25T10:57:13.113Z</time></trkpt><trkpt lat="43.2388733" lon="10.7680533"><ele>452.0</ele><time>2026-04-25T10:57:14.12Z</time></trkpt><trkpt lat="43.23875" lon="10.7680617"><ele>451.0</ele><time>2026-04-25T10:57:15.117Z</time></trkpt><trkpt lat="43.238635" lon="10.7680667"><ele>450.0</ele><time>2026-04-25T10:57:16.118Z</time></trkpt><trkpt lat="43.2385333" lon="10.7680683"><ele>450.0</ele><time>2026-04-25T10:57:17.122Z</time></trkpt><trkpt lat="43.23844" lon="10.76807"><ele>450.0</ele><time>2026-04-25T10:57:18.126Z</time></trkpt><trkpt lat="43.2383483" lon="10.76807"><ele>450.0</ele><time>2026-04-25T10:57:19.13Z</time></trkpt><trkpt lat="43.238265" lon="10.7680733"><ele>450.0</ele><time>2026-04-25T10:57:20.13Z</time></trkpt><trkpt lat="43.2381917" lon="10.7680733"><ele>450.0</ele><time>2026-04-25T10:57:21.127Z</time></trkpt><trkpt lat="43.238125" lon="10.76807"><ele>450.0</ele><time>2026-04-25T10:57:22.128Z</time></trkpt><trkpt lat="43.23801" lon="10.7680833"><ele>449.0</ele><time>2026-04-25T10:57:24.123Z</time></trkpt><trkpt lat="43.2379033" lon="10.7681583"><ele>448.0</ele><time>2026-04-25T10:57:26.134Z</time></trkpt><trkpt lat="43.23783" lon="10.76828"><ele>447.0</ele><time>2026-04-25T10:57:28.12Z</time></trkpt><trkpt lat="43.23779" lon="10.7684583"><ele>446.0</ele><time>2026-04-25T10:57:30.121Z</time></trkpt><trkpt lat="43.2377767" lon="10.768585"><ele>445.8</ele><time>2026-04-25T10:57:31.125Z</time></trkpt><trkpt lat="43.23777" lon="10.7687333"><ele>445.6</ele><time>2026-04-25T10:57:32.134Z</time></trkpt><trkpt lat="43.2377683" lon="10.7688883"><ele>445.4</ele><time>2026-04-25T10:57:33.136Z</time></trkpt><trkpt lat="43.2377633" lon="10.769035"><ele>445.2</ele><time>2026-04-25T10:57:34.145Z</time></trkpt><trkpt lat="43.2377567" lon="10.7691733"><ele>445.0</ele><time>2026-04-25T10:57:35.136Z</time></trkpt><trkpt lat="43.2377467" lon="10.7692983"><ele>444.6666666666667</ele><time>2026-04-25T10:57:36.139Z</time></trkpt><trkpt lat="43.2377267" lon="10.7694117"><ele>444.33333333333337</ele><time>2026-04-25T10:57:37.128Z</time></trkpt><trkpt lat="43.23769" lon="10.7695133"><ele>444.0</ele><time>2026-04-25T10:57:38.126Z</time></trkpt><trkpt lat="43.2376417" lon="10.7696083"><ele>443.66666666666663</ele><time>2026-04-25T10:57:39.119Z</time></trkpt><trkpt lat="43.23758" lon="10.7696883"><ele>443.3333333333333</ele><time>2026-04-25T10:57:40.123Z</time></trkpt><trkpt lat="43.2375033" lon="10.7697533"><ele>443.0</ele><time>2026-04-25T10:57:41.131Z</time></trkpt><trkpt lat="43.237415" lon="10.7698067"><ele>442.99999999999994</ele><time>2026-04-25T10:57:42.131Z</time></trkpt><trkpt lat="43.2373283" lon="10.7698533"><ele>443.0</ele><time>2026-04-25T10:57:43.126Z</time></trkpt><trkpt lat="43.23725" lon="10.7698983"><ele>443.0</ele><time>2026-04-25T10:57:44.134Z</time></trkpt><trkpt lat="43.23718" lon="10.7699417"><ele>443.0</ele><time>2026-04-25T10:57:45.119Z</time></trkpt><trkpt lat="43.2371183" lon="10.769985"><ele>442.99999999999994</ele><time>2026-04-25T10:57:46.116Z</time></trkpt><trkpt lat="43.2370583" lon="10.7700317"><ele>443.0</ele><time>2026-04-25T10:57:47.118Z</time></trkpt><trkpt lat="43.2370067" lon="10.77009"><ele>443.3333333333333</ele><time>2026-04-25T10:57:48.124Z</time></trkpt><trkpt lat="43.23697" lon="10.77017"><ele>443.66666666666663</ele><time>2026-04-25T10:57:49.116Z</time></trkpt><trkpt lat="43.2369433" lon="10.7702633"><ele>444.0</ele><time>2026-04-25T10:57:50.12Z</time></trkpt><trkpt lat="43.2369267" lon="10.7703617"><ele>444.33333333333337</ele><time>2026-04-25T10:57:51.113Z</time></trkpt><trkpt lat="43.2369167" lon="10.7704567"><ele>444.6666666666667</ele><time>2026-04-25T10:57:52.118Z</time></trkpt><trkpt lat="43.2369133" lon="10.7705467"><ele>445.0</ele><time>2026-04-25T10:57:53.12Z</time></trkpt><trkpt lat="43.236945" lon="10.770705"><ele>445.0</ele><time>2026-04-25T10:57:55.125Z</time></trkpt><trkpt lat="43.23704" lon="10.7708183"><ele>445.0</ele><time>2026-04-25T10:57:57.132Z</time></trkpt><trkpt lat="43.2370967" lon="10.77086"><ele>445.0</ele><time>2026-04-25T10:57:58.13Z</time></trkpt><trkpt lat="43.23715" lon="10.77091"><ele>445.0</ele><time>2026-04-25T10:57:59.127Z</time></trkpt><trkpt lat="43.237225" lon="10.771045"><ele>445.0</ele><time>2026-04-25T10:58:01.124Z</time></trkpt><trkpt lat="43.237245" lon="10.7712217"><ele>447.1666666666667</ele><time>2026-04-25T10:58:03.124Z</time></trkpt><trkpt lat="43.2372433" lon="10.771325"><ele>449.33333333333337</ele><time>2026-04-25T10:58:04.128Z</time></trkpt><trkpt lat="43.2372383" lon="10.7714517"><ele>451.5</ele><time>2026-04-25T10:58:05.137Z</time></trkpt><trkpt lat="43.2372233" lon="10.7715733"><ele>453.66666666666663</ele><time>2026-04-25T10:58:06.129Z</time></trkpt><trkpt lat="43.2371983" lon="10.7716783"><ele>455.8333333333333</ele><time>2026-04-25T10:58:07.13Z</time></trkpt><trkpt lat="43.2371667" lon="10.7717583"><ele>458.0</ele><time>2026-04-25T10:58:08.137Z</time></trkpt><trkpt lat="43.237105" lon="10.7718267"><ele>457.99999999999994</ele><time>2026-04-25T10:58:10.139Z</time></trkpt><trkpt lat="43.2370117" lon="10.7718367"><ele>458.0</ele><time>2026-04-25T10:58:13.138Z</time></trkpt><trkpt lat="43.23693" lon="10.77183"><ele>458.0</ele><time>2026-04-25T10:58:16.118Z</time></trkpt><trkpt lat="43.236995" lon="10.7718283"><ele>458.0</ele><time>2026-04-25T10:58:32.131Z</time></trkpt><trkpt lat="43.2370683" lon="10.7718033"><ele>457.99999999999994</ele><time>2026-04-25T10:58:34.143Z</time></trkpt><trkpt lat="43.23713" lon="10.7717167"><ele>458.0</ele><time>2026-04-25T10:58:36.132Z</time></trkpt><trkpt lat="43.23718" lon="10.77155"><ele>457.99999999999994</ele><time>2026-04-25T10:58:38.129Z</time></trkpt><trkpt lat="43.237195" lon="10.7714417"><ele>458.0</ele><time>2026-04-25T10:58:39.135Z</time></trkpt><trkpt lat="43.237205" lon="10.7713383"><ele>458.0</ele><time>2026-04-25T10:58:40.119Z</time></trkpt><trkpt lat="43.237215" lon="10.771245"><ele>458.0</ele><time>2026-04-25T10:58:41.143Z</time></trkpt><trkpt lat="43.2372083" lon="10.7710817"><ele>457.99999999999994</ele><time>2026-04-25T10:58:43.142Z</time></trkpt><trkpt lat="43.237165" lon="10.7709583"><ele>458.0</ele><time>2026-04-25T10:58:45.113Z</time></trkpt><trkpt lat="43.2370917" lon="10.7708833"><ele>455.4</ele><time>2026-04-25T10:58:47.127Z</time></trkpt><trkpt lat="43.237015" lon="10.770805"><ele>452.79999999999995</ele><time>2026-04-25T10:58:49.132Z</time></trkpt><trkpt lat="43.23695" lon="10.7707017"><ele>450.2</ele><time>2026-04-25T10:58:51.131Z</time></trkpt><trkpt lat="43.2369167" lon="10.770565"><ele>447.6</ele><time>2026-04-25T10:58:53.129Z</time></trkpt><trkpt lat="43.23692" lon="10.7703983"><ele>445.0</ele><time>2026-04-25T10:58:55.124Z</time></trkpt><trkpt lat="43.2369333" lon="10.77031"><ele>445.00000000000006</ele><time>2026-04-25T10:58:56.127Z</time></trkpt><trkpt lat="43.2369533" lon="10.77022"><ele>445.0</ele><time>2026-04-25T10:58:57.123Z</time></trkpt><trkpt lat="43.2369883" lon="10.770135"><ele>445.0</ele><time>2026-04-25T10:58:58.111Z</time></trkpt><trkpt lat="43.23704" lon="10.7700633"><ele>445.0</ele><time>2026-04-25T10:58:59.119Z</time></trkpt><trkpt lat="43.2370967" lon="10.7700133"><ele>445.00000000000006</ele><time>2026-04-25T10:59:00.115Z</time></trkpt><trkpt lat="43.23718" lon="10.7699467"><ele>445.0</ele><time>2026-04-25T10:59:02.119Z</time></trkpt><trkpt lat="43.2371817" lon="10.76981"><ele>443.33333333333337</ele><time>2026-04-25T10:59:30.13Z</time></trkpt><trkpt lat="43.237095" lon="10.7697733"><ele>441.6666666666667</ele><time>2026-04-25T10:59:38.12Z</time></trkpt><trkpt lat="43.23704" lon="10.7698283"><ele>440.0</ele><time>2026-04-25T10:59:40.125Z</time></trkpt><trkpt lat="43.236965" lon="10.769885"><ele>438.33333333333337</ele><time>2026-04-25T10:59:42.124Z</time></trkpt><trkpt lat="43.23689" lon="10.7699217"><ele>436.6666666666667</ele><time>2026-04-25T10:59:44.116Z</time></trkpt><trkpt lat="43.2368233" lon="10.769965"><ele>435.0</ele><time>2026-04-25T10:59:46.118Z</time></trkpt><trkpt lat="43.2367683" lon="10.770015"><ele>435.0</ele><time>2026-04-25T10:59:48.112Z</time></trkpt><trkpt lat="43.2367233" lon="10.770095"><ele>435.0</ele><time>2026-04-25T10:59:50.128Z</time></trkpt><trkpt lat="43.2366883" lon="10.7701833"><ele>435.0</ele><time>2026-04-25T10:59:52.113Z</time></trkpt><trkpt lat="43.2366317" lon="10.7702783"><ele>435.0</ele><time>2026-04-25T10:59:55.136Z</time></trkpt><trkpt lat="43.2365817" lon="10.7703383"><ele>435.0</ele><time>2026-04-25T10:59:57.113Z</time></trkpt><trkpt lat="43.2365217" lon="10.7704017"><ele>435.0</ele><time>2026-04-25T10:59:59.114Z</time></trkpt><trkpt lat="43.2364667" lon="10.7704867"><ele>434.3333333333333</ele><time>2026-04-25T11:00:01.114Z</time></trkpt><trkpt lat="43.2363983" lon="10.7705817"><ele>433.66666666666663</ele><time>2026-04-25T11:00:03.121Z</time></trkpt><trkpt lat="43.2363383" lon="10.770655"><ele>433.0</ele><time>2026-04-25T11:00:06.11Z</time></trkpt><trkpt lat="43.236255" lon="10.7707133"><ele>432.3333333333333</ele><time>2026-04-25T11:00:09.119Z</time></trkpt><trkpt lat="43.236195" lon="10.770745"><ele>431.66666666666663</ele><time>2026-04-25T11:00:11.13Z</time></trkpt><trkpt lat="43.2361317" lon="10.7707383"><ele>431.0</ele><time>2026-04-25T11:00:13.127Z</time></trkpt><trkpt lat="43.236065" lon="10.7706983"><ele>430.99999999999994</ele><time>2026-04-25T11:00:15.117Z</time></trkpt><trkpt lat="43.23599" lon="10.7707017"><ele>431.0</ele><time>2026-04-25T11:00:17.115Z</time></trkpt><trkpt lat="43.2359283" lon="10.77073"><ele>431.0</ele><time>2026-04-25T11:00:19.112Z</time></trkpt><trkpt lat="43.23586" lon="10.77078"><ele>431.0</ele><time>2026-04-25T11:00:21.122Z</time></trkpt><trkpt lat="43.2357667" lon="10.7708217"><ele>430.99999999999994</ele><time>2026-04-25T11:00:23.118Z</time></trkpt><trkpt lat="43.2356633" lon="10.7708517"><ele>431.0</ele><time>2026-04-25T11:00:25.117Z</time></trkpt><trkpt lat="43.2355783" lon="10.77088"><ele>431.14285714285717</ele><time>2026-04-25T11:00:27.126Z</time></trkpt><trkpt lat="43.2355033" lon="10.7709433"><ele>431.2857142857143</ele><time>2026-04-25T11:00:30.125Z</time></trkpt><trkpt lat="43.235455" lon="10.7710133"><ele>431.42857142857144</ele><time>2026-04-25T11:00:33.12Z</time></trkpt><trkpt lat="43.2354567" lon="10.7711217"><ele>431.57142857142856</ele><time>2026-04-25T11:00:36.117Z</time></trkpt><trkpt lat="43.2354633" lon="10.7712133"><ele>431.71428571428567</ele><time>2026-04-25T11:00:38.12Z</time></trkpt><trkpt lat="43.235435" lon="10.771295"><ele>431.85714285714283</ele><time>2026-04-25T11:00:40.129Z</time></trkpt><trkpt lat="43.235375" lon="10.77135"><ele>432.0</ele><time>2026-04-25T11:00:42.124Z</time></trkpt><trkpt lat="43.23529" lon="10.7713767"><ele>432.0</ele><time>2026-04-25T11:00:44.121Z</time></trkpt><trkpt lat="43.2352033" lon="10.7713533"><ele>432.0</ele><time>2026-04-25T11:00:46.121Z</time></trkpt><trkpt lat="43.2351383" lon="10.7713233"><ele>432.0</ele><time>2026-04-25T11:00:48.122Z</time></trkpt><trkpt lat="43.2350583" lon="10.77132"><ele>432.0</ele><time>2026-04-25T11:00:51.125Z</time></trkpt><trkpt lat="43.23498" lon="10.7713383"><ele>432.0</ele><time>2026-04-25T11:00:53.128Z</time></trkpt><trkpt lat="43.234895" lon="10.77136"><ele>432.0</ele><time>2026-04-25T11:00:55.12Z</time></trkpt><trkpt lat="43.2348183" lon="10.77137"><ele>428.3333333333333</ele><time>2026-04-25T11:00:57.123Z</time></trkpt><trkpt lat="43.23474" lon="10.7713867"><ele>424.66666666666663</ele><time>2026-04-25T11:00:59.121Z</time></trkpt><trkpt lat="43.2346617" lon="10.7714333"><ele>421.0</ele><time>2026-04-25T11:01:01.125Z</time></trkpt><trkpt lat="43.2345967" lon="10.7714883"><ele>417.3333333333333</ele><time>2026-04-25T11:01:03.114Z</time></trkpt><trkpt lat="43.2345333" lon="10.7715333"><ele>413.66666666666663</ele><time>2026-04-25T11:01:05.119Z</time></trkpt><trkpt lat="43.2344683" lon="10.771585"><ele>410.0</ele><time>2026-04-25T11:01:07.126Z</time></trkpt><trkpt lat="43.23441" lon="10.77165"><ele>410.0</ele><time>2026-04-25T11:01:09.11Z</time></trkpt><trkpt lat="43.2343617" lon="10.7717067"><ele>410.0</ele><time>2026-04-25T11:01:11.111Z</time></trkpt><trkpt lat="43.2343217" lon="10.7718083"><ele>410.0</ele><time>2026-04-25T11:01:14.119Z</time></trkpt><trkpt lat="43.234305" lon="10.771905"><ele>410.0</ele><time>2026-04-25T11:01:17.123Z</time></trkpt><trkpt lat="43.2343" lon="10.7720017"><ele>410.0</ele><time>2026-04-25T11:01:19.127Z</time></trkpt><trkpt lat="43.2342883" lon="10.7721"><ele>410.0</ele><time>2026-04-25T11:01:21.117Z</time></trkpt><trkpt lat="43.2342783" lon="10.7722117"><ele>410.0</ele><time>2026-04-25T11:01:23.114Z</time></trkpt><trkpt lat="43.234265" lon="10.772315"><ele>410.99999999999994</ele><time>2026-04-25T11:01:25.119Z</time></trkpt><trkpt lat="43.2342467" lon="10.7724067"><ele>412.0</ele><time>2026-04-25T11:01:27.111Z</time></trkpt><trkpt lat="43.23422" lon="10.7724967"><ele>413.0</ele><time>2026-04-25T11:01:29.121Z</time></trkpt><trkpt lat="43.2341917" lon="10.7725817"><ele>414.0</ele><time>2026-04-25T11:01:31.132Z</time></trkpt><trkpt lat="43.2341317" lon="10.7726717"><ele>414.99999999999994</ele><time>2026-04-25T11:01:34.115Z</time></trkpt><trkpt lat="43.2340367" lon="10.7726767"><ele>416.0</ele><time>2026-04-25T11:01:37.122Z</time></trkpt><trkpt lat="43.2339583" lon="10.77263"><ele>416.4</ele><time>2026-04-25T11:01:39.112Z</time></trkpt><trkpt lat="43.233865" lon="10.7725867"><ele>416.8</ele><time>2026-04-25T11:01:41.114Z</time></trkpt><trkpt lat="43.2337717" lon="10.7725483"><ele>417.2</ele><time>2026-04-25T11:01:43.12Z</time></trkpt><trkpt lat="43.2336933" lon="10.7724933"><ele>417.59999999999997</ele><time>2026-04-25T11:01:45.114Z</time></trkpt><trkpt lat="43.2336233" lon="10.772415"><ele>418.0</ele><time>2026-04-25T11:01:47.134Z</time></trkpt><trkpt lat="43.2335333" lon="10.7723183"><ele>418.0</ele><time>2026-04-25T11:01:49.12Z</time></trkpt><trkpt lat="43.2334383" lon="10.77225"><ele>418.0</ele><time>2026-04-25T11:01:51.118Z</time></trkpt><trkpt lat="43.2333317" lon="10.7722083"><ele>418.0</ele><time>2026-04-25T11:01:53.111Z</time></trkpt><trkpt lat="43.23323" lon="10.7721667"><ele>418.0</ele><time>2026-04-25T11:01:55.127Z</time></trkpt><trkpt lat="43.2331717" lon="10.7721333"><ele>418.0</ele><time>2026-04-25T11:01:56.115Z</time></trkpt><trkpt lat="43.2331083" lon="10.7721017"><ele>423.00000000000006</ele><time>2026-04-25T11:01:57.123Z</time></trkpt><trkpt lat="43.233045" lon="10.7720733"><ele>428.0</ele><time>2026-04-25T11:01:58.119Z</time></trkpt><trkpt lat="43.2329817" lon="10.772045"><ele>433.0</ele><time>2026-04-25T11:01:59.119Z</time></trkpt><trkpt lat="43.2329217" lon="10.7720167"><ele>438.0</ele><time>2026-04-25T11:02:00.112Z</time></trkpt><trkpt lat="43.2328133" lon="10.7719833"><ele>443.00000000000006</ele><time>2026-04-25T11:02:02.135Z</time></trkpt><trkpt lat="43.2327117" lon="10.7719383"><ele>448.0</ele><time>2026-04-25T11:02:04.114Z</time></trkpt><trkpt lat="43.232635" lon="10.7718833"><ele>445.33333333333337</ele><time>2026-04-25T11:02:06.12Z</time></trkpt><trkpt lat="43.2325583" lon="10.7717817"><ele>442.6666666666667</ele><time>2026-04-25T11:02:08.12Z</time></trkpt><trkpt lat="43.2325133" lon="10.7717167"><ele>440.0</ele><time>2026-04-25T11:02:09.126Z</time></trkpt><trkpt lat="43.232465" lon="10.7716533"><ele>437.33333333333337</ele><time>2026-04-25T11:02:10.125Z</time></trkpt><trkpt lat="43.2324167" lon="10.77159"><ele>434.6666666666667</ele><time>2026-04-25T11:02:11.125Z</time></trkpt><trkpt lat="43.23237" lon="10.7715233"><ele>432.0</ele><time>2026-04-25T11:02:12.116Z</time></trkpt><trkpt lat="43.2322933" lon="10.771395"><ele>435.3333333333333</ele><time>2026-04-25T11:02:14.127Z</time></trkpt><trkpt lat="43.23221" lon="10.7712733"><ele>438.66666666666663</ele><time>2026-04-25T11:02:16.11Z</time></trkpt><trkpt lat="43.2321533" lon="10.7712133"><ele>442.0</ele><time>2026-04-25T11:02:17.113Z</time></trkpt><trkpt lat="43.2320883" lon="10.77115"><ele>445.3333333333333</ele><time>2026-04-25T11:02:18.113Z</time></trkpt><trkpt lat="43.2320233" lon="10.7710883"><ele>448.66666666666663</ele><time>2026-04-25T11:02:19.116Z</time></trkpt><trkpt lat="43.2319617" lon="10.77103"><ele>452.0</ele><time>2026-04-25T11:02:20.114Z</time></trkpt><trkpt lat="43.2319083" lon="10.7709817"><ele>452.0</ele><time>2026-04-25T11:02:21.127Z</time></trkpt><trkpt lat="43.2318167" lon="10.770885"><ele>452.00000000000006</ele><time>2026-04-25T11:02:23.121Z</time></trkpt><trkpt lat="43.2317667" lon="10.7708033"><ele>452.00000000000006</ele><time>2026-04-25T11:02:25.104Z</time></trkpt><trkpt lat="43.231765" lon="10.7706767"><ele>452.0</ele><time>2026-04-25T11:02:28.117Z</time></trkpt><trkpt lat="43.2317617" lon="10.77058"><ele>452.0</ele><time>2026-04-25T11:02:31.115Z</time></trkpt><trkpt lat="43.231675" lon="10.7704417"><ele>452.0</ele><time>2026-04-25T11:02:46.127Z</time></trkpt><trkpt lat="43.23161" lon="10.7704083"><ele>452.0</ele><time>2026-04-25T11:02:48.113Z</time></trkpt><trkpt lat="43.23154" lon="10.7703833"><ele>452.0</ele><time>2026-04-25T11:02:50.117Z</time></trkpt><trkpt lat="43.2314717" lon="10.7703567"><ele>452.0</ele><time>2026-04-25T11:02:52.124Z</time></trkpt><trkpt lat="43.23141" lon="10.7703283"><ele>452.0</ele><time>2026-04-25T11:02:54.12Z</time></trkpt><trkpt lat="43.2313417" lon="10.7703233"><ele>452.0</ele><time>2026-04-25T11:02:56.113Z</time></trkpt><trkpt lat="43.231265" lon="10.7703283"><ele>452.0</ele><time>2026-04-25T11:02:58.121Z</time></trkpt><trkpt lat="43.2311817" lon="10.7702983"><ele>452.99999999999994</ele><time>2026-04-25T11:03:00.12Z</time></trkpt><trkpt lat="43.2311217" lon="10.7702667"><ele>454.0</ele><time>2026-04-25T11:03:01.115Z</time></trkpt><trkpt lat="43.2310517" lon="10.7702367"><ele>455.0</ele><time>2026-04-25T11:03:02.118Z</time></trkpt><trkpt lat="43.2309733" lon="10.77021"><ele>456.0</ele><time>2026-04-25T11:03:03.118Z</time></trkpt><trkpt lat="43.2308933" lon="10.7701917"><ele>456.99999999999994</ele><time>2026-04-25T11:03:04.115Z</time></trkpt><trkpt lat="43.2308167" lon="10.7701733"><ele>458.0</ele><time>2026-04-25T11:03:05.122Z</time></trkpt><trkpt lat="43.23074" lon="10.7701533"><ele>455.16666666666663</ele><time>2026-04-25T11:03:06.122Z</time></trkpt><trkpt lat="43.230665" lon="10.7701283"><ele>452.3333333333333</ele><time>2026-04-25T11:03:07.124Z</time></trkpt><trkpt lat="43.230585" lon="10.7700867"><ele>449.5</ele><time>2026-04-25T11:03:08.114Z</time></trkpt><trkpt lat="43.230505" lon="10.77003"><ele>446.66666666666663</ele><time>2026-04-25T11:03:09.113Z</time></trkpt><trkpt lat="43.2304317" lon="10.769975"><ele>443.8333333333333</ele><time>2026-04-25T11:03:10.125Z</time></trkpt><trkpt lat="43.230365" lon="10.7699267"><ele>441.0</ele><time>2026-04-25T11:03:11.122Z</time></trkpt><trkpt lat="43.2302633" lon="10.7698567"><ele>441.0</ele><time>2026-04-25T11:03:13.122Z</time></trkpt><trkpt lat="43.2301533" lon="10.7698117"><ele>441.0</ele><time>2026-04-25T11:03:15.112Z</time></trkpt><trkpt lat="43.2300867" lon="10.7697933"><ele>441.0</ele><time>2026-04-25T11:03:16.115Z</time></trkpt><trkpt lat="43.2300167" lon="10.7697767"><ele>441.0</ele><time>2026-04-25T11:03:17.106Z</time></trkpt><trkpt lat="43.229945" lon="10.76976"><ele>441.0</ele><time>2026-04-25T11:03:18.113Z</time></trkpt><trkpt lat="43.2298767" lon="10.76975"><ele>441.0</ele><time>2026-04-25T11:03:19.117Z</time></trkpt><trkpt lat="43.22981" lon="10.7697433"><ele>438.0</ele><time>2026-04-25T11:03:20.115Z</time></trkpt><trkpt lat="43.229745" lon="10.769745"><ele>435.0</ele><time>2026-04-25T11:03:21.115Z</time></trkpt><trkpt lat="43.2296367" lon="10.7697883"><ele>432.0</ele><time>2026-04-25T11:03:23.127Z</time></trkpt><trkpt lat="43.2295483" lon="10.7698733"><ele>429.0</ele><time>2026-04-25T11:03:25.128Z</time></trkpt><trkpt lat="43.229465" lon="10.7699683"><ele>426.0</ele><time>2026-04-25T11:03:27.121Z</time></trkpt><trkpt lat="43.22939" lon="10.7700433"><ele>426.0</ele><time>2026-04-25T11:03:29.129Z</time></trkpt><trkpt lat="43.229325" lon="10.770125"><ele>426.0</ele><time>2026-04-25T11:03:31.124Z</time></trkpt><trkpt lat="43.229265" lon="10.77023"><ele>426.0</ele><time>2026-04-25T11:03:33.121Z</time></trkpt><trkpt lat="43.2292033" lon="10.7703383"><ele>426.0</ele><time>2026-04-25T11:03:35.123Z</time></trkpt><trkpt lat="43.2291483" lon="10.77041"><ele>426.0</ele><time>2026-04-25T11:03:37.122Z</time></trkpt><trkpt lat="43.229065" lon="10.7704333"><ele>426.0</ele><time>2026-04-25T11:03:40.109Z</time></trkpt><trkpt lat="43.2289817" lon="10.7703967"><ele>427.20000000000005</ele><time>2026-04-25T11:03:42.118Z</time></trkpt><trkpt lat="43.2288783" lon="10.770345"><ele>428.40000000000003</ele><time>2026-04-25T11:03:44.134Z</time></trkpt><trkpt lat="43.2287617" lon="10.7702917"><ele>429.6</ele><time>2026-04-25T11:03:46.127Z</time></trkpt><trkpt lat="43.2287" lon="10.7702633"><ele>430.8</ele><time>2026-04-25T11:03:47.12Z</time></trkpt><trkpt lat="43.2285983" lon="10.7702033"><ele>432.0</ele><time>2026-04-25T11:03:49.131Z</time></trkpt><trkpt lat="43.2285133" lon="10.7701483"><ele>432.0</ele><time>2026-04-25T11:03:51.125Z</time></trkpt><trkpt lat="43.22843" lon="10.7701167"><ele>432.0</ele><time>2026-04-25T11:03:53.126Z</time></trkpt><trkpt lat="43.2283433" lon="10.770125"><ele>432.0</ele><time>2026-04-25T11:03:55.122Z</time></trkpt><trkpt lat="43.2282617" lon="10.77017"><ele>432.0</ele><time>2026-04-25T11:03:57.123Z</time></trkpt><trkpt lat="43.22819" lon="10.7702333"><ele>432.0</ele><time>2026-04-25T11:03:59.124Z</time></trkpt><trkpt lat="43.2281367" lon="10.7702983"><ele>432.0</ele><time>2026-04-25T11:04:01.126Z</time></trkpt><trkpt lat="43.2280733" lon="10.77033"><ele>430.8</ele><time>2026-04-25T11:04:03.122Z</time></trkpt><trkpt lat="43.227985" lon="10.7703267"><ele>429.6</ele><time>2026-04-25T11:04:05.133Z</time></trkpt><trkpt lat="43.22787" lon="10.77031"><ele>428.40000000000003</ele><time>2026-04-25T11:04:07.125Z</time></trkpt><trkpt lat="43.2277533" lon="10.7702933"><ele>427.20000000000005</ele><time>2026-04-25T11:04:09.121Z</time></trkpt><trkpt lat="43.2276533" lon="10.7702583"><ele>426.0</ele><time>2026-04-25T11:04:11.125Z</time></trkpt><trkpt lat="43.2275433" lon="10.77017"><ele>423.6666666666667</ele><time>2026-04-25T11:04:13.127Z</time></trkpt><trkpt lat="43.2274817" lon="10.7701"><ele>421.33333333333337</ele><time>2026-04-25T11:04:14.119Z</time></trkpt><trkpt lat="43.22742" lon="10.770025"><ele>419.0</ele><time>2026-04-25T11:04:15.133Z</time></trkpt><trkpt lat="43.227365" lon="10.7699483"><ele>416.6666666666667</ele><time>2026-04-25T11:04:16.122Z</time></trkpt><trkpt lat="43.227315" lon="10.7698833"><ele>414.33333333333337</ele><time>2026-04-25T11:04:17.132Z</time></trkpt><trkpt lat="43.22724" lon="10.769795"><ele>412.0</ele><time>2026-04-25T11:04:19.131Z</time></trkpt><trkpt lat="43.227115" lon="10.7696633"><ele>411.33333333333337</ele><time>2026-04-25T11:05:06.126Z</time></trkpt><trkpt lat="43.227025" lon="10.7696117"><ele>410.6666666666667</ele><time>2026-04-25T11:05:09.14Z</time></trkpt><trkpt lat="43.2269483" lon="10.7695817"><ele>410.0</ele><time>2026-04-25T11:05:11.12Z</time></trkpt><trkpt lat="43.2268633" lon="10.7695783"><ele>409.33333333333337</ele><time>2026-04-25T11:05:13.127Z</time></trkpt><trkpt lat="43.22678" lon="10.7695883"><ele>408.6666666666667</ele><time>2026-04-25T11:05:15.129Z</time></trkpt><trkpt lat="43.22671" lon="10.7696017"><ele>408.0</ele><time>2026-04-25T11:05:17.124Z</time></trkpt><trkpt lat="43.2266417" lon="10.7696183"><ele>408.0</ele><time>2026-04-25T11:05:19.126Z</time></trkpt><trkpt lat="43.2265767" lon="10.7696317"><ele>408.0</ele><time>2026-04-25T11:05:21.122Z</time></trkpt><trkpt lat="43.2264867" lon="10.7696583"><ele>408.0</ele><time>2026-04-25T11:05:24.131Z</time></trkpt><trkpt lat="43.2264267" lon="10.7697017"><ele>408.0</ele><time>2026-04-25T11:05:26.128Z</time></trkpt><trkpt lat="43.22636" lon="10.7697583"><ele>408.0</ele><time>2026-04-25T11:05:28.136Z</time></trkpt><trkpt lat="43.22628" lon="10.7697983"><ele>408.0</ele><time>2026-04-25T11:05:30.135Z</time></trkpt><trkpt lat="43.226185" lon="10.76982"><ele>407.14285714285717</ele><time>2026-04-25T11:05:32.128Z</time></trkpt><trkpt lat="43.2261" lon="10.769835"><ele>406.28571428571433</ele><time>2026-04-25T11:05:34.121Z</time></trkpt><trkpt lat="43.2260267" lon="10.7698417"><ele>405.42857142857144</ele><time>2026-04-25T11:05:36.13Z</time></trkpt><trkpt lat="43.2259633" lon="10.7698517"><ele>404.57142857142856</ele><time>2026-04-25T11:05:39.126Z</time></trkpt><trkpt lat="43.2259317" lon="10.76993"><ele>403.7142857142857</ele><time>2026-04-25T11:05:44.119Z</time></trkpt><trkpt lat="43.2259467" lon="10.7700233"><ele>402.85714285714283</ele><time>2026-04-25T11:05:47.122Z</time></trkpt><trkpt lat="43.2259567" lon="10.7701133"><ele>402.0</ele><time>2026-04-25T11:05:50.125Z</time></trkpt><trkpt lat="43.2259183" lon="10.770205"><ele>402.0</ele><time>2026-04-25T11:05:54.132Z</time></trkpt><trkpt lat="43.2258933" lon="10.7703117"><ele>402.0</ele><time>2026-04-25T11:05:57.115Z</time></trkpt><trkpt lat="43.2258533" lon="10.770385"><ele>402.0</ele><time>2026-04-25T11:05:59.116Z</time></trkpt><trkpt lat="43.22579" lon="10.7704883"><ele>402.0</ele><time>2026-04-25T11:06:01.117Z</time></trkpt><trkpt lat="43.2257133" lon="10.770625"><ele>402.0</ele><time>2026-04-25T11:06:03.127Z</time></trkpt><trkpt lat="43.22567" lon="10.770695"><ele>402.0</ele><time>2026-04-25T11:06:04.127Z</time></trkpt><trkpt lat="43.2256283" lon="10.7707683"><ele>400.8</ele><time>2026-04-25T11:06:05.125Z</time></trkpt><trkpt lat="43.2255633" lon="10.770895"><ele>399.6</ele><time>2026-04-25T11:06:07.121Z</time></trkpt><trkpt lat="43.2255233" lon="10.7710133"><ele>398.40000000000003</ele><time>2026-04-25T11:06:09.121Z</time></trkpt><trkpt lat="43.2255017" lon="10.77115"><ele>397.20000000000005</ele><time>2026-04-25T11:06:11.129Z</time></trkpt><trkpt lat="43.2254983" lon="10.77128"><ele>396.0</ele><time>2026-04-25T11:06:13.116Z</time></trkpt><trkpt lat="43.22548" lon="10.7714033"><ele>396.0</ele><time>2026-04-25T11:06:15.125Z</time></trkpt><trkpt lat="43.225415" lon="10.7715283"><ele>396.0</ele><time>2026-04-25T11:06:17.121Z</time></trkpt><trkpt lat="43.2253367" lon="10.7716517"><ele>396.0</ele><time>2026-04-25T11:06:19.121Z</time></trkpt><trkpt lat="43.2252633" lon="10.77176"><ele>396.0</ele><time>2026-04-25T11:06:21.115Z</time></trkpt><trkpt lat="43.2252217" lon="10.77192"><ele>397.6666666666667</ele><time>2026-04-25T11:06:23.131Z</time></trkpt><trkpt lat="43.225215" lon="10.7720067"><ele>399.33333333333337</ele><time>2026-04-25T11:06:24.117Z</time></trkpt><trkpt lat="43.225215" lon="10.772095"><ele>401.0</ele><time>2026-04-25T11:06:25.118Z</time></trkpt><trkpt lat="43.2252217" lon="10.7721833"><ele>402.6666666666667</ele><time>2026-04-25T11:06:26.113Z</time></trkpt><trkpt lat="43.2252333" lon="10.7723417"><ele>404.33333333333337</ele><time>2026-04-25T11:06:28.123Z</time></trkpt><trkpt lat="43.2252033" lon="10.7724833"><ele>406.0</ele><time>2026-04-25T11:06:30.112Z</time></trkpt><trkpt lat="43.2251183" lon="10.7726067"><ele>406.00000000000006</ele><time>2026-04-25T11:06:32.121Z</time></trkpt><trkpt lat="43.2250683" lon="10.7726733"><ele>406.0</ele><time>2026-04-25T11:06:33.127Z</time></trkpt><trkpt lat="43.2250167" lon="10.7727467"><ele>406.0</ele><time>2026-04-25T11:06:34.126Z</time></trkpt><trkpt lat="43.22496" lon="10.7728283"><ele>406.0</ele><time>2026-04-25T11:06:35.126Z</time></trkpt><trkpt lat="43.2249" lon="10.772915"><ele>406.00000000000006</ele><time>2026-04-25T11:06:36.135Z</time></trkpt><trkpt lat="43.2248433" lon="10.772995"><ele>406.0</ele><time>2026-04-25T11:06:37.128Z</time></trkpt><trkpt lat="43.224795" lon="10.7730683"><ele>405.50000000000006</ele><time>2026-04-25T11:06:38.131Z</time></trkpt><trkpt lat="43.224755" lon="10.77314"><ele>405.0</ele><time>2026-04-25T11:06:39.12Z</time></trkpt><trkpt lat="43.2247083" lon="10.7732867"><ele>404.5</ele><time>2026-04-25T11:06:41.127Z</time></trkpt><trkpt lat="43.224705" lon="10.7733733"><ele>404.0</ele><time>2026-04-25T11:06:42.123Z</time></trkpt><trkpt lat="43.2247083" lon="10.773465"><ele>403.50000000000006</ele><time>2026-04-25T11:06:43.127Z</time></trkpt><trkpt lat="43.2247267" lon="10.7736267"><ele>403.0</ele><time>2026-04-25T11:06:45.12Z</time></trkpt><trkpt lat="43.224755" lon="10.7737383"><ele>404.7142857142857</ele><time>2026-04-25T11:06:47.138Z</time></trkpt><trkpt lat="43.2248017" lon="10.7738067"><ele>406.4285714285714</ele><time>2026-04-25T11:06:50.126Z</time></trkpt><trkpt lat="43.224825" lon="10.7737067"><ele>408.1428571428571</ele><time>2026-04-25T11:06:54.126Z</time></trkpt><trkpt lat="43.22481" lon="10.7736133"><ele>409.8571428571429</ele><time>2026-04-25T11:06:56.125Z</time></trkpt><trkpt lat="43.2248483" lon="10.77353"><ele>411.57142857142856</ele><time>2026-04-25T11:06:58.124Z</time></trkpt><trkpt lat="43.2249217" lon="10.773505"><ele>413.2857142857143</ele><time>2026-04-25T11:07:00.141Z</time></trkpt><trkpt lat="43.2249983" lon="10.773515"><ele>415.0</ele><time>2026-04-25T11:07:02.12Z</time></trkpt><trkpt lat="43.225045" lon="10.7736017"><ele>416.4</ele><time>2026-04-25T11:07:06.121Z</time></trkpt><trkpt lat="43.22501" lon="10.7737"><ele>417.8</ele><time>2026-04-25T11:07:09.123Z</time></trkpt><trkpt lat="43.2249783" lon="10.77383"><ele>419.20000000000005</ele><time>2026-04-25T11:07:11.126Z</time></trkpt><trkpt lat="43.22497" lon="10.7739883"><ele>420.6</ele><time>2026-04-25T11:07:13.125Z</time></trkpt><trkpt lat="43.225" lon="10.7740883"><ele>422.0</ele><time>2026-04-25T11:07:15.119Z</time></trkpt><trkpt lat="43.225075" lon="10.7741267"><ele>422.0</ele><time>2026-04-25T11:07:17.131Z</time></trkpt><trkpt lat="43.22514" lon="10.774175"><ele>422.0</ele><time>2026-04-25T11:07:19.129Z</time></trkpt><trkpt lat="43.225135" lon="10.7743033"><ele>422.0</ele><time>2026-04-25T11:07:22.133Z</time></trkpt><trkpt lat="43.22507" lon="10.7744083"><ele>422.0</ele><time>2026-04-25T11:07:24.125Z</time></trkpt><trkpt lat="43.2250433" lon="10.7745633"><ele>422.0</ele><time>2026-04-25T11:07:26.117Z</time></trkpt><trkpt lat="43.2250467" lon="10.774655"><ele>423.16666666666663</ele><time>2026-04-25T11:07:27.122Z</time></trkpt><trkpt lat="43.22505" lon="10.77476"><ele>424.3333333333333</ele><time>2026-04-25T11:07:28.127Z</time></trkpt><trkpt lat="43.2250383" lon="10.7748683"><ele>425.5</ele><time>2026-04-25T11:07:29.115Z</time></trkpt><trkpt lat="43.22501" lon="10.7749683"><ele>426.66666666666663</ele><time>2026-04-25T11:07:30.117Z</time></trkpt><trkpt lat="43.22497" lon="10.77506"><ele>427.8333333333333</ele><time>2026-04-25T11:07:31.124Z</time></trkpt><trkpt lat="43.2249233" lon="10.7751433"><ele>429.0</ele><time>2026-04-25T11:07:32.114Z</time></trkpt><trkpt lat="43.224885" lon="10.77522"><ele>430.1666666666667</ele><time>2026-04-25T11:07:33.115Z</time></trkpt><trkpt lat="43.2248433" lon="10.775345"><ele>431.33333333333337</ele><time>2026-04-25T11:07:35.125Z</time></trkpt><trkpt lat="43.224875" lon="10.77542"><ele>432.5</ele><time>2026-04-25T11:07:37.121Z</time></trkpt><trkpt lat="43.2249517" lon="10.77544"><ele>433.6666666666667</ele><time>2026-04-25T11:07:39.12Z</time></trkpt><trkpt lat="43.2250317" lon="10.77546"><ele>434.83333333333337</ele><time>2026-04-25T11:07:41.114Z</time></trkpt><trkpt lat="43.225065" lon="10.7755567"><ele>436.0</ele><time>2026-04-25T11:07:44.118Z</time></trkpt><trkpt lat="43.2250117" lon="10.7756317"><ele>436.0</ele><time>2026-04-25T11:07:46.114Z</time></trkpt><trkpt lat="43.2249283" lon="10.7757433"><ele>436.0</ele><time>2026-04-25T11:07:48.111Z</time></trkpt><trkpt lat="43.2248583" lon="10.775835"><ele>436.0</ele><time>2026-04-25T11:07:50.12Z</time></trkpt><trkpt lat="43.2248883" lon="10.775925"><ele>436.0</ele><time>2026-04-25T11:07:54.11Z</time></trkpt><trkpt lat="43.2249567" lon="10.77591"><ele>436.0</ele><time>2026-04-25T11:07:56.12Z</time></trkpt><trkpt lat="43.2250667" lon="10.775875"><ele>436.0</ele><time>2026-04-25T11:07:58.124Z</time></trkpt><trkpt lat="43.225185" lon="10.77584"><ele>436.0</ele><time>2026-04-25T11:08:00.123Z</time></trkpt><trkpt lat="43.22527" lon="10.7758233"><ele>436.0</ele><time>2026-04-25T11:08:02.131Z</time></trkpt><trkpt lat="43.2253267" lon="10.77589"><ele>436.0</ele><time>2026-04-25T11:08:05.129Z</time></trkpt><trkpt lat="43.225275" lon="10.7760183"><ele>436.0</ele><time>2026-04-25T11:08:08.124Z</time></trkpt><trkpt lat="43.2252283" lon="10.7760883"><ele>437.6666666666667</ele><time>2026-04-25T11:08:09.121Z</time></trkpt><trkpt lat="43.2251767" lon="10.7761667"><ele>439.33333333333337</ele><time>2026-04-25T11:08:10.133Z</time></trkpt><trkpt lat="43.225125" lon="10.7762383"><ele>441.0</ele><time>2026-04-25T11:08:11.129Z</time></trkpt><trkpt lat="43.2250483" lon="10.7763433"><ele>442.66666666666663</ele><time>2026-04-25T11:08:13.13Z</time></trkpt><trkpt lat="43.2250183" lon="10.7764383"><ele>444.3333333333333</ele><time>2026-04-25T11:08:15.123Z</time></trkpt><trkpt lat="43.2250717" lon="10.7764917"><ele>446.0</ele><time>2026-04-25T11:08:18.126Z</time></trkpt><trkpt lat="43.22517" lon="10.776455"><ele>446.0</ele><time>2026-04-25T11:08:20.126Z</time></trkpt><trkpt lat="43.225285" lon="10.7763467"><ele>446.0</ele><time>2026-04-25T11:08:22.127Z</time></trkpt><trkpt lat="43.2253433" lon="10.7762667"><ele>446.0</ele><time>2026-04-25T11:08:23.124Z</time></trkpt><trkpt lat="43.2253917" lon="10.776195"><ele>446.0</ele><time>2026-04-25T11:08:24.125Z</time></trkpt><trkpt lat="43.2254733" lon="10.7761017"><ele>446.0</ele><time>2026-04-25T11:08:26.124Z</time></trkpt><trkpt lat="43.225545" lon="10.776095"><ele>445.99999999999994</ele><time>2026-04-25T11:08:28.123Z</time></trkpt><trkpt lat="43.225555" lon="10.7762133"><ele>446.0</ele><time>2026-04-25T11:08:31.144Z</time></trkpt><trkpt lat="43.2255" lon="10.77633"><ele>446.0</ele><time>2026-04-25T11:08:33.135Z</time></trkpt><trkpt lat="43.225465" lon="10.7764033"><ele>446.0</ele><time>2026-04-25T11:08:34.13Z</time></trkpt><trkpt lat="43.2254283" lon="10.7764833"><ele>445.99999999999994</ele><time>2026-04-25T11:08:35.131Z</time></trkpt><trkpt lat="43.2253783" lon="10.776595"><ele>446.0</ele><time>2026-04-25T11:08:37.132Z</time></trkpt><trkpt lat="43.225345" lon="10.77667"><ele>446.0</ele><time>2026-04-25T11:08:39.123Z</time></trkpt><trkpt lat="43.225255" lon="10.7768433"><ele>446.0</ele><time>2026-04-25T11:09:11.118Z</time></trkpt><trkpt lat="43.2252917" lon="10.776935"><ele>446.0</ele><time>2026-04-25T11:09:58.129Z</time></trkpt><trkpt lat="43.22538" lon="10.776915"><ele>446.0</ele><time>2026-04-25T11:10:01.127Z</time></trkpt><trkpt lat="43.2254783" lon="10.7768617"><ele>446.0</ele><time>2026-04-25T11:10:03.116Z</time></trkpt><trkpt lat="43.225555" lon="10.7768617"><ele>446.20000000000005</ele><time>2026-04-25T11:10:06.126Z</time></trkpt><trkpt lat="43.225505" lon="10.776925"><ele>446.40000000000003</ele><time>2026-04-25T11:10:11.124Z</time></trkpt><trkpt lat="43.22539" lon="10.7769767"><ele>446.6</ele><time>2026-04-25T11:10:13.129Z</time></trkpt><trkpt lat="43.2253117" lon="10.7770233"><ele>446.8</ele><time>2026-04-25T11:10:14.115Z</time></trkpt><trkpt lat="43.22523" lon="10.7770733"><ele>447.0</ele><time>2026-04-25T11:10:15.116Z</time></trkpt><trkpt lat="43.22514" lon="10.7771183"><ele>447.0</ele><time>2026-04-25T11:10:16.125Z</time></trkpt><trkpt lat="43.2250533" lon="10.77716"><ele>447.00000000000006</ele><time>2026-04-25T11:10:17.118Z</time></trkpt><trkpt lat="43.2249667" lon="10.7771983"><ele>447.00000000000006</ele><time>2026-04-25T11:10:18.115Z</time></trkpt><trkpt lat="43.2248767" lon="10.7772367"><ele>447.0</ele><time>2026-04-25T11:10:19.127Z</time></trkpt><trkpt lat="43.2247933" lon="10.777275"><ele>447.0</ele><time>2026-04-25T11:10:20.111Z</time></trkpt><trkpt lat="43.2247083" lon="10.7773133"><ele>449.8333333333333</ele><time>2026-04-25T11:10:21.114Z</time></trkpt><trkpt lat="43.2246233" lon="10.777355"><ele>452.66666666666663</ele><time>2026-04-25T11:10:22.116Z</time></trkpt><trkpt lat="43.2245417" lon="10.7773983"><ele>455.5</ele><time>2026-04-25T11:10:23.105Z</time></trkpt><trkpt lat="43.2244667" lon="10.7774317"><ele>458.3333333333333</ele><time>2026-04-25T11:10:24.115Z</time></trkpt><trkpt lat="43.2243983" lon="10.7774467"><ele>461.16666666666663</ele><time>2026-04-25T11:10:25.123Z</time></trkpt><trkpt lat="43.2243033" lon="10.7774033"><ele>464.0</ele><time>2026-04-25T11:10:27.127Z</time></trkpt><trkpt lat="43.2242767" lon="10.7772983"><ele>463.99999999999994</ele><time>2026-04-25T11:10:29.118Z</time></trkpt><trkpt lat="43.2243267" lon="10.7771383"><ele>464.0</ele><time>2026-04-25T11:10:31.124Z</time></trkpt><trkpt lat="43.22434" lon="10.7770433"><ele>464.0</ele><time>2026-04-25T11:10:32.126Z</time></trkpt><trkpt lat="43.22433" lon="10.7769517"><ele>464.0</ele><time>2026-04-25T11:10:33.114Z</time></trkpt><trkpt lat="43.2243017" lon="10.7768733"><ele>463.99999999999994</ele><time>2026-04-25T11:10:34.121Z</time></trkpt><trkpt lat="43.22421" lon="10.7767733"><ele>464.0</ele><time>2026-04-25T11:10:36.122Z</time></trkpt><trkpt lat="43.2241267" lon="10.7767533"><ele>462.4</ele><time>2026-04-25T11:10:37.136Z</time></trkpt><trkpt lat="43.2240233" lon="10.7767417"><ele>460.79999999999995</ele><time>2026-04-25T11:10:38.122Z</time></trkpt><trkpt lat="43.2239267" lon="10.7767283"><ele>459.20000000000005</ele><time>2026-04-25T11:10:39.133Z</time></trkpt><trkpt lat="43.2238433" lon="10.7767333"><ele>457.6</ele><time>2026-04-25T11:10:40.121Z</time></trkpt><trkpt lat="43.2237633" lon="10.776755"><ele>456.0</ele><time>2026-04-25T11:10:41.121Z</time></trkpt><trkpt lat="43.2236833" lon="10.7767967"><ele>459.0</ele><time>2026-04-25T11:10:42.124Z</time></trkpt><trkpt lat="43.223585" lon="10.7768633"><ele>462.0</ele><time>2026-04-25T11:10:43.126Z</time></trkpt><trkpt lat="43.2234783" lon="10.7769333"><ele>465.0</ele><time>2026-04-25T11:10:44.123Z</time></trkpt><trkpt lat="43.223375" lon="10.7769983"><ele>468.0</ele><time>2026-04-25T11:10:45.111Z</time></trkpt><trkpt lat="43.22327" lon="10.777055"><ele>468.0</ele><time>2026-04-25T11:10:46.112Z</time></trkpt><trkpt lat="43.2231633" lon="10.7770967"><ele>467.99999999999994</ele><time>2026-04-25T11:10:47.122Z</time></trkpt><trkpt lat="43.2230533" lon="10.7771183"><ele>467.99999999999994</ele><time>2026-04-25T11:10:48.122Z</time></trkpt><trkpt lat="43.2229483" lon="10.77714"><ele>468.0</ele><time>2026-04-25T11:10:49.115Z</time></trkpt><trkpt lat="43.2228383" lon="10.7771717"><ele>468.0</ele><time>2026-04-25T11:10:50.115Z</time></trkpt><trkpt lat="43.2227233" lon="10.7772133"><ele>466.4</ele><time>2026-04-25T11:10:51.124Z</time></trkpt><trkpt lat="43.2226133" lon="10.7772633"><ele>464.79999999999995</ele><time>2026-04-25T11:10:52.133Z</time></trkpt><trkpt lat="43.2225117" lon="10.7773083"><ele>463.2</ele><time>2026-04-25T11:10:53.129Z</time></trkpt><trkpt lat="43.2224233" lon="10.77735"><ele>461.6</ele><time>2026-04-25T11:10:54.121Z</time></trkpt><trkpt lat="43.222345" lon="10.777385"><ele>460.0</ele><time>2026-04-25T11:10:55.142Z</time></trkpt><trkpt lat="43.22227" lon="10.7774217"><ele>457.6</ele><time>2026-04-25T11:10:56.121Z</time></trkpt><trkpt lat="43.222205" lon="10.7774683"><ele>455.2</ele><time>2026-04-25T11:10:57.127Z</time></trkpt><trkpt lat="43.2221467" lon="10.777535"><ele>452.79999999999995</ele><time>2026-04-25T11:10:58.118Z</time></trkpt><trkpt lat="43.2220967" lon="10.7776283"><ele>450.4</ele><time>2026-04-25T11:10:59.121Z</time></trkpt><trkpt lat="43.2220583" lon="10.7777517"><ele>448.0</ele><time>2026-04-25T11:11:00.123Z</time></trkpt><trkpt lat="43.222035" lon="10.7779267"><ele>448.0</ele><time>2026-04-25T11:11:01.125Z</time></trkpt><trkpt lat="43.222015" lon="10.7781317"><ele>448.0</ele><time>2026-04-25T11:11:02.119Z</time></trkpt><trkpt lat="43.22199" lon="10.778325"><ele>448.0</ele><time>2026-04-25T11:11:03.13Z</time></trkpt><trkpt lat="43.2219533" lon="10.77849"><ele>448.0</ele><time>2026-04-25T11:11:04.12Z</time></trkpt><trkpt lat="43.221905" lon="10.7786283"><ele>448.75</ele><time>2026-04-25T11:11:05.121Z</time></trkpt><trkpt lat="43.2218383" lon="10.77876"><ele>449.5</ele><time>2026-04-25T11:11:06.112Z</time></trkpt><trkpt lat="43.22175" lon="10.7788983"><ele>450.25</ele><time>2026-04-25T11:11:07.113Z</time></trkpt><trkpt lat="43.2216667" lon="10.779045"><ele>451.0</ele><time>2026-04-25T11:11:08.118Z</time></trkpt><trkpt lat="43.2215933" lon="10.7791983"><ele>450.75</ele><time>2026-04-25T11:11:09.113Z</time></trkpt><trkpt lat="43.2215233" lon="10.779355"><ele>450.5</ele><time>2026-04-25T11:11:10.117Z</time></trkpt><trkpt lat="43.2214567" lon="10.77951"><ele>450.25</ele><time>2026-04-25T11:11:11.125Z</time></trkpt><trkpt lat="43.221395" lon="10.77965"><ele>450.0</ele><time>2026-04-25T11:11:12.113Z</time></trkpt><trkpt lat="43.22133" lon="10.7797917"><ele>450.0</ele><time>2026-04-25T11:11:13.125Z</time></trkpt><trkpt lat="43.221255" lon="10.779925"><ele>450.0</ele><time>2026-04-25T11:11:14.124Z</time></trkpt><trkpt lat="43.221175" lon="10.7800567"><ele>450.0</ele><time>2026-04-25T11:11:15.124Z</time></trkpt><trkpt lat="43.2210817" lon="10.78019"><ele>450.0</ele><time>2026-04-25T11:11:16.119Z</time></trkpt><trkpt lat="43.2209833" lon="10.7803233"><ele>450.0</ele><time>2026-04-25T11:11:17.123Z</time></trkpt><trkpt lat="43.2208867" lon="10.7804567"><ele>450.0</ele><time>2026-04-25T11:11:18.112Z</time></trkpt><trkpt lat="43.2207967" lon="10.78058"><ele>450.0</ele><time>2026-04-25T11:11:19.118Z</time></trkpt><trkpt lat="43.2207183" lon="10.7806967"><ele>450.0</ele><time>2026-04-25T11:11:20.112Z</time></trkpt><trkpt lat="43.2206533" lon="10.7808067"><ele>449.8333333333333</ele><time>2026-04-25T11:11:21.113Z</time></trkpt><trkpt lat="43.2206" lon="10.78092"><ele>449.66666666666663</ele><time>2026-04-25T11:11:22.121Z</time></trkpt><trkpt lat="43.2205633" lon="10.7810333"><ele>449.5</ele><time>2026-04-25T11:11:23.119Z</time></trkpt><trkpt lat="43.220545" lon="10.7811433"><ele>449.3333333333333</ele><time>2026-04-25T11:11:24.129Z</time></trkpt><trkpt lat="43.2205417" lon="10.78125"><ele>449.16666666666663</ele><time>2026-04-25T11:11:25.117Z</time></trkpt><trkpt lat="43.2205517" lon="10.7813567"><ele>449.0</ele><time>2026-04-25T11:11:26.119Z</time></trkpt><trkpt lat="43.2205767" lon="10.7814667"><ele>448.99999999999994</ele><time>2026-04-25T11:11:27.122Z</time></trkpt><trkpt lat="43.2206067" lon="10.7815833"><ele>449.0</ele><time>2026-04-25T11:11:28.118Z</time></trkpt><trkpt lat="43.2206383" lon="10.7816967"><ele>449.0</ele><time>2026-04-25T11:11:29.123Z</time></trkpt><trkpt lat="43.2206683" lon="10.7818117"><ele>449.0</ele><time>2026-04-25T11:11:30.123Z</time></trkpt><trkpt lat="43.2206933" lon="10.7819217"><ele>448.99999999999994</ele><time>2026-04-25T11:11:31.136Z</time></trkpt><trkpt lat="43.2207083" lon="10.7820267"><ele>449.0</ele><time>2026-04-25T11:11:32.116Z</time></trkpt><trkpt lat="43.2207083" lon="10.7821367"><ele>450.0</ele><time>2026-04-25T11:11:33.113Z</time></trkpt><trkpt lat="43.2206933" lon="10.782265"><ele>451.0</ele><time>2026-04-25T11:11:34.121Z</time></trkpt><trkpt lat="43.2206533" lon="10.782415"><ele>452.0</ele><time>2026-04-25T11:11:35.117Z</time></trkpt><trkpt lat="43.220605" lon="10.78257"><ele>453.0</ele><time>2026-04-25T11:11:36.114Z</time></trkpt><trkpt lat="43.2205633" lon="10.7827217"><ele>453.75</ele><time>2026-04-25T11:11:37.125Z</time></trkpt><trkpt lat="43.2205217" lon="10.782885"><ele>454.5</ele><time>2026-04-25T11:11:38.115Z</time></trkpt><trkpt lat="43.2204783" lon="10.783065"><ele>455.25</ele><time>2026-04-25T11:11:39.113Z</time></trkpt><trkpt lat="43.2204367" lon="10.7832583"><ele>456.0</ele><time>2026-04-25T11:11:40.136Z</time></trkpt><trkpt lat="43.2203917" lon="10.7834483"><ele>455.5</ele><time>2026-04-25T11:11:41.12Z</time></trkpt><trkpt lat="43.220345" lon="10.7836317"><ele>455.0</ele><time>2026-04-25T11:11:42.127Z</time></trkpt><trkpt lat="43.2203" lon="10.7838083"><ele>454.5</ele><time>2026-04-25T11:11:43.125Z</time></trkpt><trkpt lat="43.2202617" lon="10.7839817"><ele>454.0</ele><time>2026-04-25T11:11:44.114Z</time></trkpt><trkpt lat="43.2202333" lon="10.7841517"><ele>454.0</ele><time>2026-04-25T11:11:45.12Z</time></trkpt><trkpt lat="43.2202133" lon="10.7843083"><ele>454.0</ele><time>2026-04-25T11:11:46.121Z</time></trkpt><trkpt lat="43.2202067" lon="10.784465"><ele>454.0</ele><time>2026-04-25T11:11:47.122Z</time></trkpt><trkpt lat="43.22021" lon="10.7846317"><ele>454.0</ele><time>2026-04-25T11:11:48.121Z</time></trkpt><trkpt lat="43.220215" lon="10.7848117"><ele>454.25</ele><time>2026-04-25T11:11:49.127Z</time></trkpt><trkpt lat="43.220215" lon="10.784995"><ele>454.5</ele><time>2026-04-25T11:11:50.123Z</time></trkpt><trkpt lat="43.220205" lon="10.7851767"><ele>454.75</ele><time>2026-04-25T11:11:51.123Z</time></trkpt><trkpt lat="43.2201817" lon="10.7853517"><ele>455.0</ele><time>2026-04-25T11:11:52.125Z</time></trkpt><trkpt lat="43.2201417" lon="10.78552"><ele>456.0</ele><time>2026-04-25T11:11:53.123Z</time></trkpt><trkpt lat="43.220095" lon="10.785685"><ele>457.0</ele><time>2026-04-25T11:11:54.127Z</time></trkpt><trkpt lat="43.2200433" lon="10.7858467"><ele>458.0</ele><time>2026-04-25T11:11:55.127Z</time></trkpt><trkpt lat="43.2199833" lon="10.7859967"><ele>459.0</ele><time>2026-04-25T11:11:56.134Z</time></trkpt><trkpt lat="43.2199217" lon="10.7861417"><ele>459.25</ele><time>2026-04-25T11:11:57.121Z</time></trkpt><trkpt lat="43.2198683" lon="10.7862817"><ele>459.5</ele><time>2026-04-25T11:11:58.119Z</time></trkpt><trkpt lat="43.2198283" lon="10.786435"><ele>459.75</ele><time>2026-04-25T11:11:59.115Z</time></trkpt><trkpt lat="43.2197967" lon="10.7865983"><ele>460.0</ele><time>2026-04-25T11:12:00.12Z</time></trkpt><trkpt lat="43.219765" lon="10.7867683"><ele>460.5</ele><time>2026-04-25T11:12:01.116Z</time></trkpt><trkpt lat="43.2197233" lon="10.78694"><ele>461.0</ele><time>2026-04-25T11:12:02.124Z</time></trkpt><trkpt lat="43.2196717" lon="10.7871"><ele>461.5</ele><time>2026-04-25T11:12:03.123Z</time></trkpt><trkpt lat="43.2196167" lon="10.7872367"><ele>462.0</ele><time>2026-04-25T11:12:04.124Z</time></trkpt><trkpt lat="43.2195583" lon="10.78735"><ele>462.0</ele><time>2026-04-25T11:12:05.12Z</time></trkpt><trkpt lat="43.2194883" lon="10.78745"><ele>462.0</ele><time>2026-04-25T11:12:06.114Z</time></trkpt><trkpt lat="43.2194067" lon="10.787565"><ele>462.0</ele><time>2026-04-25T11:12:07.123Z</time></trkpt><trkpt lat="43.2193217" lon="10.78769"><ele>462.0</ele><time>2026-04-25T11:12:08.128Z</time></trkpt><trkpt lat="43.2192383" lon="10.787815"><ele>462.0</ele><time>2026-04-25T11:12:09.126Z</time></trkpt><trkpt lat="43.2191617" lon="10.78794"><ele>462.00000000000006</ele><time>2026-04-25T11:12:10.122Z</time></trkpt><trkpt lat="43.21909" lon="10.7880583"><ele>462.00000000000006</ele><time>2026-04-25T11:12:11.122Z</time></trkpt><trkpt lat="43.21902" lon="10.788165"><ele>462.0</ele><time>2026-04-25T11:12:12.113Z</time></trkpt><trkpt lat="43.218945" lon="10.7882667"><ele>462.0</ele><time>2026-04-25T11:12:13.135Z</time></trkpt><trkpt lat="43.2188583" lon="10.78837"><ele>462.5</ele><time>2026-04-25T11:12:14.132Z</time></trkpt><trkpt lat="43.2187667" lon="10.7884717"><ele>463.0</ele><time>2026-04-25T11:12:15.135Z</time></trkpt><trkpt lat="43.2186767" lon="10.7885867"><ele>463.5</ele><time>2026-04-25T11:12:16.119Z</time></trkpt><trkpt lat="43.2185933" lon="10.7887033"><ele>464.0</ele><time>2026-04-25T11:12:17.116Z</time></trkpt><trkpt lat="43.2185167" lon="10.7888267"><ele>464.0</ele><time>2026-04-25T11:12:18.122Z</time></trkpt><trkpt lat="43.2184483" lon="10.7889533"><ele>464.0</ele><time>2026-04-25T11:12:19.125Z</time></trkpt><trkpt lat="43.2183817" lon="10.789085"><ele>464.0</ele><time>2026-04-25T11:12:20.123Z</time></trkpt><trkpt lat="43.2183133" lon="10.7892167"><ele>464.0</ele><time>2026-04-25T11:12:21.126Z</time></trkpt><trkpt lat="43.2182317" lon="10.7893417"><ele>463.4</ele><time>2026-04-25T11:12:22.117Z</time></trkpt><trkpt lat="43.218145" lon="10.7894617"><ele>462.79999999999995</ele><time>2026-04-25T11:12:23.12Z</time></trkpt><trkpt lat="43.2180633" lon="10.7895733"><ele>462.20000000000005</ele><time>2026-04-25T11:12:24.111Z</time></trkpt><trkpt lat="43.2179917" lon="10.7896783"><ele>461.6</ele><time>2026-04-25T11:12:25.127Z</time></trkpt><trkpt lat="43.2179283" lon="10.7897683"><ele>461.0</ele><time>2026-04-25T11:12:26.124Z</time></trkpt><trkpt lat="43.217865" lon="10.7898533"><ele>460.99999999999994</ele><time>2026-04-25T11:12:27.12Z</time></trkpt><trkpt lat="43.2178" lon="10.789925"><ele>461.0</ele><time>2026-04-25T11:12:28.122Z</time></trkpt><trkpt lat="43.21773" lon="10.78998"><ele>461.0</ele><time>2026-04-25T11:12:29.121Z</time></trkpt><trkpt lat="43.2176517" lon="10.790015"><ele>461.0</ele><time>2026-04-25T11:12:30.108Z</time></trkpt><trkpt lat="43.2175667" lon="10.7900283"><ele>460.99999999999994</ele><time>2026-04-25T11:12:31.109Z</time></trkpt><trkpt lat="43.2174867" lon="10.79004"><ele>461.0</ele><time>2026-04-25T11:12:32.125Z</time></trkpt><trkpt lat="43.2174083" lon="10.7900617"><ele>460.99999999999994</ele><time>2026-04-25T11:12:33.117Z</time></trkpt><trkpt lat="43.21733" lon="10.79009"><ele>461.0</ele><time>2026-04-25T11:12:34.13Z</time></trkpt><trkpt lat="43.2172583" lon="10.79013"><ele>461.0</ele><time>2026-04-25T11:12:35.121Z</time></trkpt><trkpt lat="43.2171917" lon="10.7901883"><ele>461.0</ele><time>2026-04-25T11:12:36.13Z</time></trkpt><trkpt lat="43.2171267" lon="10.7902683"><ele>460.99999999999994</ele><time>2026-04-25T11:12:37.123Z</time></trkpt><trkpt lat="43.2170667" lon="10.7903667"><ele>461.0</ele><time>2026-04-25T11:12:38.12Z</time></trkpt><trkpt lat="43.2170117" lon="10.79047"><ele>459.4</ele><time>2026-04-25T11:12:39.123Z</time></trkpt><trkpt lat="43.2169517" lon="10.7905733"><ele>457.8</ele><time>2026-04-25T11:12:40.114Z</time></trkpt><trkpt lat="43.21689" lon="10.790665"><ele>456.19999999999993</ele><time>2026-04-25T11:12:41.114Z</time></trkpt><trkpt lat="43.216825" lon="10.79075"><ele>454.59999999999997</ele><time>2026-04-25T11:12:42.12Z</time></trkpt><trkpt lat="43.216755" lon="10.7908367"><ele>453.0</ele><time>2026-04-25T11:12:43.123Z</time></trkpt><trkpt lat="43.216685" lon="10.79092"><ele>453.0</ele><time>2026-04-25T11:12:44.112Z</time></trkpt><trkpt lat="43.21662" lon="10.791005"><ele>452.99999999999994</ele><time>2026-04-25T11:12:45.114Z</time></trkpt><trkpt lat="43.2165567" lon="10.7910917"><ele>452.99999999999994</ele><time>2026-04-25T11:12:46.116Z</time></trkpt><trkpt lat="43.2165017" lon="10.791185"><ele>453.0</ele><time>2026-04-25T11:12:47.116Z</time></trkpt><trkpt lat="43.2164533" lon="10.7912983"><ele>453.0</ele><time>2026-04-25T11:12:48.124Z</time></trkpt><trkpt lat="43.216415" lon="10.7914267"><ele>451.2</ele><time>2026-04-25T11:12:49.113Z</time></trkpt><trkpt lat="43.21639" lon="10.7915683"><ele>449.4</ele><time>2026-04-25T11:12:50.125Z</time></trkpt><trkpt lat="43.21637" lon="10.791715"><ele>447.59999999999997</ele><time>2026-04-25T11:12:51.124Z</time></trkpt><trkpt lat="43.216345" lon="10.79186"><ele>445.79999999999995</ele><time>2026-04-25T11:12:52.112Z</time></trkpt><trkpt lat="43.216305" lon="10.791995"><ele>444.0</ele><time>2026-04-25T11:12:53.125Z</time></trkpt><trkpt lat="43.216245" lon="10.7921267"><ele>444.0</ele><time>2026-04-25T11:12:54.12Z</time></trkpt><trkpt lat="43.216165" lon="10.7922567"><ele>444.0</ele><time>2026-04-25T11:12:55.122Z</time></trkpt><trkpt lat="43.21607" lon="10.7923833"><ele>444.0</ele><time>2026-04-25T11:12:56.127Z</time></trkpt><trkpt lat="43.215975" lon="10.792505"><ele>444.0</ele><time>2026-04-25T11:12:57.128Z</time></trkpt><trkpt lat="43.2158917" lon="10.7926167"><ele>443.79999999999995</ele><time>2026-04-25T11:12:58.122Z</time></trkpt><trkpt lat="43.2158133" lon="10.792715"><ele>443.59999999999997</ele><time>2026-04-25T11:12:59.118Z</time></trkpt><trkpt lat="43.2157333" lon="10.7927983"><ele>443.4</ele><time>2026-04-25T11:13:00.115Z</time></trkpt><trkpt lat="43.2156483" lon="10.7928733"><ele>443.2</ele><time>2026-04-25T11:13:01.12Z</time></trkpt><trkpt lat="43.2155583" lon="10.792925"><ele>443.0</ele><time>2026-04-25T11:13:02.122Z</time></trkpt><trkpt lat="43.215455" lon="10.7929567"><ele>443.0</ele><time>2026-04-25T11:13:03.122Z</time></trkpt><trkpt lat="43.2153333" lon="10.7929667"><ele>443.0</ele><time>2026-04-25T11:13:04.113Z</time></trkpt><trkpt lat="43.2152067" lon="10.7929683"><ele>443.0</ele><time>2026-04-25T11:13:05.124Z</time></trkpt><trkpt lat="43.215085" lon="10.7929667"><ele>443.0</ele><time>2026-04-25T11:13:06.121Z</time></trkpt><trkpt lat="43.2149717" lon="10.792965"><ele>443.0</ele><time>2026-04-25T11:13:07.121Z</time></trkpt><trkpt lat="43.21486" lon="10.7929667"><ele>442.99999999999994</ele><time>2026-04-25T11:13:08.123Z</time></trkpt><trkpt lat="43.2147533" lon="10.7929633"><ele>442.99999999999994</ele><time>2026-04-25T11:13:09.123Z</time></trkpt><trkpt lat="43.2146583" lon="10.792955"><ele>443.0</ele><time>2026-04-25T11:13:10.121Z</time></trkpt><trkpt lat="43.2145683" lon="10.7929433"><ele>443.0</ele><time>2026-04-25T11:13:11.128Z</time></trkpt><trkpt lat="43.2144867" lon="10.792925"><ele>442.3333333333333</ele><time>2026-04-25T11:13:12.12Z</time></trkpt><trkpt lat="43.2144067" lon="10.7929083"><ele>441.66666666666663</ele><time>2026-04-25T11:13:13.107Z</time></trkpt><trkpt lat="43.21433" lon="10.7929033"><ele>441.0</ele><time>2026-04-25T11:13:14.115Z</time></trkpt><trkpt lat="43.2142633" lon="10.7929083"><ele>440.33333333333337</ele><time>2026-04-25T11:13:15.121Z</time></trkpt><trkpt lat="43.2141567" lon="10.79294"><ele>439.6666666666667</ele><time>2026-04-25T11:13:17.121Z</time></trkpt><trkpt lat="43.214085" lon="10.7930083"><ele>439.0</ele><time>2026-04-25T11:13:19.122Z</time></trkpt><trkpt lat="43.21402" lon="10.7931083"><ele>439.2</ele><time>2026-04-25T11:13:21.124Z</time></trkpt><trkpt lat="43.2139767" lon="10.7931833"><ele>439.4</ele><time>2026-04-25T11:13:22.114Z</time></trkpt><trkpt lat="43.2139217" lon="10.7932833"><ele>439.6</ele><time>2026-04-25T11:13:23.116Z</time></trkpt><trkpt lat="43.2138533" lon="10.7934067"><ele>439.8</ele><time>2026-04-25T11:13:24.123Z</time></trkpt><trkpt lat="43.2137783" lon="10.7935333"><ele>440.0</ele><time>2026-04-25T11:13:25.133Z</time></trkpt><trkpt lat="43.2136967" lon="10.79366"><ele>440.0</ele><time>2026-04-25T11:13:26.133Z</time></trkpt><trkpt lat="43.2136233" lon="10.7937783"><ele>440.0</ele><time>2026-04-25T11:13:27.127Z</time></trkpt><trkpt lat="43.2135567" lon="10.7938867"><ele>440.0</ele><time>2026-04-25T11:13:28.124Z</time></trkpt><trkpt lat="43.2134933" lon="10.793995"><ele>440.0</ele><time>2026-04-25T11:13:29.121Z</time></trkpt><trkpt lat="43.21343" lon="10.7941083"><ele>440.0</ele><time>2026-04-25T11:13:30.127Z</time></trkpt><trkpt lat="43.2133717" lon="10.79424"><ele>438.75</ele><time>2026-04-25T11:13:31.138Z</time></trkpt><trkpt lat="43.213325" lon="10.7943967"><ele>437.5</ele><time>2026-04-25T11:13:32.124Z</time></trkpt><trkpt lat="43.2132833" lon="10.7945683"><ele>436.25</ele><time>2026-04-25T11:13:33.126Z</time></trkpt><trkpt lat="43.2132417" lon="10.7947467"><ele>435.0</ele><time>2026-04-25T11:13:34.124Z</time></trkpt><trkpt lat="43.2132067" lon="10.7949167"><ele>435.0</ele><time>2026-04-25T11:13:35.121Z</time></trkpt><trkpt lat="43.2131767" lon="10.79507"><ele>435.0</ele><time>2026-04-25T11:13:36.121Z</time></trkpt><trkpt lat="43.2131483" lon="10.7952233"><ele>435.0</ele><time>2026-04-25T11:13:37.137Z</time></trkpt><trkpt lat="43.2131217" lon="10.7953717"><ele>435.0</ele><time>2026-04-25T11:13:38.128Z</time></trkpt><trkpt lat="43.2130983" lon="10.795515"><ele>435.0</ele><time>2026-04-25T11:13:39.122Z</time></trkpt><trkpt lat="43.2130733" lon="10.7956517"><ele>436.2</ele><time>2026-04-25T11:13:40.133Z</time></trkpt><trkpt lat="43.21305" lon="10.7957817"><ele>437.4</ele><time>2026-04-25T11:13:41.121Z</time></trkpt><trkpt lat="43.2130233" lon="10.7958967"><ele>438.6</ele><time>2026-04-25T11:13:42.134Z</time></trkpt><trkpt lat="43.2129883" lon="10.796"><ele>439.8</ele><time>2026-04-25T11:13:43.127Z</time></trkpt><trkpt lat="43.2129367" lon="10.7960967"><ele>441.0</ele><time>2026-04-25T11:13:44.127Z</time></trkpt><trkpt lat="43.212865" lon="10.7961817"><ele>438.4</ele><time>2026-04-25T11:13:45.128Z</time></trkpt><trkpt lat="43.21277" lon="10.7962667"><ele>435.8</ele><time>2026-04-25T11:13:46.124Z</time></trkpt><trkpt lat="43.21267" lon="10.7963433"><ele>433.19999999999993</ele><time>2026-04-25T11:13:47.122Z</time></trkpt><trkpt lat="43.2125717" lon="10.7964067"><ele>430.59999999999997</ele><time>2026-04-25T11:13:48.123Z</time></trkpt><trkpt lat="43.212475" lon="10.796465"><ele>428.0</ele><time>2026-04-25T11:13:49.138Z</time></trkpt><trkpt lat="43.2123767" lon="10.796515"><ele>427.75</ele><time>2026-04-25T11:13:50.122Z</time></trkpt><trkpt lat="43.2122667" lon="10.7965567"><ele>427.5</ele><time>2026-04-25T11:13:51.128Z</time></trkpt><trkpt lat="43.2121517" lon="10.7965817"><ele>427.25</ele><time>2026-04-25T11:13:52.132Z</time></trkpt><trkpt lat="43.2120367" lon="10.79659"><ele>427.0</ele><time>2026-04-25T11:13:53.124Z</time></trkpt><trkpt lat="43.211925" lon="10.7966"><ele>427.0</ele><time>2026-04-25T11:13:54.119Z</time></trkpt><trkpt lat="43.21182" lon="10.7966083"><ele>427.00000000000006</ele><time>2026-04-25T11:13:55.128Z</time></trkpt><trkpt lat="43.2117217" lon="10.7966133"><ele>427.00000000000006</ele><time>2026-04-25T11:13:56.121Z</time></trkpt><trkpt lat="43.21163" lon="10.7966167"><ele>427.0</ele><time>2026-04-25T11:13:57.121Z</time></trkpt><trkpt lat="43.2115433" lon="10.79661"><ele>427.0</ele><time>2026-04-25T11:13:58.131Z</time></trkpt><trkpt lat="43.211465" lon="10.796595"><ele>427.00000000000006</ele><time>2026-04-25T11:13:59.133Z</time></trkpt><trkpt lat="43.2113917" lon="10.79658"><ele>427.0</ele><time>2026-04-25T11:14:00.13Z</time></trkpt><trkpt lat="43.2113217" lon="10.7965667"><ele>427.0</ele><time>2026-04-25T11:14:01.135Z</time></trkpt><trkpt lat="43.211255" lon="10.79657"><ele>427.0</ele><time>2026-04-25T11:14:02.132Z</time></trkpt><trkpt lat="43.2111933" lon="10.7965967"><ele>427.00000000000006</ele><time>2026-04-25T11:14:03.125Z</time></trkpt><trkpt lat="43.2111283" lon="10.7967133"><ele>427.0</ele><time>2026-04-25T11:14:05.124Z</time></trkpt><trkpt lat="43.2111467" lon="10.7968633"><ele>426.40000000000003</ele><time>2026-04-25T11:14:07.126Z</time></trkpt><trkpt lat="43.211185" lon="10.7969833"><ele>425.80000000000007</ele><time>2026-04-25T11:14:09.121Z</time></trkpt><trkpt lat="43.2112067" lon="10.7971017"><ele>425.2</ele><time>2026-04-25T11:14:12.119Z</time></trkpt><trkpt lat="43.2112483" lon="10.797265"><ele>424.6</ele><time>2026-04-25T11:20:43.13Z</time></trkpt><trkpt lat="43.2112983" lon="10.7973467"><ele>424.0</ele><time>2026-04-25T11:20:44.122Z</time></trkpt><trkpt lat="43.211365" lon="10.7974317"><ele>424.0</ele><time>2026-04-25T11:20:45.128Z</time></trkpt><trkpt lat="43.2114467" lon="10.7975217"><ele>424.0</ele><time>2026-04-25T11:20:46.118Z</time></trkpt><trkpt lat="43.2115367" lon="10.7976217"><ele>424.0</ele><time>2026-04-25T11:20:47.121Z</time></trkpt><trkpt lat="43.2116267" lon="10.7977267"><ele>424.0</ele><time>2026-04-25T11:20:48.119Z</time></trkpt><trkpt lat="43.21172" lon="10.79784"><ele>424.0</ele><time>2026-04-25T11:20:49.126Z</time></trkpt><trkpt lat="43.2118167" lon="10.7979567"><ele>424.0</ele><time>2026-04-25T11:20:50.122Z</time></trkpt><trkpt lat="43.2119167" lon="10.7980733"><ele>424.0</ele><time>2026-04-25T11:20:51.125Z</time></trkpt><trkpt lat="43.21202" lon="10.7981933"><ele>424.0</ele><time>2026-04-25T11:20:52.129Z</time></trkpt><trkpt lat="43.212125" lon="10.7983167"><ele>424.0</ele><time>2026-04-25T11:20:53.128Z</time></trkpt><trkpt lat="43.21223" lon="10.798445"><ele>424.0</ele><time>2026-04-25T11:20:54.132Z</time></trkpt><trkpt lat="43.21234" lon="10.7985783"><ele>424.0</ele><time>2026-04-25T11:20:55.132Z</time></trkpt><trkpt lat="43.21245" lon="10.798715"><ele>424.0</ele><time>2026-04-25T11:20:56.12Z</time></trkpt><trkpt lat="43.2125633" lon="10.798855"><ele>419.0</ele><time>2026-04-25T11:20:57.132Z</time></trkpt><trkpt lat="43.2126817" lon="10.798995"><ele>414.0</ele><time>2026-04-25T11:20:58.123Z</time></trkpt><trkpt lat="43.2127983" lon="10.7991367"><ele>409.0</ele><time>2026-04-25T11:20:59.124Z</time></trkpt><trkpt lat="43.2129117" lon="10.7992733"><ele>408.75</ele><time>2026-04-25T11:21:00.119Z</time></trkpt><trkpt lat="43.2130183" lon="10.7994033"><ele>408.5</ele><time>2026-04-25T11:21:01.122Z</time></trkpt><trkpt lat="43.2131183" lon="10.79952"><ele>408.25</ele><time>2026-04-25T11:21:02.129Z</time></trkpt><trkpt lat="43.2132183" lon="10.7996183"><ele>408.0</ele><time>2026-04-25T11:21:03.116Z</time></trkpt><trkpt lat="43.2133183" lon="10.799695"><ele>408.0</ele><time>2026-04-25T11:21:04.134Z</time></trkpt><trkpt lat="43.21343" lon="10.7997483"><ele>408.0</ele><time>2026-04-25T11:21:05.116Z</time></trkpt><trkpt lat="43.2135483" lon="10.7997933"><ele>408.0</ele><time>2026-04-25T11:21:06.126Z</time></trkpt><trkpt lat="43.2136717" lon="10.7998233"><ele>408.0</ele><time>2026-04-25T11:21:07.13Z</time></trkpt><trkpt lat="43.2137967" lon="10.7998367"><ele>408.0</ele><time>2026-04-25T11:21:08.124Z</time></trkpt><trkpt lat="43.2139267" lon="10.7998267"><ele>408.0</ele><time>2026-04-25T11:21:09.117Z</time></trkpt><trkpt lat="43.2140483" lon="10.7997933"><ele>408.0</ele><time>2026-04-25T11:21:10.126Z</time></trkpt><trkpt lat="43.2141667" lon="10.79974"><ele>408.0</ele><time>2026-04-25T11:21:11.123Z</time></trkpt><trkpt lat="43.214285" lon="10.7996867"><ele>407.25</ele><time>2026-04-25T11:21:12.126Z</time></trkpt><trkpt lat="43.2144017" lon="10.79965"><ele>406.5</ele><time>2026-04-25T11:21:13.125Z</time></trkpt><trkpt lat="43.2145183" lon="10.79963"><ele>405.75</ele><time>2026-04-25T11:21:14.126Z</time></trkpt><trkpt lat="43.2146317" lon="10.7996383"><ele>405.0</ele><time>2026-04-25T11:21:15.129Z</time></trkpt><trkpt lat="43.21474" lon="10.7996817"><ele>405.75</ele><time>2026-04-25T11:21:16.135Z</time></trkpt><trkpt lat="43.214845" lon="10.79976"><ele>406.5</ele><time>2026-04-25T11:21:17.128Z</time></trkpt><trkpt lat="43.2149383" lon="10.7998667"><ele>407.25</ele><time>2026-04-25T11:21:18.123Z</time></trkpt><trkpt lat="43.2150233" lon="10.799985"><ele>408.0</ele><time>2026-04-25T11:21:19.127Z</time></trkpt><trkpt lat="43.2150933" lon="10.8001067"><ele>408.4</ele><time>2026-04-25T11:21:20.12Z</time></trkpt><trkpt lat="43.21514" lon="10.8002367"><ele>408.79999999999995</ele><time>2026-04-25T11:21:21.12Z</time></trkpt><trkpt lat="43.2151683" lon="10.8003733"><ele>409.2</ele><time>2026-04-25T11:21:22.122Z</time></trkpt><trkpt lat="43.2151817" lon="10.8005117"><ele>409.6</ele><time>2026-04-25T11:21:23.118Z</time></trkpt><trkpt lat="43.2151917" lon="10.8006533"><ele>410.0</ele><time>2026-04-25T11:21:24.119Z</time></trkpt><trkpt lat="43.2152167" lon="10.8007967"><ele>410.0</ele><time>2026-04-25T11:21:25.124Z</time></trkpt><trkpt lat="43.215265" lon="10.8009383"><ele>410.0</ele><time>2026-04-25T11:21:26.113Z</time></trkpt><trkpt lat="43.21533" lon="10.8010817"><ele>410.0</ele><time>2026-04-25T11:21:27.142Z</time></trkpt><trkpt lat="43.2154033" lon="10.8012283"><ele>410.0</ele><time>2026-04-25T11:21:28.121Z</time></trkpt><trkpt lat="43.2154833" lon="10.8013733"><ele>410.75</ele><time>2026-04-25T11:21:29.121Z</time></trkpt><trkpt lat="43.21556" lon="10.801515"><ele>411.5</ele><time>2026-04-25T11:21:30.123Z</time></trkpt><trkpt lat="43.2156267" lon="10.80166"><ele>412.25</ele><time>2026-04-25T11:21:31.122Z</time></trkpt><trkpt lat="43.2156767" lon="10.801805"><ele>413.0</ele><time>2026-04-25T11:21:32.122Z</time></trkpt><trkpt lat="43.21572" lon="10.8019383"><ele>415.4</ele><time>2026-04-25T11:21:33.128Z</time></trkpt><trkpt lat="43.2157783" lon="10.80206"><ele>417.79999999999995</ele><time>2026-04-25T11:21:34.116Z</time></trkpt><trkpt lat="43.21585" lon="10.802165"><ele>420.2</ele><time>2026-04-25T11:21:35.119Z</time></trkpt><trkpt lat="43.2159317" lon="10.8022517"><ele>422.6</ele><time>2026-04-25T11:21:36.113Z</time></trkpt><trkpt lat="43.21602" lon="10.80233"><ele>425.0</ele><time>2026-04-25T11:21:37.124Z</time></trkpt><trkpt lat="43.2161133" lon="10.8023983"><ele>425.0</ele><time>2026-04-25T11:21:38.122Z</time></trkpt><trkpt lat="43.216205" lon="10.8024433"><ele>425.0</ele><time>2026-04-25T11:21:39.121Z</time></trkpt><trkpt lat="43.2162967" lon="10.8024433"><ele>425.0</ele><time>2026-04-25T11:21:40.122Z</time></trkpt><trkpt lat="43.2163817" lon="10.8024067"><ele>425.0</ele><time>2026-04-25T11:21:41.12Z</time></trkpt><trkpt lat="43.21646" lon="10.8023317"><ele>425.0</ele><time>2026-04-25T11:21:42.127Z</time></trkpt><trkpt lat="43.216525" lon="10.8022483"><ele>426.2</ele><time>2026-04-25T11:21:43.13Z</time></trkpt><trkpt lat="43.21658" lon="10.802185"><ele>427.4</ele><time>2026-04-25T11:21:44.127Z</time></trkpt><trkpt lat="43.21667" lon="10.8021617"><ele>428.6</ele><time>2026-04-25T11:21:46.138Z</time></trkpt><trkpt lat="43.2166767" lon="10.8023117"><ele>429.8</ele><time>2026-04-25T11:21:48.127Z</time></trkpt><trkpt lat="43.216655" lon="10.8024417"><ele>431.0</ele><time>2026-04-25T11:21:49.122Z</time></trkpt><trkpt lat="43.2166417" lon="10.80258"><ele>432.20000000000005</ele><time>2026-04-25T11:21:50.115Z</time></trkpt><trkpt lat="43.2166433" lon="10.8027217"><ele>433.40000000000003</ele><time>2026-04-25T11:21:51.116Z</time></trkpt><trkpt lat="43.2166517" lon="10.80287"><ele>434.6</ele><time>2026-04-25T11:21:52.121Z</time></trkpt><trkpt lat="43.21666" lon="10.803025"><ele>435.8</ele><time>2026-04-25T11:21:53.123Z</time></trkpt><trkpt lat="43.21667" lon="10.8031867"><ele>437.0</ele><time>2026-04-25T11:21:54.12Z</time></trkpt><trkpt lat="43.2166817" lon="10.803345"><ele>437.0</ele><time>2026-04-25T11:21:55.135Z</time></trkpt><trkpt lat="43.2166967" lon="10.8034933"><ele>437.00000000000006</ele><time>2026-04-25T11:21:56.122Z</time></trkpt><trkpt lat="43.2167183" lon="10.803635"><ele>437.00000000000006</ele><time>2026-04-25T11:21:57.123Z</time></trkpt><trkpt lat="43.21675" lon="10.8037767"><ele>437.0</ele><time>2026-04-25T11:21:58.122Z</time></trkpt><trkpt lat="43.2167933" lon="10.8039217"><ele>437.0</ele><time>2026-04-25T11:21:59.125Z</time></trkpt><trkpt lat="43.2168517" lon="10.8040617"><ele>436.75</ele><time>2026-04-25T11:22:00.124Z</time></trkpt><trkpt lat="43.216925" lon="10.8041917"><ele>436.5</ele><time>2026-04-25T11:22:01.133Z</time></trkpt><trkpt lat="43.2170133" lon="10.804315"><ele>436.25</ele><time>2026-04-25T11:22:02.125Z</time></trkpt><trkpt lat="43.2171117" lon="10.8044267"><ele>436.0</ele><time>2026-04-25T11:22:03.121Z</time></trkpt><trkpt lat="43.2172183" lon="10.80451"><ele>437.8</ele><time>2026-04-25T11:22:04.121Z</time></trkpt><trkpt lat="43.21733" lon="10.80456"><ele>439.6</ele><time>2026-04-25T11:22:05.123Z</time></trkpt><trkpt lat="43.217435" lon="10.8045983"><ele>441.4</ele><time>2026-04-25T11:22:06.14Z</time></trkpt><trkpt lat="43.2175217" lon="10.8046533"><ele>443.2</ele><time>2026-04-25T11:22:07.113Z</time></trkpt><trkpt lat="43.2175867" lon="10.8047317"><ele>445.0</ele><time>2026-04-25T11:22:08.119Z</time></trkpt><trkpt lat="43.217635" lon="10.8048267"><ele>445.0</ele><time>2026-04-25T11:22:09.114Z</time></trkpt><trkpt lat="43.2176517" lon="10.8049367"><ele>445.0</ele><time>2026-04-25T11:22:10.119Z</time></trkpt><trkpt lat="43.2176333" lon="10.8050617"><ele>445.0</ele><time>2026-04-25T11:22:11.122Z</time></trkpt><trkpt lat="43.2175817" lon="10.8051967"><ele>445.0</ele><time>2026-04-25T11:22:12.124Z</time></trkpt><trkpt lat="43.2175117" lon="10.8053417"><ele>445.0</ele><time>2026-04-25T11:22:13.123Z</time></trkpt><trkpt lat="43.2174533" lon="10.8054767"><ele>446.2</ele><time>2026-04-25T11:22:14.126Z</time></trkpt><trkpt lat="43.2174183" lon="10.8055917"><ele>447.4</ele><time>2026-04-25T11:22:15.128Z</time></trkpt><trkpt lat="43.2174083" lon="10.8057"><ele>448.6</ele><time>2026-04-25T11:22:16.128Z</time></trkpt><trkpt lat="43.21743" lon="10.80581"><ele>449.8</ele><time>2026-04-25T11:22:17.125Z</time></trkpt><trkpt lat="43.2175017" lon="10.8058967"><ele>451.0</ele><time>2026-04-25T11:22:18.138Z</time></trkpt><trkpt lat="43.2176133" lon="10.8059617"><ele>451.0</ele><time>2026-04-25T11:22:19.13Z</time></trkpt><trkpt lat="43.21775" lon="10.8059933"><ele>451.0</ele><time>2026-04-25T11:22:20.121Z</time></trkpt><trkpt lat="43.2178983" lon="10.80598"><ele>451.0</ele><time>2026-04-25T11:22:21.122Z</time></trkpt><trkpt lat="43.2180467" lon="10.80594"><ele>451.0</ele><time>2026-04-25T11:22:22.125Z</time></trkpt><trkpt lat="43.2181883" lon="10.8058967"><ele>453.0</ele><time>2026-04-25T11:22:23.128Z</time></trkpt><trkpt lat="43.2183167" lon="10.8058633"><ele>455.0</ele><time>2026-04-25T11:22:24.123Z</time></trkpt><trkpt lat="43.218435" lon="10.8058467"><ele>457.0</ele><time>2026-04-25T11:22:25.135Z</time></trkpt><trkpt lat="43.218545" lon="10.8058567"><ele>459.0</ele><time>2026-04-25T11:22:26.121Z</time></trkpt><trkpt lat="43.218645" lon="10.8059033"><ele>459.0</ele><time>2026-04-25T11:22:27.126Z</time></trkpt><trkpt lat="43.2187267" lon="10.80599"><ele>459.0</ele><time>2026-04-25T11:22:28.127Z</time></trkpt><trkpt lat="43.21878" lon="10.8061167"><ele>459.0</ele><time>2026-04-25T11:22:29.12Z</time></trkpt><trkpt lat="43.2188067" lon="10.8062783"><ele>459.0</ele><time>2026-04-25T11:22:30.119Z</time></trkpt><trkpt lat="43.2188167" lon="10.8064867"><ele>461.66666666666663</ele><time>2026-04-25T11:22:31.12Z</time></trkpt><trkpt lat="43.2188267" lon="10.8067167"><ele>464.3333333333333</ele><time>2026-04-25T11:22:32.127Z</time></trkpt><trkpt lat="43.2188417" lon="10.8069317"><ele>467.0</ele><time>2026-04-25T11:22:33.127Z</time></trkpt><trkpt lat="43.2188617" lon="10.8071167"><ele>468.25</ele><time>2026-04-25T11:22:34.125Z</time></trkpt><trkpt lat="43.2188817" lon="10.8072783"><ele>469.5</ele><time>2026-04-25T11:22:35.127Z</time></trkpt><trkpt lat="43.2189117" lon="10.807425"><ele>470.75</ele><time>2026-04-25T11:22:36.126Z</time></trkpt><trkpt lat="43.2189617" lon="10.8075583"><ele>472.0</ele><time>2026-04-25T11:22:37.126Z</time></trkpt><trkpt lat="43.21904" lon="10.807675"><ele>474.20000000000005</ele><time>2026-04-25T11:22:38.121Z</time></trkpt><trkpt lat="43.219135" lon="10.8077667"><ele>476.40000000000003</ele><time>2026-04-25T11:22:39.123Z</time></trkpt><trkpt lat="43.2192267" lon="10.80784"><ele>478.59999999999997</ele><time>2026-04-25T11:22:40.13Z</time></trkpt><trkpt lat="43.21929" lon="10.8079267"><ele>480.79999999999995</ele><time>2026-04-25T11:22:41.121Z</time></trkpt><trkpt lat="43.219335" lon="10.8080333"><ele>483.0</ele><time>2026-04-25T11:22:42.121Z</time></trkpt><trkpt lat="43.21937" lon="10.8081583"><ele>483.0</ele><time>2026-04-25T11:22:43.127Z</time></trkpt><trkpt lat="43.2194017" lon="10.8082833"><ele>482.99999999999994</ele><time>2026-04-25T11:22:44.124Z</time></trkpt><trkpt lat="43.2194383" lon="10.808395"><ele>482.99999999999994</ele><time>2026-04-25T11:22:45.138Z</time></trkpt><trkpt lat="43.2194867" lon="10.8084983"><ele>483.0</ele><time>2026-04-25T11:22:46.118Z</time></trkpt><trkpt lat="43.2195367" lon="10.808615"><ele>483.0</ele><time>2026-04-25T11:22:47.121Z</time></trkpt><trkpt lat="43.2195817" lon="10.8087383"><ele>486.0</ele><time>2026-04-25T11:22:48.119Z</time></trkpt><trkpt lat="43.219615" lon="10.808855"><ele>488.99999999999994</ele><time>2026-04-25T11:22:49.131Z</time></trkpt><trkpt lat="43.219635" lon="10.8089533"><ele>491.99999999999994</ele><time>2026-04-25T11:22:50.11Z</time></trkpt><trkpt lat="43.21965" lon="10.8090867"><ele>495.0</ele><time>2026-04-25T11:22:52.133Z</time></trkpt><trkpt lat="43.21969" lon="10.8092117"><ele>498.0</ele><time>2026-04-25T11:23:17.12Z</time></trkpt><trkpt lat="43.219765" lon="10.8093917"><ele>496.8333333333333</ele><time>2026-04-25T11:23:19.123Z</time></trkpt><trkpt lat="43.219815" lon="10.80951"><ele>495.66666666666663</ele><time>2026-04-25T11:23:20.128Z</time></trkpt><trkpt lat="43.2198417" lon="10.8096217"><ele>494.5</ele><time>2026-04-25T11:23:21.124Z</time></trkpt><trkpt lat="43.21985" lon="10.8097283"><ele>493.3333333333333</ele><time>2026-04-25T11:23:22.112Z</time></trkpt><trkpt lat="43.2198417" lon="10.8098417"><ele>492.16666666666663</ele><time>2026-04-25T11:23:23.119Z</time></trkpt><trkpt lat="43.2198133" lon="10.8099633"><ele>491.0</ele><time>2026-04-25T11:23:24.112Z</time></trkpt><trkpt lat="43.21976" lon="10.81009"><ele>496.5</ele><time>2026-04-25T11:23:25.126Z</time></trkpt><trkpt lat="43.2197" lon="10.8102283"><ele>502.0</ele><time>2026-04-25T11:23:26.121Z</time></trkpt><trkpt lat="43.21964" lon="10.810385"><ele>507.5</ele><time>2026-04-25T11:23:27.126Z</time></trkpt><trkpt lat="43.219565" lon="10.8105517"><ele>513.0</ele><time>2026-04-25T11:23:28.121Z</time></trkpt><trkpt lat="43.2194767" lon="10.81072"><ele>513.0</ele><time>2026-04-25T11:23:29.124Z</time></trkpt><trkpt lat="43.2193817" lon="10.8109"><ele>513.0</ele><time>2026-04-25T11:23:30.13Z</time></trkpt><trkpt lat="43.2192883" lon="10.8110917"><ele>513.0</ele><time>2026-04-25T11:23:31.128Z</time></trkpt><trkpt lat="43.219195" lon="10.811285"><ele>511.66666666666663</ele><time>2026-04-25T11:23:32.119Z</time></trkpt><trkpt lat="43.219105" lon="10.8114783"><ele>510.3333333333333</ele><time>2026-04-25T11:23:33.133Z</time></trkpt><trkpt lat="43.2190167" lon="10.811665"><ele>509.0</ele><time>2026-04-25T11:23:34.122Z</time></trkpt><trkpt lat="43.2189367" lon="10.81184"><ele>512.5</ele><time>2026-04-25T11:23:35.125Z</time></trkpt><trkpt lat="43.2188617" lon="10.811995"><ele>516.0</ele><time>2026-04-25T11:23:36.123Z</time></trkpt><trkpt lat="43.2187983" lon="10.812135"><ele>519.5</ele><time>2026-04-25T11:23:37.125Z</time></trkpt><trkpt lat="43.21873" lon="10.812265"><ele>523.0</ele><time>2026-04-25T11:23:38.12Z</time></trkpt><trkpt lat="43.21865" lon="10.8123783"><ele>523.0</ele><time>2026-04-25T11:23:39.12Z</time></trkpt><trkpt lat="43.2185517" lon="10.8124667"><ele>523.0</ele><time>2026-04-25T11:23:40.118Z</time></trkpt><trkpt lat="43.2184383" lon="10.8125367"><ele>523.0</ele><time>2026-04-25T11:23:41.11Z</time></trkpt><trkpt lat="43.218325" lon="10.8126"><ele>523.0</ele><time>2026-04-25T11:23:42.115Z</time></trkpt><trkpt lat="43.2182183" lon="10.8126567"><ele>524.0</ele><time>2026-04-25T11:23:43.114Z</time></trkpt><trkpt lat="43.2181233" lon="10.8127067"><ele>525.0</ele><time>2026-04-25T11:23:44.119Z</time></trkpt><trkpt lat="43.2180417" lon="10.8127467"><ele>526.0</ele><time>2026-04-25T11:23:45.125Z</time></trkpt><trkpt lat="43.217965" lon="10.8127817"><ele>527.0</ele><time>2026-04-25T11:23:46.119Z</time></trkpt><trkpt lat="43.2178967" lon="10.8128233"><ele>528.0</ele><time>2026-04-25T11:23:47.125Z</time></trkpt><trkpt lat="43.2178433" lon="10.812875"><ele>529.0</ele><time>2026-04-25T11:23:48.133Z</time></trkpt><trkpt lat="43.21779" lon="10.8130283"><ele>529.0</ele><time>2026-04-25T11:23:50.122Z</time></trkpt><trkpt lat="43.21779" lon="10.813135"><ele>529.0</ele><time>2026-04-25T11:23:51.128Z</time></trkpt><trkpt lat="43.217795" lon="10.81325"><ele>529.0</ele><time>2026-04-25T11:23:52.119Z</time></trkpt><trkpt lat="43.217795" lon="10.81337"><ele>529.0</ele><time>2026-04-25T11:23:53.122Z</time></trkpt><trkpt lat="43.2178" lon="10.8134983"><ele>529.0</ele><time>2026-04-25T11:23:54.127Z</time></trkpt><trkpt lat="43.2177983" lon="10.8136317"><ele>529.0</ele><time>2026-04-25T11:23:55.125Z</time></trkpt><trkpt lat="43.217805" lon="10.8137767"><ele>529.25</ele><time>2026-04-25T11:23:56.13Z</time></trkpt><trkpt lat="43.217825" lon="10.8139267"><ele>529.5</ele><time>2026-04-25T11:23:57.127Z</time></trkpt><trkpt lat="43.21786" lon="10.81408"><ele>529.75</ele><time>2026-04-25T11:23:58.113Z</time></trkpt><trkpt lat="43.2179067" lon="10.81424"><ele>530.0</ele><time>2026-04-25T11:23:59.122Z</time></trkpt><trkpt lat="43.217965" lon="10.8144"><ele>530.0</ele><time>2026-04-25T11:24:00.118Z</time></trkpt><trkpt lat="43.2180183" lon="10.8145467"><ele>530.0</ele><time>2026-04-25T11:24:01.124Z</time></trkpt><trkpt lat="43.2180567" lon="10.8146883"><ele>530.0</ele><time>2026-04-25T11:24:02.126Z</time></trkpt><trkpt lat="43.2180833" lon="10.8148267"><ele>530.0</ele><time>2026-04-25T11:24:03.123Z</time></trkpt><trkpt lat="43.2180917" lon="10.81497"><ele>530.0</ele><time>2026-04-25T11:24:04.131Z</time></trkpt><trkpt lat="43.2180917" lon="10.8151133"><ele>529.6</ele><time>2026-04-25T11:24:05.117Z</time></trkpt><trkpt lat="43.218085" lon="10.8152533"><ele>529.2</ele><time>2026-04-25T11:24:06.128Z</time></trkpt><trkpt lat="43.2180867" lon="10.8153833"><ele>528.8</ele><time>2026-04-25T11:24:07.125Z</time></trkpt><trkpt lat="43.2181067" lon="10.8155117"><ele>528.4</ele><time>2026-04-25T11:24:08.123Z</time></trkpt><trkpt lat="43.2181433" lon="10.8156433"><ele>528.0</ele><time>2026-04-25T11:24:09.118Z</time></trkpt><trkpt lat="43.2182017" lon="10.815775"><ele>528.0</ele><time>2026-04-25T11:24:10.121Z</time></trkpt><trkpt lat="43.218285" lon="10.8159017"><ele>528.0</ele><time>2026-04-25T11:24:11.124Z</time></trkpt><trkpt lat="43.21838" lon="10.8160233"><ele>528.0</ele><time>2026-04-25T11:24:12.126Z</time></trkpt><trkpt lat="43.2184717" lon="10.8161483"><ele>528.0</ele><time>2026-04-25T11:24:13.124Z</time></trkpt><trkpt lat="43.218555" lon="10.8162867"><ele>523.75</ele><time>2026-04-25T11:24:14.121Z</time></trkpt><trkpt lat="43.218635" lon="10.8164333"><ele>519.5</ele><time>2026-04-25T11:24:15.123Z</time></trkpt><trkpt lat="43.2187133" lon="10.8165867"><ele>515.25</ele><time>2026-04-25T11:24:16.123Z</time></trkpt><trkpt lat="43.218795" lon="10.8167333"><ele>511.0</ele><time>2026-04-25T11:24:17.122Z</time></trkpt><trkpt lat="43.2188817" lon="10.8168633"><ele>510.75</ele><time>2026-04-25T11:24:18.133Z</time></trkpt><trkpt lat="43.2189783" lon="10.81698"><ele>510.5</ele><time>2026-04-25T11:24:19.134Z</time></trkpt><trkpt lat="43.2190867" lon="10.8170867"><ele>510.25</ele><time>2026-04-25T11:24:20.131Z</time></trkpt><trkpt lat="43.2192033" lon="10.81719"><ele>510.0</ele><time>2026-04-25T11:24:21.116Z</time></trkpt><trkpt lat="43.2193167" lon="10.81731"><ele>510.0</ele><time>2026-04-25T11:24:22.108Z</time></trkpt><trkpt lat="43.2194233" lon="10.8174417"><ele>510.0</ele><time>2026-04-25T11:24:23.139Z</time></trkpt><trkpt lat="43.219525" lon="10.81757"><ele>510.0</ele><time>2026-04-25T11:24:24.122Z</time></trkpt><trkpt lat="43.21962" lon="10.817695"><ele>510.0</ele><time>2026-04-25T11:24:25.128Z</time></trkpt><trkpt lat="43.2197183" lon="10.8178"><ele>509.4</ele><time>2026-04-25T11:24:26.13Z</time></trkpt><trkpt lat="43.21982" lon="10.817885"><ele>508.8</ele><time>2026-04-25T11:24:27.123Z</time></trkpt><trkpt lat="43.219925" lon="10.8179417"><ele>508.20000000000005</ele><time>2026-04-25T11:24:28.131Z</time></trkpt><trkpt lat="43.2200233" lon="10.81799"><ele>507.6</ele><time>2026-04-25T11:24:29.116Z</time></trkpt><trkpt lat="43.2201117" lon="10.8180383"><ele>507.0</ele><time>2026-04-25T11:24:30.122Z</time></trkpt><trkpt lat="43.2201817" lon="10.8181"><ele>507.0</ele><time>2026-04-25T11:24:31.121Z</time></trkpt><trkpt lat="43.2202317" lon="10.818195"><ele>507.00000000000006</ele><time>2026-04-25T11:24:32.119Z</time></trkpt><trkpt lat="43.22025" lon="10.8183083"><ele>507.00000000000006</ele><time>2026-04-25T11:24:33.134Z</time></trkpt><trkpt lat="43.2202383" lon="10.8184283"><ele>507.0</ele><time>2026-04-25T11:24:34.128Z</time></trkpt><trkpt lat="43.2202333" lon="10.818555"><ele>507.0</ele><time>2026-04-25T11:24:35.129Z</time></trkpt><trkpt lat="43.220255" lon="10.8186883"><ele>506.75</ele><time>2026-04-25T11:24:36.124Z</time></trkpt><trkpt lat="43.22032" lon="10.8188067"><ele>506.5</ele><time>2026-04-25T11:24:37.131Z</time></trkpt><trkpt lat="43.2204217" lon="10.8189083"><ele>506.25</ele><time>2026-04-25T11:24:38.128Z</time></trkpt><trkpt lat="43.2205433" lon="10.8189917"><ele>506.0</ele><time>2026-04-25T11:24:39.127Z</time></trkpt><trkpt lat="43.2206617" lon="10.8190833"><ele>506.0</ele><time>2026-04-25T11:24:40.123Z</time></trkpt><trkpt lat="43.2207717" lon="10.8192017"><ele>506.0</ele><time>2026-04-25T11:24:41.108Z</time></trkpt><trkpt lat="43.220875" lon="10.819355"><ele>506.0</ele><time>2026-04-25T11:24:42.119Z</time></trkpt><trkpt lat="43.220975" lon="10.8195317"><ele>503.0</ele><time>2026-04-25T11:24:43.116Z</time></trkpt><trkpt lat="43.2210867" lon="10.8197183"><ele>500.0</ele><time>2026-04-25T11:24:44.138Z</time></trkpt><trkpt lat="43.22121" lon="10.8198967"><ele>497.0</ele><time>2026-04-25T11:24:45.119Z</time></trkpt><trkpt lat="43.2213267" lon="10.820065"><ele>497.3333333333333</ele><time>2026-04-25T11:24:46.119Z</time></trkpt><trkpt lat="43.2214333" lon="10.820225"><ele>497.66666666666663</ele><time>2026-04-25T11:24:47.12Z</time></trkpt><trkpt lat="43.221525" lon="10.8203917"><ele>498.0</ele><time>2026-04-25T11:24:48.124Z</time></trkpt><trkpt lat="43.2216017" lon="10.8205667"><ele>498.0</ele><time>2026-04-25T11:24:49.127Z</time></trkpt><trkpt lat="43.22166" lon="10.8207617"><ele>498.0</ele><time>2026-04-25T11:24:50.12Z</time></trkpt><trkpt lat="43.2217017" lon="10.8209683"><ele>498.0</ele><time>2026-04-25T11:24:51.126Z</time></trkpt><trkpt lat="43.2217267" lon="10.8211817"><ele>498.0</ele><time>2026-04-25T11:24:52.126Z</time></trkpt><trkpt lat="43.2217433" lon="10.82138"><ele>498.0</ele><time>2026-04-25T11:24:53.121Z</time></trkpt><trkpt lat="43.2217517" lon="10.8215683"><ele>498.0</ele><time>2026-04-25T11:24:54.123Z</time></trkpt><trkpt lat="43.2217533" lon="10.821755"><ele>498.0</ele><time>2026-04-25T11:24:55.13Z</time></trkpt><trkpt lat="43.22174" lon="10.82195"><ele>498.25</ele><time>2026-04-25T11:24:56.108Z</time></trkpt><trkpt lat="43.2217183" lon="10.8221533"><ele>498.5</ele><time>2026-04-25T11:24:57.117Z</time></trkpt><trkpt lat="43.2216967" lon="10.8223533"><ele>498.75</ele><time>2026-04-25T11:24:58.126Z</time></trkpt><trkpt lat="43.22167" lon="10.8225467"><ele>499.0</ele><time>2026-04-25T11:24:59.132Z</time></trkpt><trkpt lat="43.2216267" lon="10.8227333"><ele>500.0</ele><time>2026-04-25T11:25:00.128Z</time></trkpt><trkpt lat="43.2215567" lon="10.822925"><ele>501.0</ele><time>2026-04-25T11:25:01.123Z</time></trkpt><trkpt lat="43.2214683" lon="10.823115"><ele>502.0</ele><time>2026-04-25T11:25:02.121Z</time></trkpt><trkpt lat="43.2213933" lon="10.8232867"><ele>502.0</ele><time>2026-04-25T11:25:03.124Z</time></trkpt><trkpt lat="43.2213167" lon="10.8234417"><ele>502.0</ele><time>2026-04-25T11:25:04.113Z</time></trkpt><trkpt lat="43.2212467" lon="10.8235883"><ele>502.0</ele><time>2026-04-25T11:25:05.13Z</time></trkpt><trkpt lat="43.22119" lon="10.82373"><ele>502.0</ele><time>2026-04-25T11:25:06.126Z</time></trkpt><trkpt lat="43.2211617" lon="10.8238767"><ele>501.75</ele><time>2026-04-25T11:25:07.127Z</time></trkpt><trkpt lat="43.2211683" lon="10.8240367"><ele>501.5</ele><time>2026-04-25T11:25:08.13Z</time></trkpt><trkpt lat="43.22118" lon="10.8242133"><ele>501.25</ele><time>2026-04-25T11:25:09.135Z</time></trkpt><trkpt lat="43.2211717" lon="10.8244"><ele>501.0</ele><time>2026-04-25T11:25:10.131Z</time></trkpt><trkpt lat="43.2211517" lon="10.82459"><ele>501.0</ele><time>2026-04-25T11:25:11.13Z</time></trkpt><trkpt lat="43.2211283" lon="10.8247817"><ele>501.0</ele><time>2026-04-25T11:25:12.134Z</time></trkpt><trkpt lat="43.221115" lon="10.824965"><ele>501.0</ele><time>2026-04-25T11:25:13.127Z</time></trkpt><trkpt lat="43.221105" lon="10.8251383"><ele>501.0</ele><time>2026-04-25T11:25:14.134Z</time></trkpt><trkpt lat="43.2210783" lon="10.8253067"><ele>501.0</ele><time>2026-04-25T11:25:15.123Z</time></trkpt><trkpt lat="43.2210233" lon="10.8254717"><ele>501.0</ele><time>2026-04-25T11:25:16.124Z</time></trkpt><trkpt lat="43.22094" lon="10.825625"><ele>501.0</ele><time>2026-04-25T11:25:17.117Z</time></trkpt><trkpt lat="43.2208267" lon="10.8257717"><ele>501.0</ele><time>2026-04-25T11:25:18.126Z</time></trkpt><trkpt lat="43.2207" lon="10.8259167"><ele>503.75</ele><time>2026-04-25T11:25:19.118Z</time></trkpt><trkpt lat="43.22058" lon="10.8260417"><ele>506.5</ele><time>2026-04-25T11:25:20.126Z</time></trkpt><trkpt lat="43.2204667" lon="10.8261533"><ele>509.25</ele><time>2026-04-25T11:25:21.122Z</time></trkpt><trkpt lat="43.2203583" lon="10.8262683"><ele>512.0</ele><time>2026-04-25T11:25:22.128Z</time></trkpt><trkpt lat="43.2202633" lon="10.8264067"><ele>512.0</ele><time>2026-04-25T11:25:23.132Z</time></trkpt><trkpt lat="43.22019" lon="10.8265633"><ele>512.0</ele><time>2026-04-25T11:25:24.128Z</time></trkpt><trkpt lat="43.22014" lon="10.8267267"><ele>512.0</ele><time>2026-04-25T11:25:25.118Z</time></trkpt><trkpt lat="43.2201167" lon="10.8268917"><ele>512.0</ele><time>2026-04-25T11:25:26.121Z</time></trkpt><trkpt lat="43.2201183" lon="10.827075"><ele>510.0</ele><time>2026-04-25T11:25:27.124Z</time></trkpt><trkpt lat="43.2201383" lon="10.82728"><ele>508.0</ele><time>2026-04-25T11:25:28.124Z</time></trkpt><trkpt lat="43.220165" lon="10.8275"><ele>506.0</ele><time>2026-04-25T11:25:29.126Z</time></trkpt><trkpt lat="43.2202033" lon="10.8277117"><ele>506.0</ele><time>2026-04-25T11:25:30.127Z</time></trkpt><trkpt lat="43.2202467" lon="10.827895"><ele>506.0</ele><time>2026-04-25T11:25:31.127Z</time></trkpt><trkpt lat="43.2202767" lon="10.8280483"><ele>506.0</ele><time>2026-04-25T11:25:32.112Z</time></trkpt><trkpt lat="43.2202817" lon="10.8282"><ele>506.0</ele><time>2026-04-25T11:25:33.115Z</time></trkpt><trkpt lat="43.220255" lon="10.8283433"><ele>506.0</ele><time>2026-04-25T11:25:34.124Z</time></trkpt><trkpt lat="43.2201867" lon="10.8284717"><ele>506.0</ele><time>2026-04-25T11:25:35.13Z</time></trkpt><trkpt lat="43.22008" lon="10.8285883"><ele>506.0</ele><time>2026-04-25T11:25:36.124Z</time></trkpt><trkpt lat="43.2199417" lon="10.82871"><ele>506.0</ele><time>2026-04-25T11:25:37.12Z</time></trkpt><trkpt lat="43.2198067" lon="10.8288183"><ele>503.75</ele><time>2026-04-25T11:25:38.13Z</time></trkpt><trkpt lat="43.219695" lon="10.8288983"><ele>501.5</ele><time>2026-04-25T11:25:39.124Z</time></trkpt><trkpt lat="43.219605" lon="10.8289867"><ele>499.25</ele><time>2026-04-25T11:25:40.131Z</time></trkpt><trkpt lat="43.219525" lon="10.8291083"><ele>497.0</ele><time>2026-04-25T11:25:41.12Z</time></trkpt><trkpt lat="43.2194667" lon="10.8292467"><ele>496.6</ele><time>2026-04-25T11:25:42.128Z</time></trkpt><trkpt lat="43.2194417" lon="10.8293817"><ele>496.20000000000005</ele><time>2026-04-25T11:25:43.119Z</time></trkpt><trkpt lat="43.2194483" lon="10.8295017"><ele>495.8</ele><time>2026-04-25T11:25:44.121Z</time></trkpt><trkpt lat="43.2194783" lon="10.829605"><ele>495.4</ele><time>2026-04-25T11:25:45.141Z</time></trkpt><trkpt lat="43.21953" lon="10.8296933"><ele>495.0</ele><time>2026-04-25T11:25:46.135Z</time></trkpt><trkpt lat="43.2196117" lon="10.8297783"><ele>495.0</ele><time>2026-04-25T11:25:47.112Z</time></trkpt><trkpt lat="43.2197367" lon="10.829875"><ele>495.0</ele><time>2026-04-25T11:25:48.119Z</time></trkpt><trkpt lat="43.2198683" lon="10.8299967"><ele>495.0</ele><time>2026-04-25T11:25:49.126Z</time></trkpt><trkpt lat="43.2199783" lon="10.8301367"><ele>495.8</ele><time>2026-04-25T11:25:50.128Z</time></trkpt><trkpt lat="43.2200617" lon="10.830285"><ele>496.6</ele><time>2026-04-25T11:25:51.121Z</time></trkpt><trkpt lat="43.2201117" lon="10.8304317"><ele>497.4</ele><time>2026-04-25T11:25:52.123Z</time></trkpt><trkpt lat="43.2201167" lon="10.830565"><ele>498.2</ele><time>2026-04-25T11:25:53.119Z</time></trkpt><trkpt lat="43.2200833" lon="10.83068"><ele>499.0</ele><time>2026-04-25T11:25:54.121Z</time></trkpt><trkpt lat="43.22003" lon="10.8307733"><ele>499.00000000000006</ele><time>2026-04-25T11:25:55.125Z</time></trkpt><trkpt lat="43.21998" lon="10.83086"><ele>499.0</ele><time>2026-04-25T11:25:56.128Z</time></trkpt><trkpt lat="43.2199467" lon="10.8309483"><ele>499.0</ele><time>2026-04-25T11:25:57.124Z</time></trkpt><trkpt lat="43.2199367" lon="10.8310417"><ele>499.0</ele><time>2026-04-25T11:25:58.124Z</time></trkpt><trkpt lat="43.2199583" lon="10.8311467"><ele>499.00000000000006</ele><time>2026-04-25T11:25:59.129Z</time></trkpt><trkpt lat="43.2200167" lon="10.8312483"><ele>499.0</ele><time>2026-04-25T11:26:00.128Z</time></trkpt><trkpt lat="43.2201067" lon="10.831355"><ele>496.6666666666667</ele><time>2026-04-25T11:26:01.134Z</time></trkpt><trkpt lat="43.2202483" lon="10.83148"><ele>494.33333333333337</ele><time>2026-04-25T11:26:02.131Z</time></trkpt><trkpt lat="43.2203783" lon="10.83162"><ele>492.0</ele><time>2026-04-25T11:26:03.126Z</time></trkpt><trkpt lat="43.2204917" lon="10.8317567"><ele>490.0</ele><time>2026-04-25T11:26:04.13Z</time></trkpt><trkpt lat="43.2206083" lon="10.8318783"><ele>488.0</ele><time>2026-04-25T11:26:05.124Z</time></trkpt><trkpt lat="43.22075" lon="10.831985"><ele>486.0</ele><time>2026-04-25T11:26:06.128Z</time></trkpt><trkpt lat="43.22092" lon="10.8320733"><ele>486.0</ele><time>2026-04-25T11:26:07.118Z</time></trkpt><trkpt lat="43.2211067" lon="10.8321517"><ele>486.0</ele><time>2026-04-25T11:26:08.124Z</time></trkpt><trkpt lat="43.2212967" lon="10.8322267"><ele>486.0</ele><time>2026-04-25T11:26:09.123Z</time></trkpt><trkpt lat="43.22148" lon="10.832305"><ele>487.66666666666663</ele><time>2026-04-25T11:26:10.124Z</time></trkpt><trkpt lat="43.2216617" lon="10.8323933"><ele>489.3333333333333</ele><time>2026-04-25T11:26:11.12Z</time></trkpt><trkpt lat="43.2218383" lon="10.83249"><ele>491.0</ele><time>2026-04-25T11:26:12.122Z</time></trkpt><trkpt lat="43.22202" lon="10.8325717"><ele>491.0</ele><time>2026-04-25T11:26:13.132Z</time></trkpt><trkpt lat="43.2222117" lon="10.832635"><ele>491.0</ele><time>2026-04-25T11:26:14.121Z</time></trkpt><trkpt lat="43.2223917" lon="10.8326717"><ele>491.0</ele><time>2026-04-25T11:26:15.13Z</time></trkpt><trkpt lat="43.22255" lon="10.8327067"><ele>488.0</ele><time>2026-04-25T11:26:16.127Z</time></trkpt><trkpt lat="43.22269" lon="10.8327433"><ele>485.0</ele><time>2026-04-25T11:26:17.123Z</time></trkpt><trkpt lat="43.2228167" lon="10.8327833"><ele>482.0</ele><time>2026-04-25T11:26:18.119Z</time></trkpt><trkpt lat="43.2229267" lon="10.8328483"><ele>479.0</ele><time>2026-04-25T11:26:19.129Z</time></trkpt><trkpt lat="43.2230267" lon="10.8329567"><ele>479.0</ele><time>2026-04-25T11:26:20.128Z</time></trkpt><trkpt lat="43.22312" lon="10.8331167"><ele>479.0</ele><time>2026-04-25T11:26:21.124Z</time></trkpt><trkpt lat="43.2232017" lon="10.8332917"><ele>479.0</ele><time>2026-04-25T11:26:22.12Z</time></trkpt><trkpt lat="43.223255" lon="10.8334617"><ele>479.0</ele><time>2026-04-25T11:26:23.131Z</time></trkpt><trkpt lat="43.2232833" lon="10.8336333"><ele>482.25</ele><time>2026-04-25T11:26:24.125Z</time></trkpt><trkpt lat="43.2232833" lon="10.8338133"><ele>485.5</ele><time>2026-04-25T11:26:25.135Z</time></trkpt><trkpt lat="43.22325" lon="10.8339933"><ele>488.75</ele><time>2026-04-25T11:26:26.122Z</time></trkpt><trkpt lat="43.2231833" lon="10.83416"><ele>492.0</ele><time>2026-04-25T11:26:27.119Z</time></trkpt><trkpt lat="43.22308" lon="10.83431"><ele>492.0</ele><time>2026-04-25T11:26:28.12Z</time></trkpt><trkpt lat="43.2229467" lon="10.8344367"><ele>492.0</ele><time>2026-04-25T11:26:29.121Z</time></trkpt><trkpt lat="43.2227933" lon="10.8345433"><ele>492.0</ele><time>2026-04-25T11:26:30.123Z</time></trkpt><trkpt lat="43.2226417" lon="10.8346433"><ele>492.0</ele><time>2026-04-25T11:26:31.125Z</time></trkpt><trkpt lat="43.222495" lon="10.8347517"><ele>492.0</ele><time>2026-04-25T11:26:32.119Z</time></trkpt><trkpt lat="43.222345" lon="10.834875"><ele>492.0</ele><time>2026-04-25T11:26:33.124Z</time></trkpt><trkpt lat="43.2221967" lon="10.835025"><ele>491.0</ele><time>2026-04-25T11:26:34.139Z</time></trkpt><trkpt lat="43.22205" lon="10.83521"><ele>490.0</ele><time>2026-04-25T11:26:35.121Z</time></trkpt><trkpt lat="43.2219033" lon="10.835425"><ele>489.0</ele><time>2026-04-25T11:26:36.131Z</time></trkpt><trkpt lat="43.2217667" lon="10.8356617"><ele>489.0</ele><time>2026-04-25T11:26:37.132Z</time></trkpt><trkpt lat="43.22164" lon="10.8359133"><ele>489.0</ele><time>2026-04-25T11:26:38.128Z</time></trkpt><trkpt lat="43.2215267" lon="10.83618"><ele>489.0</ele><time>2026-04-25T11:26:39.121Z</time></trkpt><trkpt lat="43.2214317" lon="10.83647"><ele>488.5</ele><time>2026-04-25T11:26:40.126Z</time></trkpt><trkpt lat="43.2213533" lon="10.8367683"><ele>488.0</ele><time>2026-04-25T11:26:41.122Z</time></trkpt><trkpt lat="43.22128" lon="10.8370567"><ele>488.0</ele><time>2026-04-25T11:26:42.11Z</time></trkpt><trkpt lat="43.2212083" lon="10.8373317"><ele>488.0</ele><time>2026-04-25T11:26:43.113Z</time></trkpt><trkpt lat="43.221125" lon="10.8376033"><ele>488.0</ele><time>2026-04-25T11:26:44.125Z</time></trkpt><trkpt lat="43.22103" lon="10.8378583"><ele>491.0</ele><time>2026-04-25T11:26:45.137Z</time></trkpt><trkpt lat="43.2209367" lon="10.83808"><ele>494.0</ele><time>2026-04-25T11:26:46.126Z</time></trkpt><trkpt lat="43.22085" lon="10.8382683"><ele>497.0</ele><time>2026-04-25T11:26:47.123Z</time></trkpt><trkpt lat="43.2207767" lon="10.838455"><ele>498.0</ele><time>2026-04-25T11:26:48.126Z</time></trkpt><trkpt lat="43.2207217" lon="10.8386633"><ele>499.0</ele><time>2026-04-25T11:26:49.132Z</time></trkpt><trkpt lat="43.2206833" lon="10.8388733"><ele>500.0</ele><time>2026-04-25T11:26:50.13Z</time></trkpt><trkpt lat="43.220665" lon="10.8390833"><ele>500.0</ele><time>2026-04-25T11:26:51.125Z</time></trkpt><trkpt lat="43.22068" lon="10.839295"><ele>500.0</ele><time>2026-04-25T11:26:52.135Z</time></trkpt><trkpt lat="43.22073" lon="10.83952"><ele>500.0</ele><time>2026-04-25T11:26:53.125Z</time></trkpt><trkpt lat="43.2208133" lon="10.8397517"><ele>498.66666666666663</ele><time>2026-04-25T11:26:54.132Z</time></trkpt><trkpt lat="43.2209083" lon="10.83997"><ele>497.33333333333337</ele><time>2026-04-25T11:26:55.136Z</time></trkpt><trkpt lat="43.2209917" lon="10.8401583"><ele>496.0</ele><time>2026-04-25T11:26:56.15Z</time></trkpt><trkpt lat="43.22106" lon="10.8403367"><ele>496.25</ele><time>2026-04-25T11:26:57.121Z</time></trkpt><trkpt lat="43.2211083" lon="10.8405217"><ele>496.5</ele><time>2026-04-25T11:26:58.122Z</time></trkpt><trkpt lat="43.2211317" lon="10.84072"><ele>496.75</ele><time>2026-04-25T11:26:59.121Z</time></trkpt><trkpt lat="43.221125" lon="10.84092"><ele>497.0</ele><time>2026-04-25T11:27:00.133Z</time></trkpt><trkpt lat="43.2210883" lon="10.8411233"><ele>497.0</ele><time>2026-04-25T11:27:01.131Z</time></trkpt><trkpt lat="43.221025" lon="10.8413383"><ele>497.0</ele><time>2026-04-25T11:27:02.131Z</time></trkpt><trkpt lat="43.2209567" lon="10.84156"><ele>497.0</ele><time>2026-04-25T11:27:03.132Z</time></trkpt><trkpt lat="43.2209083" lon="10.8417867"><ele>497.0</ele><time>2026-04-25T11:27:04.124Z</time></trkpt><trkpt lat="43.2208817" lon="10.84203"><ele>497.0</ele><time>2026-04-25T11:27:05.122Z</time></trkpt><trkpt lat="43.2208817" lon="10.8422967"><ele>497.0</ele><time>2026-04-25T11:27:06.124Z</time></trkpt><trkpt lat="43.2209017" lon="10.8425733"><ele>496.3333333333333</ele><time>2026-04-25T11:27:07.127Z</time></trkpt><trkpt lat="43.2209317" lon="10.84284"><ele>495.66666666666663</ele><time>2026-04-25T11:27:08.13Z</time></trkpt><trkpt lat="43.2209717" lon="10.8430867"><ele>495.0</ele><time>2026-04-25T11:27:09.122Z</time></trkpt><trkpt lat="43.221025" lon="10.8433283"><ele>492.33333333333337</ele><time>2026-04-25T11:27:10.119Z</time></trkpt><trkpt lat="43.2210967" lon="10.8435667"><ele>489.6666666666667</ele><time>2026-04-25T11:27:11.125Z</time></trkpt><trkpt lat="43.2211883" lon="10.8438033"><ele>487.0</ele><time>2026-04-25T11:27:12.125Z</time></trkpt><trkpt lat="43.2212917" lon="10.8440283"><ele>487.0</ele><time>2026-04-25T11:27:13.127Z</time></trkpt><trkpt lat="43.2213967" lon="10.8442333"><ele>487.0</ele><time>2026-04-25T11:27:14.131Z</time></trkpt><trkpt lat="43.2214933" lon="10.84442"><ele>487.0</ele><time>2026-04-25T11:27:15.123Z</time></trkpt><trkpt lat="43.2215783" lon="10.8445967"><ele>490.6666666666667</ele><time>2026-04-25T11:27:16.128Z</time></trkpt><trkpt lat="43.2216533" lon="10.8447783"><ele>494.33333333333337</ele><time>2026-04-25T11:27:17.114Z</time></trkpt><trkpt lat="43.221715" lon="10.8449683"><ele>498.0</ele><time>2026-04-25T11:27:18.127Z</time></trkpt><trkpt lat="43.2217567" lon="10.8451717"><ele>498.0</ele><time>2026-04-25T11:27:19.13Z</time></trkpt><trkpt lat="43.2217667" lon="10.8453983"><ele>498.0</ele><time>2026-04-25T11:27:20.126Z</time></trkpt><trkpt lat="43.2217417" lon="10.8456483"><ele>498.0</ele><time>2026-04-25T11:27:21.121Z</time></trkpt><trkpt lat="43.221685" lon="10.84591"><ele>498.33333333333337</ele><time>2026-04-25T11:27:22.123Z</time></trkpt><trkpt lat="43.221615" lon="10.84617"><ele>498.6666666666667</ele><time>2026-04-25T11:27:23.125Z</time></trkpt><trkpt lat="43.2215467" lon="10.8464183"><ele>499.0</ele><time>2026-04-25T11:27:24.126Z</time></trkpt><trkpt lat="43.2214783" lon="10.8466567"><ele>499.0</ele><time>2026-04-25T11:27:25.128Z</time></trkpt><trkpt lat="43.2214017" lon="10.84688"><ele>499.0</ele><time>2026-04-25T11:27:26.12Z</time></trkpt><trkpt lat="43.2213017" lon="10.8470683"><ele>499.0</ele><time>2026-04-25T11:27:27.118Z</time></trkpt><trkpt lat="43.2211767" lon="10.8472317"><ele>499.0</ele><time>2026-04-25T11:27:28.118Z</time></trkpt><trkpt lat="43.2210367" lon="10.847365"><ele>499.0</ele><time>2026-04-25T11:27:29.125Z</time></trkpt><trkpt lat="43.220905" lon="10.84748"><ele>499.0</ele><time>2026-04-25T11:27:30.132Z</time></trkpt><trkpt lat="43.2207833" lon="10.8475917"><ele>500.0</ele><time>2026-04-25T11:27:31.129Z</time></trkpt><trkpt lat="43.2206833" lon="10.847715"><ele>501.0</ele><time>2026-04-25T11:27:32.126Z</time></trkpt><trkpt lat="43.2205967" lon="10.8478633"><ele>502.0</ele><time>2026-04-25T11:27:33.121Z</time></trkpt><trkpt lat="43.22052" lon="10.8480333"><ele>503.0</ele><time>2026-04-25T11:27:34.128Z</time></trkpt><trkpt lat="43.2204467" lon="10.8482133"><ele>503.0</ele><time>2026-04-25T11:27:35.124Z</time></trkpt><trkpt lat="43.2203717" lon="10.8483983"><ele>503.0</ele><time>2026-04-25T11:27:36.127Z</time></trkpt><trkpt lat="43.22029" lon="10.8485767"><ele>503.0</ele><time>2026-04-25T11:27:37.125Z</time></trkpt><trkpt lat="43.2201883" lon="10.8487483"><ele>503.0</ele><time>2026-04-25T11:27:38.129Z</time></trkpt><trkpt lat="43.22006" lon="10.8488967"><ele>503.0</ele><time>2026-04-25T11:27:39.124Z</time></trkpt><trkpt lat="43.2199117" lon="10.8490167"><ele>503.0</ele><time>2026-04-25T11:27:40.134Z</time></trkpt><trkpt lat="43.21974" lon="10.849105"><ele>500.66666666666663</ele><time>2026-04-25T11:27:41.124Z</time></trkpt><trkpt lat="43.2195483" lon="10.8491633"><ele>498.33333333333337</ele><time>2026-04-25T11:27:42.125Z</time></trkpt><trkpt lat="43.2193333" lon="10.8492067"><ele>496.0</ele><time>2026-04-25T11:27:43.125Z</time></trkpt><trkpt lat="43.2190983" lon="10.849245"><ele>494.0</ele><time>2026-04-25T11:27:44.123Z</time></trkpt><trkpt lat="43.21886" lon="10.84929"><ele>492.0</ele><time>2026-04-25T11:27:45.125Z</time></trkpt><trkpt lat="43.2186417" lon="10.8493383"><ele>493.66666666666663</ele><time>2026-04-25T11:27:46.129Z</time></trkpt><trkpt lat="43.2184483" lon="10.8493817"><ele>495.3333333333333</ele><time>2026-04-25T11:27:47.115Z</time></trkpt><trkpt lat="43.218265" lon="10.8494117"><ele>497.0</ele><time>2026-04-25T11:27:48.126Z</time></trkpt><trkpt lat="43.218085" lon="10.8494233"><ele>497.0</ele><time>2026-04-25T11:27:49.122Z</time></trkpt><trkpt lat="43.217915" lon="10.849415"><ele>497.0</ele><time>2026-04-25T11:27:50.129Z</time></trkpt><trkpt lat="43.2177617" lon="10.8493933"><ele>497.0</ele><time>2026-04-25T11:27:51.115Z</time></trkpt><trkpt lat="43.217625" lon="10.8493783"><ele>497.0</ele><time>2026-04-25T11:27:52.121Z</time></trkpt><trkpt lat="43.2174983" lon="10.8493883"><ele>497.0</ele><time>2026-04-25T11:27:53.111Z</time></trkpt><trkpt lat="43.2173817" lon="10.8494433"><ele>497.0</ele><time>2026-04-25T11:27:54.125Z</time></trkpt><trkpt lat="43.2172833" lon="10.849545"><ele>497.0</ele><time>2026-04-25T11:27:55.124Z</time></trkpt><trkpt lat="43.2171983" lon="10.8496833"><ele>496.5</ele><time>2026-04-25T11:27:56.12Z</time></trkpt><trkpt lat="43.2171367" lon="10.8498467"><ele>496.0</ele><time>2026-04-25T11:27:57.12Z</time></trkpt><trkpt lat="43.217085" lon="10.8500133"><ele>495.5</ele><time>2026-04-25T11:27:58.127Z</time></trkpt><trkpt lat="43.2170267" lon="10.8501717"><ele>495.0</ele><time>2026-04-25T11:27:59.12Z</time></trkpt><trkpt lat="43.2169483" lon="10.850315"><ele>495.0</ele><time>2026-04-25T11:28:00.132Z</time></trkpt><trkpt lat="43.2168483" lon="10.8504383"><ele>495.0</ele><time>2026-04-25T11:28:01.128Z</time></trkpt><trkpt lat="43.21673" lon="10.8505333"><ele>495.0</ele><time>2026-04-25T11:28:02.124Z</time></trkpt><trkpt lat="43.2165933" lon="10.8505983"><ele>495.0</ele><time>2026-04-25T11:28:03.121Z</time></trkpt><trkpt lat="43.2164417" lon="10.85063"><ele>494.66666666666663</ele><time>2026-04-25T11:28:04.125Z</time></trkpt><trkpt lat="43.21629" lon="10.8506467"><ele>494.3333333333333</ele><time>2026-04-25T11:28:05.13Z</time></trkpt><trkpt lat="43.216135" lon="10.8506783"><ele>494.0</ele><time>2026-04-25T11:28:06.131Z</time></trkpt><trkpt lat="43.215965" lon="10.850745"><ele>494.0</ele><time>2026-04-25T11:28:07.129Z</time></trkpt><trkpt lat="43.2157983" lon="10.850825"><ele>494.0</ele><time>2026-04-25T11:28:08.124Z</time></trkpt><trkpt lat="43.2156483" lon="10.8509"><ele>494.0</ele><time>2026-04-25T11:28:09.124Z</time></trkpt><trkpt lat="43.2155267" lon="10.8509617"><ele>493.5</ele><time>2026-04-25T11:28:10.126Z</time></trkpt><trkpt lat="43.2154183" lon="10.8510333"><ele>493.0</ele><time>2026-04-25T11:28:11.125Z</time></trkpt><trkpt lat="43.2153283" lon="10.851135"><ele>492.5</ele><time>2026-04-25T11:28:12.117Z</time></trkpt><trkpt lat="43.2152517" lon="10.851285"><ele>492.0</ele><time>2026-04-25T11:28:13.122Z</time></trkpt><trkpt lat="43.2151917" lon="10.85148"><ele>492.0</ele><time>2026-04-25T11:28:14.118Z</time></trkpt><trkpt lat="43.2151283" lon="10.851685"><ele>492.0</ele><time>2026-04-25T11:28:15.124Z</time></trkpt><trkpt lat="43.2150783" lon="10.8518817"><ele>492.0</ele><time>2026-04-25T11:28:16.116Z</time></trkpt><trkpt lat="43.2150483" lon="10.852055"><ele>492.0</ele><time>2026-04-25T11:28:17.119Z</time></trkpt><trkpt lat="43.21504" lon="10.8522017"><ele>493.40000000000003</ele><time>2026-04-25T11:28:18.126Z</time></trkpt><trkpt lat="43.215055" lon="10.852335"><ele>494.80000000000007</ele><time>2026-04-25T11:28:19.127Z</time></trkpt><trkpt lat="43.2150983" lon="10.8524533"><ele>496.2</ele><time>2026-04-25T11:28:20.118Z</time></trkpt><trkpt lat="43.2151767" lon="10.8525667"><ele>497.6</ele><time>2026-04-25T11:28:21.135Z</time></trkpt><trkpt lat="43.2152717" lon="10.8526817"><ele>499.0</ele><time>2026-04-25T11:28:22.119Z</time></trkpt><trkpt lat="43.2153617" lon="10.8528067"><ele>499.0</ele><time>2026-04-25T11:28:23.123Z</time></trkpt><trkpt lat="43.2154183" lon="10.852945"><ele>499.0</ele><time>2026-04-25T11:28:24.125Z</time></trkpt><trkpt lat="43.2154417" lon="10.8531033"><ele>499.0</ele><time>2026-04-25T11:28:25.132Z</time></trkpt><trkpt lat="43.21544" lon="10.85328"><ele>499.0</ele><time>2026-04-25T11:28:26.139Z</time></trkpt><trkpt lat="43.21542" lon="10.8534767"><ele>500.75</ele><time>2026-04-25T11:28:27.117Z</time></trkpt><trkpt lat="43.215395" lon="10.8536867"><ele>502.5</ele><time>2026-04-25T11:28:28.121Z</time></trkpt><trkpt lat="43.2153817" lon="10.8538917"><ele>504.25</ele><time>2026-04-25T11:28:29.121Z</time></trkpt><trkpt lat="43.2153917" lon="10.854075"><ele>506.0</ele><time>2026-04-25T11:28:30.119Z</time></trkpt><trkpt lat="43.21543" lon="10.854235"><ele>506.5</ele><time>2026-04-25T11:28:31.131Z</time></trkpt><trkpt lat="43.2155033" lon="10.8543733"><ele>507.0</ele><time>2026-04-25T11:28:32.114Z</time></trkpt><trkpt lat="43.2156017" lon="10.8545033"><ele>507.5</ele><time>2026-04-25T11:28:33.116Z</time></trkpt><trkpt lat="43.2157133" lon="10.8546367"><ele>508.0</ele><time>2026-04-25T11:28:34.121Z</time></trkpt><trkpt lat="43.2158233" lon="10.85478"><ele>508.0</ele><time>2026-04-25T11:28:35.131Z</time></trkpt><trkpt lat="43.215925" lon="10.85493"><ele>508.0</ele><time>2026-04-25T11:28:36.123Z</time></trkpt><trkpt lat="43.2160333" lon="10.8550783"><ele>508.0</ele><time>2026-04-25T11:28:37.13Z</time></trkpt><trkpt lat="43.21616" lon="10.85521"><ele>509.25</ele><time>2026-04-25T11:28:38.122Z</time></trkpt><trkpt lat="43.2162983" lon="10.8553233"><ele>510.5</ele><time>2026-04-25T11:28:39.119Z</time></trkpt><trkpt lat="43.2164217" lon="10.8554267"><ele>511.75</ele><time>2026-04-25T11:28:40.129Z</time></trkpt><trkpt lat="43.2165217" lon="10.8555367"><ele>513.0</ele><time>2026-04-25T11:28:41.127Z</time></trkpt><trkpt lat="43.2166033" lon="10.85568"><ele>513.0</ele><time>2026-04-25T11:28:42.136Z</time></trkpt><trkpt lat="43.2166567" lon="10.8558533"><ele>513.0</ele><time>2026-04-25T11:28:43.124Z</time></trkpt><trkpt lat="43.21669" lon="10.8560183"><ele>513.0</ele><time>2026-04-25T11:28:44.124Z</time></trkpt><trkpt lat="43.2167183" lon="10.8561633"><ele>513.0</ele><time>2026-04-25T11:28:45.122Z</time></trkpt><trkpt lat="43.21676" lon="10.8562867"><ele>513.0</ele><time>2026-04-25T11:28:46.123Z</time></trkpt><trkpt lat="43.2168217" lon="10.85637"><ele>513.0</ele><time>2026-04-25T11:28:47.128Z</time></trkpt><trkpt lat="43.2169" lon="10.8564217"><ele>513.0</ele><time>2026-04-25T11:28:48.119Z</time></trkpt><trkpt lat="43.216995" lon="10.85643"><ele>513.0</ele><time>2026-04-25T11:28:49.124Z</time></trkpt><trkpt lat="43.2171083" lon="10.856385"><ele>513.0</ele><time>2026-04-25T11:28:50.13Z</time></trkpt><trkpt lat="43.2172567" lon="10.856275"><ele>512.0</ele><time>2026-04-25T11:28:51.126Z</time></trkpt><trkpt lat="43.2173983" lon="10.8561767"><ele>511.0</ele><time>2026-04-25T11:28:52.129Z</time></trkpt><trkpt lat="43.21753" lon="10.85611"><ele>510.0</ele><time>2026-04-25T11:28:53.131Z</time></trkpt><trkpt lat="43.2176483" lon="10.856075"><ele>509.0</ele><time>2026-04-25T11:28:54.122Z</time></trkpt><trkpt lat="43.2177567" lon="10.8560867"><ele>509.0</ele><time>2026-04-25T11:28:55.124Z</time></trkpt><trkpt lat="43.2178467" lon="10.8561517"><ele>509.0</ele><time>2026-04-25T11:28:56.117Z</time></trkpt><trkpt lat="43.2179117" lon="10.8562633"><ele>509.0</ele><time>2026-04-25T11:28:57.123Z</time></trkpt><trkpt lat="43.2179633" lon="10.8564233"><ele>509.0</ele><time>2026-04-25T11:28:58.128Z</time></trkpt><trkpt lat="43.2180217" lon="10.8566217"><ele>511.66666666666663</ele><time>2026-04-25T11:28:59.119Z</time></trkpt><trkpt lat="43.2180767" lon="10.8568233"><ele>514.3333333333334</ele><time>2026-04-25T11:29:00.131Z</time></trkpt><trkpt lat="43.218115" lon="10.85702"><ele>517.0</ele><time>2026-04-25T11:29:01.13Z</time></trkpt><trkpt lat="43.2181283" lon="10.8572333"><ele>517.0</ele><time>2026-04-25T11:29:02.128Z</time></trkpt><trkpt lat="43.2181133" lon="10.8574367"><ele>517.0</ele><time>2026-04-25T11:29:03.122Z</time></trkpt><trkpt lat="43.218085" lon="10.85761"><ele>517.0</ele><time>2026-04-25T11:29:04.122Z</time></trkpt><trkpt lat="43.2180667" lon="10.85776"><ele>517.0</ele><time>2026-04-25T11:29:05.126Z</time></trkpt><trkpt lat="43.2180767" lon="10.8578867"><ele>517.8000000000001</ele><time>2026-04-25T11:29:06.126Z</time></trkpt><trkpt lat="43.218105" lon="10.8580017"><ele>518.6</ele><time>2026-04-25T11:29:07.141Z</time></trkpt><trkpt lat="43.21816" lon="10.8581"><ele>519.4000000000001</ele><time>2026-04-25T11:29:08.123Z</time></trkpt><trkpt lat="43.21824" lon="10.858165"><ele>520.2</ele><time>2026-04-25T11:29:09.126Z</time></trkpt><trkpt lat="43.218355" lon="10.8581767"><ele>521.0</ele><time>2026-04-25T11:29:10.126Z</time></trkpt><trkpt lat="43.2184883" lon="10.8581367"><ele>518.3333333333333</ele><time>2026-04-25T11:29:11.122Z</time></trkpt><trkpt lat="43.2186567" lon="10.8580333"><ele>515.6666666666666</ele><time>2026-04-25T11:29:12.118Z</time></trkpt><trkpt lat="43.218885" lon="10.8578717"><ele>513.0</ele><time>2026-04-25T11:29:13.13Z</time></trkpt><trkpt lat="43.2190683" lon="10.8577417"><ele>513.0</ele><time>2026-04-25T11:29:14.115Z</time></trkpt><trkpt lat="43.2192217" lon="10.857645"><ele>513.0</ele><time>2026-04-25T11:29:15.14Z</time></trkpt><trkpt lat="43.2193617" lon="10.8575783"><ele>513.0</ele><time>2026-04-25T11:29:16.121Z</time></trkpt><trkpt lat="43.219505" lon="10.8575483"><ele>508.66666666666663</ele><time>2026-04-25T11:29:17.114Z</time></trkpt><trkpt lat="43.21966" lon="10.8575633"><ele>504.3333333333333</ele><time>2026-04-25T11:29:18.117Z</time></trkpt><trkpt lat="43.2198183" lon="10.857625"><ele>500.0</ele><time>2026-04-25T11:29:19.112Z</time></trkpt><trkpt lat="43.2199683" lon="10.8577317"><ele>500.0</ele><time>2026-04-25T11:29:20.12Z</time></trkpt><trkpt lat="43.2201117" lon="10.8578817"><ele>500.0</ele><time>2026-04-25T11:29:21.129Z</time></trkpt><trkpt lat="43.2202433" lon="10.858065"><ele>500.0</ele><time>2026-04-25T11:29:22.125Z</time></trkpt><trkpt lat="43.2203667" lon="10.85825"><ele>500.0</ele><time>2026-04-25T11:29:23.119Z</time></trkpt><trkpt lat="43.2204867" lon="10.8584167"><ele>500.0</ele><time>2026-04-25T11:29:24.124Z</time></trkpt><trkpt lat="43.2206" lon="10.8585567"><ele>500.0</ele><time>2026-04-25T11:29:25.124Z</time></trkpt><trkpt lat="43.2207217" lon="10.8586667"><ele>499.5</ele><time>2026-04-25T11:29:26.123Z</time></trkpt><trkpt lat="43.2208517" lon="10.858745"><ele>499.0</ele><time>2026-04-25T11:29:27.124Z</time></trkpt><trkpt lat="43.2209967" lon="10.85879"><ele>498.5</ele><time>2026-04-25T11:29:28.132Z</time></trkpt><trkpt lat="43.221155" lon="10.8587983"><ele>498.0</ele><time>2026-04-25T11:29:29.13Z</time></trkpt><trkpt lat="43.221305" lon="10.8587883"><ele>498.0</ele><time>2026-04-25T11:29:30.121Z</time></trkpt><trkpt lat="43.221445" lon="10.8587783"><ele>498.0</ele><time>2026-04-25T11:29:31.123Z</time></trkpt><trkpt lat="43.2215717" lon="10.8587833"><ele>498.0</ele><time>2026-04-25T11:29:32.135Z</time></trkpt><trkpt lat="43.2216833" lon="10.8588233"><ele>498.0</ele><time>2026-04-25T11:29:33.126Z</time></trkpt><trkpt lat="43.2217817" lon="10.8588967"><ele>496.0</ele><time>2026-04-25T11:29:34.125Z</time></trkpt><trkpt lat="43.22187" lon="10.8590133"><ele>494.0</ele><time>2026-04-25T11:29:35.136Z</time></trkpt><trkpt lat="43.2219417" lon="10.8591567"><ele>492.0</ele><time>2026-04-25T11:29:36.118Z</time></trkpt><trkpt lat="43.2219933" lon="10.859315"><ele>490.0</ele><time>2026-04-25T11:29:37.133Z</time></trkpt><trkpt lat="43.222015" lon="10.859485"><ele>489.75</ele><time>2026-04-25T11:29:38.125Z</time></trkpt><trkpt lat="43.222005" lon="10.859645"><ele>489.5</ele><time>2026-04-25T11:29:39.122Z</time></trkpt><trkpt lat="43.2219667" lon="10.8597983"><ele>489.25</ele><time>2026-04-25T11:29:40.125Z</time></trkpt><trkpt lat="43.2219133" lon="10.8599567"><ele>489.0</ele><time>2026-04-25T11:29:41.119Z</time></trkpt><trkpt lat="43.22187" lon="10.86011"><ele>489.0</ele><time>2026-04-25T11:29:42.119Z</time></trkpt><trkpt lat="43.2218517" lon="10.8602717"><ele>489.0</ele><time>2026-04-25T11:29:43.123Z</time></trkpt><trkpt lat="43.22186" lon="10.86045"><ele>489.0</ele><time>2026-04-25T11:29:44.121Z</time></trkpt><trkpt lat="43.22189" lon="10.86063"><ele>489.0</ele><time>2026-04-25T11:29:45.133Z</time></trkpt><trkpt lat="43.22193" lon="10.8608083"><ele>488.75</ele><time>2026-04-25T11:29:46.126Z</time></trkpt><trkpt lat="43.22196" lon="10.860975"><ele>488.5</ele><time>2026-04-25T11:29:47.118Z</time></trkpt><trkpt lat="43.22197" lon="10.8611417"><ele>488.25</ele><time>2026-04-25T11:29:48.123Z</time></trkpt><trkpt lat="43.221955" lon="10.86132"><ele>488.0</ele><time>2026-04-25T11:29:49.121Z</time></trkpt><trkpt lat="43.221915" lon="10.8615117"><ele>488.0</ele><time>2026-04-25T11:29:50.128Z</time></trkpt><trkpt lat="43.221865" lon="10.8617033"><ele>488.0</ele><time>2026-04-25T11:29:51.126Z</time></trkpt><trkpt lat="43.2218167" lon="10.86188"><ele>488.0</ele><time>2026-04-25T11:29:52.123Z</time></trkpt><trkpt lat="43.2217767" lon="10.8620433"><ele>488.0</ele><time>2026-04-25T11:29:53.115Z</time></trkpt><trkpt lat="43.2217567" lon="10.8622083"><ele>487.75</ele><time>2026-04-25T11:29:54.115Z</time></trkpt><trkpt lat="43.2217633" lon="10.8623767"><ele>487.5</ele><time>2026-04-25T11:29:55.13Z</time></trkpt><trkpt lat="43.2217967" lon="10.862545"><ele>487.25</ele><time>2026-04-25T11:29:56.122Z</time></trkpt><trkpt lat="43.22186" lon="10.8627133"><ele>487.0</ele><time>2026-04-25T11:29:57.132Z</time></trkpt><trkpt lat="43.221965" lon="10.86289"><ele>486.33333333333337</ele><time>2026-04-25T11:29:58.128Z</time></trkpt><trkpt lat="43.222115" lon="10.8630817"><ele>485.66666666666663</ele><time>2026-04-25T11:29:59.124Z</time></trkpt><trkpt lat="43.2222983" lon="10.8633"><ele>485.0</ele><time>2026-04-25T11:30:00.119Z</time></trkpt><trkpt lat="43.222485" lon="10.8635333"><ele>485.0</ele><time>2026-04-25T11:30:01.124Z</time></trkpt><trkpt lat="43.2226583" lon="10.86375"><ele>485.0</ele><time>2026-04-25T11:30:02.122Z</time></trkpt><trkpt lat="43.22281" lon="10.86394"><ele>485.0</ele><time>2026-04-25T11:30:03.117Z</time></trkpt><trkpt lat="43.22297" lon="10.8640967"><ele>482.3333333333333</ele><time>2026-04-25T11:30:04.122Z</time></trkpt><trkpt lat="43.2231483" lon="10.864225"><ele>479.66666666666663</ele><time>2026-04-25T11:30:05.125Z</time></trkpt><trkpt lat="43.2233483" lon="10.864325"><ele>477.0</ele><time>2026-04-25T11:30:06.12Z</time></trkpt><trkpt lat="43.2235783" lon="10.8644067"><ele>485.5</ele><time>2026-04-25T11:30:07.118Z</time></trkpt><trkpt lat="43.2238233" lon="10.864485"><ele>494.0</ele><time>2026-04-25T11:30:08.125Z</time></trkpt><trkpt lat="43.22406" lon="10.8645667"><ele>494.0</ele><time>2026-04-25T11:30:09.118Z</time></trkpt><trkpt lat="43.2242733" lon="10.8646367"><ele>494.0</ele><time>2026-04-25T11:30:10.124Z</time></trkpt><trkpt lat="43.22446" lon="10.8647033"><ele>494.0</ele><time>2026-04-25T11:30:11.127Z</time></trkpt><trkpt lat="43.2246267" lon="10.8647883"><ele>494.0</ele><time>2026-04-25T11:30:12.12Z</time></trkpt><trkpt lat="43.2247783" lon="10.8649033"><ele>494.0</ele><time>2026-04-25T11:30:13.116Z</time></trkpt><trkpt lat="43.22492" lon="10.8650217"><ele>494.0</ele><time>2026-04-25T11:30:14.122Z</time></trkpt><trkpt lat="43.225065" lon="10.8651117"><ele>495.3333333333333</ele><time>2026-04-25T11:30:15.122Z</time></trkpt><trkpt lat="43.225215" lon="10.86516"><ele>496.66666666666663</ele><time>2026-04-25T11:30:16.13Z</time></trkpt><trkpt lat="43.22538" lon="10.8651683"><ele>498.0</ele><time>2026-04-25T11:30:17.122Z</time></trkpt><trkpt lat="43.2255467" lon="10.86515"><ele>495.66666666666663</ele><time>2026-04-25T11:30:18.124Z</time></trkpt><trkpt lat="43.2257033" lon="10.865135"><ele>493.3333333333333</ele><time>2026-04-25T11:30:19.126Z</time></trkpt><trkpt lat="43.225855" lon="10.8651517"><ele>491.0</ele><time>2026-04-25T11:30:20.123Z</time></trkpt><trkpt lat="43.2260117" lon="10.8652067"><ele>491.0</ele><time>2026-04-25T11:30:21.12Z</time></trkpt><trkpt lat="43.22617" lon="10.8653017"><ele>491.0</ele><time>2026-04-25T11:30:22.122Z</time></trkpt><trkpt lat="43.2263133" lon="10.8654"><ele>491.0</ele><time>2026-04-25T11:30:23.12Z</time></trkpt><trkpt lat="43.2264483" lon="10.86549"><ele>491.5</ele><time>2026-04-25T11:30:24.123Z</time></trkpt><trkpt lat="43.2265583" lon="10.865595"><ele>492.0</ele><time>2026-04-25T11:30:25.127Z</time></trkpt><trkpt lat="43.2266467" lon="10.8657383"><ele>492.5</ele><time>2026-04-25T11:30:26.12Z</time></trkpt><trkpt lat="43.22671" lon="10.8659167"><ele>493.0</ele><time>2026-04-25T11:30:27.123Z</time></trkpt><trkpt lat="43.226755" lon="10.86609"><ele>493.0</ele><time>2026-04-25T11:30:28.119Z</time></trkpt><trkpt lat="43.2267883" lon="10.8662367"><ele>492.99999999999994</ele><time>2026-04-25T11:30:29.124Z</time></trkpt><trkpt lat="43.2268317" lon="10.8663533"><ele>492.99999999999994</ele><time>2026-04-25T11:30:30.118Z</time></trkpt><trkpt lat="43.2268883" lon="10.8664433"><ele>493.0</ele><time>2026-04-25T11:30:31.127Z</time></trkpt><trkpt lat="43.2269633" lon="10.866505"><ele>493.0</ele><time>2026-04-25T11:30:32.122Z</time></trkpt><trkpt lat="43.2270617" lon="10.8665267"><ele>493.0</ele><time>2026-04-25T11:30:33.124Z</time></trkpt><trkpt lat="43.2271967" lon="10.8665333"><ele>493.0</ele><time>2026-04-25T11:30:34.12Z</time></trkpt><trkpt lat="43.2273983" lon="10.86651"><ele>493.0</ele><time>2026-04-25T11:30:35.126Z</time></trkpt><trkpt lat="43.2275733" lon="10.8664967"><ele>492.75</ele><time>2026-04-25T11:30:36.125Z</time></trkpt><trkpt lat="43.2277183" lon="10.8664883"><ele>492.5</ele><time>2026-04-25T11:30:37.123Z</time></trkpt><trkpt lat="43.22785" lon="10.866505"><ele>492.25</ele><time>2026-04-25T11:30:38.144Z</time></trkpt><trkpt lat="43.2279683" lon="10.86657"><ele>492.0</ele><time>2026-04-25T11:30:39.13Z</time></trkpt><trkpt lat="43.2280733" lon="10.86669"><ele>492.0</ele><time>2026-04-25T11:30:40.129Z</time></trkpt><trkpt lat="43.22817" lon="10.8668633"><ele>492.0</ele><time>2026-04-25T11:30:41.12Z</time></trkpt><trkpt lat="43.2282517" lon="10.8670833"><ele>492.0</ele><time>2026-04-25T11:30:42.125Z</time></trkpt><trkpt lat="43.22832" lon="10.8673067"><ele>492.0</ele><time>2026-04-25T11:30:43.116Z</time></trkpt><trkpt lat="43.228365" lon="10.8675067"><ele>492.0</ele><time>2026-04-25T11:30:44.121Z</time></trkpt><trkpt lat="43.22838" lon="10.8676933"><ele>492.0</ele><time>2026-04-25T11:30:45.125Z</time></trkpt><trkpt lat="43.2283667" lon="10.86787"><ele>492.0</ele><time>2026-04-25T11:30:46.121Z</time></trkpt><trkpt lat="43.2283217" lon="10.8680283"><ele>492.6</ele><time>2026-04-25T11:30:47.125Z</time></trkpt><trkpt lat="43.22826" lon="10.868165"><ele>493.20000000000005</ele><time>2026-04-25T11:30:48.119Z</time></trkpt><trkpt lat="43.2282083" lon="10.8682933"><ele>493.8</ele><time>2026-04-25T11:30:49.128Z</time></trkpt><trkpt lat="43.22819" lon="10.8684233"><ele>494.4</ele><time>2026-04-25T11:30:50.12Z</time></trkpt><trkpt lat="43.228215" lon="10.8685617"><ele>495.0</ele><time>2026-04-25T11:30:51.118Z</time></trkpt><trkpt lat="43.228275" lon="10.86872"><ele>495.0</ele><time>2026-04-25T11:30:52.125Z</time></trkpt><trkpt lat="43.2283317" lon="10.8688917"><ele>495.0</ele><time>2026-04-25T11:30:53.12Z</time></trkpt><trkpt lat="43.22836" lon="10.869075"><ele>495.0</ele><time>2026-04-25T11:30:54.122Z</time></trkpt><trkpt lat="43.2283617" lon="10.86927"><ele>495.0</ele><time>2026-04-25T11:30:55.134Z</time></trkpt><trkpt lat="43.2283367" lon="10.8694717"><ele>495.0</ele><time>2026-04-25T11:30:56.117Z</time></trkpt><trkpt lat="43.2282767" lon="10.8696633"><ele>495.0</ele><time>2026-04-25T11:30:57.131Z</time></trkpt><trkpt lat="43.2282017" lon="10.8698283"><ele>495.0</ele><time>2026-04-25T11:30:58.124Z</time></trkpt><trkpt lat="43.2281033" lon="10.8699633"><ele>495.0</ele><time>2026-04-25T11:30:59.121Z</time></trkpt><trkpt lat="43.2279833" lon="10.870075"><ele>497.25</ele><time>2026-04-25T11:31:00.124Z</time></trkpt><trkpt lat="43.2278617" lon="10.8701783"><ele>499.5</ele><time>2026-04-25T11:31:01.129Z</time></trkpt><trkpt lat="43.227765" lon="10.8703017"><ele>501.75</ele><time>2026-04-25T11:31:02.12Z</time></trkpt><trkpt lat="43.227685" lon="10.87045"><ele>504.0</ele><time>2026-04-25T11:31:03.121Z</time></trkpt><trkpt lat="43.2276317" lon="10.8706267"><ele>504.0</ele><time>2026-04-25T11:31:04.119Z</time></trkpt><trkpt lat="43.2276033" lon="10.8708217"><ele>504.0</ele><time>2026-04-25T11:31:05.119Z</time></trkpt><trkpt lat="43.2275983" lon="10.87106"><ele>504.0</ele><time>2026-04-25T11:31:06.123Z</time></trkpt><trkpt lat="43.22763" lon="10.87135"><ele>507.0</ele><time>2026-04-25T11:31:07.134Z</time></trkpt><trkpt lat="43.227665" lon="10.8716517"><ele>510.0</ele><time>2026-04-25T11:31:08.118Z</time></trkpt><trkpt lat="43.2276983" lon="10.87192"><ele>513.0</ele><time>2026-04-25T11:31:09.135Z</time></trkpt><trkpt lat="43.227725" lon="10.8721533"><ele>513.0</ele><time>2026-04-25T11:31:10.123Z</time></trkpt><trkpt lat="43.2277383" lon="10.8723667"><ele>513.0</ele><time>2026-04-25T11:31:11.126Z</time></trkpt><trkpt lat="43.2277217" lon="10.8725683"><ele>513.0</ele><time>2026-04-25T11:31:12.121Z</time></trkpt><trkpt lat="43.227675" lon="10.87278"><ele>510.66666666666663</ele><time>2026-04-25T11:31:13.123Z</time></trkpt><trkpt lat="43.227595" lon="10.8729967"><ele>508.3333333333333</ele><time>2026-04-25T11:31:14.139Z</time></trkpt><trkpt lat="43.2275033" lon="10.8731817"><ele>506.0</ele><time>2026-04-25T11:31:15.134Z</time></trkpt><trkpt lat="43.227425" lon="10.873335"><ele>507.3333333333333</ele><time>2026-04-25T11:31:16.125Z</time></trkpt><trkpt lat="43.227365" lon="10.87346"><ele>508.66666666666663</ele><time>2026-04-25T11:31:17.127Z</time></trkpt><trkpt lat="43.227335" lon="10.8735833"><ele>510.0</ele><time>2026-04-25T11:31:18.13Z</time></trkpt><trkpt lat="43.2273333" lon="10.8737"><ele>511.33333333333337</ele><time>2026-04-25T11:31:19.127Z</time></trkpt><trkpt lat="43.2273517" lon="10.8738083"><ele>512.6666666666667</ele><time>2026-04-25T11:31:20.117Z</time></trkpt><trkpt lat="43.227385" lon="10.873895"><ele>514.0</ele><time>2026-04-25T11:31:21.133Z</time></trkpt><trkpt lat="43.22744" lon="10.873955"><ele>514.0</ele><time>2026-04-25T11:31:22.125Z</time></trkpt><trkpt lat="43.227545" lon="10.8739733"><ele>514.0</ele><time>2026-04-25T11:31:23.123Z</time></trkpt><trkpt lat="43.22769" lon="10.8739733"><ele>514.0</ele><time>2026-04-25T11:31:24.121Z</time></trkpt><trkpt lat="43.2278767" lon="10.8739833"><ele>514.0</ele><time>2026-04-25T11:31:25.146Z</time></trkpt><trkpt lat="43.22805" lon="10.87403"><ele>511.33333333333337</ele><time>2026-04-25T11:31:26.122Z</time></trkpt><trkpt lat="43.2282383" lon="10.8741167"><ele>508.66666666666663</ele><time>2026-04-25T11:31:27.118Z</time></trkpt><trkpt lat="43.22842" lon="10.8742867"><ele>506.0</ele><time>2026-04-25T11:31:28.123Z</time></trkpt><trkpt lat="43.22862" lon="10.8744783"><ele>506.0</ele><time>2026-04-25T11:31:29.127Z</time></trkpt><trkpt lat="43.2288083" lon="10.8746417"><ele>506.0</ele><time>2026-04-25T11:31:30.138Z</time></trkpt><trkpt lat="43.2289717" lon="10.8747633"><ele>506.0</ele><time>2026-04-25T11:31:31.126Z</time></trkpt><trkpt lat="43.229105" lon="10.8748667"><ele>503.25</ele><time>2026-04-25T11:31:32.133Z</time></trkpt><trkpt lat="43.2292217" lon="10.8749733"><ele>500.5</ele><time>2026-04-25T11:31:33.128Z</time></trkpt><trkpt lat="43.2293117" lon="10.875095"><ele>497.75</ele><time>2026-04-25T11:31:34.118Z</time></trkpt><trkpt lat="43.2293933" lon="10.875255"><ele>495.0</ele><time>2026-04-25T11:31:35.119Z</time></trkpt><trkpt lat="43.2294667" lon="10.8754383"><ele>494.0</ele><time>2026-04-25T11:31:36.125Z</time></trkpt><trkpt lat="43.229545" lon="10.87561"><ele>493.0</ele><time>2026-04-25T11:31:37.132Z</time></trkpt><trkpt lat="43.22964" lon="10.8757517"><ele>492.0</ele><time>2026-04-25T11:31:38.134Z</time></trkpt><trkpt lat="43.2297367" lon="10.8758633"><ele>491.0</ele><time>2026-04-25T11:31:39.121Z</time></trkpt><trkpt lat="43.2298133" lon="10.875955"><ele>489.66666666666663</ele><time>2026-04-25T11:31:40.129Z</time></trkpt><trkpt lat="43.2298683" lon="10.8760283"><ele>488.3333333333333</ele><time>2026-04-25T11:31:41.125Z</time></trkpt><trkpt lat="43.2299133" lon="10.8761533"><ele>487.0</ele><time>2026-04-25T11:31:43.13Z</time></trkpt><trkpt lat="43.22984" lon="10.8762267"><ele>485.66666666666663</ele><time>2026-04-25T11:31:55.139Z</time></trkpt><trkpt lat="43.2297767" lon="10.876235"><ele>484.3333333333333</ele><time>2026-04-25T11:31:56.125Z</time></trkpt><trkpt lat="43.2297017" lon="10.876255"><ele>483.0</ele><time>2026-04-25T11:31:57.124Z</time></trkpt><trkpt lat="43.22962" lon="10.876275"><ele>483.0</ele><time>2026-04-25T11:31:58.117Z</time></trkpt><trkpt lat="43.2295333" lon="10.876295"><ele>482.99999999999994</ele><time>2026-04-25T11:31:59.119Z</time></trkpt><trkpt lat="43.229445" lon="10.8763167"><ele>482.99999999999994</ele><time>2026-04-25T11:32:00.12Z</time></trkpt><trkpt lat="43.229355" lon="10.87635"><ele>483.0</ele><time>2026-04-25T11:32:01.128Z</time></trkpt><trkpt lat="43.2292633" lon="10.8764"><ele>483.0</ele><time>2026-04-25T11:32:02.126Z</time></trkpt><trkpt lat="43.2291733" lon="10.876465"><ele>483.0</ele><time>2026-04-25T11:32:03.134Z</time></trkpt><trkpt lat="43.2290867" lon="10.87655"><ele>482.99999999999994</ele><time>2026-04-25T11:32:04.128Z</time></trkpt><trkpt lat="43.2290083" lon="10.8766533"><ele>482.99999999999994</ele><time>2026-04-25T11:32:05.124Z</time></trkpt><trkpt lat="43.2289433" lon="10.8767717"><ele>483.0</ele><time>2026-04-25T11:32:06.119Z</time></trkpt><trkpt lat="43.2288883" lon="10.8769033"><ele>483.0</ele><time>2026-04-25T11:32:07.135Z</time></trkpt><trkpt lat="43.2288433" lon="10.877045"><ele>485.0</ele><time>2026-04-25T11:32:08.119Z</time></trkpt><trkpt lat="43.228805" lon="10.8771933"><ele>487.0</ele><time>2026-04-25T11:32:09.127Z</time></trkpt><trkpt lat="43.2287717" lon="10.8773433"><ele>489.0</ele><time>2026-04-25T11:32:10.127Z</time></trkpt><trkpt lat="43.2287383" lon="10.8774933"><ele>491.0</ele><time>2026-04-25T11:32:11.115Z</time></trkpt><trkpt lat="43.2287133" lon="10.877645"><ele>491.0</ele><time>2026-04-25T11:32:12.127Z</time></trkpt><trkpt lat="43.2286967" lon="10.8778"><ele>491.0</ele><time>2026-04-25T11:32:13.117Z</time></trkpt><trkpt lat="43.2286983" lon="10.877955"><ele>491.0</ele><time>2026-04-25T11:32:14.119Z</time></trkpt><trkpt lat="43.2287117" lon="10.87811"><ele>491.0</ele><time>2026-04-25T11:32:15.125Z</time></trkpt><trkpt lat="43.228735" lon="10.8782567"><ele>491.0</ele><time>2026-04-25T11:32:16.123Z</time></trkpt><trkpt lat="43.2287583" lon="10.8783983"><ele>491.0</ele><time>2026-04-25T11:32:17.129Z</time></trkpt><trkpt lat="43.2287767" lon="10.87854"><ele>491.0</ele><time>2026-04-25T11:32:18.118Z</time></trkpt><trkpt lat="43.2287833" lon="10.8786917"><ele>491.0</ele><time>2026-04-25T11:32:19.128Z</time></trkpt><trkpt lat="43.228775" lon="10.8788433"><ele>491.0</ele><time>2026-04-25T11:32:20.124Z</time></trkpt><trkpt lat="43.228755" lon="10.878995"><ele>490.25</ele><time>2026-04-25T11:32:21.125Z</time></trkpt><trkpt lat="43.228725" lon="10.8791533"><ele>489.5</ele><time>2026-04-25T11:32:22.141Z</time></trkpt><trkpt lat="43.228685" lon="10.8793133"><ele>488.75</ele><time>2026-04-25T11:32:23.123Z</time></trkpt><trkpt lat="43.2286417" lon="10.8794767"><ele>488.0</ele><time>2026-04-25T11:32:24.12Z</time></trkpt><trkpt lat="43.2285967" lon="10.87964"><ele>487.0</ele><time>2026-04-25T11:32:25.13Z</time></trkpt><trkpt lat="43.2285533" lon="10.8798017"><ele>486.0</ele><time>2026-04-25T11:32:26.124Z</time></trkpt><trkpt lat="43.2285083" lon="10.87996"><ele>485.0</ele><time>2026-04-25T11:32:27.128Z</time></trkpt><trkpt lat="43.22846" lon="10.8801133"><ele>484.0</ele><time>2026-04-25T11:32:28.121Z</time></trkpt><trkpt lat="43.228405" lon="10.8802617"><ele>484.75</ele><time>2026-04-25T11:32:29.125Z</time></trkpt><trkpt lat="43.22834" lon="10.880405"><ele>485.5</ele><time>2026-04-25T11:32:30.124Z</time></trkpt><trkpt lat="43.228265" lon="10.8805417"><ele>486.25</ele><time>2026-04-25T11:32:31.12Z</time></trkpt><trkpt lat="43.2281817" lon="10.8806683"><ele>487.0</ele><time>2026-04-25T11:32:32.12Z</time></trkpt><trkpt lat="43.2280883" lon="10.8807883"><ele>487.0</ele><time>2026-04-25T11:32:33.119Z</time></trkpt><trkpt lat="43.227985" lon="10.8809"><ele>487.0</ele><time>2026-04-25T11:32:34.124Z</time></trkpt><trkpt lat="43.2278767" lon="10.8810083"><ele>487.0</ele><time>2026-04-25T11:32:35.12Z</time></trkpt><trkpt lat="43.2277667" lon="10.8811167"><ele>487.0</ele><time>2026-04-25T11:32:36.119Z</time></trkpt><trkpt lat="43.2276533" lon="10.88123"><ele>487.0</ele><time>2026-04-25T11:32:37.124Z</time></trkpt><trkpt lat="43.2275383" lon="10.8813467"><ele>487.0</ele><time>2026-04-25T11:32:38.12Z</time></trkpt><trkpt lat="43.2274233" lon="10.8814633"><ele>487.0</ele><time>2026-04-25T11:32:39.122Z</time></trkpt><trkpt lat="43.2273083" lon="10.8815867"><ele>487.0</ele><time>2026-04-25T11:32:40.123Z</time></trkpt><trkpt lat="43.2271967" lon="10.8817117"><ele>483.5</ele><time>2026-04-25T11:32:41.118Z</time></trkpt><trkpt lat="43.2270867" lon="10.8818383"><ele>480.0</ele><time>2026-04-25T11:32:42.128Z</time></trkpt><trkpt lat="43.2269833" lon="10.8819667"><ele>476.5</ele><time>2026-04-25T11:32:43.117Z</time></trkpt><trkpt lat="43.226885" lon="10.8820983"><ele>473.0</ele><time>2026-04-25T11:32:44.125Z</time></trkpt><trkpt lat="43.2267867" lon="10.8822333"><ele>473.0</ele><time>2026-04-25T11:32:45.121Z</time></trkpt><trkpt lat="43.2266967" lon="10.8823633"><ele>473.0</ele><time>2026-04-25T11:32:46.124Z</time></trkpt><trkpt lat="43.2266133" lon="10.882495"><ele>473.0</ele><time>2026-04-25T11:32:47.128Z</time></trkpt><trkpt lat="43.22654" lon="10.8826317"><ele>473.0</ele><time>2026-04-25T11:32:48.124Z</time></trkpt><trkpt lat="43.22648" lon="10.882785"><ele>477.66666666666663</ele><time>2026-04-25T11:32:49.131Z</time></trkpt><trkpt lat="43.2264333" lon="10.8829683"><ele>482.33333333333337</ele><time>2026-04-25T11:32:50.121Z</time></trkpt><trkpt lat="43.2263933" lon="10.8831683"><ele>487.0</ele><time>2026-04-25T11:32:51.139Z</time></trkpt><trkpt lat="43.2263567" lon="10.8833817"><ele>485.33333333333337</ele><time>2026-04-25T11:32:52.129Z</time></trkpt><trkpt lat="43.2263183" lon="10.8836017"><ele>483.66666666666663</ele><time>2026-04-25T11:32:53.122Z</time></trkpt><trkpt lat="43.2262833" lon="10.88382"><ele>482.0</ele><time>2026-04-25T11:32:54.129Z</time></trkpt><trkpt lat="43.2262483" lon="10.88403"><ele>482.0</ele><time>2026-04-25T11:32:55.13Z</time></trkpt><trkpt lat="43.226215" lon="10.8842317"><ele>482.0</ele><time>2026-04-25T11:32:56.125Z</time></trkpt><trkpt lat="43.226185" lon="10.88443"><ele>482.0</ele><time>2026-04-25T11:32:57.115Z</time></trkpt><trkpt lat="43.226155" lon="10.8846217"><ele>482.0</ele><time>2026-04-25T11:32:58.118Z</time></trkpt><trkpt lat="43.226125" lon="10.8848083"><ele>481.75</ele><time>2026-04-25T11:32:59.133Z</time></trkpt><trkpt lat="43.2260917" lon="10.884995"><ele>481.5</ele><time>2026-04-25T11:33:00.124Z</time></trkpt><trkpt lat="43.2260617" lon="10.885185"><ele>481.25</ele><time>2026-04-25T11:33:01.126Z</time></trkpt><trkpt lat="43.2260283" lon="10.885375"><ele>481.0</ele><time>2026-04-25T11:33:02.125Z</time></trkpt><trkpt lat="43.2259917" lon="10.8855667"><ele>478.25</ele><time>2026-04-25T11:33:03.122Z</time></trkpt><trkpt lat="43.2259583" lon="10.8857567"><ele>475.5</ele><time>2026-04-25T11:33:04.133Z</time></trkpt><trkpt lat="43.22593" lon="10.8859433"><ele>472.75</ele><time>2026-04-25T11:33:05.128Z</time></trkpt><trkpt lat="43.2259" lon="10.8861217"><ele>470.0</ele><time>2026-04-25T11:33:06.122Z</time></trkpt><trkpt lat="43.2258717" lon="10.8862817"><ele>471.0</ele><time>2026-04-25T11:33:07.125Z</time></trkpt><trkpt lat="43.2258317" lon="10.886415"><ele>472.0</ele><time>2026-04-25T11:33:08.121Z</time></trkpt><trkpt lat="43.2257817" lon="10.8865317"><ele>473.0</ele><time>2026-04-25T11:33:09.127Z</time></trkpt><trkpt lat="43.2257133" lon="10.886625"><ele>474.0</ele><time>2026-04-25T11:33:10.121Z</time></trkpt><trkpt lat="43.2256217" lon="10.886705"><ele>475.0</ele><time>2026-04-25T11:33:11.123Z</time></trkpt><trkpt lat="43.2255083" lon="10.8867883"><ele>471.5</ele><time>2026-04-25T11:33:12.115Z</time></trkpt><trkpt lat="43.22538" lon="10.8868783"><ele>468.0</ele><time>2026-04-25T11:33:13.113Z</time></trkpt><trkpt lat="43.2252483" lon="10.8869717"><ele>464.5</ele><time>2026-04-25T11:33:14.117Z</time></trkpt><trkpt lat="43.2251217" lon="10.887065"><ele>461.0</ele><time>2026-04-25T11:33:15.118Z</time></trkpt><trkpt lat="43.2250017" lon="10.887155"><ele>461.0</ele><time>2026-04-25T11:33:16.126Z</time></trkpt><trkpt lat="43.22489" lon="10.8872383"><ele>461.0</ele><time>2026-04-25T11:33:17.123Z</time></trkpt><trkpt lat="43.224785" lon="10.88732"><ele>461.0</ele><time>2026-04-25T11:33:18.137Z</time></trkpt><trkpt lat="43.2246867" lon="10.887395"><ele>461.0</ele><time>2026-04-25T11:33:19.125Z</time></trkpt><trkpt lat="43.2245933" lon="10.8874617"><ele>461.49999999999994</ele><time>2026-04-25T11:33:20.121Z</time></trkpt><trkpt lat="43.22451" lon="10.8875217"><ele>462.0</ele><time>2026-04-25T11:33:21.116Z</time></trkpt><trkpt lat="43.2244317" lon="10.8875817"><ele>462.5</ele><time>2026-04-25T11:33:22.121Z</time></trkpt><trkpt lat="43.2243633" lon="10.8876433"><ele>463.0</ele><time>2026-04-25T11:33:23.124Z</time></trkpt><trkpt lat="43.2243083" lon="10.8877133"><ele>463.49999999999994</ele><time>2026-04-25T11:33:24.121Z</time></trkpt><trkpt lat="43.2242717" lon="10.8877917"><ele>464.0</ele><time>2026-04-25T11:33:25.134Z</time></trkpt><trkpt lat="43.224275" lon="10.887945"><ele>464.0</ele><time>2026-04-25T11:33:27.135Z</time></trkpt><trkpt lat="43.2243233" lon="10.888015"><ele>464.0</ele><time>2026-04-25T11:33:28.121Z</time></trkpt><trkpt lat="43.2244017" lon="10.8880983"><ele>464.0</ele><time>2026-04-25T11:33:29.119Z</time></trkpt><trkpt lat="43.2245083" lon="10.88821"><ele>464.0</ele><time>2026-04-25T11:33:30.123Z</time></trkpt><trkpt lat="43.2246417" lon="10.888335"><ele>466.75</ele><time>2026-04-25T11:33:31.126Z</time></trkpt><trkpt lat="43.2247717" lon="10.8884467"><ele>469.5</ele><time>2026-04-25T11:33:32.133Z</time></trkpt><trkpt lat="43.2248917" lon="10.8885417"><ele>472.25</ele><time>2026-04-25T11:33:33.122Z</time></trkpt><trkpt lat="43.2249933" lon="10.8886317"><ele>475.0</ele><time>2026-04-25T11:33:34.117Z</time></trkpt><trkpt lat="43.2250633" lon="10.8887133"><ele>475.0</ele><time>2026-04-25T11:33:35.123Z</time></trkpt><trkpt lat="43.2250967" lon="10.8887933"><ele>475.0</ele><time>2026-04-25T11:33:36.111Z</time></trkpt><trkpt lat="43.2250817" lon="10.88893"><ele>475.0</ele><time>2026-04-25T11:33:38.12Z</time></trkpt><trkpt lat="43.2249183" lon="10.8889067"><ele>475.0</ele><time>2026-04-25T11:33:40.12Z</time></trkpt><trkpt lat="43.2247783" lon="10.88881"><ele>476.6</ele><time>2026-04-25T11:33:41.123Z</time></trkpt><trkpt lat="43.22466" lon="10.8887283"><ele>478.2</ele><time>2026-04-25T11:33:42.122Z</time></trkpt><trkpt lat="43.22456" lon="10.8886717"><ele>479.79999999999995</ele><time>2026-04-25T11:33:43.13Z</time></trkpt><trkpt lat="43.2244783" lon="10.8886583"><ele>481.4</ele><time>2026-04-25T11:33:44.116Z</time></trkpt><trkpt lat="43.2244" lon="10.8886817"><ele>483.0</ele><time>2026-04-25T11:33:45.126Z</time></trkpt><trkpt lat="43.2243367" lon="10.8887467"><ele>483.0</ele><time>2026-04-25T11:33:46.116Z</time></trkpt><trkpt lat="43.2243167" lon="10.888835"><ele>482.99999999999994</ele><time>2026-04-25T11:33:47.124Z</time></trkpt><trkpt lat="43.2243517" lon="10.8889333"><ele>482.99999999999994</ele><time>2026-04-25T11:33:48.124Z</time></trkpt><trkpt lat="43.224445" lon="10.88903"><ele>483.0</ele><time>2026-04-25T11:33:49.124Z</time></trkpt><trkpt lat="43.224595" lon="10.8891217"><ele>483.0</ele><time>2026-04-25T11:33:50.122Z</time></trkpt><trkpt lat="43.22474" lon="10.88921"><ele>483.59999999999997</ele><time>2026-04-25T11:33:51.115Z</time></trkpt><trkpt lat="43.224855" lon="10.88929"><ele>484.19999999999993</ele><time>2026-04-25T11:33:52.117Z</time></trkpt><trkpt lat="43.2249283" lon="10.8893717"><ele>484.8</ele><time>2026-04-25T11:33:53.121Z</time></trkpt><trkpt lat="43.224975" lon="10.8894467"><ele>485.4</ele><time>2026-04-25T11:33:54.128Z</time></trkpt><trkpt lat="43.2249667" lon="10.8895767"><ele>486.0</ele><time>2026-04-25T11:33:56.127Z</time></trkpt><trkpt lat="43.2248833" lon="10.889575"><ele>488.0</ele><time>2026-04-25T11:33:57.119Z</time></trkpt><trkpt lat="43.2247217" lon="10.889505"><ele>490.0</ele><time>2026-04-25T11:33:58.117Z</time></trkpt><trkpt lat="43.2245183" lon="10.8894117"><ele>492.0</ele><time>2026-04-25T11:33:59.12Z</time></trkpt><trkpt lat="43.224345" lon="10.8893383"><ele>492.0</ele><time>2026-04-25T11:34:00.12Z</time></trkpt><trkpt lat="43.2242133" lon="10.8893"><ele>492.00000000000006</ele><time>2026-04-25T11:34:01.144Z</time></trkpt><trkpt lat="43.224105" lon="10.8893033"><ele>492.00000000000006</ele><time>2026-04-25T11:34:02.124Z</time></trkpt><trkpt lat="43.22401" lon="10.8893483"><ele>492.0</ele><time>2026-04-25T11:34:03.121Z</time></trkpt><trkpt lat="43.2239417" lon="10.88944"><ele>492.0</ele><time>2026-04-25T11:34:04.122Z</time></trkpt><trkpt lat="43.2239033" lon="10.8895633"><ele>492.0</ele><time>2026-04-25T11:34:05.128Z</time></trkpt><trkpt lat="43.2239033" lon="10.8897117"><ele>492.0</ele><time>2026-04-25T11:34:06.119Z</time></trkpt><trkpt lat="43.22395" lon="10.88989"><ele>492.0</ele><time>2026-04-25T11:34:07.123Z</time></trkpt><trkpt lat="43.2240333" lon="10.8900883"><ele>492.0</ele><time>2026-04-25T11:34:08.116Z</time></trkpt><trkpt lat="43.22416" lon="10.8903183"><ele>494.66666666666663</ele><time>2026-04-25T11:34:09.114Z</time></trkpt><trkpt lat="43.224295" lon="10.8905433"><ele>497.3333333333333</ele><time>2026-04-25T11:34:10.125Z</time></trkpt><trkpt lat="43.22441" lon="10.8907333"><ele>500.0</ele><time>2026-04-25T11:34:11.124Z</time></trkpt><trkpt lat="43.2245033" lon="10.890885"><ele>502.75</ele><time>2026-04-25T11:34:12.117Z</time></trkpt><trkpt lat="43.2245767" lon="10.8910317"><ele>505.5</ele><time>2026-04-25T11:34:13.122Z</time></trkpt><trkpt lat="43.224625" lon="10.8911833"><ele>508.25</ele><time>2026-04-25T11:34:14.123Z</time></trkpt><trkpt lat="43.2246533" lon="10.891335"><ele>511.0</ele><time>2026-04-25T11:34:15.122Z</time></trkpt><trkpt lat="43.224655" lon="10.891485"><ele>511.0</ele><time>2026-04-25T11:34:16.134Z</time></trkpt><trkpt lat="43.224625" lon="10.8916233"><ele>511.0</ele><time>2026-04-25T11:34:17.124Z</time></trkpt><trkpt lat="43.2245617" lon="10.8917383"><ele>511.0</ele><time>2026-04-25T11:34:18.126Z</time></trkpt><trkpt lat="43.2244667" lon="10.89182"><ele>511.0</ele><time>2026-04-25T11:34:19.128Z</time></trkpt><trkpt lat="43.2243483" lon="10.8918633"><ele>511.0</ele><time>2026-04-25T11:34:20.13Z</time></trkpt><trkpt lat="43.22423" lon="10.8918567"><ele>511.0</ele><time>2026-04-25T11:34:21.12Z</time></trkpt><trkpt lat="43.22412" lon="10.8918033"><ele>511.0</ele><time>2026-04-25T11:34:22.126Z</time></trkpt><trkpt lat="43.22401" lon="10.8917183"><ele>511.0</ele><time>2026-04-25T11:34:23.116Z</time></trkpt><trkpt lat="43.2238933" lon="10.8916183"><ele>511.0</ele><time>2026-04-25T11:34:24.122Z</time></trkpt><trkpt lat="43.2237717" lon="10.891515"><ele>514.0</ele><time>2026-04-25T11:34:25.119Z</time></trkpt><trkpt lat="43.2236417" lon="10.891415"><ele>517.0</ele><time>2026-04-25T11:34:26.123Z</time></trkpt><trkpt lat="43.2235083" lon="10.8913083"><ele>520.0</ele><time>2026-04-25T11:34:27.119Z</time></trkpt><trkpt lat="43.2233817" lon="10.8912067"><ele>520.0</ele><time>2026-04-25T11:34:28.122Z</time></trkpt><trkpt lat="43.223265" lon="10.8911133"><ele>520.0</ele><time>2026-04-25T11:34:29.138Z</time></trkpt><trkpt lat="43.2231517" lon="10.8910233"><ele>520.0</ele><time>2026-04-25T11:34:30.124Z</time></trkpt><trkpt lat="43.2230433" lon="10.8909383"><ele>520.0</ele><time>2026-04-25T11:34:31.116Z</time></trkpt><trkpt lat="43.2229383" lon="10.8908617"><ele>522.5</ele><time>2026-04-25T11:34:32.122Z</time></trkpt><trkpt lat="43.22283" lon="10.8907917"><ele>525.0</ele><time>2026-04-25T11:34:33.124Z</time></trkpt><trkpt lat="43.2227117" lon="10.8907417"><ele>527.5</ele><time>2026-04-25T11:34:34.124Z</time></trkpt><trkpt lat="43.2225933" lon="10.8907183"><ele>530.0</ele><time>2026-04-25T11:34:35.133Z</time></trkpt><trkpt lat="43.22247" lon="10.8907283"><ele>530.0</ele><time>2026-04-25T11:34:36.121Z</time></trkpt><trkpt lat="43.22235" lon="10.890775"><ele>530.0</ele><time>2026-04-25T11:34:37.12Z</time></trkpt><trkpt lat="43.2222317" lon="10.890845"><ele>530.0</ele><time>2026-04-25T11:34:38.112Z</time></trkpt><trkpt lat="43.22212" lon="10.890925"><ele>530.0</ele><time>2026-04-25T11:34:39.117Z</time></trkpt><trkpt lat="43.222005" lon="10.8909967"><ele>533.5</ele><time>2026-04-25T11:34:40.118Z</time></trkpt><trkpt lat="43.221885" lon="10.8910467"><ele>537.0</ele><time>2026-04-25T11:34:41.119Z</time></trkpt><trkpt lat="43.2217567" lon="10.89107"><ele>540.5</ele><time>2026-04-25T11:34:42.125Z</time></trkpt><trkpt lat="43.22163" lon="10.89106"><ele>544.0</ele><time>2026-04-25T11:34:43.123Z</time></trkpt><trkpt lat="43.2215033" lon="10.89102"><ele>544.25</ele><time>2026-04-25T11:34:44.129Z</time></trkpt><trkpt lat="43.2213717" lon="10.8909617"><ele>544.5</ele><time>2026-04-25T11:34:45.121Z</time></trkpt><trkpt lat="43.2212383" lon="10.8908983"><ele>544.75</ele><time>2026-04-25T11:34:46.121Z</time></trkpt><trkpt lat="43.2211" lon="10.89084"><ele>545.0</ele><time>2026-04-25T11:34:47.123Z</time></trkpt><trkpt lat="43.2209617" lon="10.890795"><ele>545.0</ele><time>2026-04-25T11:34:48.118Z</time></trkpt><trkpt lat="43.2208267" lon="10.8907783"><ele>545.0</ele><time>2026-04-25T11:34:49.121Z</time></trkpt><trkpt lat="43.2206983" lon="10.8907967"><ele>545.0</ele><time>2026-04-25T11:34:50.128Z</time></trkpt><trkpt lat="43.2205767" lon="10.89085"><ele>545.0</ele><time>2026-04-25T11:34:51.123Z</time></trkpt><trkpt lat="43.2204667" lon="10.8909367"><ele>548.5</ele><time>2026-04-25T11:34:52.133Z</time></trkpt><trkpt lat="43.2203683" lon="10.8910483"><ele>552.0</ele><time>2026-04-25T11:34:53.126Z</time></trkpt><trkpt lat="43.2202867" lon="10.891185"><ele>555.5</ele><time>2026-04-25T11:34:54.125Z</time></trkpt><trkpt lat="43.220225" lon="10.89134"><ele>559.0</ele><time>2026-04-25T11:34:55.133Z</time></trkpt><trkpt lat="43.2201883" lon="10.8915133"><ele>559.0</ele><time>2026-04-25T11:34:56.123Z</time></trkpt><trkpt lat="43.2201733" lon="10.8917033"><ele>559.0</ele><time>2026-04-25T11:34:57.133Z</time></trkpt><trkpt lat="43.220185" lon="10.8919083"><ele>559.0</ele><time>2026-04-25T11:34:58.122Z</time></trkpt><trkpt lat="43.2202133" lon="10.8921167"><ele>559.0</ele><time>2026-04-25T11:34:59.123Z</time></trkpt><trkpt lat="43.2202467" lon="10.8923233"><ele>562.0</ele><time>2026-04-25T11:35:00.125Z</time></trkpt><trkpt lat="43.2202767" lon="10.89254"><ele>565.0</ele><time>2026-04-25T11:35:01.113Z</time></trkpt><trkpt lat="43.22031" lon="10.8927617"><ele>568.0</ele><time>2026-04-25T11:35:02.114Z</time></trkpt><trkpt lat="43.2203467" lon="10.8929867"><ele>571.6666666666667</ele><time>2026-04-25T11:35:03.116Z</time></trkpt><trkpt lat="43.220385" lon="10.89322"><ele>575.3333333333334</ele><time>2026-04-25T11:35:04.121Z</time></trkpt><trkpt lat="43.22042" lon="10.893455"><ele>579.0</ele><time>2026-04-25T11:35:05.128Z</time></trkpt><trkpt lat="43.2204583" lon="10.8936917"><ele>582.3333333333334</ele><time>2026-04-25T11:35:06.129Z</time></trkpt><trkpt lat="43.220495" lon="10.8939267"><ele>585.6666666666667</ele><time>2026-04-25T11:35:07.125Z</time></trkpt><trkpt lat="43.22053" lon="10.8941517"><ele>589.0</ele><time>2026-04-25T11:35:08.116Z</time></trkpt><trkpt lat="43.2205633" lon="10.894365"><ele>590.0</ele><time>2026-04-25T11:35:09.124Z</time></trkpt><trkpt lat="43.2205917" lon="10.8945667"><ele>591.0</ele><time>2026-04-25T11:35:10.13Z</time></trkpt><trkpt lat="43.2206083" lon="10.894765"><ele>592.0</ele><time>2026-04-25T11:35:11.13Z</time></trkpt><trkpt lat="43.2206083" lon="10.8949583"><ele>593.0</ele><time>2026-04-25T11:35:12.139Z</time></trkpt><trkpt lat="43.2205933" lon="10.89515"><ele>593.75</ele><time>2026-04-25T11:35:13.126Z</time></trkpt><trkpt lat="43.220565" lon="10.8953417"><ele>594.5</ele><time>2026-04-25T11:35:14.122Z</time></trkpt><trkpt lat="43.2205233" lon="10.895525"><ele>595.25</ele><time>2026-04-25T11:35:15.124Z</time></trkpt><trkpt lat="43.2204667" lon="10.8956967"><ele>596.0</ele><time>2026-04-25T11:35:16.121Z</time></trkpt><trkpt lat="43.2203967" lon="10.8958583"><ele>598.25</ele><time>2026-04-25T11:35:17.124Z</time></trkpt><trkpt lat="43.220315" lon="10.8960117"><ele>600.5</ele><time>2026-04-25T11:35:18.119Z</time></trkpt><trkpt lat="43.2202233" lon="10.896155"><ele>602.75</ele><time>2026-04-25T11:35:19.124Z</time></trkpt><trkpt lat="43.2201167" lon="10.8962783"><ele>605.0</ele><time>2026-04-25T11:35:20.134Z</time></trkpt><trkpt lat="43.2199967" lon="10.8963917"><ele>605.0</ele><time>2026-04-25T11:35:21.12Z</time></trkpt><trkpt lat="43.219865" lon="10.8964983"><ele>605.0</ele><time>2026-04-25T11:35:22.133Z</time></trkpt><trkpt lat="43.2197267" lon="10.8965917"><ele>605.0</ele><time>2026-04-25T11:35:23.121Z</time></trkpt><trkpt lat="43.219585" lon="10.8966783"><ele>608.0</ele><time>2026-04-25T11:35:24.115Z</time></trkpt><trkpt lat="43.2194367" lon="10.8967683"><ele>611.0</ele><time>2026-04-25T11:35:25.122Z</time></trkpt><trkpt lat="43.2192867" lon="10.89686"><ele>614.0</ele><time>2026-04-25T11:35:26.125Z</time></trkpt><trkpt lat="43.2191383" lon="10.89695"><ele>614.0</ele><time>2026-04-25T11:35:27.136Z</time></trkpt><trkpt lat="43.218985" lon="10.8970367"><ele>614.0</ele><time>2026-04-25T11:35:28.119Z</time></trkpt><trkpt lat="43.21883" lon="10.8971183"><ele>614.0</ele><time>2026-04-25T11:35:29.127Z</time></trkpt><trkpt lat="43.218675" lon="10.8972017"><ele>613.0</ele><time>2026-04-25T11:35:30.122Z</time></trkpt><trkpt lat="43.2185183" lon="10.897285"><ele>612.0</ele><time>2026-04-25T11:35:31.119Z</time></trkpt><trkpt lat="43.2183583" lon="10.8973683"><ele>611.0</ele><time>2026-04-25T11:35:32.125Z</time></trkpt><trkpt lat="43.2181983" lon="10.89745"><ele>611.3333333333333</ele><time>2026-04-25T11:35:33.125Z</time></trkpt><trkpt lat="43.218035" lon="10.8975283"><ele>611.6666666666666</ele><time>2026-04-25T11:35:34.129Z</time></trkpt><trkpt lat="43.217875" lon="10.89761"><ele>612.0</ele><time>2026-04-25T11:35:35.128Z</time></trkpt><trkpt lat="43.217715" lon="10.8976867"><ele>612.0</ele><time>2026-04-25T11:35:36.131Z</time></trkpt><trkpt lat="43.2175517" lon="10.8977667"><ele>612.0</ele><time>2026-04-25T11:35:37.131Z</time></trkpt><trkpt lat="43.2173883" lon="10.8978467"><ele>612.0</ele><time>2026-04-25T11:35:38.132Z</time></trkpt><trkpt lat="43.2172267" lon="10.8979267"><ele>612.0</ele><time>2026-04-25T11:35:39.115Z</time></trkpt><trkpt lat="43.2170633" lon="10.89801"><ele>612.0</ele><time>2026-04-25T11:35:40.113Z</time></trkpt><trkpt lat="43.2169017" lon="10.8980917"><ele>612.0</ele><time>2026-04-25T11:35:41.131Z</time></trkpt><trkpt lat="43.2167467" lon="10.8981683"><ele>612.0</ele><time>2026-04-25T11:35:42.136Z</time></trkpt><trkpt lat="43.2165983" lon="10.898245"><ele>612.0</ele><time>2026-04-25T11:35:43.129Z</time></trkpt><trkpt lat="43.216455" lon="10.8983167"><ele>612.0</ele><time>2026-04-25T11:35:44.13Z</time></trkpt><trkpt lat="43.2163167" lon="10.898385"><ele>611.0</ele><time>2026-04-25T11:35:45.135Z</time></trkpt><trkpt lat="43.216185" lon="10.8984483"><ele>610.0</ele><time>2026-04-25T11:35:46.117Z</time></trkpt><trkpt lat="43.21606" lon="10.8985067"><ele>609.0</ele><time>2026-04-25T11:35:47.132Z</time></trkpt><trkpt lat="43.2159417" lon="10.8985583"><ele>608.0</ele><time>2026-04-25T11:35:48.125Z</time></trkpt><trkpt lat="43.2158283" lon="10.8986033"><ele>608.0</ele><time>2026-04-25T11:35:49.129Z</time></trkpt><trkpt lat="43.21573" lon="10.898645"><ele>608.0</ele><time>2026-04-25T11:35:50.125Z</time></trkpt><trkpt lat="43.2156483" lon="10.89868"><ele>608.0</ele><time>2026-04-25T11:35:51.127Z</time></trkpt><trkpt lat="43.21558" lon="10.8987033"><ele>608.0</ele><time>2026-04-25T11:35:52.136Z</time></trkpt><trkpt lat="43.215465" lon="10.8987167"><ele>608.0</ele><time>2026-04-25T11:35:54.114Z</time></trkpt><trkpt lat="43.2153617" lon="10.8986933"><ele>607.8333333333333</ele><time>2026-04-25T11:35:56.138Z</time></trkpt><trkpt lat="43.2152517" lon="10.89869"><ele>607.6666666666666</ele><time>2026-04-25T11:35:58.135Z</time></trkpt><trkpt lat="43.215165" lon="10.898785"><ele>607.5</ele><time>2026-04-25T11:36:00.122Z</time></trkpt><trkpt lat="43.21513" lon="10.8988583"><ele>607.3333333333334</ele><time>2026-04-25T11:36:01.124Z</time></trkpt><trkpt lat="43.21509" lon="10.8989367"><ele>607.1666666666667</ele><time>2026-04-25T11:36:02.124Z</time></trkpt><trkpt lat="43.2150417" lon="10.899"><ele>607.0</ele><time>2026-04-25T11:36:03.125Z</time></trkpt><trkpt lat="43.2149817" lon="10.8990467"><ele>607.0</ele><time>2026-04-25T11:36:04.127Z</time></trkpt><trkpt lat="43.2149067" lon="10.8990833"><ele>607.0</ele><time>2026-04-25T11:36:05.124Z</time></trkpt><trkpt lat="43.21481" lon="10.8991233"><ele>607.0</ele><time>2026-04-25T11:36:06.121Z</time></trkpt><trkpt lat="43.2146933" lon="10.8991733"><ele>607.0</ele><time>2026-04-25T11:36:07.116Z</time></trkpt><trkpt lat="43.2145683" lon="10.89923"><ele>607.0</ele><time>2026-04-25T11:36:08.143Z</time></trkpt><trkpt lat="43.2144433" lon="10.899295"><ele>604.0</ele><time>2026-04-25T11:36:09.126Z</time></trkpt><trkpt lat="43.2143217" lon="10.8993633"><ele>601.0</ele><time>2026-04-25T11:36:10.126Z</time></trkpt><trkpt lat="43.2142067" lon="10.8994367"><ele>598.0</ele><time>2026-04-25T11:36:11.124Z</time></trkpt><trkpt lat="43.2140933" lon="10.8995083"><ele>595.0</ele><time>2026-04-25T11:36:12.123Z</time></trkpt><trkpt lat="43.2139833" lon="10.89957"><ele>594.75</ele><time>2026-04-25T11:36:13.132Z</time></trkpt><trkpt lat="43.2138733" lon="10.8996167"><ele>594.5</ele><time>2026-04-25T11:36:14.12Z</time></trkpt><trkpt lat="43.2137633" lon="10.8996483"><ele>594.25</ele><time>2026-04-25T11:36:15.127Z</time></trkpt><trkpt lat="43.21365" lon="10.8996683"><ele>594.0</ele><time>2026-04-25T11:36:16.126Z</time></trkpt><trkpt lat="43.2135333" lon="10.899675"><ele>594.0</ele><time>2026-04-25T11:36:17.119Z</time></trkpt><trkpt lat="43.2134117" lon="10.89967"><ele>594.0</ele><time>2026-04-25T11:36:18.124Z</time></trkpt><trkpt lat="43.21329" lon="10.8996617"><ele>594.0</ele><time>2026-04-25T11:36:19.115Z</time></trkpt><trkpt lat="43.2131667" lon="10.89965"><ele>594.0</ele><time>2026-04-25T11:36:20.118Z</time></trkpt><trkpt lat="43.2130467" lon="10.8996317"><ele>592.6</ele><time>2026-04-25T11:36:21.111Z</time></trkpt><trkpt lat="43.21293" lon="10.8996083"><ele>591.2</ele><time>2026-04-25T11:36:22.117Z</time></trkpt><trkpt lat="43.2128217" lon="10.8995717"><ele>589.8000000000001</ele><time>2026-04-25T11:36:23.122Z</time></trkpt><trkpt lat="43.2127167" lon="10.8995267"><ele>588.4</ele><time>2026-04-25T11:36:24.124Z</time></trkpt><trkpt lat="43.2126133" lon="10.8994783"><ele>587.0</ele><time>2026-04-25T11:36:25.129Z</time></trkpt><trkpt lat="43.212505" lon="10.8994467"><ele>587.0</ele><time>2026-04-25T11:36:26.123Z</time></trkpt><trkpt lat="43.2123917" lon="10.899425"><ele>587.0</ele><time>2026-04-25T11:36:27.13Z</time></trkpt><trkpt lat="43.2122733" lon="10.8994133"><ele>587.0</ele><time>2026-04-25T11:36:28.118Z</time></trkpt><trkpt lat="43.212155" lon="10.8994167"><ele>587.0</ele><time>2026-04-25T11:36:29.12Z</time></trkpt><trkpt lat="43.212035" lon="10.8994333"><ele>586.0</ele><time>2026-04-25T11:36:30.129Z</time></trkpt><trkpt lat="43.211915" lon="10.8994583"><ele>585.0</ele><time>2026-04-25T11:36:31.129Z</time></trkpt><trkpt lat="43.2117967" lon="10.8994933"><ele>584.0</ele><time>2026-04-25T11:36:32.13Z</time></trkpt><trkpt lat="43.21168" lon="10.89953"><ele>583.0</ele><time>2026-04-25T11:36:33.124Z</time></trkpt><trkpt lat="43.2115683" lon="10.8995733"><ele>583.25</ele><time>2026-04-25T11:36:34.124Z</time></trkpt><trkpt lat="43.21146" lon="10.8996267"><ele>583.5</ele><time>2026-04-25T11:36:35.126Z</time></trkpt><trkpt lat="43.2113533" lon="10.8996867"><ele>583.75</ele><time>2026-04-25T11:36:36.126Z</time></trkpt><trkpt lat="43.2112517" lon="10.8997533"><ele>584.0</ele><time>2026-04-25T11:36:37.117Z</time></trkpt><trkpt lat="43.2111533" lon="10.899825"><ele>584.0</ele><time>2026-04-25T11:36:38.117Z</time></trkpt><trkpt lat="43.2110567" lon="10.8998917"><ele>584.0</ele><time>2026-04-25T11:36:39.115Z</time></trkpt><trkpt lat="43.21096" lon="10.89996"><ele>584.0</ele><time>2026-04-25T11:36:40.124Z</time></trkpt><trkpt lat="43.21087" lon="10.9000267"><ele>584.0</ele><time>2026-04-25T11:36:41.125Z</time></trkpt><trkpt lat="43.2107867" lon="10.9000867"><ele>584.0</ele><time>2026-04-25T11:36:42.124Z</time></trkpt><trkpt lat="43.2107117" lon="10.9001483"><ele>584.8333333333333</ele><time>2026-04-25T11:36:43.129Z</time></trkpt><trkpt lat="43.21064" lon="10.9002233"><ele>585.6666666666666</ele><time>2026-04-25T11:36:44.126Z</time></trkpt><trkpt lat="43.2105733" lon="10.9003017"><ele>586.5</ele><time>2026-04-25T11:36:45.118Z</time></trkpt><trkpt lat="43.210515" lon="10.9003883"><ele>587.3333333333334</ele><time>2026-04-25T11:36:46.127Z</time></trkpt><trkpt lat="43.2104733" lon="10.9004917"><ele>588.1666666666667</ele><time>2026-04-25T11:36:47.123Z</time></trkpt><trkpt lat="43.2104517" lon="10.90061"><ele>589.0</ele><time>2026-04-25T11:36:48.122Z</time></trkpt><trkpt lat="43.2104367" lon="10.90073"><ele>589.0</ele><time>2026-04-25T11:36:49.123Z</time></trkpt><trkpt lat="43.2104267" lon="10.9008517"><ele>589.0</ele><time>2026-04-25T11:36:50.122Z</time></trkpt><trkpt lat="43.2104183" lon="10.90098"><ele>589.0</ele><time>2026-04-25T11:36:51.127Z</time></trkpt><trkpt lat="43.2104083" lon="10.90111"><ele>589.0</ele><time>2026-04-25T11:36:52.113Z</time></trkpt><trkpt lat="43.2104" lon="10.9012433"><ele>589.0</ele><time>2026-04-25T11:36:53.128Z</time></trkpt><trkpt lat="43.2103933" lon="10.90138"><ele>588.4</ele><time>2026-04-25T11:36:54.11Z</time></trkpt><trkpt lat="43.210385" lon="10.9015183"><ele>587.8</ele><time>2026-04-25T11:36:55.128Z</time></trkpt><trkpt lat="43.2103767" lon="10.9016567"><ele>587.2</ele><time>2026-04-25T11:36:56.12Z</time></trkpt><trkpt lat="43.2103683" lon="10.9017917"><ele>586.6</ele><time>2026-04-25T11:36:57.124Z</time></trkpt><trkpt lat="43.2103567" lon="10.9019283"><ele>586.0</ele><time>2026-04-25T11:36:58.125Z</time></trkpt><trkpt lat="43.2103433" lon="10.902065"><ele>584.4</ele><time>2026-04-25T11:36:59.128Z</time></trkpt><trkpt lat="43.2103283" lon="10.9021983"><ele>582.8</ele><time>2026-04-25T11:37:00.129Z</time></trkpt><trkpt lat="43.210305" lon="10.9023267"><ele>581.1999999999999</ele><time>2026-04-25T11:37:01.131Z</time></trkpt><trkpt lat="43.2102817" lon="10.9024533"><ele>579.6</ele><time>2026-04-25T11:37:02.129Z</time></trkpt><trkpt lat="43.21026" lon="10.9025783"><ele>578.0</ele><time>2026-04-25T11:37:03.142Z</time></trkpt><trkpt lat="43.2102317" lon="10.9026983"><ele>576.8333333333333</ele><time>2026-04-25T11:37:04.132Z</time></trkpt><trkpt lat="43.21019" lon="10.90281"><ele>575.6666666666666</ele><time>2026-04-25T11:37:05.123Z</time></trkpt><trkpt lat="43.2101433" lon="10.902915"><ele>574.5</ele><time>2026-04-25T11:37:06.135Z</time></trkpt><trkpt lat="43.210085" lon="10.9030083"><ele>573.3333333333334</ele><time>2026-04-25T11:37:07.128Z</time></trkpt><trkpt lat="43.2100183" lon="10.9030883"><ele>572.1666666666667</ele><time>2026-04-25T11:37:08.126Z</time></trkpt><trkpt lat="43.2099467" lon="10.9031583"><ele>571.0</ele><time>2026-04-25T11:37:09.128Z</time></trkpt><trkpt lat="43.2098783" lon="10.903225"><ele>573.6666666666667</ele><time>2026-04-25T11:37:10.117Z</time></trkpt><trkpt lat="43.2098083" lon="10.9032833"><ele>576.3333333333334</ele><time>2026-04-25T11:37:11.121Z</time></trkpt><trkpt lat="43.20974" lon="10.9033383"><ele>579.0</ele><time>2026-04-25T11:37:12.125Z</time></trkpt><trkpt lat="43.2096767" lon="10.9034033"><ele>581.6666666666666</ele><time>2026-04-25T11:37:13.134Z</time></trkpt><trkpt lat="43.2096167" lon="10.903475"><ele>584.3333333333333</ele><time>2026-04-25T11:37:14.125Z</time></trkpt><trkpt lat="43.2095617" lon="10.9035517"><ele>587.0</ele><time>2026-04-25T11:37:15.129Z</time></trkpt><trkpt lat="43.20951" lon="10.903635"><ele>587.4285714285714</ele><time>2026-04-25T11:37:16.133Z</time></trkpt><trkpt lat="43.2094633" lon="10.9037233"><ele>587.8571428571429</ele><time>2026-04-25T11:37:17.13Z</time></trkpt><trkpt lat="43.20943" lon="10.9038117"><ele>588.2857142857143</ele><time>2026-04-25T11:37:18.128Z</time></trkpt><trkpt lat="43.2094067" lon="10.9039033"><ele>588.7142857142858</ele><time>2026-04-25T11:37:19.122Z</time></trkpt><trkpt lat="43.209395" lon="10.9040033"><ele>589.1428571428571</ele><time>2026-04-25T11:37:20.127Z</time></trkpt><trkpt lat="43.209395" lon="10.9041033"><ele>589.5714285714287</ele><time>2026-04-25T11:37:21.126Z</time></trkpt><trkpt lat="43.2094067" lon="10.9042083"><ele>590.0</ele><time>2026-04-25T11:37:22.128Z</time></trkpt><trkpt lat="43.209425" lon="10.9043133"><ele>588.3333333333333</ele><time>2026-04-25T11:37:23.137Z</time></trkpt><trkpt lat="43.209455" lon="10.90441"><ele>586.6666666666666</ele><time>2026-04-25T11:37:24.129Z</time></trkpt><trkpt lat="43.20949" lon="10.9044983"><ele>585.0</ele><time>2026-04-25T11:37:25.125Z</time></trkpt><trkpt lat="43.20952" lon="10.9045817"><ele>583.3333333333334</ele><time>2026-04-25T11:37:26.142Z</time></trkpt><trkpt lat="43.209585" lon="10.9046817"><ele>581.6666666666667</ele><time>2026-04-25T11:37:28.128Z</time></trkpt><trkpt lat="43.20967" lon="10.9046667"><ele>580.0</ele><time>2026-04-25T11:37:30.126Z</time></trkpt><trkpt lat="43.2097617" lon="10.9046117"><ele>575.6</ele><time>2026-04-25T11:37:32.118Z</time></trkpt><trkpt lat="43.20987" lon="10.9045667"><ele>571.2</ele><time>2026-04-25T11:37:34.115Z</time></trkpt><trkpt lat="43.2099783" lon="10.904555"><ele>566.8</ele><time>2026-04-25T11:37:36.127Z</time></trkpt><trkpt lat="43.2100783" lon="10.9045733"><ele>562.4</ele><time>2026-04-25T11:37:38.126Z</time></trkpt><trkpt lat="43.2101683" lon="10.9045917"><ele>558.0</ele><time>2026-04-25T11:37:40.121Z</time></trkpt><trkpt lat="43.2102317" lon="10.9045633"><ele>558.0</ele><time>2026-04-25T11:37:42.12Z</time></trkpt><trkpt lat="43.210265" lon="10.9044517"><ele>558.0</ele><time>2026-04-25T11:37:45.122Z</time></trkpt><trkpt lat="43.2102617" lon="10.9043433"><ele>558.0</ele><time>2026-04-25T11:37:48.123Z</time></trkpt><trkpt lat="43.210245" lon="10.9042467"><ele>558.0</ele><time>2026-04-25T11:37:52.118Z</time></trkpt></trkseg><trkseg><trkpt lat="43.2102383" lon="10.9042733"><ele>558.0</ele><time>2026-04-25T12:43:08.122Z</time></trkpt><trkpt lat="43.2101967" lon="10.9043467"><ele>558.0</ele><time>2026-04-25T12:43:10.13Z</time></trkpt><trkpt lat="43.2101283" lon="10.9044167"><ele>558.0</ele><time>2026-04-25T12:43:12.134Z</time></trkpt><trkpt lat="43.2100467" lon="10.9044467"><ele>558.0</ele><time>2026-04-25T12:43:36.121Z</time></trkpt><trkpt lat="43.2099417" lon="10.9044717"><ele>558.0</ele><time>2026-04-25T12:43:38.12Z</time></trkpt><trkpt lat="43.209875" lon="10.9044833"><ele>558.0</ele><time>2026-04-25T12:43:39.146Z</time></trkpt><trkpt lat="43.2098117" lon="10.904495"><ele>562.4</ele><time>2026-04-25T12:43:40.135Z</time></trkpt><trkpt lat="43.2096983" lon="10.90452"><ele>566.8</ele><time>2026-04-25T12:43:42.127Z</time></trkpt><trkpt lat="43.2096133" lon="10.9045117"><ele>571.2</ele><time>2026-04-25T12:43:44.123Z</time></trkpt><trkpt lat="43.209535" lon="10.9044617"><ele>575.6</ele><time>2026-04-25T12:43:47.141Z</time></trkpt><trkpt lat="43.2094867" lon="10.904355"><ele>580.0</ele><time>2026-04-25T12:43:49.127Z</time></trkpt><trkpt lat="43.20947" lon="10.9042517"><ele>581.6666666666667</ele><time>2026-04-25T12:43:50.123Z</time></trkpt><trkpt lat="43.2094633" lon="10.9041233"><ele>583.3333333333334</ele><time>2026-04-25T12:43:51.118Z</time></trkpt><trkpt lat="43.209465" lon="10.904"><ele>585.0</ele><time>2026-04-25T12:43:52.12Z</time></trkpt><trkpt lat="43.2094733" lon="10.9038833"><ele>586.6666666666666</ele><time>2026-04-25T12:43:53.118Z</time></trkpt><trkpt lat="43.2094933" lon="10.9037717"><ele>588.3333333333333</ele><time>2026-04-25T12:43:54.13Z</time></trkpt><trkpt lat="43.2095267" lon="10.9036683"><ele>590.0</ele><time>2026-04-25T12:43:55.126Z</time></trkpt><trkpt lat="43.209575" lon="10.9035733"><ele>590.0</ele><time>2026-04-25T12:43:56.131Z</time></trkpt><trkpt lat="43.2096283" lon="10.90349"><ele>590.0</ele><time>2026-04-25T12:43:57.123Z</time></trkpt><trkpt lat="43.2096883" lon="10.903415"><ele>590.0</ele><time>2026-04-25T12:43:58.129Z</time></trkpt><trkpt lat="43.2097483" lon="10.903345"><ele>590.0</ele><time>2026-04-25T12:43:59.127Z</time></trkpt><trkpt lat="43.20982" lon="10.9032783"><ele>590.0</ele><time>2026-04-25T12:44:00.119Z</time></trkpt><trkpt lat="43.2098967" lon="10.9032133"><ele>590.0</ele><time>2026-04-25T12:44:01.124Z</time></trkpt><trkpt lat="43.2099683" lon="10.90315"><ele>586.8333333333333</ele><time>2026-04-25T12:44:02.126Z</time></trkpt><trkpt lat="43.21004" lon="10.90309"><ele>583.6666666666666</ele><time>2026-04-25T12:44:03.12Z</time></trkpt><trkpt lat="43.21011" lon="10.9030233"><ele>580.5</ele><time>2026-04-25T12:44:04.128Z</time></trkpt><trkpt lat="43.2101783" lon="10.9029433"><ele>577.3333333333334</ele><time>2026-04-25T12:44:05.125Z</time></trkpt><trkpt lat="43.2102383" lon="10.90285"><ele>574.1666666666667</ele><time>2026-04-25T12:44:06.128Z</time></trkpt><trkpt lat="43.2102867" lon="10.9027433"><ele>571.0</ele><time>2026-04-25T12:44:07.133Z</time></trkpt><trkpt lat="43.2103267" lon="10.902625"><ele>572.4</ele><time>2026-04-25T12:44:08.124Z</time></trkpt><trkpt lat="43.2103567" lon="10.9024867"><ele>573.8</ele><time>2026-04-25T12:44:09.132Z</time></trkpt><trkpt lat="43.2103833" lon="10.9023433"><ele>575.1999999999999</ele><time>2026-04-25T12:44:10.125Z</time></trkpt><trkpt lat="43.2104" lon="10.9021917"><ele>576.6</ele><time>2026-04-25T12:44:11.125Z</time></trkpt><trkpt lat="43.2104233" lon="10.902045"><ele>578.0</ele><time>2026-04-25T12:44:12.128Z</time></trkpt><trkpt lat="43.2104383" lon="10.9018933"><ele>580.0</ele><time>2026-04-25T12:44:13.123Z</time></trkpt><trkpt lat="43.21045" lon="10.90174"><ele>582.0</ele><time>2026-04-25T12:44:14.13Z</time></trkpt><trkpt lat="43.2104583" lon="10.9015917"><ele>584.0</ele><time>2026-04-25T12:44:15.123Z</time></trkpt><trkpt lat="43.2104683" lon="10.901435"><ele>586.0</ele><time>2026-04-25T12:44:16.122Z</time></trkpt><trkpt lat="43.210475" lon="10.901265"><ele>586.0</ele><time>2026-04-25T12:44:17.123Z</time></trkpt><trkpt lat="43.2104867" lon="10.9011"><ele>586.0</ele><time>2026-04-25T12:44:18.124Z</time></trkpt><trkpt lat="43.2104983" lon="10.9009467"><ele>586.0</ele><time>2026-04-25T12:44:19.134Z</time></trkpt><trkpt lat="43.210505" lon="10.9007933"><ele>586.0</ele><time>2026-04-25T12:44:20.122Z</time></trkpt><trkpt lat="43.21052" lon="10.9006483"><ele>586.5</ele><time>2026-04-25T12:44:21.124Z</time></trkpt><trkpt lat="43.2105483" lon="10.90051"><ele>587.0</ele><time>2026-04-25T12:44:22.124Z</time></trkpt><trkpt lat="43.2105883" lon="10.9003883"><ele>587.5</ele><time>2026-04-25T12:44:23.122Z</time></trkpt><trkpt lat="43.2106383" lon="10.9002867"><ele>588.0</ele><time>2026-04-25T12:44:24.129Z</time></trkpt><trkpt lat="43.2106967" lon="10.900215"><ele>588.5</ele><time>2026-04-25T12:44:25.127Z</time></trkpt><trkpt lat="43.2107567" lon="10.9001583"><ele>589.0</ele><time>2026-04-25T12:44:26.124Z</time></trkpt><trkpt lat="43.21082" lon="10.900105"><ele>588.1666666666667</ele><time>2026-04-25T12:44:27.121Z</time></trkpt><trkpt lat="43.2108867" lon="10.9000483"><ele>587.3333333333334</ele><time>2026-04-25T12:44:28.134Z</time></trkpt><trkpt lat="43.21096" lon="10.8999867"><ele>586.5</ele><time>2026-04-25T12:44:29.126Z</time></trkpt><trkpt lat="43.2110367" lon="10.899925"><ele>585.6666666666666</ele><time>2026-04-25T12:44:30.132Z</time></trkpt><trkpt lat="43.211115" lon="10.89987"><ele>584.8333333333333</ele><time>2026-04-25T12:44:31.13Z</time></trkpt><trkpt lat="43.211195" lon="10.8998183"><ele>584.0</ele><time>2026-04-25T12:44:32.122Z</time></trkpt><trkpt lat="43.21127" lon="10.89977"><ele>584.0</ele><time>2026-04-25T12:44:33.138Z</time></trkpt><trkpt lat="43.211335" lon="10.8997283"><ele>584.0</ele><time>2026-04-25T12:44:34.13Z</time></trkpt><trkpt lat="43.2114" lon="10.899685"><ele>584.0</ele><time>2026-04-25T12:44:35.134Z</time></trkpt><trkpt lat="43.2114733" lon="10.8996417"><ele>584.0</ele><time>2026-04-25T12:44:36.143Z</time></trkpt><trkpt lat="43.2115517" lon="10.8995983"><ele>584.0</ele><time>2026-04-25T12:44:37.129Z</time></trkpt><trkpt lat="43.2116267" lon="10.8995617"><ele>584.0</ele><time>2026-04-25T12:44:38.137Z</time></trkpt><trkpt lat="43.2117117" lon="10.8995383"><ele>583.8333333333333</ele><time>2026-04-25T12:44:39.131Z</time></trkpt><trkpt lat="43.2118" lon="10.89952"><ele>583.6666666666666</ele><time>2026-04-25T12:44:40.134Z</time></trkpt><trkpt lat="43.21189" lon="10.8995017"><ele>583.5</ele><time>2026-04-25T12:44:41.123Z</time></trkpt><trkpt lat="43.211975" lon="10.899485"><ele>583.3333333333334</ele><time>2026-04-25T12:44:42.128Z</time></trkpt><trkpt lat="43.21206" lon="10.89947"><ele>583.1666666666667</ele><time>2026-04-25T12:44:43.126Z</time></trkpt><trkpt lat="43.21214" lon="10.8994583"><ele>583.0</ele><time>2026-04-25T12:44:44.135Z</time></trkpt><trkpt lat="43.2122167" lon="10.8994517"><ele>583.0</ele><time>2026-04-25T12:44:45.129Z</time></trkpt><trkpt lat="43.2123017" lon="10.89945"><ele>583.0</ele><time>2026-04-25T12:44:46.135Z</time></trkpt><trkpt lat="43.212385" lon="10.8994517"><ele>583.0</ele><time>2026-04-25T12:44:47.123Z</time></trkpt><trkpt lat="43.2124683" lon="10.89946"><ele>583.0</ele><time>2026-04-25T12:44:48.13Z</time></trkpt><trkpt lat="43.2125567" lon="10.8994817"><ele>583.0</ele><time>2026-04-25T12:44:49.129Z</time></trkpt><trkpt lat="43.2126467" lon="10.8995183"><ele>583.0</ele><time>2026-04-25T12:44:50.134Z</time></trkpt><trkpt lat="43.21274" lon="10.8995633"><ele>583.8</ele><time>2026-04-25T12:44:51.133Z</time></trkpt><trkpt lat="43.2128367" lon="10.8996067"><ele>584.5999999999999</ele><time>2026-04-25T12:44:52.127Z</time></trkpt><trkpt lat="43.2129367" lon="10.89964"><ele>585.4000000000001</ele><time>2026-04-25T12:44:53.132Z</time></trkpt><trkpt lat="43.213045" lon="10.8996633"><ele>586.2</ele><time>2026-04-25T12:44:54.131Z</time></trkpt><trkpt lat="43.2131567" lon="10.8996783"><ele>587.0</ele><time>2026-04-25T12:44:55.13Z</time></trkpt><trkpt lat="43.2132733" lon="10.8996883"><ele>589.3333333333333</ele><time>2026-04-25T12:44:56.131Z</time></trkpt><trkpt lat="43.2135033" lon="10.8997033"><ele>591.6666666666666</ele><time>2026-04-25T12:44:58.118Z</time></trkpt><trkpt lat="43.21362" lon="10.8997017"><ele>594.0</ele><time>2026-04-25T12:44:59.117Z</time></trkpt><trkpt lat="43.213735" lon="10.8996917"><ele>594.0</ele><time>2026-04-25T12:45:00.13Z</time></trkpt><trkpt lat="43.21385" lon="10.8996667"><ele>594.0</ele><time>2026-04-25T12:45:01.123Z</time></trkpt><trkpt lat="43.21397" lon="10.899625"><ele>594.0</ele><time>2026-04-25T12:45:02.127Z</time></trkpt><trkpt lat="43.2140833" lon="10.8995633"><ele>594.0</ele><time>2026-04-25T12:45:03.134Z</time></trkpt><trkpt lat="43.21419" lon="10.89949"><ele>594.25</ele><time>2026-04-25T12:45:04.131Z</time></trkpt><trkpt lat="43.2142967" lon="10.8994167"><ele>594.5</ele><time>2026-04-25T12:45:05.122Z</time></trkpt><trkpt lat="43.2144017" lon="10.89935"><ele>594.75</ele><time>2026-04-25T12:45:06.122Z</time></trkpt><trkpt lat="43.2145117" lon="10.89929"><ele>595.0</ele><time>2026-04-25T12:45:07.136Z</time></trkpt><trkpt lat="43.214625" lon="10.89924"><ele>597.2</ele><time>2026-04-25T12:45:08.13Z</time></trkpt><trkpt lat="43.2147383" lon="10.8991917"><ele>599.4</ele><time>2026-04-25T12:45:09.13Z</time></trkpt><trkpt lat="43.214845" lon="10.89916"><ele>601.6</ele><time>2026-04-25T12:45:10.136Z</time></trkpt><trkpt lat="43.2149483" lon="10.8991383"><ele>603.8</ele><time>2026-04-25T12:45:11.125Z</time></trkpt><trkpt lat="43.2150467" lon="10.8991183"><ele>606.0</ele><time>2026-04-25T12:45:12.132Z</time></trkpt><trkpt lat="43.2151367" lon="10.89911"><ele>606.2</ele><time>2026-04-25T12:45:13.145Z</time></trkpt><trkpt lat="43.215225" lon="10.8990967"><ele>606.4000000000001</ele><time>2026-04-25T12:45:14.136Z</time></trkpt><trkpt lat="43.21532" lon="10.899065"><ele>606.6</ele><time>2026-04-25T12:45:15.132Z</time></trkpt><trkpt lat="43.2154133" lon="10.898995"><ele>606.8000000000001</ele><time>2026-04-25T12:45:16.127Z</time></trkpt><trkpt lat="43.215505" lon="10.8988933"><ele>607.0</ele><time>2026-04-25T12:45:17.131Z</time></trkpt><trkpt lat="43.215605" lon="10.898785"><ele>607.25</ele><time>2026-04-25T12:45:18.123Z</time></trkpt><trkpt lat="43.2157267" lon="10.8986933"><ele>607.5</ele><time>2026-04-25T12:45:19.145Z</time></trkpt><trkpt lat="43.21586" lon="10.8986167"><ele>607.75</ele><time>2026-04-25T12:45:20.141Z</time></trkpt><trkpt lat="43.2160033" lon="10.898545"><ele>608.0</ele><time>2026-04-25T12:45:21.136Z</time></trkpt><trkpt lat="43.216155" lon="10.8984717"><ele>608.6666666666666</ele><time>2026-04-25T12:45:22.133Z</time></trkpt><trkpt lat="43.2163133" lon="10.8983983"><ele>609.3333333333334</ele><time>2026-04-25T12:45:23.134Z</time></trkpt><trkpt lat="43.2164767" lon="10.898325"><ele>610.0</ele><time>2026-04-25T12:45:24.129Z</time></trkpt><trkpt lat="43.2166367" lon="10.89825"><ele>610.6666666666667</ele><time>2026-04-25T12:45:25.124Z</time></trkpt><trkpt lat="43.2167967" lon="10.89817"><ele>611.3333333333334</ele><time>2026-04-25T12:45:26.122Z</time></trkpt><trkpt lat="43.2169533" lon="10.89809"><ele>612.0</ele><time>2026-04-25T12:45:27.133Z</time></trkpt><trkpt lat="43.2171117" lon="10.8980067"><ele>612.0</ele><time>2026-04-25T12:45:28.125Z</time></trkpt><trkpt lat="43.2172717" lon="10.8979233"><ele>612.0</ele><time>2026-04-25T12:45:29.128Z</time></trkpt><trkpt lat="43.2174333" lon="10.897845"><ele>612.0</ele><time>2026-04-25T12:45:30.134Z</time></trkpt><trkpt lat="43.2175983" lon="10.8977633"><ele>612.0</ele><time>2026-04-25T12:45:31.132Z</time></trkpt><trkpt lat="43.21777" lon="10.89768"><ele>612.0</ele><time>2026-04-25T12:45:32.133Z</time></trkpt><trkpt lat="43.217945" lon="10.8975933"><ele>612.0</ele><time>2026-04-25T12:45:33.134Z</time></trkpt><trkpt lat="43.218125" lon="10.8975017"><ele>611.6666666666666</ele><time>2026-04-25T12:45:34.126Z</time></trkpt><trkpt lat="43.2183117" lon="10.89741"><ele>611.3333333333333</ele><time>2026-04-25T12:45:35.131Z</time></trkpt><trkpt lat="43.2185067" lon="10.8973167"><ele>611.0</ele><time>2026-04-25T12:45:36.135Z</time></trkpt><trkpt lat="43.2187033" lon="10.897225"><ele>611.0</ele><time>2026-04-25T12:45:37.143Z</time></trkpt><trkpt lat="43.21889" lon="10.89713"><ele>611.0</ele><time>2026-04-25T12:45:38.131Z</time></trkpt><trkpt lat="43.219065" lon="10.8970383"><ele>611.0</ele><time>2026-04-25T12:45:39.122Z</time></trkpt><trkpt lat="43.219235" lon="10.896945"><ele>612.0</ele><time>2026-04-25T12:45:40.133Z</time></trkpt><trkpt lat="43.219395" lon="10.89685"><ele>613.0</ele><time>2026-04-25T12:45:41.123Z</time></trkpt><trkpt lat="43.2195517" lon="10.896755"><ele>614.0</ele><time>2026-04-25T12:45:42.124Z</time></trkpt><trkpt lat="43.2196983" lon="10.8966633"><ele>611.0</ele><time>2026-04-25T12:45:43.136Z</time></trkpt><trkpt lat="43.21984" lon="10.89657"><ele>608.0</ele><time>2026-04-25T12:45:44.136Z</time></trkpt><trkpt lat="43.219975" lon="10.896475"><ele>605.0</ele><time>2026-04-25T12:45:45.124Z</time></trkpt><trkpt lat="43.2200967" lon="10.8963717"><ele>605.0</ele><time>2026-04-25T12:45:46.129Z</time></trkpt><trkpt lat="43.22021" lon="10.8962483"><ele>605.0</ele><time>2026-04-25T12:45:47.126Z</time></trkpt><trkpt lat="43.2203133" lon="10.8960983"><ele>605.0</ele><time>2026-04-25T12:45:48.132Z</time></trkpt><trkpt lat="43.2204067" lon="10.8959283"><ele>602.0</ele><time>2026-04-25T12:45:49.126Z</time></trkpt><trkpt lat="43.2204867" lon="10.895745"><ele>599.0</ele><time>2026-04-25T12:45:50.132Z</time></trkpt><trkpt lat="43.2205517" lon="10.89555"><ele>596.0</ele><time>2026-04-25T12:45:51.125Z</time></trkpt><trkpt lat="43.2205983" lon="10.8953467"><ele>596.0</ele><time>2026-04-25T12:45:52.133Z</time></trkpt><trkpt lat="43.2206283" lon="10.895135"><ele>596.0</ele><time>2026-04-25T12:45:53.125Z</time></trkpt><trkpt lat="43.2206383" lon="10.8949133"><ele>596.0</ele><time>2026-04-25T12:45:54.138Z</time></trkpt><trkpt lat="43.2206283" lon="10.8946733"><ele>595.0</ele><time>2026-04-25T12:45:55.125Z</time></trkpt><trkpt lat="43.2205983" lon="10.8944183"><ele>594.0</ele><time>2026-04-25T12:45:56.119Z</time></trkpt><trkpt lat="43.22056" lon="10.8941517"><ele>593.0</ele><time>2026-04-25T12:45:57.129Z</time></trkpt><trkpt lat="43.22052" lon="10.8938767"><ele>591.6666666666666</ele><time>2026-04-25T12:45:58.124Z</time></trkpt><trkpt lat="43.220475" lon="10.8935983"><ele>590.3333333333334</ele><time>2026-04-25T12:45:59.127Z</time></trkpt><trkpt lat="43.2204283" lon="10.8933167"><ele>589.0</ele><time>2026-04-25T12:46:00.116Z</time></trkpt><trkpt lat="43.22038" lon="10.8930333"><ele>585.6666666666667</ele><time>2026-04-25T12:46:01.127Z</time></trkpt><trkpt lat="43.2203333" lon="10.8927533"><ele>582.3333333333334</ele><time>2026-04-25T12:46:02.117Z</time></trkpt><trkpt lat="43.2202867" lon="10.8924933"><ele>579.0</ele><time>2026-04-25T12:46:03.134Z</time></trkpt><trkpt lat="43.2202467" lon="10.892255"><ele>575.3333333333334</ele><time>2026-04-25T12:46:04.132Z</time></trkpt><trkpt lat="43.2202083" lon="10.8920283"><ele>571.6666666666667</ele><time>2026-04-25T12:46:05.126Z</time></trkpt><trkpt lat="43.2201833" lon="10.8918117"><ele>568.0</ele><time>2026-04-25T12:46:06.132Z</time></trkpt><trkpt lat="43.22018" lon="10.8916"><ele>565.75</ele><time>2026-04-25T12:46:07.126Z</time></trkpt><trkpt lat="43.2202067" lon="10.8914"><ele>563.5</ele><time>2026-04-25T12:46:08.12Z</time></trkpt><trkpt lat="43.2202617" lon="10.891215"><ele>561.25</ele><time>2026-04-25T12:46:09.13Z</time></trkpt><trkpt lat="43.2203467" lon="10.8910533"><ele>559.0</ele><time>2026-04-25T12:46:10.134Z</time></trkpt><trkpt lat="43.2204567" lon="10.8909233"><ele>556.75</ele><time>2026-04-25T12:46:11.121Z</time></trkpt><trkpt lat="43.2205833" lon="10.8908283"><ele>554.5</ele><time>2026-04-25T12:46:12.121Z</time></trkpt><trkpt lat="43.2207267" lon="10.8907783"><ele>552.25</ele><time>2026-04-25T12:46:13.127Z</time></trkpt><trkpt lat="43.22088" lon="10.8907817"><ele>550.0</ele><time>2026-04-25T12:46:14.14Z</time></trkpt><trkpt lat="43.2210433" lon="10.890835"><ele>551.0</ele><time>2026-04-25T12:46:15.123Z</time></trkpt><trkpt lat="43.2212067" lon="10.8909167"><ele>552.0</ele><time>2026-04-25T12:46:16.139Z</time></trkpt><trkpt lat="43.2213683" lon="10.890995"><ele>553.0</ele><time>2026-04-25T12:46:17.135Z</time></trkpt><trkpt lat="43.2215267" lon="10.89106"><ele>550.0</ele><time>2026-04-25T12:46:18.133Z</time></trkpt><trkpt lat="43.221685" lon="10.8910933"><ele>547.0</ele><time>2026-04-25T12:46:19.123Z</time></trkpt><trkpt lat="43.2218417" lon="10.8910933"><ele>544.0</ele><time>2026-04-25T12:46:20.13Z</time></trkpt><trkpt lat="43.2219917" lon="10.8910433"><ele>544.0</ele><time>2026-04-25T12:46:21.129Z</time></trkpt><trkpt lat="43.2221317" lon="10.8909567"><ele>544.0</ele><time>2026-04-25T12:46:22.139Z</time></trkpt><trkpt lat="43.2222583" lon="10.8908633"><ele>544.0</ele><time>2026-04-25T12:46:23.139Z</time></trkpt><trkpt lat="43.2223867" lon="10.8907933"><ele>544.0</ele><time>2026-04-25T12:46:24.126Z</time></trkpt><trkpt lat="43.2225233" lon="10.890755"><ele>539.3333333333334</ele><time>2026-04-25T12:46:25.135Z</time></trkpt><trkpt lat="43.2226683" lon="10.8907533"><ele>534.6666666666666</ele><time>2026-04-25T12:46:26.128Z</time></trkpt><trkpt lat="43.2228117" lon="10.8908"><ele>530.0</ele><time>2026-04-25T12:46:27.13Z</time></trkpt><trkpt lat="43.2229783" lon="10.8909167"><ele>525.0</ele><time>2026-04-25T12:46:28.127Z</time></trkpt><trkpt lat="43.223175" lon="10.8910733"><ele>520.0</ele><time>2026-04-25T12:46:29.127Z</time></trkpt><trkpt lat="43.223385" lon="10.89124"><ele>520.0</ele><time>2026-04-25T12:46:30.132Z</time></trkpt><trkpt lat="43.2235833" lon="10.8913983"><ele>520.0</ele><time>2026-04-25T12:46:31.142Z</time></trkpt><trkpt lat="43.2237483" lon="10.8915333"><ele>520.0</ele><time>2026-04-25T12:46:32.136Z</time></trkpt><trkpt lat="43.22389" lon="10.8916517"><ele>517.75</ele><time>2026-04-25T12:46:33.139Z</time></trkpt><trkpt lat="43.224015" lon="10.8917533"><ele>515.5</ele><time>2026-04-25T12:46:34.137Z</time></trkpt><trkpt lat="43.2241383" lon="10.89183"><ele>513.25</ele><time>2026-04-25T12:46:35.135Z</time></trkpt><trkpt lat="43.2242567" lon="10.891865"><ele>511.0</ele><time>2026-04-25T12:46:36.123Z</time></trkpt><trkpt lat="43.224375" lon="10.8918483"><ele>511.0</ele><time>2026-04-25T12:46:37.124Z</time></trkpt><trkpt lat="43.2244867" lon="10.8917883"><ele>511.0</ele><time>2026-04-25T12:46:38.125Z</time></trkpt><trkpt lat="43.224575" lon="10.8917033"><ele>511.0</ele><time>2026-04-25T12:46:39.13Z</time></trkpt><trkpt lat="43.2246383" lon="10.8916033"><ele>511.0</ele><time>2026-04-25T12:46:40.124Z</time></trkpt><trkpt lat="43.2246667" lon="10.8914817"><ele>511.0</ele><time>2026-04-25T12:46:41.13Z</time></trkpt><trkpt lat="43.2246683" lon="10.89134"><ele>511.0</ele><time>2026-04-25T12:46:42.129Z</time></trkpt><trkpt lat="43.224645" lon="10.8911933"><ele>511.0</ele><time>2026-04-25T12:46:43.13Z</time></trkpt><trkpt lat="43.2245867" lon="10.8910383"><ele>511.0</ele><time>2026-04-25T12:46:44.13Z</time></trkpt><trkpt lat="43.224485" lon="10.8908633"><ele>511.0</ele><time>2026-04-25T12:46:45.127Z</time></trkpt><trkpt lat="43.2243583" lon="10.89067"><ele>507.33333333333337</ele><time>2026-04-25T12:46:46.119Z</time></trkpt><trkpt lat="43.2242433" lon="10.8904883"><ele>503.66666666666663</ele><time>2026-04-25T12:46:47.12Z</time></trkpt><trkpt lat="43.22415" lon="10.8903283"><ele>500.0</ele><time>2026-04-25T12:46:48.139Z</time></trkpt><trkpt lat="43.2240683" lon="10.8901817"><ele>501.75</ele><time>2026-04-25T12:46:49.137Z</time></trkpt><trkpt lat="43.223995" lon="10.89004"><ele>503.5</ele><time>2026-04-25T12:46:50.125Z</time></trkpt><trkpt lat="43.2239367" lon="10.8899"><ele>505.25</ele><time>2026-04-25T12:46:51.135Z</time></trkpt><trkpt lat="43.2238983" lon="10.8897617"><ele>507.0</ele><time>2026-04-25T12:46:52.13Z</time></trkpt><trkpt lat="43.223885" lon="10.8896233"><ele>507.0</ele><time>2026-04-25T12:46:53.131Z</time></trkpt><trkpt lat="43.223905" lon="10.8894917"><ele>507.00000000000006</ele><time>2026-04-25T12:46:54.126Z</time></trkpt><trkpt lat="43.223955" lon="10.8893833"><ele>507.00000000000006</ele><time>2026-04-25T12:46:55.14Z</time></trkpt><trkpt lat="43.224015" lon="10.8892983"><ele>507.0</ele><time>2026-04-25T12:46:56.132Z</time></trkpt><trkpt lat="43.2241" lon="10.8892533"><ele>507.0</ele><time>2026-04-25T12:46:57.122Z</time></trkpt><trkpt lat="43.2242233" lon="10.8892683"><ele>502.0</ele><time>2026-04-25T12:46:58.123Z</time></trkpt><trkpt lat="43.2243867" lon="10.8893367"><ele>497.0</ele><time>2026-04-25T12:46:59.13Z</time></trkpt><trkpt lat="43.2245383" lon="10.8894067"><ele>492.0</ele><time>2026-04-25T12:47:00.123Z</time></trkpt><trkpt lat="43.2247917" lon="10.8895167"><ele>490.8</ele><time>2026-04-25T12:47:02.124Z</time></trkpt><trkpt lat="43.2248883" lon="10.8895283"><ele>489.6</ele><time>2026-04-25T12:47:03.122Z</time></trkpt><trkpt lat="43.2249683" lon="10.889505"><ele>488.40000000000003</ele><time>2026-04-25T12:47:04.131Z</time></trkpt><trkpt lat="43.2250167" lon="10.8894483"><ele>487.20000000000005</ele><time>2026-04-25T12:47:05.128Z</time></trkpt><trkpt lat="43.2249817" lon="10.8892833"><ele>486.0</ele><time>2026-04-25T12:47:07.135Z</time></trkpt><trkpt lat="43.224895" lon="10.8892033"><ele>485.25</ele><time>2026-04-25T12:47:08.129Z</time></trkpt><trkpt lat="43.2247733" lon="10.88913"><ele>484.5</ele><time>2026-04-25T12:47:09.133Z</time></trkpt><trkpt lat="43.224655" lon="10.8890583"><ele>483.75</ele><time>2026-04-25T12:47:10.124Z</time></trkpt><trkpt lat="43.224555" lon="10.8889933"><ele>483.0</ele><time>2026-04-25T12:47:11.137Z</time></trkpt><trkpt lat="43.2244817" lon="10.88894"><ele>483.0</ele><time>2026-04-25T12:47:12.129Z</time></trkpt><trkpt lat="43.224425" lon="10.8888833"><ele>482.99999999999994</ele><time>2026-04-25T12:47:13.137Z</time></trkpt><trkpt lat="43.2243817" lon="10.88874"><ele>482.99999999999994</ele><time>2026-04-25T12:47:15.124Z</time></trkpt><trkpt lat="43.2244567" lon="10.8886433"><ele>483.0</ele><time>2026-04-25T12:47:17.131Z</time></trkpt><trkpt lat="43.2245333" lon="10.888665"><ele>483.0</ele><time>2026-04-25T12:47:18.13Z</time></trkpt><trkpt lat="43.2246467" lon="10.8887533"><ele>483.0</ele><time>2026-04-25T12:47:19.138Z</time></trkpt><trkpt lat="43.2247617" lon="10.8888417"><ele>482.99999999999994</ele><time>2026-04-25T12:47:20.126Z</time></trkpt><trkpt lat="43.224865" lon="10.8889"><ele>482.99999999999994</ele><time>2026-04-25T12:47:21.123Z</time></trkpt><trkpt lat="43.2249567" lon="10.888925"><ele>483.0</ele><time>2026-04-25T12:47:22.128Z</time></trkpt><trkpt lat="43.2250383" lon="10.888925"><ele>483.0</ele><time>2026-04-25T12:47:23.131Z</time></trkpt><trkpt lat="43.225105" lon="10.8888967"><ele>481.0</ele><time>2026-04-25T12:47:24.128Z</time></trkpt><trkpt lat="43.2251117" lon="10.888725"><ele>479.0</ele><time>2026-04-25T12:47:26.131Z</time></trkpt><trkpt lat="43.225045" lon="10.888625"><ele>477.0</ele><time>2026-04-25T12:47:27.13Z</time></trkpt><trkpt lat="43.2249467" lon="10.8885217"><ele>475.0</ele><time>2026-04-25T12:47:28.131Z</time></trkpt><trkpt lat="43.2247833" lon="10.88839"><ele>472.25</ele><time>2026-04-25T12:47:29.132Z</time></trkpt><trkpt lat="43.2246383" lon="10.88826"><ele>469.5</ele><time>2026-04-25T12:47:30.133Z</time></trkpt><trkpt lat="43.22452" lon="10.8881433"><ele>466.75</ele><time>2026-04-25T12:47:31.133Z</time></trkpt><trkpt lat="43.22443" lon="10.8880483"><ele>464.0</ele><time>2026-04-25T12:47:32.134Z</time></trkpt><trkpt lat="43.2243583" lon="10.887975"><ele>463.99999999999994</ele><time>2026-04-25T12:47:33.136Z</time></trkpt><trkpt lat="43.22431" lon="10.887905"><ele>464.0</ele><time>2026-04-25T12:47:34.127Z</time></trkpt><trkpt lat="43.2242867" lon="10.887755"><ele>464.0</ele><time>2026-04-25T12:47:36.117Z</time></trkpt><trkpt lat="43.2243117" lon="10.8876633"><ele>464.0</ele><time>2026-04-25T12:47:37.124Z</time></trkpt><trkpt lat="43.2243567" lon="10.8875683"><ele>463.99999999999994</ele><time>2026-04-25T12:47:38.119Z</time></trkpt><trkpt lat="43.2244383" lon="10.88746"><ele>464.0</ele><time>2026-04-25T12:47:39.131Z</time></trkpt><trkpt lat="43.224635" lon="10.887295"><ele>462.5</ele><time>2026-04-25T12:47:40.132Z</time></trkpt><trkpt lat="43.224885" lon="10.8871433"><ele>461.0</ele><time>2026-04-25T12:47:41.121Z</time></trkpt><trkpt lat="43.225175" lon="10.8869767"><ele>461.0</ele><time>2026-04-25T12:47:42.124Z</time></trkpt><trkpt lat="43.2254233" lon="10.8868317"><ele>461.0</ele><time>2026-04-25T12:47:43.128Z</time></trkpt><trkpt lat="43.225595" lon="10.8867267"><ele>460.0</ele><time>2026-04-25T12:47:44.124Z</time></trkpt><trkpt lat="43.2257183" lon="10.8866433"><ele>459.0</ele><time>2026-04-25T12:47:45.123Z</time></trkpt><trkpt lat="43.2258033" lon="10.8865433"><ele>458.0</ele><time>2026-04-25T12:47:46.127Z</time></trkpt><trkpt lat="43.2258767" lon="10.8864067"><ele>457.0</ele><time>2026-04-25T12:47:47.125Z</time></trkpt><trkpt lat="43.225935" lon="10.8862183"><ele>457.0</ele><time>2026-04-25T12:47:48.129Z</time></trkpt><trkpt lat="43.2259767" lon="10.885955"><ele>457.0</ele><time>2026-04-25T12:47:49.122Z</time></trkpt><trkpt lat="43.2260233" lon="10.8856217"><ele>457.0</ele><time>2026-04-25T12:47:50.132Z</time></trkpt><trkpt lat="43.226085" lon="10.88524"><ele>469.0</ele><time>2026-04-25T12:47:51.129Z</time></trkpt><trkpt lat="43.2261517" lon="10.8848133"><ele>481.0</ele><time>2026-04-25T12:47:52.133Z</time></trkpt><trkpt lat="43.22622" lon="10.8843733"><ele>481.5</ele><time>2026-04-25T12:47:53.125Z</time></trkpt><trkpt lat="43.2262883" lon="10.8839617"><ele>482.0</ele><time>2026-04-25T12:47:54.127Z</time></trkpt><trkpt lat="43.2263533" lon="10.8836083"><ele>483.66666666666663</ele><time>2026-04-25T12:47:55.145Z</time></trkpt><trkpt lat="43.2264" lon="10.8833117"><ele>485.33333333333337</ele><time>2026-04-25T12:47:56.134Z</time></trkpt><trkpt lat="43.226435" lon="10.8830633"><ele>487.0</ele><time>2026-04-25T12:47:57.122Z</time></trkpt><trkpt lat="43.226475" lon="10.8828483"><ele>482.33333333333337</ele><time>2026-04-25T12:47:58.133Z</time></trkpt><trkpt lat="43.2265433" lon="10.88265"><ele>477.66666666666663</ele><time>2026-04-25T12:47:59.117Z</time></trkpt><trkpt lat="43.2266417" lon="10.8824567"><ele>473.0</ele><time>2026-04-25T12:48:00.121Z</time></trkpt><trkpt lat="43.2267767" lon="10.8822567"><ele>473.0</ele><time>2026-04-25T12:48:01.121Z</time></trkpt><trkpt lat="43.2269533" lon="10.8820283"><ele>473.0</ele><time>2026-04-25T12:48:02.12Z</time></trkpt><trkpt lat="43.227155" lon="10.8817883"><ele>475.0</ele><time>2026-04-25T12:48:03.131Z</time></trkpt><trkpt lat="43.2273583" lon="10.881565"><ele>477.0</ele><time>2026-04-25T12:48:04.128Z</time></trkpt><trkpt lat="43.2275517" lon="10.8813633"><ele>477.0</ele><time>2026-04-25T12:48:05.121Z</time></trkpt><trkpt lat="43.227735" lon="10.88118"><ele>477.0</ele><time>2026-04-25T12:48:06.132Z</time></trkpt><trkpt lat="43.227905" lon="10.881015"><ele>477.0</ele><time>2026-04-25T12:48:07.124Z</time></trkpt><trkpt lat="43.2280617" lon="10.88085"><ele>477.0</ele><time>2026-04-25T12:48:08.132Z</time></trkpt><trkpt lat="43.2282083" lon="10.8806717"><ele>477.0</ele><time>2026-04-25T12:48:09.121Z</time></trkpt><trkpt lat="43.228335" lon="10.88047"><ele>477.0</ele><time>2026-04-25T12:48:10.136Z</time></trkpt><trkpt lat="43.2284483" lon="10.8802333"><ele>480.5</ele><time>2026-04-25T12:48:11.131Z</time></trkpt><trkpt lat="43.2285533" lon="10.8799567"><ele>484.0</ele><time>2026-04-25T12:48:12.126Z</time></trkpt><trkpt lat="43.2286367" lon="10.8796733"><ele>484.0</ele><time>2026-04-25T12:48:13.131Z</time></trkpt><trkpt lat="43.2287017" lon="10.879425"><ele>484.0</ele><time>2026-04-25T12:48:14.128Z</time></trkpt><trkpt lat="43.228755" lon="10.8792067"><ele>484.0</ele><time>2026-04-25T12:48:15.128Z</time></trkpt><trkpt lat="43.228795" lon="10.8789967"><ele>485.33333333333337</ele><time>2026-04-25T12:48:16.131Z</time></trkpt><trkpt lat="43.22881" lon="10.87877"><ele>486.66666666666663</ele><time>2026-04-25T12:48:17.121Z</time></trkpt><trkpt lat="43.228795" lon="10.878505"><ele>488.0</ele><time>2026-04-25T12:48:18.123Z</time></trkpt><trkpt lat="43.22876" lon="10.8782267"><ele>489.0</ele><time>2026-04-25T12:48:19.13Z</time></trkpt><trkpt lat="43.2287317" lon="10.877965"><ele>490.0</ele><time>2026-04-25T12:48:20.12Z</time></trkpt><trkpt lat="43.22873" lon="10.8777067"><ele>491.0</ele><time>2026-04-25T12:48:21.131Z</time></trkpt><trkpt lat="43.228765" lon="10.8774433"><ele>494.66666666666663</ele><time>2026-04-25T12:48:22.13Z</time></trkpt><trkpt lat="43.2288167" lon="10.87719"><ele>498.33333333333337</ele><time>2026-04-25T12:48:23.133Z</time></trkpt><trkpt lat="43.2288767" lon="10.8769667"><ele>502.0</ele><time>2026-04-25T12:48:24.138Z</time></trkpt><trkpt lat="43.2289567" lon="10.8767767"><ele>495.6666666666667</ele><time>2026-04-25T12:48:25.13Z</time></trkpt><trkpt lat="43.2290617" lon="10.8766167"><ele>489.33333333333337</ele><time>2026-04-25T12:48:26.126Z</time></trkpt><trkpt lat="43.2291967" lon="10.87649"><ele>483.0</ele><time>2026-04-25T12:48:27.129Z</time></trkpt><trkpt lat="43.2293567" lon="10.8763983"><ele>483.0</ele><time>2026-04-25T12:48:28.138Z</time></trkpt><trkpt lat="43.2295283" lon="10.8763433"><ele>483.0</ele><time>2026-04-25T12:48:29.135Z</time></trkpt><trkpt lat="43.2296833" lon="10.876315"><ele>483.0</ele><time>2026-04-25T12:48:30.131Z</time></trkpt><trkpt lat="43.2298117" lon="10.876295"><ele>482.0</ele><time>2026-04-25T12:48:31.125Z</time></trkpt><trkpt lat="43.2299783" lon="10.8762583"><ele>481.0</ele><time>2026-04-25T12:48:33.126Z</time></trkpt><trkpt lat="43.2300483" lon="10.8761833"><ele>480.0</ele><time>2026-04-25T12:48:35.123Z</time></trkpt><trkpt lat="43.230015" lon="10.876055"><ele>479.0</ele><time>2026-04-25T12:48:37.14Z</time></trkpt><trkpt lat="43.2299317" lon="10.8759733"><ele>483.0</ele><time>2026-04-25T12:48:38.126Z</time></trkpt><trkpt lat="43.229805" lon="10.87587"><ele>487.0</ele><time>2026-04-25T12:48:39.134Z</time></trkpt><trkpt lat="43.2296817" lon="10.8757483"><ele>491.0</ele><time>2026-04-25T12:48:40.135Z</time></trkpt><trkpt lat="43.229575" lon="10.87558"><ele>491.0</ele><time>2026-04-25T12:48:41.136Z</time></trkpt><trkpt lat="43.2294833" lon="10.87538"><ele>491.0</ele><time>2026-04-25T12:48:42.131Z</time></trkpt><trkpt lat="43.229395" lon="10.8751917"><ele>491.0</ele><time>2026-04-25T12:48:43.135Z</time></trkpt><trkpt lat="43.2292917" lon="10.87503"><ele>492.3333333333333</ele><time>2026-04-25T12:48:44.131Z</time></trkpt><trkpt lat="43.229155" lon="10.8748833"><ele>493.66666666666663</ele><time>2026-04-25T12:48:45.135Z</time></trkpt><trkpt lat="43.2289833" lon="10.8747333"><ele>495.0</ele><time>2026-04-25T12:48:46.137Z</time></trkpt><trkpt lat="43.22879" lon="10.874565"><ele>495.66666666666663</ele><time>2026-04-25T12:48:47.129Z</time></trkpt><trkpt lat="43.228605" lon="10.8743867"><ele>496.3333333333333</ele><time>2026-04-25T12:48:48.135Z</time></trkpt><trkpt lat="43.228445" lon="10.8742183"><ele>497.0</ele><time>2026-04-25T12:48:49.127Z</time></trkpt><trkpt lat="43.2283067" lon="10.8740783"><ele>497.0</ele><time>2026-04-25T12:48:50.128Z</time></trkpt><trkpt lat="43.2281817" lon="10.87397"><ele>497.0</ele><time>2026-04-25T12:48:51.139Z</time></trkpt><trkpt lat="43.2280483" lon="10.8738983"><ele>497.0</ele><time>2026-04-25T12:48:52.129Z</time></trkpt><trkpt lat="43.2278917" lon="10.873865"><ele>501.25</ele><time>2026-04-25T12:48:53.134Z</time></trkpt><trkpt lat="43.2277367" lon="10.873855"><ele>505.5</ele><time>2026-04-25T12:48:54.127Z</time></trkpt><trkpt lat="43.2276083" lon="10.8738483"><ele>509.75</ele><time>2026-04-25T12:48:55.129Z</time></trkpt><trkpt lat="43.2275117" lon="10.8738333"><ele>514.0</ele><time>2026-04-25T12:48:56.116Z</time></trkpt><trkpt lat="43.2274317" lon="10.8737967"><ele>514.0</ele><time>2026-04-25T12:48:57.121Z</time></trkpt><trkpt lat="43.22737" lon="10.8737433"><ele>514.0</ele><time>2026-04-25T12:48:58.122Z</time></trkpt><trkpt lat="43.2273233" lon="10.87368"><ele>514.0</ele><time>2026-04-25T12:48:59.134Z</time></trkpt><trkpt lat="43.2273283" lon="10.8735817"><ele>514.0</ele><time>2026-04-25T12:49:00.131Z</time></trkpt><trkpt lat="43.2273533" lon="10.8734583"><ele>514.0</ele><time>2026-04-25T12:49:01.126Z</time></trkpt><trkpt lat="43.2274267" lon="10.8733"><ele>514.0</ele><time>2026-04-25T12:49:02.136Z</time></trkpt><trkpt lat="43.22753" lon="10.8731083"><ele>513.6666666666667</ele><time>2026-04-25T12:49:03.138Z</time></trkpt><trkpt lat="43.2276417" lon="10.872925"><ele>513.3333333333334</ele><time>2026-04-25T12:49:04.132Z</time></trkpt><trkpt lat="43.227725" lon="10.872755"><ele>513.0</ele><time>2026-04-25T12:49:05.133Z</time></trkpt><trkpt lat="43.2277833" lon="10.8725883"><ele>513.0</ele><time>2026-04-25T12:49:06.132Z</time></trkpt><trkpt lat="43.2278117" lon="10.872405"><ele>513.0</ele><time>2026-04-25T12:49:07.133Z</time></trkpt><trkpt lat="43.22781" lon="10.872195"><ele>513.0</ele><time>2026-04-25T12:49:08.134Z</time></trkpt><trkpt lat="43.227785" lon="10.87195"><ele>513.0</ele><time>2026-04-25T12:49:09.137Z</time></trkpt><trkpt lat="43.2277483" lon="10.8716867"><ele>513.0</ele><time>2026-04-25T12:49:10.122Z</time></trkpt><trkpt lat="43.2277117" lon="10.871435"><ele>513.0</ele><time>2026-04-25T12:49:11.13Z</time></trkpt><trkpt lat="43.227675" lon="10.8712083"><ele>513.0</ele><time>2026-04-25T12:49:12.13Z</time></trkpt><trkpt lat="43.227645" lon="10.8710033"><ele>513.0</ele><time>2026-04-25T12:49:13.133Z</time></trkpt><trkpt lat="43.2276283" lon="10.870805"><ele>513.0</ele><time>2026-04-25T12:49:14.132Z</time></trkpt><trkpt lat="43.227635" lon="10.870615"><ele>513.0</ele><time>2026-04-25T12:49:15.139Z</time></trkpt><trkpt lat="43.2276783" lon="10.8704283"><ele>511.25</ele><time>2026-04-25T12:49:16.132Z</time></trkpt><trkpt lat="43.22775" lon="10.8702567"><ele>509.5</ele><time>2026-04-25T12:49:17.125Z</time></trkpt><trkpt lat="43.2278467" lon="10.8701033"><ele>507.75</ele><time>2026-04-25T12:49:18.126Z</time></trkpt><trkpt lat="43.22797" lon="10.8699783"><ele>506.0</ele><time>2026-04-25T12:49:19.13Z</time></trkpt><trkpt lat="43.2280933" lon="10.8698617"><ele>504.0</ele><time>2026-04-25T12:49:20.119Z</time></trkpt><trkpt lat="43.2281983" lon="10.8697317"><ele>502.0</ele><time>2026-04-25T12:49:21.121Z</time></trkpt><trkpt lat="43.2282867" lon="10.8695667"><ele>500.0</ele><time>2026-04-25T12:49:22.127Z</time></trkpt><trkpt lat="43.2283533" lon="10.8693833"><ele>498.0</ele><time>2026-04-25T12:49:23.132Z</time></trkpt><trkpt lat="43.2283967" lon="10.8692033"><ele>498.0</ele><time>2026-04-25T12:49:24.134Z</time></trkpt><trkpt lat="43.2284117" lon="10.8690233"><ele>498.0</ele><time>2026-04-25T12:49:25.135Z</time></trkpt><trkpt lat="43.2283983" lon="10.8688567"><ele>498.0</ele><time>2026-04-25T12:49:26.122Z</time></trkpt><trkpt lat="43.2283567" lon="10.8687"><ele>498.0</ele><time>2026-04-25T12:49:27.12Z</time></trkpt><trkpt lat="43.2283033" lon="10.8685467"><ele>497.25</ele><time>2026-04-25T12:49:28.123Z</time></trkpt><trkpt lat="43.2282633" lon="10.8684"><ele>496.5</ele><time>2026-04-25T12:49:29.124Z</time></trkpt><trkpt lat="43.2282533" lon="10.8682567"><ele>495.75</ele><time>2026-04-25T12:49:30.125Z</time></trkpt><trkpt lat="43.2282983" lon="10.8681117"><ele>495.0</ele><time>2026-04-25T12:49:31.121Z</time></trkpt><trkpt lat="43.22836" lon="10.8679533"><ele>495.0</ele><time>2026-04-25T12:49:32.128Z</time></trkpt><trkpt lat="43.2284" lon="10.8677817"><ele>495.0</ele><time>2026-04-25T12:49:33.127Z</time></trkpt><trkpt lat="43.2283983" lon="10.8676067"><ele>495.0</ele><time>2026-04-25T12:49:34.133Z</time></trkpt><trkpt lat="43.2283583" lon="10.86741"><ele>495.0</ele><time>2026-04-25T12:49:35.155Z</time></trkpt><trkpt lat="43.2282933" lon="10.8671783"><ele>494.0</ele><time>2026-04-25T12:49:36.135Z</time></trkpt><trkpt lat="43.2282233" lon="10.866945"><ele>493.0</ele><time>2026-04-25T12:49:37.127Z</time></trkpt><trkpt lat="43.2281517" lon="10.866745"><ele>492.0</ele><time>2026-04-25T12:49:38.14Z</time></trkpt><trkpt lat="43.22807" lon="10.8665967"><ele>492.0</ele><time>2026-04-25T12:49:39.124Z</time></trkpt><trkpt lat="43.2279717" lon="10.8664933"><ele>492.0</ele><time>2026-04-25T12:49:40.126Z</time></trkpt><trkpt lat="43.2278417" lon="10.866435"><ele>492.0</ele><time>2026-04-25T12:49:41.134Z</time></trkpt><trkpt lat="43.2276767" lon="10.8664217"><ele>492.0</ele><time>2026-04-25T12:49:42.14Z</time></trkpt><trkpt lat="43.22749" lon="10.8664267"><ele>492.0</ele><time>2026-04-25T12:49:43.138Z</time></trkpt><trkpt lat="43.2273183" lon="10.8664367"><ele>492.0</ele><time>2026-04-25T12:49:44.135Z</time></trkpt><trkpt lat="43.227175" lon="10.86645"><ele>492.0</ele><time>2026-04-25T12:49:45.134Z</time></trkpt><trkpt lat="43.2270533" lon="10.8664583"><ele>492.0</ele><time>2026-04-25T12:49:46.133Z</time></trkpt><trkpt lat="43.2269517" lon="10.8664483"><ele>492.20000000000005</ele><time>2026-04-25T12:49:47.13Z</time></trkpt><trkpt lat="43.2268617" lon="10.866405"><ele>492.40000000000003</ele><time>2026-04-25T12:49:48.135Z</time></trkpt><trkpt lat="43.2267917" lon="10.866315"><ele>492.59999999999997</ele><time>2026-04-25T12:49:49.136Z</time></trkpt><trkpt lat="43.2267467" lon="10.8661683"><ele>492.79999999999995</ele><time>2026-04-25T12:49:50.124Z</time></trkpt><trkpt lat="43.2267117" lon="10.8659983"><ele>493.0</ele><time>2026-04-25T12:49:51.134Z</time></trkpt><trkpt lat="43.2266733" lon="10.86584"><ele>492.5</ele><time>2026-04-25T12:49:52.126Z</time></trkpt><trkpt lat="43.2266133" lon="10.86569"><ele>492.0</ele><time>2026-04-25T12:49:53.137Z</time></trkpt><trkpt lat="43.2265233" lon="10.86556"><ele>491.5</ele><time>2026-04-25T12:49:54.133Z</time></trkpt><trkpt lat="43.226385" lon="10.8654367"><ele>491.0</ele><time>2026-04-25T12:49:55.127Z</time></trkpt><trkpt lat="43.2262217" lon="10.8653183"><ele>491.0</ele><time>2026-04-25T12:49:56.123Z</time></trkpt><trkpt lat="43.2260683" lon="10.865215"><ele>491.0</ele><time>2026-04-25T12:49:57.119Z</time></trkpt><trkpt lat="43.2259317" lon="10.86514"><ele>491.0</ele><time>2026-04-25T12:49:58.127Z</time></trkpt><trkpt lat="43.2257933" lon="10.8651083"><ele>493.3333333333333</ele><time>2026-04-25T12:49:59.133Z</time></trkpt><trkpt lat="43.2256367" lon="10.8651183"><ele>495.66666666666663</ele><time>2026-04-25T12:50:00.123Z</time></trkpt><trkpt lat="43.225475" lon="10.8651517"><ele>498.0</ele><time>2026-04-25T12:50:01.115Z</time></trkpt><trkpt lat="43.2253217" lon="10.8651683"><ele>498.0</ele><time>2026-04-25T12:50:02.111Z</time></trkpt><trkpt lat="43.2251583" lon="10.8651433"><ele>498.0</ele><time>2026-04-25T12:50:03.12Z</time></trkpt><trkpt lat="43.225" lon="10.865065"><ele>498.0</ele><time>2026-04-25T12:50:04.113Z</time></trkpt><trkpt lat="43.2248517" lon="10.864945"><ele>496.66666666666663</ele><time>2026-04-25T12:50:05.12Z</time></trkpt><trkpt lat="43.2246917" lon="10.8648217"><ele>495.3333333333333</ele><time>2026-04-25T12:50:06.124Z</time></trkpt><trkpt lat="43.2245017" lon="10.8647183"><ele>494.0</ele><time>2026-04-25T12:50:07.126Z</time></trkpt><trkpt lat="43.2242717" lon="10.8646283"><ele>494.0</ele><time>2026-04-25T12:50:08.116Z</time></trkpt><trkpt lat="43.2240233" lon="10.8645467"><ele>494.0</ele><time>2026-04-25T12:50:09.13Z</time></trkpt><trkpt lat="43.2237867" lon="10.8644667"><ele>496.0</ele><time>2026-04-25T12:50:10.124Z</time></trkpt><trkpt lat="43.223575" lon="10.864395"><ele>498.0</ele><time>2026-04-25T12:50:11.126Z</time></trkpt><trkpt lat="43.2233867" lon="10.8643317"><ele>500.0</ele><time>2026-04-25T12:50:12.129Z</time></trkpt><trkpt lat="43.2232133" lon="10.8642583"><ele>495.0</ele><time>2026-04-25T12:50:13.13Z</time></trkpt><trkpt lat="43.2230517" lon="10.86415"><ele>490.0</ele><time>2026-04-25T12:50:14.131Z</time></trkpt><trkpt lat="43.22288" lon="10.8639883"><ele>485.0</ele><time>2026-04-25T12:50:15.125Z</time></trkpt><trkpt lat="43.2226933" lon="10.8637717"><ele>485.0</ele><time>2026-04-25T12:50:16.122Z</time></trkpt><trkpt lat="43.2224933" lon="10.863525"><ele>485.0</ele><time>2026-04-25T12:50:17.123Z</time></trkpt><trkpt lat="43.222305" lon="10.8632967"><ele>488.3333333333333</ele><time>2026-04-25T12:50:18.121Z</time></trkpt><trkpt lat="43.222145" lon="10.8631"><ele>491.66666666666663</ele><time>2026-04-25T12:50:19.131Z</time></trkpt><trkpt lat="43.222005" lon="10.8629317"><ele>495.0</ele><time>2026-04-25T12:50:20.124Z</time></trkpt><trkpt lat="43.2218883" lon="10.8627783"><ele>493.0</ele><time>2026-04-25T12:50:21.125Z</time></trkpt><trkpt lat="43.2217983" lon="10.8626133"><ele>491.0</ele><time>2026-04-25T12:50:22.14Z</time></trkpt><trkpt lat="43.2217433" lon="10.862435"><ele>489.0</ele><time>2026-04-25T12:50:23.124Z</time></trkpt><trkpt lat="43.221715" lon="10.8622417"><ele>487.0</ele><time>2026-04-25T12:50:24.134Z</time></trkpt><trkpt lat="43.221725" lon="10.8620233"><ele>487.33333333333337</ele><time>2026-04-25T12:50:25.13Z</time></trkpt><trkpt lat="43.22178" lon="10.86178"><ele>487.66666666666663</ele><time>2026-04-25T12:50:26.12Z</time></trkpt><trkpt lat="43.2218533" lon="10.86154"><ele>488.0</ele><time>2026-04-25T12:50:27.135Z</time></trkpt><trkpt lat="43.2219183" lon="10.8613267"><ele>488.0</ele><time>2026-04-25T12:50:28.134Z</time></trkpt><trkpt lat="43.2219483" lon="10.8611333"><ele>488.0</ele><time>2026-04-25T12:50:29.117Z</time></trkpt><trkpt lat="43.2219367" lon="10.8609383"><ele>488.0</ele><time>2026-04-25T12:50:30.14Z</time></trkpt><trkpt lat="43.221895" lon="10.860725"><ele>488.0</ele><time>2026-04-25T12:50:31.136Z</time></trkpt><trkpt lat="43.2218433" lon="10.8605217"><ele>488.25</ele><time>2026-04-25T12:50:32.131Z</time></trkpt><trkpt lat="43.22181" lon="10.8603383"><ele>488.5</ele><time>2026-04-25T12:50:33.122Z</time></trkpt><trkpt lat="43.2218183" lon="10.860155"><ele>488.75</ele><time>2026-04-25T12:50:34.139Z</time></trkpt><trkpt lat="43.221865" lon="10.859965"><ele>489.0</ele><time>2026-04-25T12:50:35.143Z</time></trkpt><trkpt lat="43.221925" lon="10.8597783"><ele>489.0</ele><time>2026-04-25T12:50:36.129Z</time></trkpt><trkpt lat="43.2219617" lon="10.8596017"><ele>489.0</ele><time>2026-04-25T12:50:37.125Z</time></trkpt><trkpt lat="43.2219683" lon="10.859435"><ele>489.0</ele><time>2026-04-25T12:50:38.133Z</time></trkpt><trkpt lat="43.2219383" lon="10.8592667"><ele>489.0</ele><time>2026-04-25T12:50:39.13Z</time></trkpt><trkpt lat="43.2218833" lon="10.8590983"><ele>489.25</ele><time>2026-04-25T12:50:40.127Z</time></trkpt><trkpt lat="43.22181" lon="10.8589517"><ele>489.5</ele><time>2026-04-25T12:50:41.127Z</time></trkpt><trkpt lat="43.221725" lon="10.8588383"><ele>489.75</ele><time>2026-04-25T12:50:42.134Z</time></trkpt><trkpt lat="43.2216217" lon="10.85876"><ele>490.0</ele><time>2026-04-25T12:50:43.14Z</time></trkpt><trkpt lat="43.2215033" lon="10.858725"><ele>492.6666666666667</ele><time>2026-04-25T12:50:44.136Z</time></trkpt><trkpt lat="43.22136" lon="10.8587317"><ele>495.33333333333337</ele><time>2026-04-25T12:50:45.126Z</time></trkpt><trkpt lat="43.22118" lon="10.8587533"><ele>498.0</ele><time>2026-04-25T12:50:46.126Z</time></trkpt><trkpt lat="43.220995" lon="10.8587433"><ele>498.0</ele><time>2026-04-25T12:50:47.14Z</time></trkpt><trkpt lat="43.2208267" lon="10.85869"><ele>498.0</ele><time>2026-04-25T12:50:48.135Z</time></trkpt><trkpt lat="43.2206667" lon="10.85859"><ele>498.0</ele><time>2026-04-25T12:50:49.129Z</time></trkpt><trkpt lat="43.220515" lon="10.858435"><ele>498.66666666666663</ele><time>2026-04-25T12:50:50.14Z</time></trkpt><trkpt lat="43.2203667" lon="10.8582283"><ele>499.3333333333333</ele><time>2026-04-25T12:50:51.131Z</time></trkpt><trkpt lat="43.2202267" lon="10.8580117"><ele>500.0</ele><time>2026-04-25T12:50:52.13Z</time></trkpt><trkpt lat="43.220095" lon="10.8578317"><ele>500.0</ele><time>2026-04-25T12:50:53.125Z</time></trkpt><trkpt lat="43.2199683" lon="10.857685"><ele>500.0</ele><time>2026-04-25T12:50:54.123Z</time></trkpt><trkpt lat="43.2198333" lon="10.8575817"><ele>500.0</ele><time>2026-04-25T12:50:55.125Z</time></trkpt><trkpt lat="43.2196833" lon="10.8575233"><ele>498.0</ele><time>2026-04-25T12:50:56.128Z</time></trkpt><trkpt lat="43.2195233" lon="10.8575083"><ele>496.0</ele><time>2026-04-25T12:50:57.124Z</time></trkpt><trkpt lat="43.21935" lon="10.8575433"><ele>494.0</ele><time>2026-04-25T12:50:58.132Z</time></trkpt><trkpt lat="43.2191667" lon="10.857625"><ele>498.0</ele><time>2026-04-25T12:50:59.121Z</time></trkpt><trkpt lat="43.2189783" lon="10.857735"><ele>502.0</ele><time>2026-04-25T12:51:00.122Z</time></trkpt><trkpt lat="43.2188017" lon="10.857845"><ele>506.0</ele><time>2026-04-25T12:51:01.137Z</time></trkpt><trkpt lat="43.2186533" lon="10.8579417"><ele>506.0</ele><time>2026-04-25T12:51:02.124Z</time></trkpt><trkpt lat="43.2185217" lon="10.8580133"><ele>506.0</ele><time>2026-04-25T12:51:03.129Z</time></trkpt><trkpt lat="43.2184033" lon="10.858055"><ele>506.0</ele><time>2026-04-25T12:51:04.125Z</time></trkpt><trkpt lat="43.2182983" lon="10.8580633"><ele>506.0</ele><time>2026-04-25T12:51:05.129Z</time></trkpt><trkpt lat="43.2182033" lon="10.85803"><ele>508.20000000000005</ele><time>2026-04-25T12:51:06.129Z</time></trkpt><trkpt lat="43.2181267" lon="10.857955"><ele>510.40000000000003</ele><time>2026-04-25T12:51:07.133Z</time></trkpt><trkpt lat="43.218075" lon="10.8578367"><ele>512.6</ele><time>2026-04-25T12:51:08.123Z</time></trkpt><trkpt lat="43.2180683" lon="10.857685"><ele>514.8000000000001</ele><time>2026-04-25T12:51:09.122Z</time></trkpt><trkpt lat="43.2181033" lon="10.857505"><ele>517.0</ele><time>2026-04-25T12:51:10.129Z</time></trkpt><trkpt lat="43.2181433" lon="10.85732"><ele>517.0</ele><time>2026-04-25T12:51:11.12Z</time></trkpt><trkpt lat="43.2181617" lon="10.8571467"><ele>517.0</ele><time>2026-04-25T12:51:12.133Z</time></trkpt><trkpt lat="43.21814" lon="10.8569767"><ele>517.0</ele><time>2026-04-25T12:51:13.128Z</time></trkpt><trkpt lat="43.21809" lon="10.8567917"><ele>517.0</ele><time>2026-04-25T12:51:14.128Z</time></trkpt><trkpt lat="43.2180267" lon="10.8565917"><ele>515.0</ele><time>2026-04-25T12:51:15.142Z</time></trkpt><trkpt lat="43.2179767" lon="10.856405"><ele>513.0</ele><time>2026-04-25T12:51:16.142Z</time></trkpt><trkpt lat="43.2179333" lon="10.8562567"><ele>511.0</ele><time>2026-04-25T12:51:17.124Z</time></trkpt><trkpt lat="43.2178717" lon="10.8561467"><ele>509.0</ele><time>2026-04-25T12:51:18.138Z</time></trkpt><trkpt lat="43.21779" lon="10.8560783"><ele>509.0</ele><time>2026-04-25T12:51:19.125Z</time></trkpt><trkpt lat="43.2176833" lon="10.8560583"><ele>509.0</ele><time>2026-04-25T12:51:20.124Z</time></trkpt><trkpt lat="43.2175517" lon="10.8560833"><ele>509.0</ele><time>2026-04-25T12:51:21.133Z</time></trkpt><trkpt lat="43.2173883" lon="10.8561617"><ele>509.0</ele><time>2026-04-25T12:51:22.129Z</time></trkpt><trkpt lat="43.217235" lon="10.8562517"><ele>509.79999999999995</ele><time>2026-04-25T12:51:23.126Z</time></trkpt><trkpt lat="43.2171033" lon="10.856325"><ele>510.59999999999997</ele><time>2026-04-25T12:51:24.127Z</time></trkpt><trkpt lat="43.216995" lon="10.8563683"><ele>511.4</ele><time>2026-04-25T12:51:25.131Z</time></trkpt><trkpt lat="43.2168983" lon="10.85637"><ele>512.1999999999999</ele><time>2026-04-25T12:51:26.121Z</time></trkpt><trkpt lat="43.21681" lon="10.8563283"><ele>513.0</ele><time>2026-04-25T12:51:27.133Z</time></trkpt><trkpt lat="43.216745" lon="10.8562317"><ele>513.0</ele><time>2026-04-25T12:51:28.131Z</time></trkpt><trkpt lat="43.216695" lon="10.856085"><ele>513.0</ele><time>2026-04-25T12:51:29.137Z</time></trkpt><trkpt lat="43.216665" lon="10.8559067"><ele>513.0</ele><time>2026-04-25T12:51:30.12Z</time></trkpt><trkpt lat="43.2166317" lon="10.8557417"><ele>513.0</ele><time>2026-04-25T12:51:31.128Z</time></trkpt><trkpt lat="43.2165667" lon="10.8555983"><ele>513.0</ele><time>2026-04-25T12:51:32.122Z</time></trkpt><trkpt lat="43.2164583" lon="10.8554633"><ele>513.0</ele><time>2026-04-25T12:51:33.132Z</time></trkpt><trkpt lat="43.2163033" lon="10.855325"><ele>513.0</ele><time>2026-04-25T12:51:34.134Z</time></trkpt><trkpt lat="43.2161317" lon="10.85517"><ele>511.33333333333337</ele><time>2026-04-25T12:51:35.136Z</time></trkpt><trkpt lat="43.2159767" lon="10.8549983"><ele>509.6666666666667</ele><time>2026-04-25T12:51:36.129Z</time></trkpt><trkpt lat="43.2158483" lon="10.8548233"><ele>508.0</ele><time>2026-04-25T12:51:37.137Z</time></trkpt><trkpt lat="43.2157367" lon="10.8546717"><ele>507.59999999999997</ele><time>2026-04-25T12:51:38.138Z</time></trkpt><trkpt lat="43.2156333" lon="10.85455"><ele>507.19999999999993</ele><time>2026-04-25T12:51:39.132Z</time></trkpt><trkpt lat="43.2155433" lon="10.8544467"><ele>506.8</ele><time>2026-04-25T12:51:40.132Z</time></trkpt><trkpt lat="43.2154767" lon="10.8543633"><ele>506.4</ele><time>2026-04-25T12:51:41.123Z</time></trkpt><trkpt lat="43.215435" lon="10.8542967"><ele>506.0</ele><time>2026-04-25T12:51:42.125Z</time></trkpt><trkpt lat="43.21537" lon="10.8542267"><ele>506.0</ele><time>2026-04-25T12:51:44.132Z</time></trkpt><trkpt lat="43.215275" lon="10.8542617"><ele>506.0</ele><time>2026-04-25T12:51:46.122Z</time></trkpt><trkpt lat="43.2152183" lon="10.85432"><ele>506.0</ele><time>2026-04-25T12:51:47.126Z</time></trkpt><trkpt lat="43.2151567" lon="10.8544067"><ele>506.0</ele><time>2026-04-25T12:51:48.123Z</time></trkpt><trkpt lat="43.2150883" lon="10.8545"><ele>506.0</ele><time>2026-04-25T12:51:49.124Z</time></trkpt><trkpt lat="43.2150133" lon="10.8545917"><ele>506.25</ele><time>2026-04-25T12:51:50.128Z</time></trkpt><trkpt lat="43.214935" lon="10.8546867"><ele>506.5</ele><time>2026-04-25T12:51:51.126Z</time></trkpt><trkpt lat="43.2148483" lon="10.854785"><ele>506.75</ele><time>2026-04-25T12:51:52.124Z</time></trkpt><trkpt lat="43.2147617" lon="10.854885"><ele>507.0</ele><time>2026-04-25T12:51:53.131Z</time></trkpt><trkpt lat="43.21467" lon="10.8549917"><ele>507.0</ele><time>2026-04-25T12:51:54.133Z</time></trkpt><trkpt lat="43.21458" lon="10.8550933"><ele>507.00000000000006</ele><time>2026-04-25T12:51:55.134Z</time></trkpt><trkpt lat="43.2144917" lon="10.8551783"><ele>507.00000000000006</ele><time>2026-04-25T12:51:56.132Z</time></trkpt><trkpt lat="43.2144" lon="10.8552383"><ele>507.0</ele><time>2026-04-25T12:51:57.117Z</time></trkpt><trkpt lat="43.2143033" lon="10.855275"><ele>507.0</ele><time>2026-04-25T12:51:58.121Z</time></trkpt><trkpt lat="43.2141933" lon="10.8552933"><ele>509.5</ele><time>2026-04-25T12:51:59.121Z</time></trkpt><trkpt lat="43.214065" lon="10.855315"><ele>512.0</ele><time>2026-04-25T12:52:00.121Z</time></trkpt><trkpt lat="43.2139233" lon="10.855365"><ele>514.5</ele><time>2026-04-25T12:52:01.13Z</time></trkpt><trkpt lat="43.2137783" lon="10.8554317"><ele>517.0</ele><time>2026-04-25T12:52:02.124Z</time></trkpt><trkpt lat="43.21365" lon="10.85549"><ele>517.0</ele><time>2026-04-25T12:52:03.119Z</time></trkpt><trkpt lat="43.2135383" lon="10.8555383"><ele>517.0</ele><time>2026-04-25T12:52:04.131Z</time></trkpt><trkpt lat="43.2134367" lon="10.8555533"><ele>517.0</ele><time>2026-04-25T12:52:05.133Z</time></trkpt><trkpt lat="43.213335" lon="10.8555267"><ele>517.0</ele><time>2026-04-25T12:52:06.13Z</time></trkpt><trkpt lat="43.2132367" lon="10.8554517"><ele>517.0</ele><time>2026-04-25T12:52:07.123Z</time></trkpt><trkpt lat="43.21313" lon="10.8553367"><ele>517.0</ele><time>2026-04-25T12:52:08.117Z</time></trkpt><trkpt lat="43.21302" lon="10.855205"><ele>517.0</ele><time>2026-04-25T12:52:09.125Z</time></trkpt><trkpt lat="43.2129167" lon="10.8550633"><ele>517.0</ele><time>2026-04-25T12:52:10.124Z</time></trkpt><trkpt lat="43.212825" lon="10.854915"><ele>517.0</ele><time>2026-04-25T12:52:11.118Z</time></trkpt><trkpt lat="43.21276" lon="10.8547633"><ele>517.0</ele><time>2026-04-25T12:52:12.127Z</time></trkpt><trkpt lat="43.2127167" lon="10.8546167"><ele>517.0</ele><time>2026-04-25T12:52:13.12Z</time></trkpt><trkpt lat="43.2127" lon="10.8544717"><ele>517.0</ele><time>2026-04-25T12:52:14.12Z</time></trkpt><trkpt lat="43.2127133" lon="10.8543283"><ele>517.0</ele><time>2026-04-25T12:52:15.126Z</time></trkpt><trkpt lat="43.21273" lon="10.8541917"><ele>517.0</ele><time>2026-04-25T12:52:16.132Z</time></trkpt><trkpt lat="43.2127267" lon="10.8540517"><ele>514.75</ele><time>2026-04-25T12:52:17.12Z</time></trkpt><trkpt lat="43.2126933" lon="10.8539117"><ele>512.5</ele><time>2026-04-25T12:52:18.127Z</time></trkpt><trkpt lat="43.2126317" lon="10.853775"><ele>510.25</ele><time>2026-04-25T12:52:19.129Z</time></trkpt><trkpt lat="43.21255" lon="10.8536533"><ele>508.0</ele><time>2026-04-25T12:52:20.119Z</time></trkpt><trkpt lat="43.212455" lon="10.85355"><ele>508.0</ele><time>2026-04-25T12:52:21.129Z</time></trkpt><trkpt lat="43.2123517" lon="10.8534767"><ele>508.0</ele><time>2026-04-25T12:52:22.134Z</time></trkpt><trkpt lat="43.2122483" lon="10.8534367"><ele>508.0</ele><time>2026-04-25T12:52:23.135Z</time></trkpt><trkpt lat="43.2121383" lon="10.8534333"><ele>508.0</ele><time>2026-04-25T12:52:24.127Z</time></trkpt><trkpt lat="43.2120183" lon="10.8534817"><ele>508.0</ele><time>2026-04-25T12:52:25.136Z</time></trkpt><trkpt lat="43.2118867" lon="10.853545"><ele>508.0</ele><time>2026-04-25T12:52:26.133Z</time></trkpt><trkpt lat="43.2117417" lon="10.8535917"><ele>508.0</ele><time>2026-04-25T12:52:27.127Z</time></trkpt><trkpt lat="43.2115867" lon="10.8536033"><ele>508.0</ele><time>2026-04-25T12:52:28.136Z</time></trkpt><trkpt lat="43.2114233" lon="10.8535933"><ele>508.0</ele><time>2026-04-25T12:52:29.142Z</time></trkpt><trkpt lat="43.2112567" lon="10.8535733"><ele>508.0</ele><time>2026-04-25T12:52:30.123Z</time></trkpt><trkpt lat="43.2110983" lon="10.85355"><ele>508.0</ele><time>2026-04-25T12:52:31.136Z</time></trkpt><trkpt lat="43.210955" lon="10.8535267"><ele>508.0</ele><time>2026-04-25T12:52:32.14Z</time></trkpt><trkpt lat="43.210835" lon="10.853505"><ele>507.99999999999994</ele><time>2026-04-25T12:52:33.126Z</time></trkpt><trkpt lat="43.2107317" lon="10.8534633"><ele>507.99999999999994</ele><time>2026-04-25T12:52:34.135Z</time></trkpt><trkpt lat="43.2106483" lon="10.8534067"><ele>508.0</ele><time>2026-04-25T12:52:35.137Z</time></trkpt><trkpt lat="43.2105817" lon="10.853335"><ele>508.0</ele><time>2026-04-25T12:52:36.132Z</time></trkpt><trkpt lat="43.21053" lon="10.8532533"><ele>506.00000000000006</ele><time>2026-04-25T12:52:37.134Z</time></trkpt><trkpt lat="43.21048" lon="10.8531717"><ele>504.0</ele><time>2026-04-25T12:52:38.135Z</time></trkpt><trkpt lat="43.21043" lon="10.8531"><ele>502.0</ele><time>2026-04-25T12:52:39.128Z</time></trkpt><trkpt lat="43.2103517" lon="10.8530017"><ele>500.0</ele><time>2026-04-25T12:52:41.129Z</time></trkpt><trkpt lat="43.2103667" lon="10.8528967"><ele>498.00000000000006</ele><time>2026-04-25T12:52:44.13Z</time></trkpt><trkpt lat="43.210445" lon="10.8528383"><ele>496.0</ele><time>2026-04-25T12:52:46.129Z</time></trkpt><trkpt lat="43.2105633" lon="10.85279"><ele>496.0</ele><time>2026-04-25T12:52:48.127Z</time></trkpt><trkpt lat="43.2106267" lon="10.8527633"><ele>496.00000000000006</ele><time>2026-04-25T12:52:49.133Z</time></trkpt><trkpt lat="43.2106917" lon="10.8527417"><ele>496.0</ele><time>2026-04-25T12:52:50.136Z</time></trkpt><trkpt lat="43.21076" lon="10.8527283"><ele>496.0</ele><time>2026-04-25T12:52:51.135Z</time></trkpt><trkpt lat="43.2108267" lon="10.85271"><ele>496.00000000000006</ele><time>2026-04-25T12:52:52.135Z</time></trkpt><trkpt lat="43.21089" lon="10.8526833"><ele>496.0</ele><time>2026-04-25T12:52:53.131Z</time></trkpt><trkpt lat="43.2109483" lon="10.85265"><ele>496.0</ele><time>2026-04-25T12:52:54.133Z</time></trkpt><trkpt lat="43.2110467" lon="10.8525583"><ele>493.20000000000005</ele><time>2026-04-25T12:52:56.121Z</time></trkpt><trkpt lat="43.2111083" lon="10.8524467"><ele>490.40000000000003</ele><time>2026-04-25T12:52:58.122Z</time></trkpt><trkpt lat="43.2111083" lon="10.8523217"><ele>487.6</ele><time>2026-04-25T12:53:00.126Z</time></trkpt><trkpt lat="43.2110733" lon="10.852175"><ele>484.8</ele><time>2026-04-25T12:53:02.129Z</time></trkpt><trkpt lat="43.2110183" lon="10.8520367"><ele>482.0</ele><time>2026-04-25T12:53:04.136Z</time></trkpt><trkpt lat="43.2109417" lon="10.851915"><ele>481.99999999999994</ele><time>2026-04-25T12:53:06.135Z</time></trkpt><trkpt lat="43.2108617" lon="10.8517967"><ele>482.0</ele><time>2026-04-25T12:53:08.125Z</time></trkpt><trkpt lat="43.2107833" lon="10.851665"><ele>482.0</ele><time>2026-04-25T12:53:10.128Z</time></trkpt><trkpt lat="43.2107417" lon="10.851595"><ele>482.0</ele><time>2026-04-25T12:53:11.125Z</time></trkpt><trkpt lat="43.2106983" lon="10.851525"><ele>481.99999999999994</ele><time>2026-04-25T12:53:12.121Z</time></trkpt><trkpt lat="43.2106567" lon="10.8514567"><ele>482.0</ele><time>2026-04-25T12:53:13.136Z</time></trkpt><trkpt lat="43.2106133" lon="10.8513933"><ele>479.5</ele><time>2026-04-25T12:53:14.128Z</time></trkpt><trkpt lat="43.2105267" lon="10.851275"><ele>477.0</ele><time>2026-04-25T12:53:16.124Z</time></trkpt><trkpt lat="43.21046" lon="10.85116"><ele>474.5</ele><time>2026-04-25T12:53:18.123Z</time></trkpt><trkpt lat="43.2104367" lon="10.8510133"><ele>472.0</ele><time>2026-04-25T12:53:20.123Z</time></trkpt><trkpt lat="43.210475" lon="10.850855"><ele>471.1666666666667</ele><time>2026-04-25T12:53:22.125Z</time></trkpt><trkpt lat="43.2105117" lon="10.8507833"><ele>470.33333333333337</ele><time>2026-04-25T12:53:23.127Z</time></trkpt><trkpt lat="43.21055" lon="10.850705"><ele>469.5</ele><time>2026-04-25T12:53:24.129Z</time></trkpt><trkpt lat="43.2105917" lon="10.8506267"><ele>468.66666666666663</ele><time>2026-04-25T12:53:25.129Z</time></trkpt><trkpt lat="43.2106317" lon="10.8505533"><ele>467.8333333333333</ele><time>2026-04-25T12:53:26.126Z</time></trkpt><trkpt lat="43.2107067" lon="10.8504267"><ele>467.0</ele><time>2026-04-25T12:53:28.131Z</time></trkpt><trkpt lat="43.2107567" lon="10.850295"><ele>466.8</ele><time>2026-04-25T12:53:30.131Z</time></trkpt><trkpt lat="43.2107583" lon="10.8501417"><ele>466.6</ele><time>2026-04-25T12:53:32.136Z</time></trkpt><trkpt lat="43.210735" lon="10.8499733"><ele>466.40000000000003</ele><time>2026-04-25T12:53:34.121Z</time></trkpt><trkpt lat="43.210715" lon="10.8498867"><ele>466.20000000000005</ele><time>2026-04-25T12:53:35.126Z</time></trkpt><trkpt lat="43.2106967" lon="10.8498017"><ele>466.0</ele><time>2026-04-25T12:53:36.134Z</time></trkpt><trkpt lat="43.2106733" lon="10.84964"><ele>464.0</ele><time>2026-04-25T12:53:38.13Z</time></trkpt><trkpt lat="43.2106517" lon="10.8494917"><ele>462.0</ele><time>2026-04-25T12:53:40.125Z</time></trkpt><trkpt lat="43.2106333" lon="10.849355"><ele>460.0</ele><time>2026-04-25T12:53:42.128Z</time></trkpt><trkpt lat="43.2106117" lon="10.84922"><ele>458.0</ele><time>2026-04-25T12:53:44.135Z</time></trkpt><trkpt lat="43.21059" lon="10.8490867"><ele>456.0</ele><time>2026-04-25T12:53:46.137Z</time></trkpt><trkpt lat="43.21057" lon="10.84896"><ele>454.8</ele><time>2026-04-25T12:53:48.135Z</time></trkpt><trkpt lat="43.2105417" lon="10.8488317"><ele>453.6</ele><time>2026-04-25T12:53:50.142Z</time></trkpt><trkpt lat="43.2105133" lon="10.848695"><ele>452.4</ele><time>2026-04-25T12:53:52.14Z</time></trkpt><trkpt lat="43.210485" lon="10.8485517"><ele>451.2</ele><time>2026-04-25T12:53:54.132Z</time></trkpt><trkpt lat="43.21046" lon="10.8484133"><ele>450.0</ele><time>2026-04-25T12:53:56.125Z</time></trkpt><trkpt lat="43.2104333" lon="10.8482783"><ele>447.6</ele><time>2026-04-25T12:53:58.128Z</time></trkpt><trkpt lat="43.2104067" lon="10.8481417"><ele>445.2</ele><time>2026-04-25T12:54:00.136Z</time></trkpt><trkpt lat="43.2103783" lon="10.8479767"><ele>442.79999999999995</ele><time>2026-04-25T12:54:02.13Z</time></trkpt><trkpt lat="43.210365" lon="10.847875"><ele>440.4</ele><time>2026-04-25T12:54:03.136Z</time></trkpt><trkpt lat="43.2103483" lon="10.8477633"><ele>438.0</ele><time>2026-04-25T12:54:04.14Z</time></trkpt><trkpt lat="43.2103333" lon="10.8476567"><ele>436.4</ele><time>2026-04-25T12:54:05.138Z</time></trkpt><trkpt lat="43.210305" lon="10.8474583"><ele>434.79999999999995</ele><time>2026-04-25T12:54:07.137Z</time></trkpt><trkpt lat="43.21029" lon="10.847365"><ele>433.2</ele><time>2026-04-25T12:54:08.134Z</time></trkpt><trkpt lat="43.2102717" lon="10.847275"><ele>431.6</ele><time>2026-04-25T12:54:09.129Z</time></trkpt><trkpt lat="43.2102517" lon="10.8471883"><ele>430.0</ele><time>2026-04-25T12:54:10.13Z</time></trkpt><trkpt lat="43.210205" lon="10.8470283"><ele>430.00000000000006</ele><time>2026-04-25T12:54:12.132Z</time></trkpt><trkpt lat="43.2101817" lon="10.8469467"><ele>430.0</ele><time>2026-04-25T12:54:13.13Z</time></trkpt><trkpt lat="43.2101633" lon="10.8467767"><ele>430.0</ele><time>2026-04-25T12:54:15.125Z</time></trkpt><trkpt lat="43.210175" lon="10.84668"><ele>430.0</ele><time>2026-04-25T12:54:16.136Z</time></trkpt><trkpt lat="43.2101933" lon="10.8465767"><ele>430.00000000000006</ele><time>2026-04-25T12:54:17.126Z</time></trkpt><trkpt lat="43.2102167" lon="10.84648"><ele>430.0</ele><time>2026-04-25T12:54:18.131Z</time></trkpt><trkpt lat="43.2102417" lon="10.8463933"><ele>429.0</ele><time>2026-04-25T12:54:19.128Z</time></trkpt><trkpt lat="43.210315" lon="10.8462583"><ele>428.0</ele><time>2026-04-25T12:54:21.125Z</time></trkpt><trkpt lat="43.2104183" lon="10.8461633"><ele>427.0</ele><time>2026-04-25T12:54:23.132Z</time></trkpt><trkpt lat="43.21048" lon="10.8461317"><ele>426.0</ele><time>2026-04-25T12:54:24.124Z</time></trkpt><trkpt lat="43.2105433" lon="10.8461133"><ele>425.0</ele><time>2026-04-25T12:54:25.123Z</time></trkpt><trkpt lat="43.2106633" lon="10.84611"><ele>424.6</ele><time>2026-04-25T12:54:27.129Z</time></trkpt><trkpt lat="43.2107767" lon="10.846145"><ele>424.2</ele><time>2026-04-25T12:54:29.126Z</time></trkpt><trkpt lat="43.2108733" lon="10.8461717"><ele>423.79999999999995</ele><time>2026-04-25T12:54:31.124Z</time></trkpt><trkpt lat="43.2109717" lon="10.846165"><ele>423.4</ele><time>2026-04-25T12:54:33.129Z</time></trkpt><trkpt lat="43.2110367" lon="10.8460867"><ele>423.0</ele><time>2026-04-25T12:54:35.121Z</time></trkpt><trkpt lat="43.2110633" lon="10.8459483"><ele>422.1666666666667</ele><time>2026-04-25T12:54:37.129Z</time></trkpt><trkpt lat="43.21107" lon="10.84586"><ele>421.33333333333337</ele><time>2026-04-25T12:54:38.129Z</time></trkpt><trkpt lat="43.2110733" lon="10.8457683"><ele>420.5</ele><time>2026-04-25T12:54:39.123Z</time></trkpt><trkpt lat="43.2110767" lon="10.8456783"><ele>419.6666666666667</ele><time>2026-04-25T12:54:40.128Z</time></trkpt><trkpt lat="43.2110817" lon="10.84559"><ele>418.83333333333337</ele><time>2026-04-25T12:54:41.127Z</time></trkpt><trkpt lat="43.2110883" lon="10.8454217"><ele>418.0</ele><time>2026-04-25T12:54:43.133Z</time></trkpt><trkpt lat="43.2110917" lon="10.8452633"><ele>416.6666666666667</ele><time>2026-04-25T12:54:45.14Z</time></trkpt><trkpt lat="43.211105" lon="10.8451233"><ele>415.33333333333337</ele><time>2026-04-25T12:54:47.13Z</time></trkpt><trkpt lat="43.21112" lon="10.84503"><ele>414.0</ele><time>2026-04-25T12:54:49.132Z</time></trkpt><trkpt lat="43.2111233" lon="10.8449067"><ele>412.66666666666663</ele><time>2026-04-25T12:54:52.13Z</time></trkpt><trkpt lat="43.2110967" lon="10.8448033"><ele>411.3333333333333</ele><time>2026-04-25T12:54:55.128Z</time></trkpt><trkpt lat="43.211055" lon="10.8446967"><ele>410.0</ele><time>2026-04-25T12:54:58.125Z</time></trkpt><trkpt lat="43.2110067" lon="10.844595"><ele>410.0</ele><time>2026-04-25T12:55:01.111Z</time></trkpt><trkpt lat="43.210975" lon="10.8445183"><ele>410.0</ele><time>2026-04-25T12:55:03.112Z</time></trkpt><trkpt lat="43.210945" lon="10.84444"><ele>410.0</ele><time>2026-04-25T12:55:05.112Z</time></trkpt><trkpt lat="43.21091" lon="10.844355"><ele>410.0</ele><time>2026-04-25T12:55:07.119Z</time></trkpt><trkpt lat="43.21087" lon="10.84427"><ele>410.0</ele><time>2026-04-25T12:55:09.116Z</time></trkpt><trkpt lat="43.2108217" lon="10.8441667"><ele>410.0</ele><time>2026-04-25T12:55:12.116Z</time></trkpt><trkpt lat="43.2107783" lon="10.8440983"><ele>410.0</ele><time>2026-04-25T12:55:14.12Z</time></trkpt><trkpt lat="43.2107167" lon="10.8440117"><ele>409.0</ele><time>2026-04-25T12:55:16.116Z</time></trkpt><trkpt lat="43.2106517" lon="10.84392"><ele>408.0</ele><time>2026-04-25T12:55:18.126Z</time></trkpt><trkpt lat="43.2105817" lon="10.8438267"><ele>407.0</ele><time>2026-04-25T12:55:20.123Z</time></trkpt><trkpt lat="43.21051" lon="10.8437417"><ele>406.0</ele><time>2026-04-25T12:55:22.125Z</time></trkpt><trkpt lat="43.210435" lon="10.84364"><ele>405.0</ele><time>2026-04-25T12:55:24.132Z</time></trkpt><trkpt lat="43.2103783" lon="10.8435369"><ele>403.2</ele><time>2026-04-25T12:55:26.137Z</time></trkpt><trkpt lat="43.2103394" lon="10.8434128"><ele>401.4</ele><time>2026-04-25T12:55:28.125Z</time></trkpt><trkpt lat="43.2103104" lon="10.8432723"><ele>399.6</ele><time>2026-04-25T12:55:30.128Z</time></trkpt><trkpt lat="43.2102932" lon="10.8431237"><ele>397.8</ele><time>2026-04-25T12:55:32.133Z</time></trkpt><trkpt lat="43.2102761" lon="10.8429768"><ele>396.0</ele><time>2026-04-25T12:55:34.121Z</time></trkpt><trkpt lat="43.2102701" lon="10.8428273"><ele>396.0</ele><time>2026-04-25T12:55:36.132Z</time></trkpt><trkpt lat="43.2102764" lon="10.8426748"><ele>396.0</ele><time>2026-04-25T12:55:38.133Z</time></trkpt><trkpt lat="43.2103029" lon="10.8425379"><ele>396.0</ele><time>2026-04-25T12:55:40.132Z</time></trkpt><trkpt lat="43.2103346" lon="10.8424045"><ele>396.0</ele><time>2026-04-25T12:55:42.131Z</time></trkpt><trkpt lat="43.2103636" lon="10.8422914"><ele>396.0</ele><time>2026-04-25T12:55:44.124Z</time></trkpt><trkpt lat="43.2103841" lon="10.8421821"><ele>395.0</ele><time>2026-04-25T12:55:46.135Z</time></trkpt><trkpt lat="43.2104201" lon="10.8420579"><ele>394.0</ele><time>2026-04-25T12:55:48.139Z</time></trkpt><trkpt lat="43.2104588" lon="10.8419031"><ele>393.0</ele><time>2026-04-25T12:55:50.127Z</time></trkpt><trkpt lat="43.210478" lon="10.8418158"><ele>392.0</ele><time>2026-04-25T12:55:51.137Z</time></trkpt><trkpt lat="43.2104967" lon="10.8417259"><ele>391.0</ele><time>2026-04-25T12:55:52.142Z</time></trkpt><trkpt lat="43.2105159" lon="10.8416399"><ele>390.0</ele><time>2026-04-25T12:55:53.132Z</time></trkpt><trkpt lat="43.2105383" lon="10.8415533"><ele>389.57142857142856</ele><time>2026-04-25T12:55:54.136Z</time></trkpt><trkpt lat="43.2105517" lon="10.8414667"><ele>389.1428571428571</ele><time>2026-04-25T12:55:55.137Z</time></trkpt><trkpt lat="43.2105633" lon="10.841375"><ele>388.7142857142857</ele><time>2026-04-25T12:55:56.119Z</time></trkpt><trkpt lat="43.2105783" lon="10.8412783"><ele>388.2857142857143</ele><time>2026-04-25T12:55:57.119Z</time></trkpt><trkpt lat="43.210595" lon="10.8411783"><ele>387.8571428571429</ele><time>2026-04-25T12:55:58.126Z</time></trkpt><trkpt lat="43.2106167" lon="10.8410783"><ele>387.42857142857144</ele><time>2026-04-25T12:55:59.125Z</time></trkpt><trkpt lat="43.2106383" lon="10.8409833"><ele>387.0</ele><time>2026-04-25T12:56:00.123Z</time></trkpt><trkpt lat="43.2106567" lon="10.8408983"><ele>385.0</ele><time>2026-04-25T12:56:01.136Z</time></trkpt><trkpt lat="43.21068" lon="10.8407383"><ele>383.0</ele><time>2026-04-25T12:56:03.13Z</time></trkpt><trkpt lat="43.2107033" lon="10.84059"><ele>381.0</ele><time>2026-04-25T12:56:05.126Z</time></trkpt><trkpt lat="43.2107217" lon="10.8404517"><ele>379.0</ele><time>2026-04-25T12:56:07.148Z</time></trkpt><trkpt lat="43.210725" lon="10.8403133"><ele>377.0</ele><time>2026-04-25T12:56:09.132Z</time></trkpt><trkpt lat="43.21071" lon="10.840165"><ele>376.0</ele><time>2026-04-25T12:56:11.128Z</time></trkpt><trkpt lat="43.210685" lon="10.84001"><ele>375.0</ele><time>2026-04-25T12:56:13.15Z</time></trkpt><trkpt lat="43.2106483" lon="10.8398483"><ele>374.0</ele><time>2026-04-25T12:56:15.137Z</time></trkpt><trkpt lat="43.21061" lon="10.8396917"><ele>373.0</ele><time>2026-04-25T12:56:17.145Z</time></trkpt><trkpt lat="43.2105817" lon="10.8395483"><ele>373.0</ele><time>2026-04-25T12:56:19.122Z</time></trkpt><trkpt lat="43.2105583" lon="10.8393967"><ele>373.0</ele><time>2026-04-25T12:56:21.126Z</time></trkpt><trkpt lat="43.210535" lon="10.8392383"><ele>373.0</ele><time>2026-04-25T12:56:23.13Z</time></trkpt><trkpt lat="43.2105167" lon="10.8390867"><ele>373.0</ele><time>2026-04-25T12:56:25.127Z</time></trkpt><trkpt lat="43.210505" lon="10.8389567"><ele>373.0</ele><time>2026-04-25T12:56:27.129Z</time></trkpt><trkpt lat="43.2104717" lon="10.8388517"><ele>371.2</ele><time>2026-04-25T12:56:29.13Z</time></trkpt><trkpt lat="43.210385" lon="10.838775"><ele>369.4</ele><time>2026-04-25T12:56:31.131Z</time></trkpt><trkpt lat="43.210275" lon="10.83873"><ele>367.59999999999997</ele><time>2026-04-25T12:56:33.143Z</time></trkpt><trkpt lat="43.210165" lon="10.8386683"><ele>365.79999999999995</ele><time>2026-04-25T12:56:35.126Z</time></trkpt><trkpt lat="43.2101083" lon="10.8386217"><ele>364.0</ele><time>2026-04-25T12:56:36.138Z</time></trkpt><trkpt lat="43.2100533" lon="10.8385683"><ele>364.0</ele><time>2026-04-25T12:56:37.137Z</time></trkpt><trkpt lat="43.210005" lon="10.8385117"><ele>364.0</ele><time>2026-04-25T12:56:38.132Z</time></trkpt><trkpt lat="43.2099217" lon="10.838405"><ele>364.0</ele><time>2026-04-25T12:56:40.127Z</time></trkpt><trkpt lat="43.20985" lon="10.8383"><ele>364.0</ele><time>2026-04-25T12:56:42.121Z</time></trkpt><trkpt lat="43.20977" lon="10.8382083"><ele>364.0</ele><time>2026-04-25T12:56:44.128Z</time></trkpt><trkpt lat="43.2096767" lon="10.8381633"><ele>360.3333333333333</ele><time>2026-04-25T12:56:46.127Z</time></trkpt><trkpt lat="43.209595" lon="10.8381383"><ele>356.66666666666663</ele><time>2026-04-25T12:56:48.129Z</time></trkpt><trkpt lat="43.209515" lon="10.8381267"><ele>353.0</ele><time>2026-04-25T12:56:50.128Z</time></trkpt><trkpt lat="43.2094383" lon="10.8381067"><ele>349.3333333333333</ele><time>2026-04-25T12:56:52.132Z</time></trkpt><trkpt lat="43.2093717" lon="10.8381183"><ele>345.6666666666667</ele><time>2026-04-25T12:56:54.134Z</time></trkpt><trkpt lat="43.2092933" lon="10.8381667"><ele>342.0</ele><time>2026-04-25T12:56:56.132Z</time></trkpt><trkpt lat="43.2091967" lon="10.8382033"><ele>342.0</ele><time>2026-04-25T12:56:58.135Z</time></trkpt><trkpt lat="43.2091067" lon="10.8382283"><ele>342.0</ele><time>2026-04-25T12:57:00.13Z</time></trkpt><trkpt lat="43.2090283" lon="10.8382533"><ele>342.0</ele><time>2026-04-25T12:57:02.131Z</time></trkpt><trkpt lat="43.208955" lon="10.8382733"><ele>342.0</ele><time>2026-04-25T12:57:04.13Z</time></trkpt><trkpt lat="43.2088817" lon="10.838295"><ele>342.0</ele><time>2026-04-25T12:57:06.138Z</time></trkpt><trkpt lat="43.2088" lon="10.83833"><ele>342.0</ele><time>2026-04-25T12:57:08.121Z</time></trkpt><trkpt lat="43.208695" lon="10.83837"><ele>339.5</ele><time>2026-04-25T12:57:10.126Z</time></trkpt><trkpt lat="43.2086307" lon="10.8383864"><ele>337.0</ele><time>2026-04-25T12:57:11.126Z</time></trkpt><trkpt lat="43.2085608" lon="10.8383921"><ele>334.5</ele><time>2026-04-25T12:57:12.122Z</time></trkpt><trkpt lat="43.2084876" lon="10.8383907"><ele>332.0</ele><time>2026-04-25T12:57:13.133Z</time></trkpt><trkpt lat="43.208416" lon="10.8383794"><ele>329.5</ele><time>2026-04-25T12:57:14.128Z</time></trkpt><trkpt lat="43.2083032" lon="10.8383401"><ele>327.0</ele><time>2026-04-25T12:57:16.12Z</time></trkpt><trkpt lat="43.2081955" lon="10.8383048"><ele>325.20000000000005</ele><time>2026-04-25T12:57:18.125Z</time></trkpt><trkpt lat="43.2080944" lon="10.8382691"><ele>323.40000000000003</ele><time>2026-04-25T12:57:20.129Z</time></trkpt><trkpt lat="43.2079974" lon="10.8382215"><ele>321.6</ele><time>2026-04-25T12:57:22.12Z</time></trkpt><trkpt lat="43.2079023" lon="10.8381808"><ele>319.8</ele><time>2026-04-25T12:57:24.121Z</time></trkpt><trkpt lat="43.2078026" lon="10.8381422"><ele>318.0</ele><time>2026-04-25T12:57:26.135Z</time></trkpt><trkpt lat="43.20769" lon="10.83811"><ele>318.0</ele><time>2026-04-25T12:57:28.12Z</time></trkpt><trkpt lat="43.2076283" lon="10.8380917"><ele>318.0</ele><time>2026-04-25T12:57:29.129Z</time></trkpt><trkpt lat="43.2075667" lon="10.83807"><ele>318.0</ele><time>2026-04-25T12:57:30.13Z</time></trkpt><trkpt lat="43.2074433" lon="10.8380333"><ele>318.0</ele><time>2026-04-25T12:57:32.133Z</time></trkpt><trkpt lat="43.20738" lon="10.838015"><ele>318.0</ele><time>2026-04-25T12:57:33.123Z</time></trkpt><trkpt lat="43.207275" lon="10.8379617"><ele>318.0</ele><time>2026-04-25T12:57:35.128Z</time></trkpt><trkpt lat="43.2071817" lon="10.8379083"><ele>316.8</ele><time>2026-04-25T12:57:37.132Z</time></trkpt><trkpt lat="43.2070567" lon="10.8378583"><ele>315.6</ele><time>2026-04-25T12:57:40.128Z</time></trkpt><trkpt lat="43.2069767" lon="10.8378383"><ele>314.4</ele><time>2026-04-25T12:57:42.122Z</time></trkpt><trkpt lat="43.2068883" lon="10.8378383"><ele>313.2</ele><time>2026-04-25T12:57:44.13Z</time></trkpt><trkpt lat="43.2068017" lon="10.8378867"><ele>312.0</ele><time>2026-04-25T12:57:46.139Z</time></trkpt><trkpt lat="43.2067167" lon="10.8379717"><ele>312.0</ele><time>2026-04-25T12:57:48.126Z</time></trkpt><trkpt lat="43.2066283" lon="10.8380583"><ele>312.0</ele><time>2026-04-25T12:57:50.131Z</time></trkpt><trkpt lat="43.2065417" lon="10.83808"><ele>312.0</ele><time>2026-04-25T12:57:52.125Z</time></trkpt><trkpt lat="43.20648" lon="10.83803"><ele>312.0</ele><time>2026-04-25T12:57:54.133Z</time></trkpt><trkpt lat="43.206425" lon="10.83795"><ele>312.0</ele><time>2026-04-25T12:57:56.134Z</time></trkpt><trkpt lat="43.206375" lon="10.8378717"><ele>312.0</ele><time>2026-04-25T12:57:58.129Z</time></trkpt><trkpt lat="43.2063133" lon="10.8377767"><ele>310.6</ele><time>2026-04-25T12:58:00.129Z</time></trkpt><trkpt lat="43.2062483" lon="10.8376733"><ele>309.2</ele><time>2026-04-25T12:58:02.111Z</time></trkpt><trkpt lat="43.2061933" lon="10.8375817"><ele>307.8</ele><time>2026-04-25T12:58:04.11Z</time></trkpt><trkpt lat="43.2061367" lon="10.8374733"><ele>306.4</ele><time>2026-04-25T12:58:06.112Z</time></trkpt><trkpt lat="43.2060767" lon="10.8373367"><ele>305.0</ele><time>2026-04-25T12:58:08.114Z</time></trkpt><trkpt lat="43.2060233" lon="10.8371967"><ele>305.0</ele><time>2026-04-25T12:58:10.123Z</time></trkpt><trkpt lat="43.2059733" lon="10.8370483"><ele>305.0</ele><time>2026-04-25T12:58:12.117Z</time></trkpt><trkpt lat="43.20591" lon="10.8369083"><ele>305.0</ele><time>2026-04-25T12:58:14.129Z</time></trkpt><trkpt lat="43.2058667" lon="10.83677"><ele>305.0</ele><time>2026-04-25T12:58:16.128Z</time></trkpt><trkpt lat="43.2058467" lon="10.8366367"><ele>305.0</ele><time>2026-04-25T12:58:18.129Z</time></trkpt><trkpt lat="43.2058567" lon="10.8365083"><ele>302.25</ele><time>2026-04-25T12:58:20.123Z</time></trkpt><trkpt lat="43.2058983" lon="10.8363767"><ele>299.5</ele><time>2026-04-25T12:58:22.126Z</time></trkpt><trkpt lat="43.2059567" lon="10.8362417"><ele>296.75</ele><time>2026-04-25T12:58:24.139Z</time></trkpt><trkpt lat="43.2060133" lon="10.8360967"><ele>294.0</ele><time>2026-04-25T12:58:26.119Z</time></trkpt><trkpt lat="43.2060567" lon="10.83594"><ele>292.6666666666667</ele><time>2026-04-25T12:58:28.124Z</time></trkpt><trkpt lat="43.206065" lon="10.83579"><ele>291.3333333333333</ele><time>2026-04-25T12:58:30.135Z</time></trkpt><trkpt lat="43.2060633" lon="10.83566"><ele>290.0</ele><time>2026-04-25T12:58:32.135Z</time></trkpt><trkpt lat="43.2060683" lon="10.8355517"><ele>288.66666666666663</ele><time>2026-04-25T12:58:34.134Z</time></trkpt><trkpt lat="43.2060833" lon="10.8354667"><ele>287.3333333333333</ele><time>2026-04-25T12:58:36.138Z</time></trkpt><trkpt lat="43.20607" lon="10.83537"><ele>286.0</ele><time>2026-04-25T12:58:39.13Z</time></trkpt><trkpt lat="43.205965" lon="10.8352833"><ele>286.0</ele><time>2026-04-25T12:58:48.117Z</time></trkpt><trkpt lat="43.2058917" lon="10.8352083"><ele>286.0</ele><time>2026-04-25T12:58:51.123Z</time></trkpt><trkpt lat="43.2058833" lon="10.8350817"><ele>286.0</ele><time>2026-04-25T12:58:54.123Z</time></trkpt><trkpt lat="43.2058817" lon="10.834955"><ele>286.0</ele><time>2026-04-25T12:58:56.126Z</time></trkpt><trkpt lat="43.2058683" lon="10.8348"><ele>286.0</ele><time>2026-04-25T12:58:58.123Z</time></trkpt><trkpt lat="43.205845" lon="10.834645"><ele>284.8333333333333</ele><time>2026-04-25T12:59:00.123Z</time></trkpt><trkpt lat="43.2058267" lon="10.8344967"><ele>283.66666666666663</ele><time>2026-04-25T12:59:02.12Z</time></trkpt><trkpt lat="43.2058133" lon="10.8343567"><ele>282.5</ele><time>2026-04-25T12:59:04.121Z</time></trkpt><trkpt lat="43.2058133" lon="10.8342367"><ele>281.3333333333333</ele><time>2026-04-25T12:59:06.132Z</time></trkpt><trkpt lat="43.2057967" lon="10.8341483"><ele>280.1666666666667</ele><time>2026-04-25T12:59:08.128Z</time></trkpt><trkpt lat="43.20574" lon="10.834085"><ele>279.0</ele><time>2026-04-25T12:59:11.131Z</time></trkpt><trkpt lat="43.205645" lon="10.8340233"><ele>278.2857142857143</ele><time>2026-04-25T12:59:29.138Z</time></trkpt><trkpt lat="43.20558" lon="10.8339733"><ele>277.57142857142856</ele><time>2026-04-25T12:59:32.125Z</time></trkpt><trkpt lat="43.20552" lon="10.8339133"><ele>276.8571428571429</ele><time>2026-04-25T12:59:35.134Z</time></trkpt><trkpt lat="43.2054767" lon="10.83384"><ele>276.1428571428571</ele><time>2026-04-25T12:59:43.139Z</time></trkpt><trkpt lat="43.2054383" lon="10.8337667"><ele>275.42857142857144</ele><time>2026-04-25T12:59:45.134Z</time></trkpt><trkpt lat="43.2054067" lon="10.833685"><ele>274.7142857142857</ele><time>2026-04-25T12:59:47.135Z</time></trkpt><trkpt lat="43.2053767" lon="10.8336"><ele>274.0</ele><time>2026-04-25T12:59:49.126Z</time></trkpt><trkpt lat="43.2053383" lon="10.8334917"><ele>273.66666666666663</ele><time>2026-04-25T12:59:52.127Z</time></trkpt><trkpt lat="43.2052983" lon="10.833385"><ele>273.3333333333333</ele><time>2026-04-25T12:59:55.143Z</time></trkpt><trkpt lat="43.205235" lon="10.8332933"><ele>273.0</ele><time>2026-04-25T12:59:58.126Z</time></trkpt><trkpt lat="43.205175" lon="10.8332267"><ele>272.6666666666667</ele><time>2026-04-25T13:00:00.13Z</time></trkpt><trkpt lat="43.2051117" lon="10.8331617"><ele>272.33333333333337</ele><time>2026-04-25T13:00:02.129Z</time></trkpt><trkpt lat="43.2050483" lon="10.8330917"><ele>272.0</ele><time>2026-04-25T13:00:04.13Z</time></trkpt><trkpt lat="43.20498" lon="10.8330133"><ele>272.0</ele><time>2026-04-25T13:00:06.136Z</time></trkpt><trkpt lat="43.2049" lon="10.8329717"><ele>272.0</ele><time>2026-04-25T13:00:08.128Z</time></trkpt><trkpt lat="43.2048167" lon="10.83296"><ele>272.0</ele><time>2026-04-25T13:00:10.132Z</time></trkpt><trkpt lat="43.2047383" lon="10.83295"><ele>272.0</ele><time>2026-04-25T13:00:12.13Z</time></trkpt><trkpt lat="43.20467" lon="10.832935"><ele>272.0</ele><time>2026-04-25T13:00:14.131Z</time></trkpt><trkpt lat="43.204605" lon="10.8329333"><ele>272.0</ele><time>2026-04-25T13:00:16.13Z</time></trkpt><trkpt lat="43.2045267" lon="10.8329233"><ele>271.83333333333337</ele><time>2026-04-25T13:00:18.133Z</time></trkpt><trkpt lat="43.2044433" lon="10.8328867"><ele>271.6666666666667</ele><time>2026-04-25T13:00:20.126Z</time></trkpt><trkpt lat="43.2043567" lon="10.8328283"><ele>271.5</ele><time>2026-04-25T13:00:22.127Z</time></trkpt><trkpt lat="43.2042733" lon="10.8327733"><ele>271.3333333333333</ele><time>2026-04-25T13:00:24.121Z</time></trkpt><trkpt lat="43.2041983" lon="10.8327183"><ele>271.16666666666663</ele><time>2026-04-25T13:00:26.129Z</time></trkpt><trkpt lat="43.2041217" lon="10.83266"><ele>271.0</ele><time>2026-04-25T13:00:28.119Z</time></trkpt><trkpt lat="43.204045" lon="10.8325983"><ele>271.5</ele><time>2026-04-25T13:00:30.13Z</time></trkpt><trkpt lat="43.20398" lon="10.832525"><ele>272.0</ele><time>2026-04-25T13:00:32.132Z</time></trkpt><trkpt lat="43.203915" lon="10.8324417"><ele>272.5</ele><time>2026-04-25T13:00:34.127Z</time></trkpt><trkpt lat="43.2038583" lon="10.8323567"><ele>273.0</ele><time>2026-04-25T13:00:36.122Z</time></trkpt><trkpt lat="43.2037967" lon="10.832265"><ele>273.5</ele><time>2026-04-25T13:00:38.125Z</time></trkpt><trkpt lat="43.2037367" lon="10.8321717"><ele>274.0</ele><time>2026-04-25T13:00:40.125Z</time></trkpt><trkpt lat="43.2036833" lon="10.83208"><ele>274.0</ele><time>2026-04-25T13:00:42.13Z</time></trkpt><trkpt lat="43.20364" lon="10.8319883"><ele>274.0</ele><time>2026-04-25T13:00:44.142Z</time></trkpt><trkpt lat="43.2035983" lon="10.8318967"><ele>274.0</ele><time>2026-04-25T13:00:46.124Z</time></trkpt><trkpt lat="43.203545" lon="10.8318"><ele>274.0</ele><time>2026-04-25T13:00:48.134Z</time></trkpt><trkpt lat="43.2034667" lon="10.8317067"><ele>274.0</ele><time>2026-04-25T13:00:50.129Z</time></trkpt><trkpt lat="43.2033733" lon="10.8316117"><ele>274.25</ele><time>2026-04-25T13:00:52.132Z</time></trkpt><trkpt lat="43.203265" lon="10.8315467"><ele>274.5</ele><time>2026-04-25T13:00:54.131Z</time></trkpt><trkpt lat="43.203155" lon="10.831535"><ele>274.75</ele><time>2026-04-25T13:00:56.123Z</time></trkpt><trkpt lat="43.2030417" lon="10.8315433"><ele>275.0</ele><time>2026-04-25T13:00:58.126Z</time></trkpt><trkpt lat="43.2029317" lon="10.83151"><ele>275.0</ele><time>2026-04-25T13:01:00.133Z</time></trkpt><trkpt lat="43.202825" lon="10.831435"><ele>275.0</ele><time>2026-04-25T13:01:02.138Z</time></trkpt><trkpt lat="43.2027667" lon="10.831385"><ele>275.0</ele><time>2026-04-25T13:01:03.131Z</time></trkpt><trkpt lat="43.20271" lon="10.831325"><ele>275.0</ele><time>2026-04-25T13:01:04.129Z</time></trkpt><trkpt lat="43.2026517" lon="10.83127"><ele>275.0</ele><time>2026-04-25T13:01:05.129Z</time></trkpt><trkpt lat="43.2025883" lon="10.8312083"><ele>275.0</ele><time>2026-04-25T13:01:06.131Z</time></trkpt><trkpt lat="43.2025217" lon="10.831145"><ele>275.0</ele><time>2026-04-25T13:01:07.139Z</time></trkpt><trkpt lat="43.2024533" lon="10.8310783"><ele>275.0</ele><time>2026-04-25T13:01:08.128Z</time></trkpt><trkpt lat="43.2023883" lon="10.83101"><ele>275.0</ele><time>2026-04-25T13:01:09.123Z</time></trkpt><trkpt lat="43.2023233" lon="10.8309417"><ele>275.0</ele><time>2026-04-25T13:01:10.123Z</time></trkpt><trkpt lat="43.2022583" lon="10.8308767"><ele>275.0</ele><time>2026-04-25T13:01:11.128Z</time></trkpt><trkpt lat="43.2021867" lon="10.830815"><ele>275.0</ele><time>2026-04-25T13:01:12.121Z</time></trkpt><trkpt lat="43.2021183" lon="10.8307533"><ele>274.1666666666667</ele><time>2026-04-25T13:01:13.124Z</time></trkpt><trkpt lat="43.2020533" lon="10.8307017"><ele>273.33333333333337</ele><time>2026-04-25T13:01:14.128Z</time></trkpt><trkpt lat="43.2019867" lon="10.8306483"><ele>272.5</ele><time>2026-04-25T13:01:15.131Z</time></trkpt><trkpt lat="43.201915" lon="10.8305967"><ele>271.6666666666667</ele><time>2026-04-25T13:01:16.129Z</time></trkpt><trkpt lat="43.20184" lon="10.8305483"><ele>270.8333333333333</ele><time>2026-04-25T13:01:17.128Z</time></trkpt><trkpt lat="43.2017583" lon="10.8305083"><ele>270.0</ele><time>2026-04-25T13:01:18.124Z</time></trkpt><trkpt lat="43.2016733" lon="10.8304733"><ele>270.0</ele><time>2026-04-25T13:01:19.121Z</time></trkpt><trkpt lat="43.20159" lon="10.8304467"><ele>270.0</ele><time>2026-04-25T13:01:20.128Z</time></trkpt><trkpt lat="43.201505" lon="10.8304233"><ele>270.0</ele><time>2026-04-25T13:01:21.116Z</time></trkpt><trkpt lat="43.20142" lon="10.830405"><ele>270.0</ele><time>2026-04-25T13:01:22.128Z</time></trkpt><trkpt lat="43.20134" lon="10.830395"><ele>270.0</ele><time>2026-04-25T13:01:23.13Z</time></trkpt><trkpt lat="43.2012617" lon="10.8303917"><ele>270.0</ele><time>2026-04-25T13:01:24.141Z</time></trkpt><trkpt lat="43.2011817" lon="10.8303833"><ele>271.8333333333333</ele><time>2026-04-25T13:01:25.139Z</time></trkpt><trkpt lat="43.201105" lon="10.8303717"><ele>273.6666666666667</ele><time>2026-04-25T13:01:26.135Z</time></trkpt><trkpt lat="43.2010283" lon="10.830365"><ele>275.5</ele><time>2026-04-25T13:01:27.127Z</time></trkpt><trkpt lat="43.2009533" lon="10.830365"><ele>277.33333333333337</ele><time>2026-04-25T13:01:28.131Z</time></trkpt><trkpt lat="43.2008783" lon="10.830375"><ele>279.1666666666667</ele><time>2026-04-25T13:01:29.136Z</time></trkpt><trkpt lat="43.2008" lon="10.8303983"><ele>281.0</ele><time>2026-04-25T13:01:30.128Z</time></trkpt><trkpt lat="43.2007267" lon="10.83045"><ele>280.8</ele><time>2026-04-25T13:01:31.137Z</time></trkpt><trkpt lat="43.200655" lon="10.830525"><ele>280.6</ele><time>2026-04-25T13:01:32.128Z</time></trkpt><trkpt lat="43.2005833" lon="10.83061"><ele>280.4</ele><time>2026-04-25T13:01:33.128Z</time></trkpt><trkpt lat="43.2005117" lon="10.830695"><ele>280.2</ele><time>2026-04-25T13:01:34.126Z</time></trkpt><trkpt lat="43.2004417" lon="10.83078"><ele>280.0</ele><time>2026-04-25T13:01:35.133Z</time></trkpt><trkpt lat="43.2003683" lon="10.8308583"><ele>280.0</ele><time>2026-04-25T13:01:36.132Z</time></trkpt><trkpt lat="43.2002917" lon="10.8309217"><ele>280.0</ele><time>2026-04-25T13:01:37.128Z</time></trkpt><trkpt lat="43.2002117" lon="10.830965"><ele>280.0</ele><time>2026-04-25T13:01:38.126Z</time></trkpt><trkpt lat="43.200125" lon="10.8309967"><ele>280.0</ele><time>2026-04-25T13:01:39.123Z</time></trkpt><trkpt lat="43.2000367" lon="10.8310267"><ele>280.0</ele><time>2026-04-25T13:01:40.125Z</time></trkpt><trkpt lat="43.1999567" lon="10.8310567"><ele>280.0</ele><time>2026-04-25T13:01:41.123Z</time></trkpt><trkpt lat="43.1998833" lon="10.8310833"><ele>280.3333333333333</ele><time>2026-04-25T13:01:42.137Z</time></trkpt><trkpt lat="43.1998183" lon="10.83111"><ele>280.66666666666663</ele><time>2026-04-25T13:01:43.123Z</time></trkpt><trkpt lat="43.19976" lon="10.8311433"><ele>281.0</ele><time>2026-04-25T13:01:44.127Z</time></trkpt><trkpt lat="43.1996667" lon="10.8312233"><ele>281.3333333333333</ele><time>2026-04-25T13:01:46.135Z</time></trkpt><trkpt lat="43.19959" lon="10.83134"><ele>281.6666666666667</ele><time>2026-04-25T13:01:48.123Z</time></trkpt><trkpt lat="43.1995467" lon="10.8314233"><ele>282.0</ele><time>2026-04-25T13:01:49.138Z</time></trkpt><trkpt lat="43.1995017" lon="10.8315217"><ele>282.0</ele><time>2026-04-25T13:01:50.129Z</time></trkpt><trkpt lat="43.199455" lon="10.8316283"><ele>282.0</ele><time>2026-04-25T13:01:51.132Z</time></trkpt><trkpt lat="43.1994083" lon="10.8317367"><ele>282.0</ele><time>2026-04-25T13:01:52.126Z</time></trkpt><trkpt lat="43.1993567" lon="10.831835"><ele>282.0</ele><time>2026-04-25T13:01:53.127Z</time></trkpt><trkpt lat="43.1992967" lon="10.8319233"><ele>282.0</ele><time>2026-04-25T13:01:54.129Z</time></trkpt><trkpt lat="43.19923" lon="10.8319933"><ele>282.0</ele><time>2026-04-25T13:01:55.134Z</time></trkpt><trkpt lat="43.19916" lon="10.8320483"><ele>281.5</ele><time>2026-04-25T13:01:56.135Z</time></trkpt><trkpt lat="43.1990883" lon="10.8320867"><ele>281.0</ele><time>2026-04-25T13:01:57.132Z</time></trkpt><trkpt lat="43.1990117" lon="10.8321167"><ele>280.5</ele><time>2026-04-25T13:01:58.122Z</time></trkpt><trkpt lat="43.1989317" lon="10.8321433"><ele>280.0</ele><time>2026-04-25T13:01:59.118Z</time></trkpt><trkpt lat="43.198845" lon="10.8321717"><ele>279.5</ele><time>2026-04-25T13:02:00.126Z</time></trkpt><trkpt lat="43.19876" lon="10.8322017"><ele>279.0</ele><time>2026-04-25T13:02:01.127Z</time></trkpt><trkpt lat="43.19868" lon="10.8322267"><ele>278.99999999999994</ele><time>2026-04-25T13:02:02.125Z</time></trkpt><trkpt lat="43.1986033" lon="10.8322483"><ele>279.0</ele><time>2026-04-25T13:02:03.126Z</time></trkpt><trkpt lat="43.1985317" lon="10.8322667"><ele>279.0</ele><time>2026-04-25T13:02:04.127Z</time></trkpt><trkpt lat="43.1984633" lon="10.8322817"><ele>279.0</ele><time>2026-04-25T13:02:05.13Z</time></trkpt><trkpt lat="43.1984" lon="10.8322967"><ele>279.0</ele><time>2026-04-25T13:02:06.127Z</time></trkpt><trkpt lat="43.1983383" lon="10.83232"><ele>278.99999999999994</ele><time>2026-04-25T13:02:07.128Z</time></trkpt><trkpt lat="43.19828" lon="10.8323567"><ele>279.0</ele><time>2026-04-25T13:02:08.127Z</time></trkpt><trkpt lat="43.19823" lon="10.8324133"><ele>279.0</ele><time>2026-04-25T13:02:09.13Z</time></trkpt><trkpt lat="43.1981817" lon="10.8324883"><ele>279.0</ele><time>2026-04-25T13:02:10.133Z</time></trkpt><trkpt lat="43.198135" lon="10.8325817"><ele>279.0</ele><time>2026-04-25T13:02:11.14Z</time></trkpt><trkpt lat="43.1980917" lon="10.8326867"><ele>279.0</ele><time>2026-04-25T13:02:12.134Z</time></trkpt><trkpt lat="43.1980533" lon="10.8328017"><ele>279.0</ele><time>2026-04-25T13:02:13.132Z</time></trkpt><trkpt lat="43.19801" lon="10.832915"><ele>279.0</ele><time>2026-04-25T13:02:14.145Z</time></trkpt><trkpt lat="43.1979683" lon="10.8330333"><ele>277.8</ele><time>2026-04-25T13:02:15.14Z</time></trkpt><trkpt lat="43.197925" lon="10.833155"><ele>276.59999999999997</ele><time>2026-04-25T13:02:16.13Z</time></trkpt><trkpt lat="43.1978817" lon="10.8332767"><ele>275.4</ele><time>2026-04-25T13:02:17.128Z</time></trkpt><trkpt lat="43.1978383" lon="10.8333967"><ele>274.2</ele><time>2026-04-25T13:02:18.136Z</time></trkpt><trkpt lat="43.1977933" lon="10.8335133"><ele>273.0</ele><time>2026-04-25T13:02:19.133Z</time></trkpt><trkpt lat="43.19775" lon="10.8336233"><ele>273.0</ele><time>2026-04-25T13:02:20.128Z</time></trkpt><trkpt lat="43.1977" lon="10.8337267"><ele>273.0</ele><time>2026-04-25T13:02:21.124Z</time></trkpt><trkpt lat="43.1976417" lon="10.8338167"><ele>273.0</ele><time>2026-04-25T13:02:22.127Z</time></trkpt><trkpt lat="43.1975683" lon="10.833895"><ele>273.0</ele><time>2026-04-25T13:02:23.13Z</time></trkpt><trkpt lat="43.1974867" lon="10.8339583"><ele>273.0</ele><time>2026-04-25T13:02:24.12Z</time></trkpt><trkpt lat="43.1973983" lon="10.83401"><ele>271.0</ele><time>2026-04-25T13:02:25.14Z</time></trkpt><trkpt lat="43.197305" lon="10.8340567"><ele>269.0</ele><time>2026-04-25T13:02:26.121Z</time></trkpt><trkpt lat="43.1972117" lon="10.8341"><ele>267.0</ele><time>2026-04-25T13:02:27.122Z</time></trkpt><trkpt lat="43.1971217" lon="10.8341433"><ele>265.0</ele><time>2026-04-25T13:02:28.14Z</time></trkpt><trkpt lat="43.1970383" lon="10.8341867"><ele>263.0</ele><time>2026-04-25T13:02:29.127Z</time></trkpt><trkpt lat="43.1969583" lon="10.83423"><ele>263.0</ele><time>2026-04-25T13:02:30.135Z</time></trkpt><trkpt lat="43.1968783" lon="10.8342733"><ele>263.0</ele><time>2026-04-25T13:02:31.141Z</time></trkpt><trkpt lat="43.1967967" lon="10.834315"><ele>263.0</ele><time>2026-04-25T13:02:32.131Z</time></trkpt><trkpt lat="43.1967117" lon="10.8343467"><ele>263.0</ele><time>2026-04-25T13:02:33.137Z</time></trkpt><trkpt lat="43.1966233" lon="10.8343583"><ele>263.0</ele><time>2026-04-25T13:02:34.128Z</time></trkpt><trkpt lat="43.196535" lon="10.8343467"><ele>263.0</ele><time>2026-04-25T13:02:35.128Z</time></trkpt><trkpt lat="43.1964567" lon="10.8343117"><ele>262.2</ele><time>2026-04-25T13:02:36.132Z</time></trkpt><trkpt lat="43.1963883" lon="10.834235"><ele>261.4</ele><time>2026-04-25T13:02:37.131Z</time></trkpt><trkpt lat="43.19633" lon="10.834115"><ele>260.59999999999997</ele><time>2026-04-25T13:02:38.13Z</time></trkpt><trkpt lat="43.1962767" lon="10.8339867"><ele>259.8</ele><time>2026-04-25T13:02:39.134Z</time></trkpt><trkpt lat="43.19622" lon="10.8338783"><ele>259.0</ele><time>2026-04-25T13:02:40.13Z</time></trkpt><trkpt lat="43.1961617" lon="10.8337833"><ele>259.0</ele><time>2026-04-25T13:02:41.127Z</time></trkpt><trkpt lat="43.1960917" lon="10.83369"><ele>259.0</ele><time>2026-04-25T13:02:42.136Z</time></trkpt><trkpt lat="43.1960183" lon="10.8335983"><ele>259.0</ele><time>2026-04-25T13:02:43.131Z</time></trkpt><trkpt lat="43.195935" lon="10.833515"><ele>259.0</ele><time>2026-04-25T13:02:44.13Z</time></trkpt><trkpt lat="43.19585" lon="10.833435"><ele>259.0</ele><time>2026-04-25T13:02:45.134Z</time></trkpt><trkpt lat="43.1957667" lon="10.8333567"><ele>258.59999999999997</ele><time>2026-04-25T13:02:46.141Z</time></trkpt><trkpt lat="43.1956833" lon="10.8332783"><ele>258.2</ele><time>2026-04-25T13:02:47.131Z</time></trkpt><trkpt lat="43.1956" lon="10.8332067"><ele>257.79999999999995</ele><time>2026-04-25T13:02:48.14Z</time></trkpt><trkpt lat="43.195515" lon="10.8331383"><ele>257.4</ele><time>2026-04-25T13:02:49.132Z</time></trkpt><trkpt lat="43.1954367" lon="10.833075"><ele>257.0</ele><time>2026-04-25T13:02:50.129Z</time></trkpt><trkpt lat="43.1953617" lon="10.83301"><ele>256.42857142857144</ele><time>2026-04-25T13:02:51.13Z</time></trkpt><trkpt lat="43.1952917" lon="10.8329517"><ele>255.8571428571429</ele><time>2026-04-25T13:02:52.132Z</time></trkpt><trkpt lat="43.1952283" lon="10.8328933"><ele>255.2857142857143</ele><time>2026-04-25T13:02:53.132Z</time></trkpt><trkpt lat="43.19517" lon="10.83284"><ele>254.71428571428572</ele><time>2026-04-25T13:02:54.123Z</time></trkpt><trkpt lat="43.19511" lon="10.8327883"><ele>254.14285714285717</ele><time>2026-04-25T13:02:55.122Z</time></trkpt><trkpt lat="43.195045" lon="10.8327433"><ele>253.5714285714286</ele><time>2026-04-25T13:02:56.134Z</time></trkpt><trkpt lat="43.1949783" lon="10.83271"><ele>253.00000000000003</ele><time>2026-04-25T13:02:57.124Z</time></trkpt><trkpt lat="43.1949033" lon="10.83269"><ele>252.8</ele><time>2026-04-25T13:02:58.134Z</time></trkpt><trkpt lat="43.1948167" lon="10.8326767"><ele>252.60000000000002</ele><time>2026-04-25T13:02:59.12Z</time></trkpt><trkpt lat="43.1947217" lon="10.83267"><ele>252.39999999999998</ele><time>2026-04-25T13:03:00.124Z</time></trkpt><trkpt lat="43.1946117" lon="10.8326567"><ele>252.2</ele><time>2026-04-25T13:03:01.126Z</time></trkpt><trkpt lat="43.1944967" lon="10.8326183"><ele>252.0</ele><time>2026-04-25T13:03:02.119Z</time></trkpt><trkpt lat="43.194375" lon="10.83255"><ele>251.0</ele><time>2026-04-25T13:03:03.129Z</time></trkpt><trkpt lat="43.1942467" lon="10.8324417"><ele>250.0</ele><time>2026-04-25T13:03:04.12Z</time></trkpt><trkpt lat="43.19411" lon="10.8322917"><ele>249.0</ele><time>2026-04-25T13:03:05.118Z</time></trkpt><trkpt lat="43.1939667" lon="10.83211"><ele>248.66666666666669</ele><time>2026-04-25T13:03:06.13Z</time></trkpt><trkpt lat="43.193815" lon="10.8319117"><ele>248.33333333333334</ele><time>2026-04-25T13:03:07.123Z</time></trkpt><trkpt lat="43.1936517" lon="10.831705"><ele>248.0</ele><time>2026-04-25T13:03:08.121Z</time></trkpt><trkpt lat="43.1934767" lon="10.8314933"><ele>246.5</ele><time>2026-04-25T13:03:09.132Z</time></trkpt><trkpt lat="43.193295" lon="10.83129"><ele>245.0</ele><time>2026-04-25T13:03:10.132Z</time></trkpt><trkpt lat="43.19312" lon="10.8311033"><ele>243.66666666666669</ele><time>2026-04-25T13:03:11.134Z</time></trkpt><trkpt lat="43.1929517" lon="10.83093"><ele>242.33333333333331</ele><time>2026-04-25T13:03:12.126Z</time></trkpt><trkpt lat="43.192795" lon="10.830765"><ele>241.0</ele><time>2026-04-25T13:03:13.135Z</time></trkpt><trkpt lat="43.192645" lon="10.8305983"><ele>241.0</ele><time>2026-04-25T13:03:14.128Z</time></trkpt><trkpt lat="43.1924933" lon="10.83043"><ele>241.0</ele><time>2026-04-25T13:03:15.132Z</time></trkpt><trkpt lat="43.1923417" lon="10.8302633"><ele>241.0</ele><time>2026-04-25T13:03:16.131Z</time></trkpt><trkpt lat="43.19219" lon="10.8300983"><ele>240.0</ele><time>2026-04-25T13:03:17.132Z</time></trkpt><trkpt lat="43.19204" lon="10.82994"><ele>239.0</ele><time>2026-04-25T13:03:18.13Z</time></trkpt><trkpt lat="43.1918967" lon="10.829795"><ele>238.0</ele><time>2026-04-25T13:03:19.132Z</time></trkpt><trkpt lat="43.191765" lon="10.8296717"><ele>238.0</ele><time>2026-04-25T13:03:20.135Z</time></trkpt><trkpt lat="43.1916517" lon="10.8295683"><ele>238.0</ele><time>2026-04-25T13:03:21.126Z</time></trkpt><trkpt lat="43.19156" lon="10.8294917"><ele>238.0</ele><time>2026-04-25T13:03:22.128Z</time></trkpt><trkpt lat="43.191495" lon="10.82944"><ele>238.0</ele><time>2026-04-25T13:03:23.125Z</time></trkpt><trkpt lat="43.1913933" lon="10.82936"><ele>238.0</ele><time>2026-04-25T13:03:25.132Z</time></trkpt><trkpt lat="43.1912783" lon="10.829265"><ele>237.0</ele><time>2026-04-25T13:03:27.13Z</time></trkpt><trkpt lat="43.1912067" lon="10.8291983"><ele>236.0</ele><time>2026-04-25T13:03:28.134Z</time></trkpt><trkpt lat="43.19112" lon="10.8291133"><ele>235.0</ele><time>2026-04-25T13:03:29.136Z</time></trkpt><trkpt lat="43.1910233" lon="10.8290167"><ele>234.0</ele><time>2026-04-25T13:03:30.133Z</time></trkpt><trkpt lat="43.1909217" lon="10.8289133"><ele>233.0</ele><time>2026-04-25T13:03:31.14Z</time></trkpt><trkpt lat="43.1908233" lon="10.828805"><ele>233.0</ele><time>2026-04-25T13:03:32.129Z</time></trkpt><trkpt lat="43.1907283" lon="10.8286917"><ele>233.0</ele><time>2026-04-25T13:03:33.13Z</time></trkpt><trkpt lat="43.1906417" lon="10.8285833"><ele>233.0</ele><time>2026-04-25T13:03:34.128Z</time></trkpt><trkpt lat="43.1905617" lon="10.828485"><ele>233.0</ele><time>2026-04-25T13:03:35.122Z</time></trkpt><trkpt lat="43.1904817" lon="10.8284033"><ele>232.60000000000002</ele><time>2026-04-25T13:03:36.136Z</time></trkpt><trkpt lat="43.1903983" lon="10.828335"><ele>232.20000000000002</ele><time>2026-04-25T13:03:37.146Z</time></trkpt><trkpt lat="43.19031" lon="10.828275"><ele>231.8</ele><time>2026-04-25T13:03:38.131Z</time></trkpt><trkpt lat="43.1902117" lon="10.82822"><ele>231.4</ele><time>2026-04-25T13:03:39.133Z</time></trkpt><trkpt lat="43.190115" lon="10.82817"><ele>231.0</ele><time>2026-04-25T13:03:40.124Z</time></trkpt><trkpt lat="43.1900267" lon="10.82812"><ele>231.0</ele><time>2026-04-25T13:03:41.132Z</time></trkpt><trkpt lat="43.1899467" lon="10.8280667"><ele>231.00000000000003</ele><time>2026-04-25T13:03:42.139Z</time></trkpt><trkpt lat="43.18987" lon="10.8280033"><ele>231.00000000000003</ele><time>2026-04-25T13:03:43.135Z</time></trkpt><trkpt lat="43.1898033" lon="10.8279233"><ele>231.0</ele><time>2026-04-25T13:03:44.129Z</time></trkpt><trkpt lat="43.189745" lon="10.8278317"><ele>231.0</ele><time>2026-04-25T13:03:45.126Z</time></trkpt><trkpt lat="43.1896883" lon="10.8277267"><ele>230.4</ele><time>2026-04-25T13:03:46.136Z</time></trkpt><trkpt lat="43.189635" lon="10.8276133"><ele>229.8</ele><time>2026-04-25T13:03:47.127Z</time></trkpt><trkpt lat="43.18958" lon="10.8274933"><ele>229.20000000000002</ele><time>2026-04-25T13:03:48.127Z</time></trkpt><trkpt lat="43.1895233" lon="10.82737"><ele>228.60000000000002</ele><time>2026-04-25T13:03:49.137Z</time></trkpt><trkpt lat="43.1894667" lon="10.8272467"><ele>228.0</ele><time>2026-04-25T13:03:50.132Z</time></trkpt><trkpt lat="43.18941" lon="10.8271217"><ele>228.0</ele><time>2026-04-25T13:03:51.134Z</time></trkpt><trkpt lat="43.18935" lon="10.826995"><ele>228.0</ele><time>2026-04-25T13:03:52.134Z</time></trkpt><trkpt lat="43.18929" lon="10.826865"><ele>228.0</ele><time>2026-04-25T13:03:53.122Z</time></trkpt><trkpt lat="43.1892317" lon="10.8267433"><ele>228.0</ele><time>2026-04-25T13:03:54.121Z</time></trkpt><trkpt lat="43.1891783" lon="10.8266267"><ele>228.0</ele><time>2026-04-25T13:03:55.128Z</time></trkpt><trkpt lat="43.1891217" lon="10.8265117"><ele>227.60000000000002</ele><time>2026-04-25T13:03:56.13Z</time></trkpt><trkpt lat="43.189065" lon="10.8263967"><ele>227.20000000000002</ele><time>2026-04-25T13:03:57.119Z</time></trkpt><trkpt lat="43.1890033" lon="10.8262867"><ele>226.8</ele><time>2026-04-25T13:03:58.133Z</time></trkpt><trkpt lat="43.18894" lon="10.8261867"><ele>226.4</ele><time>2026-04-25T13:03:59.132Z</time></trkpt><trkpt lat="43.18887" lon="10.8260933"><ele>226.0</ele><time>2026-04-25T13:04:00.132Z</time></trkpt><trkpt lat="43.1887947" lon="10.826004"><ele>225.4</ele><time>2026-04-25T13:04:01.123Z</time></trkpt><trkpt lat="43.1887121" lon="10.8259188"><ele>224.8</ele><time>2026-04-25T13:04:02.132Z</time></trkpt><trkpt lat="43.1886257" lon="10.8258434"><ele>224.20000000000002</ele><time>2026-04-25T13:04:03.122Z</time></trkpt><trkpt lat="43.1885432" lon="10.8257784"><ele>223.60000000000002</ele><time>2026-04-25T13:04:04.133Z</time></trkpt><trkpt lat="43.1884667" lon="10.8257182"><ele>223.0</ele><time>2026-04-25T13:04:05.125Z</time></trkpt><trkpt lat="43.188388" lon="10.8256608"><ele>222.99999999999997</ele><time>2026-04-25T13:04:06.122Z</time></trkpt><trkpt lat="43.1883101" lon="10.8256005"><ele>223.0</ele><time>2026-04-25T13:04:07.128Z</time></trkpt><trkpt lat="43.1882397" lon="10.8255406"><ele>223.0</ele><time>2026-04-25T13:04:08.131Z</time></trkpt><trkpt lat="43.1881748" lon="10.8254766"><ele>223.0</ele><time>2026-04-25T13:04:09.123Z</time></trkpt><trkpt lat="43.1881077" lon="10.8254024"><ele>222.99999999999997</ele><time>2026-04-25T13:04:10.133Z</time></trkpt><trkpt lat="43.188034" lon="10.8253143"><ele>223.0</ele><time>2026-04-25T13:04:11.119Z</time></trkpt><trkpt lat="43.187945" lon="10.8252074"><ele>223.25</ele><time>2026-04-25T13:04:12.132Z</time></trkpt><trkpt lat="43.1878395" lon="10.8250764"><ele>223.5</ele><time>2026-04-25T13:04:13.132Z</time></trkpt><trkpt lat="43.1877243" lon="10.8249333"><ele>223.75</ele><time>2026-04-25T13:04:14.129Z</time></trkpt><trkpt lat="43.1876163" lon="10.8247976"><ele>224.0</ele><time>2026-04-25T13:04:15.132Z</time></trkpt><trkpt lat="43.1875077" lon="10.8246643"><ele>224.0</ele><time>2026-04-25T13:04:16.121Z</time></trkpt><trkpt lat="43.1873932" lon="10.824515"><ele>224.0</ele><time>2026-04-25T13:04:17.129Z</time></trkpt><trkpt lat="43.1872785" lon="10.8243574"><ele>224.0</ele><time>2026-04-25T13:04:18.124Z</time></trkpt><trkpt lat="43.1871745" lon="10.8241965"><ele>223.75</ele><time>2026-04-25T13:04:19.123Z</time></trkpt><trkpt lat="43.1870727" lon="10.8240313"><ele>223.5</ele><time>2026-04-25T13:04:20.132Z</time></trkpt><trkpt lat="43.1869801" lon="10.8238737"><ele>223.25</ele><time>2026-04-25T13:04:21.123Z</time></trkpt><trkpt lat="43.186892" lon="10.8237297"><ele>223.0</ele><time>2026-04-25T13:04:22.14Z</time></trkpt><trkpt lat="43.1868114" lon="10.823613"><ele>223.0</ele><time>2026-04-25T13:04:23.137Z</time></trkpt><trkpt lat="43.1867275" lon="10.8235189"><ele>223.0</ele><time>2026-04-25T13:04:24.128Z</time></trkpt><trkpt lat="43.1866265" lon="10.8234398"><ele>223.0</ele><time>2026-04-25T13:04:25.138Z</time></trkpt><trkpt lat="43.1865102" lon="10.8233722"><ele>223.0</ele><time>2026-04-25T13:04:26.131Z</time></trkpt><trkpt lat="43.1863873" lon="10.8233144"><ele>222.25</ele><time>2026-04-25T13:04:27.128Z</time></trkpt><trkpt lat="43.1862657" lon="10.8232704"><ele>221.5</ele><time>2026-04-25T13:04:28.131Z</time></trkpt><trkpt lat="43.1861437" lon="10.823243"><ele>220.75</ele><time>2026-04-25T13:04:29.131Z</time></trkpt><trkpt lat="43.18603" lon="10.8232367"><ele>220.0</ele><time>2026-04-25T13:04:30.136Z</time></trkpt><trkpt lat="43.1859217" lon="10.823235"><ele>220.0</ele><time>2026-04-25T13:04:31.127Z</time></trkpt><trkpt lat="43.1858217" lon="10.82324"><ele>220.0</ele><time>2026-04-25T13:04:32.13Z</time></trkpt><trkpt lat="43.1857267" lon="10.8232417"><ele>220.0</ele><time>2026-04-25T13:04:33.126Z</time></trkpt><trkpt lat="43.1856383" lon="10.8232367"><ele>220.0</ele><time>2026-04-25T13:04:34.14Z</time></trkpt><trkpt lat="43.1855533" lon="10.8232283"><ele>220.0</ele><time>2026-04-25T13:04:35.137Z</time></trkpt><trkpt lat="43.1854717" lon="10.8232217"><ele>222.0</ele><time>2026-04-25T13:04:36.126Z</time></trkpt><trkpt lat="43.18539" lon="10.8232067"><ele>224.0</ele><time>2026-04-25T13:04:37.138Z</time></trkpt><trkpt lat="43.185305" lon="10.8231767"><ele>226.0</ele><time>2026-04-25T13:04:38.138Z</time></trkpt><trkpt lat="43.1852167" lon="10.8231333"><ele>228.0</ele><time>2026-04-25T13:04:39.129Z</time></trkpt><trkpt lat="43.1851217" lon="10.8230867"><ele>230.0</ele><time>2026-04-25T13:04:40.136Z</time></trkpt><trkpt lat="43.1850183" lon="10.8230433"><ele>230.0</ele><time>2026-04-25T13:04:41.136Z</time></trkpt><trkpt lat="43.1849117" lon="10.8229967"><ele>230.0</ele><time>2026-04-25T13:04:42.122Z</time></trkpt><trkpt lat="43.1847967" lon="10.8229483"><ele>230.0</ele><time>2026-04-25T13:04:43.131Z</time></trkpt><trkpt lat="43.1846767" lon="10.8228967"><ele>230.0</ele><time>2026-04-25T13:04:44.135Z</time></trkpt><trkpt lat="43.1845617" lon="10.8228483"><ele>234.0</ele><time>2026-04-25T13:04:45.136Z</time></trkpt><trkpt lat="43.184445" lon="10.8228033"><ele>238.0</ele><time>2026-04-25T13:04:46.135Z</time></trkpt><trkpt lat="43.1843283" lon="10.8227583"><ele>242.0</ele><time>2026-04-25T13:04:47.126Z</time></trkpt><trkpt lat="43.18421" lon="10.822715"><ele>246.0</ele><time>2026-04-25T13:04:48.13Z</time></trkpt><trkpt lat="43.1840917" lon="10.8226717"><ele>244.75</ele><time>2026-04-25T13:04:49.125Z</time></trkpt><trkpt lat="43.1839767" lon="10.8226267"><ele>243.5</ele><time>2026-04-25T13:04:50.125Z</time></trkpt><trkpt lat="43.1838617" lon="10.822575"><ele>242.25</ele><time>2026-04-25T13:04:51.129Z</time></trkpt><trkpt lat="43.1837483" lon="10.8225167"><ele>241.0</ele><time>2026-04-25T13:04:52.139Z</time></trkpt><trkpt lat="43.1836383" lon="10.822455"><ele>241.0</ele><time>2026-04-25T13:04:53.133Z</time></trkpt><trkpt lat="43.183535" lon="10.8223883"><ele>241.0</ele><time>2026-04-25T13:04:54.131Z</time></trkpt><trkpt lat="43.183435" lon="10.82232"><ele>241.0</ele><time>2026-04-25T13:04:55.123Z</time></trkpt><trkpt lat="43.1833267" lon="10.82226"><ele>241.0</ele><time>2026-04-25T13:04:56.129Z</time></trkpt><trkpt lat="43.1832117" lon="10.822215"><ele>247.0</ele><time>2026-04-25T13:04:57.136Z</time></trkpt><trkpt lat="43.1830867" lon="10.8221867"><ele>253.0</ele><time>2026-04-25T13:04:58.128Z</time></trkpt><trkpt lat="43.182955" lon="10.8221567"><ele>259.0</ele><time>2026-04-25T13:04:59.125Z</time></trkpt><trkpt lat="43.182825" lon="10.8221267"><ele>265.0</ele><time>2026-04-25T13:05:00.13Z</time></trkpt><trkpt lat="43.1826983" lon="10.8220817"><ele>265.0</ele><time>2026-04-25T13:05:01.126Z</time></trkpt><trkpt lat="43.182575" lon="10.82201"><ele>265.0</ele><time>2026-04-25T13:05:02.126Z</time></trkpt><trkpt lat="43.1824567" lon="10.82193"><ele>265.0</ele><time>2026-04-25T13:05:03.114Z</time></trkpt><trkpt lat="43.182345" lon="10.821855"><ele>265.0</ele><time>2026-04-25T13:05:04.13Z</time></trkpt><trkpt lat="43.18223" lon="10.8217817"><ele>260.4</ele><time>2026-04-25T13:05:05.131Z</time></trkpt><trkpt lat="43.1821267" lon="10.8217033"><ele>255.8</ele><time>2026-04-25T13:05:06.136Z</time></trkpt><trkpt lat="43.1820383" lon="10.8216267"><ele>251.2</ele><time>2026-04-25T13:05:07.128Z</time></trkpt><trkpt lat="43.1819533" lon="10.821565"><ele>246.6</ele><time>2026-04-25T13:05:08.136Z</time></trkpt><trkpt lat="43.1818667" lon="10.8215233"><ele>242.0</ele><time>2026-04-25T13:05:09.131Z</time></trkpt><trkpt lat="43.1817817" lon="10.8215267"><ele>242.0</ele><time>2026-04-25T13:05:10.137Z</time></trkpt><trkpt lat="43.1816933" lon="10.82156"><ele>242.0</ele><time>2026-04-25T13:05:11.132Z</time></trkpt><trkpt lat="43.18159" lon="10.8215933"><ele>242.0</ele><time>2026-04-25T13:05:12.134Z</time></trkpt><trkpt lat="43.1814733" lon="10.8216233"><ele>242.0</ele><time>2026-04-25T13:05:13.126Z</time></trkpt><trkpt lat="43.1813517" lon="10.82164"><ele>242.0</ele><time>2026-04-25T13:05:14.128Z</time></trkpt><trkpt lat="43.1812267" lon="10.8216483"><ele>242.75</ele><time>2026-04-25T13:05:15.142Z</time></trkpt><trkpt lat="43.1810983" lon="10.82164"><ele>243.5</ele><time>2026-04-25T13:05:16.129Z</time></trkpt><trkpt lat="43.1809767" lon="10.8216267"><ele>244.25</ele><time>2026-04-25T13:05:17.138Z</time></trkpt><trkpt lat="43.1808683" lon="10.82161"><ele>245.0</ele><time>2026-04-25T13:05:18.148Z</time></trkpt><trkpt lat="43.1807733" lon="10.821585"><ele>245.0</ele><time>2026-04-25T13:05:19.129Z</time></trkpt><trkpt lat="43.1806917" lon="10.8215367"><ele>245.0</ele><time>2026-04-25T13:05:20.134Z</time></trkpt><trkpt lat="43.1806283" lon="10.82145"><ele>245.0</ele><time>2026-04-25T13:05:21.129Z</time></trkpt><trkpt lat="43.1805817" lon="10.8213333"><ele>245.0</ele><time>2026-04-25T13:05:22.128Z</time></trkpt><trkpt lat="43.1805333" lon="10.821205"><ele>245.0</ele><time>2026-04-25T13:05:23.129Z</time></trkpt><trkpt lat="43.1804683" lon="10.8210867"><ele>245.2</ele><time>2026-04-25T13:05:24.119Z</time></trkpt><trkpt lat="43.1803883" lon="10.8209917"><ele>245.4</ele><time>2026-04-25T13:05:25.137Z</time></trkpt><trkpt lat="43.1803067" lon="10.8209233"><ele>245.60000000000002</ele><time>2026-04-25T13:05:26.13Z</time></trkpt><trkpt lat="43.1802217" lon="10.8208683"><ele>245.8</ele><time>2026-04-25T13:05:27.122Z</time></trkpt><trkpt lat="43.18013" lon="10.820825"><ele>246.0</ele><time>2026-04-25T13:05:28.124Z</time></trkpt><trkpt lat="43.1800367" lon="10.8207867"><ele>246.0</ele><time>2026-04-25T13:05:29.123Z</time></trkpt><trkpt lat="43.1799433" lon="10.8207583"><ele>246.00000000000003</ele><time>2026-04-25T13:05:30.128Z</time></trkpt><trkpt lat="43.1798517" lon="10.8207467"><ele>246.00000000000003</ele><time>2026-04-25T13:05:31.129Z</time></trkpt><trkpt lat="43.1797517" lon="10.8207583"><ele>246.0</ele><time>2026-04-25T13:05:32.124Z</time></trkpt><trkpt lat="43.179625" lon="10.8207983"><ele>246.0</ele><time>2026-04-25T13:05:33.134Z</time></trkpt><trkpt lat="43.1794917" lon="10.8208517"><ele>247.25</ele><time>2026-04-25T13:05:34.133Z</time></trkpt><trkpt lat="43.179365" lon="10.8209017"><ele>248.5</ele><time>2026-04-25T13:05:35.122Z</time></trkpt><trkpt lat="43.1792517" lon="10.8209483"><ele>249.75</ele><time>2026-04-25T13:05:36.128Z</time></trkpt><trkpt lat="43.1791417" lon="10.8209983"><ele>251.0</ele><time>2026-04-25T13:05:37.128Z</time></trkpt><trkpt lat="43.1790383" lon="10.8210483"><ele>250.0</ele><time>2026-04-25T13:05:38.129Z</time></trkpt><trkpt lat="43.1789433" lon="10.8211017"><ele>249.00000000000003</ele><time>2026-04-25T13:05:39.133Z</time></trkpt><trkpt lat="43.1788567" lon="10.8211567"><ele>248.00000000000003</ele><time>2026-04-25T13:05:40.137Z</time></trkpt><trkpt lat="43.1787783" lon="10.8212083"><ele>247.0</ele><time>2026-04-25T13:05:41.124Z</time></trkpt><trkpt lat="43.1786967" lon="10.82125"><ele>246.0</ele><time>2026-04-25T13:05:42.129Z</time></trkpt><trkpt lat="43.1786133" lon="10.82127"><ele>246.0</ele><time>2026-04-25T13:05:43.124Z</time></trkpt><trkpt lat="43.1785333" lon="10.8212667"><ele>246.00000000000003</ele><time>2026-04-25T13:05:44.121Z</time></trkpt><trkpt lat="43.1784617" lon="10.8212333"><ele>246.00000000000003</ele><time>2026-04-25T13:05:45.135Z</time></trkpt><trkpt lat="43.178395" lon="10.8211733"><ele>246.0</ele><time>2026-04-25T13:05:46.132Z</time></trkpt><trkpt lat="43.1782717" lon="10.8209967"><ele>246.0</ele><time>2026-04-25T13:05:48.138Z</time></trkpt><trkpt lat="43.178215" lon="10.820885"><ele>246.60000000000002</ele><time>2026-04-25T13:05:49.14Z</time></trkpt><trkpt lat="43.1781617" lon="10.82075"><ele>247.20000000000002</ele><time>2026-04-25T13:05:50.13Z</time></trkpt><trkpt lat="43.178115" lon="10.8206083"><ele>247.79999999999998</ele><time>2026-04-25T13:05:51.136Z</time></trkpt><trkpt lat="43.17808" lon="10.8204717"><ele>248.39999999999998</ele><time>2026-04-25T13:05:52.135Z</time></trkpt><trkpt lat="43.1780583" lon="10.8203433"><ele>249.0</ele><time>2026-04-25T13:05:53.126Z</time></trkpt><trkpt lat="43.1780517" lon="10.8202317"><ele>246.83333333333334</ele><time>2026-04-25T13:05:54.129Z</time></trkpt><trkpt lat="43.178035" lon="10.8201233"><ele>244.66666666666669</ele><time>2026-04-25T13:05:55.146Z</time></trkpt><trkpt lat="43.1780083" lon="10.8200233"><ele>242.5</ele><time>2026-04-25T13:05:56.117Z</time></trkpt><trkpt lat="43.1779633" lon="10.81993"><ele>240.33333333333334</ele><time>2026-04-25T13:05:57.125Z</time></trkpt><trkpt lat="43.177905" lon="10.81985"><ele>238.16666666666669</ele><time>2026-04-25T13:05:58.13Z</time></trkpt><trkpt lat="43.1778317" lon="10.8197867"><ele>236.0</ele><time>2026-04-25T13:05:59.135Z</time></trkpt><trkpt lat="43.1777417" lon="10.8197367"><ele>236.0</ele><time>2026-04-25T13:06:00.133Z</time></trkpt><trkpt lat="43.1776333" lon="10.8196833"><ele>236.0</ele><time>2026-04-25T13:06:01.124Z</time></trkpt><trkpt lat="43.1775217" lon="10.819625"><ele>236.0</ele><time>2026-04-25T13:06:02.121Z</time></trkpt><trkpt lat="43.1774117" lon="10.8195583"><ele>236.0</ele><time>2026-04-25T13:06:03.129Z</time></trkpt><trkpt lat="43.1773033" lon="10.8194883"><ele>236.0</ele><time>2026-04-25T13:06:04.126Z</time></trkpt><trkpt lat="43.1771933" lon="10.819415"><ele>236.0</ele><time>2026-04-25T13:06:05.129Z</time></trkpt><trkpt lat="43.1770817" lon="10.8193483"><ele>236.0</ele><time>2026-04-25T13:06:06.131Z</time></trkpt><trkpt lat="43.1769683" lon="10.8192867"><ele>236.0</ele><time>2026-04-25T13:06:07.139Z</time></trkpt><trkpt lat="43.1768633" lon="10.819225"><ele>236.0</ele><time>2026-04-25T13:06:08.133Z</time></trkpt><trkpt lat="43.17676" lon="10.8191617"><ele>236.00000000000003</ele><time>2026-04-25T13:06:09.132Z</time></trkpt><trkpt lat="43.176655" lon="10.8190983"><ele>236.00000000000003</ele><time>2026-04-25T13:06:10.13Z</time></trkpt><trkpt lat="43.176555" lon="10.8190333"><ele>236.0</ele><time>2026-04-25T13:06:11.132Z</time></trkpt><trkpt lat="43.1764633" lon="10.8189717"><ele>236.0</ele><time>2026-04-25T13:06:12.134Z</time></trkpt><trkpt lat="43.176375" lon="10.8189083"><ele>237.20000000000002</ele><time>2026-04-25T13:06:13.122Z</time></trkpt><trkpt lat="43.176295" lon="10.818855"><ele>238.40000000000003</ele><time>2026-04-25T13:06:14.13Z</time></trkpt><trkpt lat="43.17621" lon="10.8188067"><ele>239.6</ele><time>2026-04-25T13:06:15.129Z</time></trkpt><trkpt lat="43.1761133" lon="10.8187717"><ele>240.8</ele><time>2026-04-25T13:06:16.132Z</time></trkpt><trkpt lat="43.1760133" lon="10.81875"><ele>242.0</ele><time>2026-04-25T13:06:17.135Z</time></trkpt><trkpt lat="43.1759133" lon="10.8187383"><ele>242.0</ele><time>2026-04-25T13:06:18.136Z</time></trkpt><trkpt lat="43.175815" lon="10.818725"><ele>242.0</ele><time>2026-04-25T13:06:19.126Z</time></trkpt><trkpt lat="43.1757167" lon="10.81871"><ele>242.0</ele><time>2026-04-25T13:06:20.132Z</time></trkpt><trkpt lat="43.17562" lon="10.818695"><ele>242.0</ele><time>2026-04-25T13:06:21.127Z</time></trkpt><trkpt lat="43.1755267" lon="10.8186817"><ele>242.0</ele><time>2026-04-25T13:06:22.13Z</time></trkpt><trkpt lat="43.1754433" lon="10.8186667"><ele>241.39999999999998</ele><time>2026-04-25T13:06:23.13Z</time></trkpt><trkpt lat="43.1753717" lon="10.818655"><ele>240.79999999999998</ele><time>2026-04-25T13:06:24.133Z</time></trkpt><trkpt lat="43.1752667" lon="10.8186317"><ele>240.2</ele><time>2026-04-25T13:06:26.125Z</time></trkpt><trkpt lat="43.17517" lon="10.81867"><ele>239.6</ele><time>2026-04-25T13:06:49.119Z</time></trkpt><trkpt lat="43.1751217" lon="10.8187717"><ele>239.0</ele><time>2026-04-25T13:06:51.121Z</time></trkpt><trkpt lat="43.1750733" lon="10.8188967"><ele>239.0</ele><time>2026-04-25T13:06:53.126Z</time></trkpt><trkpt lat="43.1750267" lon="10.819035"><ele>239.0</ele><time>2026-04-25T13:06:55.129Z</time></trkpt><trkpt lat="43.174975" lon="10.8191783"><ele>239.0</ele><time>2026-04-25T13:06:57.132Z</time></trkpt><trkpt lat="43.174915" lon="10.8193167"><ele>239.0</ele><time>2026-04-25T13:06:59.129Z</time></trkpt><trkpt lat="43.1748517" lon="10.8194533"><ele>240.0</ele><time>2026-04-25T13:07:01.129Z</time></trkpt><trkpt lat="43.1747833" lon="10.819585"><ele>240.99999999999997</ele><time>2026-04-25T13:07:03.12Z</time></trkpt><trkpt lat="43.1746967" lon="10.8196967"><ele>241.99999999999997</ele><time>2026-04-25T13:07:05.131Z</time></trkpt><trkpt lat="43.1745883" lon="10.81977"><ele>243.0</ele><time>2026-04-25T13:07:07.13Z</time></trkpt><trkpt lat="43.174525" lon="10.8197833"><ele>244.0</ele><time>2026-04-25T13:07:08.128Z</time></trkpt><trkpt lat="43.1744567" lon="10.8197767"><ele>243.99999999999997</ele><time>2026-04-25T13:07:09.129Z</time></trkpt><trkpt lat="43.17439" lon="10.8197467"><ele>244.0</ele><time>2026-04-25T13:07:10.13Z</time></trkpt><trkpt lat="43.17433" lon="10.8197033"><ele>243.99999999999997</ele><time>2026-04-25T13:07:11.13Z</time></trkpt><trkpt lat="43.1742733" lon="10.8196483"><ele>243.99999999999997</ele><time>2026-04-25T13:07:12.138Z</time></trkpt><trkpt lat="43.1742133" lon="10.8195983"><ele>244.0</ele><time>2026-04-25T13:07:13.138Z</time></trkpt><trkpt lat="43.1741517" lon="10.8195533"><ele>243.99999999999997</ele><time>2026-04-25T13:07:14.135Z</time></trkpt><trkpt lat="43.174085" lon="10.8195167"><ele>243.99999999999997</ele><time>2026-04-25T13:07:15.123Z</time></trkpt><trkpt lat="43.1740133" lon="10.81949"><ele>243.39999999999998</ele><time>2026-04-25T13:07:16.13Z</time></trkpt><trkpt lat="43.1739383" lon="10.8194783"><ele>242.79999999999998</ele><time>2026-04-25T13:07:17.137Z</time></trkpt><trkpt lat="43.17386" lon="10.8194717"><ele>242.20000000000002</ele><time>2026-04-25T13:07:18.13Z</time></trkpt><trkpt lat="43.1737" lon="10.81944"><ele>241.60000000000002</ele><time>2026-04-25T13:07:20.121Z</time></trkpt><trkpt lat="43.1736267" lon="10.819405"><ele>241.0</ele><time>2026-04-25T13:07:21.126Z</time></trkpt><trkpt lat="43.173555" lon="10.8193567"><ele>239.83333333333331</ele><time>2026-04-25T13:07:22.127Z</time></trkpt><trkpt lat="43.1734833" lon="10.8192967"><ele>238.66666666666666</ele><time>2026-04-25T13:07:23.127Z</time></trkpt><trkpt lat="43.17341" lon="10.81924"><ele>237.5</ele><time>2026-04-25T13:07:24.127Z</time></trkpt><trkpt lat="43.1733317" lon="10.81919"><ele>236.33333333333331</ele><time>2026-04-25T13:07:25.136Z</time></trkpt><trkpt lat="43.17325" lon="10.8191517"><ele>235.16666666666666</ele><time>2026-04-25T13:07:26.126Z</time></trkpt><trkpt lat="43.173165" lon="10.8191267"><ele>234.0</ele><time>2026-04-25T13:07:27.134Z</time></trkpt><trkpt lat="43.173075" lon="10.819115"><ele>233.2</ele><time>2026-04-25T13:07:28.136Z</time></trkpt><trkpt lat="43.172985" lon="10.8191183"><ele>232.39999999999998</ele><time>2026-04-25T13:07:29.137Z</time></trkpt><trkpt lat="43.172895" lon="10.8191317"><ele>231.6</ele><time>2026-04-25T13:07:30.137Z</time></trkpt><trkpt lat="43.1728" lon="10.819155"><ele>230.8</ele><time>2026-04-25T13:07:31.139Z</time></trkpt><trkpt lat="43.1727033" lon="10.8191817"><ele>230.0</ele><time>2026-04-25T13:07:32.14Z</time></trkpt><trkpt lat="43.1726083" lon="10.8192117"><ele>230.0</ele><time>2026-04-25T13:07:33.132Z</time></trkpt><trkpt lat="43.17251" lon="10.8192367"><ele>230.0</ele><time>2026-04-25T13:07:34.13Z</time></trkpt><trkpt lat="43.1724133" lon="10.8192583"><ele>230.0</ele><time>2026-04-25T13:07:35.134Z</time></trkpt><trkpt lat="43.1723167" lon="10.819275"><ele>230.0</ele><time>2026-04-25T13:07:36.126Z</time></trkpt><trkpt lat="43.1722233" lon="10.81929"><ele>230.0</ele><time>2026-04-25T13:07:37.128Z</time></trkpt><trkpt lat="43.1721283" lon="10.8193083"><ele>231.4</ele><time>2026-04-25T13:07:38.124Z</time></trkpt><trkpt lat="43.1720317" lon="10.8193283"><ele>232.8</ele><time>2026-04-25T13:07:39.13Z</time></trkpt><trkpt lat="43.171935" lon="10.8193533"><ele>234.2</ele><time>2026-04-25T13:07:40.131Z</time></trkpt><trkpt lat="43.171835" lon="10.81938"><ele>235.6</ele><time>2026-04-25T13:07:41.129Z</time></trkpt><trkpt lat="43.1717383" lon="10.8194067"><ele>237.0</ele><time>2026-04-25T13:07:42.129Z</time></trkpt><trkpt lat="43.1716483" lon="10.8194233"><ele>237.0</ele><time>2026-04-25T13:07:43.134Z</time></trkpt><trkpt lat="43.1715633" lon="10.81944"><ele>237.0</ele><time>2026-04-25T13:07:44.129Z</time></trkpt><trkpt lat="43.1714783" lon="10.8194533"><ele>237.0</ele><time>2026-04-25T13:07:45.121Z</time></trkpt><trkpt lat="43.17139" lon="10.8194617"><ele>237.0</ele><time>2026-04-25T13:07:46.128Z</time></trkpt><trkpt lat="43.1713083" lon="10.819465"><ele>237.0</ele><time>2026-04-25T13:07:47.135Z</time></trkpt><trkpt lat="43.171215" lon="10.8194633"><ele>237.0</ele><time>2026-04-25T13:07:48.13Z</time></trkpt><trkpt lat="43.1711233" lon="10.8194633"><ele>238.0</ele><time>2026-04-25T13:07:49.127Z</time></trkpt><trkpt lat="43.1710217" lon="10.8194567"><ele>239.0</ele><time>2026-04-25T13:07:50.133Z</time></trkpt><trkpt lat="43.1709133" lon="10.81945"><ele>240.0</ele><time>2026-04-25T13:07:51.129Z</time></trkpt><trkpt lat="43.1708033" lon="10.8194467"><ele>241.0</ele><time>2026-04-25T13:07:52.134Z</time></trkpt><trkpt lat="43.170695" lon="10.8194433"><ele>242.0</ele><time>2026-04-25T13:07:53.135Z</time></trkpt><trkpt lat="43.1705867" lon="10.81944"><ele>243.39999999999998</ele><time>2026-04-25T13:07:54.128Z</time></trkpt><trkpt lat="43.1704783" lon="10.8194383"><ele>244.79999999999998</ele><time>2026-04-25T13:07:55.121Z</time></trkpt><trkpt lat="43.170375" lon="10.819435"><ele>246.2</ele><time>2026-04-25T13:07:56.121Z</time></trkpt><trkpt lat="43.17027" lon="10.819435"><ele>247.6</ele><time>2026-04-25T13:07:57.132Z</time></trkpt><trkpt lat="43.1701633" lon="10.8194383"><ele>249.0</ele><time>2026-04-25T13:07:58.132Z</time></trkpt><trkpt lat="43.1700667" lon="10.8194433"><ele>249.0</ele><time>2026-04-25T13:07:59.129Z</time></trkpt><trkpt lat="43.1699833" lon="10.81945"><ele>249.0</ele><time>2026-04-25T13:08:00.137Z</time></trkpt><trkpt lat="43.169905" lon="10.819455"><ele>249.0</ele><time>2026-04-25T13:08:01.138Z</time></trkpt><trkpt lat="43.169825" lon="10.8194517"><ele>249.0</ele><time>2026-04-25T13:08:02.13Z</time></trkpt><trkpt lat="43.1697433" lon="10.8194333"><ele>249.0</ele><time>2026-04-25T13:08:03.126Z</time></trkpt><trkpt lat="43.1696683" lon="10.8194017"><ele>249.0</ele><time>2026-04-25T13:08:04.13Z</time></trkpt><trkpt lat="43.1696033" lon="10.8193533"><ele>247.57142857142856</ele><time>2026-04-25T13:08:05.119Z</time></trkpt><trkpt lat="43.1695517" lon="10.81929"><ele>246.1428571428571</ele><time>2026-04-25T13:08:06.123Z</time></trkpt><trkpt lat="43.169515" lon="10.819215"><ele>244.71428571428572</ele><time>2026-04-25T13:08:07.124Z</time></trkpt><trkpt lat="43.16949" lon="10.8191267"><ele>243.28571428571428</ele><time>2026-04-25T13:08:08.118Z</time></trkpt><trkpt lat="43.1694733" lon="10.81903"><ele>241.85714285714286</ele><time>2026-04-25T13:08:09.119Z</time></trkpt><trkpt lat="43.1694583" lon="10.818925"><ele>240.42857142857144</ele><time>2026-04-25T13:08:10.127Z</time></trkpt><trkpt lat="43.1694467" lon="10.8188183"><ele>239.00000000000003</ele><time>2026-04-25T13:08:11.121Z</time></trkpt><trkpt lat="43.1694367" lon="10.8187183"><ele>239.00000000000003</ele><time>2026-04-25T13:08:12.12Z</time></trkpt><trkpt lat="43.169435" lon="10.8186233"><ele>239.0</ele><time>2026-04-25T13:08:13.129Z</time></trkpt><trkpt lat="43.169435" lon="10.8185283"><ele>239.0</ele><time>2026-04-25T13:08:14.122Z</time></trkpt><trkpt lat="43.16944" lon="10.8184333"><ele>239.0</ele><time>2026-04-25T13:08:15.12Z</time></trkpt><trkpt lat="43.1694517" lon="10.818335"><ele>239.00000000000003</ele><time>2026-04-25T13:08:16.121Z</time></trkpt><trkpt lat="43.1694767" lon="10.8182283"><ele>239.0</ele><time>2026-04-25T13:08:17.123Z</time></trkpt><trkpt lat="43.1695083" lon="10.818115"><ele>238.6</ele><time>2026-04-25T13:08:18.123Z</time></trkpt><trkpt lat="43.16954" lon="10.818"><ele>238.2</ele><time>2026-04-25T13:08:19.125Z</time></trkpt><trkpt lat="43.169575" lon="10.8178833"><ele>237.79999999999998</ele><time>2026-04-25T13:08:20.124Z</time></trkpt><trkpt lat="43.16961" lon="10.817765"><ele>237.39999999999998</ele><time>2026-04-25T13:08:21.117Z</time></trkpt><trkpt lat="43.1696433" lon="10.8176433"><ele>237.0</ele><time>2026-04-25T13:08:22.128Z</time></trkpt><trkpt lat="43.1696783" lon="10.8175217"><ele>237.0</ele><time>2026-04-25T13:08:23.133Z</time></trkpt><trkpt lat="43.1697117" lon="10.8174067"><ele>237.0</ele><time>2026-04-25T13:08:24.134Z</time></trkpt><trkpt lat="43.1697467" lon="10.8173017"><ele>237.0</ele><time>2026-04-25T13:08:25.121Z</time></trkpt><trkpt lat="43.16978" lon="10.817205"><ele>237.0</ele><time>2026-04-25T13:08:26.135Z</time></trkpt><trkpt lat="43.1698133" lon="10.817115"><ele>237.0</ele><time>2026-04-25T13:08:27.134Z</time></trkpt><trkpt lat="43.1698467" lon="10.8170333"><ele>237.0</ele><time>2026-04-25T13:08:28.126Z</time></trkpt><trkpt lat="43.1698833" lon="10.8169467"><ele>238.16666666666666</ele><time>2026-04-25T13:08:29.126Z</time></trkpt><trkpt lat="43.1699217" lon="10.8168533"><ele>239.33333333333331</ele><time>2026-04-25T13:08:30.123Z</time></trkpt><trkpt lat="43.1699617" lon="10.8167617"><ele>240.5</ele><time>2026-04-25T13:08:31.125Z</time></trkpt><trkpt lat="43.1700017" lon="10.8166733"><ele>241.66666666666666</ele><time>2026-04-25T13:08:32.125Z</time></trkpt><trkpt lat="43.17004" lon="10.81659"><ele>242.83333333333331</ele><time>2026-04-25T13:08:33.123Z</time></trkpt><trkpt lat="43.1700783" lon="10.8165133"><ele>244.0</ele><time>2026-04-25T13:08:34.134Z</time></trkpt><trkpt lat="43.1701367" lon="10.8163783"><ele>243.99999999999997</ele><time>2026-04-25T13:08:36.13Z</time></trkpt><trkpt lat="43.17018" lon="10.8162883"><ele>244.0</ele><time>2026-04-25T13:08:38.12Z</time></trkpt><trkpt lat="43.170195" lon="10.8161933"><ele>244.0</ele><time>2026-04-25T13:08:41.127Z</time></trkpt><trkpt lat="43.1702017" lon="10.8160883"><ele>244.0</ele><time>2026-04-25T13:08:49.125Z</time></trkpt><trkpt lat="43.170165" lon="10.815985"><ele>243.99999999999997</ele><time>2026-04-25T13:08:51.12Z</time></trkpt><trkpt lat="43.170115" lon="10.8158583"><ele>244.0</ele><time>2026-04-25T13:08:53.122Z</time></trkpt><trkpt lat="43.1700533" lon="10.81572"><ele>243.1428571428571</ele><time>2026-04-25T13:08:55.135Z</time></trkpt><trkpt lat="43.1700217" lon="10.8156433"><ele>242.28571428571428</ele><time>2026-04-25T13:08:56.125Z</time></trkpt><trkpt lat="43.1699883" lon="10.81556"><ele>241.42857142857142</ele><time>2026-04-25T13:08:57.128Z</time></trkpt><trkpt lat="43.169955" lon="10.8154783"><ele>240.57142857142856</ele><time>2026-04-25T13:08:58.141Z</time></trkpt><trkpt lat="43.1699183" lon="10.8153933"><ele>239.71428571428572</ele><time>2026-04-25T13:08:59.127Z</time></trkpt><trkpt lat="43.169885" lon="10.81531"><ele>238.85714285714286</ele><time>2026-04-25T13:09:00.13Z</time></trkpt><trkpt lat="43.1698517" lon="10.81523"><ele>238.0</ele><time>2026-04-25T13:09:01.137Z</time></trkpt><trkpt lat="43.16982" lon="10.81515"><ele>236.33333333333331</ele><time>2026-04-25T13:09:02.135Z</time></trkpt><trkpt lat="43.1697883" lon="10.8150733"><ele>234.66666666666666</ele><time>2026-04-25T13:09:03.132Z</time></trkpt><trkpt lat="43.169755" lon="10.8149933"><ele>233.0</ele><time>2026-04-25T13:09:04.129Z</time></trkpt><trkpt lat="43.16972" lon="10.8149133"><ele>231.33333333333331</ele><time>2026-04-25T13:09:05.141Z</time></trkpt><trkpt lat="43.1696883" lon="10.814835"><ele>229.66666666666666</ele><time>2026-04-25T13:09:06.127Z</time></trkpt><trkpt lat="43.1696267" lon="10.81469"><ele>228.0</ele><time>2026-04-25T13:09:08.136Z</time></trkpt><trkpt lat="43.169565" lon="10.8145533"><ele>228.0</ele><time>2026-04-25T13:09:10.127Z</time></trkpt><trkpt lat="43.1695067" lon="10.814415"><ele>228.0</ele><time>2026-04-25T13:09:12.121Z</time></trkpt><trkpt lat="43.1694467" lon="10.8142767"><ele>228.0</ele><time>2026-04-25T13:09:14.129Z</time></trkpt><trkpt lat="43.16939" lon="10.814135"><ele>228.0</ele><time>2026-04-25T13:09:16.125Z</time></trkpt><trkpt lat="43.1693283" lon="10.8139933"><ele>227.57142857142856</ele><time>2026-04-25T13:09:18.131Z</time></trkpt><trkpt lat="43.169295" lon="10.813915"><ele>227.1428571428571</ele><time>2026-04-25T13:09:19.132Z</time></trkpt><trkpt lat="43.1692617" lon="10.8138367"><ele>226.71428571428572</ele><time>2026-04-25T13:09:20.131Z</time></trkpt><trkpt lat="43.1692283" lon="10.813755"><ele>226.28571428571428</ele><time>2026-04-25T13:09:21.134Z</time></trkpt><trkpt lat="43.16919" lon="10.81367"><ele>225.85714285714286</ele><time>2026-04-25T13:09:22.131Z</time></trkpt><trkpt lat="43.16915" lon="10.81358"><ele>225.42857142857144</ele><time>2026-04-25T13:09:23.121Z</time></trkpt><trkpt lat="43.1691067" lon="10.8134833"><ele>225.00000000000003</ele><time>2026-04-25T13:09:24.139Z</time></trkpt><trkpt lat="43.1690633" lon="10.81338"><ele>223.33333333333334</ele><time>2026-04-25T13:09:25.133Z</time></trkpt><trkpt lat="43.16902" lon="10.813275"><ele>221.66666666666669</ele><time>2026-04-25T13:09:26.132Z</time></trkpt><trkpt lat="43.168975" lon="10.81317"><ele>220.0</ele><time>2026-04-25T13:09:27.141Z</time></trkpt><trkpt lat="43.16893" lon="10.8130683"><ele>218.33333333333334</ele><time>2026-04-25T13:09:28.129Z</time></trkpt><trkpt lat="43.168885" lon="10.8129667"><ele>216.66666666666669</ele><time>2026-04-25T13:09:29.132Z</time></trkpt><trkpt lat="43.1688433" lon="10.8128717"><ele>215.0</ele><time>2026-04-25T13:09:30.126Z</time></trkpt><trkpt lat="43.1688033" lon="10.81278"><ele>215.0</ele><time>2026-04-25T13:09:31.136Z</time></trkpt><trkpt lat="43.1687633" lon="10.81269"><ele>215.0</ele><time>2026-04-25T13:09:32.13Z</time></trkpt><trkpt lat="43.1687267" lon="10.8126033"><ele>215.0</ele><time>2026-04-25T13:09:33.133Z</time></trkpt><trkpt lat="43.16869" lon="10.81252"><ele>215.0</ele><time>2026-04-25T13:09:34.13Z</time></trkpt><trkpt lat="43.1686533" lon="10.81243"><ele>215.0</ele><time>2026-04-25T13:09:35.124Z</time></trkpt><trkpt lat="43.1686167" lon="10.81234"><ele>215.0</ele><time>2026-04-25T13:09:36.127Z</time></trkpt><trkpt lat="43.1685817" lon="10.8122567"><ele>215.0</ele><time>2026-04-25T13:09:37.134Z</time></trkpt><trkpt lat="43.168545" lon="10.81218"><ele>214.85714285714286</ele><time>2026-04-25T13:09:38.129Z</time></trkpt><trkpt lat="43.1685067" lon="10.8120967"><ele>214.71428571428572</ele><time>2026-04-25T13:09:39.124Z</time></trkpt><trkpt lat="43.1684683" lon="10.8120133"><ele>214.57142857142858</ele><time>2026-04-25T13:09:40.13Z</time></trkpt><trkpt lat="43.1684267" lon="10.8119333"><ele>214.42857142857144</ele><time>2026-04-25T13:09:41.14Z</time></trkpt><trkpt lat="43.1683867" lon="10.811855"><ele>214.28571428571428</ele><time>2026-04-25T13:09:42.127Z</time></trkpt><trkpt lat="43.1683467" lon="10.81178"><ele>214.14285714285717</ele><time>2026-04-25T13:09:43.135Z</time></trkpt><trkpt lat="43.1683067" lon="10.811705"><ele>214.0</ele><time>2026-04-25T13:09:44.142Z</time></trkpt><trkpt lat="43.168265" lon="10.81163"><ele>213.85714285714286</ele><time>2026-04-25T13:09:45.132Z</time></trkpt><trkpt lat="43.168225" lon="10.8115567"><ele>213.71428571428572</ele><time>2026-04-25T13:09:46.134Z</time></trkpt><trkpt lat="43.1681867" lon="10.81148"><ele>213.57142857142856</ele><time>2026-04-25T13:09:47.127Z</time></trkpt><trkpt lat="43.1681483" lon="10.8114"><ele>213.42857142857144</ele><time>2026-04-25T13:09:48.131Z</time></trkpt><trkpt lat="43.1681133" lon="10.8113217"><ele>213.28571428571428</ele><time>2026-04-25T13:09:49.126Z</time></trkpt><trkpt lat="43.1680833" lon="10.8112433"><ele>213.14285714285714</ele><time>2026-04-25T13:09:50.133Z</time></trkpt><trkpt lat="43.168055" lon="10.811165"><ele>213.0</ele><time>2026-04-25T13:09:51.123Z</time></trkpt><trkpt lat="43.1680067" lon="10.8110133"><ele>212.0</ele><time>2026-04-25T13:09:53.124Z</time></trkpt><trkpt lat="43.1679617" lon="10.8108733"><ele>211.0</ele><time>2026-04-25T13:09:55.135Z</time></trkpt><trkpt lat="43.1679117" lon="10.81073"><ele>210.0</ele><time>2026-04-25T13:09:57.123Z</time></trkpt><trkpt lat="43.1678783" lon="10.810655"><ele>209.0</ele><time>2026-04-25T13:09:58.142Z</time></trkpt><trkpt lat="43.16784" lon="10.8105817"><ele>208.0</ele><time>2026-04-25T13:09:59.135Z</time></trkpt><trkpt lat="43.1677933" lon="10.8105"><ele>207.0</ele><time>2026-04-25T13:10:00.127Z</time></trkpt><trkpt lat="43.16774" lon="10.8104167"><ele>207.0</ele><time>2026-04-25T13:10:01.126Z</time></trkpt><trkpt lat="43.1676817" lon="10.8103317"><ele>207.0</ele><time>2026-04-25T13:10:02.126Z</time></trkpt><trkpt lat="43.16762" lon="10.8102417"><ele>207.0</ele><time>2026-04-25T13:10:03.128Z</time></trkpt><trkpt lat="43.1675567" lon="10.8101467"><ele>207.0</ele><time>2026-04-25T13:10:04.12Z</time></trkpt><trkpt lat="43.16749" lon="10.81005"><ele>207.0</ele><time>2026-04-25T13:10:05.127Z</time></trkpt><trkpt lat="43.1674217" lon="10.8099517"><ele>205.2</ele><time>2026-04-25T13:10:06.121Z</time></trkpt><trkpt lat="43.16735" lon="10.8098483"><ele>203.39999999999998</ele><time>2026-04-25T13:10:07.136Z</time></trkpt><trkpt lat="43.1672767" lon="10.8097483"><ele>201.60000000000002</ele><time>2026-04-25T13:10:08.133Z</time></trkpt><trkpt lat="43.1672017" lon="10.8096433"><ele>199.8</ele><time>2026-04-25T13:10:09.125Z</time></trkpt><trkpt lat="43.1671283" lon="10.8095383"><ele>198.0</ele><time>2026-04-25T13:10:10.13Z</time></trkpt><trkpt lat="43.167055" lon="10.8094367"><ele>198.0</ele><time>2026-04-25T13:10:11.125Z</time></trkpt><trkpt lat="43.16698" lon="10.8093317"><ele>198.0</ele><time>2026-04-25T13:10:12.117Z</time></trkpt><trkpt lat="43.1669067" lon="10.8092283"><ele>198.0</ele><time>2026-04-25T13:10:13.126Z</time></trkpt><trkpt lat="43.166835" lon="10.8091283"><ele>198.0</ele><time>2026-04-25T13:10:14.127Z</time></trkpt><trkpt lat="43.1667683" lon="10.8090267"><ele>198.0</ele><time>2026-04-25T13:10:15.128Z</time></trkpt><trkpt lat="43.1667" lon="10.80892"><ele>198.2</ele><time>2026-04-25T13:10:16.121Z</time></trkpt><trkpt lat="43.166635" lon="10.8088117"><ele>198.4</ele><time>2026-04-25T13:10:17.131Z</time></trkpt><trkpt lat="43.1665683" lon="10.8087"><ele>198.6</ele><time>2026-04-25T13:10:18.122Z</time></trkpt><trkpt lat="43.1665" lon="10.8085833"><ele>198.79999999999998</ele><time>2026-04-25T13:10:19.123Z</time></trkpt><trkpt lat="43.1664333" lon="10.808465"><ele>199.0</ele><time>2026-04-25T13:10:20.133Z</time></trkpt><trkpt lat="43.1663683" lon="10.8083483"><ele>199.0</ele><time>2026-04-25T13:10:21.125Z</time></trkpt><trkpt lat="43.1663" lon="10.80823"><ele>199.0</ele><time>2026-04-25T13:10:22.111Z</time></trkpt><trkpt lat="43.1662367" lon="10.8081117"><ele>199.0</ele><time>2026-04-25T13:10:23.123Z</time></trkpt><trkpt lat="43.1661767" lon="10.807995"><ele>199.0</ele><time>2026-04-25T13:10:24.131Z</time></trkpt><trkpt lat="43.1661233" lon="10.80788"><ele>199.0</ele><time>2026-04-25T13:10:25.132Z</time></trkpt><trkpt lat="43.16607" lon="10.8077733"><ele>198.99999999999997</ele><time>2026-04-25T13:10:26.131Z</time></trkpt><trkpt lat="43.1660183" lon="10.8076733"><ele>199.0</ele><time>2026-04-25T13:10:27.131Z</time></trkpt><trkpt lat="43.16597" lon="10.80758"><ele>199.0</ele><time>2026-04-25T13:10:28.131Z</time></trkpt><trkpt lat="43.1659217" lon="10.8074967"><ele>199.0</ele><time>2026-04-25T13:10:29.132Z</time></trkpt><trkpt lat="43.1658683" lon="10.80742"><ele>198.99999999999997</ele><time>2026-04-25T13:10:30.131Z</time></trkpt><trkpt lat="43.16581" lon="10.8073483"><ele>199.0</ele><time>2026-04-25T13:10:31.124Z</time></trkpt><trkpt lat="43.1657467" lon="10.8072733"><ele>197.6</ele><time>2026-04-25T13:10:32.131Z</time></trkpt><trkpt lat="43.1656783" lon="10.8071967"><ele>196.2</ele><time>2026-04-25T13:10:33.123Z</time></trkpt><trkpt lat="43.1656083" lon="10.80712"><ele>194.79999999999998</ele><time>2026-04-25T13:10:34.123Z</time></trkpt><trkpt lat="43.1655367" lon="10.8070417"><ele>193.39999999999998</ele><time>2026-04-25T13:10:35.133Z</time></trkpt><trkpt lat="43.165465" lon="10.8069583"><ele>192.0</ele><time>2026-04-25T13:10:36.129Z</time></trkpt><trkpt lat="43.1653933" lon="10.806875"><ele>191.2</ele><time>2026-04-25T13:10:37.125Z</time></trkpt><trkpt lat="43.1653217" lon="10.8067917"><ele>190.39999999999998</ele><time>2026-04-25T13:10:38.131Z</time></trkpt><trkpt lat="43.16525" lon="10.8067083"><ele>189.60000000000002</ele><time>2026-04-25T13:10:39.131Z</time></trkpt><trkpt lat="43.16518" lon="10.8066267"><ele>188.8</ele><time>2026-04-25T13:10:40.133Z</time></trkpt><trkpt lat="43.16511" lon="10.8065467"><ele>188.0</ele><time>2026-04-25T13:10:41.121Z</time></trkpt><trkpt lat="43.16504" lon="10.80647"><ele>188.0</ele><time>2026-04-25T13:10:42.131Z</time></trkpt><trkpt lat="43.1649683" lon="10.8063983"><ele>188.0</ele><time>2026-04-25T13:10:43.126Z</time></trkpt><trkpt lat="43.1648917" lon="10.8063367"><ele>188.0</ele><time>2026-04-25T13:10:44.13Z</time></trkpt><trkpt lat="43.16481" lon="10.8062867"><ele>188.0</ele><time>2026-04-25T13:10:45.121Z</time></trkpt><trkpt lat="43.164725" lon="10.806245"><ele>188.0</ele><time>2026-04-25T13:10:46.13Z</time></trkpt><trkpt lat="43.1646383" lon="10.8062083"><ele>188.0</ele><time>2026-04-25T13:10:47.129Z</time></trkpt><trkpt lat="43.1645483" lon="10.80618"><ele>186.8</ele><time>2026-04-25T13:10:48.127Z</time></trkpt><trkpt lat="43.164455" lon="10.8061567"><ele>185.60000000000002</ele><time>2026-04-25T13:10:49.128Z</time></trkpt><trkpt lat="43.1643633" lon="10.8061333"><ele>184.39999999999998</ele><time>2026-04-25T13:10:50.138Z</time></trkpt><trkpt lat="43.1642717" lon="10.8061083"><ele>183.2</ele><time>2026-04-25T13:10:51.125Z</time></trkpt><trkpt lat="43.1641817" lon="10.806085"><ele>182.0</ele><time>2026-04-25T13:10:52.137Z</time></trkpt><trkpt lat="43.16409" lon="10.8060633"><ele>179.75</ele><time>2026-04-25T13:10:53.132Z</time></trkpt><trkpt lat="43.1638983" lon="10.806015"><ele>177.5</ele><time>2026-04-25T13:10:55.139Z</time></trkpt><trkpt lat="43.1638017" lon="10.805995"><ele>175.25</ele><time>2026-04-25T13:10:56.131Z</time></trkpt><trkpt lat="43.1637033" lon="10.8059767"><ele>173.0</ele><time>2026-04-25T13:10:57.13Z</time></trkpt><trkpt lat="43.163605" lon="10.8059683"><ele>173.0</ele><time>2026-04-25T13:10:58.131Z</time></trkpt><trkpt lat="43.1635083" lon="10.80597"><ele>173.0</ele><time>2026-04-25T13:10:59.132Z</time></trkpt><trkpt lat="43.1634167" lon="10.80598"><ele>173.0</ele><time>2026-04-25T13:11:00.128Z</time></trkpt><trkpt lat="43.1633317" lon="10.8059917"><ele>173.0</ele><time>2026-04-25T13:11:01.133Z</time></trkpt><trkpt lat="43.1632533" lon="10.8060017"><ele>173.0</ele><time>2026-04-25T13:11:02.12Z</time></trkpt><trkpt lat="43.1631783" lon="10.8060133"><ele>173.0</ele><time>2026-04-25T13:11:03.125Z</time></trkpt><trkpt lat="43.1631033" lon="10.806025"><ele>173.5</ele><time>2026-04-25T13:11:04.129Z</time></trkpt><trkpt lat="43.1630233" lon="10.8060367"><ele>174.0</ele><time>2026-04-25T13:11:05.134Z</time></trkpt><trkpt lat="43.1629417" lon="10.8060483"><ele>174.5</ele><time>2026-04-25T13:11:06.132Z</time></trkpt><trkpt lat="43.1628617" lon="10.80606"><ele>175.0</ele><time>2026-04-25T13:11:07.126Z</time></trkpt><trkpt lat="43.1627833" lon="10.8060683"><ele>175.5</ele><time>2026-04-25T13:11:08.12Z</time></trkpt><trkpt lat="43.1627067" lon="10.80608"><ele>176.0</ele><time>2026-04-25T13:11:09.124Z</time></trkpt><trkpt lat="43.16263" lon="10.806095"><ele>176.0</ele><time>2026-04-25T13:11:10.134Z</time></trkpt><trkpt lat="43.1625533" lon="10.8061217"><ele>176.0</ele><time>2026-04-25T13:11:11.125Z</time></trkpt><trkpt lat="43.1624833" lon="10.80616"><ele>176.0</ele><time>2026-04-25T13:11:12.122Z</time></trkpt><trkpt lat="43.1624217" lon="10.8062083"><ele>176.0</ele><time>2026-04-25T13:11:13.134Z</time></trkpt><trkpt lat="43.162365" lon="10.8062583"><ele>176.0</ele><time>2026-04-25T13:11:14.125Z</time></trkpt><trkpt lat="43.1623117" lon="10.8063083"><ele>176.0</ele><time>2026-04-25T13:11:15.12Z</time></trkpt><trkpt lat="43.1622067" lon="10.8064"><ele>177.5</ele><time>2026-04-25T13:11:17.122Z</time></trkpt><trkpt lat="43.1621483" lon="10.8064433"><ele>179.0</ele><time>2026-04-25T13:11:18.132Z</time></trkpt><trkpt lat="43.1620567" lon="10.80651"><ele>180.5</ele><time>2026-04-25T13:11:20.134Z</time></trkpt><trkpt lat="43.1619917" lon="10.8064883"><ele>182.0</ele><time>2026-04-25T13:11:23.136Z</time></trkpt><trkpt lat="43.1620033" lon="10.8063333"><ele>183.5</ele><time>2026-04-25T13:11:26.132Z</time></trkpt><trkpt lat="43.1620217" lon="10.8062433"><ele>185.0</ele><time>2026-04-25T13:11:27.137Z</time></trkpt><trkpt lat="43.1620433" lon="10.8061367"><ele>185.0</ele><time>2026-04-25T13:11:28.137Z</time></trkpt><trkpt lat="43.1620683" lon="10.80602"><ele>185.0</ele><time>2026-04-25T13:11:29.132Z</time></trkpt><trkpt lat="43.1620917" lon="10.805895"><ele>185.0</ele><time>2026-04-25T13:11:30.129Z</time></trkpt><trkpt lat="43.1621117" lon="10.8057617"><ele>185.0</ele><time>2026-04-25T13:11:31.126Z</time></trkpt><trkpt lat="43.1621417" lon="10.8056233"><ele>185.0</ele><time>2026-04-25T13:11:32.126Z</time></trkpt><trkpt lat="43.1621717" lon="10.80548"><ele>185.5</ele><time>2026-04-25T13:11:33.124Z</time></trkpt><trkpt lat="43.1622033" lon="10.8053333"><ele>186.0</ele><time>2026-04-25T13:11:34.13Z</time></trkpt><trkpt lat="43.1622333" lon="10.8051767"><ele>186.5</ele><time>2026-04-25T13:11:35.134Z</time></trkpt><trkpt lat="43.1622583" lon="10.80501"><ele>187.0</ele><time>2026-04-25T13:11:36.123Z</time></trkpt><trkpt lat="43.1622767" lon="10.8048367"><ele>188.0</ele><time>2026-04-25T13:11:37.138Z</time></trkpt><trkpt lat="43.1622883" lon="10.8046517"><ele>189.0</ele><time>2026-04-25T13:11:38.123Z</time></trkpt><trkpt lat="43.1623083" lon="10.8044683"><ele>190.0</ele><time>2026-04-25T13:11:39.128Z</time></trkpt><trkpt lat="43.1623283" lon="10.8042833"><ele>191.0</ele><time>2026-04-25T13:11:40.134Z</time></trkpt><trkpt lat="43.1623433" lon="10.8040933"><ele>191.25</ele><time>2026-04-25T13:11:41.132Z</time></trkpt><trkpt lat="43.1623567" lon="10.803905"><ele>191.5</ele><time>2026-04-25T13:11:42.132Z</time></trkpt><trkpt lat="43.16237" lon="10.8037217"><ele>191.75</ele><time>2026-04-25T13:11:43.137Z</time></trkpt><trkpt lat="43.1623867" lon="10.8035383"><ele>192.0</ele><time>2026-04-25T13:11:44.131Z</time></trkpt><trkpt lat="43.1624" lon="10.80336"><ele>187.25</ele><time>2026-04-25T13:11:45.126Z</time></trkpt><trkpt lat="43.162415" lon="10.8031833"><ele>182.5</ele><time>2026-04-25T13:11:46.138Z</time></trkpt><trkpt lat="43.1624283" lon="10.803005"><ele>177.75</ele><time>2026-04-25T13:11:47.129Z</time></trkpt><trkpt lat="43.162445" lon="10.8028283"><ele>173.0</ele><time>2026-04-25T13:11:48.124Z</time></trkpt><trkpt lat="43.16246" lon="10.8026517"><ele>173.0</ele><time>2026-04-25T13:11:49.134Z</time></trkpt><trkpt lat="43.162475" lon="10.8024783"><ele>173.0</ele><time>2026-04-25T13:11:50.135Z</time></trkpt><trkpt lat="43.16249" lon="10.8023133"><ele>173.0</ele><time>2026-04-25T13:11:51.136Z</time></trkpt><trkpt lat="43.1625067" lon="10.8021533"><ele>173.0</ele><time>2026-04-25T13:11:52.136Z</time></trkpt><trkpt lat="43.16252" lon="10.8019983"><ele>173.0</ele><time>2026-04-25T13:11:53.132Z</time></trkpt><trkpt lat="43.162525" lon="10.801845"><ele>173.0</ele><time>2026-04-25T13:11:54.134Z</time></trkpt><trkpt lat="43.16252" lon="10.8016933"><ele>173.0</ele><time>2026-04-25T13:11:55.133Z</time></trkpt><trkpt lat="43.1625033" lon="10.801545"><ele>173.0</ele><time>2026-04-25T13:11:56.123Z</time></trkpt><trkpt lat="43.1624817" lon="10.8013967"><ele>173.0</ele><time>2026-04-25T13:11:57.128Z</time></trkpt><trkpt lat="43.1624533" lon="10.8012483"><ele>172.4</ele><time>2026-04-25T13:11:58.127Z</time></trkpt><trkpt lat="43.1624167" lon="10.8011083"><ele>171.8</ele><time>2026-04-25T13:11:59.137Z</time></trkpt><trkpt lat="43.16237" lon="10.8009767"><ele>171.2</ele><time>2026-04-25T13:12:00.127Z</time></trkpt><trkpt lat="43.162315" lon="10.8008467"><ele>170.6</ele><time>2026-04-25T13:12:01.122Z</time></trkpt><trkpt lat="43.16225" lon="10.80072"><ele>170.0</ele><time>2026-04-25T13:12:02.122Z</time></trkpt><trkpt lat="43.1621767" lon="10.8005967"><ele>169.0</ele><time>2026-04-25T13:12:03.129Z</time></trkpt><trkpt lat="43.1621017" lon="10.8004683"><ele>168.0</ele><time>2026-04-25T13:12:04.138Z</time></trkpt><trkpt lat="43.1620317" lon="10.8003367"><ele>167.0</ele><time>2026-04-25T13:12:05.121Z</time></trkpt><trkpt lat="43.16196" lon="10.8002067"><ele>166.0</ele><time>2026-04-25T13:12:06.122Z</time></trkpt><trkpt lat="43.1618867" lon="10.80009"><ele>166.0</ele><time>2026-04-25T13:12:07.136Z</time></trkpt><trkpt lat="43.1618083" lon="10.7999783"><ele>166.0</ele><time>2026-04-25T13:12:08.128Z</time></trkpt><trkpt lat="43.1617267" lon="10.7998717"><ele>166.0</ele><time>2026-04-25T13:12:09.13Z</time></trkpt><trkpt lat="43.1616533" lon="10.7997667"><ele>166.0</ele><time>2026-04-25T13:12:10.129Z</time></trkpt><trkpt lat="43.1615883" lon="10.7996717"><ele>166.0</ele><time>2026-04-25T13:12:11.124Z</time></trkpt><trkpt lat="43.1615383" lon="10.7995783"><ele>165.83333333333334</ele><time>2026-04-25T13:12:12.122Z</time></trkpt><trkpt lat="43.1615033" lon="10.7994917"><ele>165.66666666666669</ele><time>2026-04-25T13:12:13.139Z</time></trkpt><trkpt lat="43.161515" lon="10.7993267"><ele>165.5</ele><time>2026-04-25T13:12:15.135Z</time></trkpt><trkpt lat="43.1615533" lon="10.7992417"><ele>165.33333333333334</ele><time>2026-04-25T13:12:16.133Z</time></trkpt><trkpt lat="43.161605" lon="10.7991433"><ele>165.16666666666666</ele><time>2026-04-25T13:12:17.134Z</time></trkpt><trkpt lat="43.1616583" lon="10.79904"><ele>165.0</ele><time>2026-04-25T13:12:18.132Z</time></trkpt><trkpt lat="43.16171" lon="10.7989367"><ele>163.66666666666666</ele><time>2026-04-25T13:12:19.13Z</time></trkpt><trkpt lat="43.16176" lon="10.798835"><ele>162.33333333333334</ele><time>2026-04-25T13:12:20.122Z</time></trkpt><trkpt lat="43.16181" lon="10.79873"><ele>161.0</ele><time>2026-04-25T13:12:21.123Z</time></trkpt><trkpt lat="43.1618583" lon="10.7986267"><ele>159.66666666666669</ele><time>2026-04-25T13:12:22.129Z</time></trkpt><trkpt lat="43.161905" lon="10.7985283"><ele>158.33333333333334</ele><time>2026-04-25T13:12:23.138Z</time></trkpt><trkpt lat="43.161955" lon="10.7984333"><ele>157.0</ele><time>2026-04-25T13:12:24.131Z</time></trkpt><trkpt lat="43.162" lon="10.7983417"><ele>156.5</ele><time>2026-04-25T13:12:25.13Z</time></trkpt><trkpt lat="43.1620433" lon="10.798255"><ele>156.0</ele><time>2026-04-25T13:12:26.138Z</time></trkpt><trkpt lat="43.1620817" lon="10.7981717"><ele>155.5</ele><time>2026-04-25T13:12:27.127Z</time></trkpt><trkpt lat="43.1621167" lon="10.798095"><ele>155.0</ele><time>2026-04-25T13:12:28.133Z</time></trkpt><trkpt lat="43.1621833" lon="10.7979567"><ele>154.5</ele><time>2026-04-25T13:12:30.133Z</time></trkpt><trkpt lat="43.1622433" lon="10.7978283"><ele>154.0</ele><time>2026-04-25T13:12:32.122Z</time></trkpt><trkpt lat="43.1623033" lon="10.7977033"><ele>153.83333333333334</ele><time>2026-04-25T13:12:34.122Z</time></trkpt><trkpt lat="43.1623533" lon="10.79759"><ele>153.66666666666669</ele><time>2026-04-25T13:12:36.119Z</time></trkpt><trkpt lat="43.1623983" lon="10.79749"><ele>153.5</ele><time>2026-04-25T13:12:38.13Z</time></trkpt><trkpt lat="43.1624417" lon="10.797395"><ele>153.33333333333334</ele><time>2026-04-25T13:12:40.127Z</time></trkpt><trkpt lat="43.16249" lon="10.7973"><ele>153.16666666666666</ele><time>2026-04-25T13:12:42.13Z</time></trkpt><trkpt lat="43.1625383" lon="10.79721"><ele>153.0</ele><time>2026-04-25T13:12:44.126Z</time></trkpt><trkpt lat="43.1625817" lon="10.7971083"><ele>153.33333333333334</ele><time>2026-04-25T13:12:46.144Z</time></trkpt><trkpt lat="43.16262" lon="10.7970017"><ele>153.66666666666666</ele><time>2026-04-25T13:12:48.138Z</time></trkpt><trkpt lat="43.162635" lon="10.7968783"><ele>154.0</ele><time>2026-04-25T13:12:50.131Z</time></trkpt><trkpt lat="43.1626283" lon="10.7967483"><ele>154.33333333333331</ele><time>2026-04-25T13:12:52.126Z</time></trkpt><trkpt lat="43.1626133" lon="10.7966217"><ele>154.66666666666666</ele><time>2026-04-25T13:12:54.131Z</time></trkpt><trkpt lat="43.1626033" lon="10.79652"><ele>155.0</ele><time>2026-04-25T13:12:56.129Z</time></trkpt><trkpt lat="43.1625883" lon="10.7964017"><ele>155.33333333333331</ele><time>2026-04-25T13:13:00.128Z</time></trkpt><trkpt lat="43.1625583" lon="10.7963"><ele>155.66666666666666</ele><time>2026-04-25T13:13:02.135Z</time></trkpt><trkpt lat="43.1625117" lon="10.7961567"><ele>156.0</ele><time>2026-04-25T13:13:04.126Z</time></trkpt><trkpt lat="43.162485" lon="10.7960683"><ele>156.33333333333334</ele><time>2026-04-25T13:13:05.128Z</time></trkpt><trkpt lat="43.162455" lon="10.795965"><ele>156.66666666666669</ele><time>2026-04-25T13:13:06.13Z</time></trkpt><trkpt lat="43.1624217" lon="10.7958517"><ele>157.0</ele><time>2026-04-25T13:13:07.123Z</time></trkpt><trkpt lat="43.16239" lon="10.7957317"><ele>156.6</ele><time>2026-04-25T13:13:08.136Z</time></trkpt><trkpt lat="43.162355" lon="10.7956133"><ele>156.2</ele><time>2026-04-25T13:13:09.127Z</time></trkpt><trkpt lat="43.1623183" lon="10.7954883"><ele>155.8</ele><time>2026-04-25T13:13:10.136Z</time></trkpt><trkpt lat="43.1622817" lon="10.79535"><ele>155.4</ele><time>2026-04-25T13:13:11.131Z</time></trkpt><trkpt lat="43.1622433" lon="10.7952067"><ele>155.0</ele><time>2026-04-25T13:13:12.121Z</time></trkpt><trkpt lat="43.1621983" lon="10.79506"><ele>155.0</ele><time>2026-04-25T13:13:13.141Z</time></trkpt><trkpt lat="43.16215" lon="10.7949117"><ele>155.0</ele><time>2026-04-25T13:13:14.137Z</time></trkpt><trkpt lat="43.1620967" lon="10.79476"><ele>155.0</ele><time>2026-04-25T13:13:15.126Z</time></trkpt><trkpt lat="43.1620383" lon="10.7946067"><ele>155.0</ele><time>2026-04-25T13:13:16.133Z</time></trkpt><trkpt lat="43.161965" lon="10.7944517"><ele>156.5</ele><time>2026-04-25T13:13:17.139Z</time></trkpt><trkpt lat="43.1618867" lon="10.794295"><ele>158.0</ele><time>2026-04-25T13:13:18.126Z</time></trkpt><trkpt lat="43.1618" lon="10.7941417"><ele>159.5</ele><time>2026-04-25T13:13:19.128Z</time></trkpt><trkpt lat="43.1617083" lon="10.79399"><ele>161.0</ele><time>2026-04-25T13:13:20.14Z</time></trkpt><trkpt lat="43.1616117" lon="10.793835"><ele>159.66666666666666</ele><time>2026-04-25T13:13:21.134Z</time></trkpt><trkpt lat="43.1615133" lon="10.7936767"><ele>158.33333333333334</ele><time>2026-04-25T13:13:22.139Z</time></trkpt><trkpt lat="43.1614117" lon="10.7935167"><ele>157.0</ele><time>2026-04-25T13:13:23.124Z</time></trkpt><trkpt lat="43.16131" lon="10.7933583"><ele>157.0</ele><time>2026-04-25T13:13:24.132Z</time></trkpt><trkpt lat="43.1612067" lon="10.7932"><ele>157.0</ele><time>2026-04-25T13:13:25.139Z</time></trkpt><trkpt lat="43.1611067" lon="10.7930433"><ele>157.0</ele><time>2026-04-25T13:13:26.137Z</time></trkpt><trkpt lat="43.161005" lon="10.7928867"><ele>163.0</ele><time>2026-04-25T13:13:27.133Z</time></trkpt><trkpt lat="43.1608083" lon="10.7925667"><ele>169.0</ele><time>2026-04-25T13:13:29.122Z</time></trkpt><trkpt lat="43.1607117" lon="10.7924033"><ele>164.66666666666669</ele><time>2026-04-25T13:13:30.138Z</time></trkpt><trkpt lat="43.1606133" lon="10.7922383"><ele>160.33333333333334</ele><time>2026-04-25T13:13:31.132Z</time></trkpt><trkpt lat="43.160515" lon="10.7920683"><ele>156.0</ele><time>2026-04-25T13:13:32.126Z</time></trkpt><trkpt lat="43.1604183" lon="10.7918983"><ele>158.0</ele><time>2026-04-25T13:13:33.13Z</time></trkpt><trkpt lat="43.1603217" lon="10.7917333"><ele>160.0</ele><time>2026-04-25T13:13:34.141Z</time></trkpt><trkpt lat="43.1602283" lon="10.79157"><ele>162.0</ele><time>2026-04-25T13:13:35.129Z</time></trkpt><trkpt lat="43.1601417" lon="10.7914067"><ele>162.0</ele><time>2026-04-25T13:13:36.134Z</time></trkpt><trkpt lat="43.16005" lon="10.7912417"><ele>162.0</ele><time>2026-04-25T13:13:37.131Z</time></trkpt><trkpt lat="43.1599517" lon="10.7910817"><ele>162.0</ele><time>2026-04-25T13:13:38.133Z</time></trkpt><trkpt lat="43.15985" lon="10.7909167"><ele>159.66666666666666</ele><time>2026-04-25T13:13:39.134Z</time></trkpt><trkpt lat="43.1597483" lon="10.7907467"><ele>157.33333333333331</ele><time>2026-04-25T13:13:40.127Z</time></trkpt><trkpt lat="43.1596517" lon="10.7905867"><ele>155.0</ele><time>2026-04-25T13:13:41.134Z</time></trkpt><trkpt lat="43.1595567" lon="10.790435"><ele>155.0</ele><time>2026-04-25T13:13:42.13Z</time></trkpt><trkpt lat="43.159465" lon="10.7902883"><ele>155.0</ele><time>2026-04-25T13:13:43.122Z</time></trkpt><trkpt lat="43.159375" lon="10.79014"><ele>155.0</ele><time>2026-04-25T13:13:44.127Z</time></trkpt><trkpt lat="43.1592833" lon="10.78999"><ele>155.0</ele><time>2026-04-25T13:13:45.129Z</time></trkpt><trkpt lat="43.15919" lon="10.78984"><ele>155.0</ele><time>2026-04-25T13:13:46.13Z</time></trkpt><trkpt lat="43.1591" lon="10.78969"><ele>155.0</ele><time>2026-04-25T13:13:47.129Z</time></trkpt><trkpt lat="43.1590117" lon="10.789545"><ele>155.0</ele><time>2026-04-25T13:13:48.129Z</time></trkpt><trkpt lat="43.1589283" lon="10.7893983"><ele>155.0</ele><time>2026-04-25T13:13:49.13Z</time></trkpt><trkpt lat="43.158845" lon="10.789255"><ele>155.0</ele><time>2026-04-25T13:13:50.129Z</time></trkpt><trkpt lat="43.1587583" lon="10.789115"><ele>155.0</ele><time>2026-04-25T13:13:51.126Z</time></trkpt><trkpt lat="43.1586733" lon="10.7889767"><ele>155.0</ele><time>2026-04-25T13:13:52.123Z</time></trkpt><trkpt lat="43.1585917" lon="10.7888433"><ele>155.0</ele><time>2026-04-25T13:13:53.132Z</time></trkpt><trkpt lat="43.1585183" lon="10.7887167"><ele>155.0</ele><time>2026-04-25T13:13:54.124Z</time></trkpt><trkpt lat="43.158455" lon="10.7885967"><ele>155.0</ele><time>2026-04-25T13:13:55.123Z</time></trkpt><trkpt lat="43.1584" lon="10.7884783"><ele>155.0</ele><time>2026-04-25T13:13:56.125Z</time></trkpt><trkpt lat="43.158355" lon="10.7883483"><ele>155.0</ele><time>2026-04-25T13:13:57.131Z</time></trkpt><trkpt lat="43.1583217" lon="10.7882067"><ele>155.0</ele><time>2026-04-25T13:13:58.13Z</time></trkpt><trkpt lat="43.1583167" lon="10.78792"><ele>156.6</ele><time>2026-04-25T13:14:00.131Z</time></trkpt><trkpt lat="43.1583417" lon="10.78779"><ele>158.2</ele><time>2026-04-25T13:14:01.119Z</time></trkpt><trkpt lat="43.1583867" lon="10.787665"><ele>159.8</ele><time>2026-04-25T13:14:02.129Z</time></trkpt><trkpt lat="43.1584517" lon="10.7875483"><ele>161.4</ele><time>2026-04-25T13:14:03.123Z</time></trkpt><trkpt lat="43.1585333" lon="10.787435"><ele>163.0</ele><time>2026-04-25T13:14:04.123Z</time></trkpt><trkpt lat="43.1586267" lon="10.78732"><ele>163.25</ele><time>2026-04-25T13:14:05.124Z</time></trkpt><trkpt lat="43.1587183" lon="10.7872033"><ele>163.5</ele><time>2026-04-25T13:14:06.125Z</time></trkpt><trkpt lat="43.1588083" lon="10.787095"><ele>163.75</ele><time>2026-04-25T13:14:07.132Z</time></trkpt><trkpt lat="43.158895" lon="10.7869933"><ele>164.0</ele><time>2026-04-25T13:14:08.119Z</time></trkpt><trkpt lat="43.158985" lon="10.786895"><ele>165.39999999999998</ele><time>2026-04-25T13:14:09.135Z</time></trkpt><trkpt lat="43.1590783" lon="10.7867967"><ele>166.8</ele><time>2026-04-25T13:14:10.127Z</time></trkpt><trkpt lat="43.1591717" lon="10.786705"><ele>168.2</ele><time>2026-04-25T13:14:11.131Z</time></trkpt><trkpt lat="43.1592617" lon="10.7866183"><ele>169.60000000000002</ele><time>2026-04-25T13:14:12.128Z</time></trkpt><trkpt lat="43.159345" lon="10.78653"><ele>171.0</ele><time>2026-04-25T13:14:13.135Z</time></trkpt><trkpt lat="43.1594283" lon="10.78644"><ele>171.0</ele><time>2026-04-25T13:14:14.127Z</time></trkpt><trkpt lat="43.159515" lon="10.78635"><ele>171.0</ele><time>2026-04-25T13:14:15.134Z</time></trkpt><trkpt lat="43.159605" lon="10.78626"><ele>171.0</ele><time>2026-04-25T13:14:16.131Z</time></trkpt><trkpt lat="43.1596983" lon="10.786175"><ele>171.0</ele><time>2026-04-25T13:14:17.12Z</time></trkpt><trkpt lat="43.1597933" lon="10.786105"><ele>171.0</ele><time>2026-04-25T13:14:18.144Z</time></trkpt><trkpt lat="43.1598917" lon="10.7860367"><ele>170.75</ele><time>2026-04-25T13:14:19.142Z</time></trkpt><trkpt lat="43.159995" lon="10.785975"><ele>170.5</ele><time>2026-04-25T13:14:20.135Z</time></trkpt><trkpt lat="43.1601083" lon="10.7859217"><ele>170.25</ele><time>2026-04-25T13:14:21.124Z</time></trkpt><trkpt lat="43.16022" lon="10.7858733"><ele>170.0</ele><time>2026-04-25T13:14:22.133Z</time></trkpt><trkpt lat="43.16034" lon="10.7858267"><ele>170.0</ele><time>2026-04-25T13:14:23.119Z</time></trkpt><trkpt lat="43.1604533" lon="10.7857817"><ele>170.0</ele><time>2026-04-25T13:14:24.132Z</time></trkpt><trkpt lat="43.16056" lon="10.78574"><ele>170.0</ele><time>2026-04-25T13:14:25.129Z</time></trkpt><trkpt lat="43.16067" lon="10.785705"><ele>170.0</ele><time>2026-04-25T13:14:26.124Z</time></trkpt><trkpt lat="43.160785" lon="10.7856883"><ele>170.75</ele><time>2026-04-25T13:14:27.131Z</time></trkpt><trkpt lat="43.1608983" lon="10.78568"><ele>171.5</ele><time>2026-04-25T13:14:28.131Z</time></trkpt><trkpt lat="43.161015" lon="10.785675"><ele>172.25</ele><time>2026-04-25T13:14:29.129Z</time></trkpt><trkpt lat="43.16113" lon="10.78567"><ele>173.0</ele><time>2026-04-25T13:14:30.132Z</time></trkpt><trkpt lat="43.1612467" lon="10.7856683"><ele>173.0</ele><time>2026-04-25T13:14:31.133Z</time></trkpt><trkpt lat="43.1613567" lon="10.7856667"><ele>173.0</ele><time>2026-04-25T13:14:32.129Z</time></trkpt><trkpt lat="43.161455" lon="10.7856617"><ele>173.0</ele><time>2026-04-25T13:14:33.138Z</time></trkpt><trkpt lat="43.16154" lon="10.7856383"><ele>173.0</ele><time>2026-04-25T13:14:34.131Z</time></trkpt><trkpt lat="43.1616333" lon="10.7855883"><ele>173.0</ele><time>2026-04-25T13:14:35.124Z</time></trkpt><trkpt lat="43.1617067" lon="10.7855017"><ele>172.2</ele><time>2026-04-25T13:14:36.122Z</time></trkpt><trkpt lat="43.1617717" lon="10.7853867"><ele>171.4</ele><time>2026-04-25T13:14:37.124Z</time></trkpt><trkpt lat="43.1618267" lon="10.7852583"><ele>170.6</ele><time>2026-04-25T13:14:38.121Z</time></trkpt><trkpt lat="43.161875" lon="10.785145"><ele>169.79999999999998</ele><time>2026-04-25T13:14:39.119Z</time></trkpt><trkpt lat="43.16192" lon="10.78505"><ele>169.0</ele><time>2026-04-25T13:14:40.118Z</time></trkpt><trkpt lat="43.1619567" lon="10.7849767"><ele>168.85714285714286</ele><time>2026-04-25T13:14:41.121Z</time></trkpt><trkpt lat="43.162035" lon="10.78489"><ele>168.71428571428572</ele><time>2026-04-25T13:14:43.125Z</time></trkpt><trkpt lat="43.16209" lon="10.784845"><ele>168.57142857142856</ele><time>2026-04-25T13:14:45.125Z</time></trkpt><trkpt lat="43.162045" lon="10.7847667"><ele>168.42857142857144</ele><time>2026-04-25T13:14:51.119Z</time></trkpt><trkpt lat="43.161995" lon="10.7847133"><ele>168.28571428571428</ele><time>2026-04-25T13:14:53.128Z</time></trkpt><trkpt lat="43.161935" lon="10.784635"><ele>168.14285714285714</ele><time>2026-04-25T13:14:56.124Z</time></trkpt><trkpt lat="43.16188" lon="10.7845917"><ele>168.0</ele><time>2026-04-25T13:15:00.126Z</time></trkpt><trkpt lat="43.1618233" lon="10.7845517"><ele>168.0</ele><time>2026-04-25T13:16:16.125Z</time></trkpt><trkpt lat="43.16175" lon="10.7844883"><ele>168.0</ele><time>2026-04-25T13:16:20.131Z</time></trkpt><trkpt lat="43.1616933" lon="10.7844383"><ele>168.0</ele><time>2026-04-25T13:16:22.129Z</time></trkpt><trkpt lat="43.161635" lon="10.784395"><ele>168.0</ele><time>2026-04-25T13:16:24.126Z</time></trkpt><trkpt lat="43.16171" lon="10.7844783"><ele>168.0</ele><time>2026-04-25T13:16:33.124Z</time></trkpt><trkpt lat="43.1618317" lon="10.7845667"><ele>168.0</ele><time>2026-04-25T13:16:35.129Z</time></trkpt><trkpt lat="43.161895" lon="10.78463"><ele>168.0</ele><time>2026-04-25T13:16:36.142Z</time></trkpt><trkpt lat="43.16195" lon="10.78469"><ele>168.0</ele><time>2026-04-25T13:16:37.135Z</time></trkpt><trkpt lat="43.1620367" lon="10.784775"><ele>168.0</ele><time>2026-04-25T13:16:39.13Z</time></trkpt><trkpt lat="43.16214" lon="10.784825"><ele>168.0</ele><time>2026-04-25T13:16:41.129Z</time></trkpt><trkpt lat="43.162205" lon="10.7848367"><ele>168.0</ele><time>2026-04-25T13:16:42.128Z</time></trkpt><trkpt lat="43.1622783" lon="10.7848467"><ele>169.4</ele><time>2026-04-25T13:16:43.14Z</time></trkpt><trkpt lat="43.162365" lon="10.7848517"><ele>170.8</ele><time>2026-04-25T13:16:44.126Z</time></trkpt><trkpt lat="43.1624633" lon="10.78485"><ele>172.2</ele><time>2026-04-25T13:16:45.132Z</time></trkpt><trkpt lat="43.1625733" lon="10.7848467"><ele>173.6</ele><time>2026-04-25T13:16:46.131Z</time></trkpt><trkpt lat="43.16268" lon="10.78484"><ele>175.0</ele><time>2026-04-25T13:16:47.124Z</time></trkpt><trkpt lat="43.16279" lon="10.7848383"><ele>175.0</ele><time>2026-04-25T13:16:48.118Z</time></trkpt><trkpt lat="43.16289" lon="10.7848217"><ele>175.0</ele><time>2026-04-25T13:16:49.143Z</time></trkpt><trkpt lat="43.1629883" lon="10.78479"><ele>175.0</ele><time>2026-04-25T13:16:50.136Z</time></trkpt><trkpt lat="43.16308" lon="10.7847383"><ele>175.0</ele><time>2026-04-25T13:16:51.122Z</time></trkpt><trkpt lat="43.1631583" lon="10.7846617"><ele>175.0</ele><time>2026-04-25T13:16:52.139Z</time></trkpt><trkpt lat="43.1632183" lon="10.784575"><ele>176.0</ele><time>2026-04-25T13:16:53.128Z</time></trkpt><trkpt lat="43.1632583" lon="10.7844833"><ele>177.0</ele><time>2026-04-25T13:16:54.128Z</time></trkpt><trkpt lat="43.16329" lon="10.7843883"><ele>178.0</ele><time>2026-04-25T13:16:55.124Z</time></trkpt><trkpt lat="43.163315" lon="10.7842817"><ele>179.0</ele><time>2026-04-25T13:16:56.125Z</time></trkpt><trkpt lat="43.163355" lon="10.7841833"><ele>180.0</ele><time>2026-04-25T13:16:57.139Z</time></trkpt><trkpt lat="43.163415" lon="10.7840933"><ele>181.0</ele><time>2026-04-25T13:16:58.141Z</time></trkpt><trkpt lat="43.1635067" lon="10.7840117"><ele>181.0</ele><time>2026-04-25T13:16:59.124Z</time></trkpt><trkpt lat="43.1636217" lon="10.7839317"><ele>181.0</ele><time>2026-04-25T13:17:00.124Z</time></trkpt><trkpt lat="43.16374" lon="10.7838517"><ele>181.0</ele><time>2026-04-25T13:17:01.126Z</time></trkpt><trkpt lat="43.1638533" lon="10.7837733"><ele>181.0</ele><time>2026-04-25T13:17:02.125Z</time></trkpt><trkpt lat="43.1639583" lon="10.7837183"><ele>182.83333333333334</ele><time>2026-04-25T13:17:03.122Z</time></trkpt><trkpt lat="43.1640583" lon="10.783695"><ele>184.66666666666669</ele><time>2026-04-25T13:17:04.136Z</time></trkpt><trkpt lat="43.1641433" lon="10.7837"><ele>186.5</ele><time>2026-04-25T13:17:05.123Z</time></trkpt><trkpt lat="43.1642133" lon="10.7837233"><ele>188.33333333333334</ele><time>2026-04-25T13:17:06.134Z</time></trkpt><trkpt lat="43.16427" lon="10.7837767"><ele>190.16666666666666</ele><time>2026-04-25T13:17:07.138Z</time></trkpt><trkpt lat="43.164315" lon="10.78386"><ele>192.0</ele><time>2026-04-25T13:17:08.124Z</time></trkpt><trkpt lat="43.1643433" lon="10.7839767"><ele>192.0</ele><time>2026-04-25T13:17:09.133Z</time></trkpt><trkpt lat="43.1643617" lon="10.7841183"><ele>192.0</ele><time>2026-04-25T13:17:10.134Z</time></trkpt><trkpt lat="43.1643917" lon="10.7842483"><ele>192.0</ele><time>2026-04-25T13:17:11.131Z</time></trkpt><trkpt lat="43.1644517" lon="10.784365"><ele>192.0</ele><time>2026-04-25T13:17:12.126Z</time></trkpt><trkpt lat="43.1645283" lon="10.7844583"><ele>192.0</ele><time>2026-04-25T13:17:13.132Z</time></trkpt><trkpt lat="43.16461" lon="10.784525"><ele>192.39999999999998</ele><time>2026-04-25T13:17:14.127Z</time></trkpt><trkpt lat="43.1646983" lon="10.784565"><ele>192.79999999999998</ele><time>2026-04-25T13:17:15.129Z</time></trkpt><trkpt lat="43.1647867" lon="10.7845767"><ele>193.2</ele><time>2026-04-25T13:17:16.133Z</time></trkpt><trkpt lat="43.16487" lon="10.78456"><ele>193.6</ele><time>2026-04-25T13:17:17.126Z</time></trkpt><trkpt lat="43.1649467" lon="10.78449"><ele>194.0</ele><time>2026-04-25T13:17:18.129Z</time></trkpt><trkpt lat="43.1650033" lon="10.7843717"><ele>196.39999999999998</ele><time>2026-04-25T13:17:19.135Z</time></trkpt><trkpt lat="43.1650467" lon="10.7842567"><ele>198.8</ele><time>2026-04-25T13:17:20.139Z</time></trkpt><trkpt lat="43.1651" lon="10.7841533"><ele>201.2</ele><time>2026-04-25T13:17:21.133Z</time></trkpt><trkpt lat="43.1651767" lon="10.784085"><ele>203.60000000000002</ele><time>2026-04-25T13:17:22.131Z</time></trkpt><trkpt lat="43.1652567" lon="10.7840417"><ele>206.0</ele><time>2026-04-25T13:17:23.124Z</time></trkpt><trkpt lat="43.1653467" lon="10.78404"><ele>206.0</ele><time>2026-04-25T13:17:24.13Z</time></trkpt><trkpt lat="43.1654467" lon="10.7840733"><ele>206.0</ele><time>2026-04-25T13:17:25.128Z</time></trkpt><trkpt lat="43.1655467" lon="10.7841767"><ele>206.0</ele><time>2026-04-25T13:17:26.131Z</time></trkpt><trkpt lat="43.1656283" lon="10.7843267"><ele>206.0</ele><time>2026-04-25T13:17:27.138Z</time></trkpt><trkpt lat="43.165695" lon="10.7844967"><ele>209.75</ele><time>2026-04-25T13:17:28.127Z</time></trkpt><trkpt lat="43.1657467" lon="10.7846833"><ele>213.5</ele><time>2026-04-25T13:17:29.127Z</time></trkpt><trkpt lat="43.1657883" lon="10.7848633"><ele>217.25</ele><time>2026-04-25T13:17:30.134Z</time></trkpt><trkpt lat="43.1658217" lon="10.7850283"><ele>221.0</ele><time>2026-04-25T13:17:31.136Z</time></trkpt><trkpt lat="43.1658467" lon="10.785175"><ele>221.60000000000002</ele><time>2026-04-25T13:17:32.129Z</time></trkpt><trkpt lat="43.1658683" lon="10.7853083"><ele>222.20000000000002</ele><time>2026-04-25T13:17:33.134Z</time></trkpt><trkpt lat="43.16589" lon="10.7854383"><ele>222.79999999999998</ele><time>2026-04-25T13:17:34.137Z</time></trkpt><trkpt lat="43.1659133" lon="10.7855667"><ele>223.39999999999998</ele><time>2026-04-25T13:17:35.126Z</time></trkpt><trkpt lat="43.1659317" lon="10.7857017"><ele>224.0</ele><time>2026-04-25T13:17:36.136Z</time></trkpt><trkpt lat="43.1659567" lon="10.7858433"><ele>224.0</ele><time>2026-04-25T13:17:37.132Z</time></trkpt><trkpt lat="43.1659817" lon="10.7859883"><ele>224.0</ele><time>2026-04-25T13:17:38.123Z</time></trkpt><trkpt lat="43.166005" lon="10.786135"><ele>224.0</ele><time>2026-04-25T13:17:39.129Z</time></trkpt><trkpt lat="43.166025" lon="10.7862917"><ele>224.0</ele><time>2026-04-25T13:17:40.131Z</time></trkpt><trkpt lat="43.1660367" lon="10.78646"><ele>224.25</ele><time>2026-04-25T13:17:41.135Z</time></trkpt><trkpt lat="43.1660383" lon="10.786635"><ele>224.5</ele><time>2026-04-25T13:17:42.135Z</time></trkpt><trkpt lat="43.166035" lon="10.7868217"><ele>224.75</ele><time>2026-04-25T13:17:43.131Z</time></trkpt><trkpt lat="43.1660317" lon="10.7870133"><ele>225.0</ele><time>2026-04-25T13:17:44.13Z</time></trkpt><trkpt lat="43.1660267" lon="10.7872083"><ele>226.0</ele><time>2026-04-25T13:17:45.136Z</time></trkpt><trkpt lat="43.16602" lon="10.78741"><ele>227.0</ele><time>2026-04-25T13:17:46.13Z</time></trkpt><trkpt lat="43.1660117" lon="10.7876083"><ele>228.0</ele><time>2026-04-25T13:17:47.129Z</time></trkpt><trkpt lat="43.166005" lon="10.7878017"><ele>229.0</ele><time>2026-04-25T13:17:48.127Z</time></trkpt><trkpt lat="43.166" lon="10.7879967"><ele>230.5</ele><time>2026-04-25T13:17:49.124Z</time></trkpt><trkpt lat="43.1659917" lon="10.7881983"><ele>232.0</ele><time>2026-04-25T13:17:50.129Z</time></trkpt><trkpt lat="43.1659817" lon="10.7884033"><ele>233.5</ele><time>2026-04-25T13:17:51.119Z</time></trkpt><trkpt lat="43.16597" lon="10.7886033"><ele>235.0</ele><time>2026-04-25T13:17:52.121Z</time></trkpt><trkpt lat="43.165955" lon="10.7887933"><ele>236.5</ele><time>2026-04-25T13:17:53.121Z</time></trkpt><trkpt lat="43.1659383" lon="10.7889733"><ele>238.0</ele><time>2026-04-25T13:17:54.128Z</time></trkpt><trkpt lat="43.1659233" lon="10.7891483"><ele>239.5</ele><time>2026-04-25T13:17:55.14Z</time></trkpt><trkpt lat="43.16591" lon="10.7893267"><ele>241.0</ele><time>2026-04-25T13:17:56.123Z</time></trkpt><trkpt lat="43.1659033" lon="10.7895033"><ele>242.25</ele><time>2026-04-25T13:17:57.119Z</time></trkpt><trkpt lat="43.1659017" lon="10.7896817"><ele>243.5</ele><time>2026-04-25T13:17:58.132Z</time></trkpt><trkpt lat="43.1659017" lon="10.7898583"><ele>244.75</ele><time>2026-04-25T13:17:59.122Z</time></trkpt><trkpt lat="43.1658983" lon="10.79003"><ele>246.0</ele><time>2026-04-25T13:18:00.123Z</time></trkpt><trkpt lat="43.16589" lon="10.7901933"><ele>248.4</ele><time>2026-04-25T13:18:01.129Z</time></trkpt><trkpt lat="43.1658733" lon="10.7903433"><ele>250.8</ele><time>2026-04-25T13:18:02.13Z</time></trkpt><trkpt lat="43.16585" lon="10.790485"><ele>253.20000000000002</ele><time>2026-04-25T13:18:03.124Z</time></trkpt><trkpt lat="43.1658167" lon="10.7906167"><ele>255.60000000000002</ele><time>2026-04-25T13:18:04.122Z</time></trkpt><trkpt lat="43.1657783" lon="10.790735"><ele>258.0</ele><time>2026-04-25T13:18:05.127Z</time></trkpt><trkpt lat="43.1657433" lon="10.7908483"><ele>258.0</ele><time>2026-04-25T13:18:06.133Z</time></trkpt><trkpt lat="43.1657167" lon="10.7909517"><ele>258.0</ele><time>2026-04-25T13:18:07.132Z</time></trkpt><trkpt lat="43.1657017" lon="10.7910583"><ele>258.0</ele><time>2026-04-25T13:18:08.126Z</time></trkpt><trkpt lat="43.1657017" lon="10.7911667"><ele>258.0</ele><time>2026-04-25T13:18:09.119Z</time></trkpt><trkpt lat="43.1657117" lon="10.79127"><ele>258.0</ele><time>2026-04-25T13:18:10.121Z</time></trkpt><trkpt lat="43.1657633" lon="10.791395"><ele>258.0</ele><time>2026-04-25T13:18:12.123Z</time></trkpt><trkpt lat="43.1658817" lon="10.79133"><ele>259.0</ele><time>2026-04-25T13:18:14.136Z</time></trkpt><trkpt lat="43.165955" lon="10.79124"><ele>260.0</ele><time>2026-04-25T13:18:15.135Z</time></trkpt><trkpt lat="43.16602" lon="10.7911617"><ele>261.0</ele><time>2026-04-25T13:18:16.128Z</time></trkpt><trkpt lat="43.166085" lon="10.7910933"><ele>262.0</ele><time>2026-04-25T13:18:17.124Z</time></trkpt><trkpt lat="43.166145" lon="10.7910517"><ele>263.0</ele><time>2026-04-25T13:18:18.136Z</time></trkpt><trkpt lat="43.16627" lon="10.7910533"><ele>263.0</ele><time>2026-04-25T13:18:20.126Z</time></trkpt><trkpt lat="43.1663483" lon="10.79109"><ele>263.0</ele><time>2026-04-25T13:18:21.128Z</time></trkpt><trkpt lat="43.166415" lon="10.791155"><ele>263.0</ele><time>2026-04-25T13:18:22.143Z</time></trkpt><trkpt lat="43.1664833" lon="10.7912483"><ele>263.0</ele><time>2026-04-25T13:18:23.132Z</time></trkpt><trkpt lat="43.1665617" lon="10.7913617"><ele>263.0</ele><time>2026-04-25T13:18:24.134Z</time></trkpt><trkpt lat="43.16673" lon="10.791595"><ele>265.0</ele><time>2026-04-25T13:18:26.127Z</time></trkpt><trkpt lat="43.166805" lon="10.79168"><ele>267.0</ele><time>2026-04-25T13:18:27.122Z</time></trkpt><trkpt lat="43.1668833" lon="10.7917533"><ele>269.0</ele><time>2026-04-25T13:18:28.119Z</time></trkpt><trkpt lat="43.1669683" lon="10.7918167"><ele>271.0</ele><time>2026-04-25T13:18:29.125Z</time></trkpt><trkpt lat="43.1670583" lon="10.7918633"><ele>273.0</ele><time>2026-04-25T13:18:30.126Z</time></trkpt><trkpt lat="43.1671467" lon="10.7918933"><ele>273.0</ele><time>2026-04-25T13:18:31.119Z</time></trkpt><trkpt lat="43.167235" lon="10.7919117"><ele>273.0</ele><time>2026-04-25T13:18:32.13Z</time></trkpt><trkpt lat="43.16732" lon="10.791925"><ele>273.0</ele><time>2026-04-25T13:18:33.131Z</time></trkpt><trkpt lat="43.1674017" lon="10.79191"><ele>273.0</ele><time>2026-04-25T13:18:34.128Z</time></trkpt><trkpt lat="43.16749" lon="10.79187"><ele>273.0</ele><time>2026-04-25T13:18:35.136Z</time></trkpt><trkpt lat="43.1676017" lon="10.7917883"><ele>279.6666666666667</ele><time>2026-04-25T13:18:36.127Z</time></trkpt><trkpt lat="43.1677367" lon="10.7916667"><ele>286.33333333333337</ele><time>2026-04-25T13:18:37.133Z</time></trkpt><trkpt lat="43.1678733" lon="10.79155"><ele>293.0</ele><time>2026-04-25T13:18:38.13Z</time></trkpt><trkpt lat="43.1679917" lon="10.791455"><ele>293.0</ele><time>2026-04-25T13:18:39.124Z</time></trkpt><trkpt lat="43.16809" lon="10.7913883"><ele>293.0</ele><time>2026-04-25T13:18:40.143Z</time></trkpt><trkpt lat="43.16818" lon="10.7913433"><ele>293.0</ele><time>2026-04-25T13:18:41.131Z</time></trkpt><trkpt lat="43.1682733" lon="10.7913217"><ele>293.0</ele><time>2026-04-25T13:18:42.126Z</time></trkpt><trkpt lat="43.1683617" lon="10.791315"><ele>293.0</ele><time>2026-04-25T13:18:43.128Z</time></trkpt><trkpt lat="43.1684417" lon="10.7913117"><ele>294.5</ele><time>2026-04-25T13:18:44.124Z</time></trkpt><trkpt lat="43.1685217" lon="10.7912933"><ele>296.0</ele><time>2026-04-25T13:18:45.128Z</time></trkpt><trkpt lat="43.1685983" lon="10.7912633"><ele>297.5</ele><time>2026-04-25T13:18:46.129Z</time></trkpt><trkpt lat="43.1686733" lon="10.7912233"><ele>299.0</ele><time>2026-04-25T13:18:47.124Z</time></trkpt><trkpt lat="43.1687467" lon="10.7911883"><ele>300.5</ele><time>2026-04-25T13:18:48.122Z</time></trkpt><trkpt lat="43.1688167" lon="10.7911667"><ele>302.0</ele><time>2026-04-25T13:18:49.139Z</time></trkpt><trkpt lat="43.1688983" lon="10.7911617"><ele>302.0</ele><time>2026-04-25T13:18:50.131Z</time></trkpt><trkpt lat="43.1689833" lon="10.7911867"><ele>302.0</ele><time>2026-04-25T13:18:51.137Z</time></trkpt><trkpt lat="43.1690683" lon="10.7912183"><ele>302.0</ele><time>2026-04-25T13:18:52.14Z</time></trkpt><trkpt lat="43.1691483" lon="10.79124"><ele>302.0</ele><time>2026-04-25T13:18:53.13Z</time></trkpt><trkpt lat="43.1692217" lon="10.7912467"><ele>302.0</ele><time>2026-04-25T13:18:54.126Z</time></trkpt><trkpt lat="43.1692867" lon="10.7912433"><ele>302.0</ele><time>2026-04-25T13:18:55.136Z</time></trkpt><trkpt lat="43.169405" lon="10.7911617"><ele>305.25</ele><time>2026-04-25T13:18:57.135Z</time></trkpt><trkpt lat="43.1694867" lon="10.7910683"><ele>308.5</ele><time>2026-04-25T13:18:58.123Z</time></trkpt><trkpt lat="43.1695833" lon="10.7909283"><ele>311.75</ele><time>2026-04-25T13:18:59.118Z</time></trkpt><trkpt lat="43.1696733" lon="10.7907983"><ele>315.0</ele><time>2026-04-25T13:19:00.122Z</time></trkpt><trkpt lat="43.1697533" lon="10.7906883"><ele>316.5</ele><time>2026-04-25T13:19:01.116Z</time></trkpt><trkpt lat="43.1698233" lon="10.7906017"><ele>318.0</ele><time>2026-04-25T13:19:02.114Z</time></trkpt><trkpt lat="43.1698883" lon="10.7905317"><ele>319.5</ele><time>2026-04-25T13:19:03.114Z</time></trkpt><trkpt lat="43.1699533" lon="10.7904783"><ele>321.0</ele><time>2026-04-25T13:19:04.121Z</time></trkpt><trkpt lat="43.1700333" lon="10.790435"><ele>322.5</ele><time>2026-04-25T13:19:05.117Z</time></trkpt><trkpt lat="43.1701233" lon="10.7903933"><ele>324.0</ele><time>2026-04-25T13:19:06.118Z</time></trkpt><trkpt lat="43.1702117" lon="10.790355"><ele>325.6666666666667</ele><time>2026-04-25T13:19:07.117Z</time></trkpt><trkpt lat="43.1702967" lon="10.7903167"><ele>327.3333333333333</ele><time>2026-04-25T13:19:08.119Z</time></trkpt><trkpt lat="43.1703783" lon="10.7902733"><ele>329.0</ele><time>2026-04-25T13:19:09.13Z</time></trkpt><trkpt lat="43.1704533" lon="10.7902233"><ele>330.66666666666663</ele><time>2026-04-25T13:19:10.124Z</time></trkpt><trkpt lat="43.170525" lon="10.7901717"><ele>332.3333333333333</ele><time>2026-04-25T13:19:11.139Z</time></trkpt><trkpt lat="43.1705967" lon="10.79012"><ele>334.0</ele><time>2026-04-25T13:19:12.127Z</time></trkpt><trkpt lat="43.1706733" lon="10.7900667"><ele>336.4</ele><time>2026-04-25T13:19:13.138Z</time></trkpt><trkpt lat="43.170755" lon="10.790015"><ele>338.79999999999995</ele><time>2026-04-25T13:19:14.13Z</time></trkpt><trkpt lat="43.1708417" lon="10.7899633"><ele>341.20000000000005</ele><time>2026-04-25T13:19:15.135Z</time></trkpt><trkpt lat="43.1709317" lon="10.78991"><ele>343.6</ele><time>2026-04-25T13:19:16.129Z</time></trkpt><trkpt lat="43.17102" lon="10.789855"><ele>346.0</ele><time>2026-04-25T13:19:17.136Z</time></trkpt><trkpt lat="43.1711067" lon="10.789795"><ele>346.0</ele><time>2026-04-25T13:19:18.125Z</time></trkpt><trkpt lat="43.1711933" lon="10.7897317"><ele>346.0</ele><time>2026-04-25T13:19:19.129Z</time></trkpt><trkpt lat="43.17128" lon="10.789665"><ele>346.0</ele><time>2026-04-25T13:19:20.126Z</time></trkpt><trkpt lat="43.1713583" lon="10.7895967"><ele>346.0</ele><time>2026-04-25T13:19:21.138Z</time></trkpt><trkpt lat="43.1714367" lon="10.7895267"><ele>346.0</ele><time>2026-04-25T13:19:22.135Z</time></trkpt><trkpt lat="43.1715083" lon="10.78946"><ele>346.6</ele><time>2026-04-25T13:19:23.14Z</time></trkpt><trkpt lat="43.1715767" lon="10.7893917"><ele>347.20000000000005</ele><time>2026-04-25T13:19:24.124Z</time></trkpt><trkpt lat="43.17164" lon="10.789315"><ele>347.79999999999995</ele><time>2026-04-25T13:19:25.134Z</time></trkpt><trkpt lat="43.1717617" lon="10.7891383"><ele>348.4</ele><time>2026-04-25T13:19:27.14Z</time></trkpt><trkpt lat="43.171815" lon="10.7890383"><ele>349.0</ele><time>2026-04-25T13:19:28.133Z</time></trkpt><trkpt lat="43.17186" lon="10.788925"><ele>350.66666666666663</ele><time>2026-04-25T13:19:29.142Z</time></trkpt><trkpt lat="43.17189" lon="10.7888017"><ele>352.3333333333333</ele><time>2026-04-25T13:19:30.121Z</time></trkpt><trkpt lat="43.1719183" lon="10.7886833"><ele>354.0</ele><time>2026-04-25T13:19:31.124Z</time></trkpt><trkpt lat="43.1719433" lon="10.7885667"><ele>355.6666666666667</ele><time>2026-04-25T13:19:32.133Z</time></trkpt><trkpt lat="43.1719683" lon="10.7884617"><ele>357.33333333333337</ele><time>2026-04-25T13:19:33.141Z</time></trkpt><trkpt lat="43.1719967" lon="10.7883633"><ele>359.0</ele><time>2026-04-25T13:19:34.135Z</time></trkpt><trkpt lat="43.172035" lon="10.788265"><ele>359.0</ele><time>2026-04-25T13:19:35.126Z</time></trkpt><trkpt lat="43.1720883" lon="10.7881683"><ele>359.0</ele><time>2026-04-25T13:19:36.143Z</time></trkpt><trkpt lat="43.1721483" lon="10.78808"><ele>359.0</ele><time>2026-04-25T13:19:37.129Z</time></trkpt><trkpt lat="43.1722133" lon="10.7879983"><ele>359.0</ele><time>2026-04-25T13:19:38.122Z</time></trkpt><trkpt lat="43.1722833" lon="10.7879233"><ele>359.0</ele><time>2026-04-25T13:19:39.129Z</time></trkpt><trkpt lat="43.172355" lon="10.78786"><ele>359.0</ele><time>2026-04-25T13:19:40.122Z</time></trkpt><trkpt lat="43.1724267" lon="10.7878083"><ele>362.0</ele><time>2026-04-25T13:19:41.131Z</time></trkpt><trkpt lat="43.1725033" lon="10.78777"><ele>365.0</ele><time>2026-04-25T13:19:42.13Z</time></trkpt><trkpt lat="43.1725867" lon="10.7877433"><ele>368.0</ele><time>2026-04-25T13:19:43.127Z</time></trkpt><trkpt lat="43.1726717" lon="10.7877317"><ele>371.0</ele><time>2026-04-25T13:19:44.132Z</time></trkpt><trkpt lat="43.17277" lon="10.78772"><ele>374.0</ele><time>2026-04-25T13:19:45.126Z</time></trkpt><trkpt lat="43.172865" lon="10.787715"><ele>377.0</ele><time>2026-04-25T13:19:46.126Z</time></trkpt><trkpt lat="43.172955" lon="10.7877017"><ele>376.0</ele><time>2026-04-25T13:19:47.125Z</time></trkpt><trkpt lat="43.1730367" lon="10.7876767"><ele>375.0</ele><time>2026-04-25T13:19:48.13Z</time></trkpt><trkpt lat="43.1731133" lon="10.7876383"><ele>374.0</ele><time>2026-04-25T13:19:49.125Z</time></trkpt><trkpt lat="43.173185" lon="10.7875783"><ele>373.0</ele><time>2026-04-25T13:19:50.131Z</time></trkpt><trkpt lat="43.17325" lon="10.7874833"><ele>372.0</ele><time>2026-04-25T13:19:51.121Z</time></trkpt><trkpt lat="43.1733117" lon="10.7873833"><ele>371.0</ele><time>2026-04-25T13:19:52.129Z</time></trkpt><trkpt lat="43.1733667" lon="10.7872867"><ele>373.6666666666667</ele><time>2026-04-25T13:19:53.128Z</time></trkpt><trkpt lat="43.17342" lon="10.7872083"><ele>376.33333333333337</ele><time>2026-04-25T13:19:54.131Z</time></trkpt><trkpt lat="43.173485" lon="10.7871517"><ele>379.0</ele><time>2026-04-25T13:19:55.124Z</time></trkpt><trkpt lat="43.1735517" lon="10.7871133"><ele>381.6666666666667</ele><time>2026-04-25T13:19:56.121Z</time></trkpt><trkpt lat="43.17363" lon="10.7870933"><ele>384.3333333333333</ele><time>2026-04-25T13:19:57.133Z</time></trkpt><trkpt lat="43.173715" lon="10.7870867"><ele>387.0</ele><time>2026-04-25T13:19:58.131Z</time></trkpt><trkpt lat="43.1738167" lon="10.7870883"><ele>387.0</ele><time>2026-04-25T13:19:59.131Z</time></trkpt><trkpt lat="43.173925" lon="10.7870917"><ele>387.0</ele><time>2026-04-25T13:20:00.134Z</time></trkpt><trkpt lat="43.1740283" lon="10.7870967"><ele>387.0</ele><time>2026-04-25T13:20:01.137Z</time></trkpt><trkpt lat="43.17412" lon="10.7870967"><ele>387.0</ele><time>2026-04-25T13:20:02.126Z</time></trkpt><trkpt lat="43.1742067" lon="10.787095"><ele>387.0</ele><time>2026-04-25T13:20:03.127Z</time></trkpt><trkpt lat="43.174295" lon="10.7870817"><ele>386.6666666666667</ele><time>2026-04-25T13:20:04.135Z</time></trkpt><trkpt lat="43.17438" lon="10.7870633"><ele>386.33333333333337</ele><time>2026-04-25T13:20:05.143Z</time></trkpt><trkpt lat="43.17446" lon="10.7870317"><ele>386.0</ele><time>2026-04-25T13:20:06.137Z</time></trkpt><trkpt lat="43.174535" lon="10.7869883"><ele>385.6666666666667</ele><time>2026-04-25T13:20:07.136Z</time></trkpt><trkpt lat="43.1746083" lon="10.7869367"><ele>385.33333333333337</ele><time>2026-04-25T13:20:08.137Z</time></trkpt><trkpt lat="43.1746817" lon="10.7868683"><ele>385.0</ele><time>2026-04-25T13:20:09.127Z</time></trkpt><trkpt lat="43.1747583" lon="10.78679"><ele>385.0</ele><time>2026-04-25T13:20:10.134Z</time></trkpt><trkpt lat="43.1748317" lon="10.78668"><ele>385.0</ele><time>2026-04-25T13:20:11.134Z</time></trkpt><trkpt lat="43.17491" lon="10.786555"><ele>385.0</ele><time>2026-04-25T13:20:12.134Z</time></trkpt><trkpt lat="43.1749883" lon="10.7864167"><ele>385.0</ele><time>2026-04-25T13:20:13.129Z</time></trkpt><trkpt lat="43.175065" lon="10.78628"><ele>386.0</ele><time>2026-04-25T13:20:14.123Z</time></trkpt><trkpt lat="43.1751367" lon="10.78614"><ele>387.0</ele><time>2026-04-25T13:20:15.129Z</time></trkpt><trkpt lat="43.1752117" lon="10.786005"><ele>388.0</ele><time>2026-04-25T13:20:16.133Z</time></trkpt><trkpt lat="43.17529" lon="10.7858633"><ele>389.0</ele><time>2026-04-25T13:20:17.136Z</time></trkpt><trkpt lat="43.1753683" lon="10.7857133"><ele>389.0</ele><time>2026-04-25T13:20:18.124Z</time></trkpt><trkpt lat="43.1754433" lon="10.7855717"><ele>389.0</ele><time>2026-04-25T13:20:19.135Z</time></trkpt><trkpt lat="43.1755183" lon="10.785435"><ele>389.0</ele><time>2026-04-25T13:20:20.127Z</time></trkpt><trkpt lat="43.17559" lon="10.7853133"><ele>389.0</ele><time>2026-04-25T13:20:21.136Z</time></trkpt><trkpt lat="43.1756533" lon="10.7851967"><ele>390.4</ele><time>2026-04-25T13:20:22.13Z</time></trkpt><trkpt lat="43.1757167" lon="10.7850717"><ele>391.79999999999995</ele><time>2026-04-25T13:20:23.125Z</time></trkpt><trkpt lat="43.1757733" lon="10.7849533"><ele>393.20000000000005</ele><time>2026-04-25T13:20:24.13Z</time></trkpt><trkpt lat="43.1758267" lon="10.7848467"><ele>394.6</ele><time>2026-04-25T13:20:25.132Z</time></trkpt><trkpt lat="43.1758767" lon="10.78475"><ele>396.0</ele><time>2026-04-25T13:20:26.132Z</time></trkpt><trkpt lat="43.1759267" lon="10.7846533"><ele>396.0</ele><time>2026-04-25T13:20:27.138Z</time></trkpt><trkpt lat="43.17602" lon="10.78445"><ele>396.0</ele><time>2026-04-25T13:20:29.117Z</time></trkpt><trkpt lat="43.1760583" lon="10.784345"><ele>396.0</ele><time>2026-04-25T13:20:30.121Z</time></trkpt><trkpt lat="43.1760883" lon="10.7842367"><ele>396.0</ele><time>2026-04-25T13:20:31.12Z</time></trkpt><trkpt lat="43.176115" lon="10.7841317"><ele>396.0</ele><time>2026-04-25T13:20:32.127Z</time></trkpt><trkpt lat="43.17614" lon="10.7840317"><ele>396.5714285714286</ele><time>2026-04-25T13:20:33.127Z</time></trkpt><trkpt lat="43.17616" lon="10.7839383"><ele>397.1428571428571</ele><time>2026-04-25T13:20:34.124Z</time></trkpt><trkpt lat="43.1761783" lon="10.7838483"><ele>397.7142857142857</ele><time>2026-04-25T13:20:35.127Z</time></trkpt><trkpt lat="43.1761983" lon="10.7837583"><ele>398.28571428571433</ele><time>2026-04-25T13:20:36.128Z</time></trkpt><trkpt lat="43.1762167" lon="10.7836667"><ele>398.8571428571429</ele><time>2026-04-25T13:20:37.135Z</time></trkpt><trkpt lat="43.17625" lon="10.7835767"><ele>399.42857142857144</ele><time>2026-04-25T13:20:38.13Z</time></trkpt><trkpt lat="43.176295" lon="10.7834933"><ele>400.0</ele><time>2026-04-25T13:20:39.127Z</time></trkpt><trkpt lat="43.1763533" lon="10.7834167"><ele>398.4</ele><time>2026-04-25T13:20:40.135Z</time></trkpt><trkpt lat="43.17642" lon="10.7833467"><ele>396.8</ele><time>2026-04-25T13:20:41.127Z</time></trkpt><trkpt lat="43.1764967" lon="10.78329"><ele>395.20000000000005</ele><time>2026-04-25T13:20:42.138Z</time></trkpt><trkpt lat="43.1765817" lon="10.783235"><ele>393.6</ele><time>2026-04-25T13:20:43.136Z</time></trkpt><trkpt lat="43.176675" lon="10.7831783"><ele>392.0</ele><time>2026-04-25T13:20:44.124Z</time></trkpt><trkpt lat="43.176765" lon="10.7831217"><ele>391.20000000000005</ele><time>2026-04-25T13:20:45.13Z</time></trkpt><trkpt lat="43.1768517" lon="10.783065"><ele>390.4</ele><time>2026-04-25T13:20:46.134Z</time></trkpt><trkpt lat="43.1769333" lon="10.7830133"><ele>389.6</ele><time>2026-04-25T13:20:47.126Z</time></trkpt><trkpt lat="43.17701" lon="10.7829533"><ele>388.79999999999995</ele><time>2026-04-25T13:20:48.13Z</time></trkpt><trkpt lat="43.1770833" lon="10.7828867"><ele>388.0</ele><time>2026-04-25T13:20:49.129Z</time></trkpt><trkpt lat="43.1771517" lon="10.7828067"><ele>388.00000000000006</ele><time>2026-04-25T13:20:50.126Z</time></trkpt><trkpt lat="43.1772217" lon="10.7827217"><ele>388.0</ele><time>2026-04-25T13:20:51.127Z</time></trkpt><trkpt lat="43.1772883" lon="10.7826333"><ele>388.0</ele><time>2026-04-25T13:20:52.132Z</time></trkpt><trkpt lat="43.1773467" lon="10.7825417"><ele>388.0</ele><time>2026-04-25T13:20:53.13Z</time></trkpt><trkpt lat="43.1774017" lon="10.78245"><ele>388.00000000000006</ele><time>2026-04-25T13:20:54.132Z</time></trkpt><trkpt lat="43.1774567" lon="10.7823567"><ele>388.0</ele><time>2026-04-25T13:20:55.123Z</time></trkpt><trkpt lat="43.1775183" lon="10.7822567"><ele>386.75</ele><time>2026-04-25T13:20:56.125Z</time></trkpt><trkpt lat="43.17758" lon="10.78215"><ele>385.5</ele><time>2026-04-25T13:20:57.123Z</time></trkpt><trkpt lat="43.177655" lon="10.7820367"><ele>384.25</ele><time>2026-04-25T13:20:58.119Z</time></trkpt><trkpt lat="43.1777483" lon="10.7819133"><ele>383.0</ele><time>2026-04-25T13:20:59.13Z</time></trkpt><trkpt lat="43.17785" lon="10.781795"><ele>382.25</ele><time>2026-04-25T13:21:00.129Z</time></trkpt><trkpt lat="43.177955" lon="10.7816833"><ele>381.5</ele><time>2026-04-25T13:21:01.125Z</time></trkpt><trkpt lat="43.1780667" lon="10.7815783"><ele>380.75</ele><time>2026-04-25T13:21:02.131Z</time></trkpt><trkpt lat="43.1781783" lon="10.7814783"><ele>380.0</ele><time>2026-04-25T13:21:03.122Z</time></trkpt><trkpt lat="43.1782967" lon="10.78139"><ele>380.0</ele><time>2026-04-25T13:21:04.124Z</time></trkpt><trkpt lat="43.1784167" lon="10.7813117"><ele>380.0</ele><time>2026-04-25T13:21:05.12Z</time></trkpt><trkpt lat="43.1785433" lon="10.781235"><ele>380.0</ele><time>2026-04-25T13:21:06.129Z</time></trkpt><trkpt lat="43.1786717" lon="10.78116"><ele>380.0</ele><time>2026-04-25T13:21:07.133Z</time></trkpt><trkpt lat="43.1787967" lon="10.781095"><ele>380.0</ele><time>2026-04-25T13:21:08.126Z</time></trkpt><trkpt lat="43.1789167" lon="10.78103"><ele>380.0</ele><time>2026-04-25T13:21:09.129Z</time></trkpt><trkpt lat="43.1790317" lon="10.7809683"><ele>380.0</ele><time>2026-04-25T13:21:10.136Z</time></trkpt><trkpt lat="43.1791383" lon="10.7809133"><ele>380.0</ele><time>2026-04-25T13:21:11.128Z</time></trkpt><trkpt lat="43.179235" lon="10.7808667"><ele>382.2</ele><time>2026-04-25T13:21:12.14Z</time></trkpt><trkpt lat="43.1793233" lon="10.7808183"><ele>384.4</ele><time>2026-04-25T13:21:13.142Z</time></trkpt><trkpt lat="43.1794083" lon="10.7807617"><ele>386.6</ele><time>2026-04-25T13:21:14.128Z</time></trkpt><trkpt lat="43.179485" lon="10.7806867"><ele>388.8</ele><time>2026-04-25T13:21:15.141Z</time></trkpt><trkpt lat="43.1795567" lon="10.7805867"><ele>391.0</ele><time>2026-04-25T13:21:16.141Z</time></trkpt><trkpt lat="43.1796183" lon="10.780465"><ele>391.0</ele><time>2026-04-25T13:21:17.147Z</time></trkpt><trkpt lat="43.1796733" lon="10.78033"><ele>391.0</ele><time>2026-04-25T13:21:18.132Z</time></trkpt><trkpt lat="43.17972" lon="10.780185"><ele>391.0</ele><time>2026-04-25T13:21:19.126Z</time></trkpt><trkpt lat="43.179765" lon="10.7800467"><ele>391.0</ele><time>2026-04-25T13:21:20.13Z</time></trkpt><trkpt lat="43.1798033" lon="10.7799117"><ele>391.0</ele><time>2026-04-25T13:21:21.144Z</time></trkpt><trkpt lat="43.17984" lon="10.7797783"><ele>392.20000000000005</ele><time>2026-04-25T13:21:22.128Z</time></trkpt><trkpt lat="43.17988" lon="10.779655"><ele>393.40000000000003</ele><time>2026-04-25T13:21:23.146Z</time></trkpt><trkpt lat="43.1799233" lon="10.779525"><ele>394.6</ele><time>2026-04-25T13:21:24.136Z</time></trkpt><trkpt lat="43.1799783" lon="10.7793883"><ele>395.8</ele><time>2026-04-25T13:21:25.145Z</time></trkpt><trkpt lat="43.18004" lon="10.7792567"><ele>397.0</ele><time>2026-04-25T13:21:26.146Z</time></trkpt><trkpt lat="43.180105" lon="10.7791267"><ele>397.0</ele><time>2026-04-25T13:21:27.131Z</time></trkpt><trkpt lat="43.18017" lon="10.779"><ele>397.0</ele><time>2026-04-25T13:21:28.123Z</time></trkpt><trkpt lat="43.1802283" lon="10.7788733"><ele>397.0</ele><time>2026-04-25T13:21:29.133Z</time></trkpt><trkpt lat="43.1802783" lon="10.7787367"><ele>397.0</ele><time>2026-04-25T13:21:30.13Z</time></trkpt><trkpt lat="43.18032" lon="10.7785933"><ele>397.0</ele><time>2026-04-25T13:21:31.127Z</time></trkpt><trkpt lat="43.1803533" lon="10.778445"><ele>396.6</ele><time>2026-04-25T13:21:32.123Z</time></trkpt><trkpt lat="43.1803833" lon="10.778295"><ele>396.20000000000005</ele><time>2026-04-25T13:21:33.117Z</time></trkpt><trkpt lat="43.1804083" lon="10.778155"><ele>395.8</ele><time>2026-04-25T13:21:34.128Z</time></trkpt><trkpt lat="43.18043" lon="10.7780283"><ele>395.4</ele><time>2026-04-25T13:21:35.125Z</time></trkpt><trkpt lat="43.18045" lon="10.7779167"><ele>395.0</ele><time>2026-04-25T13:21:36.129Z</time></trkpt><trkpt lat="43.1804717" lon="10.7778117"><ele>395.0</ele><time>2026-04-25T13:21:37.127Z</time></trkpt><trkpt lat="43.1804983" lon="10.7777117"><ele>395.0</ele><time>2026-04-25T13:21:38.13Z</time></trkpt><trkpt lat="43.1805333" lon="10.7776067"><ele>395.0</ele><time>2026-04-25T13:21:39.121Z</time></trkpt><trkpt lat="43.1805817" lon="10.777495"><ele>395.0</ele><time>2026-04-25T13:21:40.133Z</time></trkpt><trkpt lat="43.1806383" lon="10.777375"><ele>395.0</ele><time>2026-04-25T13:21:41.126Z</time></trkpt><trkpt lat="43.1806983" lon="10.7772567"><ele>394.6</ele><time>2026-04-25T13:21:42.135Z</time></trkpt><trkpt lat="43.18076" lon="10.777145"><ele>394.2</ele><time>2026-04-25T13:21:43.132Z</time></trkpt><trkpt lat="43.1808167" lon="10.777035"><ele>393.79999999999995</ele><time>2026-04-25T13:21:44.122Z</time></trkpt><trkpt lat="43.1808717" lon="10.7769233"><ele>393.4</ele><time>2026-04-25T13:21:45.129Z</time></trkpt><trkpt lat="43.1809317" lon="10.7768083"><ele>393.0</ele><time>2026-04-25T13:21:46.134Z</time></trkpt><trkpt lat="43.180995" lon="10.7766917"><ele>393.0</ele><time>2026-04-25T13:21:47.13Z</time></trkpt><trkpt lat="43.1810617" lon="10.77658"><ele>393.0</ele><time>2026-04-25T13:21:48.13Z</time></trkpt><trkpt lat="43.1811317" lon="10.77647"><ele>393.0</ele><time>2026-04-25T13:21:49.129Z</time></trkpt><trkpt lat="43.181205" lon="10.7763667"><ele>393.0</ele><time>2026-04-25T13:21:50.12Z</time></trkpt><trkpt lat="43.1812833" lon="10.7762617"><ele>393.0</ele><time>2026-04-25T13:21:51.126Z</time></trkpt><trkpt lat="43.18136" lon="10.7761633"><ele>393.0</ele><time>2026-04-25T13:21:52.131Z</time></trkpt><trkpt lat="43.1814367" lon="10.77606"><ele>393.0</ele><time>2026-04-25T13:21:53.133Z</time></trkpt><trkpt lat="43.1815133" lon="10.775955"><ele>393.0</ele><time>2026-04-25T13:21:54.122Z</time></trkpt><trkpt lat="43.181595" lon="10.7758483"><ele>393.0</ele><time>2026-04-25T13:21:55.122Z</time></trkpt><trkpt lat="43.1816783" lon="10.7757433"><ele>393.0</ele><time>2026-04-25T13:21:56.12Z</time></trkpt><trkpt lat="43.181765" lon="10.7756433"><ele>393.0</ele><time>2026-04-25T13:21:57.122Z</time></trkpt><trkpt lat="43.1818567" lon="10.7755383"><ele>393.0</ele><time>2026-04-25T13:21:58.115Z</time></trkpt><trkpt lat="43.1819567" lon="10.7754333"><ele>393.0</ele><time>2026-04-25T13:21:59.117Z</time></trkpt><trkpt lat="43.182065" lon="10.7753183"><ele>393.0</ele><time>2026-04-25T13:22:00.114Z</time></trkpt><trkpt lat="43.1821717" lon="10.7752"><ele>393.25</ele><time>2026-04-25T13:22:01.113Z</time></trkpt><trkpt lat="43.1822717" lon="10.7750767"><ele>393.5</ele><time>2026-04-25T13:22:02.109Z</time></trkpt><trkpt lat="43.1823633" lon="10.7749533"><ele>393.75</ele><time>2026-04-25T13:22:03.114Z</time></trkpt><trkpt lat="43.182445" lon="10.7748283"><ele>394.0</ele><time>2026-04-25T13:22:04.114Z</time></trkpt><trkpt lat="43.1825183" lon="10.7747083"><ele>394.0</ele><time>2026-04-25T13:22:05.118Z</time></trkpt><trkpt lat="43.1825817" lon="10.7745883"><ele>394.0</ele><time>2026-04-25T13:22:06.122Z</time></trkpt><trkpt lat="43.1826333" lon="10.7744583"><ele>394.0</ele><time>2026-04-25T13:22:07.124Z</time></trkpt><trkpt lat="43.1826817" lon="10.7743267"><ele>394.0</ele><time>2026-04-25T13:22:08.117Z</time></trkpt><trkpt lat="43.1827217" lon="10.7741967"><ele>394.0</ele><time>2026-04-25T13:22:09.118Z</time></trkpt><trkpt lat="43.1827617" lon="10.7740683"><ele>394.2</ele><time>2026-04-25T13:22:10.114Z</time></trkpt><trkpt lat="43.1828033" lon="10.7739467"><ele>394.4</ele><time>2026-04-25T13:22:11.116Z</time></trkpt><trkpt lat="43.1828517" lon="10.7738333"><ele>394.6</ele><time>2026-04-25T13:22:12.12Z</time></trkpt><trkpt lat="43.1828983" lon="10.7737267"><ele>394.8</ele><time>2026-04-25T13:22:13.122Z</time></trkpt><trkpt lat="43.1829483" lon="10.7736267"><ele>395.0</ele><time>2026-04-25T13:22:14.125Z</time></trkpt><trkpt lat="43.1830017" lon="10.77353"><ele>394.4</ele><time>2026-04-25T13:22:15.123Z</time></trkpt><trkpt lat="43.1830617" lon="10.7734383"><ele>393.8</ele><time>2026-04-25T13:22:16.125Z</time></trkpt><trkpt lat="43.1831217" lon="10.7733433"><ele>393.20000000000005</ele><time>2026-04-25T13:22:17.132Z</time></trkpt><trkpt lat="43.1831867" lon="10.77326"><ele>392.6</ele><time>2026-04-25T13:22:18.132Z</time></trkpt><trkpt lat="43.1832583" lon="10.7731833"><ele>392.0</ele><time>2026-04-25T13:22:19.129Z</time></trkpt><trkpt lat="43.1833283" lon="10.7731067"><ele>393.3333333333333</ele><time>2026-04-25T13:22:20.14Z</time></trkpt><trkpt lat="43.183395" lon="10.7730317"><ele>394.66666666666663</ele><time>2026-04-25T13:22:21.127Z</time></trkpt><trkpt lat="43.1834617" lon="10.7729617"><ele>396.0</ele><time>2026-04-25T13:22:22.136Z</time></trkpt><trkpt lat="43.1835217" lon="10.77288"><ele>397.33333333333337</ele><time>2026-04-25T13:22:23.129Z</time></trkpt><trkpt lat="43.18358" lon="10.7727883"><ele>398.6666666666667</ele><time>2026-04-25T13:22:24.137Z</time></trkpt><trkpt lat="43.1836333" lon="10.7726883"><ele>400.0</ele><time>2026-04-25T13:22:25.137Z</time></trkpt><trkpt lat="43.183685" lon="10.772585"><ele>400.8</ele><time>2026-04-25T13:22:26.126Z</time></trkpt><trkpt lat="43.1837417" lon="10.7724783"><ele>401.6</ele><time>2026-04-25T13:22:27.124Z</time></trkpt><trkpt lat="43.183805" lon="10.772375"><ele>402.4</ele><time>2026-04-25T13:22:28.139Z</time></trkpt><trkpt lat="43.1838717" lon="10.7722833"><ele>403.2</ele><time>2026-04-25T13:22:29.132Z</time></trkpt><trkpt lat="43.1839367" lon="10.7721967"><ele>404.0</ele><time>2026-04-25T13:22:30.122Z</time></trkpt><trkpt lat="43.1840817" lon="10.7720417"><ele>404.2</ele><time>2026-04-25T13:22:32.123Z</time></trkpt><trkpt lat="43.1841617" lon="10.77197"><ele>404.4</ele><time>2026-04-25T13:22:33.126Z</time></trkpt><trkpt lat="43.1842483" lon="10.7718983"><ele>404.6</ele><time>2026-04-25T13:22:34.124Z</time></trkpt><trkpt lat="43.184335" lon="10.7718333"><ele>404.8</ele><time>2026-04-25T13:22:35.125Z</time></trkpt><trkpt lat="43.184425" lon="10.771765"><ele>405.0</ele><time>2026-04-25T13:22:36.135Z</time></trkpt><trkpt lat="43.1845167" lon="10.7717033"><ele>408.4</ele><time>2026-04-25T13:22:37.129Z</time></trkpt><trkpt lat="43.1846067" lon="10.7716467"><ele>411.8</ele><time>2026-04-25T13:22:38.126Z</time></trkpt><trkpt lat="43.1847017" lon="10.7716"><ele>415.20000000000005</ele><time>2026-04-25T13:22:39.126Z</time></trkpt><trkpt lat="43.1847983" lon="10.7715583"><ele>418.6</ele><time>2026-04-25T13:22:40.144Z</time></trkpt><trkpt lat="43.1848917" lon="10.771525"><ele>422.0</ele><time>2026-04-25T13:22:41.13Z</time></trkpt><trkpt lat="43.1849833" lon="10.7714867"><ele>422.0</ele><time>2026-04-25T13:22:42.133Z</time></trkpt><trkpt lat="43.185085" lon="10.7714517"><ele>422.0</ele><time>2026-04-25T13:22:43.135Z</time></trkpt><trkpt lat="43.1851867" lon="10.7714217"><ele>422.0</ele><time>2026-04-25T13:22:44.123Z</time></trkpt><trkpt lat="43.1852933" lon="10.771395"><ele>422.0</ele><time>2026-04-25T13:22:45.127Z</time></trkpt><trkpt lat="43.185395" lon="10.7713817"><ele>422.0</ele><time>2026-04-25T13:22:46.134Z</time></trkpt><trkpt lat="43.185495" lon="10.7713683"><ele>421.99999999999994</ele><time>2026-04-25T13:22:47.129Z</time></trkpt><trkpt lat="43.185585" lon="10.771345"><ele>422.0</ele><time>2026-04-25T13:22:48.143Z</time></trkpt><trkpt lat="43.1856683" lon="10.7713133"><ele>422.0</ele><time>2026-04-25T13:22:49.138Z</time></trkpt><trkpt lat="43.1857483" lon="10.771275"><ele>422.0</ele><time>2026-04-25T13:22:50.13Z</time></trkpt><trkpt lat="43.185825" lon="10.7712133"><ele>421.99999999999994</ele><time>2026-04-25T13:22:51.132Z</time></trkpt><trkpt lat="43.1858983" lon="10.7711267"><ele>422.0</ele><time>2026-04-25T13:22:52.127Z</time></trkpt><trkpt lat="43.1859667" lon="10.771025"><ele>423.16666666666663</ele><time>2026-04-25T13:22:53.137Z</time></trkpt><trkpt lat="43.18603" lon="10.770925"><ele>424.3333333333333</ele><time>2026-04-25T13:22:54.121Z</time></trkpt><trkpt lat="43.1860917" lon="10.7708333"><ele>425.5</ele><time>2026-04-25T13:22:55.129Z</time></trkpt><trkpt lat="43.1861583" lon="10.7707567"><ele>426.66666666666663</ele><time>2026-04-25T13:22:56.129Z</time></trkpt><trkpt lat="43.1862217" lon="10.77069"><ele>427.8333333333333</ele><time>2026-04-25T13:22:57.129Z</time></trkpt><trkpt lat="43.1862967" lon="10.77065"><ele>429.0</ele><time>2026-04-25T13:22:58.135Z</time></trkpt><trkpt lat="43.1863767" lon="10.770625"><ele>429.0</ele><time>2026-04-25T13:22:59.128Z</time></trkpt><trkpt lat="43.1864583" lon="10.7706117"><ele>429.0</ele><time>2026-04-25T13:23:00.126Z</time></trkpt><trkpt lat="43.1865367" lon="10.7706083"><ele>429.0</ele><time>2026-04-25T13:23:01.122Z</time></trkpt><trkpt lat="43.1866133" lon="10.7706217"><ele>429.0</ele><time>2026-04-25T13:23:02.126Z</time></trkpt><trkpt lat="43.1866883" lon="10.77065"><ele>429.0</ele><time>2026-04-25T13:23:03.136Z</time></trkpt><trkpt lat="43.1867633" lon="10.770675"><ele>429.0</ele><time>2026-04-25T13:23:04.125Z</time></trkpt><trkpt lat="43.1868433" lon="10.7706833"><ele>429.0</ele><time>2026-04-25T13:23:05.122Z</time></trkpt><trkpt lat="43.1869283" lon="10.7706683"><ele>429.0</ele><time>2026-04-25T13:23:06.142Z</time></trkpt><trkpt lat="43.1870217" lon="10.770645"><ele>429.0</ele><time>2026-04-25T13:23:07.137Z</time></trkpt><trkpt lat="43.1871233" lon="10.7706167"><ele>429.0</ele><time>2026-04-25T13:23:08.121Z</time></trkpt><trkpt lat="43.18723" lon="10.7705967"><ele>429.0</ele><time>2026-04-25T13:23:09.12Z</time></trkpt><trkpt lat="43.1873433" lon="10.7705833"><ele>430.0</ele><time>2026-04-25T13:23:10.133Z</time></trkpt><trkpt lat="43.1874583" lon="10.7705767"><ele>431.0</ele><time>2026-04-25T13:23:11.128Z</time></trkpt><trkpt lat="43.1875767" lon="10.77057"><ele>432.0</ele><time>2026-04-25T13:23:12.121Z</time></trkpt><trkpt lat="43.1876917" lon="10.7705633"><ele>433.0</ele><time>2026-04-25T13:23:13.131Z</time></trkpt><trkpt lat="43.1878083" lon="10.7705483"><ele>433.0</ele><time>2026-04-25T13:23:14.13Z</time></trkpt><trkpt lat="43.1879167" lon="10.7705283"><ele>432.99999999999994</ele><time>2026-04-25T13:23:15.126Z</time></trkpt><trkpt lat="43.1880183" lon="10.7705017"><ele>432.99999999999994</ele><time>2026-04-25T13:23:16.129Z</time></trkpt><trkpt lat="43.1881217" lon="10.7704667"><ele>433.0</ele><time>2026-04-25T13:23:17.121Z</time></trkpt><trkpt lat="43.188225" lon="10.7704333"><ele>433.0</ele><time>2026-04-25T13:23:18.125Z</time></trkpt><trkpt lat="43.1883167" lon="10.77041"><ele>433.59999999999997</ele><time>2026-04-25T13:23:19.137Z</time></trkpt><trkpt lat="43.1884033" lon="10.7704017"><ele>434.19999999999993</ele><time>2026-04-25T13:23:20.121Z</time></trkpt><trkpt lat="43.1884883" lon="10.7704083"><ele>434.8</ele><time>2026-04-25T13:23:21.125Z</time></trkpt><trkpt lat="43.1885733" lon="10.77043"><ele>435.4</ele><time>2026-04-25T13:23:22.129Z</time></trkpt><trkpt lat="43.18866" lon="10.7704783"><ele>436.0</ele><time>2026-04-25T13:23:23.135Z</time></trkpt><trkpt lat="43.1887467" lon="10.77056"><ele>436.0</ele><time>2026-04-25T13:23:24.133Z</time></trkpt><trkpt lat="43.1888233" lon="10.7706483"><ele>436.0</ele><time>2026-04-25T13:23:25.132Z</time></trkpt><trkpt lat="43.1889083" lon="10.7707317"><ele>436.0</ele><time>2026-04-25T13:23:26.123Z</time></trkpt><trkpt lat="43.1889817" lon="10.7707967"><ele>436.0</ele><time>2026-04-25T13:23:27.129Z</time></trkpt><trkpt lat="43.18906" lon="10.7708467"><ele>436.0</ele><time>2026-04-25T13:23:28.125Z</time></trkpt><trkpt lat="43.189145" lon="10.77089"><ele>437.0</ele><time>2026-04-25T13:23:29.129Z</time></trkpt><trkpt lat="43.18924" lon="10.7709217"><ele>438.0</ele><time>2026-04-25T13:23:30.13Z</time></trkpt><trkpt lat="43.1893367" lon="10.7709433"><ele>439.0</ele><time>2026-04-25T13:23:31.128Z</time></trkpt><trkpt lat="43.1895233" lon="10.77097"><ele>440.0</ele><time>2026-04-25T13:23:33.129Z</time></trkpt><trkpt lat="43.1896217" lon="10.7709883"><ele>440.0</ele><time>2026-04-25T13:23:34.122Z</time></trkpt><trkpt lat="43.1897183" lon="10.771015"><ele>440.0</ele><time>2026-04-25T13:23:35.12Z</time></trkpt><trkpt lat="43.1898133" lon="10.771055"><ele>440.0</ele><time>2026-04-25T13:23:36.126Z</time></trkpt><trkpt lat="43.189905" lon="10.7711017"><ele>440.0</ele><time>2026-04-25T13:23:37.125Z</time></trkpt><trkpt lat="43.189995" lon="10.77115"><ele>440.0</ele><time>2026-04-25T13:23:38.122Z</time></trkpt><trkpt lat="43.190085" lon="10.7711867"><ele>437.6</ele><time>2026-04-25T13:23:39.121Z</time></trkpt><trkpt lat="43.1901733" lon="10.7712183"><ele>435.2</ele><time>2026-04-25T13:23:40.121Z</time></trkpt><trkpt lat="43.190255" lon="10.77125"><ele>432.79999999999995</ele><time>2026-04-25T13:23:41.121Z</time></trkpt><trkpt lat="43.1903417" lon="10.7712933"><ele>430.4</ele><time>2026-04-25T13:23:42.131Z</time></trkpt><trkpt lat="43.19043" lon="10.771345"><ele>428.0</ele><time>2026-04-25T13:23:43.13Z</time></trkpt><trkpt lat="43.1905217" lon="10.7714067"><ele>428.0</ele><time>2026-04-25T13:23:44.135Z</time></trkpt><trkpt lat="43.1906083" lon="10.7714783"><ele>427.99999999999994</ele><time>2026-04-25T13:23:45.119Z</time></trkpt><trkpt lat="43.1907033" lon="10.7715467"><ele>427.99999999999994</ele><time>2026-04-25T13:23:46.127Z</time></trkpt><trkpt lat="43.1907967" lon="10.7716083"><ele>428.0</ele><time>2026-04-25T13:23:47.13Z</time></trkpt><trkpt lat="43.190885" lon="10.771655"><ele>428.0</ele><time>2026-04-25T13:23:48.129Z</time></trkpt><trkpt lat="43.19098" lon="10.77169"><ele>427.4</ele><time>2026-04-25T13:23:49.129Z</time></trkpt><trkpt lat="43.1910883" lon="10.7717117"><ele>426.79999999999995</ele><time>2026-04-25T13:23:50.128Z</time></trkpt><trkpt lat="43.1911983" lon="10.7717233"><ele>426.2</ele><time>2026-04-25T13:23:51.135Z</time></trkpt><trkpt lat="43.19131" lon="10.771725"><ele>425.6</ele><time>2026-04-25T13:23:52.135Z</time></trkpt><trkpt lat="43.191415" lon="10.77172"><ele>425.0</ele><time>2026-04-25T13:23:53.129Z</time></trkpt><trkpt lat="43.1915133" lon="10.7717117"><ele>423.6</ele><time>2026-04-25T13:23:54.127Z</time></trkpt><trkpt lat="43.191605" lon="10.7717133"><ele>422.2</ele><time>2026-04-25T13:23:55.134Z</time></trkpt><trkpt lat="43.1917" lon="10.7717283"><ele>420.79999999999995</ele><time>2026-04-25T13:23:56.136Z</time></trkpt><trkpt lat="43.1917933" lon="10.771755"><ele>419.4</ele><time>2026-04-25T13:23:57.124Z</time></trkpt><trkpt lat="43.1918817" lon="10.7717967"><ele>418.0</ele><time>2026-04-25T13:23:58.12Z</time></trkpt><trkpt lat="43.1919733" lon="10.771845"><ele>415.75</ele><time>2026-04-25T13:23:59.13Z</time></trkpt><trkpt lat="43.19207" lon="10.7718917"><ele>413.5</ele><time>2026-04-25T13:24:00.127Z</time></trkpt><trkpt lat="43.1921633" lon="10.7719417"><ele>411.25</ele><time>2026-04-25T13:24:01.134Z</time></trkpt><trkpt lat="43.1922567" lon="10.7720017"><ele>409.0</ele><time>2026-04-25T13:24:02.12Z</time></trkpt><trkpt lat="43.1924467" lon="10.7721667"><ele>408.79999999999995</ele><time>2026-04-25T13:24:04.128Z</time></trkpt><trkpt lat="43.1925383" lon="10.7722617"><ele>408.59999999999997</ele><time>2026-04-25T13:24:05.126Z</time></trkpt><trkpt lat="43.192625" lon="10.772355"><ele>408.4</ele><time>2026-04-25T13:24:06.122Z</time></trkpt><trkpt lat="43.1927033" lon="10.77245"><ele>408.2</ele><time>2026-04-25T13:24:07.136Z</time></trkpt><trkpt lat="43.1927833" lon="10.7725467"><ele>408.0</ele><time>2026-04-25T13:24:08.136Z</time></trkpt><trkpt lat="43.1928617" lon="10.77265"><ele>406.0</ele><time>2026-04-25T13:24:09.129Z</time></trkpt><trkpt lat="43.1929367" lon="10.7727583"><ele>404.0</ele><time>2026-04-25T13:24:10.138Z</time></trkpt><trkpt lat="43.193005" lon="10.772865"><ele>402.0</ele><time>2026-04-25T13:24:11.127Z</time></trkpt><trkpt lat="43.1930583" lon="10.772965"><ele>400.0</ele><time>2026-04-25T13:24:12.124Z</time></trkpt><trkpt lat="43.1931033" lon="10.7730517"><ele>398.0</ele><time>2026-04-25T13:24:13.136Z</time></trkpt><trkpt lat="43.1931617" lon="10.7731683"><ele>398.8333333333333</ele><time>2026-04-25T13:24:15.124Z</time></trkpt><trkpt lat="43.1932017" lon="10.7732567"><ele>399.66666666666663</ele><time>2026-04-25T13:24:17.133Z</time></trkpt><trkpt lat="43.193265" lon="10.773305"><ele>400.5</ele><time>2026-04-25T13:24:20.127Z</time></trkpt><trkpt lat="43.193315" lon="10.7732233"><ele>401.33333333333337</ele><time>2026-04-25T13:24:23.132Z</time></trkpt><trkpt lat="43.1933183" lon="10.773115"><ele>402.1666666666667</ele><time>2026-04-25T13:24:25.126Z</time></trkpt><trkpt lat="43.1932983" lon="10.7729417"><ele>403.0</ele><time>2026-04-25T13:24:27.14Z</time></trkpt><trkpt lat="43.1932933" lon="10.7727983"><ele>402.75</ele><time>2026-04-25T13:24:28.129Z</time></trkpt><trkpt lat="43.1932733" lon="10.772615"><ele>402.5</ele><time>2026-04-25T13:24:29.128Z</time></trkpt><trkpt lat="43.1932433" lon="10.7724267"><ele>402.25</ele><time>2026-04-25T13:24:30.124Z</time></trkpt><trkpt lat="43.1932017" lon="10.7722283"><ele>402.0</ele><time>2026-04-25T13:24:31.131Z</time></trkpt><trkpt lat="43.19315" lon="10.772035"><ele>404.75</ele><time>2026-04-25T13:24:32.123Z</time></trkpt><trkpt lat="43.193095" lon="10.771845"><ele>407.5</ele><time>2026-04-25T13:24:33.124Z</time></trkpt><trkpt lat="43.1930417" lon="10.7716583"><ele>410.25</ele><time>2026-04-25T13:24:34.134Z</time></trkpt><trkpt lat="43.1929983" lon="10.7714967"><ele>413.0</ele><time>2026-04-25T13:24:35.124Z</time></trkpt><trkpt lat="43.1929567" lon="10.7713617"><ele>413.0</ele><time>2026-04-25T13:24:36.127Z</time></trkpt><trkpt lat="43.1929033" lon="10.771245"><ele>413.0</ele><time>2026-04-25T13:24:37.127Z</time></trkpt><trkpt lat="43.1928267" lon="10.7711467"><ele>413.0</ele><time>2026-04-25T13:24:38.119Z</time></trkpt><trkpt lat="43.1927117" lon="10.771065"><ele>413.0</ele><time>2026-04-25T13:24:39.131Z</time></trkpt><trkpt lat="43.1925683" lon="10.7710017"><ele>413.5</ele><time>2026-04-25T13:24:40.121Z</time></trkpt><trkpt lat="43.19242" lon="10.7709467"><ele>414.0</ele><time>2026-04-25T13:24:41.136Z</time></trkpt><trkpt lat="43.192285" lon="10.7708933"><ele>414.5</ele><time>2026-04-25T13:24:42.131Z</time></trkpt><trkpt lat="43.1921633" lon="10.77083"><ele>415.0</ele><time>2026-04-25T13:24:43.136Z</time></trkpt><trkpt lat="43.1920467" lon="10.7707433"><ele>415.0</ele><time>2026-04-25T13:24:44.122Z</time></trkpt><trkpt lat="43.1919283" lon="10.7706233"><ele>415.0</ele><time>2026-04-25T13:24:45.122Z</time></trkpt><trkpt lat="43.1918067" lon="10.7704533"><ele>415.0</ele><time>2026-04-25T13:24:46.141Z</time></trkpt><trkpt lat="43.191675" lon="10.7702417"><ele>411.0</ele><time>2026-04-25T13:24:47.136Z</time></trkpt><trkpt lat="43.1915317" lon="10.770005"><ele>407.0</ele><time>2026-04-25T13:24:48.139Z</time></trkpt><trkpt lat="43.191385" lon="10.7697633"><ele>409.66666666666663</ele><time>2026-04-25T13:24:49.125Z</time></trkpt><trkpt lat="43.1912383" lon="10.7695267"><ele>412.33333333333337</ele><time>2026-04-25T13:24:50.136Z</time></trkpt><trkpt lat="43.191095" lon="10.7692933"><ele>415.0</ele><time>2026-04-25T13:24:51.136Z</time></trkpt><trkpt lat="43.1909517" lon="10.76906"><ele>415.0</ele><time>2026-04-25T13:24:52.128Z</time></trkpt><trkpt lat="43.1908083" lon="10.768825"><ele>415.0</ele><time>2026-04-25T13:24:53.136Z</time></trkpt><trkpt lat="43.19067" lon="10.7686"><ele>415.0</ele><time>2026-04-25T13:24:54.13Z</time></trkpt><trkpt lat="43.1905367" lon="10.76839"><ele>417.6666666666667</ele><time>2026-04-25T13:24:55.127Z</time></trkpt><trkpt lat="43.1904133" lon="10.768195"><ele>420.33333333333337</ele><time>2026-04-25T13:24:56.131Z</time></trkpt><trkpt lat="43.1902983" lon="10.768015"><ele>423.0</ele><time>2026-04-25T13:24:57.134Z</time></trkpt><trkpt lat="43.1901933" lon="10.7678467"><ele>420.66666666666663</ele><time>2026-04-25T13:24:58.126Z</time></trkpt><trkpt lat="43.1901017" lon="10.767675"><ele>418.3333333333333</ele><time>2026-04-25T13:24:59.131Z</time></trkpt><trkpt lat="43.19003" lon="10.767485"><ele>416.0</ele><time>2026-04-25T13:25:00.131Z</time></trkpt><trkpt lat="43.1899833" lon="10.7672783"><ele>416.0</ele><time>2026-04-25T13:25:01.125Z</time></trkpt><trkpt lat="43.1899667" lon="10.767065"><ele>416.0</ele><time>2026-04-25T13:25:02.128Z</time></trkpt><trkpt lat="43.18997" lon="10.7668367"><ele>416.0</ele><time>2026-04-25T13:25:03.116Z</time></trkpt><trkpt lat="43.1900683" lon="10.766285"><ele>414.0</ele><time>2026-04-25T13:25:05.135Z</time></trkpt><trkpt lat="43.1901467" lon="10.7659533"><ele>412.0</ele><time>2026-04-25T13:25:06.121Z</time></trkpt><trkpt lat="43.19022" lon="10.76562"><ele>412.0</ele><time>2026-04-25T13:25:07.133Z</time></trkpt><trkpt lat="43.1902917" lon="10.765315"><ele>412.0</ele><time>2026-04-25T13:25:08.13Z</time></trkpt><trkpt lat="43.190365" lon="10.765035"><ele>410.0</ele><time>2026-04-25T13:25:09.117Z</time></trkpt><trkpt lat="43.1904433" lon="10.7647783"><ele>408.0</ele><time>2026-04-25T13:25:10.131Z</time></trkpt><trkpt lat="43.1905317" lon="10.7645517"><ele>406.0</ele><time>2026-04-25T13:25:11.124Z</time></trkpt><trkpt lat="43.1906233" lon="10.7643467"><ele>407.0</ele><time>2026-04-25T13:25:12.129Z</time></trkpt><trkpt lat="43.1907017" lon="10.76414"><ele>408.0</ele><time>2026-04-25T13:25:13.124Z</time></trkpt><trkpt lat="43.1907567" lon="10.763925"><ele>409.0</ele><time>2026-04-25T13:25:14.136Z</time></trkpt><trkpt lat="43.1907883" lon="10.763715"><ele>409.25</ele><time>2026-04-25T13:25:15.126Z</time></trkpt><trkpt lat="43.1908017" lon="10.763525"><ele>409.5</ele><time>2026-04-25T13:25:16.127Z</time></trkpt><trkpt lat="43.1908117" lon="10.7633583"><ele>409.75</ele><time>2026-04-25T13:25:17.132Z</time></trkpt><trkpt lat="43.190835" lon="10.7632117"><ele>410.0</ele><time>2026-04-25T13:25:18.119Z</time></trkpt><trkpt lat="43.1908833" lon="10.763075"><ele>410.0</ele><time>2026-04-25T13:25:19.125Z</time></trkpt><trkpt lat="43.1909583" lon="10.7629433"><ele>410.0</ele><time>2026-04-25T13:25:20.134Z</time></trkpt><trkpt lat="43.19105" lon="10.7628067"><ele>410.0</ele><time>2026-04-25T13:25:21.13Z</time></trkpt><trkpt lat="43.1911283" lon="10.7626433"><ele>410.0</ele><time>2026-04-25T13:25:22.126Z</time></trkpt><trkpt lat="43.1911867" lon="10.76245"><ele>408.25</ele><time>2026-04-25T13:25:23.13Z</time></trkpt><trkpt lat="43.19123" lon="10.762255"><ele>406.5</ele><time>2026-04-25T13:25:24.124Z</time></trkpt><trkpt lat="43.1912717" lon="10.7620867"><ele>404.75</ele><time>2026-04-25T13:25:25.134Z</time></trkpt><trkpt lat="43.1913217" lon="10.7619383"><ele>403.0</ele><time>2026-04-25T13:25:26.131Z</time></trkpt><trkpt lat="43.1913933" lon="10.7618083"><ele>401.33333333333337</ele><time>2026-04-25T13:25:27.139Z</time></trkpt><trkpt lat="43.19149" lon="10.7616867"><ele>399.66666666666663</ele><time>2026-04-25T13:25:28.129Z</time></trkpt><trkpt lat="43.191625" lon="10.7615767"><ele>398.0</ele><time>2026-04-25T13:25:29.129Z</time></trkpt><trkpt lat="43.1917733" lon="10.7614717"><ele>400.75</ele><time>2026-04-25T13:25:30.129Z</time></trkpt><trkpt lat="43.19192" lon="10.761385"><ele>403.5</ele><time>2026-04-25T13:25:31.122Z</time></trkpt><trkpt lat="43.192045" lon="10.7613117"><ele>406.25</ele><time>2026-04-25T13:25:32.126Z</time></trkpt><trkpt lat="43.1921517" lon="10.76123"><ele>409.0</ele><time>2026-04-25T13:25:33.128Z</time></trkpt><trkpt lat="43.1922367" lon="10.761125"><ele>408.25</ele><time>2026-04-25T13:25:34.127Z</time></trkpt><trkpt lat="43.1922967" lon="10.760985"><ele>407.5</ele><time>2026-04-25T13:25:35.128Z</time></trkpt><trkpt lat="43.1923317" lon="10.760805"><ele>406.75</ele><time>2026-04-25T13:25:36.138Z</time></trkpt><trkpt lat="43.1923533" lon="10.7606067"><ele>406.0</ele><time>2026-04-25T13:25:37.134Z</time></trkpt><trkpt lat="43.1923833" lon="10.7604033"><ele>406.0</ele><time>2026-04-25T13:25:38.121Z</time></trkpt><trkpt lat="43.192435" lon="10.760205"><ele>406.0</ele><time>2026-04-25T13:25:39.134Z</time></trkpt><trkpt lat="43.192515" lon="10.7600033"><ele>406.0</ele><time>2026-04-25T13:25:40.133Z</time></trkpt><trkpt lat="43.1926017" lon="10.7598167"><ele>404.25</ele><time>2026-04-25T13:25:41.131Z</time></trkpt><trkpt lat="43.1926817" lon="10.75966"><ele>402.5</ele><time>2026-04-25T13:25:42.124Z</time></trkpt><trkpt lat="43.19275" lon="10.75952"><ele>400.75</ele><time>2026-04-25T13:25:43.134Z</time></trkpt><trkpt lat="43.1928" lon="10.759365"><ele>399.0</ele><time>2026-04-25T13:25:44.129Z</time></trkpt><trkpt lat="43.1928183" lon="10.7591783"><ele>396.5</ele><time>2026-04-25T13:25:45.132Z</time></trkpt><trkpt lat="43.1928117" lon="10.75897"><ele>394.0</ele><time>2026-04-25T13:25:46.138Z</time></trkpt><trkpt lat="43.19279" lon="10.7587617"><ele>391.5</ele><time>2026-04-25T13:25:47.123Z</time></trkpt><trkpt lat="43.19277" lon="10.7585733"><ele>389.0</ele><time>2026-04-25T13:25:48.131Z</time></trkpt><trkpt lat="43.1927667" lon="10.7583933"><ele>388.0</ele><time>2026-04-25T13:25:49.123Z</time></trkpt><trkpt lat="43.1927867" lon="10.7582217"><ele>387.0</ele><time>2026-04-25T13:25:50.133Z</time></trkpt><trkpt lat="43.19283" lon="10.758055"><ele>386.0</ele><time>2026-04-25T13:25:51.13Z</time></trkpt><trkpt lat="43.192885" lon="10.7579017"><ele>385.0</ele><time>2026-04-25T13:25:52.128Z</time></trkpt><trkpt lat="43.1929317" lon="10.757755"><ele>383.0</ele><time>2026-04-25T13:25:53.13Z</time></trkpt><trkpt lat="43.1929617" lon="10.7575917"><ele>381.0</ele><time>2026-04-25T13:25:54.136Z</time></trkpt><trkpt lat="43.1929683" lon="10.7574017"><ele>379.0</ele><time>2026-04-25T13:25:55.143Z</time></trkpt><trkpt lat="43.19295" lon="10.7571867"><ele>377.0</ele><time>2026-04-25T13:25:56.126Z</time></trkpt><trkpt lat="43.1929183" lon="10.75695"><ele>376.33333333333337</ele><time>2026-04-25T13:25:57.13Z</time></trkpt><trkpt lat="43.1928883" lon="10.7567133"><ele>375.6666666666667</ele><time>2026-04-25T13:25:58.119Z</time></trkpt><trkpt lat="43.1928617" lon="10.75649"><ele>375.0</ele><time>2026-04-25T13:25:59.131Z</time></trkpt><trkpt lat="43.19284" lon="10.7562767"><ele>375.0</ele><time>2026-04-25T13:26:00.134Z</time></trkpt><trkpt lat="43.1928217" lon="10.75607"><ele>375.0</ele><time>2026-04-25T13:26:01.125Z</time></trkpt><trkpt lat="43.1928133" lon="10.7558733"><ele>375.0</ele><time>2026-04-25T13:26:02.123Z</time></trkpt><trkpt lat="43.1928167" lon="10.7556917"><ele>375.0</ele><time>2026-04-25T13:26:03.135Z</time></trkpt><trkpt lat="43.192825" lon="10.7555417"><ele>375.0</ele><time>2026-04-25T13:26:04.125Z</time></trkpt><trkpt lat="43.1928183" lon="10.7554133"><ele>375.0</ele><time>2026-04-25T13:26:05.119Z</time></trkpt><trkpt lat="43.1927867" lon="10.7552983"><ele>375.0</ele><time>2026-04-25T13:26:06.116Z</time></trkpt><trkpt lat="43.1927317" lon="10.7551983"><ele>375.0</ele><time>2026-04-25T13:26:07.125Z</time></trkpt><trkpt lat="43.1926267" lon="10.75513"><ele>375.0</ele><time>2026-04-25T13:26:08.126Z</time></trkpt><trkpt lat="43.19248" lon="10.755075"><ele>374.75</ele><time>2026-04-25T13:26:09.12Z</time></trkpt><trkpt lat="43.1923417" lon="10.7550133"><ele>374.5</ele><time>2026-04-25T13:26:10.121Z</time></trkpt><trkpt lat="43.1922217" lon="10.754945"><ele>374.25</ele><time>2026-04-25T13:26:11.121Z</time></trkpt><trkpt lat="43.19212" lon="10.7548667"><ele>374.0</ele><time>2026-04-25T13:26:12.119Z</time></trkpt><trkpt lat="43.1920383" lon="10.7547667"><ele>371.4</ele><time>2026-04-25T13:26:13.124Z</time></trkpt><trkpt lat="43.19198" lon="10.7546417"><ele>368.79999999999995</ele><time>2026-04-25T13:26:14.124Z</time></trkpt><trkpt lat="43.1919433" lon="10.7545083"><ele>366.20000000000005</ele><time>2026-04-25T13:26:15.122Z</time></trkpt><trkpt lat="43.1919417" lon="10.75437"><ele>363.6</ele><time>2026-04-25T13:26:16.132Z</time></trkpt><trkpt lat="43.1919717" lon="10.7542333"><ele>361.0</ele><time>2026-04-25T13:26:17.135Z</time></trkpt><trkpt lat="43.1920333" lon="10.7540833"><ele>359.66666666666663</ele><time>2026-04-25T13:26:18.128Z</time></trkpt><trkpt lat="43.192115" lon="10.7539167"><ele>358.3333333333333</ele><time>2026-04-25T13:26:19.123Z</time></trkpt><trkpt lat="43.192195" lon="10.753735"><ele>357.0</ele><time>2026-04-25T13:26:20.123Z</time></trkpt><trkpt lat="43.192265" lon="10.7535383"><ele>359.0</ele><time>2026-04-25T13:26:21.124Z</time></trkpt><trkpt lat="43.19233" lon="10.7533417"><ele>361.0</ele><time>2026-04-25T13:26:22.124Z</time></trkpt><trkpt lat="43.1924" lon="10.7531717"><ele>363.0</ele><time>2026-04-25T13:26:23.121Z</time></trkpt><trkpt lat="43.19247" lon="10.7530183"><ele>365.0</ele><time>2026-04-25T13:26:24.14Z</time></trkpt><trkpt lat="43.19253" lon="10.7528567"><ele>363.0</ele><time>2026-04-25T13:26:25.138Z</time></trkpt><trkpt lat="43.192575" lon="10.7526767"><ele>361.0</ele><time>2026-04-25T13:26:26.137Z</time></trkpt><trkpt lat="43.1926067" lon="10.7524967"><ele>359.0</ele><time>2026-04-25T13:26:27.136Z</time></trkpt><trkpt lat="43.19262" lon="10.7523267"><ele>357.0</ele><time>2026-04-25T13:26:28.134Z</time></trkpt><trkpt lat="43.1926183" lon="10.7521683"><ele>357.0</ele><time>2026-04-25T13:26:29.131Z</time></trkpt><trkpt lat="43.1926167" lon="10.75203"><ele>357.0</ele><time>2026-04-25T13:26:30.125Z</time></trkpt><trkpt lat="43.19263" lon="10.7519"><ele>357.0</ele><time>2026-04-25T13:26:31.133Z</time></trkpt><trkpt lat="43.1926683" lon="10.7517867"><ele>357.0</ele><time>2026-04-25T13:26:32.136Z</time></trkpt><trkpt lat="43.19273" lon="10.7516967"><ele>357.0</ele><time>2026-04-25T13:26:33.142Z</time></trkpt><trkpt lat="43.192805" lon="10.7516333"><ele>357.20000000000005</ele><time>2026-04-25T13:26:34.138Z</time></trkpt><trkpt lat="43.1929" lon="10.75161"><ele>357.4</ele><time>2026-04-25T13:26:35.129Z</time></trkpt><trkpt lat="43.1929967" lon="10.7515783"><ele>357.6</ele><time>2026-04-25T13:26:36.135Z</time></trkpt><trkpt lat="43.1930967" lon="10.7515083"><ele>357.79999999999995</ele><time>2026-04-25T13:26:37.127Z</time></trkpt><trkpt lat="43.1932" lon="10.7513783"><ele>358.0</ele><time>2026-04-25T13:26:38.132Z</time></trkpt><trkpt lat="43.1932967" lon="10.7512167"><ele>358.0</ele><time>2026-04-25T13:26:39.126Z</time></trkpt><trkpt lat="43.1933733" lon="10.7510667"><ele>358.0</ele><time>2026-04-25T13:26:40.125Z</time></trkpt><trkpt lat="43.193435" lon="10.75094"><ele>358.0</ele><time>2026-04-25T13:26:41.131Z</time></trkpt><trkpt lat="43.193475" lon="10.750825"><ele>358.0</ele><time>2026-04-25T13:26:42.125Z</time></trkpt><trkpt lat="43.193485" lon="10.7506983"><ele>358.0</ele><time>2026-04-25T13:26:43.125Z</time></trkpt><trkpt lat="43.1934667" lon="10.7505733"><ele>355.0</ele><time>2026-04-25T13:26:44.128Z</time></trkpt><trkpt lat="43.193405" lon="10.7504417"><ele>352.0</ele><time>2026-04-25T13:26:45.127Z</time></trkpt><trkpt lat="43.1932567" lon="10.7502767"><ele>349.0</ele><time>2026-04-25T13:26:46.122Z</time></trkpt><trkpt lat="43.1931" lon="10.7501083"><ele>347.3333333333333</ele><time>2026-04-25T13:26:47.121Z</time></trkpt><trkpt lat="43.1929483" lon="10.7499467"><ele>345.6666666666667</ele><time>2026-04-25T13:26:48.123Z</time></trkpt><trkpt lat="43.19282" lon="10.7498067"><ele>344.0</ele><time>2026-04-25T13:26:49.131Z</time></trkpt><trkpt lat="43.192715" lon="10.749685"><ele>344.0</ele><time>2026-04-25T13:26:50.129Z</time></trkpt><trkpt lat="43.19263" lon="10.749565"><ele>344.0</ele><time>2026-04-25T13:26:51.136Z</time></trkpt><trkpt lat="43.19257" lon="10.7494367"><ele>344.0</ele><time>2026-04-25T13:26:52.125Z</time></trkpt><trkpt lat="43.1925383" lon="10.74929"><ele>344.0</ele><time>2026-04-25T13:26:53.123Z</time></trkpt><trkpt lat="43.192525" lon="10.7491083"><ele>342.33333333333337</ele><time>2026-04-25T13:26:54.12Z</time></trkpt><trkpt lat="43.1925233" lon="10.74889"><ele>340.6666666666667</ele><time>2026-04-25T13:26:55.143Z</time></trkpt><trkpt lat="43.192535" lon="10.7486533"><ele>339.0</ele><time>2026-04-25T13:26:56.121Z</time></trkpt><trkpt lat="43.1925483" lon="10.748425"><ele>338.75</ele><time>2026-04-25T13:26:57.127Z</time></trkpt><trkpt lat="43.192565" lon="10.7482167"><ele>338.5</ele><time>2026-04-25T13:26:58.123Z</time></trkpt><trkpt lat="43.1925867" lon="10.748035"><ele>338.25</ele><time>2026-04-25T13:26:59.122Z</time></trkpt><trkpt lat="43.1926183" lon="10.7478833"><ele>338.0</ele><time>2026-04-25T13:27:00.141Z</time></trkpt><trkpt lat="43.1926633" lon="10.74777"><ele>337.2</ele><time>2026-04-25T13:27:01.131Z</time></trkpt><trkpt lat="43.192725" lon="10.7476883"><ele>336.4</ele><time>2026-04-25T13:27:02.125Z</time></trkpt><trkpt lat="43.192805" lon="10.747635"><ele>335.59999999999997</ele><time>2026-04-25T13:27:03.131Z</time></trkpt><trkpt lat="43.1929033" lon="10.747605"><ele>334.79999999999995</ele><time>2026-04-25T13:27:04.124Z</time></trkpt><trkpt lat="43.1930383" lon="10.7476117"><ele>334.0</ele><time>2026-04-25T13:27:05.136Z</time></trkpt><trkpt lat="43.1932067" lon="10.74765"><ele>334.0</ele><time>2026-04-25T13:27:06.126Z</time></trkpt><trkpt lat="43.1933467" lon="10.747685"><ele>334.0</ele><time>2026-04-25T13:27:07.135Z</time></trkpt><trkpt lat="43.1934717" lon="10.7477133"><ele>334.0</ele><time>2026-04-25T13:27:08.126Z</time></trkpt><trkpt lat="43.193585" lon="10.7477383"><ele>334.0</ele><time>2026-04-25T13:27:09.123Z</time></trkpt><trkpt lat="43.193695" lon="10.7477233"><ele>334.0</ele><time>2026-04-25T13:27:10.124Z</time></trkpt><trkpt lat="43.1938067" lon="10.7476683"><ele>334.0</ele><time>2026-04-25T13:27:11.122Z</time></trkpt><trkpt lat="43.1939133" lon="10.7475567"><ele>334.0</ele><time>2026-04-25T13:27:12.124Z</time></trkpt><trkpt lat="43.1939983" lon="10.7473917"><ele>334.0</ele><time>2026-04-25T13:27:13.13Z</time></trkpt><trkpt lat="43.194075" lon="10.7471767"><ele>333.66666666666663</ele><time>2026-04-25T13:27:14.145Z</time></trkpt><trkpt lat="43.1941517" lon="10.74691"><ele>333.3333333333333</ele><time>2026-04-25T13:27:15.12Z</time></trkpt><trkpt lat="43.1942333" lon="10.7466317"><ele>333.0</ele><time>2026-04-25T13:27:16.131Z</time></trkpt><trkpt lat="43.19431" lon="10.746375"><ele>331.6666666666667</ele><time>2026-04-25T13:27:17.126Z</time></trkpt><trkpt lat="43.19438" lon="10.7461483"><ele>330.33333333333337</ele><time>2026-04-25T13:27:18.136Z</time></trkpt><trkpt lat="43.1944383" lon="10.7459433"><ele>329.0</ele><time>2026-04-25T13:27:19.134Z</time></trkpt><trkpt lat="43.1944817" lon="10.745735"><ele>328.5</ele><time>2026-04-25T13:27:20.134Z</time></trkpt><trkpt lat="43.1945033" lon="10.7455183"><ele>328.0</ele><time>2026-04-25T13:27:21.136Z</time></trkpt><trkpt lat="43.1945067" lon="10.7453117"><ele>327.5</ele><time>2026-04-25T13:27:22.127Z</time></trkpt><trkpt lat="43.194505" lon="10.745135"><ele>327.0</ele><time>2026-04-25T13:27:23.13Z</time></trkpt><trkpt lat="43.1945033" lon="10.7449817"><ele>326.25</ele><time>2026-04-25T13:27:24.122Z</time></trkpt><trkpt lat="43.194515" lon="10.7448417"><ele>325.5</ele><time>2026-04-25T13:27:25.134Z</time></trkpt><trkpt lat="43.1945533" lon="10.7447117"><ele>324.75</ele><time>2026-04-25T13:27:26.122Z</time></trkpt><trkpt lat="43.19462" lon="10.7445833"><ele>324.0</ele><time>2026-04-25T13:27:27.13Z</time></trkpt><trkpt lat="43.1947183" lon="10.744455"><ele>323.0</ele><time>2026-04-25T13:27:28.129Z</time></trkpt><trkpt lat="43.194835" lon="10.7443167"><ele>322.0</ele><time>2026-04-25T13:27:29.131Z</time></trkpt><trkpt lat="43.1949417" lon="10.7441433"><ele>321.0</ele><time>2026-04-25T13:27:30.132Z</time></trkpt><trkpt lat="43.1950417" lon="10.7439317"><ele>320.3333333333333</ele><time>2026-04-25T13:27:31.141Z</time></trkpt><trkpt lat="43.1951333" lon="10.7437083"><ele>319.66666666666663</ele><time>2026-04-25T13:27:32.126Z</time></trkpt><trkpt lat="43.1952183" lon="10.743505"><ele>319.0</ele><time>2026-04-25T13:27:33.137Z</time></trkpt><trkpt lat="43.195295" lon="10.74333"><ele>319.0</ele><time>2026-04-25T13:27:34.129Z</time></trkpt><trkpt lat="43.1953583" lon="10.7431767"><ele>319.0</ele><time>2026-04-25T13:27:35.13Z</time></trkpt><trkpt lat="43.1954083" lon="10.7430283"><ele>319.0</ele><time>2026-04-25T13:27:36.132Z</time></trkpt><trkpt lat="43.1954383" lon="10.7428567"><ele>319.0</ele><time>2026-04-25T13:27:37.126Z</time></trkpt><trkpt lat="43.1954517" lon="10.7426567"><ele>317.0</ele><time>2026-04-25T13:27:38.138Z</time></trkpt><trkpt lat="43.1954533" lon="10.7424317"><ele>315.0</ele><time>2026-04-25T13:27:39.14Z</time></trkpt><trkpt lat="43.1954467" lon="10.7421917"><ele>313.0</ele><time>2026-04-25T13:27:40.133Z</time></trkpt><trkpt lat="43.195435" lon="10.7419383"><ele>311.0</ele><time>2026-04-25T13:27:41.135Z</time></trkpt><trkpt lat="43.1954167" lon="10.7416917"><ele>309.0</ele><time>2026-04-25T13:27:42.133Z</time></trkpt><trkpt lat="43.1953933" lon="10.74146"><ele>307.0</ele><time>2026-04-25T13:27:43.136Z</time></trkpt><trkpt lat="43.1953583" lon="10.741245"><ele>307.0</ele><time>2026-04-25T13:27:44.127Z</time></trkpt><trkpt lat="43.1953067" lon="10.7410417"><ele>307.0</ele><time>2026-04-25T13:27:45.131Z</time></trkpt><trkpt lat="43.1952517" lon="10.74086"><ele>307.0</ele><time>2026-04-25T13:27:46.133Z</time></trkpt><trkpt lat="43.1952033" lon="10.7407"><ele>307.0</ele><time>2026-04-25T13:27:47.126Z</time></trkpt><trkpt lat="43.1951583" lon="10.7405617"><ele>307.0</ele><time>2026-04-25T13:27:48.138Z</time></trkpt><trkpt lat="43.1951267" lon="10.740445"><ele>307.0</ele><time>2026-04-25T13:27:49.125Z</time></trkpt><trkpt lat="43.1951133" lon="10.7403417"><ele>307.0</ele><time>2026-04-25T13:27:50.121Z</time></trkpt><trkpt lat="43.1951233" lon="10.740255"><ele>307.0</ele><time>2026-04-25T13:27:51.126Z</time></trkpt><trkpt lat="43.1952367" lon="10.740165"><ele>307.0</ele><time>2026-04-25T13:27:53.118Z</time></trkpt><trkpt lat="43.19534" lon="10.740185"><ele>307.0</ele><time>2026-04-25T13:27:54.12Z</time></trkpt><trkpt lat="43.1954733" lon="10.7402617"><ele>307.0</ele><time>2026-04-25T13:27:55.129Z</time></trkpt><trkpt lat="43.1956217" lon="10.7403817"><ele>307.0</ele><time>2026-04-25T13:27:56.128Z</time></trkpt><trkpt lat="43.19577" lon="10.7404683"><ele>308.66666666666663</ele><time>2026-04-25T13:27:57.125Z</time></trkpt><trkpt lat="43.1959317" lon="10.7405233"><ele>310.3333333333333</ele><time>2026-04-25T13:27:58.13Z</time></trkpt><trkpt lat="43.1961133" lon="10.7405433"><ele>312.0</ele><time>2026-04-25T13:27:59.125Z</time></trkpt><trkpt lat="43.1962967" lon="10.7405367"><ele>312.0</ele><time>2026-04-25T13:28:00.133Z</time></trkpt><trkpt lat="43.196465" lon="10.7405233"><ele>312.0</ele><time>2026-04-25T13:28:01.127Z</time></trkpt><trkpt lat="43.1966183" lon="10.7405083"><ele>312.0</ele><time>2026-04-25T13:28:02.125Z</time></trkpt><trkpt lat="43.1967583" lon="10.7404833"><ele>311.0</ele><time>2026-04-25T13:28:03.13Z</time></trkpt><trkpt lat="43.1968833" lon="10.7404483"><ele>310.0</ele><time>2026-04-25T13:28:04.134Z</time></trkpt><trkpt lat="43.196995" lon="10.74039"><ele>309.0</ele><time>2026-04-25T13:28:05.121Z</time></trkpt><trkpt lat="43.1970917" lon="10.7403017"><ele>308.0</ele><time>2026-04-25T13:28:06.132Z</time></trkpt><trkpt lat="43.1971817" lon="10.74017"><ele>305.5</ele><time>2026-04-25T13:28:07.137Z</time></trkpt><trkpt lat="43.1972617" lon="10.7400133"><ele>303.0</ele><time>2026-04-25T13:28:08.13Z</time></trkpt><trkpt lat="43.1973283" lon="10.7398617"><ele>300.5</ele><time>2026-04-25T13:28:09.127Z</time></trkpt><trkpt lat="43.197385" lon="10.7397233"><ele>298.0</ele><time>2026-04-25T13:28:10.13Z</time></trkpt><trkpt lat="43.1974467" lon="10.739615"><ele>298.0</ele><time>2026-04-25T13:28:11.127Z</time></trkpt><trkpt lat="43.1975217" lon="10.73954"><ele>298.0</ele><time>2026-04-25T13:28:12.128Z</time></trkpt><trkpt lat="43.1976167" lon="10.73949"><ele>298.0</ele><time>2026-04-25T13:28:13.134Z</time></trkpt><trkpt lat="43.1977233" lon="10.739445"><ele>298.0</ele><time>2026-04-25T13:28:14.122Z</time></trkpt><trkpt lat="43.19783" lon="10.739375"><ele>298.0</ele><time>2026-04-25T13:28:15.122Z</time></trkpt><trkpt lat="43.1979383" lon="10.7392667"><ele>297.5</ele><time>2026-04-25T13:28:16.122Z</time></trkpt><trkpt lat="43.19804" lon="10.739115"><ele>297.0</ele><time>2026-04-25T13:28:17.134Z</time></trkpt><trkpt lat="43.198135" lon="10.7389533"><ele>296.5</ele><time>2026-04-25T13:28:18.128Z</time></trkpt><trkpt lat="43.198225" lon="10.7388017"><ele>296.0</ele><time>2026-04-25T13:28:19.137Z</time></trkpt><trkpt lat="43.1983083" lon="10.7386683"><ele>296.0</ele><time>2026-04-25T13:28:20.134Z</time></trkpt><trkpt lat="43.19839" lon="10.7385567"><ele>296.0</ele><time>2026-04-25T13:28:21.122Z</time></trkpt><trkpt lat="43.1984817" lon="10.7384667"><ele>296.0</ele><time>2026-04-25T13:28:22.147Z</time></trkpt><trkpt lat="43.1985917" lon="10.73839"><ele>296.0</ele><time>2026-04-25T13:28:23.133Z</time></trkpt><trkpt lat="43.1987033" lon="10.7383133"><ele>293.83333333333337</ele><time>2026-04-25T13:28:24.135Z</time></trkpt><trkpt lat="43.1988033" lon="10.7382383"><ele>291.6666666666667</ele><time>2026-04-25T13:28:25.127Z</time></trkpt><trkpt lat="43.1988733" lon="10.7381617"><ele>289.5</ele><time>2026-04-25T13:28:26.135Z</time></trkpt><trkpt lat="43.19892" lon="10.7380817"><ele>287.3333333333333</ele><time>2026-04-25T13:28:27.134Z</time></trkpt><trkpt lat="43.19894" lon="10.7379867"><ele>285.16666666666663</ele><time>2026-04-25T13:28:28.126Z</time></trkpt><trkpt lat="43.1989217" lon="10.7378967"><ele>283.0</ele><time>2026-04-25T13:28:29.122Z</time></trkpt><trkpt lat="43.1988667" lon="10.7378283"><ele>283.0</ele><time>2026-04-25T13:28:30.141Z</time></trkpt><trkpt lat="43.198765" lon="10.7378017"><ele>283.0</ele><time>2026-04-25T13:28:31.13Z</time></trkpt><trkpt lat="43.1986533" lon="10.7378067"><ele>283.0</ele><time>2026-04-25T13:28:32.122Z</time></trkpt><trkpt lat="43.1985683" lon="10.7378133"><ele>283.0</ele><time>2026-04-25T13:28:33.131Z</time></trkpt><trkpt lat="43.1984967" lon="10.73782"><ele>283.0</ele><time>2026-04-25T13:28:34.129Z</time></trkpt><trkpt lat="43.1984017" lon="10.737825"><ele>283.0</ele><time>2026-04-25T13:28:36.124Z</time></trkpt><trkpt lat="43.1984083" lon="10.73772"><ele>283.0</ele><time>2026-04-25T13:28:56.124Z</time></trkpt><trkpt lat="43.1985117" lon="10.737675"><ele>283.0</ele><time>2026-04-25T13:28:58.128Z</time></trkpt><trkpt lat="43.19859" lon="10.7376583"><ele>283.0</ele><time>2026-04-25T13:28:59.124Z</time></trkpt><trkpt lat="43.198675" lon="10.7376333"><ele>283.0</ele><time>2026-04-25T13:29:00.13Z</time></trkpt><trkpt lat="43.1987617" lon="10.7375983"><ele>283.0</ele><time>2026-04-25T13:29:01.129Z</time></trkpt><trkpt lat="43.1988517" lon="10.73756"><ele>282.8</ele><time>2026-04-25T13:29:02.119Z</time></trkpt><trkpt lat="43.1989417" lon="10.73752"><ele>282.6</ele><time>2026-04-25T13:29:03.129Z</time></trkpt><trkpt lat="43.19903" lon="10.73748"><ele>282.4</ele><time>2026-04-25T13:29:04.12Z</time></trkpt><trkpt lat="43.1991183" lon="10.73744"><ele>282.2</ele><time>2026-04-25T13:29:05.131Z</time></trkpt><trkpt lat="43.1992083" lon="10.7374"><ele>282.0</ele><time>2026-04-25T13:29:06.124Z</time></trkpt><trkpt lat="43.1992983" lon="10.7373567"><ele>282.0</ele><time>2026-04-25T13:29:07.124Z</time></trkpt><trkpt lat="43.1993883" lon="10.7373133"><ele>282.0</ele><time>2026-04-25T13:29:08.116Z</time></trkpt><trkpt lat="43.1994783" lon="10.73727"><ele>282.0</ele><time>2026-04-25T13:29:09.132Z</time></trkpt><trkpt lat="43.1995717" lon="10.7372283"><ele>282.0</ele><time>2026-04-25T13:29:10.131Z</time></trkpt><trkpt lat="43.1996633" lon="10.7371967"><ele>282.0</ele><time>2026-04-25T13:29:11.132Z</time></trkpt><trkpt lat="43.1997517" lon="10.73718"><ele>282.1666666666667</ele><time>2026-04-25T13:29:12.128Z</time></trkpt><trkpt lat="43.1998367" lon="10.7371867"><ele>282.3333333333333</ele><time>2026-04-25T13:29:13.13Z</time></trkpt><trkpt lat="43.1999217" lon="10.7372133"><ele>282.5</ele><time>2026-04-25T13:29:14.124Z</time></trkpt><trkpt lat="43.2000017" lon="10.73726"><ele>282.66666666666663</ele><time>2026-04-25T13:29:15.129Z</time></trkpt><trkpt lat="43.2000667" lon="10.737325"><ele>282.8333333333333</ele><time>2026-04-25T13:29:16.122Z</time></trkpt><trkpt lat="43.2001267" lon="10.7374033"><ele>283.0</ele><time>2026-04-25T13:29:17.128Z</time></trkpt><trkpt lat="43.2001867" lon="10.737485"><ele>283.0</ele><time>2026-04-25T13:29:18.119Z</time></trkpt><trkpt lat="43.200255" lon="10.73756"><ele>283.0</ele><time>2026-04-25T13:29:19.132Z</time></trkpt><trkpt lat="43.2003283" lon="10.7376233"><ele>283.0</ele><time>2026-04-25T13:29:20.119Z</time></trkpt><trkpt lat="43.2004117" lon="10.7376617"><ele>283.0</ele><time>2026-04-25T13:29:21.133Z</time></trkpt><trkpt lat="43.2005033" lon="10.73767"><ele>283.0</ele><time>2026-04-25T13:29:22.124Z</time></trkpt><trkpt lat="43.200595" lon="10.7376633"><ele>283.0</ele><time>2026-04-25T13:29:23.14Z</time></trkpt><trkpt lat="43.2006817" lon="10.7376517"><ele>282.2</ele><time>2026-04-25T13:29:24.132Z</time></trkpt><trkpt lat="43.2007633" lon="10.7376433"><ele>281.4</ele><time>2026-04-25T13:29:25.14Z</time></trkpt><trkpt lat="43.2008367" lon="10.7376483"><ele>280.59999999999997</ele><time>2026-04-25T13:29:26.126Z</time></trkpt><trkpt lat="43.2009" lon="10.737675"><ele>279.8</ele><time>2026-04-25T13:29:27.127Z</time></trkpt><trkpt lat="43.20098" lon="10.7377767"><ele>279.0</ele><time>2026-04-25T13:29:29.126Z</time></trkpt><trkpt lat="43.2010567" lon="10.737915"><ele>280.3333333333333</ele><time>2026-04-25T13:29:31.132Z</time></trkpt><trkpt lat="43.2011017" lon="10.7379867"><ele>281.6666666666667</ele><time>2026-04-25T13:29:32.13Z</time></trkpt><trkpt lat="43.2011533" lon="10.738045"><ele>283.0</ele><time>2026-04-25T13:29:33.125Z</time></trkpt><trkpt lat="43.2012167" lon="10.738085"><ele>284.33333333333337</ele><time>2026-04-25T13:29:34.124Z</time></trkpt><trkpt lat="43.2013467" lon="10.738095"><ele>285.6666666666667</ele><time>2026-04-25T13:29:36.121Z</time></trkpt><trkpt lat="43.2014167" lon="10.73804"><ele>287.0</ele><time>2026-04-25T13:29:37.132Z</time></trkpt><trkpt lat="43.2014833" lon="10.7379367"><ele>285.75</ele><time>2026-04-25T13:29:38.119Z</time></trkpt><trkpt lat="43.2015317" lon="10.7378017"><ele>284.5</ele><time>2026-04-25T13:29:39.126Z</time></trkpt><trkpt lat="43.2015617" lon="10.7376183"><ele>283.25</ele><time>2026-04-25T13:29:40.13Z</time></trkpt><trkpt lat="43.20159" lon="10.7374233"><ele>282.0</ele><time>2026-04-25T13:29:41.128Z</time></trkpt><trkpt lat="43.2016217" lon="10.7372217"><ele>280.0</ele><time>2026-04-25T13:29:42.127Z</time></trkpt><trkpt lat="43.20165" lon="10.7370217"><ele>278.0</ele><time>2026-04-25T13:29:43.131Z</time></trkpt><trkpt lat="43.201685" lon="10.736825"><ele>276.0</ele><time>2026-04-25T13:29:44.119Z</time></trkpt><trkpt lat="43.2017167" lon="10.7366167"><ele>275.0</ele><time>2026-04-25T13:29:45.13Z</time></trkpt><trkpt lat="43.2017467" lon="10.736405"><ele>274.0</ele><time>2026-04-25T13:29:46.133Z</time></trkpt><trkpt lat="43.2017683" lon="10.7362"><ele>273.0</ele><time>2026-04-25T13:29:47.132Z</time></trkpt><trkpt lat="43.2017967" lon="10.73601"><ele>271.75</ele><time>2026-04-25T13:29:48.125Z</time></trkpt><trkpt lat="43.201845" lon="10.7358367"><ele>270.5</ele><time>2026-04-25T13:29:49.12Z</time></trkpt><trkpt lat="43.2019217" lon="10.73568"><ele>269.25</ele><time>2026-04-25T13:29:50.128Z</time></trkpt><trkpt lat="43.20202" lon="10.7355317"><ele>268.0</ele><time>2026-04-25T13:29:51.126Z</time></trkpt><trkpt lat="43.2021317" lon="10.73539"><ele>268.0</ele><time>2026-04-25T13:29:52.121Z</time></trkpt><trkpt lat="43.202245" lon="10.7352567"><ele>268.0</ele><time>2026-04-25T13:29:53.135Z</time></trkpt><trkpt lat="43.2023583" lon="10.73514"><ele>268.0</ele><time>2026-04-25T13:29:54.12Z</time></trkpt><trkpt lat="43.2024717" lon="10.7350483"><ele>268.0</ele><time>2026-04-25T13:29:55.123Z</time></trkpt><trkpt lat="43.202595" lon="10.734975"><ele>263.0</ele><time>2026-04-25T13:29:56.119Z</time></trkpt><trkpt lat="43.202735" lon="10.7349183"><ele>258.0</ele><time>2026-04-25T13:29:57.13Z</time></trkpt><trkpt lat="43.2028983" lon="10.7348767"><ele>253.0</ele><time>2026-04-25T13:29:58.124Z</time></trkpt><trkpt lat="43.20308" lon="10.7348367"><ele>252.33333333333331</ele><time>2026-04-25T13:29:59.119Z</time></trkpt><trkpt lat="43.2032683" lon="10.7347933"><ele>251.66666666666669</ele><time>2026-04-25T13:30:00.119Z</time></trkpt><trkpt lat="43.2034583" lon="10.7347483"><ele>251.0</ele><time>2026-04-25T13:30:01.129Z</time></trkpt><trkpt lat="43.2036433" lon="10.7347033"><ele>251.0</ele><time>2026-04-25T13:30:02.127Z</time></trkpt><trkpt lat="43.20383" lon="10.73466"><ele>251.0</ele><time>2026-04-25T13:30:03.126Z</time></trkpt><trkpt lat="43.2040083" lon="10.7346183"><ele>251.0</ele><time>2026-04-25T13:30:04.126Z</time></trkpt><trkpt lat="43.2041783" lon="10.734575"><ele>250.66666666666669</ele><time>2026-04-25T13:30:05.12Z</time></trkpt><trkpt lat="43.2043483" lon="10.73453"><ele>250.33333333333331</ele><time>2026-04-25T13:30:06.132Z</time></trkpt><trkpt lat="43.20451" lon="10.7344733"><ele>250.0</ele><time>2026-04-25T13:30:07.129Z</time></trkpt><trkpt lat="43.204665" lon="10.7344"><ele>246.0</ele><time>2026-04-25T13:30:08.125Z</time></trkpt><trkpt lat="43.204815" lon="10.73431"><ele>242.0</ele><time>2026-04-25T13:30:09.127Z</time></trkpt><trkpt lat="43.2049583" lon="10.734195"><ele>238.0</ele><time>2026-04-25T13:30:10.135Z</time></trkpt><trkpt lat="43.2051033" lon="10.734065"><ele>238.0</ele><time>2026-04-25T13:30:11.132Z</time></trkpt><trkpt lat="43.2052433" lon="10.7339267"><ele>238.0</ele><time>2026-04-25T13:30:12.133Z</time></trkpt><trkpt lat="43.2053817" lon="10.7337783"><ele>238.0</ele><time>2026-04-25T13:30:13.129Z</time></trkpt><trkpt lat="43.205515" lon="10.7336233"><ele>236.0</ele><time>2026-04-25T13:30:14.134Z</time></trkpt><trkpt lat="43.2056433" lon="10.733465"><ele>234.0</ele><time>2026-04-25T13:30:15.127Z</time></trkpt><trkpt lat="43.205765" lon="10.7333267"><ele>232.0</ele><time>2026-04-25T13:30:16.125Z</time></trkpt><trkpt lat="43.2058717" lon="10.7332017"><ele>232.0</ele><time>2026-04-25T13:30:17.117Z</time></trkpt><trkpt lat="43.2059683" lon="10.733095"><ele>232.0</ele><time>2026-04-25T13:30:18.125Z</time></trkpt><trkpt lat="43.2060583" lon="10.73301"><ele>232.0</ele><time>2026-04-25T13:30:19.127Z</time></trkpt><trkpt lat="43.2061533" lon="10.7329617"><ele>232.0</ele><time>2026-04-25T13:30:20.123Z</time></trkpt><trkpt lat="43.2062483" lon="10.732945"><ele>232.0</ele><time>2026-04-25T13:30:21.118Z</time></trkpt><trkpt lat="43.2063417" lon="10.7329683"><ele>232.0</ele><time>2026-04-25T13:30:22.133Z</time></trkpt><trkpt lat="43.2064383" lon="10.7330283"><ele>232.0</ele><time>2026-04-25T13:30:23.123Z</time></trkpt><trkpt lat="43.2065467" lon="10.7331333"><ele>232.0</ele><time>2026-04-25T13:30:24.123Z</time></trkpt><trkpt lat="43.2066583" lon="10.73327"><ele>232.0</ele><time>2026-04-25T13:30:25.127Z</time></trkpt><trkpt lat="43.206755" lon="10.7334383"><ele>234.75</ele><time>2026-04-25T13:30:26.127Z</time></trkpt><trkpt lat="43.20683" lon="10.7336167"><ele>237.5</ele><time>2026-04-25T13:30:27.122Z</time></trkpt><trkpt lat="43.2068833" lon="10.733775"><ele>240.25</ele><time>2026-04-25T13:30:28.129Z</time></trkpt><trkpt lat="43.2069317" lon="10.7339083"><ele>243.0</ele><time>2026-04-25T13:30:29.131Z</time></trkpt><trkpt lat="43.206985" lon="10.7340083"><ele>243.0</ele><time>2026-04-25T13:30:30.125Z</time></trkpt><trkpt lat="43.207035" lon="10.734075"><ele>243.0</ele><time>2026-04-25T13:30:31.126Z</time></trkpt><trkpt lat="43.2071" lon="10.7341067"><ele>243.0</ele><time>2026-04-25T13:30:32.129Z</time></trkpt><trkpt lat="43.2071667" lon="10.73407"><ele>243.0</ele><time>2026-04-25T13:30:33.126Z</time></trkpt><trkpt lat="43.20722" lon="10.733975"><ele>243.0</ele><time>2026-04-25T13:30:34.121Z</time></trkpt><trkpt lat="43.2072733" lon="10.7338217"><ele>243.0</ele><time>2026-04-25T13:30:35.128Z</time></trkpt><trkpt lat="43.207325" lon="10.733615"><ele>237.0</ele><time>2026-04-25T13:30:36.134Z</time></trkpt><trkpt lat="43.2073583" lon="10.7333533"><ele>231.0</ele><time>2026-04-25T13:30:37.124Z</time></trkpt><trkpt lat="43.2073617" lon="10.733115"><ele>225.0</ele><time>2026-04-25T13:30:38.134Z</time></trkpt><trkpt lat="43.2073467" lon="10.73292"><ele>225.0</ele><time>2026-04-25T13:30:39.135Z</time></trkpt><trkpt lat="43.207335" lon="10.7327683"><ele>225.0</ele><time>2026-04-25T13:30:40.14Z</time></trkpt><trkpt lat="43.20734" lon="10.73264"><ele>225.0</ele><time>2026-04-25T13:30:41.133Z</time></trkpt><trkpt lat="43.207375" lon="10.7325417"><ele>225.0</ele><time>2026-04-25T13:30:42.128Z</time></trkpt><trkpt lat="43.20745" lon="10.732495"><ele>225.0</ele><time>2026-04-25T13:30:43.137Z</time></trkpt><trkpt lat="43.2075467" lon="10.7324917"><ele>222.5</ele><time>2026-04-25T13:30:44.131Z</time></trkpt><trkpt lat="43.2076667" lon="10.7325317"><ele>220.0</ele><time>2026-04-25T13:30:45.13Z</time></trkpt><trkpt lat="43.20781" lon="10.7325917"><ele>217.5</ele><time>2026-04-25T13:30:46.124Z</time></trkpt><trkpt lat="43.207975" lon="10.73266"><ele>215.0</ele><time>2026-04-25T13:30:47.125Z</time></trkpt><trkpt lat="43.208165" lon="10.7327433"><ele>224.33333333333334</ele><time>2026-04-25T13:30:48.128Z</time></trkpt><trkpt lat="43.208355" lon="10.7328267"><ele>233.66666666666669</ele><time>2026-04-25T13:30:49.125Z</time></trkpt><trkpt lat="43.208565" lon="10.7329"><ele>243.0</ele><time>2026-04-25T13:30:50.13Z</time></trkpt><trkpt lat="43.2087517" lon="10.732945"><ele>243.0</ele><time>2026-04-25T13:30:51.122Z</time></trkpt><trkpt lat="43.2089217" lon="10.732955"><ele>243.0</ele><time>2026-04-25T13:30:52.127Z</time></trkpt><trkpt lat="43.2091" lon="10.7329217"><ele>243.0</ele><time>2026-04-25T13:30:53.121Z</time></trkpt><trkpt lat="43.2092933" lon="10.73286"><ele>240.0</ele><time>2026-04-25T13:30:54.13Z</time></trkpt><trkpt lat="43.2094983" lon="10.7327817"><ele>237.0</ele><time>2026-04-25T13:30:55.137Z</time></trkpt><trkpt lat="43.2097083" lon="10.7326967"><ele>234.0</ele><time>2026-04-25T13:30:56.126Z</time></trkpt><trkpt lat="43.20991" lon="10.73262"><ele>229.0</ele><time>2026-04-25T13:30:57.125Z</time></trkpt><trkpt lat="43.2100983" lon="10.7325433"><ele>224.0</ele><time>2026-04-25T13:30:58.121Z</time></trkpt><trkpt lat="43.2102817" lon="10.73247"><ele>219.0</ele><time>2026-04-25T13:30:59.127Z</time></trkpt><trkpt lat="43.210465" lon="10.7323967"><ele>219.0</ele><time>2026-04-25T13:31:00.125Z</time></trkpt><trkpt lat="43.2106433" lon="10.73233"><ele>219.0</ele><time>2026-04-25T13:31:01.129Z</time></trkpt><trkpt lat="43.210815" lon="10.7322783"><ele>219.0</ele><time>2026-04-25T13:31:02.115Z</time></trkpt><trkpt lat="43.2109917" lon="10.7322367"><ele>219.33333333333331</ele><time>2026-04-25T13:31:03.132Z</time></trkpt><trkpt lat="43.211175" lon="10.7321983"><ele>219.66666666666666</ele><time>2026-04-25T13:31:04.122Z</time></trkpt><trkpt lat="43.2113617" lon="10.7321617"><ele>220.0</ele><time>2026-04-25T13:31:05.122Z</time></trkpt><trkpt lat="43.2115467" lon="10.732125"><ele>220.33333333333331</ele><time>2026-04-25T13:31:06.135Z</time></trkpt><trkpt lat="43.2117217" lon="10.7320983"><ele>220.66666666666669</ele><time>2026-04-25T13:31:07.126Z</time></trkpt><trkpt lat="43.2118933" lon="10.7320783"><ele>221.0</ele><time>2026-04-25T13:31:08.125Z</time></trkpt><trkpt lat="43.2120567" lon="10.732075"><ele>221.0</ele><time>2026-04-25T13:31:09.135Z</time></trkpt><trkpt lat="43.2122083" lon="10.7320833"><ele>221.0</ele><time>2026-04-25T13:31:10.136Z</time></trkpt><trkpt lat="43.21235" lon="10.7320983"><ele>221.0</ele><time>2026-04-25T13:31:11.12Z</time></trkpt><trkpt lat="43.2124833" lon="10.7321217"><ele>221.0</ele><time>2026-04-25T13:31:12.122Z</time></trkpt><trkpt lat="43.21261" lon="10.7321667"><ele>219.8</ele><time>2026-04-25T13:31:13.125Z</time></trkpt><trkpt lat="43.2127217" lon="10.7322367"><ele>218.60000000000002</ele><time>2026-04-25T13:31:14.12Z</time></trkpt><trkpt lat="43.21282" lon="10.732325"><ele>217.4</ele><time>2026-04-25T13:31:15.13Z</time></trkpt><trkpt lat="43.2129033" lon="10.732425"><ele>216.2</ele><time>2026-04-25T13:31:16.12Z</time></trkpt><trkpt lat="43.2129717" lon="10.7325217"><ele>215.0</ele><time>2026-04-25T13:31:17.118Z</time></trkpt><trkpt lat="43.21304" lon="10.7326183"><ele>215.0</ele><time>2026-04-25T13:31:18.124Z</time></trkpt><trkpt lat="43.2131167" lon="10.7327083"><ele>215.0</ele><time>2026-04-25T13:31:19.121Z</time></trkpt><trkpt lat="43.2132017" lon="10.73278"><ele>215.0</ele><time>2026-04-25T13:31:20.117Z</time></trkpt><trkpt lat="43.21329" lon="10.7328383"><ele>215.0</ele><time>2026-04-25T13:31:21.121Z</time></trkpt><trkpt lat="43.2133833" lon="10.7328733"><ele>215.0</ele><time>2026-04-25T13:31:22.119Z</time></trkpt><trkpt lat="43.2134767" lon="10.7328967"><ele>215.6</ele><time>2026-04-25T13:31:23.123Z</time></trkpt><trkpt lat="43.2135783" lon="10.7329"><ele>216.2</ele><time>2026-04-25T13:31:24.12Z</time></trkpt><trkpt lat="43.2136833" lon="10.732865"><ele>216.8</ele><time>2026-04-25T13:31:25.132Z</time></trkpt><trkpt lat="43.21378" lon="10.7327983"><ele>217.4</ele><time>2026-04-25T13:31:26.123Z</time></trkpt><trkpt lat="43.2138717" lon="10.7327167"><ele>218.0</ele><time>2026-04-25T13:31:27.127Z</time></trkpt><trkpt lat="43.2139533" lon="10.7326283"><ele>217.0</ele><time>2026-04-25T13:31:28.127Z</time></trkpt><trkpt lat="43.214025" lon="10.732535"><ele>216.0</ele><time>2026-04-25T13:31:29.129Z</time></trkpt><trkpt lat="43.2140817" lon="10.73243"><ele>215.0</ele><time>2026-04-25T13:31:30.126Z</time></trkpt><trkpt lat="43.2141317" lon="10.732315"><ele>214.0</ele><time>2026-04-25T13:31:31.131Z</time></trkpt><trkpt lat="43.214185" lon="10.7321933"><ele>213.0</ele><time>2026-04-25T13:31:32.132Z</time></trkpt><trkpt lat="43.2142417" lon="10.7320733"><ele>213.0</ele><time>2026-04-25T13:31:33.13Z</time></trkpt><trkpt lat="43.2143033" lon="10.7319633"><ele>213.0</ele><time>2026-04-25T13:31:34.123Z</time></trkpt><trkpt lat="43.2143783" lon="10.731865"><ele>213.0</ele><time>2026-04-25T13:31:35.127Z</time></trkpt><trkpt lat="43.21447" lon="10.7317733"><ele>213.0</ele><time>2026-04-25T13:31:36.124Z</time></trkpt><trkpt lat="43.2145833" lon="10.7316983"><ele>213.0</ele><time>2026-04-25T13:31:37.124Z</time></trkpt><trkpt lat="43.21472" lon="10.7316317"><ele>210.33333333333331</ele><time>2026-04-25T13:31:38.126Z</time></trkpt><trkpt lat="43.214875" lon="10.7315683"><ele>207.66666666666666</ele><time>2026-04-25T13:31:39.126Z</time></trkpt><trkpt lat="43.2150267" lon="10.7315117"><ele>205.0</ele><time>2026-04-25T13:31:40.12Z</time></trkpt><trkpt lat="43.2151633" lon="10.7314733"><ele>205.0</ele><time>2026-04-25T13:31:41.129Z</time></trkpt><trkpt lat="43.21529" lon="10.731455"><ele>205.0</ele><time>2026-04-25T13:31:42.128Z</time></trkpt><trkpt lat="43.2154067" lon="10.7314767"><ele>205.0</ele><time>2026-04-25T13:31:43.126Z</time></trkpt><trkpt lat="43.21551" lon="10.7315467"><ele>205.0</ele><time>2026-04-25T13:31:44.122Z</time></trkpt><trkpt lat="43.21559" lon="10.73165"><ele>205.0</ele><time>2026-04-25T13:31:45.129Z</time></trkpt><trkpt lat="43.2156567" lon="10.731795"><ele>205.0</ele><time>2026-04-25T13:31:46.12Z</time></trkpt><trkpt lat="43.2157317" lon="10.7319417"><ele>205.0</ele><time>2026-04-25T13:31:47.127Z</time></trkpt><trkpt lat="43.21583" lon="10.732065"><ele>205.0</ele><time>2026-04-25T13:31:48.128Z</time></trkpt><trkpt lat="43.215955" lon="10.7321567"><ele>205.0</ele><time>2026-04-25T13:31:49.127Z</time></trkpt><trkpt lat="43.216105" lon="10.7322067"><ele>205.0</ele><time>2026-04-25T13:31:50.128Z</time></trkpt><trkpt lat="43.2162617" lon="10.7322183"><ele>205.0</ele><time>2026-04-25T13:31:51.121Z</time></trkpt><trkpt lat="43.2164133" lon="10.7322033"><ele>206.25</ele><time>2026-04-25T13:31:52.133Z</time></trkpt><trkpt lat="43.2165517" lon="10.7321683"><ele>207.5</ele><time>2026-04-25T13:31:53.132Z</time></trkpt><trkpt lat="43.2166717" lon="10.7321217"><ele>208.75</ele><time>2026-04-25T13:31:54.132Z</time></trkpt><trkpt lat="43.216785" lon="10.7320833"><ele>210.0</ele><time>2026-04-25T13:31:55.132Z</time></trkpt><trkpt lat="43.216895" lon="10.7320633"><ele>210.0</ele><time>2026-04-25T13:31:56.125Z</time></trkpt><trkpt lat="43.217005" lon="10.7320667"><ele>210.0</ele><time>2026-04-25T13:31:57.132Z</time></trkpt><trkpt lat="43.2171167" lon="10.7321"><ele>210.0</ele><time>2026-04-25T13:31:58.119Z</time></trkpt><trkpt lat="43.2172333" lon="10.7321717"><ele>210.0</ele><time>2026-04-25T13:31:59.117Z</time></trkpt><trkpt lat="43.2173433" lon="10.732275"><ele>209.0</ele><time>2026-04-25T13:32:00.129Z</time></trkpt><trkpt lat="43.2174383" lon="10.7324083"><ele>208.0</ele><time>2026-04-25T13:32:01.127Z</time></trkpt><trkpt lat="43.217515" lon="10.732555"><ele>207.0</ele><time>2026-04-25T13:32:02.131Z</time></trkpt><trkpt lat="43.2175617" lon="10.7327"><ele>206.0</ele><time>2026-04-25T13:32:03.132Z</time></trkpt><trkpt lat="43.217575" lon="10.7328567"><ele>206.0</ele><time>2026-04-25T13:32:04.127Z</time></trkpt><trkpt lat="43.2175667" lon="10.73302"><ele>206.0</ele><time>2026-04-25T13:32:05.136Z</time></trkpt><trkpt lat="43.21756" lon="10.7331733"><ele>206.0</ele><time>2026-04-25T13:32:06.125Z</time></trkpt><trkpt lat="43.2175767" lon="10.7333067"><ele>206.0</ele><time>2026-04-25T13:32:07.123Z</time></trkpt><trkpt lat="43.2176233" lon="10.73342"><ele>206.0</ele><time>2026-04-25T13:32:08.129Z</time></trkpt><trkpt lat="43.2177" lon="10.73351"><ele>207.33333333333334</ele><time>2026-04-25T13:32:09.124Z</time></trkpt><trkpt lat="43.2179083" lon="10.733645"><ele>208.66666666666669</ele><time>2026-04-25T13:32:11.127Z</time></trkpt><trkpt lat="43.21801" lon="10.7337383"><ele>210.0</ele><time>2026-04-25T13:32:12.132Z</time></trkpt><trkpt lat="43.21812" lon="10.733875"><ele>206.66666666666669</ele><time>2026-04-25T13:32:13.126Z</time></trkpt><trkpt lat="43.21825" lon="10.7340267"><ele>203.33333333333334</ele><time>2026-04-25T13:32:14.125Z</time></trkpt><trkpt lat="43.218395" lon="10.7341617"><ele>200.0</ele><time>2026-04-25T13:32:15.126Z</time></trkpt><trkpt lat="43.218545" lon="10.73427"><ele>200.0</ele><time>2026-04-25T13:32:16.126Z</time></trkpt><trkpt lat="43.2187117" lon="10.734355"><ele>200.0</ele><time>2026-04-25T13:32:17.129Z</time></trkpt><trkpt lat="43.2189033" lon="10.734415"><ele>200.0</ele><time>2026-04-25T13:32:18.121Z</time></trkpt><trkpt lat="43.2191033" lon="10.734465"><ele>200.66666666666669</ele><time>2026-04-25T13:32:19.131Z</time></trkpt><trkpt lat="43.2192933" lon="10.7345117"><ele>201.33333333333331</ele><time>2026-04-25T13:32:20.128Z</time></trkpt><trkpt lat="43.2194617" lon="10.7345567"><ele>202.0</ele><time>2026-04-25T13:32:21.129Z</time></trkpt><trkpt lat="43.2196133" lon="10.734605"><ele>202.0</ele><time>2026-04-25T13:32:22.137Z</time></trkpt><trkpt lat="43.2197467" lon="10.734665"><ele>202.0</ele><time>2026-04-25T13:32:23.131Z</time></trkpt><trkpt lat="43.2198633" lon="10.734745"><ele>202.0</ele><time>2026-04-25T13:32:24.13Z</time></trkpt><trkpt lat="43.2199633" lon="10.7348517"><ele>202.0</ele><time>2026-04-25T13:32:25.121Z</time></trkpt><trkpt lat="43.22005" lon="10.7349883"><ele>200.8</ele><time>2026-04-25T13:32:26.118Z</time></trkpt><trkpt lat="43.22012" lon="10.7351367"><ele>199.6</ele><time>2026-04-25T13:32:27.133Z</time></trkpt><trkpt lat="43.2201783" lon="10.7352717"><ele>198.4</ele><time>2026-04-25T13:32:28.123Z</time></trkpt><trkpt lat="43.220235" lon="10.73538"><ele>197.20000000000002</ele><time>2026-04-25T13:32:29.126Z</time></trkpt><trkpt lat="43.2202967" lon="10.7354617"><ele>196.0</ele><time>2026-04-25T13:32:30.13Z</time></trkpt><trkpt lat="43.2203633" lon="10.7355133"><ele>196.0</ele><time>2026-04-25T13:32:31.131Z</time></trkpt><trkpt lat="43.2204367" lon="10.7355333"><ele>196.0</ele><time>2026-04-25T13:32:32.123Z</time></trkpt><trkpt lat="43.2205117" lon="10.7354967"><ele>196.0</ele><time>2026-04-25T13:32:33.119Z</time></trkpt><trkpt lat="43.220565" lon="10.7354067"><ele>196.0</ele><time>2026-04-25T13:32:34.123Z</time></trkpt><trkpt lat="43.220595" lon="10.735285"><ele>196.0</ele><time>2026-04-25T13:32:35.13Z</time></trkpt><trkpt lat="43.2206183" lon="10.7351083"><ele>195.66666666666666</ele><time>2026-04-25T13:32:36.115Z</time></trkpt><trkpt lat="43.2206633" lon="10.7349017"><ele>195.33333333333331</ele><time>2026-04-25T13:32:37.12Z</time></trkpt><trkpt lat="43.2207283" lon="10.7346617"><ele>195.0</ele><time>2026-04-25T13:32:38.119Z</time></trkpt><trkpt lat="43.2207817" lon="10.7344183"><ele>193.0</ele><time>2026-04-25T13:32:39.121Z</time></trkpt><trkpt lat="43.2208133" lon="10.73419"><ele>191.0</ele><time>2026-04-25T13:32:40.12Z</time></trkpt><trkpt lat="43.22084" lon="10.73398"><ele>189.0</ele><time>2026-04-25T13:32:41.126Z</time></trkpt><trkpt lat="43.2208733" lon="10.7337967"><ele>189.0</ele><time>2026-04-25T13:32:42.132Z</time></trkpt><trkpt lat="43.2209233" lon="10.7336383"><ele>189.0</ele><time>2026-04-25T13:32:43.123Z</time></trkpt><trkpt lat="43.220985" lon="10.7335067"><ele>189.0</ele><time>2026-04-25T13:32:44.121Z</time></trkpt><trkpt lat="43.221055" lon="10.7334017"><ele>189.0</ele><time>2026-04-25T13:32:45.13Z</time></trkpt><trkpt lat="43.2211333" lon="10.7333217"><ele>189.0</ele><time>2026-04-25T13:32:46.127Z</time></trkpt><trkpt lat="43.2211967" lon="10.7332383"><ele>186.75</ele><time>2026-04-25T13:32:47.127Z</time></trkpt><trkpt lat="43.2212467" lon="10.733135"><ele>184.5</ele><time>2026-04-25T13:32:48.127Z</time></trkpt><trkpt lat="43.2212717" lon="10.733005"><ele>182.25</ele><time>2026-04-25T13:32:49.134Z</time></trkpt><trkpt lat="43.2212567" lon="10.7328367"><ele>180.0</ele><time>2026-04-25T13:32:50.125Z</time></trkpt><trkpt lat="43.2212067" lon="10.732625"><ele>178.33333333333334</ele><time>2026-04-25T13:32:51.121Z</time></trkpt><trkpt lat="43.2211233" lon="10.7323633"><ele>176.66666666666669</ele><time>2026-04-25T13:32:52.129Z</time></trkpt><trkpt lat="43.2210383" lon="10.732095"><ele>175.0</ele><time>2026-04-25T13:32:53.124Z</time></trkpt><trkpt lat="43.2209717" lon="10.7318433"><ele>175.0</ele><time>2026-04-25T13:32:54.125Z</time></trkpt><trkpt lat="43.22093" lon="10.7316"><ele>175.0</ele><time>2026-04-25T13:32:55.138Z</time></trkpt><trkpt lat="43.2209117" lon="10.7313433"><ele>175.0</ele><time>2026-04-25T13:32:56.124Z</time></trkpt><trkpt lat="43.2209033" lon="10.7310867"><ele>174.25</ele><time>2026-04-25T13:32:57.141Z</time></trkpt><trkpt lat="43.2208983" lon="10.7308583"><ele>173.5</ele><time>2026-04-25T13:32:58.13Z</time></trkpt><trkpt lat="43.220895" lon="10.730675"><ele>172.75</ele><time>2026-04-25T13:32:59.118Z</time></trkpt><trkpt lat="43.2208883" lon="10.7305317"><ele>172.0</ele><time>2026-04-25T13:33:00.12Z</time></trkpt><trkpt lat="43.2208883" lon="10.7304183"><ele>172.0</ele><time>2026-04-25T13:33:01.125Z</time></trkpt><trkpt lat="43.22091" lon="10.730315"><ele>172.0</ele><time>2026-04-25T13:33:02.123Z</time></trkpt><trkpt lat="43.2209633" lon="10.7302217"><ele>172.0</ele><time>2026-04-25T13:33:03.12Z</time></trkpt><trkpt lat="43.2210667" lon="10.730135"><ele>172.0</ele><time>2026-04-25T13:33:04.132Z</time></trkpt><trkpt lat="43.2212083" lon="10.7300417"><ele>172.0</ele><time>2026-04-25T13:33:05.13Z</time></trkpt><trkpt lat="43.22136" lon="10.7299067"><ele>173.66666666666669</ele><time>2026-04-25T13:33:06.127Z</time></trkpt><trkpt lat="43.2215267" lon="10.7297483"><ele>175.33333333333334</ele><time>2026-04-25T13:33:07.13Z</time></trkpt><trkpt lat="43.2216867" lon="10.729595"><ele>177.0</ele><time>2026-04-25T13:33:08.125Z</time></trkpt><trkpt lat="43.2218383" lon="10.7294667"><ele>173.0</ele><time>2026-04-25T13:33:09.132Z</time></trkpt><trkpt lat="43.2219733" lon="10.7293633"><ele>169.0</ele><time>2026-04-25T13:33:10.131Z</time></trkpt><trkpt lat="43.2220883" lon="10.729275"><ele>165.0</ele><time>2026-04-25T13:33:11.12Z</time></trkpt><trkpt lat="43.2222583" lon="10.7291033"><ele>165.0</ele><time>2026-04-25T13:33:13.127Z</time></trkpt><trkpt lat="43.2223083" lon="10.7289817"><ele>165.0</ele><time>2026-04-25T13:33:14.129Z</time></trkpt><trkpt lat="43.2223433" lon="10.728845"><ele>165.0</ele><time>2026-04-25T13:33:15.132Z</time></trkpt><trkpt lat="43.22237" lon="10.7286883"><ele>165.0</ele><time>2026-04-25T13:33:16.12Z</time></trkpt><trkpt lat="43.2224067" lon="10.7285317"><ele>165.0</ele><time>2026-04-25T13:33:17.117Z</time></trkpt><trkpt lat="43.2224567" lon="10.728375"><ele>163.5</ele><time>2026-04-25T13:33:18.126Z</time></trkpt><trkpt lat="43.2225317" lon="10.72824"><ele>162.0</ele><time>2026-04-25T13:33:19.133Z</time></trkpt><trkpt lat="43.22263" lon="10.728115"><ele>160.5</ele><time>2026-04-25T13:33:20.119Z</time></trkpt><trkpt lat="43.2227467" lon="10.72801"><ele>159.0</ele><time>2026-04-25T13:33:21.119Z</time></trkpt><trkpt lat="43.2228583" lon="10.727925"><ele>159.0</ele><time>2026-04-25T13:33:22.126Z</time></trkpt><trkpt lat="43.222955" lon="10.7278417"><ele>159.0</ele><time>2026-04-25T13:33:23.133Z</time></trkpt><trkpt lat="43.223035" lon="10.727725"><ele>159.0</ele><time>2026-04-25T13:33:24.128Z</time></trkpt><trkpt lat="43.2231033" lon="10.7275783"><ele>159.0</ele><time>2026-04-25T13:33:25.134Z</time></trkpt><trkpt lat="43.2231517" lon="10.7274333"><ele>158.5</ele><time>2026-04-25T13:33:26.128Z</time></trkpt><trkpt lat="43.22317" lon="10.7273017"><ele>158.0</ele><time>2026-04-25T13:33:27.127Z</time></trkpt><trkpt lat="43.2231583" lon="10.727165"><ele>157.5</ele><time>2026-04-25T13:33:28.119Z</time></trkpt><trkpt lat="43.2231133" lon="10.7270167"><ele>157.0</ele><time>2026-04-25T13:33:29.129Z</time></trkpt><trkpt lat="43.223045" lon="10.7268383"><ele>152.66666666666669</ele><time>2026-04-25T13:33:30.12Z</time></trkpt><trkpt lat="43.2229867" lon="10.7266317"><ele>148.33333333333334</ele><time>2026-04-25T13:33:31.132Z</time></trkpt><trkpt lat="43.2229417" lon="10.7264233"><ele>144.0</ele><time>2026-04-25T13:33:32.123Z</time></trkpt><trkpt lat="43.22291" lon="10.7262367"><ele>144.0</ele><time>2026-04-25T13:33:33.119Z</time></trkpt><trkpt lat="43.2228917" lon="10.72607"><ele>144.0</ele><time>2026-04-25T13:33:34.124Z</time></trkpt><trkpt lat="43.2228867" lon="10.725915"><ele>144.0</ele><time>2026-04-25T13:33:35.12Z</time></trkpt><trkpt lat="43.222905" lon="10.725765"><ele>144.0</ele><time>2026-04-25T13:33:36.128Z</time></trkpt><trkpt lat="43.2229517" lon="10.7256267"><ele>141.8</ele><time>2026-04-25T13:33:37.134Z</time></trkpt><trkpt lat="43.2230117" lon="10.7255067"><ele>139.60000000000002</ele><time>2026-04-25T13:33:38.134Z</time></trkpt><trkpt lat="43.2230667" lon="10.7254017"><ele>137.4</ele><time>2026-04-25T13:33:39.121Z</time></trkpt><trkpt lat="43.223095" lon="10.72528"><ele>135.20000000000002</ele><time>2026-04-25T13:33:40.122Z</time></trkpt><trkpt lat="43.223095" lon="10.7251417"><ele>133.0</ele><time>2026-04-25T13:33:41.119Z</time></trkpt><trkpt lat="43.223085" lon="10.7250117"><ele>133.33333333333334</ele><time>2026-04-25T13:33:42.129Z</time></trkpt><trkpt lat="43.223085" lon="10.7249017"><ele>133.66666666666669</ele><time>2026-04-25T13:33:43.125Z</time></trkpt><trkpt lat="43.2231133" lon="10.7248117"><ele>134.0</ele><time>2026-04-25T13:33:44.124Z</time></trkpt><trkpt lat="43.2231667" lon="10.7247567"><ele>134.33333333333334</ele><time>2026-04-25T13:33:45.132Z</time></trkpt><trkpt lat="43.22324" lon="10.7247433"><ele>134.66666666666666</ele><time>2026-04-25T13:33:46.126Z</time></trkpt><trkpt lat="43.2233233" lon="10.724765"><ele>135.0</ele><time>2026-04-25T13:33:47.118Z</time></trkpt><trkpt lat="43.2234133" lon="10.7248083"><ele>135.0</ele><time>2026-04-25T13:33:48.122Z</time></trkpt><trkpt lat="43.2235033" lon="10.7248317"><ele>135.0</ele><time>2026-04-25T13:33:49.119Z</time></trkpt><trkpt lat="43.2235933" lon="10.7248217"><ele>135.0</ele><time>2026-04-25T13:33:50.12Z</time></trkpt><trkpt lat="43.22368" lon="10.7247717"><ele>135.0</ele><time>2026-04-25T13:33:51.129Z</time></trkpt><trkpt lat="43.2237667" lon="10.724715"><ele>135.0</ele><time>2026-04-25T13:33:52.129Z</time></trkpt><trkpt lat="43.2238533" lon="10.7246833"><ele>135.0</ele><time>2026-04-25T13:33:53.121Z</time></trkpt><trkpt lat="43.223935" lon="10.7246783"><ele>135.0</ele><time>2026-04-25T13:33:54.128Z</time></trkpt><trkpt lat="43.2240067" lon="10.7247033"><ele>135.0</ele><time>2026-04-25T13:33:55.123Z</time></trkpt><trkpt lat="43.2240733" lon="10.7247317"><ele>135.0</ele><time>2026-04-25T13:33:56.136Z</time></trkpt><trkpt lat="43.22414" lon="10.724735"><ele>135.0</ele><time>2026-04-25T13:33:57.124Z</time></trkpt><trkpt lat="43.2242017" lon="10.7247117"><ele>135.0</ele><time>2026-04-25T13:33:58.125Z</time></trkpt><trkpt lat="43.2242483" lon="10.7246483"><ele>135.0</ele><time>2026-04-25T13:33:59.128Z</time></trkpt><trkpt lat="43.2242838" lon="10.7245581"><ele>135.0</ele><time>2026-04-25T13:34:00.12Z</time></trkpt><trkpt lat="43.2242942" lon="10.7244121"><ele>135.0</ele><time>2026-04-25T13:34:01.136Z</time></trkpt><trkpt lat="43.2242967" lon="10.7242344"><ele>135.0</ele><time>2026-04-25T13:34:02.127Z</time></trkpt><trkpt lat="43.224316" lon="10.7240423"><ele>135.0</ele><time>2026-04-25T13:34:03.128Z</time></trkpt><trkpt lat="43.22436" lon="10.723842"><ele>131.66666666666666</ele><time>2026-04-25T13:34:04.128Z</time></trkpt><trkpt lat="43.2244374" lon="10.7236472"><ele>128.33333333333331</ele><time>2026-04-25T13:34:05.125Z</time></trkpt><trkpt lat="43.2245429" lon="10.7234633"><ele>125.0</ele><time>2026-04-25T13:34:06.128Z</time></trkpt><trkpt lat="43.2246595" lon="10.7233022"><ele>125.0</ele><time>2026-04-25T13:34:07.126Z</time></trkpt><trkpt lat="43.2247795" lon="10.7231658"><ele>125.0</ele><time>2026-04-25T13:34:08.12Z</time></trkpt><trkpt lat="43.2249" lon="10.7230544"><ele>125.0</ele><time>2026-04-25T13:34:09.126Z</time></trkpt><trkpt lat="43.2250363" lon="10.7229621"><ele>125.0</ele><time>2026-04-25T13:34:10.133Z</time></trkpt><trkpt lat="43.2251996" lon="10.7228809"><ele>125.0</ele><time>2026-04-25T13:34:11.132Z</time></trkpt><trkpt lat="43.2253776" lon="10.7228075"><ele>125.0</ele><time>2026-04-25T13:34:12.122Z</time></trkpt><trkpt lat="43.2257031" lon="10.7226678"><ele>122.66666666666666</ele><time>2026-04-25T13:34:14.126Z</time></trkpt><trkpt lat="43.2258478" lon="10.7225657"><ele>120.33333333333334</ele><time>2026-04-25T13:34:15.117Z</time></trkpt><trkpt lat="43.2260018" lon="10.7224113"><ele>118.0</ele><time>2026-04-25T13:34:16.13Z</time></trkpt><trkpt lat="43.2261635" lon="10.7222153"><ele>118.0</ele><time>2026-04-25T13:34:17.127Z</time></trkpt><trkpt lat="43.226317" lon="10.7220113"><ele>118.0</ele><time>2026-04-25T13:34:18.135Z</time></trkpt><trkpt lat="43.2264446" lon="10.7218387"><ele>118.0</ele><time>2026-04-25T13:34:19.132Z</time></trkpt><trkpt lat="43.2265514" lon="10.7216997"><ele>118.75</ele><time>2026-04-25T13:34:20.118Z</time></trkpt><trkpt lat="43.2266429" lon="10.7215789"><ele>119.5</ele><time>2026-04-25T13:34:21.126Z</time></trkpt><trkpt lat="43.2267157" lon="10.7214591"><ele>120.25</ele><time>2026-04-25T13:34:22.124Z</time></trkpt><trkpt lat="43.2267709" lon="10.7213208"><ele>121.0</ele><time>2026-04-25T13:34:23.121Z</time></trkpt><trkpt lat="43.2267922" lon="10.7211542"><ele>119.5</ele><time>2026-04-25T13:34:24.125Z</time></trkpt><trkpt lat="43.2267841" lon="10.7209628"><ele>118.0</ele><time>2026-04-25T13:34:25.121Z</time></trkpt><trkpt lat="43.2267573" lon="10.7207696"><ele>116.5</ele><time>2026-04-25T13:34:26.117Z</time></trkpt><trkpt lat="43.2267215" lon="10.720596"><ele>115.0</ele><time>2026-04-25T13:34:27.125Z</time></trkpt><trkpt lat="43.2266995" lon="10.7204491"><ele>115.0</ele><time>2026-04-25T13:34:28.128Z</time></trkpt><trkpt lat="43.2267025" lon="10.7203211"><ele>115.0</ele><time>2026-04-25T13:34:29.124Z</time></trkpt><trkpt lat="43.2267281" lon="10.7202011"><ele>115.0</ele><time>2026-04-25T13:34:30.135Z</time></trkpt><trkpt lat="43.2267849" lon="10.720085"><ele>115.0</ele><time>2026-04-25T13:34:31.119Z</time></trkpt><trkpt lat="43.2268676" lon="10.7199771"><ele>115.0</ele><time>2026-04-25T13:34:32.121Z</time></trkpt><trkpt lat="43.2269677" lon="10.7198981"><ele>114.25</ele><time>2026-04-25T13:34:33.127Z</time></trkpt><trkpt lat="43.2270717" lon="10.7198605"><ele>113.5</ele><time>2026-04-25T13:34:34.129Z</time></trkpt><trkpt lat="43.2271851" lon="10.7198669"><ele>112.75</ele><time>2026-04-25T13:34:35.13Z</time></trkpt><trkpt lat="43.2272991" lon="10.7198936"><ele>112.0</ele><time>2026-04-25T13:34:36.128Z</time></trkpt><trkpt lat="43.2274125" lon="10.7199068"><ele>112.0</ele><time>2026-04-25T13:34:37.131Z</time></trkpt><trkpt lat="43.2275205" lon="10.7198841"><ele>111.99999999999999</ele><time>2026-04-25T13:34:38.129Z</time></trkpt><trkpt lat="43.2276141" lon="10.7198218"><ele>111.99999999999999</ele><time>2026-04-25T13:34:39.129Z</time></trkpt><trkpt lat="43.2276896" lon="10.7197318"><ele>112.0</ele><time>2026-04-25T13:34:40.142Z</time></trkpt><trkpt lat="43.2277511" lon="10.719641"><ele>112.0</ele><time>2026-04-25T13:34:41.129Z</time></trkpt><trkpt lat="43.2278054" lon="10.7195633"><ele>112.0</ele><time>2026-04-25T13:34:42.126Z</time></trkpt><trkpt lat="43.2278519" lon="10.7195036"><ele>111.99999999999999</ele><time>2026-04-25T13:34:43.127Z</time></trkpt><trkpt lat="43.2279231" lon="10.719421"><ele>111.99999999999999</ele><time>2026-04-25T13:34:45.128Z</time></trkpt><trkpt lat="43.22805" lon="10.7194017"><ele>112.0</ele><time>2026-04-25T13:36:32.129Z</time></trkpt><trkpt lat="43.2281517" lon="10.7193917"><ele>112.0</ele><time>2026-04-25T13:36:34.134Z</time></trkpt><trkpt lat="43.22822" lon="10.7193983"><ele>111.39999999999999</ele><time>2026-04-25T13:36:35.129Z</time></trkpt><trkpt lat="43.228295" lon="10.7194117"><ele>110.79999999999998</ele><time>2026-04-25T13:36:36.13Z</time></trkpt><trkpt lat="43.2283817" lon="10.719435"><ele>110.2</ele><time>2026-04-25T13:36:37.142Z</time></trkpt><trkpt lat="43.2284833" lon="10.71947"><ele>109.6</ele><time>2026-04-25T13:36:38.13Z</time></trkpt><trkpt lat="43.2286067" lon="10.7195267"><ele>109.0</ele><time>2026-04-25T13:36:39.118Z</time></trkpt><trkpt lat="43.2287467" lon="10.71958"><ele>109.0</ele><time>2026-04-25T13:36:40.128Z</time></trkpt><trkpt lat="43.2288933" lon="10.71963"><ele>109.0</ele><time>2026-04-25T13:36:41.127Z</time></trkpt><trkpt lat="43.2290367" lon="10.719685"><ele>109.0</ele><time>2026-04-25T13:36:42.123Z</time></trkpt><trkpt lat="43.2291767" lon="10.7197333"><ele>109.0</ele><time>2026-04-25T13:36:43.124Z</time></trkpt><trkpt lat="43.229315" lon="10.7197783"><ele>108.75</ele><time>2026-04-25T13:36:44.128Z</time></trkpt><trkpt lat="43.22945" lon="10.7198167"><ele>108.5</ele><time>2026-04-25T13:36:45.124Z</time></trkpt><trkpt lat="43.2295833" lon="10.7198483"><ele>108.25</ele><time>2026-04-25T13:36:46.141Z</time></trkpt><trkpt lat="43.2297117" lon="10.7198733"><ele>108.0</ele><time>2026-04-25T13:36:47.124Z</time></trkpt><trkpt lat="43.22984" lon="10.7199"><ele>108.0</ele><time>2026-04-25T13:36:48.127Z</time></trkpt><trkpt lat="43.2299667" lon="10.7199283"><ele>108.0</ele><time>2026-04-25T13:36:49.134Z</time></trkpt><trkpt lat="43.23009" lon="10.7199583"><ele>108.0</ele><time>2026-04-25T13:36:50.128Z</time></trkpt><trkpt lat="43.2302167" lon="10.7199883"><ele>108.0</ele><time>2026-04-25T13:36:51.135Z</time></trkpt><trkpt lat="43.2303417" lon="10.7200217"><ele>108.0</ele><time>2026-04-25T13:36:52.132Z</time></trkpt><trkpt lat="43.2304667" lon="10.7200533"><ele>108.0</ele><time>2026-04-25T13:36:53.128Z</time></trkpt><trkpt lat="43.2305917" lon="10.7200817"><ele>108.0</ele><time>2026-04-25T13:36:54.128Z</time></trkpt><trkpt lat="43.2307167" lon="10.7201067"><ele>108.0</ele><time>2026-04-25T13:36:55.133Z</time></trkpt><trkpt lat="43.23084" lon="10.7201367"><ele>107.75</ele><time>2026-04-25T13:36:56.13Z</time></trkpt><trkpt lat="43.2309717" lon="10.7201667"><ele>107.5</ele><time>2026-04-25T13:36:57.13Z</time></trkpt><trkpt lat="43.2311033" lon="10.7201983"><ele>107.25</ele><time>2026-04-25T13:36:58.125Z</time></trkpt><trkpt lat="43.2312417" lon="10.720235"><ele>107.0</ele><time>2026-04-25T13:36:59.139Z</time></trkpt><trkpt lat="43.2313883" lon="10.72027"><ele>105.66666666666666</ele><time>2026-04-25T13:37:00.122Z</time></trkpt><trkpt lat="43.2315467" lon="10.7202933"><ele>104.33333333333334</ele><time>2026-04-25T13:37:01.13Z</time></trkpt><trkpt lat="43.2317033" lon="10.7203033"><ele>103.0</ele><time>2026-04-25T13:37:02.126Z</time></trkpt><trkpt lat="43.2318617" lon="10.7203017"><ele>103.0</ele><time>2026-04-25T13:37:03.134Z</time></trkpt><trkpt lat="43.2320183" lon="10.72029"><ele>103.0</ele><time>2026-04-25T13:37:04.127Z</time></trkpt><trkpt lat="43.23218" lon="10.7202683"><ele>103.0</ele><time>2026-04-25T13:37:05.13Z</time></trkpt><trkpt lat="43.232345" lon="10.7202317"><ele>103.33333333333334</ele><time>2026-04-25T13:37:06.122Z</time></trkpt><trkpt lat="43.23251" lon="10.72018"><ele>103.66666666666666</ele><time>2026-04-25T13:37:07.127Z</time></trkpt><trkpt lat="43.232675" lon="10.720125"><ele>104.0</ele><time>2026-04-25T13:37:08.14Z</time></trkpt><trkpt lat="43.2328317" lon="10.7200683"><ele>104.0</ele><time>2026-04-25T13:37:09.126Z</time></trkpt><trkpt lat="43.2329817" lon="10.720015"><ele>104.0</ele><time>2026-04-25T13:37:10.128Z</time></trkpt><trkpt lat="43.2331317" lon="10.7199583"><ele>104.0</ele><time>2026-04-25T13:37:11.137Z</time></trkpt><trkpt lat="43.2332883" lon="10.7198883"><ele>102.33333333333333</ele><time>2026-04-25T13:37:12.133Z</time></trkpt><trkpt lat="43.2334483" lon="10.7197933"><ele>100.66666666666666</ele><time>2026-04-25T13:37:13.129Z</time></trkpt><trkpt lat="43.23361" lon="10.7196733"><ele>99.0</ele><time>2026-04-25T13:37:14.137Z</time></trkpt><trkpt lat="43.233775" lon="10.7195383"><ele>97.5</ele><time>2026-04-25T13:37:15.123Z</time></trkpt><trkpt lat="43.2340983" lon="10.71924"><ele>96.0</ele><time>2026-04-25T13:37:17.132Z</time></trkpt><trkpt lat="43.23426" lon="10.7190867"><ele>96.0</ele><time>2026-04-25T13:37:18.126Z</time></trkpt><trkpt lat="43.2344217" lon="10.7189333"><ele>96.0</ele><time>2026-04-25T13:37:19.139Z</time></trkpt><trkpt lat="43.234585" lon="10.7187833"><ele>96.0</ele><time>2026-04-25T13:37:20.134Z</time></trkpt><trkpt lat="43.2347483" lon="10.7186333"><ele>96.0</ele><time>2026-04-25T13:37:21.129Z</time></trkpt><trkpt lat="43.2349133" lon="10.7184817"><ele>96.0</ele><time>2026-04-25T13:37:22.127Z</time></trkpt><trkpt lat="43.2350783" lon="10.7183283"><ele>96.0</ele><time>2026-04-25T13:37:23.129Z</time></trkpt><trkpt lat="43.2352433" lon="10.7181717"><ele>96.0</ele><time>2026-04-25T13:37:24.122Z</time></trkpt><trkpt lat="43.2354083" lon="10.7180133"><ele>96.0</ele><time>2026-04-25T13:37:25.13Z</time></trkpt><trkpt lat="43.235575" lon="10.7178567"><ele>96.0</ele><time>2026-04-25T13:37:26.126Z</time></trkpt><trkpt lat="43.2357383" lon="10.7177033"><ele>96.66666666666666</ele><time>2026-04-25T13:37:27.13Z</time></trkpt><trkpt lat="43.2358967" lon="10.717555"><ele>97.33333333333333</ele><time>2026-04-25T13:37:28.139Z</time></trkpt><trkpt lat="43.23605" lon="10.7174117"><ele>98.0</ele><time>2026-04-25T13:37:29.125Z</time></trkpt><trkpt lat="43.2362033" lon="10.7172833"><ele>98.0</ele><time>2026-04-25T13:37:30.13Z</time></trkpt><trkpt lat="43.2363617" lon="10.7171767"><ele>98.0</ele><time>2026-04-25T13:37:31.132Z</time></trkpt><trkpt lat="43.2365233" lon="10.717095"><ele>98.0</ele><time>2026-04-25T13:37:32.127Z</time></trkpt><trkpt lat="43.2366883" lon="10.7170317"><ele>96.66666666666666</ele><time>2026-04-25T13:37:33.123Z</time></trkpt><trkpt lat="43.2368567" lon="10.71699"><ele>95.33333333333333</ele><time>2026-04-25T13:37:34.127Z</time></trkpt><trkpt lat="43.2370317" lon="10.71697"><ele>94.0</ele><time>2026-04-25T13:37:35.139Z</time></trkpt><trkpt lat="43.2372117" lon="10.7169633"><ele>93.33333333333333</ele><time>2026-04-25T13:37:36.132Z</time></trkpt><trkpt lat="43.237395" lon="10.7169667"><ele>92.66666666666667</ele><time>2026-04-25T13:37:37.122Z</time></trkpt><trkpt lat="43.23758" lon="10.7169767"><ele>92.0</ele><time>2026-04-25T13:37:38.129Z</time></trkpt><trkpt lat="43.2377683" lon="10.71699"><ele>92.0</ele><time>2026-04-25T13:37:39.13Z</time></trkpt><trkpt lat="43.237955" lon="10.717"><ele>92.0</ele><time>2026-04-25T13:37:40.123Z</time></trkpt><trkpt lat="43.2381367" lon="10.7170133"><ele>92.0</ele><time>2026-04-25T13:37:41.129Z</time></trkpt><trkpt lat="43.2383117" lon="10.717025"><ele>92.33333333333334</ele><time>2026-04-25T13:37:42.131Z</time></trkpt><trkpt lat="43.2384817" lon="10.7170367"><ele>92.66666666666667</ele><time>2026-04-25T13:37:43.125Z</time></trkpt><trkpt lat="43.2386467" lon="10.7170467"><ele>93.0</ele><time>2026-04-25T13:37:44.128Z</time></trkpt><trkpt lat="43.238815" lon="10.7170483"><ele>92.5</ele><time>2026-04-25T13:37:45.119Z</time></trkpt><trkpt lat="43.2389883" lon="10.7170333"><ele>92.0</ele><time>2026-04-25T13:37:46.127Z</time></trkpt><trkpt lat="43.2394867" lon="10.71686"><ele>91.66666666666667</ele><time>2026-04-25T13:37:49.13Z</time></trkpt><trkpt lat="43.2396517" lon="10.71675"><ele>91.33333333333333</ele><time>2026-04-25T13:37:50.124Z</time></trkpt><trkpt lat="43.2398183" lon="10.7166133"><ele>91.0</ele><time>2026-04-25T13:37:51.14Z</time></trkpt><trkpt lat="43.2399883" lon="10.716455"><ele>91.0</ele><time>2026-04-25T13:37:52.127Z</time></trkpt><trkpt lat="43.2401633" lon="10.7162833"><ele>91.0</ele><time>2026-04-25T13:37:53.13Z</time></trkpt><trkpt lat="43.2403383" lon="10.7161117"><ele>91.0</ele><time>2026-04-25T13:37:54.13Z</time></trkpt><trkpt lat="43.240505" lon="10.7159483"><ele>91.0</ele><time>2026-04-25T13:37:55.134Z</time></trkpt><trkpt lat="43.240665" lon="10.7157917"><ele>91.0</ele><time>2026-04-25T13:37:56.119Z</time></trkpt><trkpt lat="43.2408217" lon="10.71564"><ele>91.0</ele><time>2026-04-25T13:37:57.125Z</time></trkpt><trkpt lat="43.2409767" lon="10.71549"><ele>91.0</ele><time>2026-04-25T13:37:58.122Z</time></trkpt><trkpt lat="43.241135" lon="10.7153417"><ele>91.0</ele><time>2026-04-25T13:37:59.133Z</time></trkpt><trkpt lat="43.2412983" lon="10.7151933"><ele>91.0</ele><time>2026-04-25T13:38:00.127Z</time></trkpt><trkpt lat="43.2414667" lon="10.71505"><ele>90.33333333333333</ele><time>2026-04-25T13:38:01.124Z</time></trkpt><trkpt lat="43.2416417" lon="10.71491"><ele>89.66666666666667</ele><time>2026-04-25T13:38:02.118Z</time></trkpt><trkpt lat="43.2418167" lon="10.7147733"><ele>89.0</ele><time>2026-04-25T13:38:03.123Z</time></trkpt><trkpt lat="43.241995" lon="10.7146383"><ele>89.0</ele><time>2026-04-25T13:38:04.13Z</time></trkpt><trkpt lat="43.2421767" lon="10.7145083"><ele>89.0</ele><time>2026-04-25T13:38:05.123Z</time></trkpt><trkpt lat="43.24236" lon="10.7143767"><ele>89.0</ele><time>2026-04-25T13:38:06.122Z</time></trkpt><trkpt lat="43.2425433" lon="10.7142467"><ele>88.0</ele><time>2026-04-25T13:38:07.124Z</time></trkpt><trkpt lat="43.2427267" lon="10.7141183"><ele>87.0</ele><time>2026-04-25T13:38:08.119Z</time></trkpt><trkpt lat="43.2429067" lon="10.713995"><ele>86.0</ele><time>2026-04-25T13:38:09.134Z</time></trkpt><trkpt lat="43.2430817" lon="10.7138733"><ele>85.33333333333334</ele><time>2026-04-25T13:38:10.132Z</time></trkpt><trkpt lat="43.243255" lon="10.7137567"><ele>84.66666666666667</ele><time>2026-04-25T13:38:11.131Z</time></trkpt><trkpt lat="43.243425" lon="10.7136383"><ele>84.0</ele><time>2026-04-25T13:38:12.139Z</time></trkpt><trkpt lat="43.243595" lon="10.7135233"><ele>84.0</ele><time>2026-04-25T13:38:13.138Z</time></trkpt><trkpt lat="43.2437617" lon="10.7134083"><ele>84.0</ele><time>2026-04-25T13:38:14.128Z</time></trkpt><trkpt lat="43.2439267" lon="10.7132917"><ele>84.0</ele><time>2026-04-25T13:38:15.125Z</time></trkpt><trkpt lat="43.2440933" lon="10.713175"><ele>84.0</ele><time>2026-04-25T13:38:16.133Z</time></trkpt><trkpt lat="43.24426" lon="10.71306"><ele>84.0</ele><time>2026-04-25T13:38:17.124Z</time></trkpt><trkpt lat="43.2444233" lon="10.7129467"><ele>84.0</ele><time>2026-04-25T13:38:18.126Z</time></trkpt><trkpt lat="43.2445867" lon="10.7128367"><ele>84.66666666666667</ele><time>2026-04-25T13:38:19.135Z</time></trkpt><trkpt lat="43.2447517" lon="10.7127267"><ele>85.33333333333334</ele><time>2026-04-25T13:38:20.121Z</time></trkpt><trkpt lat="43.2449167" lon="10.7126133"><ele>86.0</ele><time>2026-04-25T13:38:21.143Z</time></trkpt><trkpt lat="43.2450833" lon="10.712495"><ele>86.0</ele><time>2026-04-25T13:38:22.13Z</time></trkpt><trkpt lat="43.24525" lon="10.7123783"><ele>86.0</ele><time>2026-04-25T13:38:23.136Z</time></trkpt><trkpt lat="43.2454133" lon="10.712265"><ele>86.0</ele><time>2026-04-25T13:38:24.138Z</time></trkpt><trkpt lat="43.2455733" lon="10.71215"><ele>86.0</ele><time>2026-04-25T13:38:25.145Z</time></trkpt><trkpt lat="43.2457317" lon="10.71203"><ele>86.0</ele><time>2026-04-25T13:38:26.128Z</time></trkpt><trkpt lat="43.2458883" lon="10.7118983"><ele>86.0</ele><time>2026-04-25T13:38:27.129Z</time></trkpt><trkpt lat="43.2460367" lon="10.7117483"><ele>86.0</ele><time>2026-04-25T13:38:28.137Z</time></trkpt><trkpt lat="43.2461767" lon="10.7115817"><ele>86.0</ele><time>2026-04-25T13:38:29.135Z</time></trkpt><trkpt lat="43.2463117" lon="10.7114067"><ele>86.0</ele><time>2026-04-25T13:38:30.135Z</time></trkpt><trkpt lat="43.24644" lon="10.7112283"><ele>85.66666666666667</ele><time>2026-04-25T13:38:31.135Z</time></trkpt><trkpt lat="43.24657" lon="10.711045"><ele>85.33333333333333</ele><time>2026-04-25T13:38:32.126Z</time></trkpt><trkpt lat="43.2467" lon="10.7108583"><ele>85.0</ele><time>2026-04-25T13:38:33.126Z</time></trkpt><trkpt lat="43.24683" lon="10.7106767"><ele>85.0</ele><time>2026-04-25T13:38:34.127Z</time></trkpt><trkpt lat="43.2469583" lon="10.7104983"><ele>85.0</ele><time>2026-04-25T13:38:35.127Z</time></trkpt><trkpt lat="43.2470833" lon="10.7103267"><ele>85.0</ele><time>2026-04-25T13:38:36.127Z</time></trkpt><trkpt lat="43.2472033" lon="10.7101617"><ele>84.66666666666666</ele><time>2026-04-25T13:38:37.117Z</time></trkpt><trkpt lat="43.2473267" lon="10.71"><ele>84.33333333333333</ele><time>2026-04-25T13:38:38.116Z</time></trkpt><trkpt lat="43.247455" lon="10.7098433"><ele>84.0</ele><time>2026-04-25T13:38:39.13Z</time></trkpt><trkpt lat="43.2475867" lon="10.7096933"><ele>84.0</ele><time>2026-04-25T13:38:40.127Z</time></trkpt><trkpt lat="43.2477217" lon="10.70955"><ele>84.0</ele><time>2026-04-25T13:38:41.118Z</time></trkpt><trkpt lat="43.2478683" lon="10.7094283"><ele>84.0</ele><time>2026-04-25T13:38:42.133Z</time></trkpt><trkpt lat="43.2480267" lon="10.7093283"><ele>83.0</ele><time>2026-04-25T13:38:43.131Z</time></trkpt><trkpt lat="43.24819" lon="10.709245"><ele>82.0</ele><time>2026-04-25T13:38:44.118Z</time></trkpt><trkpt lat="43.24836" lon="10.7091833"><ele>81.0</ele><time>2026-04-25T13:38:45.118Z</time></trkpt><trkpt lat="43.2485383" lon="10.709135"><ele>81.0</ele><time>2026-04-25T13:38:46.128Z</time></trkpt><trkpt lat="43.24872" lon="10.7090917"><ele>81.0</ele><time>2026-04-25T13:38:47.125Z</time></trkpt><trkpt lat="43.2489067" lon="10.70905"><ele>81.0</ele><time>2026-04-25T13:38:48.129Z</time></trkpt><trkpt lat="43.2490967" lon="10.709005"><ele>81.0</ele><time>2026-04-25T13:38:49.133Z</time></trkpt><trkpt lat="43.2492883" lon="10.7089633"><ele>81.0</ele><time>2026-04-25T13:38:50.119Z</time></trkpt><trkpt lat="43.2494833" lon="10.7089233"><ele>81.0</ele><time>2026-04-25T13:38:51.128Z</time></trkpt><trkpt lat="43.2496783" lon="10.7088867"><ele>81.0</ele><time>2026-04-25T13:38:52.128Z</time></trkpt><trkpt lat="43.2498667" lon="10.70885"><ele>81.0</ele><time>2026-04-25T13:38:53.128Z</time></trkpt><trkpt lat="43.25005" lon="10.708815"><ele>81.0</ele><time>2026-04-25T13:38:54.128Z</time></trkpt><trkpt lat="43.2502283" lon="10.70878"><ele>81.0</ele><time>2026-04-25T13:38:55.124Z</time></trkpt><trkpt lat="43.2503983" lon="10.7087433"><ele>81.0</ele><time>2026-04-25T13:38:56.13Z</time></trkpt><trkpt lat="43.250565" lon="10.70871"><ele>81.0</ele><time>2026-04-25T13:38:57.124Z</time></trkpt><trkpt lat="43.2507317" lon="10.7086783"><ele>80.33333333333333</ele><time>2026-04-25T13:38:58.129Z</time></trkpt><trkpt lat="43.2508983" lon="10.708645"><ele>79.66666666666666</ele><time>2026-04-25T13:38:59.127Z</time></trkpt><trkpt lat="43.2510683" lon="10.70861"><ele>79.0</ele><time>2026-04-25T13:39:00.129Z</time></trkpt><trkpt lat="43.2512417" lon="10.708575"><ele>78.66666666666666</ele><time>2026-04-25T13:39:01.125Z</time></trkpt><trkpt lat="43.2514167" lon="10.708535"><ele>78.33333333333333</ele><time>2026-04-25T13:39:02.122Z</time></trkpt><trkpt lat="43.2515917" lon="10.7084933"><ele>78.0</ele><time>2026-04-25T13:39:03.12Z</time></trkpt><trkpt lat="43.2517683" lon="10.7084517"><ele>78.0</ele><time>2026-04-25T13:39:04.127Z</time></trkpt><trkpt lat="43.25195" lon="10.70841"><ele>78.0</ele><time>2026-04-25T13:39:05.121Z</time></trkpt><trkpt lat="43.2521367" lon="10.7083717"><ele>78.0</ele><time>2026-04-25T13:39:06.123Z</time></trkpt><trkpt lat="43.2523267" lon="10.7083317"><ele>78.0</ele><time>2026-04-25T13:39:07.125Z</time></trkpt><trkpt lat="43.252515" lon="10.70829"><ele>78.0</ele><time>2026-04-25T13:39:08.118Z</time></trkpt><trkpt lat="43.252705" lon="10.7082483"><ele>78.0</ele><time>2026-04-25T13:39:09.124Z</time></trkpt><trkpt lat="43.2528967" lon="10.7082083"><ele>78.0</ele><time>2026-04-25T13:39:10.13Z</time></trkpt><trkpt lat="43.2530883" lon="10.708175"><ele>78.0</ele><time>2026-04-25T13:39:11.135Z</time></trkpt><trkpt lat="43.2532783" lon="10.70815"><ele>78.0</ele><time>2026-04-25T13:39:12.128Z</time></trkpt><trkpt lat="43.2534683" lon="10.70814"><ele>78.33333333333333</ele><time>2026-04-25T13:39:13.137Z</time></trkpt><trkpt lat="43.253655" lon="10.70815"><ele>78.66666666666666</ele><time>2026-04-25T13:39:14.13Z</time></trkpt><trkpt lat="43.2538417" lon="10.7081733"><ele>79.0</ele><time>2026-04-25T13:39:15.127Z</time></trkpt><trkpt lat="43.25403" lon="10.70822"><ele>79.0</ele><time>2026-04-25T13:39:16.121Z</time></trkpt><trkpt lat="43.25422" lon="10.7082883"><ele>79.0</ele><time>2026-04-25T13:39:17.118Z</time></trkpt><trkpt lat="43.254415" lon="10.708385"><ele>79.0</ele><time>2026-04-25T13:39:18.135Z</time></trkpt><trkpt lat="43.2546217" lon="10.708505"><ele>82.0</ele><time>2026-04-25T13:39:19.125Z</time></trkpt><trkpt lat="43.2548367" lon="10.7086367"><ele>85.0</ele><time>2026-04-25T13:39:20.13Z</time></trkpt><trkpt lat="43.25506" lon="10.7087767"><ele>85.0</ele><time>2026-04-25T13:39:21.136Z</time></trkpt><trkpt lat="43.2552933" lon="10.7089217"><ele>85.0</ele><time>2026-04-25T13:39:22.132Z</time></trkpt><trkpt lat="43.2555333" lon="10.7090683"><ele>81.5</ele><time>2026-04-25T13:39:23.136Z</time></trkpt><trkpt lat="43.2557667" lon="10.7092117"><ele>78.0</ele><time>2026-04-25T13:39:24.138Z</time></trkpt><trkpt lat="43.2559867" lon="10.7093467"><ele>78.66666666666667</ele><time>2026-04-25T13:39:25.126Z</time></trkpt><trkpt lat="43.2561883" lon="10.70947"><ele>79.33333333333334</ele><time>2026-04-25T13:39:26.125Z</time></trkpt><trkpt lat="43.25638" lon="10.70959"><ele>80.0</ele><time>2026-04-25T13:39:27.134Z</time></trkpt><trkpt lat="43.256565" lon="10.7097033"><ele>78.66666666666667</ele><time>2026-04-25T13:39:28.128Z</time></trkpt><trkpt lat="43.2567467" lon="10.7098167"><ele>77.33333333333333</ele><time>2026-04-25T13:39:29.131Z</time></trkpt><trkpt lat="43.2569267" lon="10.70993"><ele>76.0</ele><time>2026-04-25T13:39:30.123Z</time></trkpt><trkpt lat="43.2570983" lon="10.71004"><ele>76.0</ele><time>2026-04-25T13:39:31.124Z</time></trkpt><trkpt lat="43.25726" lon="10.710145"><ele>76.0</ele><time>2026-04-25T13:39:32.123Z</time></trkpt><trkpt lat="43.25741" lon="10.7102367"><ele>76.0</ele><time>2026-04-25T13:39:33.135Z</time></trkpt><trkpt lat="43.25755" lon="10.7103167"><ele>76.0</ele><time>2026-04-25T13:39:34.131Z</time></trkpt><trkpt lat="43.25769" lon="10.71039"><ele>76.0</ele><time>2026-04-25T13:39:35.138Z</time></trkpt><trkpt lat="43.2578317" lon="10.7104517"><ele>76.0</ele><time>2026-04-25T13:39:36.132Z</time></trkpt><trkpt lat="43.2579767" lon="10.7104967"><ele>76.0</ele><time>2026-04-25T13:39:37.122Z</time></trkpt><trkpt lat="43.25812" lon="10.7105283"><ele>76.0</ele><time>2026-04-25T13:39:38.133Z</time></trkpt><trkpt lat="43.2582633" lon="10.7105433"><ele>76.0</ele><time>2026-04-25T13:39:39.138Z</time></trkpt><trkpt lat="43.2584017" lon="10.710545"><ele>76.0</ele><time>2026-04-25T13:39:40.134Z</time></trkpt><trkpt lat="43.25853" lon="10.71054"><ele>76.0</ele><time>2026-04-25T13:39:41.13Z</time></trkpt><trkpt lat="43.2586567" lon="10.71053"><ele>76.0</ele><time>2026-04-25T13:39:42.123Z</time></trkpt><trkpt lat="43.2587883" lon="10.71049"><ele>76.0</ele><time>2026-04-25T13:39:43.134Z</time></trkpt><trkpt lat="43.2589283" lon="10.7104233"><ele>76.0</ele><time>2026-04-25T13:39:44.128Z</time></trkpt><trkpt lat="43.2590767" lon="10.7103483"><ele>76.0</ele><time>2026-04-25T13:39:45.125Z</time></trkpt><trkpt lat="43.2592367" lon="10.7102683"><ele>75.33333333333333</ele><time>2026-04-25T13:39:46.139Z</time></trkpt><trkpt lat="43.2594017" lon="10.7101817"><ele>74.66666666666667</ele><time>2026-04-25T13:39:47.122Z</time></trkpt><trkpt lat="43.2595733" lon="10.7100917"><ele>74.0</ele><time>2026-04-25T13:39:48.12Z</time></trkpt><trkpt lat="43.2597483" lon="10.7099967"><ele>75.0</ele><time>2026-04-25T13:39:49.127Z</time></trkpt><trkpt lat="43.2599233" lon="10.7098967"><ele>76.0</ele><time>2026-04-25T13:39:50.114Z</time></trkpt><trkpt lat="43.2602617" lon="10.709705"><ele>76.0</ele><time>2026-04-25T13:39:52.122Z</time></trkpt><trkpt lat="43.260425" lon="10.7096133"><ele>76.0</ele><time>2026-04-25T13:39:53.138Z</time></trkpt><trkpt lat="43.2605883" lon="10.7095233"><ele>76.0</ele><time>2026-04-25T13:39:54.129Z</time></trkpt><trkpt lat="43.2607517" lon="10.7094333"><ele>74.66666666666666</ele><time>2026-04-25T13:39:55.125Z</time></trkpt><trkpt lat="43.2609133" lon="10.7093417"><ele>73.33333333333333</ele><time>2026-04-25T13:39:56.128Z</time></trkpt><trkpt lat="43.261075" lon="10.709245"><ele>72.0</ele><time>2026-04-25T13:39:57.129Z</time></trkpt><trkpt lat="43.261235" lon="10.70914"><ele>72.0</ele><time>2026-04-25T13:39:58.132Z</time></trkpt><trkpt lat="43.2613917" lon="10.70902"><ele>72.0</ele><time>2026-04-25T13:39:59.134Z</time></trkpt><trkpt lat="43.26155" lon="10.70889"><ele>72.0</ele><time>2026-04-25T13:40:00.127Z</time></trkpt><trkpt lat="43.2617067" lon="10.7087483"><ele>71.0</ele><time>2026-04-25T13:40:01.136Z</time></trkpt><trkpt lat="43.2618633" lon="10.7085983"><ele>70.0</ele><time>2026-04-25T13:40:02.127Z</time></trkpt><trkpt lat="43.2620233" lon="10.7084467"><ele>69.0</ele><time>2026-04-25T13:40:03.124Z</time></trkpt><trkpt lat="43.2621883" lon="10.7082917"><ele>69.0</ele><time>2026-04-25T13:40:04.134Z</time></trkpt><trkpt lat="43.2623517" lon="10.708135"><ele>69.0</ele><time>2026-04-25T13:40:05.133Z</time></trkpt><trkpt lat="43.2625167" lon="10.7079717"><ele>69.0</ele><time>2026-04-25T13:40:06.12Z</time></trkpt><trkpt lat="43.2626833" lon="10.707805"><ele>68.66666666666667</ele><time>2026-04-25T13:40:07.121Z</time></trkpt><trkpt lat="43.26285" lon="10.7076383"><ele>68.33333333333334</ele><time>2026-04-25T13:40:08.12Z</time></trkpt><trkpt lat="43.2630117" lon="10.7074817"><ele>68.0</ele><time>2026-04-25T13:40:09.12Z</time></trkpt><trkpt lat="43.2631717" lon="10.70733"><ele>68.66666666666667</ele><time>2026-04-25T13:40:10.123Z</time></trkpt><trkpt lat="43.2633283" lon="10.7071817"><ele>69.33333333333333</ele><time>2026-04-25T13:40:11.135Z</time></trkpt><trkpt lat="43.2634867" lon="10.707035"><ele>70.0</ele><time>2026-04-25T13:40:12.133Z</time></trkpt><trkpt lat="43.263655" lon="10.7068967"><ele>70.33333333333333</ele><time>2026-04-25T13:40:13.138Z</time></trkpt><trkpt lat="43.2638283" lon="10.7067767"><ele>70.66666666666667</ele><time>2026-04-25T13:40:14.13Z</time></trkpt><trkpt lat="43.2640067" lon="10.70668"><ele>71.0</ele><time>2026-04-25T13:40:15.134Z</time></trkpt><trkpt lat="43.2641933" lon="10.7066117"><ele>70.33333333333334</ele><time>2026-04-25T13:40:16.133Z</time></trkpt><trkpt lat="43.2643867" lon="10.7065683"><ele>69.66666666666667</ele><time>2026-04-25T13:40:17.132Z</time></trkpt><trkpt lat="43.264585" lon="10.70655"><ele>69.0</ele><time>2026-04-25T13:40:18.123Z</time></trkpt><trkpt lat="43.26479" lon="10.70656"><ele>68.66666666666667</ele><time>2026-04-25T13:40:19.127Z</time></trkpt><trkpt lat="43.2650033" lon="10.7065833"><ele>68.33333333333334</ele><time>2026-04-25T13:40:20.133Z</time></trkpt><trkpt lat="43.2652217" lon="10.7066133"><ele>68.0</ele><time>2026-04-25T13:40:21.129Z</time></trkpt><trkpt lat="43.2656717" lon="10.7066817"><ele>68.66666666666667</ele><time>2026-04-25T13:40:23.123Z</time></trkpt><trkpt lat="43.2658933" lon="10.706715"><ele>69.33333333333333</ele><time>2026-04-25T13:40:24.127Z</time></trkpt><trkpt lat="43.2661083" lon="10.7067467"><ele>70.0</ele><time>2026-04-25T13:40:25.124Z</time></trkpt><trkpt lat="43.2663167" lon="10.7067767"><ele>69.33333333333333</ele><time>2026-04-25T13:40:26.128Z</time></trkpt><trkpt lat="43.2665133" lon="10.706805"><ele>68.66666666666667</ele><time>2026-04-25T13:40:27.129Z</time></trkpt><trkpt lat="43.2667033" lon="10.7068317"><ele>68.0</ele><time>2026-04-25T13:40:28.127Z</time></trkpt><trkpt lat="43.2668833" lon="10.7068567"><ele>68.0</ele><time>2026-04-25T13:40:29.129Z</time></trkpt><trkpt lat="43.267055" lon="10.7068817"><ele>68.0</ele><time>2026-04-25T13:40:30.119Z</time></trkpt><trkpt lat="43.26722" lon="10.7069017"><ele>68.0</ele><time>2026-04-25T13:40:31.121Z</time></trkpt><trkpt lat="43.2673817" lon="10.706915"><ele>67.33333333333334</ele><time>2026-04-25T13:40:32.122Z</time></trkpt><trkpt lat="43.267545" lon="10.7069083"><ele>66.66666666666667</ele><time>2026-04-25T13:40:33.128Z</time></trkpt><trkpt lat="43.26771" lon="10.70688"><ele>66.0</ele><time>2026-04-25T13:40:34.124Z</time></trkpt><trkpt lat="43.2678783" lon="10.706835"><ele>66.0</ele><time>2026-04-25T13:40:35.124Z</time></trkpt><trkpt lat="43.26805" lon="10.70678"><ele>66.0</ele><time>2026-04-25T13:40:36.126Z</time></trkpt><trkpt lat="43.2682233" lon="10.7067183"><ele>66.0</ele><time>2026-04-25T13:40:37.13Z</time></trkpt><trkpt lat="43.2683983" lon="10.7066533"><ele>66.0</ele><time>2026-04-25T13:40:38.129Z</time></trkpt><trkpt lat="43.2685767" lon="10.70659"><ele>66.0</ele><time>2026-04-25T13:40:39.135Z</time></trkpt><trkpt lat="43.2687583" lon="10.7065233"><ele>66.0</ele><time>2026-04-25T13:40:40.128Z</time></trkpt><trkpt lat="43.26894" lon="10.7064583"><ele>65.0</ele><time>2026-04-25T13:40:41.125Z</time></trkpt><trkpt lat="43.269125" lon="10.7063917"><ele>64.0</ele><time>2026-04-25T13:40:42.128Z</time></trkpt><trkpt lat="43.2693133" lon="10.706325"><ele>63.0</ele><time>2026-04-25T13:40:43.135Z</time></trkpt><trkpt lat="43.2695017" lon="10.70626"><ele>63.0</ele><time>2026-04-25T13:40:44.129Z</time></trkpt><trkpt lat="43.2696917" lon="10.7061917"><ele>63.0</ele><time>2026-04-25T13:40:45.123Z</time></trkpt><trkpt lat="43.2698817" lon="10.706125"><ele>63.0</ele><time>2026-04-25T13:40:46.135Z</time></trkpt><trkpt lat="43.2700733" lon="10.7060567"><ele>63.0</ele><time>2026-04-25T13:40:47.143Z</time></trkpt><trkpt lat="43.2702617" lon="10.7059867"><ele>63.0</ele><time>2026-04-25T13:40:48.118Z</time></trkpt><trkpt lat="43.2704533" lon="10.7059167"><ele>63.0</ele><time>2026-04-25T13:40:49.119Z</time></trkpt><trkpt lat="43.2706417" lon="10.7058483"><ele>63.0</ele><time>2026-04-25T13:40:50.125Z</time></trkpt><trkpt lat="43.27083" lon="10.7057817"><ele>63.0</ele><time>2026-04-25T13:40:51.136Z</time></trkpt><trkpt lat="43.2710167" lon="10.7057133"><ele>63.0</ele><time>2026-04-25T13:40:52.125Z</time></trkpt><trkpt lat="43.271395" lon="10.7055767"><ele>63.0</ele><time>2026-04-25T13:40:54.135Z</time></trkpt><trkpt lat="43.271585" lon="10.70551"><ele>63.0</ele><time>2026-04-25T13:40:55.135Z</time></trkpt><trkpt lat="43.271775" lon="10.705445"><ele>63.0</ele><time>2026-04-25T13:40:56.127Z</time></trkpt><trkpt lat="43.271965" lon="10.70538"><ele>63.0</ele><time>2026-04-25T13:40:57.137Z</time></trkpt><trkpt lat="43.272155" lon="10.7053133"><ele>63.0</ele><time>2026-04-25T13:40:58.129Z</time></trkpt><trkpt lat="43.2723433" lon="10.7052433"><ele>63.0</ele><time>2026-04-25T13:40:59.13Z</time></trkpt><trkpt lat="43.27253" lon="10.7051717"><ele>63.33333333333333</ele><time>2026-04-25T13:41:00.126Z</time></trkpt><trkpt lat="43.272715" lon="10.7051017"><ele>63.666666666666664</ele><time>2026-04-25T13:41:01.127Z</time></trkpt><trkpt lat="43.2728967" lon="10.705035"><ele>64.0</ele><time>2026-04-25T13:41:02.13Z</time></trkpt><trkpt lat="43.27308" lon="10.7049717"><ele>65.33333333333333</ele><time>2026-04-25T13:41:03.124Z</time></trkpt><trkpt lat="43.27326" lon="10.704915"><ele>66.66666666666667</ele><time>2026-04-25T13:41:04.13Z</time></trkpt><trkpt lat="43.27344" lon="10.7048683"><ele>68.0</ele><time>2026-04-25T13:41:05.125Z</time></trkpt><trkpt lat="43.2736183" lon="10.7048367"><ele>68.0</ele><time>2026-04-25T13:41:06.137Z</time></trkpt><trkpt lat="43.2738" lon="10.7048233"><ele>68.0</ele><time>2026-04-25T13:41:07.132Z</time></trkpt><trkpt lat="43.2739933" lon="10.7048317"><ele>68.0</ele><time>2026-04-25T13:41:08.119Z</time></trkpt><trkpt lat="43.2742033" lon="10.70486"><ele>67.5</ele><time>2026-04-25T13:41:09.115Z</time></trkpt><trkpt lat="43.2744317" lon="10.7049067"><ele>67.0</ele><time>2026-04-25T13:41:10.13Z</time></trkpt><trkpt lat="43.2746667" lon="10.7049683"><ele>64.5</ele><time>2026-04-25T13:41:11.119Z</time></trkpt><trkpt lat="43.274905" lon="10.7050333"><ele>62.0</ele><time>2026-04-25T13:41:12.121Z</time></trkpt><trkpt lat="43.275145" lon="10.7051033"><ele>62.0</ele><time>2026-04-25T13:41:13.128Z</time></trkpt><trkpt lat="43.27539" lon="10.705175"><ele>62.0</ele><time>2026-04-25T13:41:14.124Z</time></trkpt><trkpt lat="43.2756383" lon="10.7052433"><ele>70.0</ele><time>2026-04-25T13:41:15.13Z</time></trkpt><trkpt lat="43.27589" lon="10.7053083"><ele>78.0</ele><time>2026-04-25T13:41:16.126Z</time></trkpt><trkpt lat="43.2761417" lon="10.705375"><ele>78.0</ele><time>2026-04-25T13:41:17.133Z</time></trkpt><trkpt lat="43.276395" lon="10.7054433"><ele>78.0</ele><time>2026-04-25T13:41:18.135Z</time></trkpt><trkpt lat="43.27665" lon="10.7055117"><ele>71.5</ele><time>2026-04-25T13:41:19.138Z</time></trkpt><trkpt lat="43.2769017" lon="10.7055833"><ele>65.0</ele><time>2026-04-25T13:41:20.123Z</time></trkpt><trkpt lat="43.2771383" lon="10.705655"><ele>64.66666666666667</ele><time>2026-04-25T13:41:21.125Z</time></trkpt><trkpt lat="43.2773567" lon="10.7057167"><ele>64.33333333333333</ele><time>2026-04-25T13:41:22.121Z</time></trkpt><trkpt lat="43.2775633" lon="10.7057733"><ele>64.0</ele><time>2026-04-25T13:41:23.122Z</time></trkpt><trkpt lat="43.2777583" lon="10.7058217"><ele>64.0</ele><time>2026-04-25T13:41:24.126Z</time></trkpt><trkpt lat="43.2779533" lon="10.7058583"><ele>64.0</ele><time>2026-04-25T13:41:25.127Z</time></trkpt><trkpt lat="43.2781467" lon="10.705875"><ele>64.0</ele><time>2026-04-25T13:41:26.124Z</time></trkpt><trkpt lat="43.2783417" lon="10.7058733"><ele>64.0</ele><time>2026-04-25T13:41:27.127Z</time></trkpt><trkpt lat="43.2785367" lon="10.7058433"><ele>64.0</ele><time>2026-04-25T13:41:28.133Z</time></trkpt><trkpt lat="43.278735" lon="10.7057717"><ele>64.0</ele><time>2026-04-25T13:41:29.13Z</time></trkpt><trkpt lat="43.27895" lon="10.7056667"><ele>67.0</ele><time>2026-04-25T13:41:30.138Z</time></trkpt><trkpt lat="43.2791817" lon="10.70554"><ele>70.0</ele><time>2026-04-25T13:41:31.138Z</time></trkpt><trkpt lat="43.2794183" lon="10.705405"><ele>70.0</ele><time>2026-04-25T13:41:32.129Z</time></trkpt><trkpt lat="43.2796533" lon="10.70527"><ele>70.0</ele><time>2026-04-25T13:41:33.136Z</time></trkpt><trkpt lat="43.2798767" lon="10.70515"><ele>69.0</ele><time>2026-04-25T13:41:34.121Z</time></trkpt><trkpt lat="43.2800883" lon="10.7050367"><ele>68.0</ele><time>2026-04-25T13:41:35.125Z</time></trkpt><trkpt lat="43.28029" lon="10.7049233"><ele>67.0</ele><time>2026-04-25T13:41:36.129Z</time></trkpt><trkpt lat="43.280485" lon="10.704805"><ele>67.33333333333333</ele><time>2026-04-25T13:41:37.136Z</time></trkpt><trkpt lat="43.2806717" lon="10.7046683"><ele>67.66666666666667</ele><time>2026-04-25T13:41:38.127Z</time></trkpt><trkpt lat="43.2808567" lon="10.7045083"><ele>68.0</ele><time>2026-04-25T13:41:39.137Z</time></trkpt><trkpt lat="43.2810367" lon="10.704325"><ele>64.5</ele><time>2026-04-25T13:41:40.134Z</time></trkpt><trkpt lat="43.281215" lon="10.70412"><ele>61.0</ele><time>2026-04-25T13:41:41.136Z</time></trkpt><trkpt lat="43.2813917" lon="10.703905"><ele>61.5</ele><time>2026-04-25T13:41:42.129Z</time></trkpt><trkpt lat="43.2815633" lon="10.70369"><ele>62.0</ele><time>2026-04-25T13:41:43.132Z</time></trkpt><trkpt lat="43.2817317" lon="10.7034733"><ele>61.0</ele><time>2026-04-25T13:41:44.124Z</time></trkpt><trkpt lat="43.281895" lon="10.7032617"><ele>60.0</ele><time>2026-04-25T13:41:45.127Z</time></trkpt><trkpt lat="43.2820533" lon="10.7030567"><ele>59.0</ele><time>2026-04-25T13:41:46.123Z</time></trkpt><trkpt lat="43.2822017" lon="10.70286"><ele>60.66666666666667</ele><time>2026-04-25T13:41:47.128Z</time></trkpt><trkpt lat="43.282345" lon="10.7026733"><ele>62.33333333333333</ele><time>2026-04-25T13:41:48.138Z</time></trkpt><trkpt lat="43.2824867" lon="10.7024967"><ele>64.0</ele><time>2026-04-25T13:41:49.136Z</time></trkpt><trkpt lat="43.2826283" lon="10.702325"><ele>64.0</ele><time>2026-04-25T13:41:50.127Z</time></trkpt><trkpt lat="43.2827717" lon="10.702155"><ele>64.0</ele><time>2026-04-25T13:41:51.131Z</time></trkpt><trkpt lat="43.2829233" lon="10.7019983"><ele>64.0</ele><time>2026-04-25T13:41:52.127Z</time></trkpt><trkpt lat="43.283085" lon="10.7018567"><ele>61.5</ele><time>2026-04-25T13:41:53.124Z</time></trkpt><trkpt lat="43.28326" lon="10.7017267"><ele>59.0</ele><time>2026-04-25T13:41:54.135Z</time></trkpt><trkpt lat="43.2836233" lon="10.7014717"><ele>59.0</ele><time>2026-04-25T13:41:56.133Z</time></trkpt><trkpt lat="43.2838083" lon="10.7013433"><ele>59.0</ele><time>2026-04-25T13:41:57.129Z</time></trkpt><trkpt lat="43.2839933" lon="10.7012133"><ele>59.0</ele><time>2026-04-25T13:41:58.128Z</time></trkpt><trkpt lat="43.2841817" lon="10.7010867"><ele>58.0</ele><time>2026-04-25T13:41:59.133Z</time></trkpt><trkpt lat="43.2843717" lon="10.7009633"><ele>57.0</ele><time>2026-04-25T13:42:00.121Z</time></trkpt><trkpt lat="43.28456" lon="10.7008417"><ele>56.0</ele><time>2026-04-25T13:42:01.124Z</time></trkpt><trkpt lat="43.2847467" lon="10.70072"><ele>56.66666666666667</ele><time>2026-04-25T13:42:02.132Z</time></trkpt><trkpt lat="43.2849283" lon="10.7005967"><ele>57.33333333333333</ele><time>2026-04-25T13:42:03.124Z</time></trkpt><trkpt lat="43.285105" lon="10.700475"><ele>58.0</ele><time>2026-04-25T13:42:04.13Z</time></trkpt><trkpt lat="43.2852783" lon="10.7003583"><ele>58.0</ele><time>2026-04-25T13:42:05.127Z</time></trkpt><trkpt lat="43.2854467" lon="10.700245"><ele>58.0</ele><time>2026-04-25T13:42:06.116Z</time></trkpt><trkpt lat="43.285615" lon="10.7001317"><ele>58.0</ele><time>2026-04-25T13:42:07.13Z</time></trkpt><trkpt lat="43.2857833" lon="10.70002"><ele>58.0</ele><time>2026-04-25T13:42:08.118Z</time></trkpt><trkpt lat="43.2859533" lon="10.6999083"><ele>58.0</ele><time>2026-04-25T13:42:09.127Z</time></trkpt><trkpt lat="43.2861233" lon="10.699795"><ele>58.0</ele><time>2026-04-25T13:42:10.124Z</time></trkpt><trkpt lat="43.2862933" lon="10.6996833"><ele>57.33333333333333</ele><time>2026-04-25T13:42:11.126Z</time></trkpt><trkpt lat="43.2864683" lon="10.69957"><ele>56.66666666666667</ele><time>2026-04-25T13:42:12.12Z</time></trkpt><trkpt lat="43.286645" lon="10.69946"><ele>56.0</ele><time>2026-04-25T13:42:13.125Z</time></trkpt><trkpt lat="43.2868233" lon="10.699355"><ele>56.0</ele><time>2026-04-25T13:42:14.129Z</time></trkpt><trkpt lat="43.287005" lon="10.6992617"><ele>56.0</ele><time>2026-04-25T13:42:15.118Z</time></trkpt><trkpt lat="43.2871933" lon="10.699185"><ele>56.0</ele><time>2026-04-25T13:42:16.121Z</time></trkpt><trkpt lat="43.28739" lon="10.6991233"><ele>56.333333333333336</ele><time>2026-04-25T13:42:17.122Z</time></trkpt><trkpt lat="43.2875933" lon="10.6990833"><ele>56.66666666666667</ele><time>2026-04-25T13:42:18.128Z</time></trkpt><trkpt lat="43.2878017" lon="10.69906"><ele>57.0</ele><time>2026-04-25T13:42:19.13Z</time></trkpt><trkpt lat="43.2880133" lon="10.699055"><ele>57.0</ele><time>2026-04-25T13:42:20.134Z</time></trkpt><trkpt lat="43.2882283" lon="10.6990617"><ele>57.0</ele><time>2026-04-25T13:42:21.132Z</time></trkpt><trkpt lat="43.2884467" lon="10.69908"><ele>57.0</ele><time>2026-04-25T13:42:22.125Z</time></trkpt><trkpt lat="43.28867" lon="10.6991"><ele>57.0</ele><time>2026-04-25T13:42:23.124Z</time></trkpt><trkpt lat="43.2888933" lon="10.6991183"><ele>57.0</ele><time>2026-04-25T13:42:24.127Z</time></trkpt><trkpt lat="43.289115" lon="10.6991367"><ele>57.0</ele><time>2026-04-25T13:42:25.13Z</time></trkpt><trkpt lat="43.2895533" lon="10.6991667"><ele>55.66666666666667</ele><time>2026-04-25T13:42:27.122Z</time></trkpt><trkpt lat="43.2897717" lon="10.69918"><ele>54.333333333333336</ele><time>2026-04-25T13:42:28.128Z</time></trkpt><trkpt lat="43.2899817" lon="10.699195"><ele>53.0</ele><time>2026-04-25T13:42:29.12Z</time></trkpt><trkpt lat="43.29018" lon="10.69921"><ele>53.0</ele><time>2026-04-25T13:42:30.135Z</time></trkpt><trkpt lat="43.2903717" lon="10.699225"><ele>53.0</ele><time>2026-04-25T13:42:31.134Z</time></trkpt><trkpt lat="43.2905583" lon="10.6992383"><ele>53.0</ele><time>2026-04-25T13:42:32.116Z</time></trkpt><trkpt lat="43.2907467" lon="10.6992517"><ele>52.0</ele><time>2026-04-25T13:42:33.123Z</time></trkpt><trkpt lat="43.2909333" lon="10.6992633"><ele>51.0</ele><time>2026-04-25T13:42:34.128Z</time></trkpt><trkpt lat="43.2911133" lon="10.6992733"><ele>50.0</ele><time>2026-04-25T13:42:35.123Z</time></trkpt><trkpt lat="43.2912933" lon="10.6992833"><ele>50.66666666666667</ele><time>2026-04-25T13:42:36.117Z</time></trkpt><trkpt lat="43.2914717" lon="10.6992833"><ele>51.33333333333333</ele><time>2026-04-25T13:42:37.12Z</time></trkpt><trkpt lat="43.291655" lon="10.69927"><ele>52.0</ele><time>2026-04-25T13:42:38.119Z</time></trkpt><trkpt lat="43.2918433" lon="10.6992333"><ele>52.0</ele><time>2026-04-25T13:42:39.129Z</time></trkpt><trkpt lat="43.2920383" lon="10.69917"><ele>52.0</ele><time>2026-04-25T13:42:40.114Z</time></trkpt><trkpt lat="43.29224" lon="10.69909"><ele>52.0</ele><time>2026-04-25T13:42:41.126Z</time></trkpt><trkpt lat="43.2924417" lon="10.6989967"><ele>54.0</ele><time>2026-04-25T13:42:42.131Z</time></trkpt><trkpt lat="43.2926433" lon="10.6988983"><ele>56.0</ele><time>2026-04-25T13:42:43.124Z</time></trkpt><trkpt lat="43.2928433" lon="10.6988067"><ele>58.0</ele><time>2026-04-25T13:42:44.133Z</time></trkpt><trkpt lat="43.29304" lon="10.69872"><ele>57.666666666666664</ele><time>2026-04-25T13:42:45.136Z</time></trkpt><trkpt lat="43.2932383" lon="10.6986317"><ele>57.33333333333333</ele><time>2026-04-25T13:42:46.127Z</time></trkpt><trkpt lat="43.293435" lon="10.698545"><ele>57.0</ele><time>2026-04-25T13:42:47.129Z</time></trkpt><trkpt lat="43.2936283" lon="10.6984517"><ele>55.0</ele><time>2026-04-25T13:42:48.132Z</time></trkpt><trkpt lat="43.2938133" lon="10.6983433"><ele>53.0</ele><time>2026-04-25T13:42:49.131Z</time></trkpt><trkpt lat="43.294" lon="10.6982183"><ele>51.0</ele><time>2026-04-25T13:42:50.125Z</time></trkpt><trkpt lat="43.294185" lon="10.6980733"><ele>51.0</ele><time>2026-04-25T13:42:51.125Z</time></trkpt><trkpt lat="43.2943683" lon="10.69791"><ele>51.0</ele><time>2026-04-25T13:42:52.129Z</time></trkpt><trkpt lat="43.29455" lon="10.69774"><ele>51.0</ele><time>2026-04-25T13:42:53.129Z</time></trkpt><trkpt lat="43.29473" lon="10.6975733"><ele>51.0</ele><time>2026-04-25T13:42:54.126Z</time></trkpt><trkpt lat="43.29491" lon="10.6974117"><ele>51.0</ele><time>2026-04-25T13:42:55.128Z</time></trkpt><trkpt lat="43.2950883" lon="10.6972483"><ele>51.0</ele><time>2026-04-25T13:42:56.126Z</time></trkpt><trkpt lat="43.2952667" lon="10.6970867"><ele>51.0</ele><time>2026-04-25T13:42:57.128Z</time></trkpt><trkpt lat="43.2954433" lon="10.696925"><ele>51.0</ele><time>2026-04-25T13:42:58.12Z</time></trkpt><trkpt lat="43.29562" lon="10.6967633"><ele>51.0</ele><time>2026-04-25T13:42:59.126Z</time></trkpt><trkpt lat="43.2958017" lon="10.6966"><ele>51.33333333333333</ele><time>2026-04-25T13:43:00.124Z</time></trkpt><trkpt lat="43.2959833" lon="10.696435"><ele>51.666666666666664</ele><time>2026-04-25T13:43:01.132Z</time></trkpt><trkpt lat="43.2961667" lon="10.6962667"><ele>52.0</ele><time>2026-04-25T13:43:02.133Z</time></trkpt><trkpt lat="43.2963533" lon="10.6961"><ele>51.0</ele><time>2026-04-25T13:43:03.127Z</time></trkpt><trkpt lat="43.2965433" lon="10.6959317"><ele>50.0</ele><time>2026-04-25T13:43:04.123Z</time></trkpt><trkpt lat="43.2967317" lon="10.69576"><ele>50.0</ele><time>2026-04-25T13:43:05.131Z</time></trkpt><trkpt lat="43.2969233" lon="10.6955867"><ele>50.0</ele><time>2026-04-25T13:43:06.132Z</time></trkpt><trkpt lat="43.297115" lon="10.695415"><ele>50.0</ele><time>2026-04-25T13:43:07.139Z</time></trkpt><trkpt lat="43.2973083" lon="10.6952383"><ele>50.0</ele><time>2026-04-25T13:43:08.134Z</time></trkpt><trkpt lat="43.2975033" lon="10.69506"><ele>50.0</ele><time>2026-04-25T13:43:09.134Z</time></trkpt><trkpt lat="43.2976983" lon="10.69488"><ele>50.0</ele><time>2026-04-25T13:43:10.127Z</time></trkpt><trkpt lat="43.2978933" lon="10.6947"><ele>50.0</ele><time>2026-04-25T13:43:11.131Z</time></trkpt><trkpt lat="43.29809" lon="10.6945233"><ele>50.0</ele><time>2026-04-25T13:43:12.135Z</time></trkpt><trkpt lat="43.298285" lon="10.6943483"><ele>48.0</ele><time>2026-04-25T13:43:13.128Z</time></trkpt><trkpt lat="43.29848" lon="10.694175"><ele>46.0</ele><time>2026-04-25T13:43:14.122Z</time></trkpt><trkpt lat="43.2986733" lon="10.694"><ele>46.0</ele><time>2026-04-25T13:43:15.136Z</time></trkpt><trkpt lat="43.2988633" lon="10.6938267"><ele>46.0</ele><time>2026-04-25T13:43:16.141Z</time></trkpt><trkpt lat="43.2990533" lon="10.6936533"><ele>46.0</ele><time>2026-04-25T13:43:17.132Z</time></trkpt><trkpt lat="43.29924" lon="10.6934817"><ele>46.0</ele><time>2026-04-25T13:43:18.136Z</time></trkpt><trkpt lat="43.299425" lon="10.693315"><ele>46.0</ele><time>2026-04-25T13:43:19.125Z</time></trkpt><trkpt lat="43.2996083" lon="10.6931483"><ele>46.333333333333336</ele><time>2026-04-25T13:43:20.126Z</time></trkpt><trkpt lat="43.2997883" lon="10.6929833"><ele>46.666666666666664</ele><time>2026-04-25T13:43:21.127Z</time></trkpt><trkpt lat="43.2999683" lon="10.6928183"><ele>47.0</ele><time>2026-04-25T13:43:22.129Z</time></trkpt><trkpt lat="43.3001467" lon="10.692655"><ele>47.0</ele><time>2026-04-25T13:43:23.127Z</time></trkpt><trkpt lat="43.3003183" lon="10.6924917"><ele>47.0</ele><time>2026-04-25T13:43:24.128Z</time></trkpt><trkpt lat="43.3004867" lon="10.6923217"><ele>47.0</ele><time>2026-04-25T13:43:25.123Z</time></trkpt><trkpt lat="43.3006517" lon="10.6921417"><ele>47.666666666666664</ele><time>2026-04-25T13:43:26.128Z</time></trkpt><trkpt lat="43.30081" lon="10.6919483"><ele>48.33333333333333</ele><time>2026-04-25T13:43:27.119Z</time></trkpt><trkpt lat="43.3009633" lon="10.691735"><ele>49.0</ele><time>2026-04-25T13:43:28.125Z</time></trkpt><trkpt lat="43.3011083" lon="10.6915067"><ele>49.0</ele><time>2026-04-25T13:43:29.128Z</time></trkpt><trkpt lat="43.3012517" lon="10.6912667"><ele>49.0</ele><time>2026-04-25T13:43:30.125Z</time></trkpt><trkpt lat="43.3013967" lon="10.6910233"><ele>48.5</ele><time>2026-04-25T13:43:31.129Z</time></trkpt><trkpt lat="43.301545" lon="10.6907783"><ele>48.0</ele><time>2026-04-25T13:43:32.12Z</time></trkpt><trkpt lat="43.3016933" lon="10.6905333"><ele>48.0</ele><time>2026-04-25T13:43:33.116Z</time></trkpt><trkpt lat="43.3018433" lon="10.6902883"><ele>48.0</ele><time>2026-04-25T13:43:34.129Z</time></trkpt><trkpt lat="43.30199" lon="10.6900567"><ele>47.333333333333336</ele><time>2026-04-25T13:43:35.135Z</time></trkpt><trkpt lat="43.3021333" lon="10.6898333"><ele>46.66666666666667</ele><time>2026-04-25T13:43:36.13Z</time></trkpt><trkpt lat="43.3022783" lon="10.6896167"><ele>46.0</ele><time>2026-04-25T13:43:37.121Z</time></trkpt><trkpt lat="43.30243" lon="10.6894017"><ele>46.0</ele><time>2026-04-25T13:43:38.133Z</time></trkpt><trkpt lat="43.3025917" lon="10.6891933"><ele>46.0</ele><time>2026-04-25T13:43:39.118Z</time></trkpt><trkpt lat="43.302765" lon="10.68899"><ele>46.0</ele><time>2026-04-25T13:43:40.128Z</time></trkpt><trkpt lat="43.302945" lon="10.68879"><ele>46.0</ele><time>2026-04-25T13:43:41.122Z</time></trkpt><trkpt lat="43.3031283" lon="10.68859"><ele>46.0</ele><time>2026-04-25T13:43:42.121Z</time></trkpt><trkpt lat="43.303315" lon="10.68839"><ele>46.0</ele><time>2026-04-25T13:43:43.126Z</time></trkpt><trkpt lat="43.303505" lon="10.68819"><ele>46.0</ele><time>2026-04-25T13:43:44.128Z</time></trkpt><trkpt lat="43.3036967" lon="10.68799"><ele>46.0</ele><time>2026-04-25T13:43:45.131Z</time></trkpt><trkpt lat="43.3038883" lon="10.6877867"><ele>47.0</ele><time>2026-04-25T13:43:46.136Z</time></trkpt><trkpt lat="43.30408" lon="10.68758"><ele>48.0</ele><time>2026-04-25T13:43:47.122Z</time></trkpt><trkpt lat="43.30427" lon="10.6873717"><ele>48.0</ele><time>2026-04-25T13:43:48.124Z</time></trkpt><trkpt lat="43.3044633" lon="10.687165"><ele>48.0</ele><time>2026-04-25T13:43:49.132Z</time></trkpt><trkpt lat="43.3046567" lon="10.6869617"><ele>47.0</ele><time>2026-04-25T13:43:50.126Z</time></trkpt><trkpt lat="43.3048517" lon="10.6867617"><ele>46.0</ele><time>2026-04-25T13:43:51.134Z</time></trkpt><trkpt lat="43.30504" lon="10.6865667"><ele>46.0</ele><time>2026-04-25T13:43:52.132Z</time></trkpt><trkpt lat="43.3052133" lon="10.6863817"><ele>46.0</ele><time>2026-04-25T13:43:53.128Z</time></trkpt><trkpt lat="43.305375" lon="10.6862033"><ele>46.0</ele><time>2026-04-25T13:43:54.121Z</time></trkpt><trkpt lat="43.3055233" lon="10.6860283"><ele>45.66666666666667</ele><time>2026-04-25T13:43:55.128Z</time></trkpt><trkpt lat="43.3056567" lon="10.6858533"><ele>45.333333333333336</ele><time>2026-04-25T13:43:56.119Z</time></trkpt><trkpt lat="43.305785" lon="10.6856633"><ele>45.0</ele><time>2026-04-25T13:43:57.127Z</time></trkpt><trkpt lat="43.305915" lon="10.6854467"><ele>44.0</ele><time>2026-04-25T13:43:58.123Z</time></trkpt><trkpt lat="43.30605" lon="10.6852017"><ele>43.0</ele><time>2026-04-25T13:43:59.131Z</time></trkpt><trkpt lat="43.3061933" lon="10.6849383"><ele>43.0</ele><time>2026-04-25T13:44:00.125Z</time></trkpt><trkpt lat="43.306345" lon="10.6846617"><ele>43.0</ele><time>2026-04-25T13:44:01.133Z</time></trkpt><trkpt lat="43.3065" lon="10.6843767"><ele>43.5</ele><time>2026-04-25T13:44:02.12Z</time></trkpt><trkpt lat="43.30666" lon="10.6840883"><ele>44.0</ele><time>2026-04-25T13:44:03.135Z</time></trkpt><trkpt lat="43.30682" lon="10.6837967"><ele>43.5</ele><time>2026-04-25T13:44:04.13Z</time></trkpt><trkpt lat="43.3069783" lon="10.6835033"><ele>43.0</ele><time>2026-04-25T13:44:05.128Z</time></trkpt><trkpt lat="43.3071367" lon="10.6832133"><ele>46.0</ele><time>2026-04-25T13:44:06.134Z</time></trkpt><trkpt lat="43.3072867" lon="10.6829367"><ele>49.0</ele><time>2026-04-25T13:44:07.129Z</time></trkpt><trkpt lat="43.3074267" lon="10.68268"><ele>49.0</ele><time>2026-04-25T13:44:08.125Z</time></trkpt><trkpt lat="43.3075583" lon="10.6824483"><ele>49.0</ele><time>2026-04-25T13:44:09.126Z</time></trkpt><trkpt lat="43.30768" lon="10.6822383"><ele>49.0</ele><time>2026-04-25T13:44:10.133Z</time></trkpt><trkpt lat="43.307795" lon="10.6820433"><ele>47.0</ele><time>2026-04-25T13:44:11.131Z</time></trkpt><trkpt lat="43.3079033" lon="10.6818583"><ele>45.0</ele><time>2026-04-25T13:44:12.123Z</time></trkpt><trkpt lat="43.308005" lon="10.681675"><ele>43.0</ele><time>2026-04-25T13:44:13.138Z</time></trkpt><trkpt lat="43.308115" lon="10.6814967"><ele>43.0</ele><time>2026-04-25T13:44:14.128Z</time></trkpt><trkpt lat="43.3082317" lon="10.6813183"><ele>43.0</ele><time>2026-04-25T13:44:15.126Z</time></trkpt><trkpt lat="43.3083567" lon="10.68115"><ele>43.0</ele><time>2026-04-25T13:44:16.12Z</time></trkpt><trkpt lat="43.3084917" lon="10.68098"><ele>43.0</ele><time>2026-04-25T13:44:17.128Z</time></trkpt><trkpt lat="43.3086317" lon="10.6808117"><ele>43.0</ele><time>2026-04-25T13:44:18.129Z</time></trkpt><trkpt lat="43.308775" lon="10.68064"><ele>43.0</ele><time>2026-04-25T13:44:19.13Z</time></trkpt><trkpt lat="43.30892" lon="10.680465"><ele>42.66666666666667</ele><time>2026-04-25T13:44:20.128Z</time></trkpt><trkpt lat="43.3090717" lon="10.6802867"><ele>42.333333333333336</ele><time>2026-04-25T13:44:21.126Z</time></trkpt><trkpt lat="43.309225" lon="10.6801067"><ele>42.0</ele><time>2026-04-25T13:44:22.127Z</time></trkpt><trkpt lat="43.3093767" lon="10.679925"><ele>41.333333333333336</ele><time>2026-04-25T13:44:23.127Z</time></trkpt><trkpt lat="43.3095283" lon="10.67974"><ele>40.66666666666667</ele><time>2026-04-25T13:44:24.118Z</time></trkpt><trkpt lat="43.309685" lon="10.6795533"><ele>40.0</ele><time>2026-04-25T13:44:25.13Z</time></trkpt><trkpt lat="43.3098417" lon="10.6793683"><ele>39.66666666666667</ele><time>2026-04-25T13:44:26.119Z</time></trkpt><trkpt lat="43.3099967" lon="10.6791883"><ele>39.333333333333336</ele><time>2026-04-25T13:44:27.125Z</time></trkpt><trkpt lat="43.3101517" lon="10.679005"><ele>39.0</ele><time>2026-04-25T13:44:28.115Z</time></trkpt><trkpt lat="43.3103067" lon="10.6788233"><ele>39.0</ele><time>2026-04-25T13:44:29.129Z</time></trkpt><trkpt lat="43.31046" lon="10.6786417"><ele>39.0</ele><time>2026-04-25T13:44:30.119Z</time></trkpt><trkpt lat="43.3106117" lon="10.6784583"><ele>39.0</ele><time>2026-04-25T13:44:31.128Z</time></trkpt><trkpt lat="43.3107617" lon="10.678275"><ele>39.0</ele><time>2026-04-25T13:44:32.119Z</time></trkpt><trkpt lat="43.3109133" lon="10.6780933"><ele>39.0</ele><time>2026-04-25T13:44:33.119Z</time></trkpt><trkpt lat="43.3110617" lon="10.677915"><ele>39.0</ele><time>2026-04-25T13:44:34.124Z</time></trkpt><trkpt lat="43.3112067" lon="10.677745"><ele>38.666666666666664</ele><time>2026-04-25T13:44:35.127Z</time></trkpt><trkpt lat="43.3113467" lon="10.677585"><ele>38.33333333333333</ele><time>2026-04-25T13:44:36.126Z</time></trkpt><trkpt lat="43.3114817" lon="10.6774283"><ele>38.0</ele><time>2026-04-25T13:44:37.132Z</time></trkpt><trkpt lat="43.3116133" lon="10.6772733"><ele>37.666666666666664</ele><time>2026-04-25T13:44:38.127Z</time></trkpt><trkpt lat="43.3117433" lon="10.6771267"><ele>37.333333333333336</ele><time>2026-04-25T13:44:39.127Z</time></trkpt><trkpt lat="43.311865" lon="10.676985"><ele>37.0</ele><time>2026-04-25T13:44:40.118Z</time></trkpt><trkpt lat="43.3119833" lon="10.6768483"><ele>37.25</ele><time>2026-04-25T13:44:41.139Z</time></trkpt><trkpt lat="43.3120967" lon="10.6767133"><ele>37.5</ele><time>2026-04-25T13:44:42.123Z</time></trkpt><trkpt lat="43.3122083" lon="10.67658"><ele>37.75</ele><time>2026-04-25T13:44:43.123Z</time></trkpt><trkpt lat="43.31232" lon="10.6764483"><ele>38.0</ele><time>2026-04-25T13:44:44.136Z</time></trkpt><trkpt lat="43.3124333" lon="10.676315"><ele>38.0</ele><time>2026-04-25T13:44:45.124Z</time></trkpt><trkpt lat="43.3125467" lon="10.6761833"><ele>38.0</ele><time>2026-04-25T13:44:46.132Z</time></trkpt><trkpt lat="43.3126617" lon="10.6760517"><ele>38.0</ele><time>2026-04-25T13:44:47.132Z</time></trkpt><trkpt lat="43.3127767" lon="10.6759183"><ele>38.0</ele><time>2026-04-25T13:44:48.12Z</time></trkpt><trkpt lat="43.3128917" lon="10.6757783"><ele>38.33333333333333</ele><time>2026-04-25T13:44:49.123Z</time></trkpt><trkpt lat="43.31301" lon="10.675635"><ele>38.666666666666664</ele><time>2026-04-25T13:44:50.122Z</time></trkpt><trkpt lat="43.31313" lon="10.6754833"><ele>39.0</ele><time>2026-04-25T13:44:51.13Z</time></trkpt><trkpt lat="43.3132533" lon="10.6753333"><ele>39.666666666666664</ele><time>2026-04-25T13:44:52.131Z</time></trkpt><trkpt lat="43.3133817" lon="10.6751833"><ele>40.33333333333333</ele><time>2026-04-25T13:44:53.125Z</time></trkpt><trkpt lat="43.3135083" lon="10.67503"><ele>41.0</ele><time>2026-04-25T13:44:54.128Z</time></trkpt><trkpt lat="43.3136367" lon="10.6748733"><ele>41.0</ele><time>2026-04-25T13:44:55.133Z</time></trkpt><trkpt lat="43.3137633" lon="10.6747183"><ele>41.0</ele><time>2026-04-25T13:44:56.139Z</time></trkpt><trkpt lat="43.3138933" lon="10.6745667"><ele>41.0</ele><time>2026-04-25T13:44:57.121Z</time></trkpt><trkpt lat="43.3140267" lon="10.6744133"><ele>40.0</ele><time>2026-04-25T13:44:58.127Z</time></trkpt><trkpt lat="43.3141617" lon="10.67426"><ele>39.0</ele><time>2026-04-25T13:44:59.124Z</time></trkpt><trkpt lat="43.3143" lon="10.67411"><ele>38.0</ele><time>2026-04-25T13:45:00.138Z</time></trkpt><trkpt lat="43.3144383" lon="10.6739633"><ele>38.0</ele><time>2026-04-25T13:45:01.137Z</time></trkpt><trkpt lat="43.3145833" lon="10.6738117"><ele>38.0</ele><time>2026-04-25T13:45:02.138Z</time></trkpt><trkpt lat="43.314745" lon="10.67365"><ele>38.0</ele><time>2026-04-25T13:45:03.129Z</time></trkpt><trkpt lat="43.3149217" lon="10.673475"><ele>39.5</ele><time>2026-04-25T13:45:04.133Z</time></trkpt><trkpt lat="43.3151117" lon="10.67329"><ele>41.0</ele><time>2026-04-25T13:45:05.136Z</time></trkpt><trkpt lat="43.31531" lon="10.6730983"><ele>41.0</ele><time>2026-04-25T13:45:06.134Z</time></trkpt><trkpt lat="43.315525" lon="10.672905"><ele>41.0</ele><time>2026-04-25T13:45:07.135Z</time></trkpt><trkpt lat="43.3157517" lon="10.6727117"><ele>40.0</ele><time>2026-04-25T13:45:08.132Z</time></trkpt><trkpt lat="43.31599" lon="10.6725167"><ele>39.0</ele><time>2026-04-25T13:45:09.134Z</time></trkpt><trkpt lat="43.3162283" lon="10.6723183"><ele>39.0</ele><time>2026-04-25T13:45:10.132Z</time></trkpt><trkpt lat="43.316465" lon="10.6721167"><ele>39.0</ele><time>2026-04-25T13:45:11.124Z</time></trkpt><trkpt lat="43.3166967" lon="10.6719183"><ele>39.0</ele><time>2026-04-25T13:45:12.121Z</time></trkpt><trkpt lat="43.3169217" lon="10.6717233"><ele>39.0</ele><time>2026-04-25T13:45:13.132Z</time></trkpt><trkpt lat="43.317145" lon="10.6715317"><ele>38.5</ele><time>2026-04-25T13:45:14.124Z</time></trkpt><trkpt lat="43.3173683" lon="10.6713483"><ele>38.0</ele><time>2026-04-25T13:45:15.14Z</time></trkpt><trkpt lat="43.3175933" lon="10.671175"><ele>37.5</ele><time>2026-04-25T13:45:16.123Z</time></trkpt><trkpt lat="43.3178167" lon="10.6710167"><ele>37.0</ele><time>2026-04-25T13:45:17.129Z</time></trkpt><trkpt lat="43.3180367" lon="10.67087"><ele>36.5</ele><time>2026-04-25T13:45:18.127Z</time></trkpt><trkpt lat="43.3182533" lon="10.6707383"><ele>36.0</ele><time>2026-04-25T13:45:19.129Z</time></trkpt><trkpt lat="43.3184633" lon="10.670615"><ele>36.0</ele><time>2026-04-25T13:45:20.127Z</time></trkpt><trkpt lat="43.3186683" lon="10.670505"><ele>36.0</ele><time>2026-04-25T13:45:21.125Z</time></trkpt><trkpt lat="43.318865" lon="10.67041"><ele>36.0</ele><time>2026-04-25T13:45:22.126Z</time></trkpt><trkpt lat="43.31906" lon="10.6703283"><ele>35.666666666666664</ele><time>2026-04-25T13:45:23.129Z</time></trkpt><trkpt lat="43.3192533" lon="10.670255"><ele>35.33333333333333</ele><time>2026-04-25T13:45:24.13Z</time></trkpt><trkpt lat="43.31945" lon="10.6701917"><ele>35.0</ele><time>2026-04-25T13:45:25.128Z</time></trkpt><trkpt lat="43.3196517" lon="10.6701333"><ele>35.666666666666664</ele><time>2026-04-25T13:45:26.124Z</time></trkpt><trkpt lat="43.319855" lon="10.6700833"><ele>36.333333333333336</ele><time>2026-04-25T13:45:27.126Z</time></trkpt><trkpt lat="43.3200583" lon="10.6700367"><ele>37.0</ele><time>2026-04-25T13:45:28.131Z</time></trkpt><trkpt lat="43.32026" lon="10.6699933"><ele>37.0</ele><time>2026-04-25T13:45:29.122Z</time></trkpt><trkpt lat="43.3206633" lon="10.6699217"><ele>37.0</ele><time>2026-04-25T13:45:31.125Z</time></trkpt><trkpt lat="43.3208683" lon="10.669895"><ele>37.0</ele><time>2026-04-25T13:45:32.128Z</time></trkpt><trkpt lat="43.3210733" lon="10.6698783"><ele>37.0</ele><time>2026-04-25T13:45:33.124Z</time></trkpt><trkpt lat="43.3212817" lon="10.6698717"><ele>37.0</ele><time>2026-04-25T13:45:34.134Z</time></trkpt><trkpt lat="43.32149" lon="10.66987"><ele>37.0</ele><time>2026-04-25T13:45:35.132Z</time></trkpt><trkpt lat="43.3217" lon="10.6698667"><ele>37.0</ele><time>2026-04-25T13:45:36.127Z</time></trkpt><trkpt lat="43.321915" lon="10.669865"><ele>37.0</ele><time>2026-04-25T13:45:37.122Z</time></trkpt><trkpt lat="43.3221283" lon="10.6698633"><ele>37.333333333333336</ele><time>2026-04-25T13:45:38.124Z</time></trkpt><trkpt lat="43.32233" lon="10.6698633"><ele>37.666666666666664</ele><time>2026-04-25T13:45:39.13Z</time></trkpt><trkpt lat="43.3225267" lon="10.66986"><ele>38.0</ele><time>2026-04-25T13:45:40.127Z</time></trkpt><trkpt lat="43.3227217" lon="10.6698583"><ele>38.0</ele><time>2026-04-25T13:45:41.127Z</time></trkpt><trkpt lat="43.3229183" lon="10.6698583"><ele>38.0</ele><time>2026-04-25T13:45:42.131Z</time></trkpt><trkpt lat="43.3231233" lon="10.6698583"><ele>38.0</ele><time>2026-04-25T13:45:43.132Z</time></trkpt><trkpt lat="43.3233317" lon="10.6698583"><ele>37.33333333333333</ele><time>2026-04-25T13:45:44.131Z</time></trkpt><trkpt lat="43.3235383" lon="10.6698583"><ele>36.666666666666664</ele><time>2026-04-25T13:45:45.135Z</time></trkpt><trkpt lat="43.3237317" lon="10.669855"><ele>36.0</ele><time>2026-04-25T13:45:46.128Z</time></trkpt><trkpt lat="43.3239133" lon="10.6698533"><ele>36.0</ele><time>2026-04-25T13:45:47.119Z</time></trkpt><trkpt lat="43.3240817" lon="10.6698517"><ele>36.0</ele><time>2026-04-25T13:45:48.129Z</time></trkpt><trkpt lat="43.3242383" lon="10.6698517"><ele>36.0</ele><time>2026-04-25T13:45:49.121Z</time></trkpt><trkpt lat="43.3243917" lon="10.6698567"><ele>36.0</ele><time>2026-04-25T13:45:50.131Z</time></trkpt><trkpt lat="43.32455" lon="10.66987"><ele>36.0</ele><time>2026-04-25T13:45:51.126Z</time></trkpt><trkpt lat="43.3247183" lon="10.6698933"><ele>36.0</ele><time>2026-04-25T13:45:52.138Z</time></trkpt><trkpt lat="43.3248967" lon="10.669925"><ele>36.0</ele><time>2026-04-25T13:45:53.123Z</time></trkpt><trkpt lat="43.32508" lon="10.6699617"><ele>36.0</ele><time>2026-04-25T13:45:54.132Z</time></trkpt><trkpt lat="43.3252733" lon="10.6699983"><ele>36.0</ele><time>2026-04-25T13:45:55.126Z</time></trkpt><trkpt lat="43.3254733" lon="10.6700317"><ele>36.0</ele><time>2026-04-25T13:45:56.12Z</time></trkpt><trkpt lat="43.3256783" lon="10.67007"><ele>36.0</ele><time>2026-04-25T13:45:57.125Z</time></trkpt><trkpt lat="43.3258883" lon="10.6701117"><ele>36.0</ele><time>2026-04-25T13:45:58.13Z</time></trkpt><trkpt lat="43.3261" lon="10.6701533"><ele>36.0</ele><time>2026-04-25T13:45:59.131Z</time></trkpt><trkpt lat="43.326315" lon="10.6701983"><ele>36.0</ele><time>2026-04-25T13:46:00.122Z</time></trkpt><trkpt lat="43.3265333" lon="10.6702417"><ele>36.0</ele><time>2026-04-25T13:46:01.13Z</time></trkpt><trkpt lat="43.326755" lon="10.6702833"><ele>36.333333333333336</ele><time>2026-04-25T13:46:02.129Z</time></trkpt><trkpt lat="43.3269717" lon="10.670325"><ele>36.66666666666667</ele><time>2026-04-25T13:46:03.124Z</time></trkpt><trkpt lat="43.327175" lon="10.670365"><ele>37.0</ele><time>2026-04-25T13:46:04.132Z</time></trkpt><trkpt lat="43.3273617" lon="10.6704033"><ele>37.0</ele><time>2026-04-25T13:46:05.14Z</time></trkpt><trkpt lat="43.3275367" lon="10.67044"><ele>37.0</ele><time>2026-04-25T13:46:06.119Z</time></trkpt><trkpt lat="43.3276967" lon="10.67047"><ele>37.0</ele><time>2026-04-25T13:46:07.135Z</time></trkpt><trkpt lat="43.3278467" lon="10.670495"><ele>37.0</ele><time>2026-04-25T13:46:08.131Z</time></trkpt><trkpt lat="43.3279983" lon="10.6705233"><ele>37.0</ele><time>2026-04-25T13:46:09.131Z</time></trkpt><trkpt lat="43.3281517" lon="10.6705567"><ele>37.0</ele><time>2026-04-25T13:46:10.122Z</time></trkpt><trkpt lat="43.3282967" lon="10.670585"><ele>36.75</ele><time>2026-04-25T13:46:11.132Z</time></trkpt><trkpt lat="43.3284283" lon="10.6706067"><ele>36.5</ele><time>2026-04-25T13:46:12.128Z</time></trkpt><trkpt lat="43.3285583" lon="10.67061"><ele>36.25</ele><time>2026-04-25T13:46:13.121Z</time></trkpt><trkpt lat="43.3286833" lon="10.67059"><ele>36.0</ele><time>2026-04-25T13:46:14.129Z</time></trkpt><trkpt lat="43.3287967" lon="10.670555"><ele>36.166666666666664</ele><time>2026-04-25T13:46:15.132Z</time></trkpt><trkpt lat="43.3288933" lon="10.6705267"><ele>36.333333333333336</ele><time>2026-04-25T13:46:16.122Z</time></trkpt><trkpt lat="43.3289817" lon="10.670525"><ele>36.5</ele><time>2026-04-25T13:46:17.121Z</time></trkpt><trkpt lat="43.3290667" lon="10.67054"><ele>36.66666666666667</ele><time>2026-04-25T13:46:18.136Z</time></trkpt><trkpt lat="43.32915" lon="10.6705583"><ele>36.833333333333336</ele><time>2026-04-25T13:46:19.125Z</time></trkpt><trkpt lat="43.3292267" lon="10.67056"><ele>37.0</ele><time>2026-04-25T13:46:20.119Z</time></trkpt><trkpt lat="43.3292917" lon="10.6705283"><ele>37.0</ele><time>2026-04-25T13:46:21.117Z</time></trkpt><trkpt lat="43.3293333" lon="10.6704583"><ele>37.0</ele><time>2026-04-25T13:46:22.133Z</time></trkpt><trkpt lat="43.3293483" lon="10.6703533"><ele>37.0</ele><time>2026-04-25T13:46:23.136Z</time></trkpt><trkpt lat="43.329325" lon="10.6702233"><ele>37.0</ele><time>2026-04-25T13:46:24.122Z</time></trkpt><trkpt lat="43.3292767" lon="10.670055"><ele>37.0</ele><time>2026-04-25T13:46:25.129Z</time></trkpt><trkpt lat="43.329215" lon="10.6698267"><ele>36.333333333333336</ele><time>2026-04-25T13:46:26.116Z</time></trkpt><trkpt lat="43.3291567" lon="10.669545"><ele>35.666666666666664</ele><time>2026-04-25T13:46:27.125Z</time></trkpt><trkpt lat="43.3291067" lon="10.6692367"><ele>35.0</ele><time>2026-04-25T13:46:28.123Z</time></trkpt><trkpt lat="43.32906" lon="10.66893"><ele>34.666666666666664</ele><time>2026-04-25T13:46:29.125Z</time></trkpt><trkpt lat="43.3290183" lon="10.6686417"><ele>34.333333333333336</ele><time>2026-04-25T13:46:30.128Z</time></trkpt><trkpt lat="43.328975" lon="10.66838"><ele>34.0</ele><time>2026-04-25T13:46:31.122Z</time></trkpt><trkpt lat="43.3289367" lon="10.66814"><ele>34.66666666666667</ele><time>2026-04-25T13:46:32.128Z</time></trkpt><trkpt lat="43.3289017" lon="10.667915"><ele>35.333333333333336</ele><time>2026-04-25T13:46:33.12Z</time></trkpt><trkpt lat="43.328865" lon="10.667695"><ele>36.0</ele><time>2026-04-25T13:46:34.128Z</time></trkpt><trkpt lat="43.3288333" lon="10.6674817"><ele>36.25</ele><time>2026-04-25T13:46:35.12Z</time></trkpt><trkpt lat="43.3288017" lon="10.6672817"><ele>36.5</ele><time>2026-04-25T13:46:36.13Z</time></trkpt><trkpt lat="43.3287717" lon="10.6670917"><ele>36.75</ele><time>2026-04-25T13:46:37.127Z</time></trkpt><trkpt lat="43.3287417" lon="10.66691"><ele>37.0</ele><time>2026-04-25T13:46:38.116Z</time></trkpt><trkpt lat="43.328715" lon="10.666735"><ele>37.0</ele><time>2026-04-25T13:46:39.127Z</time></trkpt><trkpt lat="43.3286883" lon="10.6665633"><ele>37.0</ele><time>2026-04-25T13:46:40.127Z</time></trkpt><trkpt lat="43.32866" lon="10.6663933"><ele>37.0</ele><time>2026-04-25T13:46:41.127Z</time></trkpt><trkpt lat="43.328635" lon="10.6662217"><ele>37.0</ele><time>2026-04-25T13:46:42.118Z</time></trkpt><trkpt lat="43.3286133" lon="10.666045"><ele>37.25</ele><time>2026-04-25T13:46:43.127Z</time></trkpt><trkpt lat="43.328595" lon="10.6658617"><ele>37.5</ele><time>2026-04-25T13:46:44.114Z</time></trkpt><trkpt lat="43.3285783" lon="10.665675"><ele>37.75</ele><time>2026-04-25T13:46:45.119Z</time></trkpt><trkpt lat="43.3285617" lon="10.665485"><ele>38.0</ele><time>2026-04-25T13:46:46.125Z</time></trkpt><trkpt lat="43.3285467" lon="10.6652933"><ele>38.0</ele><time>2026-04-25T13:46:47.124Z</time></trkpt><trkpt lat="43.3285317" lon="10.6650967"><ele>38.0</ele><time>2026-04-25T13:46:48.111Z</time></trkpt><trkpt lat="43.32852" lon="10.6648967"><ele>38.0</ele><time>2026-04-25T13:46:49.127Z</time></trkpt><trkpt lat="43.3285083" lon="10.6646917"><ele>38.0</ele><time>2026-04-25T13:46:50.125Z</time></trkpt><trkpt lat="43.3284983" lon="10.66448"><ele>37.0</ele><time>2026-04-25T13:46:51.124Z</time></trkpt><trkpt lat="43.328495" lon="10.6642633"><ele>36.0</ele><time>2026-04-25T13:46:52.125Z</time></trkpt><trkpt lat="43.3285017" lon="10.6640433"><ele>35.0</ele><time>2026-04-25T13:46:53.119Z</time></trkpt><trkpt lat="43.3285217" lon="10.6638267"><ele>35.0</ele><time>2026-04-25T13:46:54.119Z</time></trkpt><trkpt lat="43.3285567" lon="10.6636133"><ele>35.0</ele><time>2026-04-25T13:46:55.128Z</time></trkpt><trkpt lat="43.3286117" lon="10.6634083"><ele>35.0</ele><time>2026-04-25T13:46:56.136Z</time></trkpt><trkpt lat="43.328685" lon="10.6632083"><ele>35.0</ele><time>2026-04-25T13:46:57.124Z</time></trkpt><trkpt lat="43.328775" lon="10.663015"><ele>35.0</ele><time>2026-04-25T13:46:58.126Z</time></trkpt><trkpt lat="43.3288867" lon="10.66284"><ele>35.0</ele><time>2026-04-25T13:46:59.129Z</time></trkpt><trkpt lat="43.329025" lon="10.6626833"><ele>35.0</ele><time>2026-04-25T13:47:00.118Z</time></trkpt><trkpt lat="43.3291917" lon="10.6625417"><ele>35.0</ele><time>2026-04-25T13:47:01.126Z</time></trkpt><trkpt lat="43.3295967" lon="10.662305"><ele>36.5</ele><time>2026-04-25T13:47:03.124Z</time></trkpt><trkpt lat="43.3298283" lon="10.6622017"><ele>38.0</ele><time>2026-04-25T13:47:04.14Z</time></trkpt><trkpt lat="43.33006" lon="10.6620983"><ele>38.0</ele><time>2026-04-25T13:47:05.132Z</time></trkpt><trkpt lat="43.3302817" lon="10.6619933"><ele>38.0</ele><time>2026-04-25T13:47:06.129Z</time></trkpt><trkpt lat="43.3304967" lon="10.661885"><ele>39.0</ele><time>2026-04-25T13:47:07.14Z</time></trkpt><trkpt lat="43.33071" lon="10.661765"><ele>40.0</ele><time>2026-04-25T13:47:08.119Z</time></trkpt><trkpt lat="43.3309183" lon="10.6616267"><ele>40.0</ele><time>2026-04-25T13:47:09.126Z</time></trkpt><trkpt lat="43.3311267" lon="10.66147"><ele>40.0</ele><time>2026-04-25T13:47:10.118Z</time></trkpt><trkpt lat="43.331325" lon="10.6613033"><ele>38.66666666666667</ele><time>2026-04-25T13:47:11.129Z</time></trkpt><trkpt lat="43.3315033" lon="10.6611317"><ele>37.333333333333336</ele><time>2026-04-25T13:47:12.134Z</time></trkpt><trkpt lat="43.3316717" lon="10.66095"><ele>36.0</ele><time>2026-04-25T13:47:13.129Z</time></trkpt><trkpt lat="43.3318317" lon="10.66076"><ele>36.0</ele><time>2026-04-25T13:47:14.131Z</time></trkpt><trkpt lat="43.331985" lon="10.6605617"><ele>36.0</ele><time>2026-04-25T13:47:15.132Z</time></trkpt><trkpt lat="43.332135" lon="10.660355"><ele>36.0</ele><time>2026-04-25T13:47:16.137Z</time></trkpt><trkpt lat="43.3322783" lon="10.6601383"><ele>35.666666666666664</ele><time>2026-04-25T13:47:17.127Z</time></trkpt><trkpt lat="43.3324183" lon="10.6599083"><ele>35.33333333333333</ele><time>2026-04-25T13:47:18.138Z</time></trkpt><trkpt lat="43.3325583" lon="10.6596667"><ele>35.0</ele><time>2026-04-25T13:47:19.13Z</time></trkpt><trkpt lat="43.3327" lon="10.6594133"><ele>35.0</ele><time>2026-04-25T13:47:20.132Z</time></trkpt><trkpt lat="43.3328467" lon="10.6591433"><ele>35.0</ele><time>2026-04-25T13:47:21.137Z</time></trkpt><trkpt lat="43.333" lon="10.6588567"><ele>33.5</ele><time>2026-04-25T13:47:22.127Z</time></trkpt><trkpt lat="43.333165" lon="10.6585583"><ele>32.0</ele><time>2026-04-25T13:47:23.132Z</time></trkpt><trkpt lat="43.3333367" lon="10.6582467"><ele>32.0</ele><time>2026-04-25T13:47:24.121Z</time></trkpt><trkpt lat="43.333515" lon="10.6579233"><ele>32.0</ele><time>2026-04-25T13:47:25.12Z</time></trkpt><trkpt lat="43.3336967" lon="10.6575917"><ele>32.0</ele><time>2026-04-25T13:47:26.12Z</time></trkpt><trkpt lat="43.3338833" lon="10.6572517"><ele>32.0</ele><time>2026-04-25T13:47:27.129Z</time></trkpt><trkpt lat="43.3340733" lon="10.6569083"><ele>32.5</ele><time>2026-04-25T13:47:28.121Z</time></trkpt><trkpt lat="43.3342617" lon="10.65656"><ele>33.0</ele><time>2026-04-25T13:47:29.12Z</time></trkpt><trkpt lat="43.3344533" lon="10.6562083"><ele>32.0</ele><time>2026-04-25T13:47:30.129Z</time></trkpt><trkpt lat="43.3346467" lon="10.655855"><ele>31.0</ele><time>2026-04-25T13:47:31.121Z</time></trkpt><trkpt lat="43.33484" lon="10.6555017"><ele>32.0</ele><time>2026-04-25T13:47:32.128Z</time></trkpt><trkpt lat="43.3350267" lon="10.6551633"><ele>33.0</ele><time>2026-04-25T13:47:33.127Z</time></trkpt><trkpt lat="43.3352" lon="10.6548483"><ele>33.0</ele><time>2026-04-25T13:47:34.125Z</time></trkpt><trkpt lat="43.3353583" lon="10.6545633"><ele>33.0</ele><time>2026-04-25T13:47:35.127Z</time></trkpt><trkpt lat="43.3355067" lon="10.6543033"><ele>34.666666666666664</ele><time>2026-04-25T13:47:36.128Z</time></trkpt><trkpt lat="43.3356433" lon="10.6540667"><ele>36.33333333333333</ele><time>2026-04-25T13:47:37.117Z</time></trkpt><trkpt lat="43.33577" lon="10.6538517"><ele>38.0</ele><time>2026-04-25T13:47:38.123Z</time></trkpt><trkpt lat="43.3358867" lon="10.6536583"><ele>36.33333333333333</ele><time>2026-04-25T13:47:39.131Z</time></trkpt><trkpt lat="43.335995" lon="10.6534833"><ele>34.666666666666664</ele><time>2026-04-25T13:47:40.116Z</time></trkpt><trkpt lat="43.3360933" lon="10.6533267"><ele>33.0</ele><time>2026-04-25T13:47:41.122Z</time></trkpt><trkpt lat="43.3361817" lon="10.6531917"><ele>33.0</ele><time>2026-04-25T13:47:42.129Z</time></trkpt><trkpt lat="43.336265" lon="10.65308"><ele>33.0</ele><time>2026-04-25T13:47:43.123Z</time></trkpt><trkpt lat="43.3363483" lon="10.6530017"><ele>33.0</ele><time>2026-04-25T13:47:44.128Z</time></trkpt><trkpt lat="43.3364333" lon="10.6529483"><ele>33.0</ele><time>2026-04-25T13:47:45.131Z</time></trkpt><trkpt lat="43.33652" lon="10.6529033"><ele>33.0</ele><time>2026-04-25T13:47:46.12Z</time></trkpt><trkpt lat="43.33659" lon="10.65284"><ele>33.0</ele><time>2026-04-25T13:47:47.134Z</time></trkpt><trkpt lat="43.3366333" lon="10.6527433"><ele>33.0</ele><time>2026-04-25T13:47:48.127Z</time></trkpt><trkpt lat="43.3366633" lon="10.6525967"><ele>33.0</ele><time>2026-04-25T13:47:49.132Z</time></trkpt><trkpt lat="43.336705" lon="10.6524217"><ele>33.0</ele><time>2026-04-25T13:47:50.12Z</time></trkpt><trkpt lat="43.336775" lon="10.6522367"><ele>33.0</ele><time>2026-04-25T13:47:51.122Z</time></trkpt><trkpt lat="43.33689" lon="10.652035"><ele>33.0</ele><time>2026-04-25T13:47:52.131Z</time></trkpt><trkpt lat="43.3370483" lon="10.6518017"><ele>33.0</ele><time>2026-04-25T13:47:53.128Z</time></trkpt><trkpt lat="43.3372383" lon="10.651545"><ele>32.5</ele><time>2026-04-25T13:47:54.126Z</time></trkpt><trkpt lat="43.3374483" lon="10.65126"><ele>32.0</ele><time>2026-04-25T13:47:55.12Z</time></trkpt><trkpt lat="43.3376617" lon="10.6509567"><ele>31.5</ele><time>2026-04-25T13:47:56.129Z</time></trkpt><trkpt lat="43.3378617" lon="10.65066"><ele>31.0</ele><time>2026-04-25T13:47:57.126Z</time></trkpt><trkpt lat="43.3380467" lon="10.6503767"><ele>31.5</ele><time>2026-04-25T13:47:58.127Z</time></trkpt><trkpt lat="43.33822" lon="10.6500917"><ele>32.0</ele><time>2026-04-25T13:47:59.13Z</time></trkpt><trkpt lat="43.338385" lon="10.64979"><ele>32.0</ele><time>2026-04-25T13:48:00.125Z</time></trkpt><trkpt lat="43.3385383" lon="10.6494683"><ele>32.0</ele><time>2026-04-25T13:48:01.128Z</time></trkpt><trkpt lat="43.3386817" lon="10.6491133"><ele>32.0</ele><time>2026-04-25T13:48:02.123Z</time></trkpt><trkpt lat="43.3388117" lon="10.64873"><ele>32.0</ele><time>2026-04-25T13:48:03.117Z</time></trkpt><trkpt lat="43.3389333" lon="10.64832"><ele>32.0</ele><time>2026-04-25T13:48:04.127Z</time></trkpt><trkpt lat="43.3390483" lon="10.6478867"><ele>32.0</ele><time>2026-04-25T13:48:05.134Z</time></trkpt><trkpt lat="43.3391567" lon="10.6474433"><ele>32.0</ele><time>2026-04-25T13:48:06.129Z</time></trkpt><trkpt lat="43.3392583" lon="10.6470117"><ele>32.0</ele><time>2026-04-25T13:48:07.127Z</time></trkpt><trkpt lat="43.3393517" lon="10.6466117"><ele>32.0</ele><time>2026-04-25T13:48:08.121Z</time></trkpt><trkpt lat="43.3394417" lon="10.6462417"><ele>32.0</ele><time>2026-04-25T13:48:09.126Z</time></trkpt><trkpt lat="43.3395217" lon="10.6459"><ele>31.5</ele><time>2026-04-25T13:48:10.126Z</time></trkpt><trkpt lat="43.3395967" lon="10.6455867"><ele>31.0</ele><time>2026-04-25T13:48:11.134Z</time></trkpt><trkpt lat="43.33967" lon="10.6452733"><ele>31.0</ele><time>2026-04-25T13:48:12.128Z</time></trkpt><trkpt lat="43.3397467" lon="10.6449467"><ele>31.0</ele><time>2026-04-25T13:48:13.123Z</time></trkpt><trkpt lat="43.3398317" lon="10.644615"><ele>31.5</ele><time>2026-04-25T13:48:14.136Z</time></trkpt><trkpt lat="43.3399217" lon="10.6442917"><ele>32.0</ele><time>2026-04-25T13:48:15.133Z</time></trkpt><trkpt lat="43.340015" lon="10.64399"><ele>32.0</ele><time>2026-04-25T13:48:16.125Z</time></trkpt><trkpt lat="43.3401133" lon="10.643705"><ele>32.0</ele><time>2026-04-25T13:48:17.13Z</time></trkpt><trkpt lat="43.340225" lon="10.6434367"><ele>31.5</ele><time>2026-04-25T13:48:18.119Z</time></trkpt><trkpt lat="43.340355" lon="10.643185"><ele>31.0</ele><time>2026-04-25T13:48:19.131Z</time></trkpt><trkpt lat="43.3405083" lon="10.64294"><ele>30.5</ele><time>2026-04-25T13:48:20.118Z</time></trkpt><trkpt lat="43.3406883" lon="10.6426933"><ele>30.0</ele><time>2026-04-25T13:48:21.126Z</time></trkpt><trkpt lat="43.3408933" lon="10.6424383"><ele>30.0</ele><time>2026-04-25T13:48:22.122Z</time></trkpt><trkpt lat="43.341115" lon="10.642175"><ele>30.0</ele><time>2026-04-25T13:48:23.121Z</time></trkpt><trkpt lat="43.34134" lon="10.64191"><ele>32.0</ele><time>2026-04-25T13:48:24.131Z</time></trkpt><trkpt lat="43.3415567" lon="10.641655"><ele>34.0</ele><time>2026-04-25T13:48:25.127Z</time></trkpt><trkpt lat="43.34176" lon="10.6414167"><ele>34.0</ele><time>2026-04-25T13:48:26.129Z</time></trkpt><trkpt lat="43.3419533" lon="10.64119"><ele>34.0</ele><time>2026-04-25T13:48:27.129Z</time></trkpt><trkpt lat="43.3421433" lon="10.6409683"><ele>36.5</ele><time>2026-04-25T13:48:28.122Z</time></trkpt><trkpt lat="43.3423267" lon="10.6407517"><ele>39.0</ele><time>2026-04-25T13:48:29.13Z</time></trkpt><trkpt lat="43.3425067" lon="10.640535"><ele>39.0</ele><time>2026-04-25T13:48:30.126Z</time></trkpt><trkpt lat="43.3426883" lon="10.6403183"><ele>39.0</ele><time>2026-04-25T13:48:31.126Z</time></trkpt><trkpt lat="43.3428667" lon="10.6400917"><ele>36.0</ele><time>2026-04-25T13:48:32.141Z</time></trkpt><trkpt lat="43.3430433" lon="10.6398567"><ele>33.0</ele><time>2026-04-25T13:48:33.132Z</time></trkpt><trkpt lat="43.3432167" lon="10.6396183"><ele>33.0</ele><time>2026-04-25T13:48:34.13Z</time></trkpt><trkpt lat="43.343385" lon="10.6393733"><ele>33.0</ele><time>2026-04-25T13:48:35.129Z</time></trkpt><trkpt lat="43.343545" lon="10.639115"><ele>33.0</ele><time>2026-04-25T13:48:36.128Z</time></trkpt><trkpt lat="43.3436933" lon="10.6388433"><ele>33.0</ele><time>2026-04-25T13:48:37.118Z</time></trkpt><trkpt lat="43.3438283" lon="10.6385683"><ele>36.0</ele><time>2026-04-25T13:48:38.126Z</time></trkpt><trkpt lat="43.3439483" lon="10.638295"><ele>39.0</ele><time>2026-04-25T13:48:39.128Z</time></trkpt><trkpt lat="43.3440633" lon="10.638025"><ele>36.0</ele><time>2026-04-25T13:48:40.121Z</time></trkpt><trkpt lat="43.3441783" lon="10.6377583"><ele>33.0</ele><time>2026-04-25T13:48:41.131Z</time></trkpt><trkpt lat="43.344295" lon="10.63749"><ele>33.0</ele><time>2026-04-25T13:48:42.124Z</time></trkpt><trkpt lat="43.3444167" lon="10.6372183"><ele>33.0</ele><time>2026-04-25T13:48:43.125Z</time></trkpt><trkpt lat="43.3445483" lon="10.636935"><ele>30.0</ele><time>2026-04-25T13:48:44.126Z</time></trkpt><trkpt lat="43.3446967" lon="10.6366433"><ele>27.0</ele><time>2026-04-25T13:48:45.118Z</time></trkpt><trkpt lat="43.344855" lon="10.636345"><ele>31.5</ele><time>2026-04-25T13:48:46.122Z</time></trkpt><trkpt lat="43.3450217" lon="10.6360433"><ele>36.0</ele><time>2026-04-25T13:48:47.129Z</time></trkpt><trkpt lat="43.3451917" lon="10.63574"><ele>36.0</ele><time>2026-04-25T13:48:48.137Z</time></trkpt><trkpt lat="43.3453617" lon="10.635445"><ele>36.0</ele><time>2026-04-25T13:48:49.127Z</time></trkpt><trkpt lat="43.3455233" lon="10.635165"><ele>38.0</ele><time>2026-04-25T13:48:50.12Z</time></trkpt><trkpt lat="43.3456783" lon="10.6348983"><ele>40.0</ele><time>2026-04-25T13:48:51.129Z</time></trkpt><trkpt lat="43.3458267" lon="10.6346417"><ele>35.0</ele><time>2026-04-25T13:48:52.13Z</time></trkpt><trkpt lat="43.3459733" lon="10.6343917"><ele>30.0</ele><time>2026-04-25T13:48:53.123Z</time></trkpt><trkpt lat="43.34612" lon="10.6341417"><ele>30.0</ele><time>2026-04-25T13:48:54.127Z</time></trkpt><trkpt lat="43.3462717" lon="10.633895"><ele>30.0</ele><time>2026-04-25T13:48:55.122Z</time></trkpt><trkpt lat="43.3464267" lon="10.6336483"><ele>31.5</ele><time>2026-04-25T13:48:56.13Z</time></trkpt><trkpt lat="43.3465833" lon="10.6334017"><ele>33.0</ele><time>2026-04-25T13:48:57.131Z</time></trkpt><trkpt lat="43.3467383" lon="10.6331583"><ele>33.0</ele><time>2026-04-25T13:48:58.13Z</time></trkpt><trkpt lat="43.3468933" lon="10.6329167"><ele>33.0</ele><time>2026-04-25T13:48:59.128Z</time></trkpt><trkpt lat="43.3470467" lon="10.632675"><ele>34.0</ele><time>2026-04-25T13:49:00.123Z</time></trkpt><trkpt lat="43.3472" lon="10.632435"><ele>35.0</ele><time>2026-04-25T13:49:01.126Z</time></trkpt><trkpt lat="43.3473517" lon="10.632195"><ele>33.5</ele><time>2026-04-25T13:49:02.125Z</time></trkpt><trkpt lat="43.3475017" lon="10.6319533"><ele>32.0</ele><time>2026-04-25T13:49:03.123Z</time></trkpt><trkpt lat="43.3476517" lon="10.6317133"><ele>32.0</ele><time>2026-04-25T13:49:04.123Z</time></trkpt><trkpt lat="43.3478017" lon="10.63147"><ele>32.0</ele><time>2026-04-25T13:49:05.129Z</time></trkpt><trkpt lat="43.347955" lon="10.6312217"><ele>30.5</ele><time>2026-04-25T13:49:06.122Z</time></trkpt><trkpt lat="43.3481067" lon="10.6309683"><ele>29.0</ele><time>2026-04-25T13:49:07.138Z</time></trkpt><trkpt lat="43.3482567" lon="10.6307117"><ele>29.0</ele><time>2026-04-25T13:49:08.126Z</time></trkpt><trkpt lat="43.348405" lon="10.63045"><ele>29.0</ele><time>2026-04-25T13:49:09.135Z</time></trkpt><trkpt lat="43.3485533" lon="10.6301867"><ele>29.5</ele><time>2026-04-25T13:49:10.121Z</time></trkpt><trkpt lat="43.3486983" lon="10.6299217"><ele>30.0</ele><time>2026-04-25T13:49:11.13Z</time></trkpt><trkpt lat="43.3488417" lon="10.6296533"><ele>31.5</ele><time>2026-04-25T13:49:12.13Z</time></trkpt><trkpt lat="43.3489817" lon="10.6293833"><ele>33.0</ele><time>2026-04-25T13:49:13.137Z</time></trkpt><trkpt lat="43.34912" lon="10.6291133"><ele>33.0</ele><time>2026-04-25T13:49:14.124Z</time></trkpt><trkpt lat="43.349255" lon="10.628845"><ele>33.0</ele><time>2026-04-25T13:49:15.124Z</time></trkpt><trkpt lat="43.3493817" lon="10.628585"><ele>33.333333333333336</ele><time>2026-04-25T13:49:16.121Z</time></trkpt><trkpt lat="43.3495017" lon="10.6283333"><ele>33.66666666666667</ele><time>2026-04-25T13:49:17.122Z</time></trkpt><trkpt lat="43.349615" lon="10.6280883"><ele>34.0</ele><time>2026-04-25T13:49:18.132Z</time></trkpt><trkpt lat="43.3497233" lon="10.6278517"><ele>34.333333333333336</ele><time>2026-04-25T13:49:19.135Z</time></trkpt><trkpt lat="43.3498317" lon="10.6276217"><ele>34.666666666666664</ele><time>2026-04-25T13:49:20.123Z</time></trkpt><trkpt lat="43.349935" lon="10.6274017"><ele>35.0</ele><time>2026-04-25T13:49:21.121Z</time></trkpt><trkpt lat="43.3500333" lon="10.6271917"><ele>35.0</ele><time>2026-04-25T13:49:22.129Z</time></trkpt><trkpt lat="43.3501233" lon="10.626995"><ele>35.0</ele><time>2026-04-25T13:49:23.121Z</time></trkpt><trkpt lat="43.3502033" lon="10.6268217"><ele>35.0</ele><time>2026-04-25T13:49:24.122Z</time></trkpt><trkpt lat="43.35028" lon="10.6266767"><ele>35.0</ele><time>2026-04-25T13:49:25.128Z</time></trkpt><trkpt lat="43.3503533" lon="10.6265617"><ele>35.0</ele><time>2026-04-25T13:49:26.119Z</time></trkpt><trkpt lat="43.3504367" lon="10.6264733"><ele>35.0</ele><time>2026-04-25T13:49:27.12Z</time></trkpt><trkpt lat="43.3505217" lon="10.6264017"><ele>35.0</ele><time>2026-04-25T13:49:28.128Z</time></trkpt><trkpt lat="43.3505933" lon="10.6263317"><ele>35.0</ele><time>2026-04-25T13:49:29.119Z</time></trkpt><trkpt lat="43.350645" lon="10.62625"><ele>35.0</ele><time>2026-04-25T13:49:30.119Z</time></trkpt><trkpt lat="43.3506667" lon="10.62616"><ele>35.0</ele><time>2026-04-25T13:49:31.129Z</time></trkpt><trkpt lat="43.3506033" lon="10.6260167"><ele>36.25</ele><time>2026-04-25T13:49:33.12Z</time></trkpt><trkpt lat="43.3505267" lon="10.6259783"><ele>37.5</ele><time>2026-04-25T13:49:34.118Z</time></trkpt><trkpt lat="43.35042" lon="10.625965"><ele>38.75</ele><time>2026-04-25T13:49:35.125Z</time></trkpt><trkpt lat="43.3502933" lon="10.62595"><ele>40.0</ele><time>2026-04-25T13:49:36.125Z</time></trkpt><trkpt lat="43.3501567" lon="10.6259083"><ele>40.0</ele><time>2026-04-25T13:49:37.119Z</time></trkpt><trkpt lat="43.3500133" lon="10.62584"><ele>40.0</ele><time>2026-04-25T13:49:38.128Z</time></trkpt><trkpt lat="43.349865" lon="10.6257517"><ele>40.0</ele><time>2026-04-25T13:49:39.132Z</time></trkpt><trkpt lat="43.3497267" lon="10.625655"><ele>39.25</ele><time>2026-04-25T13:49:40.127Z</time></trkpt><trkpt lat="43.3495967" lon="10.6255567"><ele>38.5</ele><time>2026-04-25T13:49:41.129Z</time></trkpt><trkpt lat="43.349475" lon="10.6254533"><ele>37.75</ele><time>2026-04-25T13:49:42.144Z</time></trkpt><trkpt lat="43.34936" lon="10.62535"><ele>37.0</ele><time>2026-04-25T13:49:43.141Z</time></trkpt><trkpt lat="43.3492433" lon="10.62524"><ele>37.0</ele><time>2026-04-25T13:49:44.131Z</time></trkpt><trkpt lat="43.34912" lon="10.6251183"><ele>37.0</ele><time>2026-04-25T13:49:45.141Z</time></trkpt><trkpt lat="43.3489883" lon="10.6249833"><ele>37.0</ele><time>2026-04-25T13:49:46.135Z</time></trkpt><trkpt lat="43.348855" lon="10.62484"><ele>35.66666666666667</ele><time>2026-04-25T13:49:47.124Z</time></trkpt><trkpt lat="43.3487283" lon="10.6246967"><ele>34.333333333333336</ele><time>2026-04-25T13:49:48.126Z</time></trkpt><trkpt lat="43.34861" lon="10.624555"><ele>33.0</ele><time>2026-04-25T13:49:49.13Z</time></trkpt><trkpt lat="43.348495" lon="10.6244117"><ele>33.0</ele><time>2026-04-25T13:49:50.123Z</time></trkpt><trkpt lat="43.3483833" lon="10.6242683"><ele>33.0</ele><time>2026-04-25T13:49:51.143Z</time></trkpt><trkpt lat="43.3482717" lon="10.6241267"><ele>33.0</ele><time>2026-04-25T13:49:52.129Z</time></trkpt><trkpt lat="43.348165" lon="10.6239867"><ele>33.0</ele><time>2026-04-25T13:49:53.133Z</time></trkpt><trkpt lat="43.34806" lon="10.6238483"><ele>33.0</ele><time>2026-04-25T13:49:54.134Z</time></trkpt><trkpt lat="43.3479617" lon="10.62372"><ele>33.0</ele><time>2026-04-25T13:49:55.13Z</time></trkpt><trkpt lat="43.347875" lon="10.6236083"><ele>33.0</ele><time>2026-04-25T13:49:56.131Z</time></trkpt><trkpt lat="43.3478033" lon="10.6235133"><ele>33.0</ele><time>2026-04-25T13:49:57.129Z</time></trkpt><trkpt lat="43.3477533" lon="10.62344"><ele>33.0</ele><time>2026-04-25T13:49:58.12Z</time></trkpt><trkpt lat="43.3477" lon="10.6233667"><ele>33.0</ele><time>2026-04-25T13:50:00.121Z</time></trkpt><trkpt lat="43.3477967" lon="10.6233433"><ele>33.0</ele><time>2026-04-25T13:50:22.123Z</time></trkpt><trkpt lat="43.3478483" lon="10.623265"><ele>33.0</ele><time>2026-04-25T13:50:26.12Z</time></trkpt><trkpt lat="43.3478717" lon="10.6231217"><ele>33.0</ele><time>2026-04-25T13:50:48.123Z</time></trkpt><trkpt lat="43.347865" lon="10.62302"><ele>33.0</ele><time>2026-04-25T13:50:49.129Z</time></trkpt><trkpt lat="43.3478583" lon="10.6229017"><ele>33.0</ele><time>2026-04-25T13:50:50.119Z</time></trkpt><trkpt lat="43.34786" lon="10.6227783"><ele>33.0</ele><time>2026-04-25T13:50:51.126Z</time></trkpt><trkpt lat="43.34787" lon="10.6226517"><ele>33.0</ele><time>2026-04-25T13:50:52.128Z</time></trkpt><trkpt lat="43.3478833" lon="10.6225217"><ele>33.0</ele><time>2026-04-25T13:50:53.129Z</time></trkpt><trkpt lat="43.34789" lon="10.6223833"><ele>33.25</ele><time>2026-04-25T13:50:54.131Z</time></trkpt><trkpt lat="43.3478717" lon="10.6222267"><ele>33.5</ele><time>2026-04-25T13:50:55.13Z</time></trkpt><trkpt lat="43.3478367" lon="10.6220467"><ele>33.75</ele><time>2026-04-25T13:50:56.129Z</time></trkpt><trkpt lat="43.347795" lon="10.6218533"><ele>34.0</ele><time>2026-04-25T13:50:57.134Z</time></trkpt><trkpt lat="43.347765" lon="10.6216683"><ele>34.75</ele><time>2026-04-25T13:50:58.135Z</time></trkpt><trkpt lat="43.3477483" lon="10.621495"><ele>35.5</ele><time>2026-04-25T13:50:59.13Z</time></trkpt><trkpt lat="43.3477567" lon="10.6213383"><ele>36.25</ele><time>2026-04-25T13:51:00.122Z</time></trkpt><trkpt lat="43.3477717" lon="10.6211917"><ele>37.0</ele><time>2026-04-25T13:51:01.126Z</time></trkpt><trkpt lat="43.3477883" lon="10.621045"><ele>40.0</ele><time>2026-04-25T13:51:02.126Z</time></trkpt><trkpt lat="43.3478083" lon="10.6208983"><ele>43.0</ele><time>2026-04-25T13:51:03.13Z</time></trkpt><trkpt lat="43.3478383" lon="10.6207517"><ele>46.0</ele><time>2026-04-25T13:51:04.125Z</time></trkpt><trkpt lat="43.34787" lon="10.6205983"><ele>49.0</ele><time>2026-04-25T13:51:05.117Z</time></trkpt><trkpt lat="43.3479" lon="10.62044"><ele>50.5</ele><time>2026-04-25T13:51:06.127Z</time></trkpt><trkpt lat="43.347915" lon="10.6202767"><ele>52.0</ele><time>2026-04-25T13:51:07.121Z</time></trkpt><trkpt lat="43.3479083" lon="10.6201183"><ele>53.5</ele><time>2026-04-25T13:51:08.129Z</time></trkpt><trkpt lat="43.3478933" lon="10.6199617"><ele>55.0</ele><time>2026-04-25T13:51:09.121Z</time></trkpt><trkpt lat="43.3478683" lon="10.6198017"><ele>55.0</ele><time>2026-04-25T13:51:10.123Z</time></trkpt><trkpt lat="43.3478383" lon="10.61964"><ele>55.0</ele><time>2026-04-25T13:51:11.133Z</time></trkpt><trkpt lat="43.3478083" lon="10.61948"><ele>55.0</ele><time>2026-04-25T13:51:12.137Z</time></trkpt><trkpt lat="43.3477767" lon="10.6193317"><ele>55.0</ele><time>2026-04-25T13:51:13.122Z</time></trkpt><trkpt lat="43.347735" lon="10.619195"><ele>57.4</ele><time>2026-04-25T13:51:14.121Z</time></trkpt><trkpt lat="43.34768" lon="10.6190717"><ele>59.8</ele><time>2026-04-25T13:51:15.12Z</time></trkpt><trkpt lat="43.34762" lon="10.61897"><ele>62.2</ele><time>2026-04-25T13:51:16.12Z</time></trkpt><trkpt lat="43.34757" lon="10.6188833"><ele>64.6</ele><time>2026-04-25T13:51:17.119Z</time></trkpt><trkpt lat="43.347545" lon="10.6187367"><ele>67.0</ele><time>2026-04-25T13:51:19.13Z</time></trkpt><trkpt lat="43.3475717" lon="10.6186483"><ele>69.5</ele><time>2026-04-25T13:51:20.125Z</time></trkpt><trkpt lat="43.34761" lon="10.618535"><ele>72.0</ele><time>2026-04-25T13:51:21.126Z</time></trkpt><trkpt lat="43.3476467" lon="10.6183783"><ele>74.5</ele><time>2026-04-25T13:51:22.127Z</time></trkpt><trkpt lat="43.3476567" lon="10.61816"><ele>77.0</ele><time>2026-04-25T13:51:23.135Z</time></trkpt><trkpt lat="43.3476417" lon="10.6178917"><ele>80.0</ele><time>2026-04-25T13:51:24.127Z</time></trkpt><trkpt lat="43.3476183" lon="10.617605"><ele>83.0</ele><time>2026-04-25T13:51:25.134Z</time></trkpt><trkpt lat="43.3476" lon="10.6173417"><ele>86.0</ele><time>2026-04-25T13:51:26.119Z</time></trkpt><trkpt lat="43.3475833" lon="10.617125"><ele>87.5</ele><time>2026-04-25T13:51:27.134Z</time></trkpt><trkpt lat="43.3475533" lon="10.616965"><ele>89.0</ele><time>2026-04-25T13:51:28.137Z</time></trkpt><trkpt lat="43.3474983" lon="10.6168633"><ele>90.5</ele><time>2026-04-25T13:51:29.123Z</time></trkpt><trkpt lat="43.347445" lon="10.6167817"><ele>92.0</ele><time>2026-04-25T13:51:30.132Z</time></trkpt><trkpt lat="43.3474117" lon="10.6166917"><ele>93.5</ele><time>2026-04-25T13:51:31.132Z</time></trkpt><trkpt lat="43.347405" lon="10.6165767"><ele>95.0</ele><time>2026-04-25T13:51:32.123Z</time></trkpt><trkpt lat="43.3474317" lon="10.6164283"><ele>95.0</ele><time>2026-04-25T13:51:33.134Z</time></trkpt><trkpt lat="43.3474967" lon="10.616255"><ele>95.0</ele><time>2026-04-25T13:51:34.129Z</time></trkpt><trkpt lat="43.3475683" lon="10.6161"><ele>95.0</ele><time>2026-04-25T13:51:35.123Z</time></trkpt><trkpt lat="43.34764" lon="10.6159567"><ele>95.0</ele><time>2026-04-25T13:51:36.13Z</time></trkpt><trkpt lat="43.34771" lon="10.6158017"><ele>95.0</ele><time>2026-04-25T13:51:37.122Z</time></trkpt><trkpt lat="43.3477817" lon="10.61563"><ele>95.0</ele><time>2026-04-25T13:51:38.129Z</time></trkpt><trkpt lat="43.34787" lon="10.6154467"><ele>95.0</ele><time>2026-04-25T13:51:39.12Z</time></trkpt><trkpt lat="43.3479733" lon="10.61527"><ele>99.33333333333334</ele><time>2026-04-25T13:51:40.117Z</time></trkpt><trkpt lat="43.3480717" lon="10.6151033"><ele>103.66666666666667</ele><time>2026-04-25T13:51:41.128Z</time></trkpt><trkpt lat="43.34816" lon="10.6149333"><ele>108.0</ele><time>2026-04-25T13:51:42.128Z</time></trkpt><trkpt lat="43.3482383" lon="10.6147583"><ele>108.0</ele><time>2026-04-25T13:51:43.119Z</time></trkpt><trkpt lat="43.3483117" lon="10.61458"><ele>108.0</ele><time>2026-04-25T13:51:44.131Z</time></trkpt><trkpt lat="43.3483883" lon="10.6144033"><ele>108.0</ele><time>2026-04-25T13:51:45.13Z</time></trkpt><trkpt lat="43.348465" lon="10.6142317"><ele>108.0</ele><time>2026-04-25T13:51:46.127Z</time></trkpt><trkpt lat="43.3485433" lon="10.61407"><ele>107.66666666666666</ele><time>2026-04-25T13:51:47.126Z</time></trkpt><trkpt lat="43.34862" lon="10.6139083"><ele>107.33333333333333</ele><time>2026-04-25T13:51:48.128Z</time></trkpt><trkpt lat="43.34869" lon="10.6137267"><ele>107.0</ele><time>2026-04-25T13:51:49.13Z</time></trkpt><trkpt lat="43.3487483" lon="10.6135183"><ele>108.66666666666666</ele><time>2026-04-25T13:51:50.132Z</time></trkpt><trkpt lat="43.3488" lon="10.613285"><ele>110.33333333333334</ele><time>2026-04-25T13:51:51.128Z</time></trkpt><trkpt lat="43.3488567" lon="10.6130567"><ele>112.0</ele><time>2026-04-25T13:51:52.119Z</time></trkpt><trkpt lat="43.3489233" lon="10.612845"><ele>115.66666666666667</ele><time>2026-04-25T13:51:53.136Z</time></trkpt><trkpt lat="43.349" lon="10.61265"><ele>119.33333333333334</ele><time>2026-04-25T13:51:54.144Z</time></trkpt><trkpt lat="43.3490817" lon="10.6124733"><ele>123.0</ele><time>2026-04-25T13:51:55.135Z</time></trkpt><trkpt lat="43.34916" lon="10.6123133"><ele>123.0</ele><time>2026-04-25T13:51:56.127Z</time></trkpt><trkpt lat="43.3492333" lon="10.612165"><ele>123.0</ele><time>2026-04-25T13:51:57.14Z</time></trkpt><trkpt lat="43.3493033" lon="10.6120217"><ele>123.0</ele><time>2026-04-25T13:51:58.125Z</time></trkpt><trkpt lat="43.3493817" lon="10.6118683"><ele>123.0</ele><time>2026-04-25T13:51:59.12Z</time></trkpt><trkpt lat="43.3494667" lon="10.6117067"><ele>125.0</ele><time>2026-04-25T13:52:00.12Z</time></trkpt><trkpt lat="43.349545" lon="10.6115417"><ele>127.0</ele><time>2026-04-25T13:52:01.122Z</time></trkpt><trkpt lat="43.3496183" lon="10.6113933"><ele>129.0</ele><time>2026-04-25T13:52:02.117Z</time></trkpt><trkpt lat="43.3496783" lon="10.6112683"><ele>131.0</ele><time>2026-04-25T13:52:03.127Z</time></trkpt><trkpt lat="43.34973" lon="10.61116"><ele>135.5</ele><time>2026-04-25T13:52:04.124Z</time></trkpt><trkpt lat="43.3497833" lon="10.6110467"><ele>140.0</ele><time>2026-04-25T13:52:05.13Z</time></trkpt><trkpt lat="43.3499133" lon="10.6107867"><ele>144.5</ele><time>2026-04-25T13:52:07.132Z</time></trkpt><trkpt lat="43.3499867" lon="10.610665"><ele>149.0</ele><time>2026-04-25T13:52:08.122Z</time></trkpt><trkpt lat="43.3500583" lon="10.610585"><ele>149.0</ele><time>2026-04-25T13:52:09.121Z</time></trkpt><trkpt lat="43.350135" lon="10.6105367"><ele>149.0</ele><time>2026-04-25T13:52:10.124Z</time></trkpt><trkpt lat="43.3502117" lon="10.6105217"><ele>149.0</ele><time>2026-04-25T13:52:11.131Z</time></trkpt><trkpt lat="43.3502917" lon="10.6105317"><ele>149.0</ele><time>2026-04-25T13:52:12.123Z</time></trkpt><trkpt lat="43.3503767" lon="10.6105367"><ele>149.0</ele><time>2026-04-25T13:52:13.125Z</time></trkpt><trkpt lat="43.3504667" lon="10.6105283"><ele>149.0</ele><time>2026-04-25T13:52:14.129Z</time></trkpt><trkpt lat="43.3505767" lon="10.610475"><ele>150.0</ele><time>2026-04-25T13:52:15.129Z</time></trkpt><trkpt lat="43.3506933" lon="10.6104033"><ele>151.0</ele><time>2026-04-25T13:52:16.119Z</time></trkpt><trkpt lat="43.3508033" lon="10.610335"><ele>152.0</ele><time>2026-04-25T13:52:17.118Z</time></trkpt><trkpt lat="43.350915" lon="10.610275"><ele>153.0</ele><time>2026-04-25T13:52:18.128Z</time></trkpt><trkpt lat="43.351025" lon="10.6102183"><ele>154.75</ele><time>2026-04-25T13:52:19.126Z</time></trkpt><trkpt lat="43.35114" lon="10.6101667"><ele>156.5</ele><time>2026-04-25T13:52:20.117Z</time></trkpt><trkpt lat="43.3512583" lon="10.6101217"><ele>158.25</ele><time>2026-04-25T13:52:21.125Z</time></trkpt><trkpt lat="43.3513717" lon="10.61009"><ele>160.0</ele><time>2026-04-25T13:52:22.12Z</time></trkpt><trkpt lat="43.35148" lon="10.6100717"><ele>160.6</ele><time>2026-04-25T13:52:23.12Z</time></trkpt><trkpt lat="43.3515783" lon="10.610065"><ele>161.2</ele><time>2026-04-25T13:52:24.118Z</time></trkpt><trkpt lat="43.3516667" lon="10.6100783"><ele>161.8</ele><time>2026-04-25T13:52:25.123Z</time></trkpt><trkpt lat="43.3517483" lon="10.6101067"><ele>162.4</ele><time>2026-04-25T13:52:26.137Z</time></trkpt><trkpt lat="43.35183" lon="10.6101533"><ele>163.0</ele><time>2026-04-25T13:52:27.133Z</time></trkpt><trkpt lat="43.35192" lon="10.61022"><ele>163.0</ele><time>2026-04-25T13:52:28.141Z</time></trkpt><trkpt lat="43.3520183" lon="10.6102933"><ele>163.0</ele><time>2026-04-25T13:52:29.122Z</time></trkpt><trkpt lat="43.3521317" lon="10.6103583"><ele>163.0</ele><time>2026-04-25T13:52:30.13Z</time></trkpt><trkpt lat="43.3522517" lon="10.610415"><ele>163.0</ele><time>2026-04-25T13:52:31.118Z</time></trkpt><trkpt lat="43.352365" lon="10.6104583"><ele>164.0</ele><time>2026-04-25T13:52:32.121Z</time></trkpt><trkpt lat="43.3524683" lon="10.6105"><ele>165.0</ele><time>2026-04-25T13:52:33.121Z</time></trkpt><trkpt lat="43.352575" lon="10.61056"><ele>166.0</ele><time>2026-04-25T13:52:34.132Z</time></trkpt><trkpt lat="43.352685" lon="10.61064"><ele>167.0</ele><time>2026-04-25T13:52:35.132Z</time></trkpt><trkpt lat="43.352795" lon="10.6107183"><ele>167.0</ele><time>2026-04-25T13:52:36.124Z</time></trkpt><trkpt lat="43.352905" lon="10.6107833"><ele>167.0</ele><time>2026-04-25T13:52:37.128Z</time></trkpt><trkpt lat="43.3530133" lon="10.61083"><ele>167.0</ele><time>2026-04-25T13:52:38.132Z</time></trkpt><trkpt lat="43.3531267" lon="10.6108567"><ele>167.0</ele><time>2026-04-25T13:52:39.119Z</time></trkpt><trkpt lat="43.353245" lon="10.6108783"><ele>167.6</ele><time>2026-04-25T13:52:40.123Z</time></trkpt><trkpt lat="43.3533633" lon="10.6109133"><ele>168.2</ele><time>2026-04-25T13:52:41.123Z</time></trkpt><trkpt lat="43.3534717" lon="10.6109517"><ele>168.8</ele><time>2026-04-25T13:52:42.135Z</time></trkpt><trkpt lat="43.3535733" lon="10.61099"><ele>169.4</ele><time>2026-04-25T13:52:43.132Z</time></trkpt><trkpt lat="43.3536683" lon="10.6110267"><ele>170.0</ele><time>2026-04-25T13:52:44.125Z</time></trkpt><trkpt lat="43.3537583" lon="10.6110633"><ele>170.0</ele><time>2026-04-25T13:52:45.133Z</time></trkpt><trkpt lat="43.3538517" lon="10.61111"><ele>170.0</ele><time>2026-04-25T13:52:46.123Z</time></trkpt><trkpt lat="43.3539567" lon="10.6111683"><ele>170.0</ele><time>2026-04-25T13:52:47.133Z</time></trkpt><trkpt lat="43.354075" lon="10.6112283"><ele>170.0</ele><time>2026-04-25T13:52:48.127Z</time></trkpt><trkpt lat="43.3542083" lon="10.6112883"><ele>173.0</ele><time>2026-04-25T13:52:49.134Z</time></trkpt><trkpt lat="43.3543483" lon="10.6113483"><ele>176.0</ele><time>2026-04-25T13:52:50.128Z</time></trkpt><trkpt lat="43.3544867" lon="10.611405"><ele>179.0</ele><time>2026-04-25T13:52:51.119Z</time></trkpt><trkpt lat="43.3546133" lon="10.6114533"><ele>182.0</ele><time>2026-04-25T13:52:52.127Z</time></trkpt><trkpt lat="43.35473" lon="10.61149"><ele>183.5</ele><time>2026-04-25T13:52:53.123Z</time></trkpt><trkpt lat="43.3548467" lon="10.6115033"><ele>185.0</ele><time>2026-04-25T13:52:54.125Z</time></trkpt><trkpt lat="43.3549633" lon="10.6115"><ele>186.5</ele><time>2026-04-25T13:52:55.126Z</time></trkpt><trkpt lat="43.3550767" lon="10.611495"><ele>188.0</ele><time>2026-04-25T13:52:56.128Z</time></trkpt><trkpt lat="43.355195" lon="10.6115033"><ele>188.0</ele><time>2026-04-25T13:52:57.136Z</time></trkpt><trkpt lat="43.3553267" lon="10.6115217"><ele>188.0</ele><time>2026-04-25T13:52:58.13Z</time></trkpt><trkpt lat="43.3554683" lon="10.6115433"><ele>188.0</ele><time>2026-04-25T13:52:59.125Z</time></trkpt><trkpt lat="43.3556233" lon="10.6115633"><ele>188.0</ele><time>2026-04-25T13:53:00.125Z</time></trkpt><trkpt lat="43.35579" lon="10.6115783"><ele>188.33333333333331</ele><time>2026-04-25T13:53:01.122Z</time></trkpt><trkpt lat="43.355965" lon="10.611585"><ele>188.66666666666666</ele><time>2026-04-25T13:53:02.134Z</time></trkpt><trkpt lat="43.356145" lon="10.6115867"><ele>189.0</ele><time>2026-04-25T13:53:03.128Z</time></trkpt><trkpt lat="43.3563233" lon="10.611595"><ele>189.66666666666666</ele><time>2026-04-25T13:53:04.133Z</time></trkpt><trkpt lat="43.3564883" lon="10.6116117"><ele>190.33333333333331</ele><time>2026-04-25T13:53:05.129Z</time></trkpt><trkpt lat="43.3566483" lon="10.6116283"><ele>191.0</ele><time>2026-04-25T13:53:06.133Z</time></trkpt><trkpt lat="43.35681" lon="10.6116333"><ele>191.0</ele><time>2026-04-25T13:53:07.131Z</time></trkpt><trkpt lat="43.357135" lon="10.611595"><ele>191.0</ele><time>2026-04-25T13:53:09.13Z</time></trkpt><trkpt lat="43.3572983" lon="10.611565"><ele>192.5</ele><time>2026-04-25T13:53:10.134Z</time></trkpt><trkpt lat="43.3574533" lon="10.61154"><ele>194.0</ele><time>2026-04-25T13:53:11.13Z</time></trkpt><trkpt lat="43.35759" lon="10.6115217"><ele>195.5</ele><time>2026-04-25T13:53:12.125Z</time></trkpt><trkpt lat="43.357715" lon="10.611505"><ele>197.0</ele><time>2026-04-25T13:53:13.126Z</time></trkpt><trkpt lat="43.3578383" lon="10.6114717"><ele>197.0</ele><time>2026-04-25T13:53:14.146Z</time></trkpt><trkpt lat="43.3579633" lon="10.6114183"><ele>197.0</ele><time>2026-04-25T13:53:15.13Z</time></trkpt><trkpt lat="43.358075" lon="10.6113567"><ele>197.0</ele><time>2026-04-25T13:53:16.128Z</time></trkpt><trkpt lat="43.3581683" lon="10.6113083"><ele>197.0</ele><time>2026-04-25T13:53:17.127Z</time></trkpt><trkpt lat="43.3582517" lon="10.6112717"><ele>197.0</ele><time>2026-04-25T13:53:18.127Z</time></trkpt><trkpt lat="43.3583417" lon="10.61124"><ele>196.5</ele><time>2026-04-25T13:53:19.127Z</time></trkpt><trkpt lat="43.3584467" lon="10.6112233"><ele>196.0</ele><time>2026-04-25T13:53:20.125Z</time></trkpt><trkpt lat="43.3585617" lon="10.61122"><ele>195.5</ele><time>2026-04-25T13:53:21.12Z</time></trkpt><trkpt lat="43.3586783" lon="10.6112267"><ele>195.0</ele><time>2026-04-25T13:53:22.129Z</time></trkpt><trkpt lat="43.358795" lon="10.6112433"><ele>194.75</ele><time>2026-04-25T13:53:23.13Z</time></trkpt><trkpt lat="43.3589133" lon="10.6112683"><ele>194.5</ele><time>2026-04-25T13:53:24.132Z</time></trkpt><trkpt lat="43.359035" lon="10.6112967"><ele>194.25</ele><time>2026-04-25T13:53:25.121Z</time></trkpt><trkpt lat="43.3591533" lon="10.6113183"><ele>194.0</ele><time>2026-04-25T13:53:26.128Z</time></trkpt><trkpt lat="43.35927" lon="10.611325"><ele>194.0</ele><time>2026-04-25T13:53:27.121Z</time></trkpt><trkpt lat="43.3593917" lon="10.6113233"><ele>194.0</ele><time>2026-04-25T13:53:28.126Z</time></trkpt><trkpt lat="43.35952" lon="10.611305"><ele>194.0</ele><time>2026-04-25T13:53:29.117Z</time></trkpt><trkpt lat="43.3596483" lon="10.611275"><ele>194.0</ele><time>2026-04-25T13:53:30.122Z</time></trkpt><trkpt lat="43.3597817" lon="10.611235"><ele>194.0</ele><time>2026-04-25T13:53:31.131Z</time></trkpt><trkpt lat="43.3599117" lon="10.6111883"><ele>194.0</ele><time>2026-04-25T13:53:32.136Z</time></trkpt><trkpt lat="43.3600383" lon="10.6111333"><ele>194.0</ele><time>2026-04-25T13:53:33.131Z</time></trkpt><trkpt lat="43.3601667" lon="10.61108"><ele>194.0</ele><time>2026-04-25T13:53:34.13Z</time></trkpt><trkpt lat="43.360295" lon="10.61103"><ele>194.0</ele><time>2026-04-25T13:53:35.142Z</time></trkpt><trkpt lat="43.36042" lon="10.6109867"><ele>194.0</ele><time>2026-04-25T13:53:36.138Z</time></trkpt><trkpt lat="43.3605433" lon="10.6109567"><ele>194.0</ele><time>2026-04-25T13:53:37.134Z</time></trkpt><trkpt lat="43.3606617" lon="10.61094"><ele>194.0</ele><time>2026-04-25T13:53:38.139Z</time></trkpt><trkpt lat="43.36088" lon="10.6109367"><ele>197.75</ele><time>2026-04-25T13:53:40.131Z</time></trkpt><trkpt lat="43.36099" lon="10.6109533"><ele>201.5</ele><time>2026-04-25T13:53:41.128Z</time></trkpt><trkpt lat="43.3610983" lon="10.6109633"><ele>205.25</ele><time>2026-04-25T13:53:42.13Z</time></trkpt><trkpt lat="43.3612117" lon="10.6109567"><ele>209.0</ele><time>2026-04-25T13:53:43.135Z</time></trkpt><trkpt lat="43.3613283" lon="10.61094"><ele>210.5</ele><time>2026-04-25T13:53:44.123Z</time></trkpt><trkpt lat="43.3614617" lon="10.6109017"><ele>212.0</ele><time>2026-04-25T13:53:45.121Z</time></trkpt><trkpt lat="43.361595" lon="10.6108467"><ele>213.5</ele><time>2026-04-25T13:53:46.122Z</time></trkpt><trkpt lat="43.3617267" lon="10.61078"><ele>215.0</ele><time>2026-04-25T13:53:47.129Z</time></trkpt><trkpt lat="43.3618567" lon="10.610705"><ele>215.0</ele><time>2026-04-25T13:53:48.123Z</time></trkpt><trkpt lat="43.3619917" lon="10.610635"><ele>215.0</ele><time>2026-04-25T13:53:49.132Z</time></trkpt><trkpt lat="43.36213" lon="10.6105767"><ele>215.0</ele><time>2026-04-25T13:53:50.12Z</time></trkpt><trkpt lat="43.3622567" lon="10.6105183"><ele>215.0</ele><time>2026-04-25T13:53:51.139Z</time></trkpt><trkpt lat="43.3623783" lon="10.61046"><ele>217.25</ele><time>2026-04-25T13:53:52.136Z</time></trkpt><trkpt lat="43.3625017" lon="10.6104067"><ele>219.5</ele><time>2026-04-25T13:53:53.135Z</time></trkpt><trkpt lat="43.3626267" lon="10.6103633"><ele>221.75</ele><time>2026-04-25T13:53:54.13Z</time></trkpt><trkpt lat="43.36275" lon="10.6103367"><ele>224.0</ele><time>2026-04-25T13:53:55.137Z</time></trkpt><trkpt lat="43.36287" lon="10.610325"><ele>224.0</ele><time>2026-04-25T13:53:56.133Z</time></trkpt><trkpt lat="43.3629817" lon="10.6103333"><ele>223.99999999999997</ele><time>2026-04-25T13:53:57.132Z</time></trkpt><trkpt lat="43.3630817" lon="10.61036"><ele>223.99999999999997</ele><time>2026-04-25T13:53:58.122Z</time></trkpt><trkpt lat="43.363175" lon="10.6103783"><ele>224.0</ele><time>2026-04-25T13:53:59.124Z</time></trkpt><trkpt lat="43.3632583" lon="10.610375"><ele>224.0</ele><time>2026-04-25T13:54:00.121Z</time></trkpt><trkpt lat="43.3633317" lon="10.6103467"><ele>223.16666666666669</ele><time>2026-04-25T13:54:01.122Z</time></trkpt><trkpt lat="43.3633933" lon="10.6102917"><ele>222.33333333333334</ele><time>2026-04-25T13:54:02.123Z</time></trkpt><trkpt lat="43.3634317" lon="10.6101983"><ele>221.5</ele><time>2026-04-25T13:54:03.119Z</time></trkpt><trkpt lat="43.3634617" lon="10.6100683"><ele>220.66666666666669</ele><time>2026-04-25T13:54:04.121Z</time></trkpt><trkpt lat="43.3634867" lon="10.6099433"><ele>219.83333333333334</ele><time>2026-04-25T13:54:05.12Z</time></trkpt><trkpt lat="43.3635167" lon="10.60983"><ele>219.0</ele><time>2026-04-25T13:54:06.128Z</time></trkpt><trkpt lat="43.3635483" lon="10.6097317"><ele>219.0</ele><time>2026-04-25T13:54:07.132Z</time></trkpt><trkpt lat="43.3635967" lon="10.60966"><ele>219.0</ele><time>2026-04-25T13:54:08.116Z</time></trkpt><trkpt lat="43.3636467" lon="10.6096017"><ele>219.0</ele><time>2026-04-25T13:54:09.123Z</time></trkpt><trkpt lat="43.3637083" lon="10.6095667"><ele>219.0</ele><time>2026-04-25T13:54:10.123Z</time></trkpt><trkpt lat="43.36378" lon="10.6095517"><ele>219.0</ele><time>2026-04-25T13:54:11.121Z</time></trkpt><trkpt lat="43.3638617" lon="10.6095533"><ele>219.0</ele><time>2026-04-25T13:54:12.121Z</time></trkpt><trkpt lat="43.36396" lon="10.6095583"><ele>220.75</ele><time>2026-04-25T13:54:13.133Z</time></trkpt><trkpt lat="43.3640817" lon="10.6095717"><ele>222.5</ele><time>2026-04-25T13:54:14.126Z</time></trkpt><trkpt lat="43.36421" lon="10.60958"><ele>224.25</ele><time>2026-04-25T13:54:15.119Z</time></trkpt><trkpt lat="43.3643433" lon="10.60958"><ele>226.0</ele><time>2026-04-25T13:54:16.13Z</time></trkpt><trkpt lat="43.364475" lon="10.6095767"><ele>226.0</ele><time>2026-04-25T13:54:17.118Z</time></trkpt><trkpt lat="43.364605" lon="10.6095717"><ele>226.0</ele><time>2026-04-25T13:54:18.126Z</time></trkpt><trkpt lat="43.3647283" lon="10.6095667"><ele>226.0</ele><time>2026-04-25T13:54:19.13Z</time></trkpt><trkpt lat="43.3648517" lon="10.6095633"><ele>226.0</ele><time>2026-04-25T13:54:20.116Z</time></trkpt><trkpt lat="43.3649817" lon="10.6095667"><ele>225.0</ele><time>2026-04-25T13:54:21.118Z</time></trkpt><trkpt lat="43.3651033" lon="10.6095883"><ele>224.0</ele><time>2026-04-25T13:54:22.118Z</time></trkpt><trkpt lat="43.36522" lon="10.60964"><ele>223.0</ele><time>2026-04-25T13:54:23.119Z</time></trkpt><trkpt lat="43.3653333" lon="10.609695"><ele>222.0</ele><time>2026-04-25T13:54:24.12Z</time></trkpt><trkpt lat="43.3654383" lon="10.60974"><ele>219.2</ele><time>2026-04-25T13:54:25.125Z</time></trkpt><trkpt lat="43.3655417" lon="10.60979"><ele>216.39999999999998</ele><time>2026-04-25T13:54:26.124Z</time></trkpt><trkpt lat="43.365645" lon="10.6098467"><ele>213.60000000000002</ele><time>2026-04-25T13:54:27.125Z</time></trkpt><trkpt lat="43.3657469" lon="10.6099039"><ele>210.8</ele><time>2026-04-25T13:54:28.117Z</time></trkpt><trkpt lat="43.3658507" lon="10.6099462"><ele>208.0</ele><time>2026-04-25T13:54:29.129Z</time></trkpt><trkpt lat="43.3659518" lon="10.6099611"><ele>208.0</ele><time>2026-04-25T13:54:30.127Z</time></trkpt><trkpt lat="43.3660575" lon="10.6099468"><ele>208.0</ele><time>2026-04-25T13:54:31.133Z</time></trkpt><trkpt lat="43.3661639" lon="10.6099131"><ele>208.0</ele><time>2026-04-25T13:54:32.119Z</time></trkpt><trkpt lat="43.3662687" lon="10.6098759"><ele>208.0</ele><time>2026-04-25T13:54:33.133Z</time></trkpt><trkpt lat="43.3663737" lon="10.6098541"><ele>208.0</ele><time>2026-04-25T13:54:34.127Z</time></trkpt><trkpt lat="43.3664816" lon="10.6098554"><ele>207.8</ele><time>2026-04-25T13:54:35.131Z</time></trkpt><trkpt lat="43.3665915" lon="10.6098722"><ele>207.60000000000002</ele><time>2026-04-25T13:54:36.122Z</time></trkpt><trkpt lat="43.3667007" lon="10.6099011"><ele>207.39999999999998</ele><time>2026-04-25T13:54:37.128Z</time></trkpt><trkpt lat="43.3668072" lon="10.6099384"><ele>207.2</ele><time>2026-04-25T13:54:38.118Z</time></trkpt><trkpt lat="43.3669058" lon="10.6099833"><ele>207.0</ele><time>2026-04-25T13:54:39.125Z</time></trkpt><trkpt lat="43.3669922" lon="10.6100439"><ele>207.0</ele><time>2026-04-25T13:54:40.128Z</time></trkpt><trkpt lat="43.3670673" lon="10.6101249"><ele>207.0</ele><time>2026-04-25T13:54:41.119Z</time></trkpt><trkpt lat="43.3671354" lon="10.6102205"><ele>207.0</ele><time>2026-04-25T13:54:42.131Z</time></trkpt><trkpt lat="43.3672097" lon="10.6103121"><ele>207.0</ele><time>2026-04-25T13:54:43.126Z</time></trkpt><trkpt lat="43.3673017" lon="10.6103842"><ele>207.0</ele><time>2026-04-25T13:54:44.126Z</time></trkpt><trkpt lat="43.367399" lon="10.6104343"><ele>208.33333333333334</ele><time>2026-04-25T13:54:45.121Z</time></trkpt><trkpt lat="43.3674876" lon="10.6104736"><ele>209.66666666666669</ele><time>2026-04-25T13:54:46.13Z</time></trkpt><trkpt lat="43.3675677" lon="10.6105048"><ele>211.0</ele><time>2026-04-25T13:54:47.123Z</time></trkpt><trkpt lat="43.3676481" lon="10.6105265"><ele>212.33333333333334</ele><time>2026-04-25T13:54:48.131Z</time></trkpt><trkpt lat="43.3677335" lon="10.6105472"><ele>213.66666666666669</ele><time>2026-04-25T13:54:49.136Z</time></trkpt><trkpt lat="43.367823" lon="10.6105734"><ele>215.0</ele><time>2026-04-25T13:54:50.122Z</time></trkpt><trkpt lat="43.3679159" lon="10.6106065"><ele>215.0</ele><time>2026-04-25T13:54:51.132Z</time></trkpt><trkpt lat="43.3680086" lon="10.6106415"><ele>215.0</ele><time>2026-04-25T13:54:52.132Z</time></trkpt><trkpt lat="43.3681033" lon="10.6106861"><ele>215.0</ele><time>2026-04-25T13:54:53.123Z</time></trkpt><trkpt lat="43.3681994" lon="10.610733"><ele>215.0</ele><time>2026-04-25T13:54:54.13Z</time></trkpt><trkpt lat="43.3682943" lon="10.6107736"><ele>215.0</ele><time>2026-04-25T13:54:55.13Z</time></trkpt><trkpt lat="43.3683824" lon="10.6108"><ele>214.83333333333334</ele><time>2026-04-25T13:54:56.12Z</time></trkpt><trkpt lat="43.3684671" lon="10.6107986"><ele>214.66666666666669</ele><time>2026-04-25T13:54:57.128Z</time></trkpt><trkpt lat="43.3685555" lon="10.6107687"><ele>214.5</ele><time>2026-04-25T13:54:58.13Z</time></trkpt><trkpt lat="43.3686437" lon="10.6107287"><ele>214.33333333333331</ele><time>2026-04-25T13:54:59.132Z</time></trkpt><trkpt lat="43.3687266" lon="10.6106946"><ele>214.16666666666666</ele><time>2026-04-25T13:55:00.13Z</time></trkpt><trkpt lat="43.3688098" lon="10.6106752"><ele>214.0</ele><time>2026-04-25T13:55:01.131Z</time></trkpt><trkpt lat="43.3688928" lon="10.6106722"><ele>214.0</ele><time>2026-04-25T13:55:02.134Z</time></trkpt><trkpt lat="43.3689733" lon="10.6106779"><ele>213.99999999999997</ele><time>2026-04-25T13:55:03.136Z</time></trkpt><trkpt lat="43.3690553" lon="10.6106728"><ele>213.99999999999997</ele><time>2026-04-25T13:55:04.129Z</time></trkpt><trkpt lat="43.3691386" lon="10.6106488"><ele>214.0</ele><time>2026-04-25T13:55:05.132Z</time></trkpt><trkpt lat="43.3692332" lon="10.610599"><ele>214.0</ele><time>2026-04-25T13:55:06.13Z</time></trkpt><trkpt lat="43.3693309" lon="10.6104977"><ele>214.0</ele><time>2026-04-25T13:55:07.133Z</time></trkpt><trkpt lat="43.3694214" lon="10.6103779"><ele>214.0</ele><time>2026-04-25T13:55:08.123Z</time></trkpt><trkpt lat="43.369508" lon="10.6102541"><ele>214.0</ele><time>2026-04-25T13:55:09.129Z</time></trkpt><trkpt lat="43.3695877" lon="10.6101323"><ele>214.0</ele><time>2026-04-25T13:55:10.135Z</time></trkpt><trkpt lat="43.3696623" lon="10.6100152"><ele>215.0</ele><time>2026-04-25T13:55:11.119Z</time></trkpt><trkpt lat="43.3697319" lon="10.6099013"><ele>215.99999999999997</ele><time>2026-04-25T13:55:12.137Z</time></trkpt><trkpt lat="43.3697967" lon="10.609797"><ele>216.99999999999997</ele><time>2026-04-25T13:55:13.137Z</time></trkpt><trkpt lat="43.369871" lon="10.6096974"><ele>218.0</ele><time>2026-04-25T13:55:14.133Z</time></trkpt><trkpt lat="43.3699619" lon="10.6096034"><ele>219.0</ele><time>2026-04-25T13:55:15.13Z</time></trkpt><trkpt lat="43.3700639" lon="10.6095079"><ele>218.0</ele><time>2026-04-25T13:55:16.132Z</time></trkpt><trkpt lat="43.3701744" lon="10.6094065"><ele>217.0</ele><time>2026-04-25T13:55:17.131Z</time></trkpt><trkpt lat="43.370288" lon="10.6092937"><ele>216.0</ele><time>2026-04-25T13:55:18.127Z</time></trkpt><trkpt lat="43.3703897" lon="10.6091589"><ele>215.0</ele><time>2026-04-25T13:55:19.128Z</time></trkpt><trkpt lat="43.370479" lon="10.6090193"><ele>215.75</ele><time>2026-04-25T13:55:20.129Z</time></trkpt><trkpt lat="43.3705591" lon="10.6088921"><ele>216.5</ele><time>2026-04-25T13:55:21.122Z</time></trkpt><trkpt lat="43.3706428" lon="10.6087893"><ele>217.25</ele><time>2026-04-25T13:55:22.132Z</time></trkpt><trkpt lat="43.3707331" lon="10.6087113"><ele>218.0</ele><time>2026-04-25T13:55:23.129Z</time></trkpt><trkpt lat="43.3708412" lon="10.6086497"><ele>218.0</ele><time>2026-04-25T13:55:24.135Z</time></trkpt><trkpt lat="43.3709686" lon="10.6085934"><ele>218.0</ele><time>2026-04-25T13:55:25.132Z</time></trkpt><trkpt lat="43.3711038" lon="10.6085474"><ele>218.0</ele><time>2026-04-25T13:55:26.124Z</time></trkpt><trkpt lat="43.371232" lon="10.6085194"><ele>218.0</ele><time>2026-04-25T13:55:27.129Z</time></trkpt><trkpt lat="43.3713432" lon="10.6085129"><ele>219.50000000000003</ele><time>2026-04-25T13:55:28.133Z</time></trkpt><trkpt lat="43.3714369" lon="10.6085365"><ele>221.0</ele><time>2026-04-25T13:55:29.136Z</time></trkpt><trkpt lat="43.3715159" lon="10.6085925"><ele>222.5</ele><time>2026-04-25T13:55:30.129Z</time></trkpt><trkpt lat="43.3715844" lon="10.608663"><ele>224.0</ele><time>2026-04-25T13:55:31.13Z</time></trkpt><trkpt lat="43.3716474" lon="10.6087237"><ele>225.50000000000003</ele><time>2026-04-25T13:55:32.127Z</time></trkpt><trkpt lat="43.3717072" lon="10.6087662"><ele>227.0</ele><time>2026-04-25T13:55:33.126Z</time></trkpt><trkpt lat="43.371799" lon="10.6087402"><ele>227.0</ele><time>2026-04-25T13:55:35.12Z</time></trkpt><trkpt lat="43.3718372" lon="10.608662"><ele>227.0</ele><time>2026-04-25T13:55:36.122Z</time></trkpt><trkpt lat="43.3718765" lon="10.6085256"><ele>227.0</ele><time>2026-04-25T13:55:37.118Z</time></trkpt><trkpt lat="43.3719061" lon="10.6083509"><ele>227.0</ele><time>2026-04-25T13:55:38.126Z</time></trkpt><trkpt lat="43.3719024" lon="10.6081398"><ele>227.0</ele><time>2026-04-25T13:55:39.135Z</time></trkpt><trkpt lat="43.3718582" lon="10.6079183"><ele>227.0</ele><time>2026-04-25T13:55:40.117Z</time></trkpt><trkpt lat="43.3717982" lon="10.6077109"><ele>227.0</ele><time>2026-04-25T13:55:41.129Z</time></trkpt><trkpt lat="43.3717432" lon="10.6075235"><ele>227.5</ele><time>2026-04-25T13:55:42.125Z</time></trkpt><trkpt lat="43.3717101" lon="10.6073597"><ele>228.0</ele><time>2026-04-25T13:55:43.131Z</time></trkpt><trkpt lat="43.3717026" lon="10.6071945"><ele>228.5</ele><time>2026-04-25T13:55:44.127Z</time></trkpt><trkpt lat="43.3717002" lon="10.6070055"><ele>229.0</ele><time>2026-04-25T13:55:45.133Z</time></trkpt><trkpt lat="43.3716811" lon="10.6067943"><ele>231.33333333333331</ele><time>2026-04-25T13:55:46.124Z</time></trkpt><trkpt lat="43.371651" lon="10.6065699"><ele>233.66666666666669</ele><time>2026-04-25T13:55:47.122Z</time></trkpt><trkpt lat="43.3716268" lon="10.6063486"><ele>236.0</ele><time>2026-04-25T13:55:48.125Z</time></trkpt><trkpt lat="43.3716106" lon="10.6061407"><ele>236.75</ele><time>2026-04-25T13:55:49.131Z</time></trkpt><trkpt lat="43.3715896" lon="10.6059496"><ele>237.5</ele><time>2026-04-25T13:55:50.128Z</time></trkpt><trkpt lat="43.3715567" lon="10.6057783"><ele>238.25</ele><time>2026-04-25T13:55:51.125Z</time></trkpt><trkpt lat="43.3715036" lon="10.6056282"><ele>239.0</ele><time>2026-04-25T13:55:52.127Z</time></trkpt><trkpt lat="43.371428" lon="10.6054943"><ele>238.5</ele><time>2026-04-25T13:55:53.135Z</time></trkpt><trkpt lat="43.3713343" lon="10.6053794"><ele>238.0</ele><time>2026-04-25T13:55:54.121Z</time></trkpt><trkpt lat="43.3712208" lon="10.605282"><ele>237.5</ele><time>2026-04-25T13:55:55.123Z</time></trkpt><trkpt lat="43.3710851" lon="10.6051935"><ele>237.0</ele><time>2026-04-25T13:55:56.12Z</time></trkpt><trkpt lat="43.3709381" lon="10.6051051"><ele>237.0</ele><time>2026-04-25T13:55:57.125Z</time></trkpt><trkpt lat="43.3707838" lon="10.6050164"><ele>237.0</ele><time>2026-04-25T13:55:58.128Z</time></trkpt><trkpt lat="43.3706334" lon="10.6049285"><ele>237.0</ele><time>2026-04-25T13:55:59.126Z</time></trkpt><trkpt lat="43.3704998" lon="10.6048492"><ele>233.5</ele><time>2026-04-25T13:56:00.127Z</time></trkpt><trkpt lat="43.3703791" lon="10.6047763"><ele>230.0</ele><time>2026-04-25T13:56:01.112Z</time></trkpt><trkpt lat="43.3702596" lon="10.6047019"><ele>226.5</ele><time>2026-04-25T13:56:02.111Z</time></trkpt><trkpt lat="43.3701359" lon="10.6046151"><ele>223.0</ele><time>2026-04-25T13:56:03.118Z</time></trkpt><trkpt lat="43.3700144" lon="10.6045101"><ele>221.5</ele><time>2026-04-25T13:56:04.123Z</time></trkpt><trkpt lat="43.3699002" lon="10.6043877"><ele>220.0</ele><time>2026-04-25T13:56:05.131Z</time></trkpt><trkpt lat="43.3697947" lon="10.6042526"><ele>218.5</ele><time>2026-04-25T13:56:06.125Z</time></trkpt><trkpt lat="43.3697012" lon="10.6041052"><ele>217.0</ele><time>2026-04-25T13:56:07.119Z</time></trkpt><trkpt lat="43.3696233" lon="10.6039483"><ele>216.99999999999997</ele><time>2026-04-25T13:56:08.121Z</time></trkpt><trkpt lat="43.36955" lon="10.6038117"><ele>217.0</ele><time>2026-04-25T13:56:09.136Z</time></trkpt><trkpt lat="43.369485" lon="10.6036983"><ele>217.0</ele><time>2026-04-25T13:56:10.127Z</time></trkpt><trkpt lat="43.3694333" lon="10.6036067"><ele>217.0</ele><time>2026-04-25T13:56:11.126Z</time></trkpt><trkpt lat="43.36939" lon="10.6035417"><ele>216.99999999999997</ele><time>2026-04-25T13:56:12.122Z</time></trkpt><trkpt lat="43.36935" lon="10.6034633"><ele>217.0</ele><time>2026-04-25T13:56:14.123Z</time></trkpt><trkpt lat="43.3693433" lon="10.6033617"><ele>219.33333333333331</ele><time>2026-04-25T13:56:27.133Z</time></trkpt><trkpt lat="43.36928" lon="10.60329"><ele>221.66666666666666</ele><time>2026-04-25T13:56:29.128Z</time></trkpt><trkpt lat="43.3692017" lon="10.6031983"><ele>224.0</ele><time>2026-04-25T13:56:31.13Z</time></trkpt><trkpt lat="43.3691283" lon="10.603115"><ele>226.33333333333331</ele><time>2026-04-25T13:56:33.123Z</time></trkpt><trkpt lat="43.3690683" lon="10.6030633"><ele>228.66666666666666</ele><time>2026-04-25T13:56:35.125Z</time></trkpt><trkpt lat="43.369" lon="10.6029933"><ele>231.0</ele><time>2026-04-25T13:56:39.146Z</time></trkpt><trkpt lat="43.3689517" lon="10.602925"><ele>231.0</ele><time>2026-04-25T13:56:42.135Z</time></trkpt><trkpt lat="43.3688017" lon="10.602825"><ele>231.00000000000003</ele><time>2026-04-25T14:00:36.121Z</time></trkpt><trkpt lat="43.3687333" lon="10.6028033"><ele>231.00000000000003</ele><time>2026-04-25T14:00:38.121Z</time></trkpt><trkpt lat="43.3686417" lon="10.6027533"><ele>231.0</ele><time>2026-04-25T14:00:40.126Z</time></trkpt><trkpt lat="43.3685817" lon="10.602715"><ele>231.0</ele><time>2026-04-25T14:00:41.118Z</time></trkpt><trkpt lat="43.3685083" lon="10.6026683"><ele>231.0</ele><time>2026-04-25T14:00:42.133Z</time></trkpt><trkpt lat="43.3684317" lon="10.6026183"><ele>231.00000000000003</ele><time>2026-04-25T14:00:43.135Z</time></trkpt><trkpt lat="43.3683517" lon="10.602565"><ele>231.00000000000003</ele><time>2026-04-25T14:00:44.133Z</time></trkpt><trkpt lat="43.368265" lon="10.602505"><ele>231.0</ele><time>2026-04-25T14:00:45.128Z</time></trkpt><trkpt lat="43.36818" lon="10.602445"><ele>231.0</ele><time>2026-04-25T14:00:46.122Z</time></trkpt><trkpt lat="43.3680083" lon="10.6023133"><ele>231.5</ele><time>2026-04-25T14:00:48.121Z</time></trkpt><trkpt lat="43.3679233" lon="10.6022533"><ele>232.0</ele><time>2026-04-25T14:00:49.141Z</time></trkpt><trkpt lat="43.36785" lon="10.602205"><ele>232.5</ele><time>2026-04-25T14:00:50.132Z</time></trkpt><trkpt lat="43.367785" lon="10.602155"><ele>233.0</ele><time>2026-04-25T14:00:51.132Z</time></trkpt><trkpt lat="43.36772" lon="10.60211"><ele>233.5</ele><time>2026-04-25T14:00:52.128Z</time></trkpt><trkpt lat="43.36766" lon="10.6020667"><ele>234.0</ele><time>2026-04-25T14:00:53.126Z</time></trkpt><trkpt lat="43.3676033" lon="10.602025"><ele>232.83333333333334</ele><time>2026-04-25T14:00:54.128Z</time></trkpt><trkpt lat="43.3675483" lon="10.6019817"><ele>231.66666666666669</ele><time>2026-04-25T14:00:55.124Z</time></trkpt><trkpt lat="43.3674933" lon="10.6019383"><ele>230.5</ele><time>2026-04-25T14:00:56.128Z</time></trkpt><trkpt lat="43.3673867" lon="10.6018517"><ele>229.33333333333334</ele><time>2026-04-25T14:00:58.138Z</time></trkpt><trkpt lat="43.36733" lon="10.60181"><ele>228.16666666666669</ele><time>2026-04-25T14:00:59.119Z</time></trkpt><trkpt lat="43.3672317" lon="10.60174"><ele>227.0</ele><time>2026-04-25T14:01:01.121Z</time></trkpt><trkpt lat="43.3671767" lon="10.60169"><ele>226.8</ele><time>2026-04-25T14:01:03.117Z</time></trkpt><trkpt lat="43.3672517" lon="10.6017733"><ele>226.6</ele><time>2026-04-25T14:01:23.126Z</time></trkpt><trkpt lat="43.367365" lon="10.601855"><ele>226.40000000000003</ele><time>2026-04-25T14:01:25.119Z</time></trkpt><trkpt lat="43.367425" lon="10.6018983"><ele>226.20000000000002</ele><time>2026-04-25T14:01:26.118Z</time></trkpt><trkpt lat="43.3674833" lon="10.6019383"><ele>226.0</ele><time>2026-04-25T14:01:27.122Z</time></trkpt><trkpt lat="43.36757" lon="10.6020067"><ele>227.33333333333331</ele><time>2026-04-25T14:01:29.123Z</time></trkpt><trkpt lat="43.367625" lon="10.6020583"><ele>228.66666666666666</ele><time>2026-04-25T14:01:31.126Z</time></trkpt><trkpt lat="43.367685" lon="10.6021067"><ele>230.0</ele><time>2026-04-25T14:01:33.124Z</time></trkpt><trkpt lat="43.367755" lon="10.6021533"><ele>231.33333333333331</ele><time>2026-04-25T14:01:36.136Z</time></trkpt><trkpt lat="43.3678417" lon="10.6022067"><ele>232.66666666666666</ele><time>2026-04-25T14:01:39.126Z</time></trkpt><trkpt lat="43.3679083" lon="10.60225"><ele>234.0</ele><time>2026-04-25T14:01:41.123Z</time></trkpt><trkpt lat="43.3679717" lon="10.6022983"><ele>233.5</ele><time>2026-04-25T14:01:43.132Z</time></trkpt><trkpt lat="43.3680333" lon="10.6023483"><ele>233.0</ele><time>2026-04-25T14:01:45.125Z</time></trkpt><trkpt lat="43.368105" lon="10.6024117"><ele>232.5</ele><time>2026-04-25T14:01:47.125Z</time></trkpt><trkpt lat="43.3681783" lon="10.6024767"><ele>232.0</ele><time>2026-04-25T14:01:49.122Z</time></trkpt><trkpt lat="43.3682717" lon="10.6025383"><ele>231.5</ele><time>2026-04-25T14:01:51.121Z</time></trkpt><trkpt lat="43.3683617" lon="10.602595"><ele>231.0</ele><time>2026-04-25T14:01:53.119Z</time></trkpt><trkpt lat="43.368465" lon="10.6026633"><ele>231.0</ele><time>2026-04-25T14:01:55.135Z</time></trkpt><trkpt lat="43.3685683" lon="10.6027333"><ele>231.00000000000003</ele><time>2026-04-25T14:01:57.127Z</time></trkpt><trkpt lat="43.3686283" lon="10.6027733"><ele>231.00000000000003</ele><time>2026-04-25T14:01:58.124Z</time></trkpt><trkpt lat="43.368705" lon="10.6028183"><ele>231.0</ele><time>2026-04-25T14:01:59.125Z</time></trkpt><trkpt lat="43.3687983" lon="10.60286"><ele>231.0</ele><time>2026-04-25T14:02:00.138Z</time></trkpt><trkpt lat="43.3688967" lon="10.6028883"><ele>231.0</ele><time>2026-04-25T14:02:01.13Z</time></trkpt><trkpt lat="43.368995" lon="10.6028933"><ele>231.00000000000003</ele><time>2026-04-25T14:02:02.117Z</time></trkpt><trkpt lat="43.3690883" lon="10.6028667"><ele>231.00000000000003</ele><time>2026-04-25T14:02:03.125Z</time></trkpt><trkpt lat="43.369185" lon="10.6028183"><ele>231.0</ele><time>2026-04-25T14:02:04.124Z</time></trkpt><trkpt lat="43.3692767" lon="10.6027433"><ele>231.0</ele><time>2026-04-25T14:02:05.117Z</time></trkpt><trkpt lat="43.36936" lon="10.6026517"><ele>231.4</ele><time>2026-04-25T14:02:06.13Z</time></trkpt><trkpt lat="43.36944" lon="10.60255"><ele>231.8</ele><time>2026-04-25T14:02:07.137Z</time></trkpt><trkpt lat="43.36952" lon="10.6024533"><ele>232.20000000000002</ele><time>2026-04-25T14:02:08.128Z</time></trkpt><trkpt lat="43.369605" lon="10.6023633"><ele>232.60000000000002</ele><time>2026-04-25T14:02:09.124Z</time></trkpt><trkpt lat="43.3696933" lon="10.6022833"><ele>233.0</ele><time>2026-04-25T14:02:10.12Z</time></trkpt><trkpt lat="43.3697833" lon="10.6022167"><ele>234.0</ele><time>2026-04-25T14:02:11.132Z</time></trkpt><trkpt lat="43.3698917" lon="10.6021617"><ele>235.0</ele><time>2026-04-25T14:02:12.128Z</time></trkpt><trkpt lat="43.3700067" lon="10.6021117"><ele>236.0</ele><time>2026-04-25T14:02:13.133Z</time></trkpt><trkpt lat="43.3701333" lon="10.6020567"><ele>237.0</ele><time>2026-04-25T14:02:14.118Z</time></trkpt><trkpt lat="43.370275" lon="10.601985"><ele>237.0</ele><time>2026-04-25T14:02:15.128Z</time></trkpt><trkpt lat="43.37042" lon="10.6019167"><ele>237.0</ele><time>2026-04-25T14:02:16.13Z</time></trkpt><trkpt lat="43.3705517" lon="10.6018617"><ele>237.0</ele><time>2026-04-25T14:02:17.124Z</time></trkpt><trkpt lat="43.3706733" lon="10.6017917"><ele>237.0</ele><time>2026-04-25T14:02:18.117Z</time></trkpt><trkpt lat="43.370795" lon="10.6017033"><ele>238.0</ele><time>2026-04-25T14:02:19.12Z</time></trkpt><trkpt lat="43.37091" lon="10.601605"><ele>239.0</ele><time>2026-04-25T14:02:20.123Z</time></trkpt><trkpt lat="43.3710083" lon="10.6015083"><ele>240.0</ele><time>2026-04-25T14:02:21.122Z</time></trkpt><trkpt lat="43.3710833" lon="10.6014083"><ele>241.0</ele><time>2026-04-25T14:02:22.121Z</time></trkpt><trkpt lat="43.371135" lon="10.6012883"><ele>240.0</ele><time>2026-04-25T14:02:23.135Z</time></trkpt><trkpt lat="43.3711633" lon="10.601145"><ele>239.0</ele><time>2026-04-25T14:02:24.127Z</time></trkpt><trkpt lat="43.3711783" lon="10.600985"><ele>238.0</ele><time>2026-04-25T14:02:25.125Z</time></trkpt><trkpt lat="43.3711917" lon="10.600805"><ele>237.0</ele><time>2026-04-25T14:02:26.116Z</time></trkpt><trkpt lat="43.3712033" lon="10.600605"><ele>237.0</ele><time>2026-04-25T14:02:27.125Z</time></trkpt><trkpt lat="43.3712167" lon="10.6004033"><ele>237.0</ele><time>2026-04-25T14:02:28.123Z</time></trkpt><trkpt lat="43.3712317" lon="10.6002083"><ele>237.0</ele><time>2026-04-25T14:02:29.121Z</time></trkpt><trkpt lat="43.3712433" lon="10.6000367"><ele>237.0</ele><time>2026-04-25T14:02:30.12Z</time></trkpt><trkpt lat="43.37125" lon="10.5998767"><ele>236.8</ele><time>2026-04-25T14:02:31.126Z</time></trkpt><trkpt lat="43.37126" lon="10.5997383"><ele>236.6</ele><time>2026-04-25T14:02:32.128Z</time></trkpt><trkpt lat="43.3712767" lon="10.5996167"><ele>236.40000000000003</ele><time>2026-04-25T14:02:33.119Z</time></trkpt><trkpt lat="43.3713083" lon="10.5995033"><ele>236.20000000000002</ele><time>2026-04-25T14:02:34.125Z</time></trkpt><trkpt lat="43.371355" lon="10.5993933"><ele>236.0</ele><time>2026-04-25T14:02:35.123Z</time></trkpt><trkpt lat="43.37144" lon="10.5992883"><ele>240.5</ele><time>2026-04-25T14:02:36.125Z</time></trkpt><trkpt lat="43.3715267" lon="10.599165"><ele>245.0</ele><time>2026-04-25T14:02:37.122Z</time></trkpt><trkpt lat="43.3716" lon="10.5990283"><ele>249.5</ele><time>2026-04-25T14:02:38.116Z</time></trkpt><trkpt lat="43.3716517" lon="10.5988683"><ele>254.0</ele><time>2026-04-25T14:02:39.131Z</time></trkpt><trkpt lat="43.3716767" lon="10.5986967"><ele>254.25</ele><time>2026-04-25T14:02:40.119Z</time></trkpt><trkpt lat="43.3716767" lon="10.598515"><ele>254.5</ele><time>2026-04-25T14:02:41.117Z</time></trkpt><trkpt lat="43.371655" lon="10.598335"><ele>254.75</ele><time>2026-04-25T14:02:42.129Z</time></trkpt><trkpt lat="43.37162" lon="10.5981833"><ele>255.0</ele><time>2026-04-25T14:02:43.126Z</time></trkpt><trkpt lat="43.3715883" lon="10.5980667"><ele>255.0</ele><time>2026-04-25T14:02:44.119Z</time></trkpt><trkpt lat="43.3715717" lon="10.597955"><ele>255.0</ele><time>2026-04-25T14:02:45.121Z</time></trkpt><trkpt lat="43.3715783" lon="10.5978467"><ele>255.0</ele><time>2026-04-25T14:02:46.135Z</time></trkpt><trkpt lat="43.3715983" lon="10.59773"><ele>255.0</ele><time>2026-04-25T14:02:47.13Z</time></trkpt><trkpt lat="43.3716417" lon="10.5975983"><ele>255.0</ele><time>2026-04-25T14:02:48.127Z</time></trkpt><trkpt lat="43.3717217" lon="10.5974683"><ele>255.0</ele><time>2026-04-25T14:02:49.132Z</time></trkpt><trkpt lat="43.37188" lon="10.59733"><ele>255.0</ele><time>2026-04-25T14:02:51.129Z</time></trkpt><trkpt lat="43.3719567" lon="10.5973383"><ele>255.0</ele><time>2026-04-25T14:02:52.127Z</time></trkpt><trkpt lat="43.372035" lon="10.59739"><ele>255.0</ele><time>2026-04-25T14:02:53.119Z</time></trkpt><trkpt lat="43.372105" lon="10.597495"><ele>255.0</ele><time>2026-04-25T14:02:54.127Z</time></trkpt><trkpt lat="43.372155" lon="10.5976667"><ele>255.0</ele><time>2026-04-25T14:02:55.121Z</time></trkpt><trkpt lat="43.3721833" lon="10.597855"><ele>255.0</ele><time>2026-04-25T14:02:56.128Z</time></trkpt><trkpt lat="43.3722033" lon="10.5980467"><ele>255.0</ele><time>2026-04-25T14:02:57.127Z</time></trkpt><trkpt lat="43.372215" lon="10.5982283"><ele>255.5</ele><time>2026-04-25T14:02:58.136Z</time></trkpt><trkpt lat="43.372225" lon="10.598405"><ele>256.0</ele><time>2026-04-25T14:02:59.134Z</time></trkpt><trkpt lat="43.3722567" lon="10.5985617"><ele>256.5</ele><time>2026-04-25T14:03:00.12Z</time></trkpt><trkpt lat="43.372315" lon="10.5986983"><ele>257.0</ele><time>2026-04-25T14:03:01.112Z</time></trkpt><trkpt lat="43.3724017" lon="10.5988033"><ele>258.5</ele><time>2026-04-25T14:03:02.116Z</time></trkpt><trkpt lat="43.3725083" lon="10.5988933"><ele>260.0</ele><time>2026-04-25T14:03:03.11Z</time></trkpt><trkpt lat="43.37263" lon="10.5989783"><ele>261.5</ele><time>2026-04-25T14:03:04.108Z</time></trkpt><trkpt lat="43.3727633" lon="10.5990633"><ele>263.0</ele><time>2026-04-25T14:03:05.113Z</time></trkpt><trkpt lat="43.3728983" lon="10.599145"><ele>263.0</ele><time>2026-04-25T14:03:06.117Z</time></trkpt><trkpt lat="43.3730183" lon="10.5992133"><ele>263.0</ele><time>2026-04-25T14:03:07.118Z</time></trkpt><trkpt lat="43.373135" lon="10.5992567"><ele>263.0</ele><time>2026-04-25T14:03:08.12Z</time></trkpt><trkpt lat="43.373255" lon="10.59927"><ele>263.0</ele><time>2026-04-25T14:03:09.127Z</time></trkpt><trkpt lat="43.3733783" lon="10.5992467"><ele>263.5</ele><time>2026-04-25T14:03:10.123Z</time></trkpt><trkpt lat="43.3734983" lon="10.59919"><ele>264.0</ele><time>2026-04-25T14:03:11.118Z</time></trkpt><trkpt lat="43.3736017" lon="10.5991033"><ele>264.5</ele><time>2026-04-25T14:03:12.129Z</time></trkpt><trkpt lat="43.3736867" lon="10.5989917"><ele>265.0</ele><time>2026-04-25T14:03:13.139Z</time></trkpt><trkpt lat="43.37375" lon="10.5988617"><ele>265.0</ele><time>2026-04-25T14:03:14.119Z</time></trkpt><trkpt lat="43.3738033" lon="10.5987333"><ele>265.0</ele><time>2026-04-25T14:03:15.133Z</time></trkpt><trkpt lat="43.3738617" lon="10.598625"><ele>265.0</ele><time>2026-04-25T14:03:16.117Z</time></trkpt><trkpt lat="43.3739367" lon="10.5985483"><ele>265.0</ele><time>2026-04-25T14:03:17.126Z</time></trkpt><trkpt lat="43.3740283" lon="10.5985067"><ele>265.0</ele><time>2026-04-25T14:03:18.121Z</time></trkpt><trkpt lat="43.374135" lon="10.5985067"><ele>263.0</ele><time>2026-04-25T14:03:19.124Z</time></trkpt><trkpt lat="43.3742467" lon="10.59856"><ele>261.0</ele><time>2026-04-25T14:03:20.116Z</time></trkpt><trkpt lat="43.3744617" lon="10.598765"><ele>259.0</ele><time>2026-04-25T14:03:22.118Z</time></trkpt><trkpt lat="43.37457" lon="10.5988683"><ele>262.5</ele><time>2026-04-25T14:03:23.123Z</time></trkpt><trkpt lat="43.3746933" lon="10.5989317"><ele>266.0</ele><time>2026-04-25T14:03:24.128Z</time></trkpt><trkpt lat="43.3748467" lon="10.59895"><ele>269.5</ele><time>2026-04-25T14:03:25.132Z</time></trkpt><trkpt lat="43.37501" lon="10.5989683"><ele>273.0</ele><time>2026-04-25T14:03:26.123Z</time></trkpt><trkpt lat="43.3751733" lon="10.5990067"><ele>273.0</ele><time>2026-04-25T14:03:27.134Z</time></trkpt><trkpt lat="43.3753267" lon="10.599075"><ele>273.0</ele><time>2026-04-25T14:03:28.125Z</time></trkpt><trkpt lat="43.375475" lon="10.5991583"><ele>273.0</ele><time>2026-04-25T14:03:29.12Z</time></trkpt><trkpt lat="43.375625" lon="10.5992533"><ele>270.6666666666667</ele><time>2026-04-25T14:03:30.118Z</time></trkpt><trkpt lat="43.3757767" lon="10.5993517"><ele>268.33333333333337</ele><time>2026-04-25T14:03:31.124Z</time></trkpt><trkpt lat="43.3759233" lon="10.599445"><ele>266.0</ele><time>2026-04-25T14:03:32.128Z</time></trkpt><trkpt lat="43.37606" lon="10.59953"><ele>267.5</ele><time>2026-04-25T14:03:33.136Z</time></trkpt><trkpt lat="43.37619" lon="10.5996067"><ele>269.0</ele><time>2026-04-25T14:03:34.126Z</time></trkpt><trkpt lat="43.37632" lon="10.5996783"><ele>270.5</ele><time>2026-04-25T14:03:35.128Z</time></trkpt><trkpt lat="43.3764617" lon="10.5997383"><ele>272.0</ele><time>2026-04-25T14:03:36.12Z</time></trkpt><trkpt lat="43.376615" lon="10.599775"><ele>272.0</ele><time>2026-04-25T14:03:37.13Z</time></trkpt><trkpt lat="43.376775" lon="10.5997917"><ele>272.0</ele><time>2026-04-25T14:03:38.119Z</time></trkpt><trkpt lat="43.3769367" lon="10.5997983"><ele>272.0</ele><time>2026-04-25T14:03:39.131Z</time></trkpt><trkpt lat="43.3771067" lon="10.5998017"><ele>272.33333333333337</ele><time>2026-04-25T14:03:40.13Z</time></trkpt><trkpt lat="43.3772783" lon="10.5998083"><ele>272.6666666666667</ele><time>2026-04-25T14:03:41.125Z</time></trkpt><trkpt lat="43.3774467" lon="10.5998183"><ele>273.0</ele><time>2026-04-25T14:03:42.123Z</time></trkpt><trkpt lat="43.3776033" lon="10.5998283"><ele>273.0</ele><time>2026-04-25T14:03:43.121Z</time></trkpt><trkpt lat="43.37775" lon="10.5998383"><ele>273.0</ele><time>2026-04-25T14:03:44.121Z</time></trkpt><trkpt lat="43.3778833" lon="10.5998533"><ele>273.0</ele><time>2026-04-25T14:03:45.127Z</time></trkpt><trkpt lat="43.3780067" lon="10.5998833"><ele>273.0</ele><time>2026-04-25T14:03:46.122Z</time></trkpt><trkpt lat="43.37812" lon="10.599935"><ele>272.0</ele><time>2026-04-25T14:03:47.126Z</time></trkpt><trkpt lat="43.378225" lon="10.6000117"><ele>271.0</ele><time>2026-04-25T14:03:48.12Z</time></trkpt><trkpt lat="43.37833" lon="10.6001117"><ele>270.0</ele><time>2026-04-25T14:03:49.122Z</time></trkpt><trkpt lat="43.37844" lon="10.6002217"><ele>269.0</ele><time>2026-04-25T14:03:50.126Z</time></trkpt><trkpt lat="43.3785583" lon="10.6003283"><ele>271.5</ele><time>2026-04-25T14:03:51.126Z</time></trkpt><trkpt lat="43.3786867" lon="10.6004233"><ele>274.0</ele><time>2026-04-25T14:03:52.12Z</time></trkpt><trkpt lat="43.378825" lon="10.6005017"><ele>276.5</ele><time>2026-04-25T14:03:53.118Z</time></trkpt><trkpt lat="43.3789733" lon="10.6005567"><ele>279.0</ele><time>2026-04-25T14:03:54.128Z</time></trkpt><trkpt lat="43.3791283" lon="10.6005817"><ele>279.0</ele><time>2026-04-25T14:03:55.118Z</time></trkpt><trkpt lat="43.379285" lon="10.600585"><ele>279.0</ele><time>2026-04-25T14:03:56.132Z</time></trkpt><trkpt lat="43.3794317" lon="10.600585"><ele>279.0</ele><time>2026-04-25T14:03:57.119Z</time></trkpt><trkpt lat="43.37956" lon="10.6005983"><ele>279.0</ele><time>2026-04-25T14:03:58.121Z</time></trkpt><trkpt lat="43.3796783" lon="10.6006433"><ele>278.5</ele><time>2026-04-25T14:03:59.121Z</time></trkpt><trkpt lat="43.3797783" lon="10.600725"><ele>278.0</ele><time>2026-04-25T14:04:00.122Z</time></trkpt><trkpt lat="43.379855" lon="10.600845"><ele>277.5</ele><time>2026-04-25T14:04:01.124Z</time></trkpt><trkpt lat="43.37992" lon="10.60099"><ele>277.0</ele><time>2026-04-25T14:04:02.115Z</time></trkpt><trkpt lat="43.3799833" lon="10.60116"><ele>280.3333333333333</ele><time>2026-04-25T14:04:03.124Z</time></trkpt><trkpt lat="43.3800567" lon="10.6013517"><ele>283.6666666666667</ele><time>2026-04-25T14:04:04.123Z</time></trkpt><trkpt lat="43.3801483" lon="10.60157"><ele>287.0</ele><time>2026-04-25T14:04:05.127Z</time></trkpt><trkpt lat="43.3802567" lon="10.60181"><ele>288.6666666666667</ele><time>2026-04-25T14:04:06.12Z</time></trkpt><trkpt lat="43.3803717" lon="10.6020433"><ele>290.3333333333333</ele><time>2026-04-25T14:04:07.124Z</time></trkpt><trkpt lat="43.3804717" lon="10.602245"><ele>292.0</ele><time>2026-04-25T14:04:08.114Z</time></trkpt><trkpt lat="43.38056" lon="10.6024267"><ele>291.25</ele><time>2026-04-25T14:04:09.12Z</time></trkpt><trkpt lat="43.3806333" lon="10.6026033"><ele>290.5</ele><time>2026-04-25T14:04:10.119Z</time></trkpt><trkpt lat="43.3806917" lon="10.6027867"><ele>289.75</ele><time>2026-04-25T14:04:11.124Z</time></trkpt><trkpt lat="43.38074" lon="10.6029567"><ele>289.0</ele><time>2026-04-25T14:04:12.127Z</time></trkpt><trkpt lat="43.3807983" lon="10.603095"><ele>289.0</ele><time>2026-04-25T14:04:13.133Z</time></trkpt><trkpt lat="43.3808783" lon="10.6032"><ele>289.0</ele><time>2026-04-25T14:04:14.135Z</time></trkpt><trkpt lat="43.3809833" lon="10.6032733"><ele>289.0</ele><time>2026-04-25T14:04:15.132Z</time></trkpt><trkpt lat="43.3811167" lon="10.6033317"><ele>289.0</ele><time>2026-04-25T14:04:16.126Z</time></trkpt><trkpt lat="43.3812617" lon="10.6034017"><ele>288.0</ele><time>2026-04-25T14:04:17.133Z</time></trkpt><trkpt lat="43.381405" lon="10.6034917"><ele>287.0</ele><time>2026-04-25T14:04:18.117Z</time></trkpt><trkpt lat="43.3815383" lon="10.60359"><ele>286.0</ele><time>2026-04-25T14:04:19.131Z</time></trkpt><trkpt lat="43.3816617" lon="10.6037083"><ele>291.3333333333333</ele><time>2026-04-25T14:04:20.12Z</time></trkpt><trkpt lat="43.381785" lon="10.603835"><ele>296.6666666666667</ele><time>2026-04-25T14:04:21.119Z</time></trkpt><trkpt lat="43.38192" lon="10.6039333"><ele>302.0</ele><time>2026-04-25T14:04:22.128Z</time></trkpt><trkpt lat="43.382075" lon="10.603995"><ele>302.33333333333337</ele><time>2026-04-25T14:04:23.12Z</time></trkpt><trkpt lat="43.3822617" lon="10.6040133"><ele>302.6666666666667</ele><time>2026-04-25T14:04:24.12Z</time></trkpt><trkpt lat="43.3824983" lon="10.6039983"><ele>303.0</ele><time>2026-04-25T14:04:25.134Z</time></trkpt><trkpt lat="43.382735" lon="10.604"><ele>303.0</ele><time>2026-04-25T14:04:26.126Z</time></trkpt><trkpt lat="43.38295" lon="10.6040017"><ele>303.0</ele><time>2026-04-25T14:04:27.121Z</time></trkpt><trkpt lat="43.3831433" lon="10.6039967"><ele>303.0</ele><time>2026-04-25T14:04:28.12Z</time></trkpt><trkpt lat="43.3832967" lon="10.6039383"><ele>301.6666666666667</ele><time>2026-04-25T14:04:29.118Z</time></trkpt><trkpt lat="43.383425" lon="10.603815"><ele>300.33333333333337</ele><time>2026-04-25T14:04:30.125Z</time></trkpt><trkpt lat="43.38356" lon="10.603625"><ele>299.0</ele><time>2026-04-25T14:04:31.124Z</time></trkpt><trkpt lat="43.3837233" lon="10.6034017"><ele>305.5</ele><time>2026-04-25T14:04:32.12Z</time></trkpt><trkpt lat="43.3839033" lon="10.60316"><ele>312.0</ele><time>2026-04-25T14:04:33.121Z</time></trkpt><trkpt lat="43.3840933" lon="10.60291"><ele>307.0</ele><time>2026-04-25T14:04:34.127Z</time></trkpt><trkpt lat="43.3842817" lon="10.6026733"><ele>302.0</ele><time>2026-04-25T14:04:35.127Z</time></trkpt><trkpt lat="43.3844633" lon="10.6024717"><ele>302.0</ele><time>2026-04-25T14:04:36.127Z</time></trkpt><trkpt lat="43.384635" lon="10.60229"><ele>302.0</ele><time>2026-04-25T14:04:37.13Z</time></trkpt><trkpt lat="43.3847967" lon="10.6021133"><ele>302.0</ele><time>2026-04-25T14:04:38.129Z</time></trkpt><trkpt lat="43.3849433" lon="10.60192"><ele>304.0</ele><time>2026-04-25T14:04:39.121Z</time></trkpt><trkpt lat="43.38508" lon="10.6017"><ele>306.0</ele><time>2026-04-25T14:04:40.121Z</time></trkpt><trkpt lat="43.3852083" lon="10.60148"><ele>308.0</ele><time>2026-04-25T14:04:41.118Z</time></trkpt><trkpt lat="43.385335" lon="10.6012733"><ele>310.5</ele><time>2026-04-25T14:04:42.122Z</time></trkpt><trkpt lat="43.385485" lon="10.6010683"><ele>313.0</ele><time>2026-04-25T14:04:43.129Z</time></trkpt><trkpt lat="43.385675" lon="10.6008683"><ele>313.0</ele><time>2026-04-25T14:04:44.123Z</time></trkpt><trkpt lat="43.3858917" lon="10.6006717"><ele>313.0</ele><time>2026-04-25T14:04:45.124Z</time></trkpt><trkpt lat="43.386105" lon="10.6004817"><ele>312.3333333333333</ele><time>2026-04-25T14:04:46.121Z</time></trkpt><trkpt lat="43.38629" lon="10.600325"><ele>311.6666666666667</ele><time>2026-04-25T14:04:47.12Z</time></trkpt><trkpt lat="43.386445" lon="10.6001967"><ele>311.0</ele><time>2026-04-25T14:04:48.135Z</time></trkpt><trkpt lat="43.38658" lon="10.600085"><ele>311.0</ele><time>2026-04-25T14:04:49.131Z</time></trkpt><trkpt lat="43.3866933" lon="10.5999933"><ele>311.0</ele><time>2026-04-25T14:04:50.12Z</time></trkpt><trkpt lat="43.386785" lon="10.5999067"><ele>311.0</ele><time>2026-04-25T14:04:51.129Z</time></trkpt><trkpt lat="43.3868517" lon="10.5998067"><ele>311.0</ele><time>2026-04-25T14:04:52.122Z</time></trkpt><trkpt lat="43.3868917" lon="10.5996767"><ele>311.0</ele><time>2026-04-25T14:04:53.137Z</time></trkpt><trkpt lat="43.386905" lon="10.5995067"><ele>311.0</ele><time>2026-04-25T14:04:54.122Z</time></trkpt><trkpt lat="43.3868883" lon="10.5993067"><ele>311.0</ele><time>2026-04-25T14:04:55.131Z</time></trkpt><trkpt lat="43.3868367" lon="10.5990783"><ele>311.0</ele><time>2026-04-25T14:04:56.118Z</time></trkpt><trkpt lat="43.3867717" lon="10.5988317"><ele>312.33333333333337</ele><time>2026-04-25T14:04:57.125Z</time></trkpt><trkpt lat="43.38671" lon="10.5985667"><ele>313.6666666666667</ele><time>2026-04-25T14:04:58.134Z</time></trkpt><trkpt lat="43.38667" lon="10.5983067"><ele>315.0</ele><time>2026-04-25T14:04:59.125Z</time></trkpt><trkpt lat="43.3866483" lon="10.5980683"><ele>315.0</ele><time>2026-04-25T14:05:00.12Z</time></trkpt><trkpt lat="43.3866567" lon="10.5978367"><ele>315.0</ele><time>2026-04-25T14:05:01.124Z</time></trkpt><trkpt lat="43.3866867" lon="10.597605"><ele>315.0</ele><time>2026-04-25T14:05:02.124Z</time></trkpt><trkpt lat="43.3867233" lon="10.5973783"><ele>314.75</ele><time>2026-04-25T14:05:03.124Z</time></trkpt><trkpt lat="43.3867567" lon="10.5971567"><ele>314.5</ele><time>2026-04-25T14:05:04.114Z</time></trkpt><trkpt lat="43.38679" lon="10.5969633"><ele>314.25</ele><time>2026-04-25T14:05:05.133Z</time></trkpt><trkpt lat="43.38682" lon="10.59679"><ele>314.0</ele><time>2026-04-25T14:05:06.128Z</time></trkpt><trkpt lat="43.3868517" lon="10.59663"><ele>313.0</ele><time>2026-04-25T14:05:07.12Z</time></trkpt><trkpt lat="43.3868817" lon="10.5964783"><ele>312.0</ele><time>2026-04-25T14:05:08.123Z</time></trkpt><trkpt lat="43.3869133" lon="10.5963267"><ele>311.0</ele><time>2026-04-25T14:05:09.125Z</time></trkpt><trkpt lat="43.3869467" lon="10.5961733"><ele>310.0</ele><time>2026-04-25T14:05:10.118Z</time></trkpt><trkpt lat="43.3869817" lon="10.5960233"><ele>308.75</ele><time>2026-04-25T14:05:11.133Z</time></trkpt><trkpt lat="43.3870133" lon="10.5958717"><ele>307.5</ele><time>2026-04-25T14:05:12.13Z</time></trkpt><trkpt lat="43.3870533" lon="10.5957233"><ele>306.25</ele><time>2026-04-25T14:05:13.128Z</time></trkpt><trkpt lat="43.387115" lon="10.5955933"><ele>305.0</ele><time>2026-04-25T14:05:14.119Z</time></trkpt><trkpt lat="43.3871983" lon="10.595485"><ele>308.0</ele><time>2026-04-25T14:05:15.12Z</time></trkpt><trkpt lat="43.3873033" lon="10.5954117"><ele>311.0</ele><time>2026-04-25T14:05:16.127Z</time></trkpt><trkpt lat="43.38741" lon="10.59536"><ele>314.0</ele><time>2026-04-25T14:05:17.119Z</time></trkpt><trkpt lat="43.3875067" lon="10.5953183"><ele>317.0</ele><time>2026-04-25T14:05:18.126Z</time></trkpt><trkpt lat="43.38759" lon="10.5952767"><ele>320.0</ele><time>2026-04-25T14:05:19.117Z</time></trkpt><trkpt lat="43.3876617" lon="10.5952267"><ele>320.0</ele><time>2026-04-25T14:05:20.118Z</time></trkpt><trkpt lat="43.3877267" lon="10.5951633"><ele>320.0</ele><time>2026-04-25T14:05:21.128Z</time></trkpt><trkpt lat="43.3877783" lon="10.5950867"><ele>320.0</ele><time>2026-04-25T14:05:22.117Z</time></trkpt><trkpt lat="43.387805" lon="10.5949967"><ele>320.0</ele><time>2026-04-25T14:05:23.119Z</time></trkpt><trkpt lat="43.3877917" lon="10.5948933"><ele>320.0</ele><time>2026-04-25T14:05:24.127Z</time></trkpt><trkpt lat="43.387745" lon="10.59479"><ele>320.0</ele><time>2026-04-25T14:05:25.143Z</time></trkpt><trkpt lat="43.3876567" lon="10.59469"><ele>320.0</ele><time>2026-04-25T14:05:26.123Z</time></trkpt><trkpt lat="43.3875517" lon="10.59459"><ele>320.0</ele><time>2026-04-25T14:05:27.127Z</time></trkpt><trkpt lat="43.3874317" lon="10.594475"><ele>320.0</ele><time>2026-04-25T14:05:28.117Z</time></trkpt><trkpt lat="43.3872733" lon="10.59435"><ele>319.33333333333337</ele><time>2026-04-25T14:05:29.127Z</time></trkpt><trkpt lat="43.3870983" lon="10.59423"><ele>318.6666666666667</ele><time>2026-04-25T14:05:30.123Z</time></trkpt><trkpt lat="43.3869267" lon="10.5940967"><ele>318.0</ele><time>2026-04-25T14:05:31.133Z</time></trkpt><trkpt lat="43.38677" lon="10.5939567"><ele>318.0</ele><time>2026-04-25T14:05:32.118Z</time></trkpt><trkpt lat="43.38661" lon="10.5938233"><ele>318.0</ele><time>2026-04-25T14:05:33.12Z</time></trkpt><trkpt lat="43.3864583" lon="10.5937"><ele>318.0</ele><time>2026-04-25T14:05:34.123Z</time></trkpt><trkpt lat="43.3863367" lon="10.5935683"><ele>317.0</ele><time>2026-04-25T14:05:35.118Z</time></trkpt><trkpt lat="43.3862567" lon="10.5934133"><ele>316.0</ele><time>2026-04-25T14:05:36.122Z</time></trkpt><trkpt lat="43.386225" lon="10.5932217"><ele>315.0</ele><time>2026-04-25T14:05:37.126Z</time></trkpt><trkpt lat="43.3862133" lon="10.59299"><ele>317.0</ele><time>2026-04-25T14:05:38.128Z</time></trkpt><trkpt lat="43.3861983" lon="10.5927367"><ele>319.0</ele><time>2026-04-25T14:05:39.121Z</time></trkpt><trkpt lat="43.386175" lon="10.59248"><ele>321.0</ele><time>2026-04-25T14:05:40.127Z</time></trkpt><trkpt lat="43.3861433" lon="10.5922417"><ele>321.0</ele><time>2026-04-25T14:05:41.124Z</time></trkpt><trkpt lat="43.3860917" lon="10.5920333"><ele>321.0</ele><time>2026-04-25T14:05:42.124Z</time></trkpt><trkpt lat="43.3860083" lon="10.5918583"><ele>321.0</ele><time>2026-04-25T14:05:43.126Z</time></trkpt><trkpt lat="43.38589" lon="10.59174"><ele>322.3333333333333</ele><time>2026-04-25T14:05:44.125Z</time></trkpt><trkpt lat="43.3857367" lon="10.59168"><ele>323.66666666666663</ele><time>2026-04-25T14:05:45.125Z</time></trkpt><trkpt lat="43.3855617" lon="10.5916667"><ele>325.0</ele><time>2026-04-25T14:05:46.125Z</time></trkpt><trkpt lat="43.3853767" lon="10.59166"><ele>325.0</ele><time>2026-04-25T14:05:47.127Z</time></trkpt><trkpt lat="43.38519" lon="10.5916233"><ele>325.0</ele><time>2026-04-25T14:05:48.126Z</time></trkpt><trkpt lat="43.3850017" lon="10.5915433"><ele>325.0</ele><time>2026-04-25T14:05:49.125Z</time></trkpt><trkpt lat="43.3848317" lon="10.591425"><ele>325.0</ele><time>2026-04-25T14:05:50.124Z</time></trkpt><trkpt lat="43.3846967" lon="10.5912717"><ele>325.0</ele><time>2026-04-25T14:05:51.132Z</time></trkpt><trkpt lat="43.3845867" lon="10.5910817"><ele>325.0</ele><time>2026-04-25T14:05:52.122Z</time></trkpt><trkpt lat="43.3844967" lon="10.5908433"><ele>324.3333333333333</ele><time>2026-04-25T14:05:53.125Z</time></trkpt><trkpt lat="43.3844117" lon="10.5905683"><ele>323.6666666666667</ele><time>2026-04-25T14:05:54.122Z</time></trkpt><trkpt lat="43.3843067" lon="10.5902867"><ele>323.0</ele><time>2026-04-25T14:05:55.122Z</time></trkpt><trkpt lat="43.3841733" lon="10.5900333"><ele>324.0</ele><time>2026-04-25T14:05:56.125Z</time></trkpt><trkpt lat="43.3840333" lon="10.5898133"><ele>325.0</ele><time>2026-04-25T14:05:57.129Z</time></trkpt><trkpt lat="43.3839017" lon="10.589615"><ele>326.0</ele><time>2026-04-25T14:05:58.122Z</time></trkpt><trkpt lat="43.3837917" lon="10.58942"><ele>326.0</ele><time>2026-04-25T14:05:59.127Z</time></trkpt><trkpt lat="43.3837117" lon="10.58922"><ele>326.0</ele><time>2026-04-25T14:06:00.121Z</time></trkpt><trkpt lat="43.3836633" lon="10.5890017"><ele>326.0</ele><time>2026-04-25T14:06:01.128Z</time></trkpt><trkpt lat="43.3836267" lon="10.5887667"><ele>328.6666666666667</ele><time>2026-04-25T14:06:02.123Z</time></trkpt><trkpt lat="43.3835733" lon="10.5885183"><ele>331.3333333333333</ele><time>2026-04-25T14:06:03.121Z</time></trkpt><trkpt lat="43.3834883" lon="10.5882667"><ele>334.0</ele><time>2026-04-25T14:06:04.127Z</time></trkpt><trkpt lat="43.383395" lon="10.5880433"><ele>336.3333333333333</ele><time>2026-04-25T14:06:05.124Z</time></trkpt><trkpt lat="43.3833183" lon="10.58783"><ele>338.6666666666667</ele><time>2026-04-25T14:06:06.118Z</time></trkpt><trkpt lat="43.3832583" lon="10.5875917"><ele>341.0</ele><time>2026-04-25T14:06:07.122Z</time></trkpt><trkpt lat="43.3832133" lon="10.5873433"><ele>341.0</ele><time>2026-04-25T14:06:08.12Z</time></trkpt><trkpt lat="43.3831733" lon="10.587115"><ele>341.0</ele><time>2026-04-25T14:06:09.133Z</time></trkpt><trkpt lat="43.383135" lon="10.5869167"><ele>341.0</ele><time>2026-04-25T14:06:10.118Z</time></trkpt><trkpt lat="43.3831133" lon="10.58674"><ele>341.6</ele><time>2026-04-25T14:06:11.128Z</time></trkpt><trkpt lat="43.383105" lon="10.5865733"><ele>342.20000000000005</ele><time>2026-04-25T14:06:12.121Z</time></trkpt><trkpt lat="43.38312" lon="10.5864283"><ele>342.79999999999995</ele><time>2026-04-25T14:06:13.123Z</time></trkpt><trkpt lat="43.3831533" lon="10.586305"><ele>343.4</ele><time>2026-04-25T14:06:14.121Z</time></trkpt><trkpt lat="43.38319" lon="10.5861933"><ele>344.0</ele><time>2026-04-25T14:06:15.12Z</time></trkpt><trkpt lat="43.3832233" lon="10.58609"><ele>344.5</ele><time>2026-04-25T14:06:16.12Z</time></trkpt><trkpt lat="43.3832483" lon="10.58598"><ele>345.0</ele><time>2026-04-25T14:06:17.117Z</time></trkpt><trkpt lat="43.383265" lon="10.585865"><ele>345.5</ele><time>2026-04-25T14:06:18.121Z</time></trkpt><trkpt lat="43.3832667" lon="10.5857467"><ele>346.0</ele><time>2026-04-25T14:06:19.125Z</time></trkpt><trkpt lat="43.383255" lon="10.585625"><ele>346.5</ele><time>2026-04-25T14:06:20.128Z</time></trkpt><trkpt lat="43.3832367" lon="10.5854983"><ele>347.0</ele><time>2026-04-25T14:06:21.124Z</time></trkpt><trkpt lat="43.3832083" lon="10.5853733"><ele>347.83333333333337</ele><time>2026-04-25T14:06:22.134Z</time></trkpt><trkpt lat="43.3831783" lon="10.5852533"><ele>348.6666666666667</ele><time>2026-04-25T14:06:23.121Z</time></trkpt><trkpt lat="43.3831617" lon="10.585135"><ele>349.5</ele><time>2026-04-25T14:06:24.134Z</time></trkpt><trkpt lat="43.3831533" lon="10.5850183"><ele>350.3333333333333</ele><time>2026-04-25T14:06:25.125Z</time></trkpt><trkpt lat="43.38314" lon="10.584895"><ele>351.16666666666663</ele><time>2026-04-25T14:06:26.121Z</time></trkpt><trkpt lat="43.38311" lon="10.58478"><ele>352.0</ele><time>2026-04-25T14:06:27.133Z</time></trkpt><trkpt lat="43.3830683" lon="10.58467"><ele>352.0</ele><time>2026-04-25T14:06:28.134Z</time></trkpt><trkpt lat="43.383025" lon="10.5845567"><ele>352.0</ele><time>2026-04-25T14:06:29.124Z</time></trkpt><trkpt lat="43.3829833" lon="10.58444"><ele>352.0</ele><time>2026-04-25T14:06:30.131Z</time></trkpt><trkpt lat="43.3829483" lon="10.584325"><ele>352.0</ele><time>2026-04-25T14:06:31.132Z</time></trkpt><trkpt lat="43.38292" lon="10.5842133"><ele>352.0</ele><time>2026-04-25T14:06:32.124Z</time></trkpt><trkpt lat="43.382915" lon="10.5841033"><ele>352.0</ele><time>2026-04-25T14:06:33.124Z</time></trkpt><trkpt lat="43.382915" lon="10.5839967"><ele>349.6</ele><time>2026-04-25T14:06:34.123Z</time></trkpt><trkpt lat="43.3829167" lon="10.5838767"><ele>347.20000000000005</ele><time>2026-04-25T14:06:35.121Z</time></trkpt><trkpt lat="43.3829" lon="10.5837533"><ele>344.8</ele><time>2026-04-25T14:06:36.126Z</time></trkpt><trkpt lat="43.38287" lon="10.5836283"><ele>342.4</ele><time>2026-04-25T14:06:37.121Z</time></trkpt><trkpt lat="43.3828267" lon="10.583505"><ele>340.0</ele><time>2026-04-25T14:06:38.119Z</time></trkpt><trkpt lat="43.3827733" lon="10.5833833"><ele>340.0</ele><time>2026-04-25T14:06:39.128Z</time></trkpt><trkpt lat="43.3827183" lon="10.583265"><ele>340.0</ele><time>2026-04-25T14:06:40.124Z</time></trkpt><trkpt lat="43.382655" lon="10.5831583"><ele>340.0</ele><time>2026-04-25T14:06:41.122Z</time></trkpt><trkpt lat="43.3825733" lon="10.5830667"><ele>340.0</ele><time>2026-04-25T14:06:42.12Z</time></trkpt><trkpt lat="43.3824733" lon="10.5829717"><ele>340.0</ele><time>2026-04-25T14:06:43.12Z</time></trkpt><trkpt lat="43.382355" lon="10.5828683"><ele>340.0</ele><time>2026-04-25T14:06:44.116Z</time></trkpt><trkpt lat="43.3822317" lon="10.5827733"><ele>340.0</ele><time>2026-04-25T14:06:45.122Z</time></trkpt><trkpt lat="43.38212" lon="10.58269"><ele>340.0</ele><time>2026-04-25T14:06:46.127Z</time></trkpt><trkpt lat="43.382025" lon="10.582615"><ele>340.0</ele><time>2026-04-25T14:06:47.129Z</time></trkpt><trkpt lat="43.38194" lon="10.58253"><ele>340.0</ele><time>2026-04-25T14:06:48.123Z</time></trkpt><trkpt lat="43.381865" lon="10.5824283"><ele>340.0</ele><time>2026-04-25T14:06:49.131Z</time></trkpt><trkpt lat="43.381795" lon="10.5823"><ele>340.0</ele><time>2026-04-25T14:06:50.13Z</time></trkpt><trkpt lat="43.3817333" lon="10.5821417"><ele>340.0</ele><time>2026-04-25T14:06:51.134Z</time></trkpt><trkpt lat="43.3816783" lon="10.5819533"><ele>342.0</ele><time>2026-04-25T14:06:52.12Z</time></trkpt><trkpt lat="43.3816183" lon="10.581745"><ele>344.0</ele><time>2026-04-25T14:06:53.119Z</time></trkpt><trkpt lat="43.38156" lon="10.5815483"><ele>346.0</ele><time>2026-04-25T14:06:54.121Z</time></trkpt><trkpt lat="43.3815167" lon="10.58137"><ele>346.0</ele><time>2026-04-25T14:06:55.12Z</time></trkpt><trkpt lat="43.3815033" lon="10.5811967"><ele>346.0</ele><time>2026-04-25T14:06:56.12Z</time></trkpt><trkpt lat="43.3815367" lon="10.5810233"><ele>346.0</ele><time>2026-04-25T14:06:57.12Z</time></trkpt><trkpt lat="43.381625" lon="10.5808567"><ele>346.0</ele><time>2026-04-25T14:06:58.118Z</time></trkpt><trkpt lat="43.3817417" lon="10.580685"><ele>346.3333333333333</ele><time>2026-04-25T14:06:59.118Z</time></trkpt><trkpt lat="43.3818767" lon="10.5804917"><ele>346.6666666666667</ele><time>2026-04-25T14:07:00.118Z</time></trkpt><trkpt lat="43.3820283" lon="10.580295"><ele>347.0</ele><time>2026-04-25T14:07:01.133Z</time></trkpt><trkpt lat="43.3822017" lon="10.580095"><ele>349.5</ele><time>2026-04-25T14:07:02.125Z</time></trkpt><trkpt lat="43.3823933" lon="10.5798883"><ele>352.0</ele><time>2026-04-25T14:07:03.127Z</time></trkpt><trkpt lat="43.38259" lon="10.579685"><ele>353.0</ele><time>2026-04-25T14:07:04.115Z</time></trkpt><trkpt lat="43.3827733" lon="10.5794933"><ele>354.0</ele><time>2026-04-25T14:07:05.114Z</time></trkpt><trkpt lat="43.382935" lon="10.5793233"><ele>355.0</ele><time>2026-04-25T14:07:06.12Z</time></trkpt><trkpt lat="43.3830767" lon="10.5791633"><ele>355.0</ele><time>2026-04-25T14:07:07.123Z</time></trkpt><trkpt lat="43.383205" lon="10.578975"><ele>355.0</ele><time>2026-04-25T14:07:08.12Z</time></trkpt><trkpt lat="43.3833183" lon="10.57875"><ele>355.0</ele><time>2026-04-25T14:07:09.123Z</time></trkpt><trkpt lat="43.38342" lon="10.5785117"><ele>352.0</ele><time>2026-04-25T14:07:10.123Z</time></trkpt><trkpt lat="43.3835333" lon="10.578295"><ele>349.0</ele><time>2026-04-25T14:07:11.116Z</time></trkpt><trkpt lat="43.38366" lon="10.578105"><ele>346.0</ele><time>2026-04-25T14:07:12.119Z</time></trkpt><trkpt lat="43.383785" lon="10.5779233"><ele>351.0</ele><time>2026-04-25T14:07:13.12Z</time></trkpt><trkpt lat="43.3838867" lon="10.5777183"><ele>356.0</ele><time>2026-04-25T14:07:14.126Z</time></trkpt><trkpt lat="43.3839567" lon="10.577495"><ele>361.0</ele><time>2026-04-25T14:07:15.119Z</time></trkpt><trkpt lat="43.384" lon="10.577255"><ele>362.0</ele><time>2026-04-25T14:07:16.13Z</time></trkpt><trkpt lat="43.3840067" lon="10.577015"><ele>363.0</ele><time>2026-04-25T14:07:17.124Z</time></trkpt><trkpt lat="43.3839767" lon="10.5767917"><ele>364.0</ele><time>2026-04-25T14:07:18.117Z</time></trkpt><trkpt lat="43.3839167" lon="10.5765767"><ele>359.75</ele><time>2026-04-25T14:07:19.124Z</time></trkpt><trkpt lat="43.38384" lon="10.5763817"><ele>355.5</ele><time>2026-04-25T14:07:20.132Z</time></trkpt><trkpt lat="43.38378" lon="10.5762"><ele>351.25</ele><time>2026-04-25T14:07:21.122Z</time></trkpt><trkpt lat="43.38375" lon="10.57601"><ele>347.0</ele><time>2026-04-25T14:07:22.119Z</time></trkpt><trkpt lat="43.3837567" lon="10.5758167"><ele>347.0</ele><time>2026-04-25T14:07:23.118Z</time></trkpt><trkpt lat="43.3837983" lon="10.5756567"><ele>347.0</ele><time>2026-04-25T14:07:24.124Z</time></trkpt><trkpt lat="43.383865" lon="10.5755417"><ele>347.0</ele><time>2026-04-25T14:07:25.119Z</time></trkpt><trkpt lat="43.3839517" lon="10.5754717"><ele>347.0</ele><time>2026-04-25T14:07:26.123Z</time></trkpt><trkpt lat="43.3840667" lon="10.5754633"><ele>347.0</ele><time>2026-04-25T14:07:27.123Z</time></trkpt><trkpt lat="43.3842017" lon="10.5755233"><ele>352.33333333333337</ele><time>2026-04-25T14:07:28.12Z</time></trkpt><trkpt lat="43.38434" lon="10.5756517"><ele>357.6666666666667</ele><time>2026-04-25T14:07:29.128Z</time></trkpt><trkpt lat="43.3844733" lon="10.5757633"><ele>363.0</ele><time>2026-04-25T14:07:30.118Z</time></trkpt><trkpt lat="43.3846183" lon="10.5758367"><ele>367.3333333333333</ele><time>2026-04-25T14:07:31.118Z</time></trkpt><trkpt lat="43.3847717" lon="10.57581"><ele>371.66666666666663</ele><time>2026-04-25T14:07:32.121Z</time></trkpt><trkpt lat="43.3849467" lon="10.5757017"><ele>376.0</ele><time>2026-04-25T14:07:33.125Z</time></trkpt><trkpt lat="43.385125" lon="10.5755383"><ele>369.0</ele><time>2026-04-25T14:07:34.122Z</time></trkpt><trkpt lat="43.385285" lon="10.57533"><ele>362.0</ele><time>2026-04-25T14:07:35.114Z</time></trkpt><trkpt lat="43.3854567" lon="10.5751133"><ele>367.6666666666667</ele><time>2026-04-25T14:07:36.12Z</time></trkpt><trkpt lat="43.38563" lon="10.574905"><ele>373.3333333333333</ele><time>2026-04-25T14:07:37.124Z</time></trkpt><trkpt lat="43.3857983" lon="10.574735"><ele>379.0</ele><time>2026-04-25T14:07:38.121Z</time></trkpt><trkpt lat="43.3859617" lon="10.5745983"><ele>376.3333333333333</ele><time>2026-04-25T14:07:39.123Z</time></trkpt><trkpt lat="43.3861183" lon="10.5745033"><ele>373.6666666666667</ele><time>2026-04-25T14:07:40.123Z</time></trkpt><trkpt lat="43.3862767" lon="10.5744633"><ele>371.0</ele><time>2026-04-25T14:07:41.119Z</time></trkpt><trkpt lat="43.386435" lon="10.5744733"><ele>378.0</ele><time>2026-04-25T14:07:42.127Z</time></trkpt><trkpt lat="43.3866183" lon="10.5745333"><ele>385.0</ele><time>2026-04-25T14:07:43.115Z</time></trkpt><trkpt lat="43.3868383" lon="10.574625"><ele>392.0</ele><time>2026-04-25T14:07:44.123Z</time></trkpt><trkpt lat="43.3870867" lon="10.5747333"><ele>390.0</ele><time>2026-04-25T14:07:45.121Z</time></trkpt><trkpt lat="43.3873133" lon="10.5748383"><ele>388.0</ele><time>2026-04-25T14:07:46.123Z</time></trkpt><trkpt lat="43.3875183" lon="10.5749283"><ele>388.0</ele><time>2026-04-25T14:07:47.119Z</time></trkpt><trkpt lat="43.387725" lon="10.5749883"><ele>388.0</ele><time>2026-04-25T14:07:48.124Z</time></trkpt><trkpt lat="43.3879333" lon="10.5750217"><ele>388.0</ele><time>2026-04-25T14:07:49.126Z</time></trkpt><trkpt lat="43.3881617" lon="10.5750283"><ele>387.0</ele><time>2026-04-25T14:07:50.122Z</time></trkpt><trkpt lat="43.38838" lon="10.5750217"><ele>386.0</ele><time>2026-04-25T14:07:51.129Z</time></trkpt><trkpt lat="43.3885683" lon="10.575015"><ele>385.0</ele><time>2026-04-25T14:07:52.116Z</time></trkpt><trkpt lat="43.38874" lon="10.57499"><ele>388.6666666666667</ele><time>2026-04-25T14:07:53.124Z</time></trkpt><trkpt lat="43.3889017" lon="10.5749133"><ele>392.33333333333337</ele><time>2026-04-25T14:07:54.125Z</time></trkpt><trkpt lat="43.3890683" lon="10.5747733"><ele>396.0</ele><time>2026-04-25T14:07:55.123Z</time></trkpt><trkpt lat="43.389235" lon="10.5745817"><ele>393.0</ele><time>2026-04-25T14:07:56.12Z</time></trkpt><trkpt lat="43.38938" lon="10.574395"><ele>390.0</ele><time>2026-04-25T14:07:57.116Z</time></trkpt><trkpt lat="43.38949" lon="10.5742133"><ele>387.0</ele><time>2026-04-25T14:07:58.128Z</time></trkpt><trkpt lat="43.3895667" lon="10.574015"><ele>387.0</ele><time>2026-04-25T14:07:59.127Z</time></trkpt><trkpt lat="43.3896167" lon="10.57382"><ele>387.0</ele><time>2026-04-25T14:08:00.134Z</time></trkpt><trkpt lat="43.3896633" lon="10.5736483"><ele>387.0</ele><time>2026-04-25T14:08:01.124Z</time></trkpt><trkpt lat="43.3897317" lon="10.5734983"><ele>387.0</ele><time>2026-04-25T14:08:02.122Z</time></trkpt><trkpt lat="43.3898283" lon="10.5733717"><ele>390.33333333333337</ele><time>2026-04-25T14:08:03.121Z</time></trkpt><trkpt lat="43.3899583" lon="10.5732867"><ele>393.6666666666667</ele><time>2026-04-25T14:08:04.12Z</time></trkpt><trkpt lat="43.3901517" lon="10.5732467"><ele>397.0</ele><time>2026-04-25T14:08:05.113Z</time></trkpt><trkpt lat="43.3903633" lon="10.57319"><ele>397.6666666666667</ele><time>2026-04-25T14:08:06.119Z</time></trkpt><trkpt lat="43.39056" lon="10.57312"><ele>398.33333333333337</ele><time>2026-04-25T14:08:07.118Z</time></trkpt><trkpt lat="43.3907167" lon="10.5730683"><ele>399.0</ele><time>2026-04-25T14:08:08.127Z</time></trkpt><trkpt lat="43.3908383" lon="10.5730483"><ele>399.0</ele><time>2026-04-25T14:08:09.115Z</time></trkpt><trkpt lat="43.390945" lon="10.5730833"><ele>399.0</ele><time>2026-04-25T14:08:10.127Z</time></trkpt><trkpt lat="43.391045" lon="10.5731767"><ele>399.0</ele><time>2026-04-25T14:08:11.123Z</time></trkpt><trkpt lat="43.3911167" lon="10.5733383"><ele>399.0</ele><time>2026-04-25T14:08:12.121Z</time></trkpt><trkpt lat="43.3911617" lon="10.5735567"><ele>400.0</ele><time>2026-04-25T14:08:13.125Z</time></trkpt><trkpt lat="43.3911833" lon="10.5738517"><ele>401.0</ele><time>2026-04-25T14:08:14.118Z</time></trkpt><trkpt lat="43.3912117" lon="10.5741383"><ele>402.0</ele><time>2026-04-25T14:08:15.115Z</time></trkpt><trkpt lat="43.39125" lon="10.574395"><ele>400.0</ele><time>2026-04-25T14:08:16.117Z</time></trkpt><trkpt lat="43.39133" lon="10.5746233"><ele>398.0</ele><time>2026-04-25T14:08:17.117Z</time></trkpt><trkpt lat="43.391435" lon="10.5748483"><ele>396.0</ele><time>2026-04-25T14:08:18.113Z</time></trkpt><trkpt lat="43.3915233" lon="10.5750683"><ele>396.0</ele><time>2026-04-25T14:08:19.119Z</time></trkpt><trkpt lat="43.3915933" lon="10.57527"><ele>396.0</ele><time>2026-04-25T14:08:20.12Z</time></trkpt><trkpt lat="43.3916667" lon="10.575435"><ele>396.0</ele><time>2026-04-25T14:08:21.121Z</time></trkpt><trkpt lat="43.3917583" lon="10.5755467"><ele>396.0</ele><time>2026-04-25T14:08:22.127Z</time></trkpt><trkpt lat="43.39188" lon="10.575595"><ele>396.66666666666663</ele><time>2026-04-25T14:08:23.121Z</time></trkpt><trkpt lat="43.3920467" lon="10.5755917"><ele>397.3333333333333</ele><time>2026-04-25T14:08:24.126Z</time></trkpt><trkpt lat="43.3922317" lon="10.5755567"><ele>398.0</ele><time>2026-04-25T14:08:25.118Z</time></trkpt><trkpt lat="43.3923983" lon="10.5754967"><ele>398.0</ele><time>2026-04-25T14:08:26.117Z</time></trkpt><trkpt lat="43.392555" lon="10.57539"><ele>398.0</ele><time>2026-04-25T14:08:27.118Z</time></trkpt><trkpt lat="43.39269" lon="10.5752317"><ele>398.0</ele><time>2026-04-25T14:08:28.126Z</time></trkpt><trkpt lat="43.392795" lon="10.5750183"><ele>396.66666666666663</ele><time>2026-04-25T14:08:29.125Z</time></trkpt><trkpt lat="43.3928833" lon="10.574785"><ele>395.33333333333337</ele><time>2026-04-25T14:08:30.125Z</time></trkpt><trkpt lat="43.39297" lon="10.5745617"><ele>394.0</ele><time>2026-04-25T14:08:31.126Z</time></trkpt><trkpt lat="43.3930633" lon="10.57437"><ele>394.0</ele><time>2026-04-25T14:08:32.126Z</time></trkpt><trkpt lat="43.3931667" lon="10.57421"><ele>394.0</ele><time>2026-04-25T14:08:33.119Z</time></trkpt><trkpt lat="43.39328" lon="10.574095"><ele>394.0</ele><time>2026-04-25T14:08:34.116Z</time></trkpt><trkpt lat="43.3933867" lon="10.574"><ele>394.0</ele><time>2026-04-25T14:08:35.129Z</time></trkpt><trkpt lat="43.3934783" lon="10.5739183"><ele>394.00000000000006</ele><time>2026-04-25T14:08:36.118Z</time></trkpt><trkpt lat="43.39355" lon="10.5738467"><ele>394.0</ele><time>2026-04-25T14:08:37.129Z</time></trkpt><trkpt lat="43.3936033" lon="10.5737717"><ele>394.0</ele><time>2026-04-25T14:08:38.114Z</time></trkpt><trkpt lat="43.393645" lon="10.573705"><ele>394.0</ele><time>2026-04-25T14:08:39.117Z</time></trkpt><trkpt lat="43.3937033" lon="10.57364"><ele>394.00000000000006</ele><time>2026-04-25T14:08:41.125Z</time></trkpt><trkpt lat="43.3937983" lon="10.5736317"><ele>394.0</ele><time>2026-04-25T14:16:24.137Z</time></trkpt><trkpt lat="43.3938617" lon="10.5735983"><ele>393.25</ele><time>2026-04-25T14:16:25.134Z</time></trkpt><trkpt lat="43.3939433" lon="10.5735567"><ele>392.5</ele><time>2026-04-25T14:16:26.138Z</time></trkpt><trkpt lat="43.394055" lon="10.57349"><ele>391.75</ele><time>2026-04-25T14:16:27.134Z</time></trkpt><trkpt lat="43.3941933" lon="10.5734033"><ele>391.0</ele><time>2026-04-25T14:16:28.139Z</time></trkpt><trkpt lat="43.3943383" lon="10.57332"><ele>391.0</ele><time>2026-04-25T14:16:29.134Z</time></trkpt><trkpt lat="43.3944817" lon="10.573245"><ele>391.0</ele><time>2026-04-25T14:16:30.135Z</time></trkpt><trkpt lat="43.3946133" lon="10.57318"><ele>391.0</ele><time>2026-04-25T14:16:31.136Z</time></trkpt><trkpt lat="43.394745" lon="10.5731183"><ele>391.0</ele><time>2026-04-25T14:16:32.138Z</time></trkpt><trkpt lat="43.3948717" lon="10.5730517"><ele>389.0</ele><time>2026-04-25T14:16:33.135Z</time></trkpt><trkpt lat="43.3949933" lon="10.5729883"><ele>387.0</ele><time>2026-04-25T14:16:34.137Z</time></trkpt><trkpt lat="43.39511" lon="10.5729317"><ele>385.0</ele><time>2026-04-25T14:16:35.138Z</time></trkpt><trkpt lat="43.395235" lon="10.5728683"><ele>383.0</ele><time>2026-04-25T14:16:36.142Z</time></trkpt><trkpt lat="43.3953667" lon="10.5727967"><ele>383.5</ele><time>2026-04-25T14:16:37.137Z</time></trkpt><trkpt lat="43.395505" lon="10.5727317"><ele>384.0</ele><time>2026-04-25T14:16:38.135Z</time></trkpt><trkpt lat="43.39565" lon="10.5726867"><ele>384.5</ele><time>2026-04-25T14:16:39.141Z</time></trkpt><trkpt lat="43.3958" lon="10.5726617"><ele>385.0</ele><time>2026-04-25T14:16:40.142Z</time></trkpt><trkpt lat="43.395955" lon="10.5726633"><ele>385.0</ele><time>2026-04-25T14:16:41.139Z</time></trkpt><trkpt lat="43.39611" lon="10.5726817"><ele>385.0</ele><time>2026-04-25T14:16:42.138Z</time></trkpt><trkpt lat="43.3962617" lon="10.5727067"><ele>385.0</ele><time>2026-04-25T14:16:43.141Z</time></trkpt><trkpt lat="43.3964117" lon="10.5727433"><ele>384.6666666666667</ele><time>2026-04-25T14:16:44.132Z</time></trkpt><trkpt lat="43.39656" lon="10.572785"><ele>384.33333333333337</ele><time>2026-04-25T14:16:45.135Z</time></trkpt><trkpt lat="43.396715" lon="10.5728217"><ele>384.0</ele><time>2026-04-25T14:16:46.141Z</time></trkpt><trkpt lat="43.39687" lon="10.5728567"><ele>385.5</ele><time>2026-04-25T14:16:47.136Z</time></trkpt><trkpt lat="43.3970183" lon="10.5728933"><ele>387.0</ele><time>2026-04-25T14:16:48.138Z</time></trkpt><trkpt lat="43.3971617" lon="10.5729317"><ele>388.5</ele><time>2026-04-25T14:16:49.136Z</time></trkpt><trkpt lat="43.3972933" lon="10.572975"><ele>390.0</ele><time>2026-04-25T14:16:50.136Z</time></trkpt><trkpt lat="43.3974183" lon="10.5730317"><ele>390.0</ele><time>2026-04-25T14:16:51.135Z</time></trkpt><trkpt lat="43.3975383" lon="10.573115"><ele>390.0</ele><time>2026-04-25T14:16:52.139Z</time></trkpt><trkpt lat="43.3976467" lon="10.573225"><ele>390.0</ele><time>2026-04-25T14:16:53.137Z</time></trkpt><trkpt lat="43.3977467" lon="10.5733467"><ele>390.0</ele><time>2026-04-25T14:16:54.133Z</time></trkpt><trkpt lat="43.397845" lon="10.5734667"><ele>390.0</ele><time>2026-04-25T14:16:55.144Z</time></trkpt><trkpt lat="43.397945" lon="10.5735733"><ele>390.0</ele><time>2026-04-25T14:16:56.134Z</time></trkpt><trkpt lat="43.39805" lon="10.5736467"><ele>390.0</ele><time>2026-04-25T14:16:57.133Z</time></trkpt><trkpt lat="43.3981617" lon="10.5736833"><ele>390.0</ele><time>2026-04-25T14:16:58.138Z</time></trkpt><trkpt lat="43.398285" lon="10.5736883"><ele>389.25</ele><time>2026-04-25T14:16:59.137Z</time></trkpt><trkpt lat="43.39842" lon="10.5736783"><ele>388.5</ele><time>2026-04-25T14:17:00.136Z</time></trkpt><trkpt lat="43.398565" lon="10.5736433"><ele>387.75</ele><time>2026-04-25T14:17:01.15Z</time></trkpt><trkpt lat="43.3987117" lon="10.5736"><ele>387.0</ele><time>2026-04-25T14:17:02.135Z</time></trkpt><trkpt lat="43.39885" lon="10.573565"><ele>387.0</ele><time>2026-04-25T14:17:03.147Z</time></trkpt><trkpt lat="43.3989883" lon="10.573525"><ele>387.0</ele><time>2026-04-25T14:17:04.141Z</time></trkpt><trkpt lat="43.3991267" lon="10.573485"><ele>387.0</ele><time>2026-04-25T14:17:05.138Z</time></trkpt><trkpt lat="43.3992617" lon="10.5734433"><ele>387.0</ele><time>2026-04-25T14:17:06.136Z</time></trkpt><trkpt lat="43.3993917" lon="10.5733867"><ele>387.0</ele><time>2026-04-25T14:17:07.142Z</time></trkpt><trkpt lat="43.39952" lon="10.5733117"><ele>387.0</ele><time>2026-04-25T14:17:08.132Z</time></trkpt><trkpt lat="43.3996467" lon="10.5732083"><ele>387.0</ele><time>2026-04-25T14:17:09.134Z</time></trkpt><trkpt lat="43.3997633" lon="10.5730767"><ele>387.0</ele><time>2026-04-25T14:17:10.141Z</time></trkpt><trkpt lat="43.3998683" lon="10.5729117"><ele>387.0</ele><time>2026-04-25T14:17:11.143Z</time></trkpt><trkpt lat="43.3999617" lon="10.5727217"><ele>387.0</ele><time>2026-04-25T14:17:12.142Z</time></trkpt><trkpt lat="43.4000383" lon="10.5725333"><ele>387.0</ele><time>2026-04-25T14:17:13.139Z</time></trkpt><trkpt lat="43.4001133" lon="10.5723617"><ele>387.0</ele><time>2026-04-25T14:17:14.141Z</time></trkpt><trkpt lat="43.4002033" lon="10.572205"><ele>387.0</ele><time>2026-04-25T14:17:15.136Z</time></trkpt><trkpt lat="43.40032" lon="10.5720667"><ele>387.0</ele><time>2026-04-25T14:17:16.14Z</time></trkpt><trkpt lat="43.40046" lon="10.5719483"><ele>387.33333333333337</ele><time>2026-04-25T14:17:17.139Z</time></trkpt><trkpt lat="43.4006033" lon="10.5718317"><ele>387.6666666666667</ele><time>2026-04-25T14:17:18.138Z</time></trkpt><trkpt lat="43.400735" lon="10.57171"><ele>388.0</ele><time>2026-04-25T14:17:19.136Z</time></trkpt><trkpt lat="43.4008483" lon="10.5715683"><ele>388.0</ele><time>2026-04-25T14:17:20.136Z</time></trkpt><trkpt lat="43.400945" lon="10.57141"><ele>388.0</ele><time>2026-04-25T14:17:21.134Z</time></trkpt><trkpt lat="43.401025" lon="10.5712533"><ele>388.0</ele><time>2026-04-25T14:17:22.135Z</time></trkpt><trkpt lat="43.4011" lon="10.5711183"><ele>388.0</ele><time>2026-04-25T14:17:23.14Z</time></trkpt><trkpt lat="43.4011767" lon="10.5710167"><ele>386.75</ele><time>2026-04-25T14:17:24.132Z</time></trkpt><trkpt lat="43.401265" lon="10.57095"><ele>385.5</ele><time>2026-04-25T14:17:25.14Z</time></trkpt><trkpt lat="43.4013717" lon="10.570925"><ele>384.25</ele><time>2026-04-25T14:17:26.12Z</time></trkpt><trkpt lat="43.40149" lon="10.5709367"><ele>383.0</ele><time>2026-04-25T14:17:27.136Z</time></trkpt><trkpt lat="43.4016083" lon="10.5709833"><ele>383.0</ele><time>2026-04-25T14:17:28.135Z</time></trkpt><trkpt lat="43.401725" lon="10.5710533"><ele>383.0</ele><time>2026-04-25T14:17:29.138Z</time></trkpt><trkpt lat="43.4018333" lon="10.5711133"><ele>383.0</ele><time>2026-04-25T14:17:30.141Z</time></trkpt><trkpt lat="43.4019367" lon="10.5711467"><ele>383.0</ele><time>2026-04-25T14:17:31.138Z</time></trkpt><trkpt lat="43.402045" lon="10.5711567"><ele>383.0</ele><time>2026-04-25T14:17:32.133Z</time></trkpt><trkpt lat="43.4021483" lon="10.571125"><ele>383.0</ele><time>2026-04-25T14:17:33.139Z</time></trkpt><trkpt lat="43.4022467" lon="10.5710483"><ele>383.0</ele><time>2026-04-25T14:17:34.138Z</time></trkpt><trkpt lat="43.4023367" lon="10.57094"><ele>383.0</ele><time>2026-04-25T14:17:35.14Z</time></trkpt><trkpt lat="43.4024217" lon="10.5708283"><ele>383.79999999999995</ele><time>2026-04-25T14:17:36.138Z</time></trkpt><trkpt lat="43.4025117" lon="10.5707333"><ele>384.6</ele><time>2026-04-25T14:17:37.137Z</time></trkpt><trkpt lat="43.402605" lon="10.5706683"><ele>385.4</ele><time>2026-04-25T14:17:38.132Z</time></trkpt><trkpt lat="43.402695" lon="10.57065"><ele>386.20000000000005</ele><time>2026-04-25T14:17:39.139Z</time></trkpt><trkpt lat="43.4027783" lon="10.5706567"><ele>387.0</ele><time>2026-04-25T14:17:40.141Z</time></trkpt><trkpt lat="43.4028617" lon="10.570715"><ele>387.0</ele><time>2026-04-25T14:17:41.138Z</time></trkpt><trkpt lat="43.4029317" lon="10.57083"><ele>387.0</ele><time>2026-04-25T14:17:42.135Z</time></trkpt><trkpt lat="43.4029633" lon="10.57099"><ele>387.0</ele><time>2026-04-25T14:17:43.139Z</time></trkpt><trkpt lat="43.402995" lon="10.5711517"><ele>387.0</ele><time>2026-04-25T14:17:44.135Z</time></trkpt><trkpt lat="43.4030367" lon="10.5712883"><ele>387.20000000000005</ele><time>2026-04-25T14:17:45.132Z</time></trkpt><trkpt lat="43.4031" lon="10.571395"><ele>387.4</ele><time>2026-04-25T14:17:46.135Z</time></trkpt><trkpt lat="43.4031817" lon="10.5714783"><ele>387.6</ele><time>2026-04-25T14:17:47.136Z</time></trkpt><trkpt lat="43.40328" lon="10.5715383"><ele>387.79999999999995</ele><time>2026-04-25T14:17:48.136Z</time></trkpt><trkpt lat="43.403385" lon="10.571575"><ele>388.0</ele><time>2026-04-25T14:17:49.139Z</time></trkpt><trkpt lat="43.4034933" lon="10.5715933"><ele>388.0</ele><time>2026-04-25T14:17:50.136Z</time></trkpt><trkpt lat="43.403595" lon="10.571615"><ele>388.0</ele><time>2026-04-25T14:17:51.141Z</time></trkpt><trkpt lat="43.4036933" lon="10.5716583"><ele>388.0</ele><time>2026-04-25T14:17:52.134Z</time></trkpt><trkpt lat="43.4037817" lon="10.571725"><ele>388.0</ele><time>2026-04-25T14:17:53.137Z</time></trkpt><trkpt lat="43.4038533" lon="10.5718233"><ele>388.0</ele><time>2026-04-25T14:17:54.139Z</time></trkpt><trkpt lat="43.403915" lon="10.5719367"><ele>386.79999999999995</ele><time>2026-04-25T14:17:55.141Z</time></trkpt><trkpt lat="43.4039567" lon="10.5720617"><ele>385.6</ele><time>2026-04-25T14:17:56.135Z</time></trkpt><trkpt lat="43.403975" lon="10.5722017"><ele>384.4</ele><time>2026-04-25T14:17:57.142Z</time></trkpt><trkpt lat="43.4039733" lon="10.5723483"><ele>383.20000000000005</ele><time>2026-04-25T14:17:58.135Z</time></trkpt><trkpt lat="43.4039433" lon="10.5725133"><ele>382.0</ele><time>2026-04-25T14:17:59.139Z</time></trkpt><trkpt lat="43.4038933" lon="10.5727033"><ele>385.66666666666663</ele><time>2026-04-25T14:18:00.135Z</time></trkpt><trkpt lat="43.4038217" lon="10.5728967"><ele>389.3333333333333</ele><time>2026-04-25T14:18:01.139Z</time></trkpt><trkpt lat="43.4037583" lon="10.573085"><ele>393.0</ele><time>2026-04-25T14:18:02.138Z</time></trkpt><trkpt lat="43.40371" lon="10.5732683"><ele>393.0</ele><time>2026-04-25T14:18:03.136Z</time></trkpt><trkpt lat="43.4036883" lon="10.5734517"><ele>393.0</ele><time>2026-04-25T14:18:04.138Z</time></trkpt><trkpt lat="43.403695" lon="10.573635"><ele>393.0</ele><time>2026-04-25T14:18:05.139Z</time></trkpt><trkpt lat="43.403735" lon="10.5738233"><ele>393.0</ele><time>2026-04-25T14:18:06.133Z</time></trkpt><trkpt lat="43.4038083" lon="10.5740383"><ele>392.0</ele><time>2026-04-25T14:18:07.126Z</time></trkpt><trkpt lat="43.4039033" lon="10.5742967"><ele>391.0</ele><time>2026-04-25T14:18:08.137Z</time></trkpt><trkpt lat="43.404" lon="10.5745767"><ele>390.0</ele><time>2026-04-25T14:18:09.133Z</time></trkpt><trkpt lat="43.4040867" lon="10.5748417"><ele>390.0</ele><time>2026-04-25T14:18:10.136Z</time></trkpt><trkpt lat="43.4041517" lon="10.5750733"><ele>390.0</ele><time>2026-04-25T14:18:11.139Z</time></trkpt><trkpt lat="43.4042067" lon="10.575265"><ele>390.0</ele><time>2026-04-25T14:18:12.139Z</time></trkpt><trkpt lat="43.4042617" lon="10.5754233"><ele>390.6</ele><time>2026-04-25T14:18:13.138Z</time></trkpt><trkpt lat="43.4043283" lon="10.5755467"><ele>391.2</ele><time>2026-04-25T14:18:14.14Z</time></trkpt><trkpt lat="43.40441" lon="10.5756317"><ele>391.79999999999995</ele><time>2026-04-25T14:18:15.137Z</time></trkpt><trkpt lat="43.404495" lon="10.5756683"><ele>392.4</ele><time>2026-04-25T14:18:16.136Z</time></trkpt><trkpt lat="43.40458" lon="10.57567"><ele>393.0</ele><time>2026-04-25T14:18:17.138Z</time></trkpt><trkpt lat="43.4046733" lon="10.5756217"><ele>393.0</ele><time>2026-04-25T14:18:18.137Z</time></trkpt><trkpt lat="43.40478" lon="10.5755267"><ele>393.0</ele><time>2026-04-25T14:18:19.139Z</time></trkpt><trkpt lat="43.404895" lon="10.575385"><ele>393.0</ele><time>2026-04-25T14:18:20.137Z</time></trkpt><trkpt lat="43.4050033" lon="10.5752533"><ele>393.0</ele><time>2026-04-25T14:18:21.138Z</time></trkpt><trkpt lat="43.4051083" lon="10.5751583"><ele>391.2</ele><time>2026-04-25T14:18:22.134Z</time></trkpt><trkpt lat="43.405215" lon="10.5750967"><ele>389.4</ele><time>2026-04-25T14:18:23.135Z</time></trkpt><trkpt lat="43.405315" lon="10.5750733"><ele>387.59999999999997</ele><time>2026-04-25T14:18:24.134Z</time></trkpt><trkpt lat="43.4054" lon="10.5750967"><ele>385.79999999999995</ele><time>2026-04-25T14:18:25.139Z</time></trkpt><trkpt lat="43.405475" lon="10.5751633"><ele>384.0</ele><time>2026-04-25T14:18:26.133Z</time></trkpt><trkpt lat="43.4055433" lon="10.5752917"><ele>383.6666666666667</ele><time>2026-04-25T14:18:27.13Z</time></trkpt><trkpt lat="43.4056083" lon="10.5754733"><ele>383.33333333333337</ele><time>2026-04-25T14:18:28.135Z</time></trkpt><trkpt lat="43.4056983" lon="10.57566"><ele>383.0</ele><time>2026-04-25T14:18:29.142Z</time></trkpt><trkpt lat="43.4058217" lon="10.57585"><ele>383.0</ele><time>2026-04-25T14:18:30.135Z</time></trkpt><trkpt lat="43.40595" lon="10.5760117"><ele>383.0</ele><time>2026-04-25T14:18:31.139Z</time></trkpt><trkpt lat="43.406055" lon="10.5761433"><ele>383.0</ele><time>2026-04-25T14:18:32.137Z</time></trkpt><trkpt lat="43.40614" lon="10.57627"><ele>383.0</ele><time>2026-04-25T14:18:33.114Z</time></trkpt><trkpt lat="43.4062117" lon="10.5763933"><ele>382.59999999999997</ele><time>2026-04-25T14:18:34.114Z</time></trkpt><trkpt lat="43.4062767" lon="10.576515"><ele>382.2</ele><time>2026-04-25T14:18:35.145Z</time></trkpt><trkpt lat="43.40634" lon="10.5766183"><ele>381.8</ele><time>2026-04-25T14:18:36.118Z</time></trkpt><trkpt lat="43.4064117" lon="10.5767"><ele>381.4</ele><time>2026-04-25T14:18:37.144Z</time></trkpt><trkpt lat="43.4064767" lon="10.5767617"><ele>381.0</ele><time>2026-04-25T14:18:38.131Z</time></trkpt><trkpt lat="43.4065383" lon="10.5768183"><ele>381.0</ele><time>2026-04-25T14:18:39.132Z</time></trkpt><trkpt lat="43.4065983" lon="10.57687"><ele>381.0</ele><time>2026-04-25T14:18:40.132Z</time></trkpt><trkpt lat="43.4066567" lon="10.5769233"><ele>381.0</ele><time>2026-04-25T14:18:41.112Z</time></trkpt><trkpt lat="43.4067117" lon="10.5769833"><ele>381.0</ele><time>2026-04-25T14:18:42.122Z</time></trkpt><trkpt lat="43.4067667" lon="10.5770433"><ele>381.0</ele><time>2026-04-25T14:18:43.127Z</time></trkpt><trkpt lat="43.4068133" lon="10.577115"><ele>381.0</ele><time>2026-04-25T14:18:44.124Z</time></trkpt><trkpt lat="43.4068717" lon="10.5772133"><ele>381.0</ele><time>2026-04-25T14:18:45.134Z</time></trkpt><trkpt lat="43.4069267" lon="10.5773433"><ele>382.5</ele><time>2026-04-25T14:18:46.13Z</time></trkpt><trkpt lat="43.4069783" lon="10.5775117"><ele>384.0</ele><time>2026-04-25T14:18:47.124Z</time></trkpt><trkpt lat="43.407025" lon="10.5777017"><ele>385.5</ele><time>2026-04-25T14:18:48.121Z</time></trkpt><trkpt lat="43.407075" lon="10.5778883"><ele>387.0</ele><time>2026-04-25T14:18:49.131Z</time></trkpt><trkpt lat="43.4071467" lon="10.5780667"><ele>385.75</ele><time>2026-04-25T14:18:50.133Z</time></trkpt><trkpt lat="43.40724" lon="10.5782217"><ele>384.5</ele><time>2026-04-25T14:18:51.13Z</time></trkpt><trkpt lat="43.4073417" lon="10.57835"><ele>383.25</ele><time>2026-04-25T14:18:52.131Z</time></trkpt><trkpt lat="43.4074467" lon="10.578445"><ele>382.0</ele><time>2026-04-25T14:18:53.12Z</time></trkpt><trkpt lat="43.4075583" lon="10.57851"><ele>382.0</ele><time>2026-04-25T14:18:54.121Z</time></trkpt><trkpt lat="43.4076817" lon="10.578545"><ele>382.0</ele><time>2026-04-25T14:18:55.128Z</time></trkpt><trkpt lat="43.4078133" lon="10.578545"><ele>382.0</ele><time>2026-04-25T14:18:56.118Z</time></trkpt><trkpt lat="43.4079467" lon="10.5785417"><ele>382.0</ele><time>2026-04-25T14:18:57.12Z</time></trkpt><trkpt lat="43.4080733" lon="10.57854"><ele>381.8</ele><time>2026-04-25T14:18:58.129Z</time></trkpt><trkpt lat="43.4081883" lon="10.5785367"><ele>381.6</ele><time>2026-04-25T14:18:59.131Z</time></trkpt><trkpt lat="43.4082983" lon="10.578535"><ele>381.40000000000003</ele><time>2026-04-25T14:19:00.127Z</time></trkpt><trkpt lat="43.40841" lon="10.57853"><ele>381.20000000000005</ele><time>2026-04-25T14:19:01.123Z</time></trkpt><trkpt lat="43.4085183" lon="10.5785267"><ele>381.0</ele><time>2026-04-25T14:19:02.126Z</time></trkpt><trkpt lat="43.4086217" lon="10.57852"><ele>381.0</ele><time>2026-04-25T14:19:03.118Z</time></trkpt><trkpt lat="43.4087117" lon="10.5785083"><ele>381.0</ele><time>2026-04-25T14:19:04.13Z</time></trkpt><trkpt lat="43.4087817" lon="10.5784917"><ele>381.0</ele><time>2026-04-25T14:19:05.149Z</time></trkpt><trkpt lat="43.408885" lon="10.5784417"><ele>381.0</ele><time>2026-04-25T14:19:07.126Z</time></trkpt><trkpt lat="43.408945" lon="10.5782983"><ele>381.0</ele><time>2026-04-25T14:19:09.123Z</time></trkpt><trkpt lat="43.4089683" lon="10.5781783"><ele>381.25</ele><time>2026-04-25T14:19:10.126Z</time></trkpt><trkpt lat="43.4089667" lon="10.578005"><ele>381.5</ele><time>2026-04-25T14:19:11.122Z</time></trkpt><trkpt lat="43.4089517" lon="10.57783"><ele>381.75</ele><time>2026-04-25T14:19:12.131Z</time></trkpt><trkpt lat="43.4089433" lon="10.57768"><ele>382.0</ele><time>2026-04-25T14:19:13.134Z</time></trkpt><trkpt lat="43.4089367" lon="10.5775483"><ele>380.40000000000003</ele><time>2026-04-25T14:19:14.12Z</time></trkpt><trkpt lat="43.408935" lon="10.5774333"><ele>378.8</ele><time>2026-04-25T14:19:15.125Z</time></trkpt><trkpt lat="43.4089433" lon="10.5773267"><ele>377.2</ele><time>2026-04-25T14:19:16.124Z</time></trkpt><trkpt lat="43.4089717" lon="10.5772483"><ele>375.6</ele><time>2026-04-25T14:19:17.131Z</time></trkpt><trkpt lat="43.4090917" lon="10.5772017"><ele>374.0</ele><time>2026-04-25T14:19:19.119Z</time></trkpt><trkpt lat="43.409195" lon="10.5772033"><ele>374.0</ele><time>2026-04-25T14:19:20.114Z</time></trkpt><trkpt lat="43.4093433" lon="10.57722"><ele>374.0</ele><time>2026-04-25T14:19:21.127Z</time></trkpt><trkpt lat="43.409485" lon="10.5772367"><ele>374.0</ele><time>2026-04-25T14:19:22.13Z</time></trkpt><trkpt lat="43.4096133" lon="10.57725"><ele>374.0</ele><time>2026-04-25T14:19:23.132Z</time></trkpt><trkpt lat="43.409735" lon="10.577255"><ele>373.2</ele><time>2026-04-25T14:19:24.128Z</time></trkpt><trkpt lat="43.4098533" lon="10.5772633"><ele>372.4</ele><time>2026-04-25T14:19:25.125Z</time></trkpt><trkpt lat="43.4099617" lon="10.5772717"><ele>371.6</ele><time>2026-04-25T14:19:26.121Z</time></trkpt><trkpt lat="43.4100633" lon="10.577275"><ele>370.8</ele><time>2026-04-25T14:19:27.122Z</time></trkpt><trkpt lat="43.4101583" lon="10.5772767"><ele>370.0</ele><time>2026-04-25T14:19:28.129Z</time></trkpt><trkpt lat="43.4102483" lon="10.5772833"><ele>370.0</ele><time>2026-04-25T14:19:29.131Z</time></trkpt><trkpt lat="43.4103333" lon="10.5772883"><ele>370.0</ele><time>2026-04-25T14:19:30.126Z</time></trkpt><trkpt lat="43.4104133" lon="10.5772883"><ele>370.0</ele><time>2026-04-25T14:19:31.127Z</time></trkpt><trkpt lat="43.41049" lon="10.5772817"><ele>370.0</ele><time>2026-04-25T14:19:32.118Z</time></trkpt><trkpt lat="43.4105633" lon="10.5772667"><ele>370.0</ele><time>2026-04-25T14:19:33.127Z</time></trkpt><trkpt lat="43.41063" lon="10.577245"><ele>370.0</ele><time>2026-04-25T14:19:34.126Z</time></trkpt><trkpt lat="43.4106967" lon="10.577215"><ele>368.8333333333333</ele><time>2026-04-25T14:19:35.127Z</time></trkpt><trkpt lat="43.4107633" lon="10.5771783"><ele>367.66666666666663</ele><time>2026-04-25T14:19:36.119Z</time></trkpt><trkpt lat="43.4108333" lon="10.5771233"><ele>366.5</ele><time>2026-04-25T14:19:37.118Z</time></trkpt><trkpt lat="43.410895" lon="10.57705"><ele>365.3333333333333</ele><time>2026-04-25T14:19:38.124Z</time></trkpt><trkpt lat="43.4109433" lon="10.5769517"><ele>364.1666666666667</ele><time>2026-04-25T14:19:39.116Z</time></trkpt><trkpt lat="43.41097" lon="10.5768133"><ele>363.0</ele><time>2026-04-25T14:19:40.116Z</time></trkpt><trkpt lat="43.4109967" lon="10.5766417"><ele>361.75</ele><time>2026-04-25T14:19:41.119Z</time></trkpt><trkpt lat="43.4110267" lon="10.5764567"><ele>360.5</ele><time>2026-04-25T14:19:42.13Z</time></trkpt><trkpt lat="43.41106" lon="10.5762683"><ele>359.25</ele><time>2026-04-25T14:19:43.124Z</time></trkpt><trkpt lat="43.411095" lon="10.5760917"><ele>358.0</ele><time>2026-04-25T14:19:44.12Z</time></trkpt><trkpt lat="43.4111233" lon="10.5759167"><ele>356.25</ele><time>2026-04-25T14:19:45.128Z</time></trkpt><trkpt lat="43.4111533" lon="10.575745"><ele>354.5</ele><time>2026-04-25T14:19:46.128Z</time></trkpt><trkpt lat="43.41118" lon="10.57558"><ele>352.75</ele><time>2026-04-25T14:19:47.121Z</time></trkpt><trkpt lat="43.411205" lon="10.5754183"><ele>351.0</ele><time>2026-04-25T14:19:48.132Z</time></trkpt><trkpt lat="43.4112317" lon="10.5752617"><ele>351.8</ele><time>2026-04-25T14:19:49.12Z</time></trkpt><trkpt lat="43.4112583" lon="10.57511"><ele>352.6</ele><time>2026-04-25T14:19:50.122Z</time></trkpt><trkpt lat="43.4112817" lon="10.5749633"><ele>353.4</ele><time>2026-04-25T14:19:51.121Z</time></trkpt><trkpt lat="43.4113033" lon="10.5748233"><ele>354.2</ele><time>2026-04-25T14:19:52.121Z</time></trkpt><trkpt lat="43.4113283" lon="10.5746883"><ele>355.0</ele><time>2026-04-25T14:19:53.123Z</time></trkpt><trkpt lat="43.4113617" lon="10.5745583"><ele>351.4</ele><time>2026-04-25T14:19:54.127Z</time></trkpt><trkpt lat="43.4114083" lon="10.5744383"><ele>347.8</ele><time>2026-04-25T14:19:55.122Z</time></trkpt><trkpt lat="43.41147" lon="10.5743283"><ele>344.20000000000005</ele><time>2026-04-25T14:19:56.119Z</time></trkpt><trkpt lat="43.4115567" lon="10.5742317"><ele>340.6</ele><time>2026-04-25T14:19:57.123Z</time></trkpt><trkpt lat="43.41166" lon="10.5741367"><ele>337.0</ele><time>2026-04-25T14:19:58.128Z</time></trkpt><trkpt lat="43.4117733" lon="10.5740217"><ele>337.0</ele><time>2026-04-25T14:19:59.12Z</time></trkpt><trkpt lat="43.4118867" lon="10.5738783"><ele>337.0</ele><time>2026-04-25T14:20:00.121Z</time></trkpt><trkpt lat="43.4119933" lon="10.57372"><ele>337.0</ele><time>2026-04-25T14:20:01.129Z</time></trkpt><trkpt lat="43.412095" lon="10.5735617"><ele>335.0</ele><time>2026-04-25T14:20:02.118Z</time></trkpt><trkpt lat="43.4122017" lon="10.5734083"><ele>333.0</ele><time>2026-04-25T14:20:03.124Z</time></trkpt><trkpt lat="43.4123083" lon="10.5732767"><ele>331.0</ele><time>2026-04-25T14:20:04.12Z</time></trkpt><trkpt lat="43.41242" lon="10.5731683"><ele>329.0</ele><time>2026-04-25T14:20:05.115Z</time></trkpt><trkpt lat="43.4125417" lon="10.5730867"><ele>329.0</ele><time>2026-04-25T14:20:06.126Z</time></trkpt><trkpt lat="43.4126633" lon="10.5730333"><ele>329.0</ele><time>2026-04-25T14:20:07.122Z</time></trkpt><trkpt lat="43.4127717" lon="10.5729883"><ele>329.0</ele><time>2026-04-25T14:20:08.122Z</time></trkpt><trkpt lat="43.4128633" lon="10.5729283"><ele>329.0</ele><time>2026-04-25T14:20:09.126Z</time></trkpt><trkpt lat="43.41293" lon="10.5728433"><ele>329.0</ele><time>2026-04-25T14:20:10.129Z</time></trkpt><trkpt lat="43.4129733" lon="10.5727217"><ele>326.75</ele><time>2026-04-25T14:20:11.13Z</time></trkpt><trkpt lat="43.4130017" lon="10.5725517"><ele>324.5</ele><time>2026-04-25T14:20:12.133Z</time></trkpt><trkpt lat="43.4130117" lon="10.5723433"><ele>322.25</ele><time>2026-04-25T14:20:13.13Z</time></trkpt><trkpt lat="43.41302" lon="10.572135"><ele>320.0</ele><time>2026-04-25T14:20:14.127Z</time></trkpt><trkpt lat="43.413025" lon="10.5719383"><ele>317.75</ele><time>2026-04-25T14:20:15.132Z</time></trkpt><trkpt lat="43.4130367" lon="10.57176"><ele>315.5</ele><time>2026-04-25T14:20:16.14Z</time></trkpt><trkpt lat="43.413055" lon="10.5715917"><ele>313.25</ele><time>2026-04-25T14:20:17.121Z</time></trkpt><trkpt lat="43.4130883" lon="10.571425"><ele>311.0</ele><time>2026-04-25T14:20:18.128Z</time></trkpt><trkpt lat="43.413155" lon="10.5712617"><ele>308.33333333333337</ele><time>2026-04-25T14:20:19.129Z</time></trkpt><trkpt lat="43.4132417" lon="10.5710917"><ele>305.6666666666667</ele><time>2026-04-25T14:20:20.12Z</time></trkpt><trkpt lat="43.413335" lon="10.5709217"><ele>303.0</ele><time>2026-04-25T14:20:21.119Z</time></trkpt><trkpt lat="43.4134333" lon="10.5707633"><ele>303.0</ele><time>2026-04-25T14:20:22.127Z</time></trkpt><trkpt lat="43.413545" lon="10.57062"><ele>303.0</ele><time>2026-04-25T14:20:23.133Z</time></trkpt><trkpt lat="43.4136683" lon="10.570495"><ele>303.0</ele><time>2026-04-25T14:20:24.129Z</time></trkpt><trkpt lat="43.4138017" lon="10.57038"><ele>301.3333333333333</ele><time>2026-04-25T14:20:25.134Z</time></trkpt><trkpt lat="43.413945" lon="10.5702817"><ele>299.66666666666663</ele><time>2026-04-25T14:20:26.13Z</time></trkpt><trkpt lat="43.4140883" lon="10.5702033"><ele>298.0</ele><time>2026-04-25T14:20:27.127Z</time></trkpt><trkpt lat="43.4142267" lon="10.57014"><ele>298.0</ele><time>2026-04-25T14:20:28.127Z</time></trkpt><trkpt lat="43.4143483" lon="10.5700783"><ele>298.0</ele><time>2026-04-25T14:20:29.119Z</time></trkpt><trkpt lat="43.4144583" lon="10.5700083"><ele>298.0</ele><time>2026-04-25T14:20:30.131Z</time></trkpt><trkpt lat="43.4145417" lon="10.5699167"><ele>298.0</ele><time>2026-04-25T14:20:31.131Z</time></trkpt><trkpt lat="43.4145967" lon="10.5698017"><ele>298.0</ele><time>2026-04-25T14:20:32.12Z</time></trkpt><trkpt lat="43.4146133" lon="10.5696667"><ele>298.0</ele><time>2026-04-25T14:20:33.121Z</time></trkpt><trkpt lat="43.4146" lon="10.5695133"><ele>298.0</ele><time>2026-04-25T14:20:34.124Z</time></trkpt><trkpt lat="43.4145617" lon="10.5693283"><ele>298.0</ele><time>2026-04-25T14:20:35.123Z</time></trkpt><trkpt lat="43.4144933" lon="10.569115"><ele>295.0</ele><time>2026-04-25T14:20:36.125Z</time></trkpt><trkpt lat="43.4144067" lon="10.5688917"><ele>292.0</ele><time>2026-04-25T14:20:37.126Z</time></trkpt><trkpt lat="43.41432" lon="10.5686733"><ele>289.0</ele><time>2026-04-25T14:20:38.129Z</time></trkpt><trkpt lat="43.4142467" lon="10.56847"><ele>288.0</ele><time>2026-04-25T14:20:39.12Z</time></trkpt><trkpt lat="43.4141833" lon="10.5682783"><ele>287.0</ele><time>2026-04-25T14:20:40.13Z</time></trkpt><trkpt lat="43.414145" lon="10.56807"><ele>286.0</ele><time>2026-04-25T14:20:41.122Z</time></trkpt><trkpt lat="43.41413" lon="10.5678283"><ele>285.66666666666663</ele><time>2026-04-25T14:20:42.129Z</time></trkpt><trkpt lat="43.4141183" lon="10.56755"><ele>285.3333333333333</ele><time>2026-04-25T14:20:43.132Z</time></trkpt><trkpt lat="43.4141133" lon="10.5672817"><ele>285.0</ele><time>2026-04-25T14:20:44.126Z</time></trkpt><trkpt lat="43.41411" lon="10.56705"><ele>284.25</ele><time>2026-04-25T14:20:45.128Z</time></trkpt><trkpt lat="43.414115" lon="10.5668533"><ele>283.5</ele><time>2026-04-25T14:20:46.129Z</time></trkpt><trkpt lat="43.4141383" lon="10.5666633"><ele>282.75</ele><time>2026-04-25T14:20:47.12Z</time></trkpt><trkpt lat="43.41419" lon="10.566455"><ele>282.0</ele><time>2026-04-25T14:20:48.12Z</time></trkpt><trkpt lat="43.41427" lon="10.5662233"><ele>279.3333333333333</ele><time>2026-04-25T14:20:49.122Z</time></trkpt><trkpt lat="43.41436" lon="10.5660017"><ele>276.66666666666663</ele><time>2026-04-25T14:20:50.134Z</time></trkpt><trkpt lat="43.4144467" lon="10.5658"><ele>274.0</ele><time>2026-04-25T14:20:51.121Z</time></trkpt><trkpt lat="43.4145283" lon="10.5656117"><ele>274.0</ele><time>2026-04-25T14:20:52.125Z</time></trkpt><trkpt lat="43.4146217" lon="10.5654267"><ele>274.0</ele><time>2026-04-25T14:20:53.129Z</time></trkpt><trkpt lat="43.414725" lon="10.5652533"><ele>274.0</ele><time>2026-04-25T14:20:54.125Z</time></trkpt><trkpt lat="43.4148283" lon="10.565095"><ele>274.5</ele><time>2026-04-25T14:20:55.135Z</time></trkpt><trkpt lat="43.4149283" lon="10.5649433"><ele>275.0</ele><time>2026-04-25T14:20:56.127Z</time></trkpt><trkpt lat="43.41502" lon="10.564785"><ele>275.5</ele><time>2026-04-25T14:20:57.129Z</time></trkpt><trkpt lat="43.4151017" lon="10.5646083"><ele>276.0</ele><time>2026-04-25T14:20:58.131Z</time></trkpt><trkpt lat="43.4151533" lon="10.5644133"><ele>273.6666666666667</ele><time>2026-04-25T14:20:59.136Z</time></trkpt><trkpt lat="43.4151733" lon="10.5642017"><ele>271.33333333333337</ele><time>2026-04-25T14:21:00.115Z</time></trkpt><trkpt lat="43.41516" lon="10.5639767"><ele>269.0</ele><time>2026-04-25T14:21:01.125Z</time></trkpt><trkpt lat="43.4151067" lon="10.563745"><ele>268.33333333333337</ele><time>2026-04-25T14:21:02.126Z</time></trkpt><trkpt lat="43.4150267" lon="10.56351"><ele>267.6666666666667</ele><time>2026-04-25T14:21:03.126Z</time></trkpt><trkpt lat="43.4149433" lon="10.56329"><ele>267.0</ele><time>2026-04-25T14:21:04.122Z</time></trkpt><trkpt lat="43.4147633" lon="10.5629333"><ele>264.5</ele><time>2026-04-25T14:21:06.119Z</time></trkpt><trkpt lat="43.414645" lon="10.562795"><ele>262.0</ele><time>2026-04-25T14:21:07.118Z</time></trkpt><trkpt lat="43.414515" lon="10.5626867"><ele>259.5</ele><time>2026-04-25T14:21:08.124Z</time></trkpt><trkpt lat="43.4143933" lon="10.5625933"><ele>257.0</ele><time>2026-04-25T14:21:09.124Z</time></trkpt><trkpt lat="43.4142883" lon="10.562495"><ele>257.0</ele><time>2026-04-25T14:21:10.127Z</time></trkpt><trkpt lat="43.4141983" lon="10.5623733"><ele>257.0</ele><time>2026-04-25T14:21:11.119Z</time></trkpt><trkpt lat="43.4141283" lon="10.562215"><ele>257.0</ele><time>2026-04-25T14:21:12.122Z</time></trkpt><trkpt lat="43.4140867" lon="10.5620217"><ele>257.0</ele><time>2026-04-25T14:21:13.124Z</time></trkpt><trkpt lat="43.4140667" lon="10.5617783"><ele>255.5</ele><time>2026-04-25T14:21:14.118Z</time></trkpt><trkpt lat="43.4140583" lon="10.5614783"><ele>254.0</ele><time>2026-04-25T14:21:15.119Z</time></trkpt><trkpt lat="43.41405" lon="10.5611467"><ele>252.66666666666669</ele><time>2026-04-25T14:21:16.137Z</time></trkpt><trkpt lat="43.4140417" lon="10.5608417"><ele>251.33333333333331</ele><time>2026-04-25T14:21:17.128Z</time></trkpt><trkpt lat="43.4140333" lon="10.5605717"><ele>250.0</ele><time>2026-04-25T14:21:18.129Z</time></trkpt><trkpt lat="43.414025" lon="10.5603283"><ele>248.66666666666666</ele><time>2026-04-25T14:21:19.128Z</time></trkpt><trkpt lat="43.414025" lon="10.56011"><ele>247.33333333333331</ele><time>2026-04-25T14:21:20.128Z</time></trkpt><trkpt lat="43.4140433" lon="10.5599083"><ele>246.0</ele><time>2026-04-25T14:21:21.119Z</time></trkpt><trkpt lat="43.41409" lon="10.5597083"><ele>241.66666666666669</ele><time>2026-04-25T14:21:22.117Z</time></trkpt><trkpt lat="43.4141667" lon="10.5595067"><ele>237.33333333333334</ele><time>2026-04-25T14:21:23.121Z</time></trkpt><trkpt lat="43.4142633" lon="10.5592983"><ele>233.0</ele><time>2026-04-25T14:21:24.119Z</time></trkpt><trkpt lat="43.4143633" lon="10.5590833"><ele>233.0</ele><time>2026-04-25T14:21:25.122Z</time></trkpt><trkpt lat="43.4144433" lon="10.5588683"><ele>233.0</ele><time>2026-04-25T14:21:26.129Z</time></trkpt><trkpt lat="43.4145017" lon="10.5586533"><ele>233.0</ele><time>2026-04-25T14:21:27.123Z</time></trkpt><trkpt lat="43.4145417" lon="10.5584433"><ele>232.60000000000002</ele><time>2026-04-25T14:21:28.129Z</time></trkpt><trkpt lat="43.41457" lon="10.5582583"><ele>232.20000000000002</ele><time>2026-04-25T14:21:29.126Z</time></trkpt><trkpt lat="43.4145967" lon="10.5581"><ele>231.8</ele><time>2026-04-25T14:21:30.127Z</time></trkpt><trkpt lat="43.4146267" lon="10.5579767"><ele>231.4</ele><time>2026-04-25T14:21:31.137Z</time></trkpt><trkpt lat="43.414665" lon="10.5578733"><ele>231.0</ele><time>2026-04-25T14:21:32.128Z</time></trkpt><trkpt lat="43.41471" lon="10.5577983"><ele>231.0</ele><time>2026-04-25T14:21:33.132Z</time></trkpt><trkpt lat="43.4147717" lon="10.55777"><ele>231.0</ele><time>2026-04-25T14:21:34.126Z</time></trkpt><trkpt lat="43.41484" lon="10.5577967"><ele>231.0</ele><time>2026-04-25T14:21:35.128Z</time></trkpt><trkpt lat="43.4150083" lon="10.5579867"><ele>231.0</ele><time>2026-04-25T14:21:37.137Z</time></trkpt><trkpt lat="43.4151217" lon="10.5580483"><ele>231.0</ele><time>2026-04-25T14:21:38.139Z</time></trkpt><trkpt lat="43.4152483" lon="10.5580533"><ele>231.0</ele><time>2026-04-25T14:21:39.134Z</time></trkpt><trkpt lat="43.41538" lon="10.5579917"><ele>231.0</ele><time>2026-04-25T14:21:40.129Z</time></trkpt><trkpt lat="43.415505" lon="10.5578617"><ele>231.0</ele><time>2026-04-25T14:21:41.14Z</time></trkpt><trkpt lat="43.415625" lon="10.5576783"><ele>228.66666666666669</ele><time>2026-04-25T14:21:42.143Z</time></trkpt><trkpt lat="43.4157333" lon="10.55746"><ele>226.33333333333334</ele><time>2026-04-25T14:21:43.129Z</time></trkpt><trkpt lat="43.4158183" lon="10.5572467"><ele>224.0</ele><time>2026-04-25T14:21:44.12Z</time></trkpt><trkpt lat="43.4158833" lon="10.5570567"><ele>223.25</ele><time>2026-04-25T14:21:45.123Z</time></trkpt><trkpt lat="43.4159217" lon="10.5568783"><ele>222.5</ele><time>2026-04-25T14:21:46.129Z</time></trkpt><trkpt lat="43.4159233" lon="10.556705"><ele>221.75</ele><time>2026-04-25T14:21:47.124Z</time></trkpt><trkpt lat="43.4158933" lon="10.5565267"><ele>221.0</ele><time>2026-04-25T14:21:48.139Z</time></trkpt><trkpt lat="43.4158367" lon="10.5563333"><ele>221.66666666666669</ele><time>2026-04-25T14:21:49.124Z</time></trkpt><trkpt lat="43.41577" lon="10.556095"><ele>222.33333333333331</ele><time>2026-04-25T14:21:50.128Z</time></trkpt><trkpt lat="43.415715" lon="10.5558117"><ele>223.0</ele><time>2026-04-25T14:21:51.125Z</time></trkpt><trkpt lat="43.4156517" lon="10.5555217"><ele>224.5</ele><time>2026-04-25T14:21:52.131Z</time></trkpt><trkpt lat="43.4155667" lon="10.5552233"><ele>226.0</ele><time>2026-04-25T14:21:53.126Z</time></trkpt><trkpt lat="43.4154567" lon="10.554905"><ele>216.0</ele><time>2026-04-25T14:21:54.131Z</time></trkpt><trkpt lat="43.41534" lon="10.5545933"><ele>206.0</ele><time>2026-04-25T14:21:55.13Z</time></trkpt><trkpt lat="43.415235" lon="10.5543167"><ele>206.0</ele><time>2026-04-25T14:21:56.132Z</time></trkpt><trkpt lat="43.4151433" lon="10.5540633"><ele>206.0</ele><time>2026-04-25T14:21:57.127Z</time></trkpt><trkpt lat="43.4150633" lon="10.5538333"><ele>206.0</ele><time>2026-04-25T14:21:58.127Z</time></trkpt><trkpt lat="43.414995" lon="10.553625"><ele>207.66666666666669</ele><time>2026-04-25T14:21:59.125Z</time></trkpt><trkpt lat="43.41494" lon="10.553425"><ele>209.33333333333331</ele><time>2026-04-25T14:22:00.12Z</time></trkpt><trkpt lat="43.4149017" lon="10.5532167"><ele>211.0</ele><time>2026-04-25T14:22:01.12Z</time></trkpt><trkpt lat="43.414885" lon="10.5529833"><ele>210.66666666666666</ele><time>2026-04-25T14:22:02.127Z</time></trkpt><trkpt lat="43.4148817" lon="10.552735"><ele>210.33333333333331</ele><time>2026-04-25T14:22:03.136Z</time></trkpt><trkpt lat="43.4148783" lon="10.5524617"><ele>210.0</ele><time>2026-04-25T14:22:04.135Z</time></trkpt><trkpt lat="43.4148567" lon="10.5521567"><ele>207.0</ele><time>2026-04-25T14:22:05.132Z</time></trkpt><trkpt lat="43.4147367" lon="10.5514633"><ele>207.5</ele><time>2026-04-25T14:22:07.127Z</time></trkpt><trkpt lat="43.41466" lon="10.551105"><ele>208.0</ele><time>2026-04-25T14:22:08.123Z</time></trkpt><trkpt lat="43.414595" lon="10.5507467"><ele>197.5</ele><time>2026-04-25T14:22:09.132Z</time></trkpt><trkpt lat="43.414525" lon="10.5503817"><ele>187.0</ele><time>2026-04-25T14:22:10.127Z</time></trkpt><trkpt lat="43.4144533" lon="10.5500083"><ele>187.0</ele><time>2026-04-25T14:22:11.126Z</time></trkpt><trkpt lat="43.4143767" lon="10.549635"><ele>187.0</ele><time>2026-04-25T14:22:12.124Z</time></trkpt><trkpt lat="43.4143" lon="10.54926"><ele>186.0</ele><time>2026-04-25T14:22:13.125Z</time></trkpt><trkpt lat="43.4142267" lon="10.54888"><ele>185.0</ele><time>2026-04-25T14:22:14.131Z</time></trkpt><trkpt lat="43.4141583" lon="10.5485033"><ele>185.0</ele><time>2026-04-25T14:22:15.121Z</time></trkpt><trkpt lat="43.4140933" lon="10.5481317"><ele>185.0</ele><time>2026-04-25T14:22:16.121Z</time></trkpt><trkpt lat="43.4140283" lon="10.5477617"><ele>187.0</ele><time>2026-04-25T14:22:17.127Z</time></trkpt><trkpt lat="43.41396" lon="10.5474"><ele>189.0</ele><time>2026-04-25T14:22:18.129Z</time></trkpt><trkpt lat="43.4138867" lon="10.547045"><ele>193.0</ele><time>2026-04-25T14:22:19.123Z</time></trkpt><trkpt lat="43.4138233" lon="10.54671"><ele>197.0</ele><time>2026-04-25T14:22:20.129Z</time></trkpt><trkpt lat="43.4137683" lon="10.546395"><ele>188.0</ele><time>2026-04-25T14:22:21.132Z</time></trkpt><trkpt lat="43.413715" lon="10.5460983"><ele>179.0</ele><time>2026-04-25T14:22:22.131Z</time></trkpt><trkpt lat="43.4136667" lon="10.5458133"><ele>170.0</ele><time>2026-04-25T14:22:23.119Z</time></trkpt><trkpt lat="43.4136183" lon="10.5455367"><ele>170.66666666666666</ele><time>2026-04-25T14:22:24.122Z</time></trkpt><trkpt lat="43.4135833" lon="10.5452717"><ele>171.33333333333334</ele><time>2026-04-25T14:22:25.12Z</time></trkpt><trkpt lat="43.41356" lon="10.5450183"><ele>172.0</ele><time>2026-04-25T14:22:26.119Z</time></trkpt><trkpt lat="43.4135483" lon="10.544765"><ele>172.66666666666669</ele><time>2026-04-25T14:22:27.126Z</time></trkpt><trkpt lat="43.4135433" lon="10.544525"><ele>173.33333333333334</ele><time>2026-04-25T14:22:28.125Z</time></trkpt><trkpt lat="43.4135333" lon="10.544305"><ele>174.0</ele><time>2026-04-25T14:22:29.117Z</time></trkpt><trkpt lat="43.4135017" lon="10.5441067"><ele>174.0</ele><time>2026-04-25T14:22:30.127Z</time></trkpt><trkpt lat="43.4134467" lon="10.5439267"><ele>174.0</ele><time>2026-04-25T14:22:31.122Z</time></trkpt><trkpt lat="43.4133583" lon="10.5437717"><ele>174.0</ele><time>2026-04-25T14:22:32.119Z</time></trkpt><trkpt lat="43.4132383" lon="10.5436467"><ele>174.0</ele><time>2026-04-25T14:22:33.127Z</time></trkpt><trkpt lat="43.413125" lon="10.543545"><ele>174.79999999999998</ele><time>2026-04-25T14:22:34.132Z</time></trkpt><trkpt lat="43.4130383" lon="10.543445"><ele>175.6</ele><time>2026-04-25T14:22:35.126Z</time></trkpt><trkpt lat="43.4129733" lon="10.5433417"><ele>176.4</ele><time>2026-04-25T14:22:36.121Z</time></trkpt><trkpt lat="43.41293" lon="10.543235"><ele>177.2</ele><time>2026-04-25T14:22:37.118Z</time></trkpt><trkpt lat="43.4129067" lon="10.5431133"><ele>178.0</ele><time>2026-04-25T14:22:38.128Z</time></trkpt><trkpt lat="43.41292" lon="10.5429633"><ele>175.33333333333334</ele><time>2026-04-25T14:22:39.123Z</time></trkpt><trkpt lat="43.4129517" lon="10.5427817"><ele>172.66666666666666</ele><time>2026-04-25T14:22:40.119Z</time></trkpt><trkpt lat="43.4129867" lon="10.54257"><ele>170.0</ele><time>2026-04-25T14:22:41.132Z</time></trkpt><trkpt lat="43.4130033" lon="10.5423533"><ele>170.0</ele><time>2026-04-25T14:22:42.131Z</time></trkpt><trkpt lat="43.4129983" lon="10.5421467"><ele>170.0</ele><time>2026-04-25T14:22:43.133Z</time></trkpt><trkpt lat="43.4129667" lon="10.5419367"><ele>170.0</ele><time>2026-04-25T14:22:44.123Z</time></trkpt><trkpt lat="43.4129133" lon="10.5417183"><ele>168.66666666666666</ele><time>2026-04-25T14:22:45.122Z</time></trkpt><trkpt lat="43.4128483" lon="10.5414817"><ele>167.33333333333334</ele><time>2026-04-25T14:22:46.12Z</time></trkpt><trkpt lat="43.4127733" lon="10.5412233"><ele>166.0</ele><time>2026-04-25T14:22:47.121Z</time></trkpt><trkpt lat="43.4126967" lon="10.5409617"><ele>166.0</ele><time>2026-04-25T14:22:48.13Z</time></trkpt><trkpt lat="43.4126217" lon="10.540715"><ele>166.0</ele><time>2026-04-25T14:22:49.122Z</time></trkpt><trkpt lat="43.4125467" lon="10.5404717"><ele>166.0</ele><time>2026-04-25T14:22:50.13Z</time></trkpt><trkpt lat="43.41247" lon="10.5402217"><ele>165.66666666666669</ele><time>2026-04-25T14:22:51.126Z</time></trkpt><trkpt lat="43.4123867" lon="10.5399583"><ele>165.33333333333334</ele><time>2026-04-25T14:22:52.13Z</time></trkpt><trkpt lat="43.4123" lon="10.5396867"><ele>165.0</ele><time>2026-04-25T14:22:53.13Z</time></trkpt><trkpt lat="43.4122167" lon="10.53941"><ele>164.0</ele><time>2026-04-25T14:22:54.12Z</time></trkpt><trkpt lat="43.4121333" lon="10.5391333"><ele>163.0</ele><time>2026-04-25T14:22:55.121Z</time></trkpt><trkpt lat="43.4120517" lon="10.53885"><ele>162.0</ele><time>2026-04-25T14:22:56.121Z</time></trkpt><trkpt lat="43.411965" lon="10.5385633"><ele>160.5</ele><time>2026-04-25T14:22:57.124Z</time></trkpt><trkpt lat="43.4118767" lon="10.5382683"><ele>159.0</ele><time>2026-04-25T14:22:58.124Z</time></trkpt><trkpt lat="43.4117867" lon="10.53797"><ele>157.5</ele><time>2026-04-25T14:22:59.12Z</time></trkpt><trkpt lat="43.4116933" lon="10.5376717"><ele>156.0</ele><time>2026-04-25T14:23:00.117Z</time></trkpt><trkpt lat="43.4116033" lon="10.537385"><ele>156.0</ele><time>2026-04-25T14:23:01.121Z</time></trkpt><trkpt lat="43.4115117" lon="10.537105"><ele>156.0</ele><time>2026-04-25T14:23:02.117Z</time></trkpt><trkpt lat="43.4114183" lon="10.5368283"><ele>156.0</ele><time>2026-04-25T14:23:03.118Z</time></trkpt><trkpt lat="43.411315" lon="10.53655"><ele>150.5</ele><time>2026-04-25T14:23:04.127Z</time></trkpt><trkpt lat="43.411205" lon="10.5362717"><ele>145.0</ele><time>2026-04-25T14:23:05.133Z</time></trkpt><trkpt lat="43.4110883" lon="10.535995"><ele>145.0</ele><time>2026-04-25T14:23:06.139Z</time></trkpt><trkpt lat="43.4109667" lon="10.5357183"><ele>145.0</ele><time>2026-04-25T14:23:07.134Z</time></trkpt><trkpt lat="43.4108467" lon="10.535445"><ele>146.5</ele><time>2026-04-25T14:23:08.13Z</time></trkpt><trkpt lat="43.4107267" lon="10.535175"><ele>148.0</ele><time>2026-04-25T14:23:09.128Z</time></trkpt><trkpt lat="43.4105967" lon="10.5349067"><ele>143.0</ele><time>2026-04-25T14:23:10.129Z</time></trkpt><trkpt lat="43.4104667" lon="10.5346417"><ele>138.0</ele><time>2026-04-25T14:23:11.121Z</time></trkpt><trkpt lat="43.410335" lon="10.534385"><ele>138.0</ele><time>2026-04-25T14:23:12.117Z</time></trkpt><trkpt lat="43.4102117" lon="10.5341433"><ele>138.0</ele><time>2026-04-25T14:23:13.126Z</time></trkpt><trkpt lat="43.4100967" lon="10.5339167"><ele>138.0</ele><time>2026-04-25T14:23:14.128Z</time></trkpt><trkpt lat="43.4099883" lon="10.533705"><ele>138.33333333333334</ele><time>2026-04-25T14:23:15.124Z</time></trkpt><trkpt lat="43.40989" lon="10.5335067"><ele>138.66666666666669</ele><time>2026-04-25T14:23:16.127Z</time></trkpt><trkpt lat="43.4098" lon="10.533325"><ele>139.0</ele><time>2026-04-25T14:23:17.139Z</time></trkpt><trkpt lat="43.40972" lon="10.5331517"><ele>134.33333333333334</ele><time>2026-04-25T14:23:18.131Z</time></trkpt><trkpt lat="43.4096517" lon="10.53297"><ele>129.66666666666666</ele><time>2026-04-25T14:23:19.128Z</time></trkpt><trkpt lat="43.4096" lon="10.5327667"><ele>125.0</ele><time>2026-04-25T14:23:20.122Z</time></trkpt><trkpt lat="43.4095633" lon="10.53253"><ele>125.0</ele><time>2026-04-25T14:23:21.119Z</time></trkpt><trkpt lat="43.4095417" lon="10.5322567"><ele>125.0</ele><time>2026-04-25T14:23:22.127Z</time></trkpt><trkpt lat="43.4095167" lon="10.5319517"><ele>125.0</ele><time>2026-04-25T14:23:23.123Z</time></trkpt><trkpt lat="43.409475" lon="10.5316317"><ele>122.5</ele><time>2026-04-25T14:23:24.124Z</time></trkpt><trkpt lat="43.40941" lon="10.53129"><ele>120.0</ele><time>2026-04-25T14:23:25.129Z</time></trkpt><trkpt lat="43.4093283" lon="10.5309267"><ele>119.5</ele><time>2026-04-25T14:23:26.124Z</time></trkpt><trkpt lat="43.4092383" lon="10.5305633"><ele>119.0</ele><time>2026-04-25T14:23:27.118Z</time></trkpt><trkpt lat="43.4091583" lon="10.5302283"><ele>116.5</ele><time>2026-04-25T14:23:28.118Z</time></trkpt><trkpt lat="43.4090817" lon="10.5299183"><ele>114.0</ele><time>2026-04-25T14:23:29.12Z</time></trkpt><trkpt lat="43.4090033" lon="10.5296233"><ele>115.0</ele><time>2026-04-25T14:23:30.124Z</time></trkpt><trkpt lat="43.4089283" lon="10.5293383"><ele>116.0</ele><time>2026-04-25T14:23:31.13Z</time></trkpt><trkpt lat="43.408855" lon="10.52907"><ele>117.0</ele><time>2026-04-25T14:23:32.128Z</time></trkpt><trkpt lat="43.40879" lon="10.5288283"><ele>114.33333333333334</ele><time>2026-04-25T14:23:33.129Z</time></trkpt><trkpt lat="43.4087267" lon="10.5286117"><ele>111.66666666666667</ele><time>2026-04-25T14:23:34.128Z</time></trkpt><trkpt lat="43.4086783" lon="10.5284133"><ele>109.0</ele><time>2026-04-25T14:23:35.127Z</time></trkpt><trkpt lat="43.4086433" lon="10.5282267"><ele>109.0</ele><time>2026-04-25T14:23:36.126Z</time></trkpt><trkpt lat="43.4086317" lon="10.528045"><ele>109.0</ele><time>2026-04-25T14:23:37.123Z</time></trkpt><trkpt lat="43.40864" lon="10.5278733"><ele>109.0</ele><time>2026-04-25T14:23:38.121Z</time></trkpt><trkpt lat="43.40868" lon="10.5277167"><ele>109.0</ele><time>2026-04-25T14:23:39.123Z</time></trkpt><trkpt lat="43.4087517" lon="10.5275767"><ele>104.33333333333334</ele><time>2026-04-25T14:23:40.12Z</time></trkpt><trkpt lat="43.4088383" lon="10.5274283"><ele>99.66666666666667</ele><time>2026-04-25T14:23:41.124Z</time></trkpt><trkpt lat="43.4089217" lon="10.5272483"><ele>95.0</ele><time>2026-04-25T14:23:42.122Z</time></trkpt><trkpt lat="43.4089933" lon="10.527025"><ele>93.66666666666667</ele><time>2026-04-25T14:23:43.128Z</time></trkpt><trkpt lat="43.4090533" lon="10.5267617"><ele>92.33333333333333</ele><time>2026-04-25T14:23:44.123Z</time></trkpt><trkpt lat="43.4091083" lon="10.526485"><ele>91.0</ele><time>2026-04-25T14:23:45.126Z</time></trkpt><trkpt lat="43.4091533" lon="10.52621"><ele>90.0</ele><time>2026-04-25T14:23:46.121Z</time></trkpt><trkpt lat="43.4091983" lon="10.5259533"><ele>89.0</ele><time>2026-04-25T14:23:47.128Z</time></trkpt><trkpt lat="43.40924" lon="10.5257167"><ele>88.0</ele><time>2026-04-25T14:23:48.132Z</time></trkpt><trkpt lat="43.4092683" lon="10.5255"><ele>87.0</ele><time>2026-04-25T14:23:49.13Z</time></trkpt><trkpt lat="43.4092717" lon="10.5252933"><ele>86.0</ele><time>2026-04-25T14:23:50.121Z</time></trkpt><trkpt lat="43.4092467" lon="10.5250767"><ele>85.0</ele><time>2026-04-25T14:23:51.119Z</time></trkpt><trkpt lat="43.4091967" lon="10.5248267"><ele>83.33333333333333</ele><time>2026-04-25T14:23:52.122Z</time></trkpt><trkpt lat="43.40913" lon="10.5245417"><ele>81.66666666666667</ele><time>2026-04-25T14:23:53.122Z</time></trkpt><trkpt lat="43.4090583" lon="10.524245"><ele>80.0</ele><time>2026-04-25T14:23:54.132Z</time></trkpt><trkpt lat="43.4089867" lon="10.5239583"><ele>78.66666666666667</ele><time>2026-04-25T14:23:55.136Z</time></trkpt><trkpt lat="43.408905" lon="10.5236733"><ele>77.33333333333333</ele><time>2026-04-25T14:23:56.121Z</time></trkpt><trkpt lat="43.408805" lon="10.5233933"><ele>76.0</ele><time>2026-04-25T14:23:57.121Z</time></trkpt><trkpt lat="43.4086833" lon="10.523125"><ele>75.66666666666666</ele><time>2026-04-25T14:23:58.118Z</time></trkpt><trkpt lat="43.4085517" lon="10.5228717"><ele>75.33333333333333</ele><time>2026-04-25T14:23:59.123Z</time></trkpt><trkpt lat="43.40842" lon="10.5226333"><ele>75.0</ele><time>2026-04-25T14:24:00.121Z</time></trkpt><trkpt lat="43.4082917" lon="10.5223983"><ele>75.0</ele><time>2026-04-25T14:24:01.129Z</time></trkpt><trkpt lat="43.40816" lon="10.5221517"><ele>75.0</ele><time>2026-04-25T14:24:02.128Z</time></trkpt><trkpt lat="43.4080283" lon="10.521895"><ele>72.5</ele><time>2026-04-25T14:24:03.125Z</time></trkpt><trkpt lat="43.4078983" lon="10.5216317"><ele>70.0</ele><time>2026-04-25T14:24:04.131Z</time></trkpt><trkpt lat="43.40777" lon="10.5213583"><ele>68.0</ele><time>2026-04-25T14:24:05.125Z</time></trkpt><trkpt lat="43.4076433" lon="10.52108"><ele>66.0</ele><time>2026-04-25T14:24:06.13Z</time></trkpt><trkpt lat="43.4075133" lon="10.52079"><ele>60.0</ele><time>2026-04-25T14:24:07.126Z</time></trkpt><trkpt lat="43.4072567" lon="10.5201683"><ele>58.0</ele><time>2026-04-25T14:24:09.129Z</time></trkpt><trkpt lat="43.407135" lon="10.51984"><ele>56.0</ele><time>2026-04-25T14:24:10.125Z</time></trkpt><trkpt lat="43.4070183" lon="10.5195083"><ele>55.5</ele><time>2026-04-25T14:24:11.123Z</time></trkpt><trkpt lat="43.406905" lon="10.519185"><ele>55.0</ele><time>2026-04-25T14:24:12.13Z</time></trkpt><trkpt lat="43.4067983" lon="10.5188767"><ele>55.0</ele><time>2026-04-25T14:24:13.129Z</time></trkpt><trkpt lat="43.4066983" lon="10.5185883"><ele>55.0</ele><time>2026-04-25T14:24:14.121Z</time></trkpt><trkpt lat="43.406605" lon="10.5183167"><ele>55.0</ele><time>2026-04-25T14:24:15.12Z</time></trkpt><trkpt lat="43.4065167" lon="10.518055"><ele>55.0</ele><time>2026-04-25T14:24:16.125Z</time></trkpt><trkpt lat="43.4064267" lon="10.5177983"><ele>55.0</ele><time>2026-04-25T14:24:17.129Z</time></trkpt><trkpt lat="43.40634" lon="10.5175517"><ele>53.33333333333333</ele><time>2026-04-25T14:24:18.119Z</time></trkpt><trkpt lat="43.406255" lon="10.51732"><ele>51.66666666666667</ele><time>2026-04-25T14:24:19.123Z</time></trkpt><trkpt lat="43.4061667" lon="10.5171033"><ele>50.0</ele><time>2026-04-25T14:24:20.119Z</time></trkpt><trkpt lat="43.4060733" lon="10.5169"><ele>49.66666666666667</ele><time>2026-04-25T14:24:21.121Z</time></trkpt><trkpt lat="43.405965" lon="10.51671"><ele>49.33333333333333</ele><time>2026-04-25T14:24:22.128Z</time></trkpt><trkpt lat="43.4058333" lon="10.516525"><ele>49.0</ele><time>2026-04-25T14:24:23.123Z</time></trkpt><trkpt lat="43.4056867" lon="10.5163433"><ele>48.0</ele><time>2026-04-25T14:24:24.132Z</time></trkpt><trkpt lat="43.4055333" lon="10.5161667"><ele>47.0</ele><time>2026-04-25T14:24:25.13Z</time></trkpt><trkpt lat="43.4053817" lon="10.5160033"><ele>46.0</ele><time>2026-04-25T14:24:26.133Z</time></trkpt><trkpt lat="43.405235" lon="10.5158483"><ele>46.0</ele><time>2026-04-25T14:24:27.13Z</time></trkpt><trkpt lat="43.4050933" lon="10.5157017"><ele>46.0</ele><time>2026-04-25T14:24:28.119Z</time></trkpt><trkpt lat="43.404965" lon="10.5155583"><ele>46.0</ele><time>2026-04-25T14:24:29.121Z</time></trkpt><trkpt lat="43.404855" lon="10.51542"><ele>44.333333333333336</ele><time>2026-04-25T14:24:30.124Z</time></trkpt><trkpt lat="43.40476" lon="10.5152717"><ele>42.666666666666664</ele><time>2026-04-25T14:24:31.123Z</time></trkpt><trkpt lat="43.4046817" lon="10.5151017"><ele>41.0</ele><time>2026-04-25T14:24:32.126Z</time></trkpt><trkpt lat="43.4046167" lon="10.5148933"><ele>40.33333333333333</ele><time>2026-04-25T14:24:33.13Z</time></trkpt><trkpt lat="43.404565" lon="10.5146633"><ele>39.666666666666664</ele><time>2026-04-25T14:24:34.12Z</time></trkpt><trkpt lat="43.4045267" lon="10.51443"><ele>39.0</ele><time>2026-04-25T14:24:35.124Z</time></trkpt><trkpt lat="43.4044917" lon="10.5141967"><ele>37.0</ele><time>2026-04-25T14:24:36.119Z</time></trkpt><trkpt lat="43.404385" lon="10.5137167"><ele>35.0</ele><time>2026-04-25T14:24:38.126Z</time></trkpt><trkpt lat="43.4043083" lon="10.513475"><ele>35.0</ele><time>2026-04-25T14:24:39.124Z</time></trkpt><trkpt lat="43.40422" lon="10.5132333"><ele>35.0</ele><time>2026-04-25T14:24:40.128Z</time></trkpt><trkpt lat="43.4041183" lon="10.5129933"><ele>35.0</ele><time>2026-04-25T14:24:41.129Z</time></trkpt><trkpt lat="43.4039983" lon="10.5127567"><ele>34.33333333333333</ele><time>2026-04-25T14:24:42.136Z</time></trkpt><trkpt lat="43.4038633" lon="10.5125217"><ele>33.666666666666664</ele><time>2026-04-25T14:24:43.124Z</time></trkpt><trkpt lat="43.40372" lon="10.512285"><ele>33.0</ele><time>2026-04-25T14:24:44.127Z</time></trkpt><trkpt lat="43.4035733" lon="10.512045"><ele>31.0</ele><time>2026-04-25T14:24:45.123Z</time></trkpt><trkpt lat="43.403425" lon="10.5118033"><ele>29.0</ele><time>2026-04-25T14:24:46.128Z</time></trkpt><trkpt lat="43.4032733" lon="10.51156"><ele>29.0</ele><time>2026-04-25T14:24:47.122Z</time></trkpt><trkpt lat="43.4031233" lon="10.5113167"><ele>29.0</ele><time>2026-04-25T14:24:48.126Z</time></trkpt><trkpt lat="43.4029733" lon="10.5110717"><ele>30.0</ele><time>2026-04-25T14:24:49.125Z</time></trkpt><trkpt lat="43.402825" lon="10.5108317"><ele>31.0</ele><time>2026-04-25T14:24:50.12Z</time></trkpt><trkpt lat="43.40268" lon="10.510595"><ele>31.333333333333336</ele><time>2026-04-25T14:24:51.122Z</time></trkpt><trkpt lat="43.4025367" lon="10.510365"><ele>31.666666666666664</ele><time>2026-04-25T14:24:52.134Z</time></trkpt><trkpt lat="43.4024" lon="10.5101467"><ele>32.0</ele><time>2026-04-25T14:24:53.124Z</time></trkpt><trkpt lat="43.40227" lon="10.5099417"><ele>31.0</ele><time>2026-04-25T14:24:54.121Z</time></trkpt><trkpt lat="43.4021467" lon="10.50975"><ele>30.0</ele><time>2026-04-25T14:24:55.134Z</time></trkpt><trkpt lat="43.40203" lon="10.50956"><ele>29.0</ele><time>2026-04-25T14:24:56.122Z</time></trkpt><trkpt lat="43.4019217" lon="10.5093667"><ele>29.0</ele><time>2026-04-25T14:24:57.129Z</time></trkpt><trkpt lat="43.4018233" lon="10.5091633"><ele>29.0</ele><time>2026-04-25T14:24:58.121Z</time></trkpt><trkpt lat="43.4017333" lon="10.508945"><ele>29.0</ele><time>2026-04-25T14:24:59.14Z</time></trkpt><trkpt lat="43.4016483" lon="10.5086983"><ele>30.0</ele><time>2026-04-25T14:25:00.134Z</time></trkpt><trkpt lat="43.4015633" lon="10.5084217"><ele>31.0</ele><time>2026-04-25T14:25:01.129Z</time></trkpt><trkpt lat="43.4014783" lon="10.508125"><ele>32.5</ele><time>2026-04-25T14:25:02.124Z</time></trkpt><trkpt lat="43.40139" lon="10.50782"><ele>34.0</ele><time>2026-04-25T14:25:03.124Z</time></trkpt><trkpt lat="43.4012983" lon="10.50751"><ele>31.0</ele><time>2026-04-25T14:25:04.116Z</time></trkpt><trkpt lat="43.4012067" lon="10.5072"><ele>28.0</ele><time>2026-04-25T14:25:05.121Z</time></trkpt><trkpt lat="43.4011133" lon="10.5068867"><ele>28.0</ele><time>2026-04-25T14:25:06.129Z</time></trkpt><trkpt lat="43.40102" lon="10.50657"><ele>28.0</ele><time>2026-04-25T14:25:07.122Z</time></trkpt><trkpt lat="43.4009267" lon="10.506255"><ele>28.0</ele><time>2026-04-25T14:25:08.121Z</time></trkpt><trkpt lat="43.4007533" lon="10.5056533"><ele>29.0</ele><time>2026-04-25T14:25:10.121Z</time></trkpt><trkpt lat="43.40067" lon="10.505365"><ele>30.0</ele><time>2026-04-25T14:25:11.131Z</time></trkpt><trkpt lat="43.4005883" lon="10.505075"><ele>30.0</ele><time>2026-04-25T14:25:12.12Z</time></trkpt><trkpt lat="43.4005083" lon="10.50479"><ele>30.0</ele><time>2026-04-25T14:25:13.122Z</time></trkpt><trkpt lat="43.4004333" lon="10.50452"><ele>30.0</ele><time>2026-04-25T14:25:14.123Z</time></trkpt><trkpt lat="43.4003617" lon="10.5042683"><ele>28.333333333333336</ele><time>2026-04-25T14:25:15.13Z</time></trkpt><trkpt lat="43.4002967" lon="10.504025"><ele>26.666666666666668</ele><time>2026-04-25T14:25:16.118Z</time></trkpt><trkpt lat="43.4002317" lon="10.5037983"><ele>25.0</ele><time>2026-04-25T14:25:17.128Z</time></trkpt><trkpt lat="43.4001667" lon="10.5035767"><ele>25.0</ele><time>2026-04-25T14:25:18.128Z</time></trkpt><trkpt lat="43.4001" lon="10.503355"><ele>25.0</ele><time>2026-04-25T14:25:19.121Z</time></trkpt><trkpt lat="43.4000283" lon="10.5031333"><ele>25.0</ele><time>2026-04-25T14:25:20.126Z</time></trkpt><trkpt lat="43.3999483" lon="10.50292"><ele>25.333333333333336</ele><time>2026-04-25T14:25:21.12Z</time></trkpt><trkpt lat="43.3998633" lon="10.502715"><ele>25.666666666666664</ele><time>2026-04-25T14:25:22.13Z</time></trkpt><trkpt lat="43.3997767" lon="10.502515"><ele>26.0</ele><time>2026-04-25T14:25:23.13Z</time></trkpt><trkpt lat="43.3996867" lon="10.5023117"><ele>25.333333333333332</ele><time>2026-04-25T14:25:24.133Z</time></trkpt><trkpt lat="43.3995967" lon="10.5021067"><ele>24.666666666666664</ele><time>2026-04-25T14:25:25.125Z</time></trkpt><trkpt lat="43.399505" lon="10.5019033"><ele>24.0</ele><time>2026-04-25T14:25:26.127Z</time></trkpt><trkpt lat="43.399415" lon="10.501705"><ele>24.0</ele><time>2026-04-25T14:25:27.127Z</time></trkpt><trkpt lat="43.399325" lon="10.5015117"><ele>24.0</ele><time>2026-04-25T14:25:28.129Z</time></trkpt><trkpt lat="43.3992383" lon="10.5013167"><ele>24.0</ele><time>2026-04-25T14:25:29.131Z</time></trkpt><trkpt lat="43.3991567" lon="10.5011233"><ele>24.666666666666664</ele><time>2026-04-25T14:25:30.131Z</time></trkpt><trkpt lat="43.39908" lon="10.5009333"><ele>25.333333333333332</ele><time>2026-04-25T14:25:31.134Z</time></trkpt><trkpt lat="43.39901" lon="10.50073"><ele>26.0</ele><time>2026-04-25T14:25:32.135Z</time></trkpt><trkpt lat="43.3989467" lon="10.5005183"><ele>25.333333333333332</ele><time>2026-04-25T14:25:33.123Z</time></trkpt><trkpt lat="43.39889" lon="10.500305"><ele>24.666666666666664</ele><time>2026-04-25T14:25:34.125Z</time></trkpt><trkpt lat="43.3988417" lon="10.5000933"><ele>24.0</ele><time>2026-04-25T14:25:35.119Z</time></trkpt><trkpt lat="43.3988" lon="10.4998883"><ele>22.75</ele><time>2026-04-25T14:25:36.128Z</time></trkpt><trkpt lat="43.3987667" lon="10.4996867"><ele>21.5</ele><time>2026-04-25T14:25:37.121Z</time></trkpt><trkpt lat="43.3987333" lon="10.499485"><ele>20.25</ele><time>2026-04-25T14:25:38.127Z</time></trkpt><trkpt lat="43.3987" lon="10.4992867"><ele>19.0</ele><time>2026-04-25T14:25:39.118Z</time></trkpt><trkpt lat="43.3986683" lon="10.4990933"><ele>19.0</ele><time>2026-04-25T14:25:40.126Z</time></trkpt><trkpt lat="43.3986417" lon="10.4989"><ele>19.0</ele><time>2026-04-25T14:25:41.128Z</time></trkpt><trkpt lat="43.3986067" lon="10.4987"><ele>19.0</ele><time>2026-04-25T14:25:42.13Z</time></trkpt><trkpt lat="43.3985667" lon="10.4985"><ele>19.0</ele><time>2026-04-25T14:25:43.128Z</time></trkpt><trkpt lat="43.39853" lon="10.498305"><ele>19.666666666666664</ele><time>2026-04-25T14:25:44.121Z</time></trkpt><trkpt lat="43.398495" lon="10.4981033"><ele>20.333333333333332</ele><time>2026-04-25T14:25:45.12Z</time></trkpt><trkpt lat="43.3984617" lon="10.4978933"><ele>21.0</ele><time>2026-04-25T14:25:46.13Z</time></trkpt><trkpt lat="43.3984283" lon="10.4976867"><ele>21.0</ele><time>2026-04-25T14:25:47.129Z</time></trkpt><trkpt lat="43.3983967" lon="10.4974817"><ele>21.0</ele><time>2026-04-25T14:25:48.127Z</time></trkpt><trkpt lat="43.3983617" lon="10.4972767"><ele>21.0</ele><time>2026-04-25T14:25:49.132Z</time></trkpt><trkpt lat="43.3983317" lon="10.4970683"><ele>21.0</ele><time>2026-04-25T14:25:50.126Z</time></trkpt><trkpt lat="43.3982983" lon="10.4968567"><ele>21.0</ele><time>2026-04-25T14:25:51.137Z</time></trkpt><trkpt lat="43.3982667" lon="10.4966617"><ele>21.0</ele><time>2026-04-25T14:25:52.126Z</time></trkpt><trkpt lat="43.39824" lon="10.4965017"><ele>21.0</ele><time>2026-04-25T14:25:53.13Z</time></trkpt><trkpt lat="43.3982233" lon="10.4963717"><ele>21.0</ele><time>2026-04-25T14:25:54.125Z</time></trkpt><trkpt lat="43.3982133" lon="10.49627"><ele>21.0</ele><time>2026-04-25T14:25:55.127Z</time></trkpt><trkpt lat="43.3982167" lon="10.4961467"><ele>21.0</ele><time>2026-04-25T14:25:57.12Z</time></trkpt><trkpt lat="43.398325" lon="10.496075"><ele>21.0</ele><time>2026-04-25T14:26:00.127Z</time></trkpt><trkpt lat="43.3984017" lon="10.4960617"><ele>21.0</ele><time>2026-04-25T14:26:01.13Z</time></trkpt><trkpt lat="43.398515" lon="10.4960533"><ele>20.666666666666668</ele><time>2026-04-25T14:26:02.132Z</time></trkpt><trkpt lat="43.398675" lon="10.496005"><ele>20.333333333333336</ele><time>2026-04-25T14:26:03.135Z</time></trkpt><trkpt lat="43.398865" lon="10.4959133"><ele>20.0</ele><time>2026-04-25T14:26:04.121Z</time></trkpt><trkpt lat="43.39906" lon="10.4957967"><ele>20.0</ele><time>2026-04-25T14:26:05.133Z</time></trkpt><trkpt lat="43.3992433" lon="10.4956683"><ele>20.0</ele><time>2026-04-25T14:26:06.137Z</time></trkpt><trkpt lat="43.399415" lon="10.4955233"><ele>20.0</ele><time>2026-04-25T14:26:07.124Z</time></trkpt><trkpt lat="43.3995733" lon="10.4953683"><ele>19.666666666666668</ele><time>2026-04-25T14:26:08.127Z</time></trkpt><trkpt lat="43.399725" lon="10.4951933"><ele>19.333333333333332</ele><time>2026-04-25T14:26:09.123Z</time></trkpt><trkpt lat="43.3998686" lon="10.495007"><ele>19.0</ele><time>2026-04-25T14:26:10.123Z</time></trkpt><trkpt lat="43.4001201" lon="10.4946428"><ele>19.0</ele><time>2026-04-25T14:26:12.121Z</time></trkpt><trkpt lat="43.400224" lon="10.4944859"><ele>19.0</ele><time>2026-04-25T14:26:13.13Z</time></trkpt><trkpt lat="43.4003163" lon="10.4943482"><ele>19.0</ele><time>2026-04-25T14:26:14.124Z</time></trkpt><trkpt lat="43.4003987" lon="10.4942231"><ele>19.0</ele><time>2026-04-25T14:26:15.134Z</time></trkpt><trkpt lat="43.4004754" lon="10.4941036"><ele>19.0</ele><time>2026-04-25T14:26:16.13Z</time></trkpt><trkpt lat="43.4005566" lon="10.4939791"><ele>19.0</ele><time>2026-04-25T14:26:17.127Z</time></trkpt><trkpt lat="43.4006491" lon="10.4938384"><ele>19.0</ele><time>2026-04-25T14:26:18.12Z</time></trkpt><trkpt lat="43.4007531" lon="10.4936805"><ele>19.0</ele><time>2026-04-25T14:26:19.132Z</time></trkpt><trkpt lat="43.4008615" lon="10.4935142"><ele>18.333333333333332</ele><time>2026-04-25T14:26:20.137Z</time></trkpt><trkpt lat="43.4009764" lon="10.4933426"><ele>17.666666666666668</ele><time>2026-04-25T14:26:21.129Z</time></trkpt><trkpt lat="43.4010975" lon="10.4931654"><ele>17.0</ele><time>2026-04-25T14:26:22.121Z</time></trkpt><trkpt lat="43.4012259" lon="10.4929808"><ele>17.666666666666668</ele><time>2026-04-25T14:26:23.119Z</time></trkpt><trkpt lat="43.4013564" lon="10.4927883"><ele>18.333333333333332</ele><time>2026-04-25T14:26:24.127Z</time></trkpt><trkpt lat="43.4014867" lon="10.4925925"><ele>19.0</ele><time>2026-04-25T14:26:25.12Z</time></trkpt><trkpt lat="43.4016174" lon="10.4923963"><ele>19.0</ele><time>2026-04-25T14:26:26.127Z</time></trkpt><trkpt lat="43.401747" lon="10.492199"><ele>19.0</ele><time>2026-04-25T14:26:27.128Z</time></trkpt><trkpt lat="43.4018785" lon="10.4920017"><ele>19.0</ele><time>2026-04-25T14:26:28.119Z</time></trkpt><trkpt lat="43.4020111" lon="10.4918014"><ele>19.0</ele><time>2026-04-25T14:26:29.119Z</time></trkpt><trkpt lat="43.4021425" lon="10.4916041"><ele>19.0</ele><time>2026-04-25T14:26:30.126Z</time></trkpt><trkpt lat="43.4022722" lon="10.4914079"><ele>19.0</ele><time>2026-04-25T14:26:31.123Z</time></trkpt><trkpt lat="43.4023954" lon="10.4912249"><ele>19.666666666666664</ele><time>2026-04-25T14:26:32.127Z</time></trkpt><trkpt lat="43.4025127" lon="10.4910515"><ele>20.333333333333332</ele><time>2026-04-25T14:26:33.12Z</time></trkpt><trkpt lat="43.4026281" lon="10.4908824"><ele>21.0</ele><time>2026-04-25T14:26:34.123Z</time></trkpt><trkpt lat="43.4027438" lon="10.4907309"><ele>21.0</ele><time>2026-04-25T14:26:35.117Z</time></trkpt><trkpt lat="43.4028636" lon="10.4905932"><ele>21.0</ele><time>2026-04-25T14:26:36.122Z</time></trkpt><trkpt lat="43.4029888" lon="10.4904781"><ele>21.0</ele><time>2026-04-25T14:26:37.128Z</time></trkpt><trkpt lat="43.4031232" lon="10.4903957"><ele>21.666666666666668</ele><time>2026-04-25T14:26:38.119Z</time></trkpt><trkpt lat="43.4032702" lon="10.4903373"><ele>22.333333333333336</ele><time>2026-04-25T14:26:39.133Z</time></trkpt><trkpt lat="43.40342" lon="10.4902923"><ele>23.0</ele><time>2026-04-25T14:26:40.135Z</time></trkpt><trkpt lat="43.4035738" lon="10.490258"><ele>23.0</ele><time>2026-04-25T14:26:41.129Z</time></trkpt><trkpt lat="43.403729" lon="10.4902334"><ele>23.0</ele><time>2026-04-25T14:26:42.122Z</time></trkpt><trkpt lat="43.4038846" lon="10.4902098"><ele>23.0</ele><time>2026-04-25T14:26:43.125Z</time></trkpt><trkpt lat="43.4040349" lon="10.4901832"><ele>23.0</ele><time>2026-04-25T14:26:44.13Z</time></trkpt><trkpt lat="43.4041846" lon="10.4901589"><ele>23.0</ele><time>2026-04-25T14:26:45.126Z</time></trkpt><trkpt lat="43.4043362" lon="10.490144"><ele>23.0</ele><time>2026-04-25T14:26:46.125Z</time></trkpt><trkpt lat="43.4044878" lon="10.4901429"><ele>23.0</ele><time>2026-04-25T14:26:47.125Z</time></trkpt><trkpt lat="43.4046383" lon="10.4901515"><ele>23.0</ele><time>2026-04-25T14:26:48.129Z</time></trkpt><trkpt lat="43.4047866" lon="10.4901692"><ele>23.0</ele><time>2026-04-25T14:26:49.124Z</time></trkpt><trkpt lat="43.4049291" lon="10.4902"><ele>23.0</ele><time>2026-04-25T14:26:50.118Z</time></trkpt><trkpt lat="43.405071" lon="10.4902461"><ele>23.5</ele><time>2026-04-25T14:26:51.126Z</time></trkpt><trkpt lat="43.4052132" lon="10.4903028"><ele>24.0</ele><time>2026-04-25T14:26:52.131Z</time></trkpt><trkpt lat="43.4053527" lon="10.4903648"><ele>24.5</ele><time>2026-04-25T14:26:53.129Z</time></trkpt><trkpt lat="43.4054857" lon="10.4904292"><ele>25.0</ele><time>2026-04-25T14:26:54.131Z</time></trkpt><trkpt lat="43.4056181" lon="10.4904886"><ele>26.0</ele><time>2026-04-25T14:26:55.124Z</time></trkpt><trkpt lat="43.4057539" lon="10.490546"><ele>27.0</ele><time>2026-04-25T14:26:56.124Z</time></trkpt><trkpt lat="43.4058876" lon="10.4906014"><ele>28.0</ele><time>2026-04-25T14:26:57.126Z</time></trkpt><trkpt lat="43.4060184" lon="10.4906589"><ele>29.0</ele><time>2026-04-25T14:26:58.128Z</time></trkpt><trkpt lat="43.4061488" lon="10.4907157"><ele>29.0</ele><time>2026-04-25T14:26:59.137Z</time></trkpt><trkpt lat="43.4062766" lon="10.490773"><ele>29.0</ele><time>2026-04-25T14:27:00.124Z</time></trkpt><trkpt lat="43.4063988" lon="10.4908282"><ele>29.0</ele><time>2026-04-25T14:27:01.128Z</time></trkpt><trkpt lat="43.4065127" lon="10.4908785"><ele>29.0</ele><time>2026-04-25T14:27:02.129Z</time></trkpt><trkpt lat="43.4066113" lon="10.4909241"><ele>28.0</ele><time>2026-04-25T14:27:03.124Z</time></trkpt><trkpt lat="43.4066998" lon="10.4909629"><ele>27.0</ele><time>2026-04-25T14:27:04.123Z</time></trkpt><trkpt lat="43.4067742" lon="10.4909961"><ele>26.0</ele><time>2026-04-25T14:27:05.125Z</time></trkpt><trkpt lat="43.4068375" lon="10.4910184"><ele>25.0</ele><time>2026-04-25T14:27:06.12Z</time></trkpt><trkpt lat="43.4069528" lon="10.49099"><ele>24.0</ele><time>2026-04-25T14:27:08.127Z</time></trkpt><trkpt lat="43.4070111" lon="10.4908699"><ele>24.0</ele><time>2026-04-25T14:27:10.125Z</time></trkpt><trkpt lat="43.4070089" lon="10.4907677"><ele>24.0</ele><time>2026-04-25T14:27:11.121Z</time></trkpt><trkpt lat="43.4069916" lon="10.490641"><ele>24.0</ele><time>2026-04-25T14:27:12.124Z</time></trkpt><trkpt lat="43.4069748" lon="10.4905088"><ele>24.0</ele><time>2026-04-25T14:27:13.124Z</time></trkpt><trkpt lat="43.4069634" lon="10.4903487"><ele>24.0</ele><time>2026-04-25T14:27:14.123Z</time></trkpt><trkpt lat="43.4069489" lon="10.4901805"><ele>26.0</ele><time>2026-04-25T14:27:15.133Z</time></trkpt><trkpt lat="43.4069305" lon="10.4900185"><ele>28.0</ele><time>2026-04-25T14:27:16.132Z</time></trkpt><trkpt lat="43.4068937" lon="10.4898673"><ele>30.0</ele><time>2026-04-25T14:27:17.124Z</time></trkpt><trkpt lat="43.40684" lon="10.4897349"><ele>32.0</ele><time>2026-04-25T14:27:18.123Z</time></trkpt><trkpt lat="43.4067565" lon="10.4896241"><ele>32.25</ele><time>2026-04-25T14:27:19.124Z</time></trkpt><trkpt lat="43.4066457" lon="10.4895348"><ele>32.5</ele><time>2026-04-25T14:27:20.124Z</time></trkpt><trkpt lat="43.4065232" lon="10.4894459"><ele>32.75</ele><time>2026-04-25T14:27:21.128Z</time></trkpt><trkpt lat="43.4063823" lon="10.4893545"><ele>33.0</ele><time>2026-04-25T14:27:22.125Z</time></trkpt><trkpt lat="43.4062306" lon="10.4892525"><ele>33.0</ele><time>2026-04-25T14:27:23.131Z</time></trkpt><trkpt lat="43.406077" lon="10.4891532"><ele>33.0</ele><time>2026-04-25T14:27:24.122Z</time></trkpt><trkpt lat="43.4059237" lon="10.4890621"><ele>33.0</ele><time>2026-04-25T14:27:25.131Z</time></trkpt><trkpt lat="43.4057607" lon="10.4889995"><ele>33.0</ele><time>2026-04-25T14:27:26.121Z</time></trkpt><trkpt lat="43.4055949" lon="10.4889596"><ele>33.0</ele><time>2026-04-25T14:27:27.13Z</time></trkpt><trkpt lat="43.4054291" lon="10.4889319"><ele>33.0</ele><time>2026-04-25T14:27:28.135Z</time></trkpt><trkpt lat="43.4052675" lon="10.4889024"><ele>32.0</ele><time>2026-04-25T14:27:29.134Z</time></trkpt><trkpt lat="43.4051032" lon="10.4888791"><ele>31.0</ele><time>2026-04-25T14:27:30.131Z</time></trkpt><trkpt lat="43.404932" lon="10.4888708"><ele>30.0</ele><time>2026-04-25T14:27:31.132Z</time></trkpt><trkpt lat="43.4047568" lon="10.4888741"><ele>31.666666666666664</ele><time>2026-04-25T14:27:32.126Z</time></trkpt><trkpt lat="43.404577" lon="10.4888766"><ele>33.33333333333333</ele><time>2026-04-25T14:27:33.122Z</time></trkpt><trkpt lat="43.4044021" lon="10.4888839"><ele>35.0</ele><time>2026-04-25T14:27:34.12Z</time></trkpt><trkpt lat="43.4042367" lon="10.4888913"><ele>35.0</ele><time>2026-04-25T14:27:35.123Z</time></trkpt><trkpt lat="43.4040834" lon="10.4888963"><ele>35.0</ele><time>2026-04-25T14:27:36.125Z</time></trkpt><trkpt lat="43.4039355" lon="10.4889002"><ele>35.0</ele><time>2026-04-25T14:27:37.129Z</time></trkpt><trkpt lat="43.403793" lon="10.4889008"><ele>35.0</ele><time>2026-04-25T14:27:38.117Z</time></trkpt><trkpt lat="43.4036587" lon="10.4888945"><ele>34.5</ele><time>2026-04-25T14:27:39.117Z</time></trkpt><trkpt lat="43.4035342" lon="10.4888607"><ele>34.0</ele><time>2026-04-25T14:27:40.117Z</time></trkpt><trkpt lat="43.4034152" lon="10.4887915"><ele>33.5</ele><time>2026-04-25T14:27:41.124Z</time></trkpt><trkpt lat="43.4032936" lon="10.4886968"><ele>33.0</ele><time>2026-04-25T14:27:42.124Z</time></trkpt><trkpt lat="43.4031733" lon="10.4885988"><ele>39.0</ele><time>2026-04-25T14:27:43.126Z</time></trkpt><trkpt lat="43.4030457" lon="10.4885226"><ele>45.0</ele><time>2026-04-25T14:27:44.118Z</time></trkpt><trkpt lat="43.4029044" lon="10.4884794"><ele>51.0</ele><time>2026-04-25T14:27:45.127Z</time></trkpt><trkpt lat="43.4027598" lon="10.4884688"><ele>57.0</ele><time>2026-04-25T14:27:46.128Z</time></trkpt><trkpt lat="43.4026215" lon="10.4884744"><ele>57.0</ele><time>2026-04-25T14:27:47.12Z</time></trkpt><trkpt lat="43.4024948" lon="10.4884887"><ele>57.0</ele><time>2026-04-25T14:27:48.131Z</time></trkpt><trkpt lat="43.4023776" lon="10.4885205"><ele>57.0</ele><time>2026-04-25T14:27:49.128Z</time></trkpt><trkpt lat="43.4022676" lon="10.4885829"><ele>57.0</ele><time>2026-04-25T14:27:50.13Z</time></trkpt><trkpt lat="43.4021661" lon="10.4886913"><ele>58.0</ele><time>2026-04-25T14:27:51.128Z</time></trkpt><trkpt lat="43.4020795" lon="10.4888467"><ele>59.0</ele><time>2026-04-25T14:27:52.137Z</time></trkpt><trkpt lat="43.4019988" lon="10.4890223"><ele>60.0</ele><time>2026-04-25T14:27:53.125Z</time></trkpt><trkpt lat="43.4019069" lon="10.4891857"><ele>61.0</ele><time>2026-04-25T14:27:54.121Z</time></trkpt><trkpt lat="43.4017986" lon="10.4893332"><ele>61.0</ele><time>2026-04-25T14:27:55.125Z</time></trkpt><trkpt lat="43.40168" lon="10.4894689"><ele>61.0</ele><time>2026-04-25T14:27:56.125Z</time></trkpt><trkpt lat="43.4015593" lon="10.4895985"><ele>61.0</ele><time>2026-04-25T14:27:57.121Z</time></trkpt><trkpt lat="43.4014359" lon="10.489716"><ele>58.0</ele><time>2026-04-25T14:27:58.125Z</time></trkpt><trkpt lat="43.4013019" lon="10.4898164"><ele>55.0</ele><time>2026-04-25T14:27:59.128Z</time></trkpt><trkpt lat="43.4011591" lon="10.489889"><ele>52.0</ele><time>2026-04-25T14:28:00.125Z</time></trkpt><trkpt lat="43.401006" lon="10.4899426"><ele>52.0</ele><time>2026-04-25T14:28:01.125Z</time></trkpt><trkpt lat="43.4008468" lon="10.4899809"><ele>52.0</ele><time>2026-04-25T14:28:02.128Z</time></trkpt><trkpt lat="43.4006842" lon="10.4900044"><ele>52.0</ele><time>2026-04-25T14:28:03.132Z</time></trkpt><trkpt lat="43.4005265" lon="10.4900171"><ele>51.0</ele><time>2026-04-25T14:28:04.119Z</time></trkpt><trkpt lat="43.4003825" lon="10.4900165"><ele>50.0</ele><time>2026-04-25T14:28:05.126Z</time></trkpt><trkpt lat="43.4002464" lon="10.4900135"><ele>49.0</ele><time>2026-04-25T14:28:06.125Z</time></trkpt><trkpt lat="43.4001273" lon="10.4899736"><ele>48.0</ele><time>2026-04-25T14:28:07.121Z</time></trkpt><trkpt lat="43.4000112" lon="10.489888"><ele>48.0</ele><time>2026-04-25T14:28:08.126Z</time></trkpt><trkpt lat="43.3998846" lon="10.4897588"><ele>48.0</ele><time>2026-04-25T14:28:09.128Z</time></trkpt><trkpt lat="43.3997367" lon="10.4895633"><ele>48.0</ele><time>2026-04-25T14:28:10.132Z</time></trkpt><trkpt lat="43.3995717" lon="10.48936"><ele>49.66666666666667</ele><time>2026-04-25T14:28:11.12Z</time></trkpt><trkpt lat="43.3994017" lon="10.4891533"><ele>51.333333333333336</ele><time>2026-04-25T14:28:12.131Z</time></trkpt><trkpt lat="43.3992417" lon="10.48896"><ele>53.0</ele><time>2026-04-25T14:28:13.124Z</time></trkpt><trkpt lat="43.3990883" lon="10.4887833"><ele>53.66666666666667</ele><time>2026-04-25T14:28:14.127Z</time></trkpt><trkpt lat="43.3989467" lon="10.4886167"><ele>54.33333333333333</ele><time>2026-04-25T14:28:15.133Z</time></trkpt><trkpt lat="43.3988217" lon="10.4884567"><ele>55.0</ele><time>2026-04-25T14:28:16.132Z</time></trkpt><trkpt lat="43.3987133" lon="10.4882933"><ele>54.0</ele><time>2026-04-25T14:28:17.128Z</time></trkpt><trkpt lat="43.39863" lon="10.4881233"><ele>53.0</ele><time>2026-04-25T14:28:18.131Z</time></trkpt><trkpt lat="43.3985783" lon="10.4879417"><ele>52.0</ele><time>2026-04-25T14:28:19.129Z</time></trkpt><trkpt lat="43.3985567" lon="10.4877483"><ele>51.0</ele><time>2026-04-25T14:28:20.121Z</time></trkpt><trkpt lat="43.3985617" lon="10.4875533"><ele>50.33333333333333</ele><time>2026-04-25T14:28:21.129Z</time></trkpt><trkpt lat="43.3986" lon="10.4873567"><ele>49.666666666666664</ele><time>2026-04-25T14:28:22.124Z</time></trkpt><trkpt lat="43.3986617" lon="10.4871583"><ele>49.0</ele><time>2026-04-25T14:28:23.124Z</time></trkpt><trkpt lat="43.398755" lon="10.4869683"><ele>53.33333333333333</ele><time>2026-04-25T14:28:24.128Z</time></trkpt><trkpt lat="43.398875" lon="10.4867783"><ele>57.66666666666667</ele><time>2026-04-25T14:28:25.129Z</time></trkpt><trkpt lat="43.3990117" lon="10.486585"><ele>62.0</ele><time>2026-04-25T14:28:26.118Z</time></trkpt><trkpt lat="43.3991583" lon="10.4864017"><ele>61.333333333333336</ele><time>2026-04-25T14:28:27.126Z</time></trkpt><trkpt lat="43.399305" lon="10.486235"><ele>60.66666666666667</ele><time>2026-04-25T14:28:28.126Z</time></trkpt><trkpt lat="43.399445" lon="10.4860867"><ele>60.0</ele><time>2026-04-25T14:28:29.125Z</time></trkpt><trkpt lat="43.3995667" lon="10.4859283"><ele>65.0</ele><time>2026-04-25T14:28:30.123Z</time></trkpt><trkpt lat="43.3996733" lon="10.48574"><ele>70.0</ele><time>2026-04-25T14:28:31.131Z</time></trkpt><trkpt lat="43.3997617" lon="10.4855133"><ele>75.0</ele><time>2026-04-25T14:28:32.12Z</time></trkpt><trkpt lat="43.3998383" lon="10.485255"><ele>75.0</ele><time>2026-04-25T14:28:33.124Z</time></trkpt><trkpt lat="43.3999067" lon="10.4849917"><ele>75.0</ele><time>2026-04-25T14:28:34.129Z</time></trkpt><trkpt lat="43.3999667" lon="10.48473"><ele>75.0</ele><time>2026-04-25T14:28:35.119Z</time></trkpt><trkpt lat="43.4000333" lon="10.4844683"><ele>74.33333333333333</ele><time>2026-04-25T14:28:36.122Z</time></trkpt><trkpt lat="43.400125" lon="10.4842083"><ele>73.66666666666666</ele><time>2026-04-25T14:28:37.131Z</time></trkpt><trkpt lat="43.4002283" lon="10.4839567"><ele>73.0</ele><time>2026-04-25T14:28:38.126Z</time></trkpt><trkpt lat="43.4003367" lon="10.4837217"><ele>72.0</ele><time>2026-04-25T14:28:39.121Z</time></trkpt><trkpt lat="43.4004283" lon="10.4834817"><ele>71.0</ele><time>2026-04-25T14:28:40.123Z</time></trkpt><trkpt lat="43.4005133" lon="10.4832267"><ele>70.0</ele><time>2026-04-25T14:28:41.128Z</time></trkpt><trkpt lat="43.4005883" lon="10.4829467"><ele>75.5</ele><time>2026-04-25T14:28:42.119Z</time></trkpt><trkpt lat="43.4006617" lon="10.482645"><ele>81.0</ele><time>2026-04-25T14:28:43.122Z</time></trkpt><trkpt lat="43.4007317" lon="10.4823333"><ele>80.5</ele><time>2026-04-25T14:28:44.124Z</time></trkpt><trkpt lat="43.400795" lon="10.482015"><ele>80.0</ele><time>2026-04-25T14:28:45.122Z</time></trkpt><trkpt lat="43.4008583" lon="10.4817"><ele>80.0</ele><time>2026-04-25T14:28:46.119Z</time></trkpt><trkpt lat="43.40092" lon="10.4813933"><ele>80.0</ele><time>2026-04-25T14:28:47.124Z</time></trkpt><trkpt lat="43.4009883" lon="10.4810917"><ele>80.5</ele><time>2026-04-25T14:28:48.122Z</time></trkpt><trkpt lat="43.401055" lon="10.4807933"><ele>81.0</ele><time>2026-04-25T14:28:49.127Z</time></trkpt><trkpt lat="43.40112" lon="10.4804933"><ele>80.66666666666667</ele><time>2026-04-25T14:28:50.124Z</time></trkpt><trkpt lat="43.40118" lon="10.480195"><ele>80.33333333333334</ele><time>2026-04-25T14:28:51.127Z</time></trkpt><trkpt lat="43.40124" lon="10.4799033"><ele>80.0</ele><time>2026-04-25T14:28:52.132Z</time></trkpt><trkpt lat="43.4012983" lon="10.479625"><ele>84.33333333333334</ele><time>2026-04-25T14:28:53.128Z</time></trkpt><trkpt lat="43.4013517" lon="10.4793733"><ele>88.66666666666667</ele><time>2026-04-25T14:28:54.122Z</time></trkpt><trkpt lat="43.4013983" lon="10.4791483"><ele>93.0</ele><time>2026-04-25T14:28:55.122Z</time></trkpt><trkpt lat="43.4014417" lon="10.4789467"><ele>90.5</ele><time>2026-04-25T14:28:56.126Z</time></trkpt><trkpt lat="43.4014833" lon="10.47876"><ele>88.0</ele><time>2026-04-25T14:28:57.129Z</time></trkpt><trkpt lat="43.40154" lon="10.4786"><ele>85.5</ele><time>2026-04-25T14:28:58.116Z</time></trkpt><trkpt lat="43.4016117" lon="10.4784667"><ele>83.0</ele><time>2026-04-25T14:28:59.116Z</time></trkpt><trkpt lat="43.4017133" lon="10.4783583"><ele>83.0</ele><time>2026-04-25T14:29:00.123Z</time></trkpt><trkpt lat="43.4018483" lon="10.47828"><ele>83.0</ele><time>2026-04-25T14:29:01.124Z</time></trkpt><trkpt lat="43.4020017" lon="10.4782133"><ele>83.0</ele><time>2026-04-25T14:29:02.116Z</time></trkpt><trkpt lat="43.4021617" lon="10.4781683"><ele>86.25</ele><time>2026-04-25T14:29:03.129Z</time></trkpt><trkpt lat="43.4023067" lon="10.47815"><ele>89.5</ele><time>2026-04-25T14:29:04.118Z</time></trkpt><trkpt lat="43.4024267" lon="10.4781583"><ele>92.75</ele><time>2026-04-25T14:29:05.121Z</time></trkpt><trkpt lat="43.4025333" lon="10.4781883"><ele>96.0</ele><time>2026-04-25T14:29:06.131Z</time></trkpt><trkpt lat="43.4026267" lon="10.478225"><ele>96.0</ele><time>2026-04-25T14:29:07.129Z</time></trkpt><trkpt lat="43.4027133" lon="10.478235"><ele>96.0</ele><time>2026-04-25T14:29:08.127Z</time></trkpt><trkpt lat="43.402785" lon="10.4782233"><ele>96.0</ele><time>2026-04-25T14:29:09.128Z</time></trkpt><trkpt lat="43.4028367" lon="10.4781667"><ele>96.0</ele><time>2026-04-25T14:29:10.134Z</time></trkpt><trkpt lat="43.402865" lon="10.4780717"><ele>96.0</ele><time>2026-04-25T14:29:11.134Z</time></trkpt><trkpt lat="43.4028617" lon="10.477935"><ele>96.0</ele><time>2026-04-25T14:29:12.131Z</time></trkpt><trkpt lat="43.4028317" lon="10.47779"><ele>96.0</ele><time>2026-04-25T14:29:13.138Z</time></trkpt><trkpt lat="43.4027917" lon="10.47765"><ele>96.0</ele><time>2026-04-25T14:29:14.128Z</time></trkpt><trkpt lat="43.4027217" lon="10.477545"><ele>96.0</ele><time>2026-04-25T14:29:15.124Z</time></trkpt><trkpt lat="43.4026283" lon="10.47746"><ele>96.0</ele><time>2026-04-25T14:29:16.125Z</time></trkpt><trkpt lat="43.40244" lon="10.4774233"><ele>96.0</ele><time>2026-04-25T14:29:17.13Z</time></trkpt><trkpt lat="43.4022083" lon="10.47739"><ele>96.0</ele><time>2026-04-25T14:29:18.125Z</time></trkpt><trkpt lat="43.4019767" lon="10.4773533"><ele>93.66666666666667</ele><time>2026-04-25T14:29:19.124Z</time></trkpt><trkpt lat="43.401795" lon="10.47732"><ele>91.33333333333334</ele><time>2026-04-25T14:29:20.124Z</time></trkpt><trkpt lat="43.401625" lon="10.477305"><ele>89.0</ele><time>2026-04-25T14:29:21.127Z</time></trkpt><trkpt lat="43.40148" lon="10.47728"><ele>89.0</ele><time>2026-04-25T14:29:22.133Z</time></trkpt><trkpt lat="43.40135" lon="10.47723"><ele>89.0</ele><time>2026-04-25T14:29:23.128Z</time></trkpt><trkpt lat="43.4012267" lon="10.4771283"><ele>89.0</ele><time>2026-04-25T14:29:24.124Z</time></trkpt><trkpt lat="43.401125" lon="10.4769917"><ele>89.0</ele><time>2026-04-25T14:29:25.123Z</time></trkpt><trkpt lat="43.4010467" lon="10.47683"><ele>89.0</ele><time>2026-04-25T14:29:26.129Z</time></trkpt><trkpt lat="43.4009983" lon="10.4766417"><ele>89.0</ele><time>2026-04-25T14:29:27.13Z</time></trkpt><trkpt lat="43.4009833" lon="10.4764367"><ele>89.0</ele><time>2026-04-25T14:29:28.13Z</time></trkpt><trkpt lat="43.4009933" lon="10.4762167"><ele>89.66666666666667</ele><time>2026-04-25T14:29:29.118Z</time></trkpt><trkpt lat="43.4010117" lon="10.4759917"><ele>90.33333333333333</ele><time>2026-04-25T14:29:30.124Z</time></trkpt><trkpt lat="43.40103" lon="10.4757533"><ele>91.0</ele><time>2026-04-25T14:29:31.129Z</time></trkpt><trkpt lat="43.40105" lon="10.4755"><ele>90.0</ele><time>2026-04-25T14:29:32.128Z</time></trkpt><trkpt lat="43.4010717" lon="10.4752367"><ele>89.0</ele><time>2026-04-25T14:29:33.119Z</time></trkpt><trkpt lat="43.4010983" lon="10.47495"><ele>88.0</ele><time>2026-04-25T14:29:34.124Z</time></trkpt><trkpt lat="43.40113" lon="10.4746417"><ele>86.66666666666666</ele><time>2026-04-25T14:29:35.127Z</time></trkpt><trkpt lat="43.4011533" lon="10.4743317"><ele>85.33333333333333</ele><time>2026-04-25T14:29:36.137Z</time></trkpt><trkpt lat="43.4011683" lon="10.4740267"><ele>84.0</ele><time>2026-04-25T14:29:37.125Z</time></trkpt><trkpt lat="43.4011783" lon="10.4737333"><ele>83.0</ele><time>2026-04-25T14:29:38.128Z</time></trkpt><trkpt lat="43.4011817" lon="10.4734483"><ele>82.0</ele><time>2026-04-25T14:29:39.119Z</time></trkpt><trkpt lat="43.4011783" lon="10.4731733"><ele>81.0</ele><time>2026-04-25T14:29:40.12Z</time></trkpt><trkpt lat="43.40117" lon="10.47291"><ele>80.66666666666667</ele><time>2026-04-25T14:29:41.137Z</time></trkpt><trkpt lat="43.4011633" lon="10.472655"><ele>80.33333333333334</ele><time>2026-04-25T14:29:42.137Z</time></trkpt><trkpt lat="43.4011567" lon="10.47241"><ele>80.0</ele><time>2026-04-25T14:29:43.131Z</time></trkpt><trkpt lat="43.4011483" lon="10.4721883"><ele>79.33333333333334</ele><time>2026-04-25T14:29:44.127Z</time></trkpt><trkpt lat="43.40113" lon="10.4718117"><ele>78.66666666666667</ele><time>2026-04-25T14:29:46.124Z</time></trkpt><trkpt lat="43.401125" lon="10.4716517"><ele>78.0</ele><time>2026-04-25T14:29:47.119Z</time></trkpt><trkpt lat="43.4011333" lon="10.4715017"><ele>78.0</ele><time>2026-04-25T14:29:48.129Z</time></trkpt><trkpt lat="43.4011583" lon="10.4713483"><ele>78.0</ele><time>2026-04-25T14:29:49.136Z</time></trkpt><trkpt lat="43.401205" lon="10.4711917"><ele>78.0</ele><time>2026-04-25T14:29:50.123Z</time></trkpt><trkpt lat="43.40126" lon="10.4710483"><ele>78.0</ele><time>2026-04-25T14:29:51.12Z</time></trkpt><trkpt lat="43.401315" lon="10.47093"><ele>78.4</ele><time>2026-04-25T14:29:52.12Z</time></trkpt><trkpt lat="43.4013683" lon="10.470835"><ele>78.8</ele><time>2026-04-25T14:29:53.121Z</time></trkpt><trkpt lat="43.4014167" lon="10.47076"><ele>79.2</ele><time>2026-04-25T14:29:54.121Z</time></trkpt><trkpt lat="43.4014917" lon="10.4706483"><ele>79.6</ele><time>2026-04-25T14:29:56.123Z</time></trkpt><trkpt lat="43.4015317" lon="10.47054"><ele>80.0</ele><time>2026-04-25T14:29:58.121Z</time></trkpt><trkpt lat="43.4015467" lon="10.4703567"><ele>80.0</ele><time>2026-04-25T14:30:00.125Z</time></trkpt><trkpt lat="43.4015367" lon="10.4702167"><ele>80.0</ele><time>2026-04-25T14:30:01.123Z</time></trkpt><trkpt lat="43.4015167" lon="10.47003"><ele>80.0</ele><time>2026-04-25T14:30:02.12Z</time></trkpt><trkpt lat="43.4014983" lon="10.4698117"><ele>80.0</ele><time>2026-04-25T14:30:03.119Z</time></trkpt><trkpt lat="43.4014783" lon="10.4695733"><ele>79.33333333333334</ele><time>2026-04-25T14:30:04.128Z</time></trkpt><trkpt lat="43.4014567" lon="10.4693317"><ele>78.66666666666667</ele><time>2026-04-25T14:30:05.124Z</time></trkpt><trkpt lat="43.401445" lon="10.4691017"><ele>78.0</ele><time>2026-04-25T14:30:06.126Z</time></trkpt><trkpt lat="43.4014533" lon="10.4688833"><ele>77.25</ele><time>2026-04-25T14:30:07.124Z</time></trkpt><trkpt lat="43.4014817" lon="10.46867"><ele>76.5</ele><time>2026-04-25T14:30:08.13Z</time></trkpt><trkpt lat="43.4015267" lon="10.4684717"><ele>75.75</ele><time>2026-04-25T14:30:09.122Z</time></trkpt><trkpt lat="43.401585" lon="10.4682983"><ele>75.0</ele><time>2026-04-25T14:30:10.127Z</time></trkpt><trkpt lat="43.4016633" lon="10.4681467"><ele>75.0</ele><time>2026-04-25T14:30:11.12Z</time></trkpt><trkpt lat="43.40177" lon="10.4680033"><ele>75.0</ele><time>2026-04-25T14:30:12.12Z</time></trkpt><trkpt lat="43.4019133" lon="10.4678583"><ele>75.0</ele><time>2026-04-25T14:30:13.123Z</time></trkpt><trkpt lat="43.4020783" lon="10.4677133"><ele>74.33333333333333</ele><time>2026-04-25T14:30:14.121Z</time></trkpt><trkpt lat="43.4022333" lon="10.46758"><ele>73.66666666666666</ele><time>2026-04-25T14:30:15.12Z</time></trkpt><trkpt lat="43.4023733" lon="10.4674567"><ele>73.0</ele><time>2026-04-25T14:30:16.12Z</time></trkpt><trkpt lat="43.4025" lon="10.4673467"><ele>73.0</ele><time>2026-04-25T14:30:17.132Z</time></trkpt><trkpt lat="43.4026117" lon="10.4672317"><ele>73.0</ele><time>2026-04-25T14:30:18.128Z</time></trkpt><trkpt lat="43.4027067" lon="10.467105"><ele>73.0</ele><time>2026-04-25T14:30:19.129Z</time></trkpt><trkpt lat="43.4027817" lon="10.46696"><ele>73.0</ele><time>2026-04-25T14:30:20.117Z</time></trkpt><trkpt lat="43.4028317" lon="10.4667967"><ele>72.5</ele><time>2026-04-25T14:30:21.125Z</time></trkpt><trkpt lat="43.40286" lon="10.4666183"><ele>72.0</ele><time>2026-04-25T14:30:22.122Z</time></trkpt><trkpt lat="43.4028583" lon="10.4664167"><ele>71.5</ele><time>2026-04-25T14:30:23.131Z</time></trkpt><trkpt lat="43.402835" lon="10.466185"><ele>71.0</ele><time>2026-04-25T14:30:24.127Z</time></trkpt><trkpt lat="43.4028" lon="10.4659367"><ele>72.0</ele><time>2026-04-25T14:30:25.127Z</time></trkpt><trkpt lat="43.4027633" lon="10.4657067"><ele>73.0</ele><time>2026-04-25T14:30:26.127Z</time></trkpt><trkpt lat="43.4027367" lon="10.4654917"><ele>74.0</ele><time>2026-04-25T14:30:27.126Z</time></trkpt><trkpt lat="43.4027217" lon="10.4652683"><ele>74.0</ele><time>2026-04-25T14:30:28.125Z</time></trkpt><trkpt lat="43.402725" lon="10.4650267"><ele>74.0</ele><time>2026-04-25T14:30:29.137Z</time></trkpt><trkpt lat="43.402755" lon="10.4647567"><ele>74.0</ele><time>2026-04-25T14:30:30.13Z</time></trkpt><trkpt lat="43.4027983" lon="10.4644917"><ele>73.33333333333334</ele><time>2026-04-25T14:30:31.127Z</time></trkpt><trkpt lat="43.4028367" lon="10.464245"><ele>72.66666666666667</ele><time>2026-04-25T14:30:32.134Z</time></trkpt><trkpt lat="43.40287" lon="10.4640233"><ele>72.0</ele><time>2026-04-25T14:30:33.136Z</time></trkpt><trkpt lat="43.4028833" lon="10.463815"><ele>71.33333333333333</ele><time>2026-04-25T14:30:34.135Z</time></trkpt><trkpt lat="43.4028833" lon="10.4635983"><ele>70.66666666666666</ele><time>2026-04-25T14:30:35.123Z</time></trkpt><trkpt lat="43.4028583" lon="10.463365"><ele>70.0</ele><time>2026-04-25T14:30:36.126Z</time></trkpt><trkpt lat="43.4028083" lon="10.46311"><ele>69.66666666666666</ele><time>2026-04-25T14:30:37.122Z</time></trkpt><trkpt lat="43.4027533" lon="10.46287"><ele>69.33333333333333</ele><time>2026-04-25T14:30:38.117Z</time></trkpt><trkpt lat="43.40268" lon="10.4626467"><ele>69.0</ele><time>2026-04-25T14:30:39.129Z</time></trkpt><trkpt lat="43.4025967" lon="10.4624133"><ele>69.0</ele><time>2026-04-25T14:30:40.122Z</time></trkpt><trkpt lat="43.402485" lon="10.4621767"><ele>69.0</ele><time>2026-04-25T14:30:41.119Z</time></trkpt><trkpt lat="43.4023633" lon="10.461955"><ele>69.0</ele><time>2026-04-25T14:30:42.121Z</time></trkpt><trkpt lat="43.4022467" lon="10.4617617"><ele>68.0</ele><time>2026-04-25T14:30:43.121Z</time></trkpt><trkpt lat="43.4021383" lon="10.4615917"><ele>67.0</ele><time>2026-04-25T14:30:44.137Z</time></trkpt><trkpt lat="43.4020383" lon="10.4614317"><ele>66.0</ele><time>2026-04-25T14:30:45.122Z</time></trkpt><trkpt lat="43.401945" lon="10.4612817"><ele>66.0</ele><time>2026-04-25T14:30:46.136Z</time></trkpt><trkpt lat="43.4018483" lon="10.4611267"><ele>66.0</ele><time>2026-04-25T14:30:47.126Z</time></trkpt><trkpt lat="43.401755" lon="10.460965"><ele>66.0</ele><time>2026-04-25T14:30:48.128Z</time></trkpt><trkpt lat="43.401665" lon="10.460805"><ele>66.0</ele><time>2026-04-25T14:30:49.134Z</time></trkpt><trkpt lat="43.401575" lon="10.4606483"><ele>66.0</ele><time>2026-04-25T14:30:50.124Z</time></trkpt><trkpt lat="43.4014867" lon="10.4604867"><ele>66.0</ele><time>2026-04-25T14:30:51.128Z</time></trkpt><trkpt lat="43.4013983" lon="10.460325"><ele>66.0</ele><time>2026-04-25T14:30:52.124Z</time></trkpt><trkpt lat="43.4013083" lon="10.4601567"><ele>66.0</ele><time>2026-04-25T14:30:53.126Z</time></trkpt><trkpt lat="43.4012167" lon="10.4599817"><ele>64.0</ele><time>2026-04-25T14:30:54.128Z</time></trkpt><trkpt lat="43.401125" lon="10.4598067"><ele>62.0</ele><time>2026-04-25T14:30:55.126Z</time></trkpt><trkpt lat="43.4010317" lon="10.4596283"><ele>60.0</ele><time>2026-04-25T14:30:56.131Z</time></trkpt><trkpt lat="43.40093" lon="10.45944"><ele>58.66666666666667</ele><time>2026-04-25T14:30:57.121Z</time></trkpt><trkpt lat="43.4008133" lon="10.4592417"><ele>57.333333333333336</ele><time>2026-04-25T14:30:58.127Z</time></trkpt><trkpt lat="43.40069" lon="10.459045"><ele>56.0</ele><time>2026-04-25T14:30:59.121Z</time></trkpt><trkpt lat="43.400565" lon="10.4588533"><ele>54.66666666666667</ele><time>2026-04-25T14:31:00.12Z</time></trkpt><trkpt lat="43.400445" lon="10.4586717"><ele>53.33333333333333</ele><time>2026-04-25T14:31:01.127Z</time></trkpt><trkpt lat="43.4003283" lon="10.4584967"><ele>52.0</ele><time>2026-04-25T14:31:02.128Z</time></trkpt><trkpt lat="43.400215" lon="10.4583217"><ele>52.0</ele><time>2026-04-25T14:31:03.129Z</time></trkpt><trkpt lat="43.400095" lon="10.4581467"><ele>52.0</ele><time>2026-04-25T14:31:04.131Z</time></trkpt><trkpt lat="43.3999733" lon="10.4579783"><ele>52.0</ele><time>2026-04-25T14:31:05.131Z</time></trkpt><trkpt lat="43.39986" lon="10.457815"><ele>51.666666666666664</ele><time>2026-04-25T14:31:06.132Z</time></trkpt><trkpt lat="43.3997517" lon="10.457655"><ele>51.33333333333333</ele><time>2026-04-25T14:31:07.124Z</time></trkpt><trkpt lat="43.3996417" lon="10.4574917"><ele>51.0</ele><time>2026-04-25T14:31:08.123Z</time></trkpt><trkpt lat="43.39953" lon="10.457335"><ele>51.0</ele><time>2026-04-25T14:31:09.131Z</time></trkpt><trkpt lat="43.3994217" lon="10.4571733"><ele>51.0</ele><time>2026-04-25T14:31:10.135Z</time></trkpt><trkpt lat="43.399315" lon="10.45702"><ele>51.0</ele><time>2026-04-25T14:31:11.132Z</time></trkpt><trkpt lat="43.3992167" lon="10.4568783"><ele>50.8</ele><time>2026-04-25T14:31:12.129Z</time></trkpt><trkpt lat="43.3991267" lon="10.4567483"><ele>50.599999999999994</ele><time>2026-04-25T14:31:13.124Z</time></trkpt><trkpt lat="43.39905" lon="10.4566367"><ele>50.4</ele><time>2026-04-25T14:31:14.131Z</time></trkpt><trkpt lat="43.39898" lon="10.4565417"><ele>50.2</ele><time>2026-04-25T14:31:15.123Z</time></trkpt><trkpt lat="43.3989167" lon="10.456455"><ele>50.0</ele><time>2026-04-25T14:31:16.114Z</time></trkpt><trkpt lat="43.3988633" lon="10.456365"><ele>49.833333333333336</ele><time>2026-04-25T14:31:17.122Z</time></trkpt><trkpt lat="43.3988367" lon="10.4562733"><ele>49.66666666666667</ele><time>2026-04-25T14:31:18.129Z</time></trkpt><trkpt lat="43.398835" lon="10.4561767"><ele>49.5</ele><time>2026-04-25T14:31:19.127Z</time></trkpt><trkpt lat="43.3988617" lon="10.4560867"><ele>49.33333333333333</ele><time>2026-04-25T14:31:20.127Z</time></trkpt><trkpt lat="43.3989183" lon="10.456005"><ele>49.166666666666664</ele><time>2026-04-25T14:31:21.127Z</time></trkpt><trkpt lat="43.3990133" lon="10.4559283"><ele>49.0</ele><time>2026-04-25T14:31:22.129Z</time></trkpt><trkpt lat="43.3991433" lon="10.45584"><ele>49.0</ele><time>2026-04-25T14:31:23.129Z</time></trkpt><trkpt lat="43.3992533" lon="10.45574"><ele>49.0</ele><time>2026-04-25T14:31:24.121Z</time></trkpt><trkpt lat="43.3993383" lon="10.45563"><ele>49.0</ele><time>2026-04-25T14:31:25.124Z</time></trkpt><trkpt lat="43.399405" lon="10.45551"><ele>49.0</ele><time>2026-04-25T14:31:26.12Z</time></trkpt><trkpt lat="43.3994483" lon="10.45538"><ele>48.5</ele><time>2026-04-25T14:31:27.128Z</time></trkpt><trkpt lat="43.3994633" lon="10.45524"><ele>48.0</ele><time>2026-04-25T14:31:28.12Z</time></trkpt><trkpt lat="43.3994533" lon="10.4550833"><ele>47.5</ele><time>2026-04-25T14:31:29.126Z</time></trkpt><trkpt lat="43.39942" lon="10.4549083"><ele>47.0</ele><time>2026-04-25T14:31:30.115Z</time></trkpt><trkpt lat="43.3993667" lon="10.45471"><ele>47.666666666666664</ele><time>2026-04-25T14:31:31.126Z</time></trkpt><trkpt lat="43.3993117" lon="10.4545033"><ele>48.33333333333333</ele><time>2026-04-25T14:31:32.121Z</time></trkpt><trkpt lat="43.39925" lon="10.4542983"><ele>49.0</ele><time>2026-04-25T14:31:33.124Z</time></trkpt><trkpt lat="43.3991933" lon="10.4541"><ele>49.0</ele><time>2026-04-25T14:31:34.132Z</time></trkpt><trkpt lat="43.39914" lon="10.4539083"><ele>49.0</ele><time>2026-04-25T14:31:35.13Z</time></trkpt><trkpt lat="43.39909" lon="10.4537233"><ele>49.0</ele><time>2026-04-25T14:31:36.145Z</time></trkpt><trkpt lat="43.3990383" lon="10.4535417"><ele>49.0</ele><time>2026-04-25T14:31:37.124Z</time></trkpt><trkpt lat="43.3989867" lon="10.4533583"><ele>49.0</ele><time>2026-04-25T14:31:38.12Z</time></trkpt><trkpt lat="43.3989333" lon="10.4531733"><ele>49.0</ele><time>2026-04-25T14:31:39.121Z</time></trkpt><trkpt lat="43.3988783" lon="10.4529783"><ele>49.0</ele><time>2026-04-25T14:31:40.125Z</time></trkpt><trkpt lat="43.3988233" lon="10.4527767"><ele>47.666666666666664</ele><time>2026-04-25T14:31:41.127Z</time></trkpt><trkpt lat="43.39877" lon="10.452565"><ele>46.33333333333333</ele><time>2026-04-25T14:31:42.139Z</time></trkpt><trkpt lat="43.3987133" lon="10.452345"><ele>45.0</ele><time>2026-04-25T14:31:43.125Z</time></trkpt><trkpt lat="43.3986583" lon="10.4521183"><ele>44.333333333333336</ele><time>2026-04-25T14:31:44.122Z</time></trkpt><trkpt lat="43.3986117" lon="10.45189"><ele>43.66666666666667</ele><time>2026-04-25T14:31:45.121Z</time></trkpt><trkpt lat="43.3985683" lon="10.4516683"><ele>43.0</ele><time>2026-04-25T14:31:46.122Z</time></trkpt><trkpt lat="43.39853" lon="10.4514517"><ele>43.0</ele><time>2026-04-25T14:31:47.127Z</time></trkpt><trkpt lat="43.3984917" lon="10.451235"><ele>43.0</ele><time>2026-04-25T14:31:48.135Z</time></trkpt><trkpt lat="43.3984533" lon="10.451025"><ele>43.0</ele><time>2026-04-25T14:31:49.125Z</time></trkpt><trkpt lat="43.3984167" lon="10.450815"><ele>43.0</ele><time>2026-04-25T14:31:50.119Z</time></trkpt><trkpt lat="43.39838" lon="10.4506017"><ele>43.0</ele><time>2026-04-25T14:31:51.128Z</time></trkpt><trkpt lat="43.398345" lon="10.4503933"><ele>43.0</ele><time>2026-04-25T14:31:52.123Z</time></trkpt><trkpt lat="43.3983133" lon="10.450185"><ele>42.0</ele><time>2026-04-25T14:31:53.129Z</time></trkpt><trkpt lat="43.3982867" lon="10.449975"><ele>41.0</ele><time>2026-04-25T14:31:54.12Z</time></trkpt><trkpt lat="43.3982767" lon="10.4497617"><ele>40.0</ele><time>2026-04-25T14:31:55.128Z</time></trkpt><trkpt lat="43.3982717" lon="10.4495483"><ele>39.333333333333336</ele><time>2026-04-25T14:31:56.121Z</time></trkpt><trkpt lat="43.3982683" lon="10.4493317"><ele>38.666666666666664</ele><time>2026-04-25T14:31:57.122Z</time></trkpt><trkpt lat="43.398265" lon="10.449115"><ele>38.0</ele><time>2026-04-25T14:31:58.127Z</time></trkpt><trkpt lat="43.398255" lon="10.4488967"><ele>37.33333333333333</ele><time>2026-04-25T14:31:59.127Z</time></trkpt><trkpt lat="43.39824" lon="10.44868"><ele>36.666666666666664</ele><time>2026-04-25T14:32:00.126Z</time></trkpt><trkpt lat="43.3982167" lon="10.44845"><ele>36.0</ele><time>2026-04-25T14:32:01.126Z</time></trkpt><trkpt lat="43.3981817" lon="10.4482183"><ele>36.0</ele><time>2026-04-25T14:32:02.127Z</time></trkpt><trkpt lat="43.3981433" lon="10.4479867"><ele>36.0</ele><time>2026-04-25T14:32:03.124Z</time></trkpt><trkpt lat="43.3981033" lon="10.4477683"><ele>36.0</ele><time>2026-04-25T14:32:04.125Z</time></trkpt><trkpt lat="43.398065" lon="10.4475617"><ele>36.0</ele><time>2026-04-25T14:32:05.127Z</time></trkpt><trkpt lat="43.3980333" lon="10.4473733"><ele>36.0</ele><time>2026-04-25T14:32:06.128Z</time></trkpt><trkpt lat="43.39801" lon="10.4472033"><ele>36.0</ele><time>2026-04-25T14:32:07.131Z</time></trkpt><trkpt lat="43.3979967" lon="10.4470517"><ele>36.0</ele><time>2026-04-25T14:32:08.127Z</time></trkpt><trkpt lat="43.3979967" lon="10.4469117"><ele>35.6</ele><time>2026-04-25T14:32:09.125Z</time></trkpt><trkpt lat="43.3980083" lon="10.44678"><ele>35.2</ele><time>2026-04-25T14:32:10.135Z</time></trkpt><trkpt lat="43.3980333" lon="10.44665"><ele>34.8</ele><time>2026-04-25T14:32:11.129Z</time></trkpt><trkpt lat="43.3980583" lon="10.4465133"><ele>34.4</ele><time>2026-04-25T14:32:12.131Z</time></trkpt><trkpt lat="43.3980767" lon="10.446355"><ele>34.0</ele><time>2026-04-25T14:32:13.127Z</time></trkpt><trkpt lat="43.398085" lon="10.4461833"><ele>33.5</ele><time>2026-04-25T14:32:14.124Z</time></trkpt><trkpt lat="43.3981033" lon="10.4460067"><ele>33.0</ele><time>2026-04-25T14:32:15.123Z</time></trkpt><trkpt lat="43.3981317" lon="10.445825"><ele>32.5</ele><time>2026-04-25T14:32:16.123Z</time></trkpt><trkpt lat="43.3981667" lon="10.4456417"><ele>32.0</ele><time>2026-04-25T14:32:17.122Z</time></trkpt><trkpt lat="43.3982" lon="10.4454667"><ele>31.999999999999996</ele><time>2026-04-25T14:32:18.124Z</time></trkpt><trkpt lat="43.39823" lon="10.445305"><ele>32.0</ele><time>2026-04-25T14:32:19.126Z</time></trkpt><trkpt lat="43.3982583" lon="10.445175"><ele>32.0</ele><time>2026-04-25T14:32:20.123Z</time></trkpt><trkpt lat="43.3982733" lon="10.4450617"><ele>32.0</ele><time>2026-04-25T14:32:21.124Z</time></trkpt><trkpt lat="43.39829" lon="10.4449617"><ele>31.999999999999996</ele><time>2026-04-25T14:32:22.129Z</time></trkpt><trkpt lat="43.398305" lon="10.4448717"><ele>32.0</ele><time>2026-04-25T14:32:23.122Z</time></trkpt><trkpt lat="43.3983267" lon="10.4447417"><ele>31.8</ele><time>2026-04-25T14:32:25.131Z</time></trkpt><trkpt lat="43.3983217" lon="10.4445933"><ele>31.6</ele><time>2026-04-25T14:33:14.129Z</time></trkpt><trkpt lat="43.3983467" lon="10.4444867"><ele>31.400000000000002</ele><time>2026-04-25T14:33:15.126Z</time></trkpt><trkpt lat="43.39837" lon="10.4443617"><ele>31.200000000000003</ele><time>2026-04-25T14:33:16.128Z</time></trkpt><trkpt lat="43.3983983" lon="10.4442267"><ele>31.0</ele><time>2026-04-25T14:33:17.129Z</time></trkpt><trkpt lat="43.3984267" lon="10.4440717"><ele>31.0</ele><time>2026-04-25T14:33:18.122Z</time></trkpt><trkpt lat="43.3984617" lon="10.4439067"><ele>31.0</ele><time>2026-04-25T14:33:19.124Z</time></trkpt><trkpt lat="43.3985017" lon="10.4437317"><ele>31.0</ele><time>2026-04-25T14:33:20.127Z</time></trkpt><trkpt lat="43.398535" lon="10.44356"><ele>31.0</ele><time>2026-04-25T14:33:21.123Z</time></trkpt><trkpt lat="43.3985733" lon="10.4433817"><ele>30.5</ele><time>2026-04-25T14:33:22.132Z</time></trkpt><trkpt lat="43.3986083" lon="10.4432017"><ele>30.0</ele><time>2026-04-25T14:33:23.13Z</time></trkpt><trkpt lat="43.398645" lon="10.443025"><ele>29.5</ele><time>2026-04-25T14:33:24.123Z</time></trkpt><trkpt lat="43.39868" lon="10.4428567"><ele>29.0</ele><time>2026-04-25T14:33:25.122Z</time></trkpt><trkpt lat="43.398715" lon="10.442695"><ele>29.0</ele><time>2026-04-25T14:33:26.126Z</time></trkpt><trkpt lat="43.3987483" lon="10.4425417"><ele>29.0</ele><time>2026-04-25T14:33:27.125Z</time></trkpt><trkpt lat="43.3987817" lon="10.4423933"><ele>29.0</ele><time>2026-04-25T14:33:28.142Z</time></trkpt><trkpt lat="43.398815" lon="10.4422467"><ele>29.0</ele><time>2026-04-25T14:33:29.131Z</time></trkpt><trkpt lat="43.3988517" lon="10.4420983"><ele>29.75</ele><time>2026-04-25T14:33:30.128Z</time></trkpt><trkpt lat="43.3988917" lon="10.4419417"><ele>30.5</ele><time>2026-04-25T14:33:31.128Z</time></trkpt><trkpt lat="43.3989367" lon="10.4417783"><ele>31.25</ele><time>2026-04-25T14:33:32.121Z</time></trkpt><trkpt lat="43.3989833" lon="10.4416117"><ele>32.0</ele><time>2026-04-25T14:33:33.113Z</time></trkpt><trkpt lat="43.3990317" lon="10.4414367"><ele>30.75</ele><time>2026-04-25T14:33:34.124Z</time></trkpt><trkpt lat="43.3990833" lon="10.441255"><ele>29.5</ele><time>2026-04-25T14:33:35.12Z</time></trkpt><trkpt lat="43.3991367" lon="10.4410683"><ele>28.25</ele><time>2026-04-25T14:33:36.123Z</time></trkpt><trkpt lat="43.39919" lon="10.4408783"><ele>27.0</ele><time>2026-04-25T14:33:37.124Z</time></trkpt><trkpt lat="43.399245" lon="10.440685"><ele>27.0</ele><time>2026-04-25T14:33:38.125Z</time></trkpt><trkpt lat="43.3993017" lon="10.440485"><ele>27.0</ele><time>2026-04-25T14:33:39.126Z</time></trkpt><trkpt lat="43.399365" lon="10.44028"><ele>27.0</ele><time>2026-04-25T14:33:40.122Z</time></trkpt><trkpt lat="43.399435" lon="10.4400717"><ele>27.0</ele><time>2026-04-25T14:33:41.122Z</time></trkpt><trkpt lat="43.39951" lon="10.4398567"><ele>27.0</ele><time>2026-04-25T14:33:42.131Z</time></trkpt><trkpt lat="43.3995817" lon="10.43964"><ele>27.0</ele><time>2026-04-25T14:33:43.128Z</time></trkpt><trkpt lat="43.3996533" lon="10.4394217"><ele>26.666666666666664</ele><time>2026-04-25T14:33:44.13Z</time></trkpt><trkpt lat="43.39972" lon="10.4392017"><ele>26.333333333333332</ele><time>2026-04-25T14:33:45.123Z</time></trkpt><trkpt lat="43.3997883" lon="10.4389833"><ele>26.0</ele><time>2026-04-25T14:33:46.123Z</time></trkpt><trkpt lat="43.3998533" lon="10.4387667"><ele>25.666666666666664</ele><time>2026-04-25T14:33:47.126Z</time></trkpt><trkpt lat="43.3999183" lon="10.4385567"><ele>25.333333333333336</ele><time>2026-04-25T14:33:48.132Z</time></trkpt><trkpt lat="43.3999817" lon="10.4383517"><ele>25.0</ele><time>2026-04-25T14:33:49.13Z</time></trkpt><trkpt lat="43.4000433" lon="10.438145"><ele>25.333333333333336</ele><time>2026-04-25T14:33:50.131Z</time></trkpt><trkpt lat="43.4001017" lon="10.4379417"><ele>25.666666666666664</ele><time>2026-04-25T14:33:51.132Z</time></trkpt><trkpt lat="43.4001617" lon="10.4377417"><ele>26.0</ele><time>2026-04-25T14:33:52.132Z</time></trkpt><trkpt lat="43.40022" lon="10.4375467"><ele>26.0</ele><time>2026-04-25T14:33:53.139Z</time></trkpt><trkpt lat="43.4002783" lon="10.4373583"><ele>26.0</ele><time>2026-04-25T14:33:54.118Z</time></trkpt><trkpt lat="43.400335" lon="10.437175"><ele>26.0</ele><time>2026-04-25T14:33:55.126Z</time></trkpt><trkpt lat="43.4003883" lon="10.4369967"><ele>26.0</ele><time>2026-04-25T14:33:56.126Z</time></trkpt><trkpt lat="43.4004417" lon="10.4368283"><ele>25.75</ele><time>2026-04-25T14:33:57.12Z</time></trkpt><trkpt lat="43.4004933" lon="10.4366667"><ele>25.5</ele><time>2026-04-25T14:33:58.131Z</time></trkpt><trkpt lat="43.4005567" lon="10.4365217"><ele>25.25</ele><time>2026-04-25T14:33:59.123Z</time></trkpt><trkpt lat="43.4006267" lon="10.43639"><ele>25.0</ele><time>2026-04-25T14:34:00.119Z</time></trkpt><trkpt lat="43.400705" lon="10.43627"><ele>24.25</ele><time>2026-04-25T14:34:01.128Z</time></trkpt><trkpt lat="43.4007917" lon="10.4361467"><ele>23.5</ele><time>2026-04-25T14:34:02.132Z</time></trkpt><trkpt lat="43.4008867" lon="10.436015"><ele>22.75</ele><time>2026-04-25T14:34:03.127Z</time></trkpt><trkpt lat="43.4009867" lon="10.4358717"><ele>22.0</ele><time>2026-04-25T14:34:04.124Z</time></trkpt><trkpt lat="43.4010867" lon="10.435725"><ele>22.0</ele><time>2026-04-25T14:34:05.123Z</time></trkpt><trkpt lat="43.4011933" lon="10.435585"><ele>22.0</ele><time>2026-04-25T14:34:06.131Z</time></trkpt><trkpt lat="43.4013067" lon="10.4354433"><ele>22.0</ele><time>2026-04-25T14:34:07.124Z</time></trkpt><trkpt lat="43.40143" lon="10.4353033"><ele>21.0</ele><time>2026-04-25T14:34:08.131Z</time></trkpt><trkpt lat="43.401555" lon="10.4351583"><ele>20.0</ele><time>2026-04-25T14:34:09.12Z</time></trkpt><trkpt lat="43.4016783" lon="10.4350083"><ele>19.0</ele><time>2026-04-25T14:34:10.125Z</time></trkpt><trkpt lat="43.4017967" lon="10.4348467"><ele>19.0</ele><time>2026-04-25T14:34:11.125Z</time></trkpt><trkpt lat="43.40191" lon="10.4346783"><ele>19.0</ele><time>2026-04-25T14:34:12.123Z</time></trkpt><trkpt lat="43.402015" lon="10.4345"><ele>19.0</ele><time>2026-04-25T14:34:13.124Z</time></trkpt><trkpt lat="43.4021117" lon="10.434315"><ele>20.0</ele><time>2026-04-25T14:34:14.133Z</time></trkpt><trkpt lat="43.4022" lon="10.43412"><ele>21.0</ele><time>2026-04-25T14:34:15.115Z</time></trkpt><trkpt lat="43.4022833" lon="10.43392"><ele>22.0</ele><time>2026-04-25T14:34:16.121Z</time></trkpt><trkpt lat="43.4023633" lon="10.4337167"><ele>22.0</ele><time>2026-04-25T14:34:17.131Z</time></trkpt><trkpt lat="43.4024383" lon="10.4335183"><ele>22.0</ele><time>2026-04-25T14:34:18.122Z</time></trkpt><trkpt lat="43.402515" lon="10.43333"><ele>22.0</ele><time>2026-04-25T14:34:19.125Z</time></trkpt><trkpt lat="43.402595" lon="10.43315"><ele>21.5</ele><time>2026-04-25T14:34:20.133Z</time></trkpt><trkpt lat="43.4027333" lon="10.43278"><ele>21.0</ele><time>2026-04-25T14:34:22.133Z</time></trkpt><trkpt lat="43.4027733" lon="10.432585"><ele>21.0</ele><time>2026-04-25T14:34:23.128Z</time></trkpt><trkpt lat="43.4027983" lon="10.4323767"><ele>21.0</ele><time>2026-04-25T14:34:24.139Z</time></trkpt><trkpt lat="43.40281" lon="10.4321617"><ele>21.0</ele><time>2026-04-25T14:34:25.125Z</time></trkpt><trkpt lat="43.4028183" lon="10.4319533"><ele>20.75</ele><time>2026-04-25T14:34:26.127Z</time></trkpt><trkpt lat="43.4028383" lon="10.431755"><ele>20.5</ele><time>2026-04-25T14:34:27.126Z</time></trkpt><trkpt lat="43.4028767" lon="10.4315633"><ele>20.25</ele><time>2026-04-25T14:34:28.127Z</time></trkpt><trkpt lat="43.40293" lon="10.4313767"><ele>20.0</ele><time>2026-04-25T14:34:29.132Z</time></trkpt><trkpt lat="43.4029917" lon="10.4312"><ele>20.25</ele><time>2026-04-25T14:34:30.142Z</time></trkpt><trkpt lat="43.4030567" lon="10.4310367"><ele>20.5</ele><time>2026-04-25T14:34:31.129Z</time></trkpt><trkpt lat="43.40313" lon="10.43089"><ele>20.75</ele><time>2026-04-25T14:34:32.121Z</time></trkpt><trkpt lat="43.40321" lon="10.4307533"><ele>21.0</ele><time>2026-04-25T14:34:33.13Z</time></trkpt><trkpt lat="43.4032933" lon="10.4306233"><ele>21.0</ele><time>2026-04-25T14:34:34.139Z</time></trkpt><trkpt lat="43.4033717" lon="10.4305017"><ele>21.0</ele><time>2026-04-25T14:34:35.132Z</time></trkpt><trkpt lat="43.4034517" lon="10.4303817"><ele>21.0</ele><time>2026-04-25T14:34:36.137Z</time></trkpt><trkpt lat="43.4035267" lon="10.43026"><ele>21.0</ele><time>2026-04-25T14:34:37.14Z</time></trkpt><trkpt lat="43.4036033" lon="10.4301417"><ele>21.4</ele><time>2026-04-25T14:34:38.132Z</time></trkpt><trkpt lat="43.4036783" lon="10.4300333"><ele>21.8</ele><time>2026-04-25T14:34:39.133Z</time></trkpt><trkpt lat="43.4037533" lon="10.4299317"><ele>22.2</ele><time>2026-04-25T14:34:40.137Z</time></trkpt><trkpt lat="43.4038233" lon="10.429835"><ele>22.599999999999998</ele><time>2026-04-25T14:34:41.139Z</time></trkpt><trkpt lat="43.40389" lon="10.4297433"><ele>23.0</ele><time>2026-04-25T14:34:42.138Z</time></trkpt><trkpt lat="43.4039533" lon="10.4296533"><ele>23.333333333333336</ele><time>2026-04-25T14:34:43.128Z</time></trkpt><trkpt lat="43.4040183" lon="10.4295633"><ele>23.666666666666668</ele><time>2026-04-25T14:34:44.123Z</time></trkpt><trkpt lat="43.4040783" lon="10.4294767"><ele>24.0</ele><time>2026-04-25T14:34:45.13Z</time></trkpt><trkpt lat="43.404135" lon="10.4293867"><ele>24.333333333333336</ele><time>2026-04-25T14:34:46.125Z</time></trkpt><trkpt lat="43.4041883" lon="10.429295"><ele>24.666666666666668</ele><time>2026-04-25T14:34:47.134Z</time></trkpt><trkpt lat="43.404235" lon="10.4291967"><ele>25.0</ele><time>2026-04-25T14:34:48.123Z</time></trkpt><trkpt lat="43.4042767" lon="10.4290933"><ele>25.0</ele><time>2026-04-25T14:34:49.128Z</time></trkpt><trkpt lat="43.4043167" lon="10.428985"><ele>25.0</ele><time>2026-04-25T14:34:50.132Z</time></trkpt><trkpt lat="43.404355" lon="10.42887"><ele>25.0</ele><time>2026-04-25T14:34:51.132Z</time></trkpt><trkpt lat="43.4043933" lon="10.42875"><ele>25.0</ele><time>2026-04-25T14:34:52.133Z</time></trkpt><trkpt lat="43.4044283" lon="10.4286267"><ele>25.0</ele><time>2026-04-25T14:34:53.13Z</time></trkpt><trkpt lat="43.4044617" lon="10.428505"><ele>24.4</ele><time>2026-04-25T14:34:54.129Z</time></trkpt><trkpt lat="43.404495" lon="10.4283883"><ele>23.8</ele><time>2026-04-25T14:34:55.127Z</time></trkpt><trkpt lat="43.40453" lon="10.4282733"><ele>23.200000000000003</ele><time>2026-04-25T14:34:56.114Z</time></trkpt><trkpt lat="43.404565" lon="10.428155"><ele>22.6</ele><time>2026-04-25T14:34:57.123Z</time></trkpt><trkpt lat="43.404605" lon="10.428035"><ele>22.0</ele><time>2026-04-25T14:34:58.125Z</time></trkpt><trkpt lat="43.4046417" lon="10.4279133"><ele>22.200000000000003</ele><time>2026-04-25T14:34:59.131Z</time></trkpt><trkpt lat="43.40467" lon="10.427785"><ele>22.4</ele><time>2026-04-25T14:35:00.127Z</time></trkpt><trkpt lat="43.4046883" lon="10.427655"><ele>22.6</ele><time>2026-04-25T14:35:01.133Z</time></trkpt><trkpt lat="43.404695" lon="10.4275167"><ele>22.799999999999997</ele><time>2026-04-25T14:35:02.125Z</time></trkpt><trkpt lat="43.4046883" lon="10.4273783"><ele>23.0</ele><time>2026-04-25T14:35:03.124Z</time></trkpt><trkpt lat="43.4046767" lon="10.4272467"><ele>22.833333333333336</ele><time>2026-04-25T14:35:04.134Z</time></trkpt><trkpt lat="43.40466" lon="10.4271233"><ele>22.666666666666668</ele><time>2026-04-25T14:35:05.125Z</time></trkpt><trkpt lat="43.4046433" lon="10.427005"><ele>22.5</ele><time>2026-04-25T14:35:06.138Z</time></trkpt><trkpt lat="43.40463" lon="10.4268933"><ele>22.333333333333332</ele><time>2026-04-25T14:35:07.131Z</time></trkpt><trkpt lat="43.404625" lon="10.4267833"><ele>22.166666666666664</ele><time>2026-04-25T14:35:08.133Z</time></trkpt><trkpt lat="43.40462" lon="10.426675"><ele>22.0</ele><time>2026-04-25T14:35:09.126Z</time></trkpt><trkpt lat="43.4046183" lon="10.426565"><ele>22.0</ele><time>2026-04-25T14:35:10.124Z</time></trkpt><trkpt lat="43.4046183" lon="10.4264517"><ele>22.0</ele><time>2026-04-25T14:35:11.122Z</time></trkpt><trkpt lat="43.404625" lon="10.42634"><ele>22.0</ele><time>2026-04-25T14:35:12.123Z</time></trkpt><trkpt lat="43.4046417" lon="10.4262267"><ele>22.0</ele><time>2026-04-25T14:35:13.125Z</time></trkpt><trkpt lat="43.4046683" lon="10.426105"><ele>22.0</ele><time>2026-04-25T14:35:14.122Z</time></trkpt><trkpt lat="43.4047067" lon="10.4259817"><ele>22.0</ele><time>2026-04-25T14:35:15.135Z</time></trkpt><trkpt lat="43.4047567" lon="10.425855"><ele>21.8</ele><time>2026-04-25T14:35:16.123Z</time></trkpt><trkpt lat="43.4048183" lon="10.4257367"><ele>21.6</ele><time>2026-04-25T14:35:17.116Z</time></trkpt><trkpt lat="43.4048767" lon="10.42563"><ele>21.400000000000002</ele><time>2026-04-25T14:35:18.124Z</time></trkpt><trkpt lat="43.4049267" lon="10.42553"><ele>21.200000000000003</ele><time>2026-04-25T14:35:19.134Z</time></trkpt><trkpt lat="43.4049683" lon="10.425425"><ele>21.0</ele><time>2026-04-25T14:35:20.125Z</time></trkpt><trkpt lat="43.4049933" lon="10.42532"><ele>21.0</ele><time>2026-04-25T14:35:21.125Z</time></trkpt><trkpt lat="43.4050033" lon="10.42523"><ele>21.0</ele><time>2026-04-25T14:35:22.136Z</time></trkpt><trkpt lat="43.4049933" lon="10.4250967"><ele>21.0</ele><time>2026-04-25T14:35:24.129Z</time></trkpt><trkpt lat="43.4049967" lon="10.42496"><ele>21.0</ele><time>2026-04-25T14:35:27.136Z</time></trkpt><trkpt lat="43.4050483" lon="10.4247717"><ele>21.0</ele><time>2026-04-25T14:35:29.132Z</time></trkpt><trkpt lat="43.40509" lon="10.4246333"><ele>21.0</ele><time>2026-04-25T14:35:30.122Z</time></trkpt><trkpt lat="43.4051317" lon="10.424485"><ele>21.0</ele><time>2026-04-25T14:35:31.125Z</time></trkpt><trkpt lat="43.405175" lon="10.42433"><ele>21.0</ele><time>2026-04-25T14:35:32.121Z</time></trkpt><trkpt lat="43.4052217" lon="10.4241633"><ele>21.0</ele><time>2026-04-25T14:35:33.122Z</time></trkpt><trkpt lat="43.4052717" lon="10.42399"><ele>21.5</ele><time>2026-04-25T14:35:34.124Z</time></trkpt><trkpt lat="43.4053217" lon="10.4238133"><ele>22.0</ele><time>2026-04-25T14:35:35.121Z</time></trkpt><trkpt lat="43.4053717" lon="10.4236367"><ele>22.5</ele><time>2026-04-25T14:35:36.132Z</time></trkpt><trkpt lat="43.40542" lon="10.423455"><ele>23.0</ele><time>2026-04-25T14:35:37.126Z</time></trkpt><trkpt lat="43.4054667" lon="10.42327"><ele>23.333333333333336</ele><time>2026-04-25T14:35:38.116Z</time></trkpt><trkpt lat="43.4055217" lon="10.4230767"><ele>23.666666666666668</ele><time>2026-04-25T14:35:39.127Z</time></trkpt><trkpt lat="43.40558" lon="10.4228767"><ele>24.0</ele><time>2026-04-25T14:35:40.129Z</time></trkpt><trkpt lat="43.4056417" lon="10.4226733"><ele>24.0</ele><time>2026-04-25T14:35:41.134Z</time></trkpt><trkpt lat="43.4057" lon="10.42246"><ele>24.0</ele><time>2026-04-25T14:35:42.132Z</time></trkpt><trkpt lat="43.40576" lon="10.422245"><ele>24.0</ele><time>2026-04-25T14:35:43.129Z</time></trkpt><trkpt lat="43.4058217" lon="10.42203"><ele>24.0</ele><time>2026-04-25T14:35:44.123Z</time></trkpt><trkpt lat="43.4058833" lon="10.4218083"><ele>24.0</ele><time>2026-04-25T14:35:45.123Z</time></trkpt><trkpt lat="43.4059483" lon="10.4215883"><ele>24.0</ele><time>2026-04-25T14:35:46.135Z</time></trkpt><trkpt lat="43.4060083" lon="10.42138"><ele>24.5</ele><time>2026-04-25T14:35:47.128Z</time></trkpt><trkpt lat="43.4060617" lon="10.4211883"><ele>25.0</ele><time>2026-04-25T14:35:48.125Z</time></trkpt><trkpt lat="43.40611" lon="10.4210117"><ele>25.5</ele><time>2026-04-25T14:35:49.133Z</time></trkpt><trkpt lat="43.40615" lon="10.4208517"><ele>26.0</ele><time>2026-04-25T14:35:50.132Z</time></trkpt><trkpt lat="43.4061783" lon="10.4207"><ele>26.0</ele><time>2026-04-25T14:35:51.134Z</time></trkpt><trkpt lat="43.4062017" lon="10.4205417"><ele>26.0</ele><time>2026-04-25T14:35:52.13Z</time></trkpt><trkpt lat="43.4062217" lon="10.4203667"><ele>26.0</ele><time>2026-04-25T14:35:53.139Z</time></trkpt><trkpt lat="43.4062383" lon="10.42017"><ele>26.0</ele><time>2026-04-25T14:35:54.124Z</time></trkpt><trkpt lat="43.406265" lon="10.4199633"><ele>26.0</ele><time>2026-04-25T14:35:55.127Z</time></trkpt><trkpt lat="43.4062967" lon="10.419745"><ele>26.0</ele><time>2026-04-25T14:35:56.126Z</time></trkpt><trkpt lat="43.40633" lon="10.4195117"><ele>26.0</ele><time>2026-04-25T14:35:57.126Z</time></trkpt><trkpt lat="43.40637" lon="10.4192683"><ele>27.333333333333332</ele><time>2026-04-25T14:35:58.125Z</time></trkpt><trkpt lat="43.4064083" lon="10.419025"><ele>28.666666666666664</ele><time>2026-04-25T14:35:59.126Z</time></trkpt><trkpt lat="43.4064483" lon="10.4187917"><ele>30.0</ele><time>2026-04-25T14:36:00.123Z</time></trkpt><trkpt lat="43.406485" lon="10.418575"><ele>30.0</ele><time>2026-04-25T14:36:01.126Z</time></trkpt><trkpt lat="43.4065267" lon="10.4183667"><ele>30.0</ele><time>2026-04-25T14:36:02.131Z</time></trkpt><trkpt lat="43.4065733" lon="10.4181667"><ele>30.0</ele><time>2026-04-25T14:36:03.121Z</time></trkpt><trkpt lat="43.4066233" lon="10.4179717"><ele>30.333333333333336</ele><time>2026-04-25T14:36:04.127Z</time></trkpt><trkpt lat="43.4066733" lon="10.4177783"><ele>30.666666666666668</ele><time>2026-04-25T14:36:05.13Z</time></trkpt><trkpt lat="43.406715" lon="10.417575"><ele>31.0</ele><time>2026-04-25T14:36:06.126Z</time></trkpt><trkpt lat="43.40675" lon="10.4173667"><ele>33.0</ele><time>2026-04-25T14:36:07.125Z</time></trkpt><trkpt lat="43.40677" lon="10.4171417"><ele>35.0</ele><time>2026-04-25T14:36:08.125Z</time></trkpt><trkpt lat="43.406785" lon="10.4169083"><ele>37.0</ele><time>2026-04-25T14:36:09.133Z</time></trkpt><trkpt lat="43.4067967" lon="10.41668"><ele>37.0</ele><time>2026-04-25T14:36:10.121Z</time></trkpt><trkpt lat="43.4068067" lon="10.416465"><ele>37.0</ele><time>2026-04-25T14:36:11.133Z</time></trkpt><trkpt lat="43.4068167" lon="10.4162717"><ele>37.0</ele><time>2026-04-25T14:36:12.123Z</time></trkpt><trkpt lat="43.40683" lon="10.41609"><ele>37.0</ele><time>2026-04-25T14:36:13.134Z</time></trkpt><trkpt lat="43.4068417" lon="10.4159133"><ele>37.75</ele><time>2026-04-25T14:36:14.128Z</time></trkpt><trkpt lat="43.406855" lon="10.41573"><ele>38.5</ele><time>2026-04-25T14:36:15.135Z</time></trkpt><trkpt lat="43.4068717" lon="10.4155517"><ele>39.25</ele><time>2026-04-25T14:36:16.124Z</time></trkpt><trkpt lat="43.4068883" lon="10.4153717"><ele>40.0</ele><time>2026-04-25T14:36:17.134Z</time></trkpt><trkpt lat="43.406905" lon="10.4151833"><ele>41.0</ele><time>2026-04-25T14:36:18.128Z</time></trkpt><trkpt lat="43.4069183" lon="10.4149833"><ele>42.0</ele><time>2026-04-25T14:36:19.125Z</time></trkpt><trkpt lat="43.4069283" lon="10.4147767"><ele>43.0</ele><time>2026-04-25T14:36:20.13Z</time></trkpt><trkpt lat="43.4069383" lon="10.4145617"><ele>45.0</ele><time>2026-04-25T14:36:21.122Z</time></trkpt><trkpt lat="43.40695" lon="10.41434"><ele>47.0</ele><time>2026-04-25T14:36:22.125Z</time></trkpt><trkpt lat="43.406965" lon="10.4141167"><ele>49.0</ele><time>2026-04-25T14:36:23.123Z</time></trkpt><trkpt lat="43.4069933" lon="10.41371"><ele>49.0</ele><time>2026-04-25T14:36:25.129Z</time></trkpt><trkpt lat="43.4070067" lon="10.413525"><ele>49.0</ele><time>2026-04-25T14:36:26.127Z</time></trkpt><trkpt lat="43.407015" lon="10.4133383"><ele>49.0</ele><time>2026-04-25T14:36:27.136Z</time></trkpt><trkpt lat="43.4070267" lon="10.413155"><ele>49.0</ele><time>2026-04-25T14:36:28.132Z</time></trkpt><trkpt lat="43.4070367" lon="10.4129817"><ele>49.400000000000006</ele><time>2026-04-25T14:36:29.128Z</time></trkpt><trkpt lat="43.4070433" lon="10.41283"><ele>49.8</ele><time>2026-04-25T14:36:30.121Z</time></trkpt><trkpt lat="43.4070533" lon="10.4127083"><ele>50.2</ele><time>2026-04-25T14:36:31.124Z</time></trkpt><trkpt lat="43.4070567" lon="10.41261"><ele>50.599999999999994</ele><time>2026-04-25T14:36:32.121Z</time></trkpt><trkpt lat="43.4070333" lon="10.4124733"><ele>51.0</ele><time>2026-04-25T14:36:34.127Z</time></trkpt><trkpt lat="43.40695" lon="10.4123517"><ele>51.0</ele><time>2026-04-25T14:36:36.125Z</time></trkpt><trkpt lat="43.4069" lon="10.4122783"><ele>51.0</ele><time>2026-04-25T14:36:37.123Z</time></trkpt><trkpt lat="43.40686" lon="10.4122"><ele>51.0</ele><time>2026-04-25T14:36:38.127Z</time></trkpt><trkpt lat="43.406835" lon="10.4121067"><ele>51.0</ele><time>2026-04-25T14:36:39.132Z</time></trkpt><trkpt lat="43.4068233" lon="10.4119883"><ele>51.0</ele><time>2026-04-25T14:36:40.113Z</time></trkpt><trkpt lat="43.4068217" lon="10.4118533"><ele>51.0</ele><time>2026-04-25T14:36:41.13Z</time></trkpt><trkpt lat="43.4068267" lon="10.4117217"><ele>50.333333333333336</ele><time>2026-04-25T14:36:42.126Z</time></trkpt><trkpt lat="43.4068267" lon="10.41161"><ele>49.666666666666664</ele><time>2026-04-25T14:36:43.126Z</time></trkpt><trkpt lat="43.4068117" lon="10.4114867"><ele>49.0</ele><time>2026-04-25T14:36:45.124Z</time></trkpt><trkpt lat="43.4068" lon="10.4113717"><ele>48.33333333333333</ele><time>2026-04-25T14:36:47.13Z</time></trkpt><trkpt lat="43.4067833" lon="10.411265"><ele>47.666666666666664</ele><time>2026-04-25T14:36:48.123Z</time></trkpt><trkpt lat="43.4067683" lon="10.4111467"><ele>47.0</ele><time>2026-04-25T14:36:49.122Z</time></trkpt><trkpt lat="43.4067583" lon="10.4110267"><ele>46.0</ele><time>2026-04-25T14:36:50.126Z</time></trkpt><trkpt lat="43.4067633" lon="10.41092"><ele>45.0</ele><time>2026-04-25T14:36:51.123Z</time></trkpt><trkpt lat="43.4067883" lon="10.4108117"><ele>44.0</ele><time>2026-04-25T14:36:52.132Z</time></trkpt><trkpt lat="43.406845" lon="10.4107033"><ele>43.0</ele><time>2026-04-25T14:36:53.117Z</time></trkpt><trkpt lat="43.4069317" lon="10.4105983"><ele>42.0</ele><time>2026-04-25T14:36:54.137Z</time></trkpt><trkpt lat="43.4070133" lon="10.4104867"><ele>41.5</ele><time>2026-04-25T14:36:55.131Z</time></trkpt><trkpt lat="43.4070883" lon="10.410385"><ele>41.0</ele><time>2026-04-25T14:36:56.124Z</time></trkpt><trkpt lat="43.40715" lon="10.410295"><ele>40.5</ele><time>2026-04-25T14:36:57.125Z</time></trkpt><trkpt lat="43.4071967" lon="10.4102283"><ele>40.0</ele><time>2026-04-25T14:36:58.137Z</time></trkpt><trkpt lat="43.4072667" lon="10.410135"><ele>39.5</ele><time>2026-04-25T14:37:00.126Z</time></trkpt><trkpt lat="43.40732" lon="10.410075"><ele>39.0</ele><time>2026-04-25T14:37:02.13Z</time></trkpt><trkpt lat="43.4073817" lon="10.409985"><ele>39.0</ele><time>2026-04-25T14:37:04.124Z</time></trkpt><trkpt lat="43.407455" lon="10.4098783"><ele>39.0</ele><time>2026-04-25T14:37:06.134Z</time></trkpt><trkpt lat="43.4075317" lon="10.4097667"><ele>39.0</ele><time>2026-04-25T14:37:08.128Z</time></trkpt><trkpt lat="43.4076117" lon="10.4096517"><ele>39.0</ele><time>2026-04-25T14:37:10.131Z</time></trkpt><trkpt lat="43.4076967" lon="10.4095317"><ele>38.4</ele><time>2026-04-25T14:37:12.113Z</time></trkpt><trkpt lat="43.4077667" lon="10.40944"><ele>37.8</ele><time>2026-04-25T14:37:14.123Z</time></trkpt><trkpt lat="43.4078367" lon="10.4093517"><ele>37.2</ele><time>2026-04-25T14:37:16.125Z</time></trkpt><trkpt lat="43.4079267" lon="10.4092417"><ele>36.6</ele><time>2026-04-25T14:37:18.122Z</time></trkpt><trkpt lat="43.408005" lon="10.4091417"><ele>36.0</ele><time>2026-04-25T14:37:20.128Z</time></trkpt><trkpt lat="43.4080683" lon="10.4090533"><ele>36.0</ele><time>2026-04-25T14:37:22.139Z</time></trkpt><trkpt lat="43.40811" lon="10.408985"><ele>36.0</ele><time>2026-04-25T14:37:24.131Z</time></trkpt><trkpt lat="43.4081133" lon="10.4088633"><ele>36.0</ele><time>2026-04-25T14:37:27.132Z</time></trkpt><trkpt lat="43.4081017" lon="10.40877"><ele>36.0</ele><time>2026-04-25T14:37:29.126Z</time></trkpt><trkpt lat="43.4080917" lon="10.408665"><ele>36.0</ele><time>2026-04-25T14:37:31.142Z</time></trkpt><trkpt lat="43.40808" lon="10.4085517"><ele>36.0</ele><time>2026-04-25T14:37:33.132Z</time></trkpt><trkpt lat="43.408065" lon="10.40844"><ele>25.0</ele><time>2026-04-25T14:37:35.131Z</time></trkpt><trkpt lat="43.4080483" lon="10.408335"><ele>25.0</ele><time>2026-04-25T14:37:38.125Z</time></trkpt><trkpt lat="43.4080417" lon="10.40822"><ele>25.0</ele><time>2026-04-25T14:37:42.134Z</time></trkpt><trkpt lat="43.40803" lon="10.4081333"><ele>25.0</ele><time>2026-04-25T14:37:45.119Z</time></trkpt></trkseg></trk></gpx>